<?xml version="1.0" encoding="UTF-8" standalone="no" ?>
<gpx xmlns="http://www.topografix.com/GPX/1/1" xmlns:xsi="http://www.w3.org/2001/XMLSchema-instance" xsi:schemaLocation="http://www.topografix.com/GPX/1/1 http://www.topografix.com/GPX/1/1/gpx.xsd" version="1.1" creator="VisuGPX - https://www.visugpx.com">
  <metadata>
    <name>E-NE-Saint Aignan Pont St Martin Le Bignon Maisdon Sevre Monnières Chapelle Heulin Loroux Bottereau Chapelle Basse Mer La Varenne Mauves Nantes</name>
    <desc><![CDATA[E-NE-Saint Aignan Pont St Martin Le Bignon Maisdon Sevre Monnières Chapelle Heulin Loroux Bottereau Chapelle Basse Mer La Varenne Mauves Nantes]]></desc>
  </metadata>
  <trk>
    <name><![CDATA[2021-09-25 08:58 +02:00]]></name>
    <trkseg>
      <trkpt lat="47.16759" lon="-1.62652">
        <ele>70</ele>
        <time>2021-09-25T06:59:32.000Z</time>
      </trkpt>
      <trkpt lat="47.16773" lon="-1.62648">
        <ele>81</ele>
        <time>2021-09-25T06:59:33.000Z</time>
      </trkpt>
      <trkpt lat="47.16761" lon="-1.6265">
        <ele>76</ele>
        <time>2021-09-25T06:59:34.000Z</time>
      </trkpt>
      <trkpt lat="47.16751" lon="-1.62646">
        <ele>73</ele>
        <time>2021-09-25T06:59:35.000Z</time>
      </trkpt>
      <trkpt lat="47.1676" lon="-1.62643">
        <ele>70</ele>
        <time>2021-09-25T06:59:39.000Z</time>
      </trkpt>
      <trkpt lat="47.1677" lon="-1.62644">
        <ele>69</ele>
        <time>2021-09-25T06:59:45.000Z</time>
      </trkpt>
      <trkpt lat="47.16772" lon="-1.62649">
        <ele>69</ele>
        <time>2021-09-25T07:01:46.000Z</time>
      </trkpt>
      <trkpt lat="47.16778" lon="-1.62661">
        <ele>75</ele>
        <time>2021-09-25T07:03:28.000Z</time>
      </trkpt>
      <trkpt lat="47.16774" lon="-1.62678">
        <ele>73</ele>
        <time>2021-09-25T07:03:32.000Z</time>
      </trkpt>
      <trkpt lat="47.16764" lon="-1.62678">
        <ele>73</ele>
        <time>2021-09-25T07:03:34.000Z</time>
      </trkpt>
      <trkpt lat="47.16753" lon="-1.62674">
        <ele>73</ele>
        <time>2021-09-25T07:03:36.000Z</time>
      </trkpt>
      <trkpt lat="47.16742" lon="-1.62678">
        <ele>72</ele>
        <time>2021-09-25T07:03:38.000Z</time>
      </trkpt>
      <trkpt lat="47.16733" lon="-1.62684">
        <ele>72</ele>
        <time>2021-09-25T07:03:40.000Z</time>
      </trkpt>
      <trkpt lat="47.16724" lon="-1.62691">
        <ele>72</ele>
        <time>2021-09-25T07:03:42.000Z</time>
      </trkpt>
      <trkpt lat="47.16716" lon="-1.62697">
        <ele>72</ele>
        <time>2021-09-25T07:03:44.000Z</time>
      </trkpt>
      <trkpt lat="47.16707" lon="-1.62688">
        <ele>72</ele>
        <time>2021-09-25T07:03:46.000Z</time>
      </trkpt>
      <trkpt lat="47.167" lon="-1.62671">
        <ele>71</ele>
        <time>2021-09-25T07:03:48.000Z</time>
      </trkpt>
      <trkpt lat="47.16697" lon="-1.62653">
        <ele>71</ele>
        <time>2021-09-25T07:03:50.000Z</time>
      </trkpt>
      <trkpt lat="47.16695" lon="-1.62633">
        <ele>71</ele>
        <time>2021-09-25T07:03:52.000Z</time>
      </trkpt>
      <trkpt lat="47.16694" lon="-1.62613">
        <ele>71</ele>
        <time>2021-09-25T07:03:54.000Z</time>
      </trkpt>
      <trkpt lat="47.16695" lon="-1.62595">
        <ele>71</ele>
        <time>2021-09-25T07:03:56.000Z</time>
      </trkpt>
      <trkpt lat="47.16696" lon="-1.62575">
        <ele>70</ele>
        <time>2021-09-25T07:03:58.000Z</time>
      </trkpt>
      <trkpt lat="47.16698" lon="-1.62556">
        <ele>70</ele>
        <time>2021-09-25T07:04:00.000Z</time>
      </trkpt>
      <trkpt lat="47.167" lon="-1.62537">
        <ele>70</ele>
        <time>2021-09-25T07:04:02.000Z</time>
      </trkpt>
      <trkpt lat="47.16703" lon="-1.62517">
        <ele>70</ele>
        <time>2021-09-25T07:04:04.000Z</time>
      </trkpt>
      <trkpt lat="47.16706" lon="-1.62498">
        <ele>70</ele>
        <time>2021-09-25T07:04:06.000Z</time>
      </trkpt>
      <trkpt lat="47.16709" lon="-1.62479">
        <ele>70</ele>
        <time>2021-09-25T07:04:08.000Z</time>
      </trkpt>
      <trkpt lat="47.16712" lon="-1.62461">
        <ele>70</ele>
        <time>2021-09-25T07:04:10.000Z</time>
      </trkpt>
      <trkpt lat="47.16715" lon="-1.62443">
        <ele>70</ele>
        <time>2021-09-25T07:04:12.000Z</time>
      </trkpt>
      <trkpt lat="47.16718" lon="-1.62426">
        <ele>70</ele>
        <time>2021-09-25T07:04:14.000Z</time>
      </trkpt>
      <trkpt lat="47.16723" lon="-1.62412">
        <ele>70</ele>
        <time>2021-09-25T07:04:16.000Z</time>
      </trkpt>
      <trkpt lat="47.16717" lon="-1.624">
        <ele>70</ele>
        <time>2021-09-25T07:04:18.000Z</time>
      </trkpt>
      <trkpt lat="47.16709" lon="-1.62387">
        <ele>70</ele>
        <time>2021-09-25T07:04:20.000Z</time>
      </trkpt>
      <trkpt lat="47.167" lon="-1.62375">
        <ele>71</ele>
        <time>2021-09-25T07:04:22.000Z</time>
      </trkpt>
      <trkpt lat="47.16689" lon="-1.62366">
        <ele>71</ele>
        <time>2021-09-25T07:04:24.000Z</time>
      </trkpt>
      <trkpt lat="47.16677" lon="-1.62362">
        <ele>71</ele>
        <time>2021-09-25T07:04:26.000Z</time>
      </trkpt>
      <trkpt lat="47.16665" lon="-1.62363">
        <ele>71</ele>
        <time>2021-09-25T07:04:28.000Z</time>
      </trkpt>
      <trkpt lat="47.16653" lon="-1.62366">
        <ele>70</ele>
        <time>2021-09-25T07:04:30.000Z</time>
      </trkpt>
      <trkpt lat="47.16642" lon="-1.62375">
        <ele>70</ele>
        <time>2021-09-25T07:04:32.000Z</time>
      </trkpt>
      <trkpt lat="47.16633" lon="-1.62385">
        <ele>71</ele>
        <time>2021-09-25T07:04:34.000Z</time>
      </trkpt>
      <trkpt lat="47.16624" lon="-1.62397">
        <ele>71</ele>
        <time>2021-09-25T07:04:36.000Z</time>
      </trkpt>
      <trkpt lat="47.16616" lon="-1.62411">
        <ele>71</ele>
        <time>2021-09-25T07:04:38.000Z</time>
      </trkpt>
      <trkpt lat="47.16608" lon="-1.62425">
        <ele>72</ele>
        <time>2021-09-25T07:04:40.000Z</time>
      </trkpt>
      <trkpt lat="47.16602" lon="-1.62439">
        <ele>73</ele>
        <time>2021-09-25T07:04:42.000Z</time>
      </trkpt>
      <trkpt lat="47.16595" lon="-1.62454">
        <ele>73</ele>
        <time>2021-09-25T07:04:44.000Z</time>
      </trkpt>
      <trkpt lat="47.16588" lon="-1.62469">
        <ele>74</ele>
        <time>2021-09-25T07:04:46.000Z</time>
      </trkpt>
      <trkpt lat="47.16582" lon="-1.62484">
        <ele>74</ele>
        <time>2021-09-25T07:04:48.000Z</time>
      </trkpt>
      <trkpt lat="47.16576" lon="-1.625">
        <ele>73</ele>
        <time>2021-09-25T07:04:50.000Z</time>
      </trkpt>
      <trkpt lat="47.16569" lon="-1.62515">
        <ele>74</ele>
        <time>2021-09-25T07:04:52.000Z</time>
      </trkpt>
      <trkpt lat="47.16563" lon="-1.62531">
        <ele>74</ele>
        <time>2021-09-25T07:04:54.000Z</time>
      </trkpt>
      <trkpt lat="47.16555" lon="-1.62543">
        <ele>74</ele>
        <time>2021-09-25T07:04:56.000Z</time>
      </trkpt>
      <trkpt lat="47.16546" lon="-1.62554">
        <ele>75</ele>
        <time>2021-09-25T07:04:58.000Z</time>
      </trkpt>
      <trkpt lat="47.16537" lon="-1.62564">
        <ele>75</ele>
        <time>2021-09-25T07:05:00.000Z</time>
      </trkpt>
      <trkpt lat="47.16528" lon="-1.62568">
        <ele>75</ele>
        <time>2021-09-25T07:05:02.000Z</time>
      </trkpt>
      <trkpt lat="47.16515" lon="-1.62564">
        <ele>76</ele>
        <time>2021-09-25T07:05:04.000Z</time>
      </trkpt>
      <trkpt lat="47.16502" lon="-1.62561">
        <ele>76</ele>
        <time>2021-09-25T07:05:06.000Z</time>
      </trkpt>
      <trkpt lat="47.1649" lon="-1.62557">
        <ele>76</ele>
        <time>2021-09-25T07:05:08.000Z</time>
      </trkpt>
      <trkpt lat="47.16479" lon="-1.62553">
        <ele>76</ele>
        <time>2021-09-25T07:05:10.000Z</time>
      </trkpt>
      <trkpt lat="47.16467" lon="-1.62549">
        <ele>77</ele>
        <time>2021-09-25T07:05:12.000Z</time>
      </trkpt>
      <trkpt lat="47.16455" lon="-1.62545">
        <ele>77</ele>
        <time>2021-09-25T07:05:14.000Z</time>
      </trkpt>
      <trkpt lat="47.16443" lon="-1.62542">
        <ele>76</ele>
        <time>2021-09-25T07:05:16.000Z</time>
      </trkpt>
      <trkpt lat="47.16431" lon="-1.62544">
        <ele>76</ele>
        <time>2021-09-25T07:05:18.000Z</time>
      </trkpt>
      <trkpt lat="47.1642" lon="-1.62554">
        <ele>76</ele>
        <time>2021-09-25T07:05:20.000Z</time>
      </trkpt>
      <trkpt lat="47.16409" lon="-1.62564">
        <ele>76</ele>
        <time>2021-09-25T07:05:22.000Z</time>
      </trkpt>
      <trkpt lat="47.16399" lon="-1.62573">
        <ele>76</ele>
        <time>2021-09-25T07:05:24.000Z</time>
      </trkpt>
      <trkpt lat="47.16387" lon="-1.62581">
        <ele>75</ele>
        <time>2021-09-25T07:05:26.000Z</time>
      </trkpt>
      <trkpt lat="47.16375" lon="-1.62585">
        <ele>75</ele>
        <time>2021-09-25T07:05:28.000Z</time>
      </trkpt>
      <trkpt lat="47.16362" lon="-1.62584">
        <ele>75</ele>
        <time>2021-09-25T07:05:30.000Z</time>
      </trkpt>
      <trkpt lat="47.16349" lon="-1.62582">
        <ele>74</ele>
        <time>2021-09-25T07:05:32.000Z</time>
      </trkpt>
      <trkpt lat="47.16336" lon="-1.62577">
        <ele>74</ele>
        <time>2021-09-25T07:05:34.000Z</time>
      </trkpt>
      <trkpt lat="47.16324" lon="-1.62573">
        <ele>74</ele>
        <time>2021-09-25T07:05:36.000Z</time>
      </trkpt>
      <trkpt lat="47.16311" lon="-1.62572">
        <ele>73</ele>
        <time>2021-09-25T07:05:38.000Z</time>
      </trkpt>
      <trkpt lat="47.16299" lon="-1.62579">
        <ele>74</ele>
        <time>2021-09-25T07:05:40.000Z</time>
      </trkpt>
      <trkpt lat="47.1629" lon="-1.62591">
        <ele>74</ele>
        <time>2021-09-25T07:05:42.000Z</time>
      </trkpt>
      <trkpt lat="47.16285" lon="-1.62608">
        <ele>74</ele>
        <time>2021-09-25T07:05:44.000Z</time>
      </trkpt>
      <trkpt lat="47.16281" lon="-1.62625">
        <ele>74</ele>
        <time>2021-09-25T07:05:46.000Z</time>
      </trkpt>
      <trkpt lat="47.16278" lon="-1.62643">
        <ele>74</ele>
        <time>2021-09-25T07:05:48.000Z</time>
      </trkpt>
      <trkpt lat="47.16277" lon="-1.62661">
        <ele>74</ele>
        <time>2021-09-25T07:05:50.000Z</time>
      </trkpt>
      <trkpt lat="47.16277" lon="-1.62678">
        <ele>74</ele>
        <time>2021-09-25T07:05:52.000Z</time>
      </trkpt>
      <trkpt lat="47.16278" lon="-1.62693">
        <ele>74</ele>
        <time>2021-09-25T07:05:54.000Z</time>
      </trkpt>
      <trkpt lat="47.1628" lon="-1.62711">
        <ele>75</ele>
        <time>2021-09-25T07:05:57.000Z</time>
      </trkpt>
      <trkpt lat="47.16282" lon="-1.62728">
        <ele>75</ele>
        <time>2021-09-25T07:06:00.000Z</time>
      </trkpt>
      <trkpt lat="47.16271" lon="-1.62737">
        <ele>75</ele>
        <time>2021-09-25T07:06:03.000Z</time>
      </trkpt>
      <trkpt lat="47.16258" lon="-1.62741">
        <ele>75</ele>
        <time>2021-09-25T07:06:05.000Z</time>
      </trkpt>
      <trkpt lat="47.16245" lon="-1.62748">
        <ele>75</ele>
        <time>2021-09-25T07:06:07.000Z</time>
      </trkpt>
      <trkpt lat="47.16231" lon="-1.62755">
        <ele>75</ele>
        <time>2021-09-25T07:06:09.000Z</time>
      </trkpt>
      <trkpt lat="47.16216" lon="-1.62762">
        <ele>74</ele>
        <time>2021-09-25T07:06:11.000Z</time>
      </trkpt>
      <trkpt lat="47.16202" lon="-1.62772">
        <ele>73</ele>
        <time>2021-09-25T07:06:13.000Z</time>
      </trkpt>
      <trkpt lat="47.16189" lon="-1.62784">
        <ele>73</ele>
        <time>2021-09-25T07:06:15.000Z</time>
      </trkpt>
      <trkpt lat="47.16175" lon="-1.62796">
        <ele>72</ele>
        <time>2021-09-25T07:06:17.000Z</time>
      </trkpt>
      <trkpt lat="47.16161" lon="-1.62808">
        <ele>72</ele>
        <time>2021-09-25T07:06:19.000Z</time>
      </trkpt>
      <trkpt lat="47.16147" lon="-1.6282">
        <ele>72</ele>
        <time>2021-09-25T07:06:21.000Z</time>
      </trkpt>
      <trkpt lat="47.16132" lon="-1.62833">
        <ele>71</ele>
        <time>2021-09-25T07:06:23.000Z</time>
      </trkpt>
      <trkpt lat="47.16119" lon="-1.62845">
        <ele>70</ele>
        <time>2021-09-25T07:06:25.000Z</time>
      </trkpt>
      <trkpt lat="47.16104" lon="-1.62858">
        <ele>70</ele>
        <time>2021-09-25T07:06:27.000Z</time>
      </trkpt>
      <trkpt lat="47.16089" lon="-1.62871">
        <ele>69</ele>
        <time>2021-09-25T07:06:29.000Z</time>
      </trkpt>
      <trkpt lat="47.16074" lon="-1.62883">
        <ele>69</ele>
        <time>2021-09-25T07:06:31.000Z</time>
      </trkpt>
      <trkpt lat="47.16059" lon="-1.62896">
        <ele>67</ele>
        <time>2021-09-25T07:06:33.000Z</time>
      </trkpt>
      <trkpt lat="47.16045" lon="-1.62909">
        <ele>68</ele>
        <time>2021-09-25T07:06:35.000Z</time>
      </trkpt>
      <trkpt lat="47.16031" lon="-1.62922">
        <ele>67</ele>
        <time>2021-09-25T07:06:37.000Z</time>
      </trkpt>
      <trkpt lat="47.16016" lon="-1.62935">
        <ele>67</ele>
        <time>2021-09-25T07:06:39.000Z</time>
      </trkpt>
      <trkpt lat="47.16001" lon="-1.62948">
        <ele>66</ele>
        <time>2021-09-25T07:06:41.000Z</time>
      </trkpt>
      <trkpt lat="47.15986" lon="-1.62961">
        <ele>64</ele>
        <time>2021-09-25T07:06:43.000Z</time>
      </trkpt>
      <trkpt lat="47.15971" lon="-1.62974">
        <ele>64</ele>
        <time>2021-09-25T07:06:45.000Z</time>
      </trkpt>
      <trkpt lat="47.15956" lon="-1.62988">
        <ele>63</ele>
        <time>2021-09-25T07:06:47.000Z</time>
      </trkpt>
      <trkpt lat="47.15941" lon="-1.63001">
        <ele>62</ele>
        <time>2021-09-25T07:06:49.000Z</time>
      </trkpt>
      <trkpt lat="47.15926" lon="-1.63015">
        <ele>62</ele>
        <time>2021-09-25T07:06:51.000Z</time>
      </trkpt>
      <trkpt lat="47.15918" lon="-1.63022">
        <ele>62</ele>
        <time>2021-09-25T07:06:52.000Z</time>
      </trkpt>
      <trkpt lat="47.1591" lon="-1.63028">
        <ele>61</ele>
        <time>2021-09-25T07:06:53.000Z</time>
      </trkpt>
      <trkpt lat="47.15895" lon="-1.63042">
        <ele>61</ele>
        <time>2021-09-25T07:06:55.000Z</time>
      </trkpt>
      <trkpt lat="47.15881" lon="-1.63054">
        <ele>61</ele>
        <time>2021-09-25T07:06:57.000Z</time>
      </trkpt>
      <trkpt lat="47.15866" lon="-1.63066">
        <ele>61</ele>
        <time>2021-09-25T07:06:59.000Z</time>
      </trkpt>
      <trkpt lat="47.15853" lon="-1.63078">
        <ele>62</ele>
        <time>2021-09-25T07:07:01.000Z</time>
      </trkpt>
      <trkpt lat="47.15841" lon="-1.63089">
        <ele>63</ele>
        <time>2021-09-25T07:07:03.000Z</time>
      </trkpt>
      <trkpt lat="47.15829" lon="-1.631">
        <ele>64</ele>
        <time>2021-09-25T07:07:05.000Z</time>
      </trkpt>
      <trkpt lat="47.15818" lon="-1.6311">
        <ele>64</ele>
        <time>2021-09-25T07:07:07.000Z</time>
      </trkpt>
      <trkpt lat="47.15807" lon="-1.6312">
        <ele>64</ele>
        <time>2021-09-25T07:07:09.000Z</time>
      </trkpt>
      <trkpt lat="47.15796" lon="-1.6313">
        <ele>65</ele>
        <time>2021-09-25T07:07:11.000Z</time>
      </trkpt>
      <trkpt lat="47.15784" lon="-1.63139">
        <ele>66</ele>
        <time>2021-09-25T07:07:13.000Z</time>
      </trkpt>
      <trkpt lat="47.15773" lon="-1.63149">
        <ele>66</ele>
        <time>2021-09-25T07:07:15.000Z</time>
      </trkpt>
      <trkpt lat="47.15762" lon="-1.63159">
        <ele>66</ele>
        <time>2021-09-25T07:07:17.000Z</time>
      </trkpt>
      <trkpt lat="47.15751" lon="-1.63169">
        <ele>67</ele>
        <time>2021-09-25T07:07:19.000Z</time>
      </trkpt>
      <trkpt lat="47.1574" lon="-1.63179">
        <ele>67</ele>
        <time>2021-09-25T07:07:21.000Z</time>
      </trkpt>
      <trkpt lat="47.15728" lon="-1.63189">
        <ele>67</ele>
        <time>2021-09-25T07:07:23.000Z</time>
      </trkpt>
      <trkpt lat="47.15717" lon="-1.63199">
        <ele>67</ele>
        <time>2021-09-25T07:07:25.000Z</time>
      </trkpt>
      <trkpt lat="47.15705" lon="-1.6321">
        <ele>67</ele>
        <time>2021-09-25T07:07:27.000Z</time>
      </trkpt>
      <trkpt lat="47.15694" lon="-1.6322">
        <ele>67</ele>
        <time>2021-09-25T07:07:29.000Z</time>
      </trkpt>
      <trkpt lat="47.15683" lon="-1.6323">
        <ele>68</ele>
        <time>2021-09-25T07:07:31.000Z</time>
      </trkpt>
      <trkpt lat="47.15671" lon="-1.6324">
        <ele>68</ele>
        <time>2021-09-25T07:07:33.000Z</time>
      </trkpt>
      <trkpt lat="47.1566" lon="-1.6325">
        <ele>68</ele>
        <time>2021-09-25T07:07:35.000Z</time>
      </trkpt>
      <trkpt lat="47.15648" lon="-1.63261">
        <ele>68</ele>
        <time>2021-09-25T07:07:37.000Z</time>
      </trkpt>
      <trkpt lat="47.15637" lon="-1.63271">
        <ele>67</ele>
        <time>2021-09-25T07:07:39.000Z</time>
      </trkpt>
      <trkpt lat="47.15625" lon="-1.63281">
        <ele>67</ele>
        <time>2021-09-25T07:07:41.000Z</time>
      </trkpt>
      <trkpt lat="47.15613" lon="-1.63292">
        <ele>68</ele>
        <time>2021-09-25T07:07:43.000Z</time>
      </trkpt>
      <trkpt lat="47.15602" lon="-1.63302">
        <ele>68</ele>
        <time>2021-09-25T07:07:45.000Z</time>
      </trkpt>
      <trkpt lat="47.15591" lon="-1.63312">
        <ele>69</ele>
        <time>2021-09-25T07:07:47.000Z</time>
      </trkpt>
      <trkpt lat="47.15581" lon="-1.63322">
        <ele>69</ele>
        <time>2021-09-25T07:07:49.000Z</time>
      </trkpt>
      <trkpt lat="47.1557" lon="-1.63331">
        <ele>70</ele>
        <time>2021-09-25T07:07:51.000Z</time>
      </trkpt>
      <trkpt lat="47.1556" lon="-1.6334">
        <ele>70</ele>
        <time>2021-09-25T07:07:53.000Z</time>
      </trkpt>
      <trkpt lat="47.1555" lon="-1.63349">
        <ele>70</ele>
        <time>2021-09-25T07:07:55.000Z</time>
      </trkpt>
      <trkpt lat="47.1554" lon="-1.63358">
        <ele>70</ele>
        <time>2021-09-25T07:07:57.000Z</time>
      </trkpt>
      <trkpt lat="47.15529" lon="-1.63368">
        <ele>70</ele>
        <time>2021-09-25T07:07:59.000Z</time>
      </trkpt>
      <trkpt lat="47.15519" lon="-1.63377">
        <ele>70</ele>
        <time>2021-09-25T07:08:01.000Z</time>
      </trkpt>
      <trkpt lat="47.15508" lon="-1.63386">
        <ele>71</ele>
        <time>2021-09-25T07:08:03.000Z</time>
      </trkpt>
      <trkpt lat="47.15498" lon="-1.63396">
        <ele>71</ele>
        <time>2021-09-25T07:08:05.000Z</time>
      </trkpt>
      <trkpt lat="47.15488" lon="-1.63405">
        <ele>72</ele>
        <time>2021-09-25T07:08:07.000Z</time>
      </trkpt>
      <trkpt lat="47.15478" lon="-1.63415">
        <ele>72</ele>
        <time>2021-09-25T07:08:09.000Z</time>
      </trkpt>
      <trkpt lat="47.15467" lon="-1.63424">
        <ele>72</ele>
        <time>2021-09-25T07:08:11.000Z</time>
      </trkpt>
      <trkpt lat="47.15457" lon="-1.63434">
        <ele>72</ele>
        <time>2021-09-25T07:08:13.000Z</time>
      </trkpt>
      <trkpt lat="47.15446" lon="-1.63444">
        <ele>73</ele>
        <time>2021-09-25T07:08:15.000Z</time>
      </trkpt>
      <trkpt lat="47.15436" lon="-1.63453">
        <ele>73</ele>
        <time>2021-09-25T07:08:17.000Z</time>
      </trkpt>
      <trkpt lat="47.15425" lon="-1.63463">
        <ele>73</ele>
        <time>2021-09-25T07:08:19.000Z</time>
      </trkpt>
      <trkpt lat="47.15415" lon="-1.63472">
        <ele>73</ele>
        <time>2021-09-25T07:08:21.000Z</time>
      </trkpt>
      <trkpt lat="47.15406" lon="-1.63484">
        <ele>73</ele>
        <time>2021-09-25T07:08:23.000Z</time>
      </trkpt>
      <trkpt lat="47.15398" lon="-1.63496">
        <ele>73</ele>
        <time>2021-09-25T07:08:25.000Z</time>
      </trkpt>
      <trkpt lat="47.15388" lon="-1.63507">
        <ele>72</ele>
        <time>2021-09-25T07:08:27.000Z</time>
      </trkpt>
      <trkpt lat="47.15377" lon="-1.63512">
        <ele>72</ele>
        <time>2021-09-25T07:08:29.000Z</time>
      </trkpt>
      <trkpt lat="47.15366" lon="-1.63517">
        <ele>72</ele>
        <time>2021-09-25T07:08:31.000Z</time>
      </trkpt>
      <trkpt lat="47.15355" lon="-1.63528">
        <ele>72</ele>
        <time>2021-09-25T07:08:33.000Z</time>
      </trkpt>
      <trkpt lat="47.15345" lon="-1.63539">
        <ele>72</ele>
        <time>2021-09-25T07:08:35.000Z</time>
      </trkpt>
      <trkpt lat="47.15334" lon="-1.63548">
        <ele>73</ele>
        <time>2021-09-25T07:08:37.000Z</time>
      </trkpt>
      <trkpt lat="47.15323" lon="-1.63557">
        <ele>73</ele>
        <time>2021-09-25T07:08:39.000Z</time>
      </trkpt>
      <trkpt lat="47.15312" lon="-1.63564">
        <ele>73</ele>
        <time>2021-09-25T07:08:41.000Z</time>
      </trkpt>
      <trkpt lat="47.15301" lon="-1.63572">
        <ele>73</ele>
        <time>2021-09-25T07:08:43.000Z</time>
      </trkpt>
      <trkpt lat="47.1529" lon="-1.63582">
        <ele>73</ele>
        <time>2021-09-25T07:08:45.000Z</time>
      </trkpt>
      <trkpt lat="47.15279" lon="-1.63592">
        <ele>73</ele>
        <time>2021-09-25T07:08:47.000Z</time>
      </trkpt>
      <trkpt lat="47.15267" lon="-1.63602">
        <ele>73</ele>
        <time>2021-09-25T07:08:49.000Z</time>
      </trkpt>
      <trkpt lat="47.15257" lon="-1.63612">
        <ele>74</ele>
        <time>2021-09-25T07:08:51.000Z</time>
      </trkpt>
      <trkpt lat="47.15245" lon="-1.63621">
        <ele>74</ele>
        <time>2021-09-25T07:08:53.000Z</time>
      </trkpt>
      <trkpt lat="47.15233" lon="-1.6363">
        <ele>73</ele>
        <time>2021-09-25T07:08:55.000Z</time>
      </trkpt>
      <trkpt lat="47.15222" lon="-1.6364">
        <ele>73</ele>
        <time>2021-09-25T07:08:57.000Z</time>
      </trkpt>
      <trkpt lat="47.1521" lon="-1.6365">
        <ele>73</ele>
        <time>2021-09-25T07:08:59.000Z</time>
      </trkpt>
      <trkpt lat="47.15199" lon="-1.63659">
        <ele>74</ele>
        <time>2021-09-25T07:09:01.000Z</time>
      </trkpt>
      <trkpt lat="47.15187" lon="-1.63669">
        <ele>74</ele>
        <time>2021-09-25T07:09:03.000Z</time>
      </trkpt>
      <trkpt lat="47.15176" lon="-1.6368">
        <ele>73</ele>
        <time>2021-09-25T07:09:05.000Z</time>
      </trkpt>
      <trkpt lat="47.15165" lon="-1.6369">
        <ele>73</ele>
        <time>2021-09-25T07:09:07.000Z</time>
      </trkpt>
      <trkpt lat="47.15153" lon="-1.63701">
        <ele>73</ele>
        <time>2021-09-25T07:09:09.000Z</time>
      </trkpt>
      <trkpt lat="47.15142" lon="-1.63712">
        <ele>73</ele>
        <time>2021-09-25T07:09:11.000Z</time>
      </trkpt>
      <trkpt lat="47.15131" lon="-1.63722">
        <ele>73</ele>
        <time>2021-09-25T07:09:13.000Z</time>
      </trkpt>
      <trkpt lat="47.15119" lon="-1.63734">
        <ele>73</ele>
        <time>2021-09-25T07:09:15.000Z</time>
      </trkpt>
      <trkpt lat="47.15109" lon="-1.63746">
        <ele>73</ele>
        <time>2021-09-25T07:09:17.000Z</time>
      </trkpt>
      <trkpt lat="47.15098" lon="-1.63758">
        <ele>73</ele>
        <time>2021-09-25T07:09:19.000Z</time>
      </trkpt>
      <trkpt lat="47.15087" lon="-1.6377">
        <ele>73</ele>
        <time>2021-09-25T07:09:21.000Z</time>
      </trkpt>
      <trkpt lat="47.15077" lon="-1.63782">
        <ele>72</ele>
        <time>2021-09-25T07:09:23.000Z</time>
      </trkpt>
      <trkpt lat="47.15067" lon="-1.63795">
        <ele>72</ele>
        <time>2021-09-25T07:09:25.000Z</time>
      </trkpt>
      <trkpt lat="47.15056" lon="-1.63807">
        <ele>72</ele>
        <time>2021-09-25T07:09:27.000Z</time>
      </trkpt>
      <trkpt lat="47.15047" lon="-1.6382">
        <ele>72</ele>
        <time>2021-09-25T07:09:29.000Z</time>
      </trkpt>
      <trkpt lat="47.15037" lon="-1.63832">
        <ele>73</ele>
        <time>2021-09-25T07:09:31.000Z</time>
      </trkpt>
      <trkpt lat="47.15028" lon="-1.63845">
        <ele>72</ele>
        <time>2021-09-25T07:09:33.000Z</time>
      </trkpt>
      <trkpt lat="47.15019" lon="-1.63859">
        <ele>73</ele>
        <time>2021-09-25T07:09:35.000Z</time>
      </trkpt>
      <trkpt lat="47.1501" lon="-1.63873">
        <ele>73</ele>
        <time>2021-09-25T07:09:37.000Z</time>
      </trkpt>
      <trkpt lat="47.15001" lon="-1.63887">
        <ele>73</ele>
        <time>2021-09-25T07:09:39.000Z</time>
      </trkpt>
      <trkpt lat="47.14993" lon="-1.63901">
        <ele>74</ele>
        <time>2021-09-25T07:09:41.000Z</time>
      </trkpt>
      <trkpt lat="47.14984" lon="-1.63914">
        <ele>75</ele>
        <time>2021-09-25T07:09:43.000Z</time>
      </trkpt>
      <trkpt lat="47.14976" lon="-1.63927">
        <ele>75</ele>
        <time>2021-09-25T07:09:45.000Z</time>
      </trkpt>
      <trkpt lat="47.14967" lon="-1.63941">
        <ele>76</ele>
        <time>2021-09-25T07:09:47.000Z</time>
      </trkpt>
      <trkpt lat="47.14959" lon="-1.63956">
        <ele>76</ele>
        <time>2021-09-25T07:09:49.000Z</time>
      </trkpt>
      <trkpt lat="47.14951" lon="-1.6397">
        <ele>76</ele>
        <time>2021-09-25T07:09:51.000Z</time>
      </trkpt>
      <trkpt lat="47.14942" lon="-1.63985">
        <ele>75</ele>
        <time>2021-09-25T07:09:53.000Z</time>
      </trkpt>
      <trkpt lat="47.14933" lon="-1.63999">
        <ele>74</ele>
        <time>2021-09-25T07:09:55.000Z</time>
      </trkpt>
      <trkpt lat="47.14924" lon="-1.64011">
        <ele>74</ele>
        <time>2021-09-25T07:09:57.000Z</time>
      </trkpt>
      <trkpt lat="47.14915" lon="-1.64023">
        <ele>74</ele>
        <time>2021-09-25T07:09:59.000Z</time>
      </trkpt>
      <trkpt lat="47.14906" lon="-1.64036">
        <ele>74</ele>
        <time>2021-09-25T07:10:01.000Z</time>
      </trkpt>
      <trkpt lat="47.14893" lon="-1.64042">
        <ele>74</ele>
        <time>2021-09-25T07:10:03.000Z</time>
      </trkpt>
      <trkpt lat="47.14882" lon="-1.64031">
        <ele>73</ele>
        <time>2021-09-25T07:10:05.000Z</time>
      </trkpt>
      <trkpt lat="47.14874" lon="-1.64017">
        <ele>73</ele>
        <time>2021-09-25T07:10:07.000Z</time>
      </trkpt>
      <trkpt lat="47.14865" lon="-1.64003">
        <ele>74</ele>
        <time>2021-09-25T07:10:09.000Z</time>
      </trkpt>
      <trkpt lat="47.14853" lon="-1.63992">
        <ele>74</ele>
        <time>2021-09-25T07:10:11.000Z</time>
      </trkpt>
      <trkpt lat="47.1484" lon="-1.63988">
        <ele>75</ele>
        <time>2021-09-25T07:10:13.000Z</time>
      </trkpt>
      <trkpt lat="47.14827" lon="-1.63988">
        <ele>73</ele>
        <time>2021-09-25T07:10:15.000Z</time>
      </trkpt>
      <trkpt lat="47.14815" lon="-1.63998">
        <ele>73</ele>
        <time>2021-09-25T07:10:17.000Z</time>
      </trkpt>
      <trkpt lat="47.14805" lon="-1.64009">
        <ele>72</ele>
        <time>2021-09-25T07:10:19.000Z</time>
      </trkpt>
      <trkpt lat="47.14795" lon="-1.6402">
        <ele>72</ele>
        <time>2021-09-25T07:10:21.000Z</time>
      </trkpt>
      <trkpt lat="47.14784" lon="-1.64031">
        <ele>73</ele>
        <time>2021-09-25T07:10:23.000Z</time>
      </trkpt>
      <trkpt lat="47.14773" lon="-1.6404">
        <ele>73</ele>
        <time>2021-09-25T07:10:25.000Z</time>
      </trkpt>
      <trkpt lat="47.14762" lon="-1.64047">
        <ele>74</ele>
        <time>2021-09-25T07:10:27.000Z</time>
      </trkpt>
      <trkpt lat="47.14749" lon="-1.64053">
        <ele>74</ele>
        <time>2021-09-25T07:10:29.000Z</time>
      </trkpt>
      <trkpt lat="47.14736" lon="-1.64059">
        <ele>75</ele>
        <time>2021-09-25T07:10:31.000Z</time>
      </trkpt>
      <trkpt lat="47.14723" lon="-1.64064">
        <ele>75</ele>
        <time>2021-09-25T07:10:33.000Z</time>
      </trkpt>
      <trkpt lat="47.1471" lon="-1.6407">
        <ele>75</ele>
        <time>2021-09-25T07:10:35.000Z</time>
      </trkpt>
      <trkpt lat="47.14697" lon="-1.64075">
        <ele>75</ele>
        <time>2021-09-25T07:10:37.000Z</time>
      </trkpt>
      <trkpt lat="47.14685" lon="-1.64081">
        <ele>75</ele>
        <time>2021-09-25T07:10:39.000Z</time>
      </trkpt>
      <trkpt lat="47.14673" lon="-1.64087">
        <ele>75</ele>
        <time>2021-09-25T07:10:41.000Z</time>
      </trkpt>
      <trkpt lat="47.1466" lon="-1.64093">
        <ele>75</ele>
        <time>2021-09-25T07:10:43.000Z</time>
      </trkpt>
      <trkpt lat="47.14646" lon="-1.641">
        <ele>75</ele>
        <time>2021-09-25T07:10:45.000Z</time>
      </trkpt>
      <trkpt lat="47.14632" lon="-1.64106">
        <ele>74</ele>
        <time>2021-09-25T07:10:47.000Z</time>
      </trkpt>
      <trkpt lat="47.14618" lon="-1.64113">
        <ele>74</ele>
        <time>2021-09-25T07:10:49.000Z</time>
      </trkpt>
      <trkpt lat="47.14606" lon="-1.6412">
        <ele>74</ele>
        <time>2021-09-25T07:10:51.000Z</time>
      </trkpt>
      <trkpt lat="47.14592" lon="-1.64127">
        <ele>74</ele>
        <time>2021-09-25T07:10:53.000Z</time>
      </trkpt>
      <trkpt lat="47.14579" lon="-1.64136">
        <ele>73</ele>
        <time>2021-09-25T07:10:55.000Z</time>
      </trkpt>
      <trkpt lat="47.14565" lon="-1.64144">
        <ele>72</ele>
        <time>2021-09-25T07:10:57.000Z</time>
      </trkpt>
      <trkpt lat="47.14552" lon="-1.64153">
        <ele>72</ele>
        <time>2021-09-25T07:10:59.000Z</time>
      </trkpt>
      <trkpt lat="47.1454" lon="-1.64161">
        <ele>71</ele>
        <time>2021-09-25T07:11:01.000Z</time>
      </trkpt>
      <trkpt lat="47.14526" lon="-1.6417">
        <ele>71</ele>
        <time>2021-09-25T07:11:03.000Z</time>
      </trkpt>
      <trkpt lat="47.14514" lon="-1.64179">
        <ele>71</ele>
        <time>2021-09-25T07:11:05.000Z</time>
      </trkpt>
      <trkpt lat="47.145" lon="-1.64187">
        <ele>71</ele>
        <time>2021-09-25T07:11:07.000Z</time>
      </trkpt>
      <trkpt lat="47.14485" lon="-1.64196">
        <ele>71</ele>
        <time>2021-09-25T07:11:09.000Z</time>
      </trkpt>
      <trkpt lat="47.14472" lon="-1.64204">
        <ele>71</ele>
        <time>2021-09-25T07:11:11.000Z</time>
      </trkpt>
      <trkpt lat="47.14457" lon="-1.64211">
        <ele>70</ele>
        <time>2021-09-25T07:11:13.000Z</time>
      </trkpt>
      <trkpt lat="47.14442" lon="-1.64215">
        <ele>70</ele>
        <time>2021-09-25T07:11:15.000Z</time>
      </trkpt>
      <trkpt lat="47.14429" lon="-1.64218">
        <ele>72</ele>
        <time>2021-09-25T07:11:17.000Z</time>
      </trkpt>
      <trkpt lat="47.14415" lon="-1.64221">
        <ele>72</ele>
        <time>2021-09-25T07:11:19.000Z</time>
      </trkpt>
      <trkpt lat="47.144" lon="-1.64223">
        <ele>72</ele>
        <time>2021-09-25T07:11:21.000Z</time>
      </trkpt>
      <trkpt lat="47.14387" lon="-1.64224">
        <ele>72</ele>
        <time>2021-09-25T07:11:23.000Z</time>
      </trkpt>
      <trkpt lat="47.14374" lon="-1.64227">
        <ele>73</ele>
        <time>2021-09-25T07:11:25.000Z</time>
      </trkpt>
      <trkpt lat="47.14361" lon="-1.6423">
        <ele>74</ele>
        <time>2021-09-25T07:11:27.000Z</time>
      </trkpt>
      <trkpt lat="47.14349" lon="-1.64232">
        <ele>74</ele>
        <time>2021-09-25T07:11:29.000Z</time>
      </trkpt>
      <trkpt lat="47.14333" lon="-1.64234">
        <ele>74</ele>
        <time>2021-09-25T07:11:31.000Z</time>
      </trkpt>
      <trkpt lat="47.14318" lon="-1.64236">
        <ele>74</ele>
        <time>2021-09-25T07:11:33.000Z</time>
      </trkpt>
      <trkpt lat="47.14303" lon="-1.64239">
        <ele>74</ele>
        <time>2021-09-25T07:11:35.000Z</time>
      </trkpt>
      <trkpt lat="47.14289" lon="-1.64243">
        <ele>75</ele>
        <time>2021-09-25T07:11:37.000Z</time>
      </trkpt>
      <trkpt lat="47.14277" lon="-1.64252">
        <ele>75</ele>
        <time>2021-09-25T07:11:39.000Z</time>
      </trkpt>
      <trkpt lat="47.14265" lon="-1.64262">
        <ele>75</ele>
        <time>2021-09-25T07:11:41.000Z</time>
      </trkpt>
      <trkpt lat="47.14252" lon="-1.64274">
        <ele>75</ele>
        <time>2021-09-25T07:11:43.000Z</time>
      </trkpt>
      <trkpt lat="47.14238" lon="-1.64285">
        <ele>75</ele>
        <time>2021-09-25T07:11:45.000Z</time>
      </trkpt>
      <trkpt lat="47.14225" lon="-1.64297">
        <ele>75</ele>
        <time>2021-09-25T07:11:47.000Z</time>
      </trkpt>
      <trkpt lat="47.14213" lon="-1.64308">
        <ele>75</ele>
        <time>2021-09-25T07:11:49.000Z</time>
      </trkpt>
      <trkpt lat="47.14202" lon="-1.64322">
        <ele>74</ele>
        <time>2021-09-25T07:11:51.000Z</time>
      </trkpt>
      <trkpt lat="47.1419" lon="-1.64336">
        <ele>73</ele>
        <time>2021-09-25T07:11:53.000Z</time>
      </trkpt>
      <trkpt lat="47.14177" lon="-1.6435">
        <ele>72</ele>
        <time>2021-09-25T07:11:55.000Z</time>
      </trkpt>
      <trkpt lat="47.14165" lon="-1.64362">
        <ele>71</ele>
        <time>2021-09-25T07:11:57.000Z</time>
      </trkpt>
      <trkpt lat="47.14152" lon="-1.64373">
        <ele>71</ele>
        <time>2021-09-25T07:11:59.000Z</time>
      </trkpt>
      <trkpt lat="47.14137" lon="-1.64383">
        <ele>70</ele>
        <time>2021-09-25T07:12:01.000Z</time>
      </trkpt>
      <trkpt lat="47.14122" lon="-1.64393">
        <ele>69</ele>
        <time>2021-09-25T07:12:03.000Z</time>
      </trkpt>
      <trkpt lat="47.14108" lon="-1.64404">
        <ele>68</ele>
        <time>2021-09-25T07:12:05.000Z</time>
      </trkpt>
      <trkpt lat="47.14093" lon="-1.64415">
        <ele>67</ele>
        <time>2021-09-25T07:12:07.000Z</time>
      </trkpt>
      <trkpt lat="47.14079" lon="-1.64426">
        <ele>67</ele>
        <time>2021-09-25T07:12:09.000Z</time>
      </trkpt>
      <trkpt lat="47.14065" lon="-1.64437">
        <ele>66</ele>
        <time>2021-09-25T07:12:11.000Z</time>
      </trkpt>
      <trkpt lat="47.14051" lon="-1.64447">
        <ele>66</ele>
        <time>2021-09-25T07:12:13.000Z</time>
      </trkpt>
      <trkpt lat="47.14039" lon="-1.64458">
        <ele>66</ele>
        <time>2021-09-25T07:12:15.000Z</time>
      </trkpt>
      <trkpt lat="47.14027" lon="-1.64468">
        <ele>66</ele>
        <time>2021-09-25T07:12:17.000Z</time>
      </trkpt>
      <trkpt lat="47.14014" lon="-1.64479">
        <ele>66</ele>
        <time>2021-09-25T07:12:19.000Z</time>
      </trkpt>
      <trkpt lat="47.14002" lon="-1.64489">
        <ele>66</ele>
        <time>2021-09-25T07:12:21.000Z</time>
      </trkpt>
      <trkpt lat="47.13989" lon="-1.645">
        <ele>66</ele>
        <time>2021-09-25T07:12:23.000Z</time>
      </trkpt>
      <trkpt lat="47.13976" lon="-1.64511">
        <ele>66</ele>
        <time>2021-09-25T07:12:25.000Z</time>
      </trkpt>
      <trkpt lat="47.13964" lon="-1.64525">
        <ele>65</ele>
        <time>2021-09-25T07:12:27.000Z</time>
      </trkpt>
      <trkpt lat="47.13952" lon="-1.64537">
        <ele>66</ele>
        <time>2021-09-25T07:12:29.000Z</time>
      </trkpt>
      <trkpt lat="47.1394" lon="-1.64549">
        <ele>66</ele>
        <time>2021-09-25T07:12:31.000Z</time>
      </trkpt>
      <trkpt lat="47.13928" lon="-1.6456">
        <ele>65</ele>
        <time>2021-09-25T07:12:33.000Z</time>
      </trkpt>
      <trkpt lat="47.13916" lon="-1.64572">
        <ele>66</ele>
        <time>2021-09-25T07:12:35.000Z</time>
      </trkpt>
      <trkpt lat="47.13904" lon="-1.64583">
        <ele>66</ele>
        <time>2021-09-25T07:12:37.000Z</time>
      </trkpt>
      <trkpt lat="47.13891" lon="-1.64591">
        <ele>66</ele>
        <time>2021-09-25T07:12:39.000Z</time>
      </trkpt>
      <trkpt lat="47.13875" lon="-1.64597">
        <ele>65</ele>
        <time>2021-09-25T07:12:41.000Z</time>
      </trkpt>
      <trkpt lat="47.13862" lon="-1.646">
        <ele>65</ele>
        <time>2021-09-25T07:12:43.000Z</time>
      </trkpt>
      <trkpt lat="47.13848" lon="-1.64603">
        <ele>65</ele>
        <time>2021-09-25T07:12:45.000Z</time>
      </trkpt>
      <trkpt lat="47.13834" lon="-1.64604">
        <ele>65</ele>
        <time>2021-09-25T07:12:47.000Z</time>
      </trkpt>
      <trkpt lat="47.1382" lon="-1.64604">
        <ele>64</ele>
        <time>2021-09-25T07:12:49.000Z</time>
      </trkpt>
      <trkpt lat="47.13806" lon="-1.64604">
        <ele>64</ele>
        <time>2021-09-25T07:12:51.000Z</time>
      </trkpt>
      <trkpt lat="47.13794" lon="-1.64602">
        <ele>64</ele>
        <time>2021-09-25T07:12:53.000Z</time>
      </trkpt>
      <trkpt lat="47.13782" lon="-1.646">
        <ele>65</ele>
        <time>2021-09-25T07:12:55.000Z</time>
      </trkpt>
      <trkpt lat="47.13769" lon="-1.64597">
        <ele>65</ele>
        <time>2021-09-25T07:12:57.000Z</time>
      </trkpt>
      <trkpt lat="47.13756" lon="-1.64594">
        <ele>65</ele>
        <time>2021-09-25T07:12:59.000Z</time>
      </trkpt>
      <trkpt lat="47.13744" lon="-1.64592">
        <ele>65</ele>
        <time>2021-09-25T07:13:01.000Z</time>
      </trkpt>
      <trkpt lat="47.13731" lon="-1.64588">
        <ele>64</ele>
        <time>2021-09-25T07:13:03.000Z</time>
      </trkpt>
      <trkpt lat="47.13719" lon="-1.64585">
        <ele>64</ele>
        <time>2021-09-25T07:13:05.000Z</time>
      </trkpt>
      <trkpt lat="47.13707" lon="-1.64582">
        <ele>64</ele>
        <time>2021-09-25T07:13:07.000Z</time>
      </trkpt>
      <trkpt lat="47.13696" lon="-1.6458">
        <ele>65</ele>
        <time>2021-09-25T07:13:09.000Z</time>
      </trkpt>
      <trkpt lat="47.13684" lon="-1.64577">
        <ele>65</ele>
        <time>2021-09-25T07:13:11.000Z</time>
      </trkpt>
      <trkpt lat="47.13672" lon="-1.64575">
        <ele>66</ele>
        <time>2021-09-25T07:13:13.000Z</time>
      </trkpt>
      <trkpt lat="47.13661" lon="-1.64572">
        <ele>66</ele>
        <time>2021-09-25T07:13:15.000Z</time>
      </trkpt>
      <trkpt lat="47.13649" lon="-1.64569">
        <ele>66</ele>
        <time>2021-09-25T07:13:17.000Z</time>
      </trkpt>
      <trkpt lat="47.13638" lon="-1.64566">
        <ele>66</ele>
        <time>2021-09-25T07:13:19.000Z</time>
      </trkpt>
      <trkpt lat="47.13627" lon="-1.64563">
        <ele>66</ele>
        <time>2021-09-25T07:13:21.000Z</time>
      </trkpt>
      <trkpt lat="47.1361" lon="-1.6456">
        <ele>67</ele>
        <time>2021-09-25T07:13:24.000Z</time>
      </trkpt>
      <trkpt lat="47.13598" lon="-1.64559">
        <ele>67</ele>
        <time>2021-09-25T07:13:26.000Z</time>
      </trkpt>
      <trkpt lat="47.13587" lon="-1.64561">
        <ele>68</ele>
        <time>2021-09-25T07:13:28.000Z</time>
      </trkpt>
      <trkpt lat="47.13575" lon="-1.64566">
        <ele>67</ele>
        <time>2021-09-25T07:13:30.000Z</time>
      </trkpt>
      <trkpt lat="47.13563" lon="-1.64573">
        <ele>67</ele>
        <time>2021-09-25T07:13:32.000Z</time>
      </trkpt>
      <trkpt lat="47.13553" lon="-1.64581">
        <ele>67</ele>
        <time>2021-09-25T07:13:34.000Z</time>
      </trkpt>
      <trkpt lat="47.13542" lon="-1.64591">
        <ele>67</ele>
        <time>2021-09-25T07:13:36.000Z</time>
      </trkpt>
      <trkpt lat="47.13532" lon="-1.64602">
        <ele>67</ele>
        <time>2021-09-25T07:13:38.000Z</time>
      </trkpt>
      <trkpt lat="47.13516" lon="-1.64619">
        <ele>68</ele>
        <time>2021-09-25T07:13:41.000Z</time>
      </trkpt>
      <trkpt lat="47.13501" lon="-1.64634">
        <ele>68</ele>
        <time>2021-09-25T07:13:44.000Z</time>
      </trkpt>
      <trkpt lat="47.13491" lon="-1.64642">
        <ele>68</ele>
        <time>2021-09-25T07:13:46.000Z</time>
      </trkpt>
      <trkpt lat="47.13479" lon="-1.64646">
        <ele>69</ele>
        <time>2021-09-25T07:13:48.000Z</time>
      </trkpt>
      <trkpt lat="47.13467" lon="-1.64648">
        <ele>69</ele>
        <time>2021-09-25T07:13:50.000Z</time>
      </trkpt>
      <trkpt lat="47.13454" lon="-1.64647">
        <ele>70</ele>
        <time>2021-09-25T07:13:52.000Z</time>
      </trkpt>
      <trkpt lat="47.13442" lon="-1.64646">
        <ele>70</ele>
        <time>2021-09-25T07:13:54.000Z</time>
      </trkpt>
      <trkpt lat="47.13429" lon="-1.64645">
        <ele>70</ele>
        <time>2021-09-25T07:13:56.000Z</time>
      </trkpt>
      <trkpt lat="47.13418" lon="-1.64644">
        <ele>70</ele>
        <time>2021-09-25T07:13:58.000Z</time>
      </trkpt>
      <trkpt lat="47.13407" lon="-1.64643">
        <ele>71</ele>
        <time>2021-09-25T07:14:01.000Z</time>
      </trkpt>
      <trkpt lat="47.13399" lon="-1.64635">
        <ele>72</ele>
        <time>2021-09-25T07:14:06.000Z</time>
      </trkpt>
      <trkpt lat="47.13395" lon="-1.64618">
        <ele>72</ele>
        <time>2021-09-25T07:14:08.000Z</time>
      </trkpt>
      <trkpt lat="47.13392" lon="-1.64601">
        <ele>72</ele>
        <time>2021-09-25T07:14:10.000Z</time>
      </trkpt>
      <trkpt lat="47.13389" lon="-1.64581">
        <ele>72</ele>
        <time>2021-09-25T07:14:12.000Z</time>
      </trkpt>
      <trkpt lat="47.13384" lon="-1.64562">
        <ele>72</ele>
        <time>2021-09-25T07:14:14.000Z</time>
      </trkpt>
      <trkpt lat="47.1338" lon="-1.64543">
        <ele>71</ele>
        <time>2021-09-25T07:14:16.000Z</time>
      </trkpt>
      <trkpt lat="47.13375" lon="-1.64524">
        <ele>70</ele>
        <time>2021-09-25T07:14:18.000Z</time>
      </trkpt>
      <trkpt lat="47.13368" lon="-1.64505">
        <ele>69</ele>
        <time>2021-09-25T07:14:20.000Z</time>
      </trkpt>
      <trkpt lat="47.13361" lon="-1.64487">
        <ele>69</ele>
        <time>2021-09-25T07:14:22.000Z</time>
      </trkpt>
      <trkpt lat="47.13353" lon="-1.64468">
        <ele>68</ele>
        <time>2021-09-25T07:14:24.000Z</time>
      </trkpt>
      <trkpt lat="47.13344" lon="-1.6445">
        <ele>67</ele>
        <time>2021-09-25T07:14:26.000Z</time>
      </trkpt>
      <trkpt lat="47.13334" lon="-1.6443">
        <ele>67</ele>
        <time>2021-09-25T07:14:28.000Z</time>
      </trkpt>
      <trkpt lat="47.13325" lon="-1.64411">
        <ele>66</ele>
        <time>2021-09-25T07:14:30.000Z</time>
      </trkpt>
      <trkpt lat="47.13316" lon="-1.64392">
        <ele>65</ele>
        <time>2021-09-25T07:14:32.000Z</time>
      </trkpt>
      <trkpt lat="47.13307" lon="-1.64373">
        <ele>65</ele>
        <time>2021-09-25T07:14:34.000Z</time>
      </trkpt>
      <trkpt lat="47.13297" lon="-1.64353">
        <ele>64</ele>
        <time>2021-09-25T07:14:36.000Z</time>
      </trkpt>
      <trkpt lat="47.13287" lon="-1.64333">
        <ele>64</ele>
        <time>2021-09-25T07:14:38.000Z</time>
      </trkpt>
      <trkpt lat="47.13278" lon="-1.64313">
        <ele>64</ele>
        <time>2021-09-25T07:14:40.000Z</time>
      </trkpt>
      <trkpt lat="47.13268" lon="-1.64293">
        <ele>63</ele>
        <time>2021-09-25T07:14:42.000Z</time>
      </trkpt>
      <trkpt lat="47.13259" lon="-1.64273">
        <ele>62</ele>
        <time>2021-09-25T07:14:44.000Z</time>
      </trkpt>
      <trkpt lat="47.1325" lon="-1.64254">
        <ele>62</ele>
        <time>2021-09-25T07:14:46.000Z</time>
      </trkpt>
      <trkpt lat="47.13242" lon="-1.64233">
        <ele>61</ele>
        <time>2021-09-25T07:14:48.000Z</time>
      </trkpt>
      <trkpt lat="47.13233" lon="-1.64214">
        <ele>61</ele>
        <time>2021-09-25T07:14:50.000Z</time>
      </trkpt>
      <trkpt lat="47.13223" lon="-1.64195">
        <ele>60</ele>
        <time>2021-09-25T07:14:52.000Z</time>
      </trkpt>
      <trkpt lat="47.13213" lon="-1.64176">
        <ele>60</ele>
        <time>2021-09-25T07:14:54.000Z</time>
      </trkpt>
      <trkpt lat="47.13205" lon="-1.64156">
        <ele>61</ele>
        <time>2021-09-25T07:14:56.000Z</time>
      </trkpt>
      <trkpt lat="47.13196" lon="-1.64137">
        <ele>60</ele>
        <time>2021-09-25T07:14:58.000Z</time>
      </trkpt>
      <trkpt lat="47.13188" lon="-1.64117">
        <ele>60</ele>
        <time>2021-09-25T07:15:00.000Z</time>
      </trkpt>
      <trkpt lat="47.1318" lon="-1.64098">
        <ele>59</ele>
        <time>2021-09-25T07:15:02.000Z</time>
      </trkpt>
      <trkpt lat="47.13172" lon="-1.64079">
        <ele>59</ele>
        <time>2021-09-25T07:15:04.000Z</time>
      </trkpt>
      <trkpt lat="47.13163" lon="-1.6406">
        <ele>59</ele>
        <time>2021-09-25T07:15:06.000Z</time>
      </trkpt>
      <trkpt lat="47.13155" lon="-1.64041">
        <ele>59</ele>
        <time>2021-09-25T07:15:08.000Z</time>
      </trkpt>
      <trkpt lat="47.13147" lon="-1.64021">
        <ele>59</ele>
        <time>2021-09-25T07:15:10.000Z</time>
      </trkpt>
      <trkpt lat="47.13139" lon="-1.64003">
        <ele>59</ele>
        <time>2021-09-25T07:15:12.000Z</time>
      </trkpt>
      <trkpt lat="47.13132" lon="-1.63983">
        <ele>59</ele>
        <time>2021-09-25T07:15:14.000Z</time>
      </trkpt>
      <trkpt lat="47.13125" lon="-1.63963">
        <ele>59</ele>
        <time>2021-09-25T07:15:16.000Z</time>
      </trkpt>
      <trkpt lat="47.13117" lon="-1.63943">
        <ele>59</ele>
        <time>2021-09-25T07:15:18.000Z</time>
      </trkpt>
      <trkpt lat="47.1311" lon="-1.63924">
        <ele>59</ele>
        <time>2021-09-25T07:15:20.000Z</time>
      </trkpt>
      <trkpt lat="47.13103" lon="-1.63904">
        <ele>59</ele>
        <time>2021-09-25T07:15:22.000Z</time>
      </trkpt>
      <trkpt lat="47.13096" lon="-1.63885">
        <ele>58</ele>
        <time>2021-09-25T07:15:24.000Z</time>
      </trkpt>
      <trkpt lat="47.13089" lon="-1.63866">
        <ele>58</ele>
        <time>2021-09-25T07:15:26.000Z</time>
      </trkpt>
      <trkpt lat="47.13081" lon="-1.63847">
        <ele>58</ele>
        <time>2021-09-25T07:15:28.000Z</time>
      </trkpt>
      <trkpt lat="47.13074" lon="-1.63828">
        <ele>58</ele>
        <time>2021-09-25T07:15:30.000Z</time>
      </trkpt>
      <trkpt lat="47.13065" lon="-1.63809">
        <ele>58</ele>
        <time>2021-09-25T07:15:32.000Z</time>
      </trkpt>
      <trkpt lat="47.13058" lon="-1.63791">
        <ele>58</ele>
        <time>2021-09-25T07:15:34.000Z</time>
      </trkpt>
      <trkpt lat="47.13049" lon="-1.63773">
        <ele>58</ele>
        <time>2021-09-25T07:15:36.000Z</time>
      </trkpt>
      <trkpt lat="47.13041" lon="-1.63756">
        <ele>57</ele>
        <time>2021-09-25T07:15:38.000Z</time>
      </trkpt>
      <trkpt lat="47.13033" lon="-1.63738">
        <ele>57</ele>
        <time>2021-09-25T07:15:40.000Z</time>
      </trkpt>
      <trkpt lat="47.13024" lon="-1.63721">
        <ele>57</ele>
        <time>2021-09-25T07:15:42.000Z</time>
      </trkpt>
      <trkpt lat="47.13016" lon="-1.63703">
        <ele>57</ele>
        <time>2021-09-25T07:15:44.000Z</time>
      </trkpt>
      <trkpt lat="47.13007" lon="-1.63685">
        <ele>57</ele>
        <time>2021-09-25T07:15:46.000Z</time>
      </trkpt>
      <trkpt lat="47.12998" lon="-1.63668">
        <ele>56</ele>
        <time>2021-09-25T07:15:48.000Z</time>
      </trkpt>
      <trkpt lat="47.1299" lon="-1.6365">
        <ele>56</ele>
        <time>2021-09-25T07:15:50.000Z</time>
      </trkpt>
      <trkpt lat="47.12985" lon="-1.63629">
        <ele>56</ele>
        <time>2021-09-25T07:15:52.000Z</time>
      </trkpt>
      <trkpt lat="47.12979" lon="-1.6361">
        <ele>56</ele>
        <time>2021-09-25T07:15:54.000Z</time>
      </trkpt>
      <trkpt lat="47.12971" lon="-1.63591">
        <ele>56</ele>
        <time>2021-09-25T07:15:56.000Z</time>
      </trkpt>
      <trkpt lat="47.12964" lon="-1.63573">
        <ele>55</ele>
        <time>2021-09-25T07:15:58.000Z</time>
      </trkpt>
      <trkpt lat="47.12956" lon="-1.63555">
        <ele>56</ele>
        <time>2021-09-25T07:16:00.000Z</time>
      </trkpt>
      <trkpt lat="47.12949" lon="-1.63538">
        <ele>56</ele>
        <time>2021-09-25T07:16:02.000Z</time>
      </trkpt>
      <trkpt lat="47.12943" lon="-1.63519">
        <ele>55</ele>
        <time>2021-09-25T07:16:04.000Z</time>
      </trkpt>
      <trkpt lat="47.12935" lon="-1.63501">
        <ele>55</ele>
        <time>2021-09-25T07:16:06.000Z</time>
      </trkpt>
      <trkpt lat="47.12929" lon="-1.63482">
        <ele>56</ele>
        <time>2021-09-25T07:16:08.000Z</time>
      </trkpt>
      <trkpt lat="47.12922" lon="-1.63464">
        <ele>56</ele>
        <time>2021-09-25T07:16:10.000Z</time>
      </trkpt>
      <trkpt lat="47.12915" lon="-1.63446">
        <ele>55</ele>
        <time>2021-09-25T07:16:12.000Z</time>
      </trkpt>
      <trkpt lat="47.12908" lon="-1.63427">
        <ele>55</ele>
        <time>2021-09-25T07:16:14.000Z</time>
      </trkpt>
      <trkpt lat="47.12901" lon="-1.63409">
        <ele>55</ele>
        <time>2021-09-25T07:16:16.000Z</time>
      </trkpt>
      <trkpt lat="47.12894" lon="-1.63391">
        <ele>54</ele>
        <time>2021-09-25T07:16:18.000Z</time>
      </trkpt>
      <trkpt lat="47.12887" lon="-1.63372">
        <ele>54</ele>
        <time>2021-09-25T07:16:20.000Z</time>
      </trkpt>
      <trkpt lat="47.1288" lon="-1.63354">
        <ele>54</ele>
        <time>2021-09-25T07:16:22.000Z</time>
      </trkpt>
      <trkpt lat="47.12873" lon="-1.63336">
        <ele>54</ele>
        <time>2021-09-25T07:16:24.000Z</time>
      </trkpt>
      <trkpt lat="47.12865" lon="-1.63317">
        <ele>54</ele>
        <time>2021-09-25T07:16:26.000Z</time>
      </trkpt>
      <trkpt lat="47.12858" lon="-1.63299">
        <ele>54</ele>
        <time>2021-09-25T07:16:28.000Z</time>
      </trkpt>
      <trkpt lat="47.12851" lon="-1.6328">
        <ele>54</ele>
        <time>2021-09-25T07:16:30.000Z</time>
      </trkpt>
      <trkpt lat="47.12844" lon="-1.63262">
        <ele>54</ele>
        <time>2021-09-25T07:16:32.000Z</time>
      </trkpt>
      <trkpt lat="47.12837" lon="-1.63243">
        <ele>55</ele>
        <time>2021-09-25T07:16:34.000Z</time>
      </trkpt>
      <trkpt lat="47.1283" lon="-1.63224">
        <ele>54</ele>
        <time>2021-09-25T07:16:36.000Z</time>
      </trkpt>
      <trkpt lat="47.12823" lon="-1.63206">
        <ele>54</ele>
        <time>2021-09-25T07:16:38.000Z</time>
      </trkpt>
      <trkpt lat="47.12815" lon="-1.63188">
        <ele>54</ele>
        <time>2021-09-25T07:16:40.000Z</time>
      </trkpt>
      <trkpt lat="47.12808" lon="-1.63171">
        <ele>55</ele>
        <time>2021-09-25T07:16:42.000Z</time>
      </trkpt>
      <trkpt lat="47.12801" lon="-1.63153">
        <ele>55</ele>
        <time>2021-09-25T07:16:44.000Z</time>
      </trkpt>
      <trkpt lat="47.12795" lon="-1.63134">
        <ele>54</ele>
        <time>2021-09-25T07:16:46.000Z</time>
      </trkpt>
      <trkpt lat="47.12787" lon="-1.63117">
        <ele>55</ele>
        <time>2021-09-25T07:16:48.000Z</time>
      </trkpt>
      <trkpt lat="47.1278" lon="-1.631">
        <ele>55</ele>
        <time>2021-09-25T07:16:50.000Z</time>
      </trkpt>
      <trkpt lat="47.12773" lon="-1.63082">
        <ele>55</ele>
        <time>2021-09-25T07:16:52.000Z</time>
      </trkpt>
      <trkpt lat="47.12766" lon="-1.63064">
        <ele>55</ele>
        <time>2021-09-25T07:16:54.000Z</time>
      </trkpt>
      <trkpt lat="47.12759" lon="-1.63047">
        <ele>56</ele>
        <time>2021-09-25T07:16:56.000Z</time>
      </trkpt>
      <trkpt lat="47.12752" lon="-1.6303">
        <ele>56</ele>
        <time>2021-09-25T07:16:58.000Z</time>
      </trkpt>
      <trkpt lat="47.12745" lon="-1.63012">
        <ele>56</ele>
        <time>2021-09-25T07:17:00.000Z</time>
      </trkpt>
      <trkpt lat="47.12739" lon="-1.62995">
        <ele>56</ele>
        <time>2021-09-25T07:17:02.000Z</time>
      </trkpt>
      <trkpt lat="47.12731" lon="-1.62977">
        <ele>56</ele>
        <time>2021-09-25T07:17:04.000Z</time>
      </trkpt>
      <trkpt lat="47.12725" lon="-1.6296">
        <ele>56</ele>
        <time>2021-09-25T07:17:06.000Z</time>
      </trkpt>
      <trkpt lat="47.12718" lon="-1.62942">
        <ele>56</ele>
        <time>2021-09-25T07:17:08.000Z</time>
      </trkpt>
      <trkpt lat="47.12711" lon="-1.62924">
        <ele>56</ele>
        <time>2021-09-25T07:17:10.000Z</time>
      </trkpt>
      <trkpt lat="47.12705" lon="-1.62907">
        <ele>56</ele>
        <time>2021-09-25T07:17:12.000Z</time>
      </trkpt>
      <trkpt lat="47.12697" lon="-1.62889">
        <ele>57</ele>
        <time>2021-09-25T07:17:14.000Z</time>
      </trkpt>
      <trkpt lat="47.1269" lon="-1.62872">
        <ele>57</ele>
        <time>2021-09-25T07:17:16.000Z</time>
      </trkpt>
      <trkpt lat="47.12684" lon="-1.62856">
        <ele>57</ele>
        <time>2021-09-25T07:17:18.000Z</time>
      </trkpt>
      <trkpt lat="47.12677" lon="-1.62839">
        <ele>57</ele>
        <time>2021-09-25T07:17:20.000Z</time>
      </trkpt>
      <trkpt lat="47.12668" lon="-1.62825">
        <ele>56</ele>
        <time>2021-09-25T07:17:22.000Z</time>
      </trkpt>
      <trkpt lat="47.1266" lon="-1.62808">
        <ele>56</ele>
        <time>2021-09-25T07:17:24.000Z</time>
      </trkpt>
      <trkpt lat="47.12655" lon="-1.62789">
        <ele>57</ele>
        <time>2021-09-25T07:17:26.000Z</time>
      </trkpt>
      <trkpt lat="47.12649" lon="-1.62771">
        <ele>57</ele>
        <time>2021-09-25T07:17:28.000Z</time>
      </trkpt>
      <trkpt lat="47.12641" lon="-1.62754">
        <ele>57</ele>
        <time>2021-09-25T07:17:30.000Z</time>
      </trkpt>
      <trkpt lat="47.12633" lon="-1.62738">
        <ele>56</ele>
        <time>2021-09-25T07:17:32.000Z</time>
      </trkpt>
      <trkpt lat="47.12624" lon="-1.62721">
        <ele>56</ele>
        <time>2021-09-25T07:17:34.000Z</time>
      </trkpt>
      <trkpt lat="47.12616" lon="-1.62704">
        <ele>56</ele>
        <time>2021-09-25T07:17:36.000Z</time>
      </trkpt>
      <trkpt lat="47.12608" lon="-1.62688">
        <ele>56</ele>
        <time>2021-09-25T07:17:38.000Z</time>
      </trkpt>
      <trkpt lat="47.12599" lon="-1.62671">
        <ele>55</ele>
        <time>2021-09-25T07:17:40.000Z</time>
      </trkpt>
      <trkpt lat="47.12591" lon="-1.62654">
        <ele>55</ele>
        <time>2021-09-25T07:17:42.000Z</time>
      </trkpt>
      <trkpt lat="47.12584" lon="-1.62636">
        <ele>55</ele>
        <time>2021-09-25T07:17:44.000Z</time>
      </trkpt>
      <trkpt lat="47.12577" lon="-1.62618">
        <ele>55</ele>
        <time>2021-09-25T07:17:46.000Z</time>
      </trkpt>
      <trkpt lat="47.12572" lon="-1.62598">
        <ele>55</ele>
        <time>2021-09-25T07:17:48.000Z</time>
      </trkpt>
      <trkpt lat="47.12567" lon="-1.62579">
        <ele>55</ele>
        <time>2021-09-25T07:17:50.000Z</time>
      </trkpt>
      <trkpt lat="47.12563" lon="-1.62559">
        <ele>55</ele>
        <time>2021-09-25T07:17:52.000Z</time>
      </trkpt>
      <trkpt lat="47.1256" lon="-1.62538">
        <ele>55</ele>
        <time>2021-09-25T07:17:54.000Z</time>
      </trkpt>
      <trkpt lat="47.12555" lon="-1.62518">
        <ele>54</ele>
        <time>2021-09-25T07:17:56.000Z</time>
      </trkpt>
      <trkpt lat="47.12551" lon="-1.62497">
        <ele>54</ele>
        <time>2021-09-25T07:17:58.000Z</time>
      </trkpt>
      <trkpt lat="47.12547" lon="-1.62476">
        <ele>54</ele>
        <time>2021-09-25T07:18:00.000Z</time>
      </trkpt>
      <trkpt lat="47.12542" lon="-1.62457">
        <ele>54</ele>
        <time>2021-09-25T07:18:02.000Z</time>
      </trkpt>
      <trkpt lat="47.12537" lon="-1.62437">
        <ele>54</ele>
        <time>2021-09-25T07:18:04.000Z</time>
      </trkpt>
      <trkpt lat="47.12532" lon="-1.62417">
        <ele>53</ele>
        <time>2021-09-25T07:18:06.000Z</time>
      </trkpt>
      <trkpt lat="47.12525" lon="-1.624">
        <ele>53</ele>
        <time>2021-09-25T07:18:08.000Z</time>
      </trkpt>
      <trkpt lat="47.12518" lon="-1.62382">
        <ele>53</ele>
        <time>2021-09-25T07:18:10.000Z</time>
      </trkpt>
      <trkpt lat="47.12511" lon="-1.62364">
        <ele>53</ele>
        <time>2021-09-25T07:18:12.000Z</time>
      </trkpt>
      <trkpt lat="47.12504" lon="-1.62347">
        <ele>53</ele>
        <time>2021-09-25T07:18:14.000Z</time>
      </trkpt>
      <trkpt lat="47.12495" lon="-1.62331">
        <ele>53</ele>
        <time>2021-09-25T07:18:16.000Z</time>
      </trkpt>
      <trkpt lat="47.12486" lon="-1.62316">
        <ele>52</ele>
        <time>2021-09-25T07:18:18.000Z</time>
      </trkpt>
      <trkpt lat="47.12477" lon="-1.62302">
        <ele>52</ele>
        <time>2021-09-25T07:18:20.000Z</time>
      </trkpt>
      <trkpt lat="47.12468" lon="-1.62287">
        <ele>52</ele>
        <time>2021-09-25T07:18:22.000Z</time>
      </trkpt>
      <trkpt lat="47.12458" lon="-1.62273">
        <ele>53</ele>
        <time>2021-09-25T07:18:24.000Z</time>
      </trkpt>
      <trkpt lat="47.12449" lon="-1.62258">
        <ele>53</ele>
        <time>2021-09-25T07:18:26.000Z</time>
      </trkpt>
      <trkpt lat="47.12439" lon="-1.62245">
        <ele>53</ele>
        <time>2021-09-25T07:18:28.000Z</time>
      </trkpt>
      <trkpt lat="47.1243" lon="-1.6223">
        <ele>53</ele>
        <time>2021-09-25T07:18:30.000Z</time>
      </trkpt>
      <trkpt lat="47.12421" lon="-1.62216">
        <ele>53</ele>
        <time>2021-09-25T07:18:32.000Z</time>
      </trkpt>
      <trkpt lat="47.12412" lon="-1.62201">
        <ele>53</ele>
        <time>2021-09-25T07:18:34.000Z</time>
      </trkpt>
      <trkpt lat="47.12404" lon="-1.62185">
        <ele>54</ele>
        <time>2021-09-25T07:18:36.000Z</time>
      </trkpt>
      <trkpt lat="47.12397" lon="-1.62168">
        <ele>54</ele>
        <time>2021-09-25T07:18:38.000Z</time>
      </trkpt>
      <trkpt lat="47.12391" lon="-1.6215">
        <ele>54</ele>
        <time>2021-09-25T07:18:40.000Z</time>
      </trkpt>
      <trkpt lat="47.12387" lon="-1.62132">
        <ele>54</ele>
        <time>2021-09-25T07:18:42.000Z</time>
      </trkpt>
      <trkpt lat="47.12384" lon="-1.62114">
        <ele>54</ele>
        <time>2021-09-25T07:18:44.000Z</time>
      </trkpt>
      <trkpt lat="47.12381" lon="-1.62095">
        <ele>55</ele>
        <time>2021-09-25T07:18:46.000Z</time>
      </trkpt>
      <trkpt lat="47.1238" lon="-1.62076">
        <ele>55</ele>
        <time>2021-09-25T07:18:48.000Z</time>
      </trkpt>
      <trkpt lat="47.1238" lon="-1.62058">
        <ele>55</ele>
        <time>2021-09-25T07:18:50.000Z</time>
      </trkpt>
      <trkpt lat="47.12382" lon="-1.62039">
        <ele>55</ele>
        <time>2021-09-25T07:18:52.000Z</time>
      </trkpt>
      <trkpt lat="47.12385" lon="-1.62019">
        <ele>54</ele>
        <time>2021-09-25T07:18:54.000Z</time>
      </trkpt>
      <trkpt lat="47.1239" lon="-1.62">
        <ele>54</ele>
        <time>2021-09-25T07:18:56.000Z</time>
      </trkpt>
      <trkpt lat="47.12394" lon="-1.61982">
        <ele>54</ele>
        <time>2021-09-25T07:18:58.000Z</time>
      </trkpt>
      <trkpt lat="47.12399" lon="-1.61965">
        <ele>55</ele>
        <time>2021-09-25T07:19:00.000Z</time>
      </trkpt>
      <trkpt lat="47.12403" lon="-1.61947">
        <ele>55</ele>
        <time>2021-09-25T07:19:02.000Z</time>
      </trkpt>
      <trkpt lat="47.12408" lon="-1.6193">
        <ele>55</ele>
        <time>2021-09-25T07:19:04.000Z</time>
      </trkpt>
      <trkpt lat="47.12413" lon="-1.61912">
        <ele>55</ele>
        <time>2021-09-25T07:19:06.000Z</time>
      </trkpt>
      <trkpt lat="47.12416" lon="-1.61894">
        <ele>55</ele>
        <time>2021-09-25T07:19:08.000Z</time>
      </trkpt>
      <trkpt lat="47.12422" lon="-1.61876">
        <ele>56</ele>
        <time>2021-09-25T07:19:10.000Z</time>
      </trkpt>
      <trkpt lat="47.12428" lon="-1.6186">
        <ele>56</ele>
        <time>2021-09-25T07:19:12.000Z</time>
      </trkpt>
      <trkpt lat="47.12433" lon="-1.61841">
        <ele>56</ele>
        <time>2021-09-25T07:19:14.000Z</time>
      </trkpt>
      <trkpt lat="47.12436" lon="-1.61822">
        <ele>56</ele>
        <time>2021-09-25T07:19:16.000Z</time>
      </trkpt>
      <trkpt lat="47.1244" lon="-1.61804">
        <ele>56</ele>
        <time>2021-09-25T07:19:18.000Z</time>
      </trkpt>
      <trkpt lat="47.12445" lon="-1.61787">
        <ele>57</ele>
        <time>2021-09-25T07:19:20.000Z</time>
      </trkpt>
      <trkpt lat="47.12449" lon="-1.61769">
        <ele>57</ele>
        <time>2021-09-25T07:19:22.000Z</time>
      </trkpt>
      <trkpt lat="47.12454" lon="-1.61752">
        <ele>57</ele>
        <time>2021-09-25T07:19:24.000Z</time>
      </trkpt>
      <trkpt lat="47.12458" lon="-1.61735">
        <ele>57</ele>
        <time>2021-09-25T07:19:26.000Z</time>
      </trkpt>
      <trkpt lat="47.12463" lon="-1.61717">
        <ele>57</ele>
        <time>2021-09-25T07:19:28.000Z</time>
      </trkpt>
      <trkpt lat="47.12467" lon="-1.61698">
        <ele>57</ele>
        <time>2021-09-25T07:19:30.000Z</time>
      </trkpt>
      <trkpt lat="47.12471" lon="-1.6168">
        <ele>57</ele>
        <time>2021-09-25T07:19:32.000Z</time>
      </trkpt>
      <trkpt lat="47.12475" lon="-1.61661">
        <ele>58</ele>
        <time>2021-09-25T07:19:34.000Z</time>
      </trkpt>
      <trkpt lat="47.12478" lon="-1.61642">
        <ele>57</ele>
        <time>2021-09-25T07:19:36.000Z</time>
      </trkpt>
      <trkpt lat="47.12478" lon="-1.61622">
        <ele>57</ele>
        <time>2021-09-25T07:19:38.000Z</time>
      </trkpt>
      <trkpt lat="47.12477" lon="-1.61602">
        <ele>57</ele>
        <time>2021-09-25T07:19:40.000Z</time>
      </trkpt>
      <trkpt lat="47.12475" lon="-1.61582">
        <ele>57</ele>
        <time>2021-09-25T07:19:42.000Z</time>
      </trkpt>
      <trkpt lat="47.12472" lon="-1.61563">
        <ele>57</ele>
        <time>2021-09-25T07:19:44.000Z</time>
      </trkpt>
      <trkpt lat="47.1247" lon="-1.61544">
        <ele>57</ele>
        <time>2021-09-25T07:19:46.000Z</time>
      </trkpt>
      <trkpt lat="47.12469" lon="-1.61525">
        <ele>57</ele>
        <time>2021-09-25T07:19:48.000Z</time>
      </trkpt>
      <trkpt lat="47.12467" lon="-1.61506">
        <ele>57</ele>
        <time>2021-09-25T07:19:50.000Z</time>
      </trkpt>
      <trkpt lat="47.12464" lon="-1.61487">
        <ele>57</ele>
        <time>2021-09-25T07:19:52.000Z</time>
      </trkpt>
      <trkpt lat="47.12462" lon="-1.61468">
        <ele>57</ele>
        <time>2021-09-25T07:19:54.000Z</time>
      </trkpt>
      <trkpt lat="47.1246" lon="-1.61449">
        <ele>57</ele>
        <time>2021-09-25T07:19:56.000Z</time>
      </trkpt>
      <trkpt lat="47.12457" lon="-1.6143">
        <ele>58</ele>
        <time>2021-09-25T07:19:58.000Z</time>
      </trkpt>
      <trkpt lat="47.12455" lon="-1.61411">
        <ele>58</ele>
        <time>2021-09-25T07:20:00.000Z</time>
      </trkpt>
      <trkpt lat="47.12453" lon="-1.61393">
        <ele>58</ele>
        <time>2021-09-25T07:20:02.000Z</time>
      </trkpt>
      <trkpt lat="47.12454" lon="-1.61374">
        <ele>58</ele>
        <time>2021-09-25T07:20:04.000Z</time>
      </trkpt>
      <trkpt lat="47.12456" lon="-1.61356">
        <ele>58</ele>
        <time>2021-09-25T07:20:06.000Z</time>
      </trkpt>
      <trkpt lat="47.12459" lon="-1.61338">
        <ele>58</ele>
        <time>2021-09-25T07:20:08.000Z</time>
      </trkpt>
      <trkpt lat="47.12463" lon="-1.6132">
        <ele>59</ele>
        <time>2021-09-25T07:20:10.000Z</time>
      </trkpt>
      <trkpt lat="47.12469" lon="-1.61302">
        <ele>59</ele>
        <time>2021-09-25T07:20:12.000Z</time>
      </trkpt>
      <trkpt lat="47.12475" lon="-1.61284">
        <ele>59</ele>
        <time>2021-09-25T07:20:14.000Z</time>
      </trkpt>
      <trkpt lat="47.12481" lon="-1.61267">
        <ele>59</ele>
        <time>2021-09-25T07:20:16.000Z</time>
      </trkpt>
      <trkpt lat="47.12486" lon="-1.61249">
        <ele>59</ele>
        <time>2021-09-25T07:20:18.000Z</time>
      </trkpt>
      <trkpt lat="47.12491" lon="-1.61231">
        <ele>59</ele>
        <time>2021-09-25T07:20:20.000Z</time>
      </trkpt>
      <trkpt lat="47.12495" lon="-1.61212">
        <ele>59</ele>
        <time>2021-09-25T07:20:22.000Z</time>
      </trkpt>
      <trkpt lat="47.12499" lon="-1.61193">
        <ele>58</ele>
        <time>2021-09-25T07:20:24.000Z</time>
      </trkpt>
      <trkpt lat="47.12501" lon="-1.61175">
        <ele>58</ele>
        <time>2021-09-25T07:20:26.000Z</time>
      </trkpt>
      <trkpt lat="47.12503" lon="-1.61156">
        <ele>58</ele>
        <time>2021-09-25T07:20:28.000Z</time>
      </trkpt>
      <trkpt lat="47.12505" lon="-1.61136">
        <ele>58</ele>
        <time>2021-09-25T07:20:30.000Z</time>
      </trkpt>
      <trkpt lat="47.12507" lon="-1.61117">
        <ele>58</ele>
        <time>2021-09-25T07:20:32.000Z</time>
      </trkpt>
      <trkpt lat="47.12509" lon="-1.61097">
        <ele>58</ele>
        <time>2021-09-25T07:20:34.000Z</time>
      </trkpt>
      <trkpt lat="47.1251" lon="-1.61077">
        <ele>58</ele>
        <time>2021-09-25T07:20:36.000Z</time>
      </trkpt>
      <trkpt lat="47.12512" lon="-1.61057">
        <ele>58</ele>
        <time>2021-09-25T07:20:38.000Z</time>
      </trkpt>
      <trkpt lat="47.12515" lon="-1.61038">
        <ele>58</ele>
        <time>2021-09-25T07:20:40.000Z</time>
      </trkpt>
      <trkpt lat="47.12516" lon="-1.61018">
        <ele>58</ele>
        <time>2021-09-25T07:20:42.000Z</time>
      </trkpt>
      <trkpt lat="47.12518" lon="-1.60998">
        <ele>58</ele>
        <time>2021-09-25T07:20:44.000Z</time>
      </trkpt>
      <trkpt lat="47.1252" lon="-1.60976">
        <ele>57</ele>
        <time>2021-09-25T07:20:46.000Z</time>
      </trkpt>
      <trkpt lat="47.12522" lon="-1.60956">
        <ele>57</ele>
        <time>2021-09-25T07:20:48.000Z</time>
      </trkpt>
      <trkpt lat="47.12524" lon="-1.60936">
        <ele>57</ele>
        <time>2021-09-25T07:20:50.000Z</time>
      </trkpt>
      <trkpt lat="47.12526" lon="-1.60916">
        <ele>56</ele>
        <time>2021-09-25T07:20:52.000Z</time>
      </trkpt>
      <trkpt lat="47.12528" lon="-1.60896">
        <ele>56</ele>
        <time>2021-09-25T07:20:54.000Z</time>
      </trkpt>
      <trkpt lat="47.1253" lon="-1.60875">
        <ele>56</ele>
        <time>2021-09-25T07:20:56.000Z</time>
      </trkpt>
      <trkpt lat="47.12532" lon="-1.60855">
        <ele>56</ele>
        <time>2021-09-25T07:20:58.000Z</time>
      </trkpt>
      <trkpt lat="47.12534" lon="-1.60834">
        <ele>56</ele>
        <time>2021-09-25T07:21:00.000Z</time>
      </trkpt>
      <trkpt lat="47.12536" lon="-1.60814">
        <ele>55</ele>
        <time>2021-09-25T07:21:02.000Z</time>
      </trkpt>
      <trkpt lat="47.12538" lon="-1.60793">
        <ele>55</ele>
        <time>2021-09-25T07:21:04.000Z</time>
      </trkpt>
      <trkpt lat="47.1254" lon="-1.60772">
        <ele>56</ele>
        <time>2021-09-25T07:21:06.000Z</time>
      </trkpt>
      <trkpt lat="47.12541" lon="-1.60751">
        <ele>55</ele>
        <time>2021-09-25T07:21:08.000Z</time>
      </trkpt>
      <trkpt lat="47.12542" lon="-1.60729">
        <ele>56</ele>
        <time>2021-09-25T07:21:10.000Z</time>
      </trkpt>
      <trkpt lat="47.12542" lon="-1.60708">
        <ele>56</ele>
        <time>2021-09-25T07:21:12.000Z</time>
      </trkpt>
      <trkpt lat="47.12543" lon="-1.60688">
        <ele>56</ele>
        <time>2021-09-25T07:21:14.000Z</time>
      </trkpt>
      <trkpt lat="47.12542" lon="-1.60667">
        <ele>55</ele>
        <time>2021-09-25T07:21:16.000Z</time>
      </trkpt>
      <trkpt lat="47.12542" lon="-1.60647">
        <ele>56</ele>
        <time>2021-09-25T07:21:18.000Z</time>
      </trkpt>
      <trkpt lat="47.12541" lon="-1.60627">
        <ele>56</ele>
        <time>2021-09-25T07:21:20.000Z</time>
      </trkpt>
      <trkpt lat="47.12541" lon="-1.60607">
        <ele>56</ele>
        <time>2021-09-25T07:21:22.000Z</time>
      </trkpt>
      <trkpt lat="47.12541" lon="-1.60587">
        <ele>55</ele>
        <time>2021-09-25T07:21:24.000Z</time>
      </trkpt>
      <trkpt lat="47.1254" lon="-1.60567">
        <ele>56</ele>
        <time>2021-09-25T07:21:26.000Z</time>
      </trkpt>
      <trkpt lat="47.1254" lon="-1.60547">
        <ele>56</ele>
        <time>2021-09-25T07:21:28.000Z</time>
      </trkpt>
      <trkpt lat="47.12538" lon="-1.60526">
        <ele>55</ele>
        <time>2021-09-25T07:21:30.000Z</time>
      </trkpt>
      <trkpt lat="47.12537" lon="-1.60506">
        <ele>55</ele>
        <time>2021-09-25T07:21:32.000Z</time>
      </trkpt>
      <trkpt lat="47.12535" lon="-1.60486">
        <ele>55</ele>
        <time>2021-09-25T07:21:34.000Z</time>
      </trkpt>
      <trkpt lat="47.12532" lon="-1.60467">
        <ele>55</ele>
        <time>2021-09-25T07:21:36.000Z</time>
      </trkpt>
      <trkpt lat="47.12528" lon="-1.60447">
        <ele>55</ele>
        <time>2021-09-25T07:21:38.000Z</time>
      </trkpt>
      <trkpt lat="47.12525" lon="-1.60426">
        <ele>54</ele>
        <time>2021-09-25T07:21:40.000Z</time>
      </trkpt>
      <trkpt lat="47.1252" lon="-1.60405">
        <ele>54</ele>
        <time>2021-09-25T07:21:42.000Z</time>
      </trkpt>
      <trkpt lat="47.12516" lon="-1.60384">
        <ele>54</ele>
        <time>2021-09-25T07:21:44.000Z</time>
      </trkpt>
      <trkpt lat="47.12512" lon="-1.60364">
        <ele>54</ele>
        <time>2021-09-25T07:21:46.000Z</time>
      </trkpt>
      <trkpt lat="47.12508" lon="-1.60342">
        <ele>54</ele>
        <time>2021-09-25T07:21:48.000Z</time>
      </trkpt>
      <trkpt lat="47.12504" lon="-1.60321">
        <ele>54</ele>
        <time>2021-09-25T07:21:50.000Z</time>
      </trkpt>
      <trkpt lat="47.125" lon="-1.60298">
        <ele>53</ele>
        <time>2021-09-25T07:21:52.000Z</time>
      </trkpt>
      <trkpt lat="47.12495" lon="-1.60277">
        <ele>53</ele>
        <time>2021-09-25T07:21:54.000Z</time>
      </trkpt>
      <trkpt lat="47.12491" lon="-1.60256">
        <ele>53</ele>
        <time>2021-09-25T07:21:56.000Z</time>
      </trkpt>
      <trkpt lat="47.12487" lon="-1.60236">
        <ele>53</ele>
        <time>2021-09-25T07:21:58.000Z</time>
      </trkpt>
      <trkpt lat="47.12483" lon="-1.60216">
        <ele>53</ele>
        <time>2021-09-25T07:22:00.000Z</time>
      </trkpt>
      <trkpt lat="47.12481" lon="-1.60197">
        <ele>53</ele>
        <time>2021-09-25T07:22:02.000Z</time>
      </trkpt>
      <trkpt lat="47.12478" lon="-1.60177">
        <ele>53</ele>
        <time>2021-09-25T07:22:04.000Z</time>
      </trkpt>
      <trkpt lat="47.12477" lon="-1.60158">
        <ele>54</ele>
        <time>2021-09-25T07:22:06.000Z</time>
      </trkpt>
      <trkpt lat="47.12476" lon="-1.60138">
        <ele>54</ele>
        <time>2021-09-25T07:22:08.000Z</time>
      </trkpt>
      <trkpt lat="47.12475" lon="-1.60118">
        <ele>55</ele>
        <time>2021-09-25T07:22:10.000Z</time>
      </trkpt>
      <trkpt lat="47.12474" lon="-1.60099">
        <ele>55</ele>
        <time>2021-09-25T07:22:12.000Z</time>
      </trkpt>
      <trkpt lat="47.12473" lon="-1.60079">
        <ele>55</ele>
        <time>2021-09-25T07:22:14.000Z</time>
      </trkpt>
      <trkpt lat="47.12472" lon="-1.6006">
        <ele>55</ele>
        <time>2021-09-25T07:22:16.000Z</time>
      </trkpt>
      <trkpt lat="47.12471" lon="-1.6004">
        <ele>55</ele>
        <time>2021-09-25T07:22:18.000Z</time>
      </trkpt>
      <trkpt lat="47.1247" lon="-1.6002">
        <ele>56</ele>
        <time>2021-09-25T07:22:20.000Z</time>
      </trkpt>
      <trkpt lat="47.12469" lon="-1.6">
        <ele>56</ele>
        <time>2021-09-25T07:22:22.000Z</time>
      </trkpt>
      <trkpt lat="47.12468" lon="-1.5998">
        <ele>56</ele>
        <time>2021-09-25T07:22:24.000Z</time>
      </trkpt>
      <trkpt lat="47.12468" lon="-1.5996">
        <ele>56</ele>
        <time>2021-09-25T07:22:26.000Z</time>
      </trkpt>
      <trkpt lat="47.12467" lon="-1.5994">
        <ele>56</ele>
        <time>2021-09-25T07:22:28.000Z</time>
      </trkpt>
      <trkpt lat="47.12465" lon="-1.5992">
        <ele>57</ele>
        <time>2021-09-25T07:22:30.000Z</time>
      </trkpt>
      <trkpt lat="47.12464" lon="-1.59901">
        <ele>58</ele>
        <time>2021-09-25T07:22:32.000Z</time>
      </trkpt>
      <trkpt lat="47.12463" lon="-1.59881">
        <ele>58</ele>
        <time>2021-09-25T07:22:34.000Z</time>
      </trkpt>
      <trkpt lat="47.12462" lon="-1.59862">
        <ele>58</ele>
        <time>2021-09-25T07:22:36.000Z</time>
      </trkpt>
      <trkpt lat="47.12461" lon="-1.59843">
        <ele>59</ele>
        <time>2021-09-25T07:22:38.000Z</time>
      </trkpt>
      <trkpt lat="47.1246" lon="-1.59823">
        <ele>59</ele>
        <time>2021-09-25T07:22:40.000Z</time>
      </trkpt>
      <trkpt lat="47.12459" lon="-1.59803">
        <ele>59</ele>
        <time>2021-09-25T07:22:42.000Z</time>
      </trkpt>
      <trkpt lat="47.12458" lon="-1.59783">
        <ele>59</ele>
        <time>2021-09-25T07:22:44.000Z</time>
      </trkpt>
      <trkpt lat="47.12458" lon="-1.59763">
        <ele>59</ele>
        <time>2021-09-25T07:22:46.000Z</time>
      </trkpt>
      <trkpt lat="47.12457" lon="-1.59742">
        <ele>59</ele>
        <time>2021-09-25T07:22:48.000Z</time>
      </trkpt>
      <trkpt lat="47.12456" lon="-1.59723">
        <ele>58</ele>
        <time>2021-09-25T07:22:50.000Z</time>
      </trkpt>
      <trkpt lat="47.12455" lon="-1.59703">
        <ele>58</ele>
        <time>2021-09-25T07:22:52.000Z</time>
      </trkpt>
      <trkpt lat="47.12454" lon="-1.59684">
        <ele>57</ele>
        <time>2021-09-25T07:22:54.000Z</time>
      </trkpt>
      <trkpt lat="47.12454" lon="-1.59665">
        <ele>57</ele>
        <time>2021-09-25T07:22:56.000Z</time>
      </trkpt>
      <trkpt lat="47.12453" lon="-1.59645">
        <ele>56</ele>
        <time>2021-09-25T07:22:58.000Z</time>
      </trkpt>
      <trkpt lat="47.12452" lon="-1.59626">
        <ele>56</ele>
        <time>2021-09-25T07:23:00.000Z</time>
      </trkpt>
      <trkpt lat="47.12451" lon="-1.59606">
        <ele>55</ele>
        <time>2021-09-25T07:23:02.000Z</time>
      </trkpt>
      <trkpt lat="47.12451" lon="-1.59586">
        <ele>55</ele>
        <time>2021-09-25T07:23:04.000Z</time>
      </trkpt>
      <trkpt lat="47.1245" lon="-1.59567">
        <ele>55</ele>
        <time>2021-09-25T07:23:06.000Z</time>
      </trkpt>
      <trkpt lat="47.12449" lon="-1.59548">
        <ele>55</ele>
        <time>2021-09-25T07:23:08.000Z</time>
      </trkpt>
      <trkpt lat="47.12448" lon="-1.59528">
        <ele>55</ele>
        <time>2021-09-25T07:23:10.000Z</time>
      </trkpt>
      <trkpt lat="47.12447" lon="-1.59508">
        <ele>54</ele>
        <time>2021-09-25T07:23:12.000Z</time>
      </trkpt>
      <trkpt lat="47.12446" lon="-1.59487">
        <ele>54</ele>
        <time>2021-09-25T07:23:14.000Z</time>
      </trkpt>
      <trkpt lat="47.12444" lon="-1.59467">
        <ele>54</ele>
        <time>2021-09-25T07:23:16.000Z</time>
      </trkpt>
      <trkpt lat="47.12444" lon="-1.59447">
        <ele>54</ele>
        <time>2021-09-25T07:23:18.000Z</time>
      </trkpt>
      <trkpt lat="47.12443" lon="-1.59427">
        <ele>54</ele>
        <time>2021-09-25T07:23:20.000Z</time>
      </trkpt>
      <trkpt lat="47.12442" lon="-1.59406">
        <ele>54</ele>
        <time>2021-09-25T07:23:22.000Z</time>
      </trkpt>
      <trkpt lat="47.1244" lon="-1.59386">
        <ele>54</ele>
        <time>2021-09-25T07:23:24.000Z</time>
      </trkpt>
      <trkpt lat="47.12439" lon="-1.59366">
        <ele>54</ele>
        <time>2021-09-25T07:23:26.000Z</time>
      </trkpt>
      <trkpt lat="47.12438" lon="-1.59346">
        <ele>54</ele>
        <time>2021-09-25T07:23:28.000Z</time>
      </trkpt>
      <trkpt lat="47.12438" lon="-1.59325">
        <ele>53</ele>
        <time>2021-09-25T07:23:30.000Z</time>
      </trkpt>
      <trkpt lat="47.12437" lon="-1.59304">
        <ele>53</ele>
        <time>2021-09-25T07:23:32.000Z</time>
      </trkpt>
      <trkpt lat="47.12436" lon="-1.59284">
        <ele>53</ele>
        <time>2021-09-25T07:23:34.000Z</time>
      </trkpt>
      <trkpt lat="47.12435" lon="-1.59264">
        <ele>53</ele>
        <time>2021-09-25T07:23:36.000Z</time>
      </trkpt>
      <trkpt lat="47.12433" lon="-1.59243">
        <ele>52</ele>
        <time>2021-09-25T07:23:38.000Z</time>
      </trkpt>
      <trkpt lat="47.12431" lon="-1.59222">
        <ele>52</ele>
        <time>2021-09-25T07:23:40.000Z</time>
      </trkpt>
      <trkpt lat="47.12427" lon="-1.59202">
        <ele>52</ele>
        <time>2021-09-25T07:23:42.000Z</time>
      </trkpt>
      <trkpt lat="47.12426" lon="-1.59181">
        <ele>52</ele>
        <time>2021-09-25T07:23:44.000Z</time>
      </trkpt>
      <trkpt lat="47.12428" lon="-1.5916">
        <ele>52</ele>
        <time>2021-09-25T07:23:46.000Z</time>
      </trkpt>
      <trkpt lat="47.12428" lon="-1.5914">
        <ele>52</ele>
        <time>2021-09-25T07:23:48.000Z</time>
      </trkpt>
      <trkpt lat="47.12429" lon="-1.59119">
        <ele>51</ele>
        <time>2021-09-25T07:23:50.000Z</time>
      </trkpt>
      <trkpt lat="47.12428" lon="-1.59099">
        <ele>51</ele>
        <time>2021-09-25T07:23:52.000Z</time>
      </trkpt>
      <trkpt lat="47.12427" lon="-1.59078">
        <ele>52</ele>
        <time>2021-09-25T07:23:54.000Z</time>
      </trkpt>
      <trkpt lat="47.12426" lon="-1.59058">
        <ele>52</ele>
        <time>2021-09-25T07:23:56.000Z</time>
      </trkpt>
      <trkpt lat="47.12424" lon="-1.59038">
        <ele>53</ele>
        <time>2021-09-25T07:23:58.000Z</time>
      </trkpt>
      <trkpt lat="47.12424" lon="-1.5902">
        <ele>53</ele>
        <time>2021-09-25T07:24:00.000Z</time>
      </trkpt>
      <trkpt lat="47.12423" lon="-1.59002">
        <ele>53</ele>
        <time>2021-09-25T07:24:02.000Z</time>
      </trkpt>
      <trkpt lat="47.12422" lon="-1.58984">
        <ele>54</ele>
        <time>2021-09-25T07:24:04.000Z</time>
      </trkpt>
      <trkpt lat="47.1242" lon="-1.58966">
        <ele>54</ele>
        <time>2021-09-25T07:24:06.000Z</time>
      </trkpt>
      <trkpt lat="47.12419" lon="-1.58949">
        <ele>55</ele>
        <time>2021-09-25T07:24:08.000Z</time>
      </trkpt>
      <trkpt lat="47.12418" lon="-1.58931">
        <ele>55</ele>
        <time>2021-09-25T07:24:10.000Z</time>
      </trkpt>
      <trkpt lat="47.12417" lon="-1.58913">
        <ele>56</ele>
        <time>2021-09-25T07:24:12.000Z</time>
      </trkpt>
      <trkpt lat="47.12415" lon="-1.58896">
        <ele>56</ele>
        <time>2021-09-25T07:24:14.000Z</time>
      </trkpt>
      <trkpt lat="47.12413" lon="-1.58879">
        <ele>57</ele>
        <time>2021-09-25T07:24:16.000Z</time>
      </trkpt>
      <trkpt lat="47.12412" lon="-1.58861">
        <ele>57</ele>
        <time>2021-09-25T07:24:18.000Z</time>
      </trkpt>
      <trkpt lat="47.1241" lon="-1.58842">
        <ele>57</ele>
        <time>2021-09-25T07:24:20.000Z</time>
      </trkpt>
      <trkpt lat="47.12408" lon="-1.58824">
        <ele>57</ele>
        <time>2021-09-25T07:24:22.000Z</time>
      </trkpt>
      <trkpt lat="47.12406" lon="-1.58806">
        <ele>57</ele>
        <time>2021-09-25T07:24:24.000Z</time>
      </trkpt>
      <trkpt lat="47.12404" lon="-1.58787">
        <ele>57</ele>
        <time>2021-09-25T07:24:26.000Z</time>
      </trkpt>
      <trkpt lat="47.12401" lon="-1.58769">
        <ele>57</ele>
        <time>2021-09-25T07:24:28.000Z</time>
      </trkpt>
      <trkpt lat="47.12397" lon="-1.58751">
        <ele>56</ele>
        <time>2021-09-25T07:24:30.000Z</time>
      </trkpt>
      <trkpt lat="47.12393" lon="-1.58733">
        <ele>56</ele>
        <time>2021-09-25T07:24:32.000Z</time>
      </trkpt>
      <trkpt lat="47.12388" lon="-1.58714">
        <ele>56</ele>
        <time>2021-09-25T07:24:34.000Z</time>
      </trkpt>
      <trkpt lat="47.12384" lon="-1.58694">
        <ele>56</ele>
        <time>2021-09-25T07:24:36.000Z</time>
      </trkpt>
      <trkpt lat="47.12379" lon="-1.58675">
        <ele>56</ele>
        <time>2021-09-25T07:24:38.000Z</time>
      </trkpt>
      <trkpt lat="47.12375" lon="-1.58655">
        <ele>56</ele>
        <time>2021-09-25T07:24:40.000Z</time>
      </trkpt>
      <trkpt lat="47.12371" lon="-1.58635">
        <ele>56</ele>
        <time>2021-09-25T07:24:42.000Z</time>
      </trkpt>
      <trkpt lat="47.12367" lon="-1.58615">
        <ele>56</ele>
        <time>2021-09-25T07:24:44.000Z</time>
      </trkpt>
      <trkpt lat="47.12362" lon="-1.58595">
        <ele>56</ele>
        <time>2021-09-25T07:24:46.000Z</time>
      </trkpt>
      <trkpt lat="47.12358" lon="-1.58573">
        <ele>55</ele>
        <time>2021-09-25T07:24:48.000Z</time>
      </trkpt>
      <trkpt lat="47.12352" lon="-1.58553">
        <ele>55</ele>
        <time>2021-09-25T07:24:50.000Z</time>
      </trkpt>
      <trkpt lat="47.12347" lon="-1.58533">
        <ele>55</ele>
        <time>2021-09-25T07:24:52.000Z</time>
      </trkpt>
      <trkpt lat="47.12342" lon="-1.58513">
        <ele>55</ele>
        <time>2021-09-25T07:24:54.000Z</time>
      </trkpt>
      <trkpt lat="47.12337" lon="-1.58492">
        <ele>55</ele>
        <time>2021-09-25T07:24:56.000Z</time>
      </trkpt>
      <trkpt lat="47.12333" lon="-1.58472">
        <ele>55</ele>
        <time>2021-09-25T07:24:58.000Z</time>
      </trkpt>
      <trkpt lat="47.12327" lon="-1.58457">
        <ele>55</ele>
        <time>2021-09-25T07:25:00.000Z</time>
      </trkpt>
      <trkpt lat="47.12319" lon="-1.58442">
        <ele>56</ele>
        <time>2021-09-25T07:25:03.000Z</time>
      </trkpt>
      <trkpt lat="47.12312" lon="-1.58426">
        <ele>56</ele>
        <time>2021-09-25T07:25:05.000Z</time>
      </trkpt>
      <trkpt lat="47.12305" lon="-1.58412">
        <ele>55</ele>
        <time>2021-09-25T07:25:07.000Z</time>
      </trkpt>
      <trkpt lat="47.12299" lon="-1.58396">
        <ele>55</ele>
        <time>2021-09-25T07:25:09.000Z</time>
      </trkpt>
      <trkpt lat="47.12298" lon="-1.58377">
        <ele>56</ele>
        <time>2021-09-25T07:25:11.000Z</time>
      </trkpt>
      <trkpt lat="47.12297" lon="-1.58358">
        <ele>56</ele>
        <time>2021-09-25T07:25:13.000Z</time>
      </trkpt>
      <trkpt lat="47.12291" lon="-1.58342">
        <ele>55</ele>
        <time>2021-09-25T07:25:15.000Z</time>
      </trkpt>
      <trkpt lat="47.1228" lon="-1.58331">
        <ele>55</ele>
        <time>2021-09-25T07:25:17.000Z</time>
      </trkpt>
      <trkpt lat="47.12268" lon="-1.5832">
        <ele>55</ele>
        <time>2021-09-25T07:25:19.000Z</time>
      </trkpt>
      <trkpt lat="47.12257" lon="-1.58312">
        <ele>54</ele>
        <time>2021-09-25T07:25:21.000Z</time>
      </trkpt>
      <trkpt lat="47.1225" lon="-1.58305">
        <ele>54</ele>
        <time>2021-09-25T07:25:23.000Z</time>
      </trkpt>
      <trkpt lat="47.12241" lon="-1.58295">
        <ele>54</ele>
        <time>2021-09-25T07:25:25.000Z</time>
      </trkpt>
      <trkpt lat="47.12232" lon="-1.58286">
        <ele>53</ele>
        <time>2021-09-25T07:25:27.000Z</time>
      </trkpt>
      <trkpt lat="47.12223" lon="-1.58276">
        <ele>53</ele>
        <time>2021-09-25T07:25:30.000Z</time>
      </trkpt>
      <trkpt lat="47.12215" lon="-1.58268">
        <ele>54</ele>
        <time>2021-09-25T07:25:45.000Z</time>
      </trkpt>
      <trkpt lat="47.12206" lon="-1.58259">
        <ele>54</ele>
        <time>2021-09-25T07:25:48.000Z</time>
      </trkpt>
      <trkpt lat="47.12199" lon="-1.58248">
        <ele>54</ele>
        <time>2021-09-25T07:25:50.000Z</time>
      </trkpt>
      <trkpt lat="47.12198" lon="-1.5823">
        <ele>54</ele>
        <time>2021-09-25T07:25:52.000Z</time>
      </trkpt>
      <trkpt lat="47.12199" lon="-1.5821">
        <ele>55</ele>
        <time>2021-09-25T07:25:54.000Z</time>
      </trkpt>
      <trkpt lat="47.12201" lon="-1.5819">
        <ele>55</ele>
        <time>2021-09-25T07:25:56.000Z</time>
      </trkpt>
      <trkpt lat="47.12203" lon="-1.5817">
        <ele>55</ele>
        <time>2021-09-25T07:25:58.000Z</time>
      </trkpt>
      <trkpt lat="47.12208" lon="-1.58152">
        <ele>56</ele>
        <time>2021-09-25T07:26:00.000Z</time>
      </trkpt>
      <trkpt lat="47.12214" lon="-1.58135">
        <ele>55</ele>
        <time>2021-09-25T07:26:02.000Z</time>
      </trkpt>
      <trkpt lat="47.12222" lon="-1.58118">
        <ele>55</ele>
        <time>2021-09-25T07:26:04.000Z</time>
      </trkpt>
      <trkpt lat="47.12229" lon="-1.58099">
        <ele>55</ele>
        <time>2021-09-25T07:26:06.000Z</time>
      </trkpt>
      <trkpt lat="47.12236" lon="-1.58082">
        <ele>55</ele>
        <time>2021-09-25T07:26:08.000Z</time>
      </trkpt>
      <trkpt lat="47.12243" lon="-1.58063">
        <ele>55</ele>
        <time>2021-09-25T07:26:10.000Z</time>
      </trkpt>
      <trkpt lat="47.12245" lon="-1.58043">
        <ele>55</ele>
        <time>2021-09-25T07:26:12.000Z</time>
      </trkpt>
      <trkpt lat="47.12243" lon="-1.58023">
        <ele>55</ele>
        <time>2021-09-25T07:26:14.000Z</time>
      </trkpt>
      <trkpt lat="47.12234" lon="-1.58007">
        <ele>55</ele>
        <time>2021-09-25T07:26:16.000Z</time>
      </trkpt>
      <trkpt lat="47.12225" lon="-1.57992">
        <ele>55</ele>
        <time>2021-09-25T07:26:18.000Z</time>
      </trkpt>
      <trkpt lat="47.12216" lon="-1.57977">
        <ele>55</ele>
        <time>2021-09-25T07:26:20.000Z</time>
      </trkpt>
      <trkpt lat="47.12207" lon="-1.57963">
        <ele>55</ele>
        <time>2021-09-25T07:26:22.000Z</time>
      </trkpt>
      <trkpt lat="47.12199" lon="-1.57949">
        <ele>56</ele>
        <time>2021-09-25T07:26:24.000Z</time>
      </trkpt>
      <trkpt lat="47.12192" lon="-1.57934">
        <ele>56</ele>
        <time>2021-09-25T07:26:26.000Z</time>
      </trkpt>
      <trkpt lat="47.12187" lon="-1.57917">
        <ele>56</ele>
        <time>2021-09-25T07:26:28.000Z</time>
      </trkpt>
      <trkpt lat="47.12183" lon="-1.579">
        <ele>56</ele>
        <time>2021-09-25T07:26:30.000Z</time>
      </trkpt>
      <trkpt lat="47.12181" lon="-1.57881">
        <ele>57</ele>
        <time>2021-09-25T07:26:32.000Z</time>
      </trkpt>
      <trkpt lat="47.12179" lon="-1.57863">
        <ele>58</ele>
        <time>2021-09-25T07:26:34.000Z</time>
      </trkpt>
      <trkpt lat="47.12179" lon="-1.57845">
        <ele>58</ele>
        <time>2021-09-25T07:26:36.000Z</time>
      </trkpt>
      <trkpt lat="47.12179" lon="-1.57827">
        <ele>58</ele>
        <time>2021-09-25T07:26:38.000Z</time>
      </trkpt>
      <trkpt lat="47.12179" lon="-1.57809">
        <ele>59</ele>
        <time>2021-09-25T07:26:40.000Z</time>
      </trkpt>
      <trkpt lat="47.1218" lon="-1.57791">
        <ele>59</ele>
        <time>2021-09-25T07:26:42.000Z</time>
      </trkpt>
      <trkpt lat="47.1218" lon="-1.57772">
        <ele>59</ele>
        <time>2021-09-25T07:26:44.000Z</time>
      </trkpt>
      <trkpt lat="47.12179" lon="-1.57754">
        <ele>60</ele>
        <time>2021-09-25T07:26:46.000Z</time>
      </trkpt>
      <trkpt lat="47.12179" lon="-1.57736">
        <ele>60</ele>
        <time>2021-09-25T07:26:48.000Z</time>
      </trkpt>
      <trkpt lat="47.12178" lon="-1.57718">
        <ele>60</ele>
        <time>2021-09-25T07:26:50.000Z</time>
      </trkpt>
      <trkpt lat="47.12178" lon="-1.57701">
        <ele>59</ele>
        <time>2021-09-25T07:26:52.000Z</time>
      </trkpt>
      <trkpt lat="47.12178" lon="-1.57683">
        <ele>59</ele>
        <time>2021-09-25T07:26:54.000Z</time>
      </trkpt>
      <trkpt lat="47.12177" lon="-1.57665">
        <ele>59</ele>
        <time>2021-09-25T07:26:56.000Z</time>
      </trkpt>
      <trkpt lat="47.12177" lon="-1.57646">
        <ele>60</ele>
        <time>2021-09-25T07:26:58.000Z</time>
      </trkpt>
      <trkpt lat="47.12178" lon="-1.57628">
        <ele>60</ele>
        <time>2021-09-25T07:27:00.000Z</time>
      </trkpt>
      <trkpt lat="47.12178" lon="-1.57609">
        <ele>59</ele>
        <time>2021-09-25T07:27:02.000Z</time>
      </trkpt>
      <trkpt lat="47.12176" lon="-1.57591">
        <ele>59</ele>
        <time>2021-09-25T07:27:04.000Z</time>
      </trkpt>
      <trkpt lat="47.12175" lon="-1.57572">
        <ele>59</ele>
        <time>2021-09-25T07:27:06.000Z</time>
      </trkpt>
      <trkpt lat="47.12175" lon="-1.57552">
        <ele>58</ele>
        <time>2021-09-25T07:27:08.000Z</time>
      </trkpt>
      <trkpt lat="47.12173" lon="-1.57533">
        <ele>58</ele>
        <time>2021-09-25T07:27:10.000Z</time>
      </trkpt>
      <trkpt lat="47.12172" lon="-1.57514">
        <ele>58</ele>
        <time>2021-09-25T07:27:12.000Z</time>
      </trkpt>
      <trkpt lat="47.12169" lon="-1.57495">
        <ele>58</ele>
        <time>2021-09-25T07:27:14.000Z</time>
      </trkpt>
      <trkpt lat="47.12166" lon="-1.57476">
        <ele>58</ele>
        <time>2021-09-25T07:27:16.000Z</time>
      </trkpt>
      <trkpt lat="47.12162" lon="-1.57458">
        <ele>58</ele>
        <time>2021-09-25T07:27:18.000Z</time>
      </trkpt>
      <trkpt lat="47.12159" lon="-1.57439">
        <ele>58</ele>
        <time>2021-09-25T07:27:20.000Z</time>
      </trkpt>
      <trkpt lat="47.12156" lon="-1.57421">
        <ele>58</ele>
        <time>2021-09-25T07:27:22.000Z</time>
      </trkpt>
      <trkpt lat="47.12152" lon="-1.57403">
        <ele>58</ele>
        <time>2021-09-25T07:27:24.000Z</time>
      </trkpt>
      <trkpt lat="47.12148" lon="-1.57384">
        <ele>58</ele>
        <time>2021-09-25T07:27:26.000Z</time>
      </trkpt>
      <trkpt lat="47.12145" lon="-1.57363">
        <ele>58</ele>
        <time>2021-09-25T07:27:28.000Z</time>
      </trkpt>
      <trkpt lat="47.12142" lon="-1.57342">
        <ele>58</ele>
        <time>2021-09-25T07:27:30.000Z</time>
      </trkpt>
      <trkpt lat="47.12139" lon="-1.57319">
        <ele>57</ele>
        <time>2021-09-25T07:27:32.000Z</time>
      </trkpt>
      <trkpt lat="47.12133" lon="-1.57298">
        <ele>57</ele>
        <time>2021-09-25T07:27:34.000Z</time>
      </trkpt>
      <trkpt lat="47.12128" lon="-1.57276">
        <ele>56</ele>
        <time>2021-09-25T07:27:36.000Z</time>
      </trkpt>
      <trkpt lat="47.12123" lon="-1.57253">
        <ele>56</ele>
        <time>2021-09-25T07:27:38.000Z</time>
      </trkpt>
      <trkpt lat="47.12119" lon="-1.57231">
        <ele>56</ele>
        <time>2021-09-25T07:27:40.000Z</time>
      </trkpt>
      <trkpt lat="47.12114" lon="-1.57209">
        <ele>55</ele>
        <time>2021-09-25T07:27:42.000Z</time>
      </trkpt>
      <trkpt lat="47.1211" lon="-1.57186">
        <ele>54</ele>
        <time>2021-09-25T07:27:44.000Z</time>
      </trkpt>
      <trkpt lat="47.12104" lon="-1.57153">
        <ele>54</ele>
        <time>2021-09-25T07:27:47.000Z</time>
      </trkpt>
      <trkpt lat="47.121" lon="-1.57131">
        <ele>54</ele>
        <time>2021-09-25T07:27:49.000Z</time>
      </trkpt>
      <trkpt lat="47.12096" lon="-1.5711">
        <ele>53</ele>
        <time>2021-09-25T07:27:51.000Z</time>
      </trkpt>
      <trkpt lat="47.12092" lon="-1.57087">
        <ele>53</ele>
        <time>2021-09-25T07:27:53.000Z</time>
      </trkpt>
      <trkpt lat="47.12088" lon="-1.57065">
        <ele>53</ele>
        <time>2021-09-25T07:27:55.000Z</time>
      </trkpt>
      <trkpt lat="47.12084" lon="-1.57044">
        <ele>54</ele>
        <time>2021-09-25T07:27:57.000Z</time>
      </trkpt>
      <trkpt lat="47.12079" lon="-1.57024">
        <ele>53</ele>
        <time>2021-09-25T07:27:59.000Z</time>
      </trkpt>
      <trkpt lat="47.12075" lon="-1.57004">
        <ele>53</ele>
        <time>2021-09-25T07:28:01.000Z</time>
      </trkpt>
      <trkpt lat="47.12072" lon="-1.56984">
        <ele>53</ele>
        <time>2021-09-25T07:28:03.000Z</time>
      </trkpt>
      <trkpt lat="47.12066" lon="-1.56955">
        <ele>53</ele>
        <time>2021-09-25T07:28:06.000Z</time>
      </trkpt>
      <trkpt lat="47.12062" lon="-1.56937">
        <ele>54</ele>
        <time>2021-09-25T07:28:08.000Z</time>
      </trkpt>
      <trkpt lat="47.12059" lon="-1.5692">
        <ele>55</ele>
        <time>2021-09-25T07:28:10.000Z</time>
      </trkpt>
      <trkpt lat="47.12056" lon="-1.56903">
        <ele>55</ele>
        <time>2021-09-25T07:28:12.000Z</time>
      </trkpt>
      <trkpt lat="47.12053" lon="-1.56887">
        <ele>56</ele>
        <time>2021-09-25T07:28:14.000Z</time>
      </trkpt>
      <trkpt lat="47.12048" lon="-1.56862">
        <ele>56</ele>
        <time>2021-09-25T07:28:17.000Z</time>
      </trkpt>
      <trkpt lat="47.12046" lon="-1.56846">
        <ele>56</ele>
        <time>2021-09-25T07:28:19.000Z</time>
      </trkpt>
      <trkpt lat="47.12043" lon="-1.56831">
        <ele>56</ele>
        <time>2021-09-25T07:28:21.000Z</time>
      </trkpt>
      <trkpt lat="47.1204" lon="-1.56815">
        <ele>57</ele>
        <time>2021-09-25T07:28:23.000Z</time>
      </trkpt>
      <trkpt lat="47.12035" lon="-1.56792">
        <ele>57</ele>
        <time>2021-09-25T07:28:26.000Z</time>
      </trkpt>
      <trkpt lat="47.12032" lon="-1.56777">
        <ele>58</ele>
        <time>2021-09-25T07:28:28.000Z</time>
      </trkpt>
      <trkpt lat="47.12029" lon="-1.56762">
        <ele>58</ele>
        <time>2021-09-25T07:28:30.000Z</time>
      </trkpt>
      <trkpt lat="47.12026" lon="-1.56746">
        <ele>59</ele>
        <time>2021-09-25T07:28:32.000Z</time>
      </trkpt>
      <trkpt lat="47.12023" lon="-1.56731">
        <ele>59</ele>
        <time>2021-09-25T07:28:34.000Z</time>
      </trkpt>
      <trkpt lat="47.12021" lon="-1.56716">
        <ele>60</ele>
        <time>2021-09-25T07:28:36.000Z</time>
      </trkpt>
      <trkpt lat="47.12018" lon="-1.56701">
        <ele>61</ele>
        <time>2021-09-25T07:28:38.000Z</time>
      </trkpt>
      <trkpt lat="47.12015" lon="-1.56686">
        <ele>61</ele>
        <time>2021-09-25T07:28:40.000Z</time>
      </trkpt>
      <trkpt lat="47.12012" lon="-1.56671">
        <ele>61</ele>
        <time>2021-09-25T07:28:42.000Z</time>
      </trkpt>
      <trkpt lat="47.12009" lon="-1.56656">
        <ele>62</ele>
        <time>2021-09-25T07:28:44.000Z</time>
      </trkpt>
      <trkpt lat="47.12006" lon="-1.56641">
        <ele>62</ele>
        <time>2021-09-25T07:28:46.000Z</time>
      </trkpt>
      <trkpt lat="47.12003" lon="-1.56625">
        <ele>62</ele>
        <time>2021-09-25T07:28:48.000Z</time>
      </trkpt>
      <trkpt lat="47.12" lon="-1.5661">
        <ele>62</ele>
        <time>2021-09-25T07:28:50.000Z</time>
      </trkpt>
      <trkpt lat="47.11997" lon="-1.56594">
        <ele>62</ele>
        <time>2021-09-25T07:28:52.000Z</time>
      </trkpt>
      <trkpt lat="47.11994" lon="-1.56578">
        <ele>63</ele>
        <time>2021-09-25T07:28:54.000Z</time>
      </trkpt>
      <trkpt lat="47.1199" lon="-1.56561">
        <ele>62</ele>
        <time>2021-09-25T07:28:56.000Z</time>
      </trkpt>
      <trkpt lat="47.11986" lon="-1.56545">
        <ele>62</ele>
        <time>2021-09-25T07:28:58.000Z</time>
      </trkpt>
      <trkpt lat="47.11983" lon="-1.56528">
        <ele>62</ele>
        <time>2021-09-25T07:29:00.000Z</time>
      </trkpt>
      <trkpt lat="47.11979" lon="-1.56511">
        <ele>62</ele>
        <time>2021-09-25T07:29:02.000Z</time>
      </trkpt>
      <trkpt lat="47.11975" lon="-1.56494">
        <ele>62</ele>
        <time>2021-09-25T07:29:04.000Z</time>
      </trkpt>
      <trkpt lat="47.11971" lon="-1.56477">
        <ele>62</ele>
        <time>2021-09-25T07:29:06.000Z</time>
      </trkpt>
      <trkpt lat="47.11966" lon="-1.5646">
        <ele>62</ele>
        <time>2021-09-25T07:29:08.000Z</time>
      </trkpt>
      <trkpt lat="47.11962" lon="-1.56443">
        <ele>62</ele>
        <time>2021-09-25T07:29:10.000Z</time>
      </trkpt>
      <trkpt lat="47.11957" lon="-1.56424">
        <ele>61</ele>
        <time>2021-09-25T07:29:12.000Z</time>
      </trkpt>
      <trkpt lat="47.11952" lon="-1.56406">
        <ele>61</ele>
        <time>2021-09-25T07:29:14.000Z</time>
      </trkpt>
      <trkpt lat="47.11948" lon="-1.56389">
        <ele>62</ele>
        <time>2021-09-25T07:29:16.000Z</time>
      </trkpt>
      <trkpt lat="47.11943" lon="-1.56371">
        <ele>62</ele>
        <time>2021-09-25T07:29:18.000Z</time>
      </trkpt>
      <trkpt lat="47.11939" lon="-1.56353">
        <ele>61</ele>
        <time>2021-09-25T07:29:20.000Z</time>
      </trkpt>
      <trkpt lat="47.11934" lon="-1.56335">
        <ele>61</ele>
        <time>2021-09-25T07:29:22.000Z</time>
      </trkpt>
      <trkpt lat="47.11929" lon="-1.56317">
        <ele>61</ele>
        <time>2021-09-25T07:29:24.000Z</time>
      </trkpt>
      <trkpt lat="47.11925" lon="-1.56299">
        <ele>61</ele>
        <time>2021-09-25T07:29:26.000Z</time>
      </trkpt>
      <trkpt lat="47.1192" lon="-1.5628">
        <ele>61</ele>
        <time>2021-09-25T07:29:28.000Z</time>
      </trkpt>
      <trkpt lat="47.11915" lon="-1.56262">
        <ele>61</ele>
        <time>2021-09-25T07:29:30.000Z</time>
      </trkpt>
      <trkpt lat="47.11911" lon="-1.56244">
        <ele>62</ele>
        <time>2021-09-25T07:29:32.000Z</time>
      </trkpt>
      <trkpt lat="47.11906" lon="-1.56226">
        <ele>62</ele>
        <time>2021-09-25T07:29:34.000Z</time>
      </trkpt>
      <trkpt lat="47.11901" lon="-1.56208">
        <ele>61</ele>
        <time>2021-09-25T07:29:36.000Z</time>
      </trkpt>
      <trkpt lat="47.11896" lon="-1.5619">
        <ele>61</ele>
        <time>2021-09-25T07:29:38.000Z</time>
      </trkpt>
      <trkpt lat="47.11891" lon="-1.56172">
        <ele>61</ele>
        <time>2021-09-25T07:29:40.000Z</time>
      </trkpt>
      <trkpt lat="47.11887" lon="-1.56154">
        <ele>61</ele>
        <time>2021-09-25T07:29:42.000Z</time>
      </trkpt>
      <trkpt lat="47.11883" lon="-1.56136">
        <ele>62</ele>
        <time>2021-09-25T07:29:44.000Z</time>
      </trkpt>
      <trkpt lat="47.11878" lon="-1.56119">
        <ele>62</ele>
        <time>2021-09-25T07:29:46.000Z</time>
      </trkpt>
      <trkpt lat="47.11874" lon="-1.56101">
        <ele>62</ele>
        <time>2021-09-25T07:29:48.000Z</time>
      </trkpt>
      <trkpt lat="47.11871" lon="-1.56084">
        <ele>62</ele>
        <time>2021-09-25T07:29:50.000Z</time>
      </trkpt>
      <trkpt lat="47.11868" lon="-1.56066">
        <ele>62</ele>
        <time>2021-09-25T07:29:52.000Z</time>
      </trkpt>
      <trkpt lat="47.11865" lon="-1.56048">
        <ele>63</ele>
        <time>2021-09-25T07:29:54.000Z</time>
      </trkpt>
      <trkpt lat="47.11863" lon="-1.5603">
        <ele>63</ele>
        <time>2021-09-25T07:29:56.000Z</time>
      </trkpt>
      <trkpt lat="47.11861" lon="-1.56012">
        <ele>63</ele>
        <time>2021-09-25T07:29:58.000Z</time>
      </trkpt>
      <trkpt lat="47.11859" lon="-1.55994">
        <ele>63</ele>
        <time>2021-09-25T07:30:00.000Z</time>
      </trkpt>
      <trkpt lat="47.11858" lon="-1.55976">
        <ele>63</ele>
        <time>2021-09-25T07:30:02.000Z</time>
      </trkpt>
      <trkpt lat="47.11857" lon="-1.55958">
        <ele>63</ele>
        <time>2021-09-25T07:30:04.000Z</time>
      </trkpt>
      <trkpt lat="47.11855" lon="-1.5594">
        <ele>63</ele>
        <time>2021-09-25T07:30:06.000Z</time>
      </trkpt>
      <trkpt lat="47.11854" lon="-1.55923">
        <ele>63</ele>
        <time>2021-09-25T07:30:08.000Z</time>
      </trkpt>
      <trkpt lat="47.11852" lon="-1.55904">
        <ele>64</ele>
        <time>2021-09-25T07:30:10.000Z</time>
      </trkpt>
      <trkpt lat="47.11851" lon="-1.55886">
        <ele>64</ele>
        <time>2021-09-25T07:30:12.000Z</time>
      </trkpt>
      <trkpt lat="47.1185" lon="-1.55867">
        <ele>64</ele>
        <time>2021-09-25T07:30:14.000Z</time>
      </trkpt>
      <trkpt lat="47.11848" lon="-1.55848">
        <ele>64</ele>
        <time>2021-09-25T07:30:16.000Z</time>
      </trkpt>
      <trkpt lat="47.11846" lon="-1.55831">
        <ele>64</ele>
        <time>2021-09-25T07:30:18.000Z</time>
      </trkpt>
      <trkpt lat="47.11845" lon="-1.55813">
        <ele>64</ele>
        <time>2021-09-25T07:30:20.000Z</time>
      </trkpt>
      <trkpt lat="47.11844" lon="-1.55794">
        <ele>64</ele>
        <time>2021-09-25T07:30:22.000Z</time>
      </trkpt>
      <trkpt lat="47.11842" lon="-1.55776">
        <ele>64</ele>
        <time>2021-09-25T07:30:24.000Z</time>
      </trkpt>
      <trkpt lat="47.11841" lon="-1.55757">
        <ele>64</ele>
        <time>2021-09-25T07:30:26.000Z</time>
      </trkpt>
      <trkpt lat="47.1184" lon="-1.55739">
        <ele>65</ele>
        <time>2021-09-25T07:30:28.000Z</time>
      </trkpt>
      <trkpt lat="47.11838" lon="-1.5572">
        <ele>64</ele>
        <time>2021-09-25T07:30:30.000Z</time>
      </trkpt>
      <trkpt lat="47.11837" lon="-1.55702">
        <ele>65</ele>
        <time>2021-09-25T07:30:32.000Z</time>
      </trkpt>
      <trkpt lat="47.11836" lon="-1.55684">
        <ele>65</ele>
        <time>2021-09-25T07:30:34.000Z</time>
      </trkpt>
      <trkpt lat="47.11834" lon="-1.55665">
        <ele>65</ele>
        <time>2021-09-25T07:30:36.000Z</time>
      </trkpt>
      <trkpt lat="47.11833" lon="-1.55646">
        <ele>65</ele>
        <time>2021-09-25T07:30:38.000Z</time>
      </trkpt>
      <trkpt lat="47.11831" lon="-1.55627">
        <ele>64</ele>
        <time>2021-09-25T07:30:40.000Z</time>
      </trkpt>
      <trkpt lat="47.1183" lon="-1.55609">
        <ele>65</ele>
        <time>2021-09-25T07:30:42.000Z</time>
      </trkpt>
      <trkpt lat="47.11829" lon="-1.55591">
        <ele>65</ele>
        <time>2021-09-25T07:30:44.000Z</time>
      </trkpt>
      <trkpt lat="47.11828" lon="-1.55573">
        <ele>65</ele>
        <time>2021-09-25T07:30:46.000Z</time>
      </trkpt>
      <trkpt lat="47.11826" lon="-1.55555">
        <ele>65</ele>
        <time>2021-09-25T07:30:48.000Z</time>
      </trkpt>
      <trkpt lat="47.11825" lon="-1.55536">
        <ele>65</ele>
        <time>2021-09-25T07:30:50.000Z</time>
      </trkpt>
      <trkpt lat="47.11823" lon="-1.55518">
        <ele>65</ele>
        <time>2021-09-25T07:30:52.000Z</time>
      </trkpt>
      <trkpt lat="47.11822" lon="-1.555">
        <ele>66</ele>
        <time>2021-09-25T07:30:54.000Z</time>
      </trkpt>
      <trkpt lat="47.11821" lon="-1.55481">
        <ele>66</ele>
        <time>2021-09-25T07:30:56.000Z</time>
      </trkpt>
      <trkpt lat="47.1182" lon="-1.55462">
        <ele>66</ele>
        <time>2021-09-25T07:30:58.000Z</time>
      </trkpt>
      <trkpt lat="47.11818" lon="-1.55443">
        <ele>66</ele>
        <time>2021-09-25T07:31:00.000Z</time>
      </trkpt>
      <trkpt lat="47.11818" lon="-1.55424">
        <ele>66</ele>
        <time>2021-09-25T07:31:02.000Z</time>
      </trkpt>
      <trkpt lat="47.11818" lon="-1.55405">
        <ele>66</ele>
        <time>2021-09-25T07:31:04.000Z</time>
      </trkpt>
      <trkpt lat="47.11818" lon="-1.55387">
        <ele>66</ele>
        <time>2021-09-25T07:31:06.000Z</time>
      </trkpt>
      <trkpt lat="47.11817" lon="-1.55368">
        <ele>66</ele>
        <time>2021-09-25T07:31:08.000Z</time>
      </trkpt>
      <trkpt lat="47.11817" lon="-1.55349">
        <ele>65</ele>
        <time>2021-09-25T07:31:10.000Z</time>
      </trkpt>
      <trkpt lat="47.11816" lon="-1.55331">
        <ele>66</ele>
        <time>2021-09-25T07:31:12.000Z</time>
      </trkpt>
      <trkpt lat="47.11816" lon="-1.55313">
        <ele>66</ele>
        <time>2021-09-25T07:31:14.000Z</time>
      </trkpt>
      <trkpt lat="47.11816" lon="-1.55294">
        <ele>66</ele>
        <time>2021-09-25T07:31:16.000Z</time>
      </trkpt>
      <trkpt lat="47.11816" lon="-1.55275">
        <ele>66</ele>
        <time>2021-09-25T07:31:18.000Z</time>
      </trkpt>
      <trkpt lat="47.11816" lon="-1.55256">
        <ele>67</ele>
        <time>2021-09-25T07:31:20.000Z</time>
      </trkpt>
      <trkpt lat="47.11815" lon="-1.55236">
        <ele>67</ele>
        <time>2021-09-25T07:31:22.000Z</time>
      </trkpt>
      <trkpt lat="47.11813" lon="-1.55217">
        <ele>66</ele>
        <time>2021-09-25T07:31:24.000Z</time>
      </trkpt>
      <trkpt lat="47.11813" lon="-1.55197">
        <ele>66</ele>
        <time>2021-09-25T07:31:26.000Z</time>
      </trkpt>
      <trkpt lat="47.11812" lon="-1.55178">
        <ele>66</ele>
        <time>2021-09-25T07:31:28.000Z</time>
      </trkpt>
      <trkpt lat="47.11811" lon="-1.55159">
        <ele>66</ele>
        <time>2021-09-25T07:31:30.000Z</time>
      </trkpt>
      <trkpt lat="47.1181" lon="-1.5514">
        <ele>66</ele>
        <time>2021-09-25T07:31:32.000Z</time>
      </trkpt>
      <trkpt lat="47.11809" lon="-1.55121">
        <ele>66</ele>
        <time>2021-09-25T07:31:34.000Z</time>
      </trkpt>
      <trkpt lat="47.11807" lon="-1.55102">
        <ele>66</ele>
        <time>2021-09-25T07:31:36.000Z</time>
      </trkpt>
      <trkpt lat="47.11805" lon="-1.55084">
        <ele>67</ele>
        <time>2021-09-25T07:31:38.000Z</time>
      </trkpt>
      <trkpt lat="47.11802" lon="-1.55066">
        <ele>66</ele>
        <time>2021-09-25T07:31:40.000Z</time>
      </trkpt>
      <trkpt lat="47.118" lon="-1.55048">
        <ele>66</ele>
        <time>2021-09-25T07:31:42.000Z</time>
      </trkpt>
      <trkpt lat="47.11796" lon="-1.5503">
        <ele>67</ele>
        <time>2021-09-25T07:31:44.000Z</time>
      </trkpt>
      <trkpt lat="47.11793" lon="-1.55012">
        <ele>67</ele>
        <time>2021-09-25T07:31:46.000Z</time>
      </trkpt>
      <trkpt lat="47.11789" lon="-1.54994">
        <ele>67</ele>
        <time>2021-09-25T07:31:48.000Z</time>
      </trkpt>
      <trkpt lat="47.11785" lon="-1.54976">
        <ele>66</ele>
        <time>2021-09-25T07:31:50.000Z</time>
      </trkpt>
      <trkpt lat="47.11781" lon="-1.54958">
        <ele>66</ele>
        <time>2021-09-25T07:31:52.000Z</time>
      </trkpt>
      <trkpt lat="47.11777" lon="-1.54941">
        <ele>66</ele>
        <time>2021-09-25T07:31:54.000Z</time>
      </trkpt>
      <trkpt lat="47.11772" lon="-1.54923">
        <ele>66</ele>
        <time>2021-09-25T07:31:56.000Z</time>
      </trkpt>
      <trkpt lat="47.11767" lon="-1.54905">
        <ele>66</ele>
        <time>2021-09-25T07:31:58.000Z</time>
      </trkpt>
      <trkpt lat="47.11762" lon="-1.54887">
        <ele>66</ele>
        <time>2021-09-25T07:32:00.000Z</time>
      </trkpt>
      <trkpt lat="47.11757" lon="-1.54869">
        <ele>66</ele>
        <time>2021-09-25T07:32:02.000Z</time>
      </trkpt>
      <trkpt lat="47.11751" lon="-1.54852">
        <ele>66</ele>
        <time>2021-09-25T07:32:04.000Z</time>
      </trkpt>
      <trkpt lat="47.11746" lon="-1.54835">
        <ele>67</ele>
        <time>2021-09-25T07:32:06.000Z</time>
      </trkpt>
      <trkpt lat="47.11741" lon="-1.54818">
        <ele>67</ele>
        <time>2021-09-25T07:32:08.000Z</time>
      </trkpt>
      <trkpt lat="47.11736" lon="-1.54801">
        <ele>67</ele>
        <time>2021-09-25T07:32:10.000Z</time>
      </trkpt>
      <trkpt lat="47.11731" lon="-1.54784">
        <ele>66</ele>
        <time>2021-09-25T07:32:12.000Z</time>
      </trkpt>
      <trkpt lat="47.11726" lon="-1.54766">
        <ele>67</ele>
        <time>2021-09-25T07:32:14.000Z</time>
      </trkpt>
      <trkpt lat="47.1172" lon="-1.5475">
        <ele>67</ele>
        <time>2021-09-25T07:32:16.000Z</time>
      </trkpt>
      <trkpt lat="47.11715" lon="-1.54734">
        <ele>67</ele>
        <time>2021-09-25T07:32:18.000Z</time>
      </trkpt>
      <trkpt lat="47.1171" lon="-1.54718">
        <ele>68</ele>
        <time>2021-09-25T07:32:20.000Z</time>
      </trkpt>
      <trkpt lat="47.11705" lon="-1.54702">
        <ele>68</ele>
        <time>2021-09-25T07:32:22.000Z</time>
      </trkpt>
      <trkpt lat="47.117" lon="-1.54686">
        <ele>68</ele>
        <time>2021-09-25T07:32:24.000Z</time>
      </trkpt>
      <trkpt lat="47.11696" lon="-1.5467">
        <ele>68</ele>
        <time>2021-09-25T07:32:26.000Z</time>
      </trkpt>
      <trkpt lat="47.11691" lon="-1.54655">
        <ele>68</ele>
        <time>2021-09-25T07:32:28.000Z</time>
      </trkpt>
      <trkpt lat="47.11686" lon="-1.54639">
        <ele>68</ele>
        <time>2021-09-25T07:32:30.000Z</time>
      </trkpt>
      <trkpt lat="47.11681" lon="-1.54623">
        <ele>68</ele>
        <time>2021-09-25T07:32:32.000Z</time>
      </trkpt>
      <trkpt lat="47.11676" lon="-1.54608">
        <ele>68</ele>
        <time>2021-09-25T07:32:34.000Z</time>
      </trkpt>
      <trkpt lat="47.11671" lon="-1.54592">
        <ele>69</ele>
        <time>2021-09-25T07:32:36.000Z</time>
      </trkpt>
      <trkpt lat="47.11666" lon="-1.54576">
        <ele>69</ele>
        <time>2021-09-25T07:32:38.000Z</time>
      </trkpt>
      <trkpt lat="47.1166" lon="-1.5456">
        <ele>69</ele>
        <time>2021-09-25T07:32:40.000Z</time>
      </trkpt>
      <trkpt lat="47.11655" lon="-1.54544">
        <ele>70</ele>
        <time>2021-09-25T07:32:42.000Z</time>
      </trkpt>
      <trkpt lat="47.1165" lon="-1.54528">
        <ele>70</ele>
        <time>2021-09-25T07:32:44.000Z</time>
      </trkpt>
      <trkpt lat="47.11644" lon="-1.54511">
        <ele>70</ele>
        <time>2021-09-25T07:32:46.000Z</time>
      </trkpt>
      <trkpt lat="47.11639" lon="-1.54495">
        <ele>70</ele>
        <time>2021-09-25T07:32:48.000Z</time>
      </trkpt>
      <trkpt lat="47.11633" lon="-1.54478">
        <ele>69</ele>
        <time>2021-09-25T07:32:50.000Z</time>
      </trkpt>
      <trkpt lat="47.11627" lon="-1.54462">
        <ele>69</ele>
        <time>2021-09-25T07:32:52.000Z</time>
      </trkpt>
      <trkpt lat="47.11622" lon="-1.54445">
        <ele>69</ele>
        <time>2021-09-25T07:32:54.000Z</time>
      </trkpt>
      <trkpt lat="47.11616" lon="-1.54428">
        <ele>69</ele>
        <time>2021-09-25T07:32:56.000Z</time>
      </trkpt>
      <trkpt lat="47.11611" lon="-1.54412">
        <ele>69</ele>
        <time>2021-09-25T07:32:58.000Z</time>
      </trkpt>
      <trkpt lat="47.11606" lon="-1.54395">
        <ele>70</ele>
        <time>2021-09-25T07:33:00.000Z</time>
      </trkpt>
      <trkpt lat="47.116" lon="-1.54379">
        <ele>70</ele>
        <time>2021-09-25T07:33:02.000Z</time>
      </trkpt>
      <trkpt lat="47.11594" lon="-1.54362">
        <ele>70</ele>
        <time>2021-09-25T07:33:04.000Z</time>
      </trkpt>
      <trkpt lat="47.11589" lon="-1.54346">
        <ele>70</ele>
        <time>2021-09-25T07:33:06.000Z</time>
      </trkpt>
      <trkpt lat="47.11584" lon="-1.54329">
        <ele>70</ele>
        <time>2021-09-25T07:33:08.000Z</time>
      </trkpt>
      <trkpt lat="47.11579" lon="-1.54314">
        <ele>70</ele>
        <time>2021-09-25T07:33:10.000Z</time>
      </trkpt>
      <trkpt lat="47.11573" lon="-1.54299">
        <ele>70</ele>
        <time>2021-09-25T07:33:12.000Z</time>
      </trkpt>
      <trkpt lat="47.11568" lon="-1.54286">
        <ele>70</ele>
        <time>2021-09-25T07:33:14.000Z</time>
      </trkpt>
      <trkpt lat="47.11564" lon="-1.54273">
        <ele>70</ele>
        <time>2021-09-25T07:33:16.000Z</time>
      </trkpt>
      <trkpt lat="47.11567" lon="-1.54258">
        <ele>71</ele>
        <time>2021-09-25T07:33:18.000Z</time>
      </trkpt>
      <trkpt lat="47.11577" lon="-1.54247">
        <ele>71</ele>
        <time>2021-09-25T07:33:20.000Z</time>
      </trkpt>
      <trkpt lat="47.11588" lon="-1.54239">
        <ele>71</ele>
        <time>2021-09-25T07:33:22.000Z</time>
      </trkpt>
      <trkpt lat="47.116" lon="-1.54231">
        <ele>71</ele>
        <time>2021-09-25T07:33:24.000Z</time>
      </trkpt>
      <trkpt lat="47.11612" lon="-1.54224">
        <ele>71</ele>
        <time>2021-09-25T07:33:26.000Z</time>
      </trkpt>
      <trkpt lat="47.11624" lon="-1.54215">
        <ele>71</ele>
        <time>2021-09-25T07:33:28.000Z</time>
      </trkpt>
      <trkpt lat="47.11634" lon="-1.54204">
        <ele>71</ele>
        <time>2021-09-25T07:33:30.000Z</time>
      </trkpt>
      <trkpt lat="47.1164" lon="-1.54189">
        <ele>71</ele>
        <time>2021-09-25T07:33:33.000Z</time>
      </trkpt>
      <trkpt lat="47.11643" lon="-1.54176">
        <ele>72</ele>
        <time>2021-09-25T07:33:39.000Z</time>
      </trkpt>
      <trkpt lat="47.11648" lon="-1.54156">
        <ele>72</ele>
        <time>2021-09-25T07:33:42.000Z</time>
      </trkpt>
      <trkpt lat="47.11659" lon="-1.54148">
        <ele>72</ele>
        <time>2021-09-25T07:33:44.000Z</time>
      </trkpt>
      <trkpt lat="47.11671" lon="-1.54144">
        <ele>72</ele>
        <time>2021-09-25T07:33:46.000Z</time>
      </trkpt>
      <trkpt lat="47.11683" lon="-1.54135">
        <ele>72</ele>
        <time>2021-09-25T07:33:48.000Z</time>
      </trkpt>
      <trkpt lat="47.11693" lon="-1.54123">
        <ele>72</ele>
        <time>2021-09-25T07:33:50.000Z</time>
      </trkpt>
      <trkpt lat="47.11701" lon="-1.54109">
        <ele>72</ele>
        <time>2021-09-25T07:33:52.000Z</time>
      </trkpt>
      <trkpt lat="47.11708" lon="-1.54093">
        <ele>72</ele>
        <time>2021-09-25T07:33:54.000Z</time>
      </trkpt>
      <trkpt lat="47.11714" lon="-1.54077">
        <ele>72</ele>
        <time>2021-09-25T07:33:56.000Z</time>
      </trkpt>
      <trkpt lat="47.1172" lon="-1.54062">
        <ele>72</ele>
        <time>2021-09-25T07:33:58.000Z</time>
      </trkpt>
      <trkpt lat="47.11726" lon="-1.54046">
        <ele>72</ele>
        <time>2021-09-25T07:34:00.000Z</time>
      </trkpt>
      <trkpt lat="47.11733" lon="-1.5403">
        <ele>73</ele>
        <time>2021-09-25T07:34:02.000Z</time>
      </trkpt>
      <trkpt lat="47.11739" lon="-1.54014">
        <ele>73</ele>
        <time>2021-09-25T07:34:04.000Z</time>
      </trkpt>
      <trkpt lat="47.11746" lon="-1.53998">
        <ele>73</ele>
        <time>2021-09-25T07:34:06.000Z</time>
      </trkpt>
      <trkpt lat="47.11752" lon="-1.53981">
        <ele>72</ele>
        <time>2021-09-25T07:34:08.000Z</time>
      </trkpt>
      <trkpt lat="47.11759" lon="-1.53965">
        <ele>72</ele>
        <time>2021-09-25T07:34:10.000Z</time>
      </trkpt>
      <trkpt lat="47.11765" lon="-1.53947">
        <ele>72</ele>
        <time>2021-09-25T07:34:12.000Z</time>
      </trkpt>
      <trkpt lat="47.11773" lon="-1.5393">
        <ele>71</ele>
        <time>2021-09-25T07:34:14.000Z</time>
      </trkpt>
      <trkpt lat="47.11781" lon="-1.53911">
        <ele>71</ele>
        <time>2021-09-25T07:34:16.000Z</time>
      </trkpt>
      <trkpt lat="47.11789" lon="-1.53894">
        <ele>70</ele>
        <time>2021-09-25T07:34:18.000Z</time>
      </trkpt>
      <trkpt lat="47.11798" lon="-1.53877">
        <ele>70</ele>
        <time>2021-09-25T07:34:20.000Z</time>
      </trkpt>
      <trkpt lat="47.11808" lon="-1.53861">
        <ele>69</ele>
        <time>2021-09-25T07:34:22.000Z</time>
      </trkpt>
      <trkpt lat="47.11817" lon="-1.53846">
        <ele>69</ele>
        <time>2021-09-25T07:34:24.000Z</time>
      </trkpt>
      <trkpt lat="47.11827" lon="-1.53828">
        <ele>68</ele>
        <time>2021-09-25T07:34:26.000Z</time>
      </trkpt>
      <trkpt lat="47.11836" lon="-1.53811">
        <ele>68</ele>
        <time>2021-09-25T07:34:28.000Z</time>
      </trkpt>
      <trkpt lat="47.11845" lon="-1.53792">
        <ele>68</ele>
        <time>2021-09-25T07:34:30.000Z</time>
      </trkpt>
      <trkpt lat="47.11853" lon="-1.53774">
        <ele>68</ele>
        <time>2021-09-25T07:34:32.000Z</time>
      </trkpt>
      <trkpt lat="47.1186" lon="-1.53755">
        <ele>68</ele>
        <time>2021-09-25T07:34:34.000Z</time>
      </trkpt>
      <trkpt lat="47.11867" lon="-1.53735">
        <ele>67</ele>
        <time>2021-09-25T07:34:36.000Z</time>
      </trkpt>
      <trkpt lat="47.11874" lon="-1.53716">
        <ele>67</ele>
        <time>2021-09-25T07:34:38.000Z</time>
      </trkpt>
      <trkpt lat="47.11882" lon="-1.53698">
        <ele>66</ele>
        <time>2021-09-25T07:34:40.000Z</time>
      </trkpt>
      <trkpt lat="47.1189" lon="-1.53681">
        <ele>65</ele>
        <time>2021-09-25T07:34:42.000Z</time>
      </trkpt>
      <trkpt lat="47.119" lon="-1.53664">
        <ele>65</ele>
        <time>2021-09-25T07:34:44.000Z</time>
      </trkpt>
      <trkpt lat="47.11909" lon="-1.53648">
        <ele>64</ele>
        <time>2021-09-25T07:34:46.000Z</time>
      </trkpt>
      <trkpt lat="47.11918" lon="-1.53632">
        <ele>64</ele>
        <time>2021-09-25T07:34:48.000Z</time>
      </trkpt>
      <trkpt lat="47.11926" lon="-1.53616">
        <ele>63</ele>
        <time>2021-09-25T07:34:50.000Z</time>
      </trkpt>
      <trkpt lat="47.11936" lon="-1.53598">
        <ele>62</ele>
        <time>2021-09-25T07:34:52.000Z</time>
      </trkpt>
      <trkpt lat="47.11944" lon="-1.53581">
        <ele>62</ele>
        <time>2021-09-25T07:34:54.000Z</time>
      </trkpt>
      <trkpt lat="47.11953" lon="-1.53564">
        <ele>62</ele>
        <time>2021-09-25T07:34:56.000Z</time>
      </trkpt>
      <trkpt lat="47.11963" lon="-1.53547">
        <ele>61</ele>
        <time>2021-09-25T07:34:58.000Z</time>
      </trkpt>
      <trkpt lat="47.11972" lon="-1.5353">
        <ele>61</ele>
        <time>2021-09-25T07:35:00.000Z</time>
      </trkpt>
      <trkpt lat="47.11981" lon="-1.53513">
        <ele>61</ele>
        <time>2021-09-25T07:35:02.000Z</time>
      </trkpt>
      <trkpt lat="47.1199" lon="-1.53495">
        <ele>61</ele>
        <time>2021-09-25T07:35:04.000Z</time>
      </trkpt>
      <trkpt lat="47.12" lon="-1.53478">
        <ele>60</ele>
        <time>2021-09-25T07:35:06.000Z</time>
      </trkpt>
      <trkpt lat="47.12009" lon="-1.53461">
        <ele>60</ele>
        <time>2021-09-25T07:35:08.000Z</time>
      </trkpt>
      <trkpt lat="47.12018" lon="-1.53444">
        <ele>60</ele>
        <time>2021-09-25T07:35:10.000Z</time>
      </trkpt>
      <trkpt lat="47.12027" lon="-1.53428">
        <ele>60</ele>
        <time>2021-09-25T07:35:12.000Z</time>
      </trkpt>
      <trkpt lat="47.12036" lon="-1.53412">
        <ele>60</ele>
        <time>2021-09-25T07:35:14.000Z</time>
      </trkpt>
      <trkpt lat="47.12045" lon="-1.53395">
        <ele>60</ele>
        <time>2021-09-25T07:35:16.000Z</time>
      </trkpt>
      <trkpt lat="47.12054" lon="-1.53377">
        <ele>60</ele>
        <time>2021-09-25T07:35:18.000Z</time>
      </trkpt>
      <trkpt lat="47.12063" lon="-1.5336">
        <ele>59</ele>
        <time>2021-09-25T07:35:20.000Z</time>
      </trkpt>
      <trkpt lat="47.12072" lon="-1.53343">
        <ele>59</ele>
        <time>2021-09-25T07:35:22.000Z</time>
      </trkpt>
      <trkpt lat="47.12081" lon="-1.53325">
        <ele>59</ele>
        <time>2021-09-25T07:35:24.000Z</time>
      </trkpt>
      <trkpt lat="47.1209" lon="-1.53308">
        <ele>58</ele>
        <time>2021-09-25T07:35:26.000Z</time>
      </trkpt>
      <trkpt lat="47.12099" lon="-1.5329">
        <ele>58</ele>
        <time>2021-09-25T07:35:28.000Z</time>
      </trkpt>
      <trkpt lat="47.12109" lon="-1.53273">
        <ele>58</ele>
        <time>2021-09-25T07:35:30.000Z</time>
      </trkpt>
      <trkpt lat="47.12118" lon="-1.53255">
        <ele>57</ele>
        <time>2021-09-25T07:35:32.000Z</time>
      </trkpt>
      <trkpt lat="47.12127" lon="-1.53238">
        <ele>57</ele>
        <time>2021-09-25T07:35:34.000Z</time>
      </trkpt>
      <trkpt lat="47.12136" lon="-1.5322">
        <ele>57</ele>
        <time>2021-09-25T07:35:36.000Z</time>
      </trkpt>
      <trkpt lat="47.12144" lon="-1.53204">
        <ele>58</ele>
        <time>2021-09-25T07:35:38.000Z</time>
      </trkpt>
      <trkpt lat="47.12153" lon="-1.53188">
        <ele>58</ele>
        <time>2021-09-25T07:35:40.000Z</time>
      </trkpt>
      <trkpt lat="47.12162" lon="-1.53172">
        <ele>58</ele>
        <time>2021-09-25T07:35:42.000Z</time>
      </trkpt>
      <trkpt lat="47.1217" lon="-1.53155">
        <ele>58</ele>
        <time>2021-09-25T07:35:44.000Z</time>
      </trkpt>
      <trkpt lat="47.12178" lon="-1.53139">
        <ele>58</ele>
        <time>2021-09-25T07:35:46.000Z</time>
      </trkpt>
      <trkpt lat="47.12187" lon="-1.53124">
        <ele>57</ele>
        <time>2021-09-25T07:35:48.000Z</time>
      </trkpt>
      <trkpt lat="47.12195" lon="-1.53108">
        <ele>57</ele>
        <time>2021-09-25T07:35:50.000Z</time>
      </trkpt>
      <trkpt lat="47.12203" lon="-1.53093">
        <ele>57</ele>
        <time>2021-09-25T07:35:52.000Z</time>
      </trkpt>
      <trkpt lat="47.1221" lon="-1.53078">
        <ele>58</ele>
        <time>2021-09-25T07:35:54.000Z</time>
      </trkpt>
      <trkpt lat="47.12218" lon="-1.53064">
        <ele>57</ele>
        <time>2021-09-25T07:35:56.000Z</time>
      </trkpt>
      <trkpt lat="47.12226" lon="-1.53051">
        <ele>57</ele>
        <time>2021-09-25T07:35:58.000Z</time>
      </trkpt>
      <trkpt lat="47.12233" lon="-1.53036">
        <ele>57</ele>
        <time>2021-09-25T07:36:00.000Z</time>
      </trkpt>
      <trkpt lat="47.12241" lon="-1.53022">
        <ele>57</ele>
        <time>2021-09-25T07:36:02.000Z</time>
      </trkpt>
      <trkpt lat="47.12248" lon="-1.53009">
        <ele>58</ele>
        <time>2021-09-25T07:36:04.000Z</time>
      </trkpt>
      <trkpt lat="47.12256" lon="-1.52995">
        <ele>58</ele>
        <time>2021-09-25T07:36:06.000Z</time>
      </trkpt>
      <trkpt lat="47.12263" lon="-1.52982">
        <ele>59</ele>
        <time>2021-09-25T07:36:08.000Z</time>
      </trkpt>
      <trkpt lat="47.1227" lon="-1.52968">
        <ele>59</ele>
        <time>2021-09-25T07:36:10.000Z</time>
      </trkpt>
      <trkpt lat="47.12277" lon="-1.52955">
        <ele>60</ele>
        <time>2021-09-25T07:36:12.000Z</time>
      </trkpt>
      <trkpt lat="47.12284" lon="-1.52941">
        <ele>60</ele>
        <time>2021-09-25T07:36:14.000Z</time>
      </trkpt>
      <trkpt lat="47.12291" lon="-1.52929">
        <ele>61</ele>
        <time>2021-09-25T07:36:16.000Z</time>
      </trkpt>
      <trkpt lat="47.12298" lon="-1.52916">
        <ele>61</ele>
        <time>2021-09-25T07:36:18.000Z</time>
      </trkpt>
      <trkpt lat="47.12305" lon="-1.52904">
        <ele>61</ele>
        <time>2021-09-25T07:36:20.000Z</time>
      </trkpt>
      <trkpt lat="47.12312" lon="-1.52892">
        <ele>60</ele>
        <time>2021-09-25T07:36:22.000Z</time>
      </trkpt>
      <trkpt lat="47.1232" lon="-1.5288">
        <ele>60</ele>
        <time>2021-09-25T07:36:24.000Z</time>
      </trkpt>
      <trkpt lat="47.12327" lon="-1.52869">
        <ele>61</ele>
        <time>2021-09-25T07:36:26.000Z</time>
      </trkpt>
      <trkpt lat="47.12335" lon="-1.52857">
        <ele>61</ele>
        <time>2021-09-25T07:36:28.000Z</time>
      </trkpt>
      <trkpt lat="47.12343" lon="-1.52847">
        <ele>61</ele>
        <time>2021-09-25T07:36:30.000Z</time>
      </trkpt>
      <trkpt lat="47.12351" lon="-1.52837">
        <ele>62</ele>
        <time>2021-09-25T07:36:32.000Z</time>
      </trkpt>
      <trkpt lat="47.1236" lon="-1.52829">
        <ele>62</ele>
        <time>2021-09-25T07:36:34.000Z</time>
      </trkpt>
      <trkpt lat="47.12368" lon="-1.5282">
        <ele>63</ele>
        <time>2021-09-25T07:36:36.000Z</time>
      </trkpt>
      <trkpt lat="47.12377" lon="-1.52811">
        <ele>63</ele>
        <time>2021-09-25T07:36:38.000Z</time>
      </trkpt>
      <trkpt lat="47.12386" lon="-1.52803">
        <ele>63</ele>
        <time>2021-09-25T07:36:40.000Z</time>
      </trkpt>
      <trkpt lat="47.12395" lon="-1.52795">
        <ele>63</ele>
        <time>2021-09-25T07:36:42.000Z</time>
      </trkpt>
      <trkpt lat="47.12403" lon="-1.52786">
        <ele>64</ele>
        <time>2021-09-25T07:36:44.000Z</time>
      </trkpt>
      <trkpt lat="47.12412" lon="-1.52777">
        <ele>64</ele>
        <time>2021-09-25T07:36:46.000Z</time>
      </trkpt>
      <trkpt lat="47.12421" lon="-1.52769">
        <ele>65</ele>
        <time>2021-09-25T07:36:48.000Z</time>
      </trkpt>
      <trkpt lat="47.12428" lon="-1.52761">
        <ele>64</ele>
        <time>2021-09-25T07:36:50.000Z</time>
      </trkpt>
      <trkpt lat="47.12437" lon="-1.52753">
        <ele>65</ele>
        <time>2021-09-25T07:36:52.000Z</time>
      </trkpt>
      <trkpt lat="47.12446" lon="-1.52745">
        <ele>65</ele>
        <time>2021-09-25T07:36:54.000Z</time>
      </trkpt>
      <trkpt lat="47.12455" lon="-1.5274">
        <ele>66</ele>
        <time>2021-09-25T07:36:56.000Z</time>
      </trkpt>
      <trkpt lat="47.12465" lon="-1.52736">
        <ele>67</ele>
        <time>2021-09-25T07:36:58.000Z</time>
      </trkpt>
      <trkpt lat="47.12474" lon="-1.52733">
        <ele>68</ele>
        <time>2021-09-25T07:37:00.000Z</time>
      </trkpt>
      <trkpt lat="47.12483" lon="-1.5273">
        <ele>69</ele>
        <time>2021-09-25T07:37:02.000Z</time>
      </trkpt>
      <trkpt lat="47.12492" lon="-1.52728">
        <ele>69</ele>
        <time>2021-09-25T07:37:04.000Z</time>
      </trkpt>
      <trkpt lat="47.12501" lon="-1.52724">
        <ele>70</ele>
        <time>2021-09-25T07:37:06.000Z</time>
      </trkpt>
      <trkpt lat="47.12508" lon="-1.52712">
        <ele>71</ele>
        <time>2021-09-25T07:37:09.000Z</time>
      </trkpt>
      <trkpt lat="47.12498" lon="-1.52701">
        <ele>71</ele>
        <time>2021-09-25T07:37:12.000Z</time>
      </trkpt>
      <trkpt lat="47.12488" lon="-1.52698">
        <ele>72</ele>
        <time>2021-09-25T07:37:14.000Z</time>
      </trkpt>
      <trkpt lat="47.12478" lon="-1.52697">
        <ele>72</ele>
        <time>2021-09-25T07:37:16.000Z</time>
      </trkpt>
      <trkpt lat="47.12468" lon="-1.52695">
        <ele>72</ele>
        <time>2021-09-25T07:37:18.000Z</time>
      </trkpt>
      <trkpt lat="47.12458" lon="-1.52694">
        <ele>72</ele>
        <time>2021-09-25T07:37:20.000Z</time>
      </trkpt>
      <trkpt lat="47.12448" lon="-1.52691">
        <ele>72</ele>
        <time>2021-09-25T07:37:22.000Z</time>
      </trkpt>
      <trkpt lat="47.12438" lon="-1.52689">
        <ele>71</ele>
        <time>2021-09-25T07:37:24.000Z</time>
      </trkpt>
      <trkpt lat="47.12427" lon="-1.52686">
        <ele>71</ele>
        <time>2021-09-25T07:37:26.000Z</time>
      </trkpt>
      <trkpt lat="47.12416" lon="-1.52684">
        <ele>71</ele>
        <time>2021-09-25T07:37:28.000Z</time>
      </trkpt>
      <trkpt lat="47.12404" lon="-1.52682">
        <ele>71</ele>
        <time>2021-09-25T07:37:30.000Z</time>
      </trkpt>
      <trkpt lat="47.12392" lon="-1.52679">
        <ele>70</ele>
        <time>2021-09-25T07:37:32.000Z</time>
      </trkpt>
      <trkpt lat="47.12378" lon="-1.52676">
        <ele>70</ele>
        <time>2021-09-25T07:37:34.000Z</time>
      </trkpt>
      <trkpt lat="47.12364" lon="-1.52674">
        <ele>69</ele>
        <time>2021-09-25T07:37:36.000Z</time>
      </trkpt>
      <trkpt lat="47.12349" lon="-1.52669">
        <ele>68</ele>
        <time>2021-09-25T07:37:38.000Z</time>
      </trkpt>
      <trkpt lat="47.12333" lon="-1.52664">
        <ele>67</ele>
        <time>2021-09-25T07:37:40.000Z</time>
      </trkpt>
      <trkpt lat="47.12317" lon="-1.52657">
        <ele>66</ele>
        <time>2021-09-25T07:37:42.000Z</time>
      </trkpt>
      <trkpt lat="47.123" lon="-1.5265">
        <ele>65</ele>
        <time>2021-09-25T07:37:44.000Z</time>
      </trkpt>
      <trkpt lat="47.12284" lon="-1.52643">
        <ele>64</ele>
        <time>2021-09-25T07:37:46.000Z</time>
      </trkpt>
      <trkpt lat="47.12269" lon="-1.52634">
        <ele>64</ele>
        <time>2021-09-25T07:37:48.000Z</time>
      </trkpt>
      <trkpt lat="47.12255" lon="-1.52626">
        <ele>64</ele>
        <time>2021-09-25T07:37:50.000Z</time>
      </trkpt>
      <trkpt lat="47.1224" lon="-1.52618">
        <ele>63</ele>
        <time>2021-09-25T07:37:52.000Z</time>
      </trkpt>
      <trkpt lat="47.12226" lon="-1.5261">
        <ele>63</ele>
        <time>2021-09-25T07:37:54.000Z</time>
      </trkpt>
      <trkpt lat="47.12212" lon="-1.52604">
        <ele>63</ele>
        <time>2021-09-25T07:37:56.000Z</time>
      </trkpt>
      <trkpt lat="47.12198" lon="-1.52599">
        <ele>62</ele>
        <time>2021-09-25T07:37:58.000Z</time>
      </trkpt>
      <trkpt lat="47.12183" lon="-1.52596">
        <ele>63</ele>
        <time>2021-09-25T07:38:00.000Z</time>
      </trkpt>
      <trkpt lat="47.12168" lon="-1.52594">
        <ele>62</ele>
        <time>2021-09-25T07:38:02.000Z</time>
      </trkpt>
      <trkpt lat="47.12153" lon="-1.52593">
        <ele>62</ele>
        <time>2021-09-25T07:38:04.000Z</time>
      </trkpt>
      <trkpt lat="47.12139" lon="-1.52593">
        <ele>62</ele>
        <time>2021-09-25T07:38:06.000Z</time>
      </trkpt>
      <trkpt lat="47.12124" lon="-1.52593">
        <ele>62</ele>
        <time>2021-09-25T07:38:08.000Z</time>
      </trkpt>
      <trkpt lat="47.12111" lon="-1.52592">
        <ele>62</ele>
        <time>2021-09-25T07:38:10.000Z</time>
      </trkpt>
      <trkpt lat="47.12096" lon="-1.52592">
        <ele>62</ele>
        <time>2021-09-25T07:38:12.000Z</time>
      </trkpt>
      <trkpt lat="47.12082" lon="-1.52593">
        <ele>62</ele>
        <time>2021-09-25T07:38:14.000Z</time>
      </trkpt>
      <trkpt lat="47.12067" lon="-1.52593">
        <ele>62</ele>
        <time>2021-09-25T07:38:16.000Z</time>
      </trkpt>
      <trkpt lat="47.12052" lon="-1.52593">
        <ele>62</ele>
        <time>2021-09-25T07:38:18.000Z</time>
      </trkpt>
      <trkpt lat="47.12038" lon="-1.52594">
        <ele>62</ele>
        <time>2021-09-25T07:38:20.000Z</time>
      </trkpt>
      <trkpt lat="47.12022" lon="-1.52593">
        <ele>62</ele>
        <time>2021-09-25T07:38:22.000Z</time>
      </trkpt>
      <trkpt lat="47.12008" lon="-1.52591">
        <ele>62</ele>
        <time>2021-09-25T07:38:24.000Z</time>
      </trkpt>
      <trkpt lat="47.11994" lon="-1.52585">
        <ele>61</ele>
        <time>2021-09-25T07:38:26.000Z</time>
      </trkpt>
      <trkpt lat="47.1198" lon="-1.52579">
        <ele>61</ele>
        <time>2021-09-25T07:38:28.000Z</time>
      </trkpt>
      <trkpt lat="47.11965" lon="-1.52573">
        <ele>60</ele>
        <time>2021-09-25T07:38:30.000Z</time>
      </trkpt>
      <trkpt lat="47.1195" lon="-1.52565">
        <ele>60</ele>
        <time>2021-09-25T07:38:32.000Z</time>
      </trkpt>
      <trkpt lat="47.11936" lon="-1.52557">
        <ele>59</ele>
        <time>2021-09-25T07:38:34.000Z</time>
      </trkpt>
      <trkpt lat="47.11921" lon="-1.52547">
        <ele>59</ele>
        <time>2021-09-25T07:38:36.000Z</time>
      </trkpt>
      <trkpt lat="47.11908" lon="-1.52536">
        <ele>59</ele>
        <time>2021-09-25T07:38:38.000Z</time>
      </trkpt>
      <trkpt lat="47.11895" lon="-1.52523">
        <ele>59</ele>
        <time>2021-09-25T07:38:40.000Z</time>
      </trkpt>
      <trkpt lat="47.11884" lon="-1.5251">
        <ele>60</ele>
        <time>2021-09-25T07:38:42.000Z</time>
      </trkpt>
      <trkpt lat="47.11873" lon="-1.52496">
        <ele>60</ele>
        <time>2021-09-25T07:38:44.000Z</time>
      </trkpt>
      <trkpt lat="47.11864" lon="-1.52484">
        <ele>60</ele>
        <time>2021-09-25T07:38:46.000Z</time>
      </trkpt>
      <trkpt lat="47.11855" lon="-1.52472">
        <ele>60</ele>
        <time>2021-09-25T07:38:48.000Z</time>
      </trkpt>
      <trkpt lat="47.11847" lon="-1.52461">
        <ele>60</ele>
        <time>2021-09-25T07:38:50.000Z</time>
      </trkpt>
      <trkpt lat="47.11838" lon="-1.52449">
        <ele>60</ele>
        <time>2021-09-25T07:38:52.000Z</time>
      </trkpt>
      <trkpt lat="47.1183" lon="-1.52437">
        <ele>61</ele>
        <time>2021-09-25T07:38:54.000Z</time>
      </trkpt>
      <trkpt lat="47.11821" lon="-1.52425">
        <ele>61</ele>
        <time>2021-09-25T07:38:56.000Z</time>
      </trkpt>
      <trkpt lat="47.11813" lon="-1.52414">
        <ele>61</ele>
        <time>2021-09-25T07:38:58.000Z</time>
      </trkpt>
      <trkpt lat="47.11805" lon="-1.52403">
        <ele>62</ele>
        <time>2021-09-25T07:39:00.000Z</time>
      </trkpt>
      <trkpt lat="47.11797" lon="-1.52392">
        <ele>62</ele>
        <time>2021-09-25T07:39:02.000Z</time>
      </trkpt>
      <trkpt lat="47.11788" lon="-1.52381">
        <ele>63</ele>
        <time>2021-09-25T07:39:04.000Z</time>
      </trkpt>
      <trkpt lat="47.1178" lon="-1.5237">
        <ele>64</ele>
        <time>2021-09-25T07:39:06.000Z</time>
      </trkpt>
      <trkpt lat="47.11771" lon="-1.52359">
        <ele>64</ele>
        <time>2021-09-25T07:39:08.000Z</time>
      </trkpt>
      <trkpt lat="47.11763" lon="-1.52348">
        <ele>65</ele>
        <time>2021-09-25T07:39:10.000Z</time>
      </trkpt>
      <trkpt lat="47.11755" lon="-1.52337">
        <ele>65</ele>
        <time>2021-09-25T07:39:12.000Z</time>
      </trkpt>
      <trkpt lat="47.11746" lon="-1.52325">
        <ele>65</ele>
        <time>2021-09-25T07:39:14.000Z</time>
      </trkpt>
      <trkpt lat="47.11737" lon="-1.52315">
        <ele>66</ele>
        <time>2021-09-25T07:39:16.000Z</time>
      </trkpt>
      <trkpt lat="47.11728" lon="-1.52305">
        <ele>66</ele>
        <time>2021-09-25T07:39:18.000Z</time>
      </trkpt>
      <trkpt lat="47.11718" lon="-1.52296">
        <ele>66</ele>
        <time>2021-09-25T07:39:20.000Z</time>
      </trkpt>
      <trkpt lat="47.11708" lon="-1.52288">
        <ele>66</ele>
        <time>2021-09-25T07:39:22.000Z</time>
      </trkpt>
      <trkpt lat="47.11698" lon="-1.52282">
        <ele>66</ele>
        <time>2021-09-25T07:39:24.000Z</time>
      </trkpt>
      <trkpt lat="47.11686" lon="-1.52276">
        <ele>66</ele>
        <time>2021-09-25T07:39:26.000Z</time>
      </trkpt>
      <trkpt lat="47.11674" lon="-1.52268">
        <ele>65</ele>
        <time>2021-09-25T07:39:28.000Z</time>
      </trkpt>
      <trkpt lat="47.1166" lon="-1.5226">
        <ele>64</ele>
        <time>2021-09-25T07:39:30.000Z</time>
      </trkpt>
      <trkpt lat="47.11646" lon="-1.52251">
        <ele>63</ele>
        <time>2021-09-25T07:39:32.000Z</time>
      </trkpt>
      <trkpt lat="47.11632" lon="-1.52243">
        <ele>62</ele>
        <time>2021-09-25T07:39:34.000Z</time>
      </trkpt>
      <trkpt lat="47.11619" lon="-1.52234">
        <ele>61</ele>
        <time>2021-09-25T07:39:36.000Z</time>
      </trkpt>
      <trkpt lat="47.11605" lon="-1.52225">
        <ele>61</ele>
        <time>2021-09-25T07:39:38.000Z</time>
      </trkpt>
      <trkpt lat="47.11591" lon="-1.52214">
        <ele>61</ele>
        <time>2021-09-25T07:39:40.000Z</time>
      </trkpt>
      <trkpt lat="47.11579" lon="-1.522">
        <ele>60</ele>
        <time>2021-09-25T07:39:42.000Z</time>
      </trkpt>
      <trkpt lat="47.11569" lon="-1.52185">
        <ele>60</ele>
        <time>2021-09-25T07:39:44.000Z</time>
      </trkpt>
      <trkpt lat="47.11559" lon="-1.52169">
        <ele>59</ele>
        <time>2021-09-25T07:39:46.000Z</time>
      </trkpt>
      <trkpt lat="47.1155" lon="-1.52151">
        <ele>59</ele>
        <time>2021-09-25T07:39:48.000Z</time>
      </trkpt>
      <trkpt lat="47.1154" lon="-1.52135">
        <ele>58</ele>
        <time>2021-09-25T07:39:50.000Z</time>
      </trkpt>
      <trkpt lat="47.11531" lon="-1.52118">
        <ele>58</ele>
        <time>2021-09-25T07:39:52.000Z</time>
      </trkpt>
      <trkpt lat="47.11521" lon="-1.52102">
        <ele>58</ele>
        <time>2021-09-25T07:39:54.000Z</time>
      </trkpt>
      <trkpt lat="47.11512" lon="-1.52085">
        <ele>58</ele>
        <time>2021-09-25T07:39:56.000Z</time>
      </trkpt>
      <trkpt lat="47.11502" lon="-1.52069">
        <ele>58</ele>
        <time>2021-09-25T07:39:58.000Z</time>
      </trkpt>
      <trkpt lat="47.11493" lon="-1.52053">
        <ele>58</ele>
        <time>2021-09-25T07:40:00.000Z</time>
      </trkpt>
      <trkpt lat="47.11484" lon="-1.52037">
        <ele>58</ele>
        <time>2021-09-25T07:40:02.000Z</time>
      </trkpt>
      <trkpt lat="47.11476" lon="-1.52021">
        <ele>57</ele>
        <time>2021-09-25T07:40:04.000Z</time>
      </trkpt>
      <trkpt lat="47.11468" lon="-1.52005">
        <ele>57</ele>
        <time>2021-09-25T07:40:06.000Z</time>
      </trkpt>
      <trkpt lat="47.11459" lon="-1.51989">
        <ele>57</ele>
        <time>2021-09-25T07:40:08.000Z</time>
      </trkpt>
      <trkpt lat="47.1145" lon="-1.51973">
        <ele>57</ele>
        <time>2021-09-25T07:40:10.000Z</time>
      </trkpt>
      <trkpt lat="47.11441" lon="-1.51957">
        <ele>57</ele>
        <time>2021-09-25T07:40:12.000Z</time>
      </trkpt>
      <trkpt lat="47.11432" lon="-1.51942">
        <ele>57</ele>
        <time>2021-09-25T07:40:14.000Z</time>
      </trkpt>
      <trkpt lat="47.11423" lon="-1.51926">
        <ele>57</ele>
        <time>2021-09-25T07:40:16.000Z</time>
      </trkpt>
      <trkpt lat="47.11415" lon="-1.51911">
        <ele>57</ele>
        <time>2021-09-25T07:40:18.000Z</time>
      </trkpt>
      <trkpt lat="47.11406" lon="-1.51895">
        <ele>57</ele>
        <time>2021-09-25T07:40:20.000Z</time>
      </trkpt>
      <trkpt lat="47.11397" lon="-1.5188">
        <ele>58</ele>
        <time>2021-09-25T07:40:22.000Z</time>
      </trkpt>
      <trkpt lat="47.11389" lon="-1.51865">
        <ele>58</ele>
        <time>2021-09-25T07:40:24.000Z</time>
      </trkpt>
      <trkpt lat="47.11381" lon="-1.5185">
        <ele>58</ele>
        <time>2021-09-25T07:40:26.000Z</time>
      </trkpt>
      <trkpt lat="47.11373" lon="-1.51836">
        <ele>58</ele>
        <time>2021-09-25T07:40:28.000Z</time>
      </trkpt>
      <trkpt lat="47.11365" lon="-1.51821">
        <ele>58</ele>
        <time>2021-09-25T07:40:30.000Z</time>
      </trkpt>
      <trkpt lat="47.11356" lon="-1.51808">
        <ele>58</ele>
        <time>2021-09-25T07:40:32.000Z</time>
      </trkpt>
      <trkpt lat="47.11346" lon="-1.51795">
        <ele>57</ele>
        <time>2021-09-25T07:40:34.000Z</time>
      </trkpt>
      <trkpt lat="47.11336" lon="-1.51784">
        <ele>57</ele>
        <time>2021-09-25T07:40:36.000Z</time>
      </trkpt>
      <trkpt lat="47.11325" lon="-1.51773">
        <ele>56</ele>
        <time>2021-09-25T07:40:38.000Z</time>
      </trkpt>
      <trkpt lat="47.11314" lon="-1.51764">
        <ele>56</ele>
        <time>2021-09-25T07:40:40.000Z</time>
      </trkpt>
      <trkpt lat="47.11303" lon="-1.51754">
        <ele>56</ele>
        <time>2021-09-25T07:40:42.000Z</time>
      </trkpt>
      <trkpt lat="47.11291" lon="-1.51744">
        <ele>57</ele>
        <time>2021-09-25T07:40:44.000Z</time>
      </trkpt>
      <trkpt lat="47.1128" lon="-1.51735">
        <ele>57</ele>
        <time>2021-09-25T07:40:46.000Z</time>
      </trkpt>
      <trkpt lat="47.11269" lon="-1.51725">
        <ele>57</ele>
        <time>2021-09-25T07:40:48.000Z</time>
      </trkpt>
      <trkpt lat="47.11258" lon="-1.51716">
        <ele>58</ele>
        <time>2021-09-25T07:40:50.000Z</time>
      </trkpt>
      <trkpt lat="47.11247" lon="-1.51707">
        <ele>58</ele>
        <time>2021-09-25T07:40:52.000Z</time>
      </trkpt>
      <trkpt lat="47.11236" lon="-1.51697">
        <ele>59</ele>
        <time>2021-09-25T07:40:54.000Z</time>
      </trkpt>
      <trkpt lat="47.11225" lon="-1.51688">
        <ele>59</ele>
        <time>2021-09-25T07:40:56.000Z</time>
      </trkpt>
      <trkpt lat="47.11215" lon="-1.5168">
        <ele>59</ele>
        <time>2021-09-25T07:40:58.000Z</time>
      </trkpt>
      <trkpt lat="47.11204" lon="-1.5167">
        <ele>60</ele>
        <time>2021-09-25T07:41:00.000Z</time>
      </trkpt>
      <trkpt lat="47.11194" lon="-1.5166">
        <ele>60</ele>
        <time>2021-09-25T07:41:02.000Z</time>
      </trkpt>
      <trkpt lat="47.11186" lon="-1.51649">
        <ele>61</ele>
        <time>2021-09-25T07:41:04.000Z</time>
      </trkpt>
      <trkpt lat="47.11178" lon="-1.51637">
        <ele>61</ele>
        <time>2021-09-25T07:41:06.000Z</time>
      </trkpt>
      <trkpt lat="47.1117" lon="-1.51624">
        <ele>61</ele>
        <time>2021-09-25T07:41:08.000Z</time>
      </trkpt>
      <trkpt lat="47.11162" lon="-1.51612">
        <ele>62</ele>
        <time>2021-09-25T07:41:10.000Z</time>
      </trkpt>
      <trkpt lat="47.11154" lon="-1.51599">
        <ele>62</ele>
        <time>2021-09-25T07:41:12.000Z</time>
      </trkpt>
      <trkpt lat="47.11146" lon="-1.51586">
        <ele>63</ele>
        <time>2021-09-25T07:41:14.000Z</time>
      </trkpt>
      <trkpt lat="47.11138" lon="-1.51574">
        <ele>63</ele>
        <time>2021-09-25T07:41:16.000Z</time>
      </trkpt>
      <trkpt lat="47.1113" lon="-1.51562">
        <ele>64</ele>
        <time>2021-09-25T07:41:18.000Z</time>
      </trkpt>
      <trkpt lat="47.11122" lon="-1.51549">
        <ele>64</ele>
        <time>2021-09-25T07:41:20.000Z</time>
      </trkpt>
      <trkpt lat="47.11114" lon="-1.51536">
        <ele>65</ele>
        <time>2021-09-25T07:41:22.000Z</time>
      </trkpt>
      <trkpt lat="47.11102" lon="-1.51519">
        <ele>65</ele>
        <time>2021-09-25T07:41:25.000Z</time>
      </trkpt>
      <trkpt lat="47.11094" lon="-1.51506">
        <ele>66</ele>
        <time>2021-09-25T07:41:27.000Z</time>
      </trkpt>
      <trkpt lat="47.11085" lon="-1.51494">
        <ele>66</ele>
        <time>2021-09-25T07:41:29.000Z</time>
      </trkpt>
      <trkpt lat="47.11076" lon="-1.51483">
        <ele>66</ele>
        <time>2021-09-25T07:41:31.000Z</time>
      </trkpt>
      <trkpt lat="47.11067" lon="-1.51473">
        <ele>66</ele>
        <time>2021-09-25T07:41:33.000Z</time>
      </trkpt>
      <trkpt lat="47.11052" lon="-1.51459">
        <ele>66</ele>
        <time>2021-09-25T07:41:36.000Z</time>
      </trkpt>
      <trkpt lat="47.11037" lon="-1.51445">
        <ele>66</ele>
        <time>2021-09-25T07:41:39.000Z</time>
      </trkpt>
      <trkpt lat="47.11027" lon="-1.51436">
        <ele>66</ele>
        <time>2021-09-25T07:41:41.000Z</time>
      </trkpt>
      <trkpt lat="47.11017" lon="-1.51426">
        <ele>66</ele>
        <time>2021-09-25T07:41:43.000Z</time>
      </trkpt>
      <trkpt lat="47.11007" lon="-1.51417">
        <ele>66</ele>
        <time>2021-09-25T07:41:45.000Z</time>
      </trkpt>
      <trkpt lat="47.10997" lon="-1.51407">
        <ele>66</ele>
        <time>2021-09-25T07:41:47.000Z</time>
      </trkpt>
      <trkpt lat="47.10987" lon="-1.51398">
        <ele>66</ele>
        <time>2021-09-25T07:41:49.000Z</time>
      </trkpt>
      <trkpt lat="47.10977" lon="-1.51388">
        <ele>66</ele>
        <time>2021-09-25T07:41:51.000Z</time>
      </trkpt>
      <trkpt lat="47.10967" lon="-1.51378">
        <ele>66</ele>
        <time>2021-09-25T07:41:53.000Z</time>
      </trkpt>
      <trkpt lat="47.10957" lon="-1.51368">
        <ele>66</ele>
        <time>2021-09-25T07:41:55.000Z</time>
      </trkpt>
      <trkpt lat="47.10947" lon="-1.51359">
        <ele>66</ele>
        <time>2021-09-25T07:41:57.000Z</time>
      </trkpt>
      <trkpt lat="47.10936" lon="-1.51349">
        <ele>66</ele>
        <time>2021-09-25T07:41:59.000Z</time>
      </trkpt>
      <trkpt lat="47.10926" lon="-1.51339">
        <ele>66</ele>
        <time>2021-09-25T07:42:01.000Z</time>
      </trkpt>
      <trkpt lat="47.10916" lon="-1.51329">
        <ele>66</ele>
        <time>2021-09-25T07:42:03.000Z</time>
      </trkpt>
      <trkpt lat="47.10905" lon="-1.51319">
        <ele>66</ele>
        <time>2021-09-25T07:42:05.000Z</time>
      </trkpt>
      <trkpt lat="47.10895" lon="-1.51309">
        <ele>66</ele>
        <time>2021-09-25T07:42:07.000Z</time>
      </trkpt>
      <trkpt lat="47.10885" lon="-1.51299">
        <ele>66</ele>
        <time>2021-09-25T07:42:09.000Z</time>
      </trkpt>
      <trkpt lat="47.10875" lon="-1.51289">
        <ele>66</ele>
        <time>2021-09-25T07:42:11.000Z</time>
      </trkpt>
      <trkpt lat="47.10864" lon="-1.51279">
        <ele>66</ele>
        <time>2021-09-25T07:42:13.000Z</time>
      </trkpt>
      <trkpt lat="47.10854" lon="-1.51268">
        <ele>65</ele>
        <time>2021-09-25T07:42:15.000Z</time>
      </trkpt>
      <trkpt lat="47.10844" lon="-1.51259">
        <ele>66</ele>
        <time>2021-09-25T07:42:17.000Z</time>
      </trkpt>
      <trkpt lat="47.10833" lon="-1.51249">
        <ele>66</ele>
        <time>2021-09-25T07:42:19.000Z</time>
      </trkpt>
      <trkpt lat="47.10822" lon="-1.51239">
        <ele>66</ele>
        <time>2021-09-25T07:42:21.000Z</time>
      </trkpt>
      <trkpt lat="47.10812" lon="-1.51228">
        <ele>67</ele>
        <time>2021-09-25T07:42:23.000Z</time>
      </trkpt>
      <trkpt lat="47.10801" lon="-1.51219">
        <ele>67</ele>
        <time>2021-09-25T07:42:25.000Z</time>
      </trkpt>
      <trkpt lat="47.10791" lon="-1.51208">
        <ele>67</ele>
        <time>2021-09-25T07:42:27.000Z</time>
      </trkpt>
      <trkpt lat="47.10781" lon="-1.51198">
        <ele>66</ele>
        <time>2021-09-25T07:42:29.000Z</time>
      </trkpt>
      <trkpt lat="47.1077" lon="-1.51188">
        <ele>66</ele>
        <time>2021-09-25T07:42:31.000Z</time>
      </trkpt>
      <trkpt lat="47.10759" lon="-1.51178">
        <ele>66</ele>
        <time>2021-09-25T07:42:33.000Z</time>
      </trkpt>
      <trkpt lat="47.10748" lon="-1.51167">
        <ele>66</ele>
        <time>2021-09-25T07:42:35.000Z</time>
      </trkpt>
      <trkpt lat="47.10737" lon="-1.51157">
        <ele>66</ele>
        <time>2021-09-25T07:42:37.000Z</time>
      </trkpt>
      <trkpt lat="47.10726" lon="-1.51146">
        <ele>66</ele>
        <time>2021-09-25T07:42:39.000Z</time>
      </trkpt>
      <trkpt lat="47.10715" lon="-1.51135">
        <ele>65</ele>
        <time>2021-09-25T07:42:41.000Z</time>
      </trkpt>
      <trkpt lat="47.10703" lon="-1.51125">
        <ele>65</ele>
        <time>2021-09-25T07:42:43.000Z</time>
      </trkpt>
      <trkpt lat="47.10693" lon="-1.51112">
        <ele>65</ele>
        <time>2021-09-25T07:42:45.000Z</time>
      </trkpt>
      <trkpt lat="47.10684" lon="-1.51097">
        <ele>65</ele>
        <time>2021-09-25T07:42:47.000Z</time>
      </trkpt>
      <trkpt lat="47.10677" lon="-1.51079">
        <ele>65</ele>
        <time>2021-09-25T07:42:49.000Z</time>
      </trkpt>
      <trkpt lat="47.10671" lon="-1.5106">
        <ele>65</ele>
        <time>2021-09-25T07:42:51.000Z</time>
      </trkpt>
      <trkpt lat="47.10664" lon="-1.51041">
        <ele>64</ele>
        <time>2021-09-25T07:42:53.000Z</time>
      </trkpt>
      <trkpt lat="47.10657" lon="-1.51022">
        <ele>64</ele>
        <time>2021-09-25T07:42:55.000Z</time>
      </trkpt>
      <trkpt lat="47.10649" lon="-1.51005">
        <ele>63</ele>
        <time>2021-09-25T07:42:57.000Z</time>
      </trkpt>
      <trkpt lat="47.10638" lon="-1.50988">
        <ele>63</ele>
        <time>2021-09-25T07:42:59.000Z</time>
      </trkpt>
      <trkpt lat="47.10626" lon="-1.50974">
        <ele>62</ele>
        <time>2021-09-25T07:43:01.000Z</time>
      </trkpt>
      <trkpt lat="47.10614" lon="-1.5096">
        <ele>62</ele>
        <time>2021-09-25T07:43:03.000Z</time>
      </trkpt>
      <trkpt lat="47.10601" lon="-1.50947">
        <ele>61</ele>
        <time>2021-09-25T07:43:05.000Z</time>
      </trkpt>
      <trkpt lat="47.10589" lon="-1.50933">
        <ele>61</ele>
        <time>2021-09-25T07:43:07.000Z</time>
      </trkpt>
      <trkpt lat="47.10576" lon="-1.50919">
        <ele>61</ele>
        <time>2021-09-25T07:43:09.000Z</time>
      </trkpt>
      <trkpt lat="47.10564" lon="-1.50906">
        <ele>60</ele>
        <time>2021-09-25T07:43:11.000Z</time>
      </trkpt>
      <trkpt lat="47.10552" lon="-1.50892">
        <ele>61</ele>
        <time>2021-09-25T07:43:13.000Z</time>
      </trkpt>
      <trkpt lat="47.1054" lon="-1.50879">
        <ele>60</ele>
        <time>2021-09-25T07:43:15.000Z</time>
      </trkpt>
      <trkpt lat="47.1053" lon="-1.50864">
        <ele>60</ele>
        <time>2021-09-25T07:43:17.000Z</time>
      </trkpt>
      <trkpt lat="47.1052" lon="-1.50849">
        <ele>60</ele>
        <time>2021-09-25T07:43:19.000Z</time>
      </trkpt>
      <trkpt lat="47.10511" lon="-1.50832">
        <ele>60</ele>
        <time>2021-09-25T07:43:21.000Z</time>
      </trkpt>
      <trkpt lat="47.10501" lon="-1.50814">
        <ele>59</ele>
        <time>2021-09-25T07:43:23.000Z</time>
      </trkpt>
      <trkpt lat="47.10491" lon="-1.50796">
        <ele>59</ele>
        <time>2021-09-25T07:43:25.000Z</time>
      </trkpt>
      <trkpt lat="47.10481" lon="-1.50778">
        <ele>59</ele>
        <time>2021-09-25T07:43:27.000Z</time>
      </trkpt>
      <trkpt lat="47.10472" lon="-1.5076">
        <ele>59</ele>
        <time>2021-09-25T07:43:29.000Z</time>
      </trkpt>
      <trkpt lat="47.10465" lon="-1.50741">
        <ele>58</ele>
        <time>2021-09-25T07:43:31.000Z</time>
      </trkpt>
      <trkpt lat="47.10459" lon="-1.5072">
        <ele>58</ele>
        <time>2021-09-25T07:43:33.000Z</time>
      </trkpt>
      <trkpt lat="47.10454" lon="-1.50699">
        <ele>58</ele>
        <time>2021-09-25T07:43:35.000Z</time>
      </trkpt>
      <trkpt lat="47.10449" lon="-1.5068">
        <ele>59</ele>
        <time>2021-09-25T07:43:37.000Z</time>
      </trkpt>
      <trkpt lat="47.10443" lon="-1.50661">
        <ele>58</ele>
        <time>2021-09-25T07:43:39.000Z</time>
      </trkpt>
      <trkpt lat="47.10434" lon="-1.50645">
        <ele>58</ele>
        <time>2021-09-25T07:43:41.000Z</time>
      </trkpt>
      <trkpt lat="47.10424" lon="-1.50632">
        <ele>58</ele>
        <time>2021-09-25T07:43:43.000Z</time>
      </trkpt>
      <trkpt lat="47.10412" lon="-1.50622">
        <ele>58</ele>
        <time>2021-09-25T07:43:45.000Z</time>
      </trkpt>
      <trkpt lat="47.104" lon="-1.50613">
        <ele>58</ele>
        <time>2021-09-25T07:43:47.000Z</time>
      </trkpt>
      <trkpt lat="47.10389" lon="-1.50603">
        <ele>58</ele>
        <time>2021-09-25T07:43:49.000Z</time>
      </trkpt>
      <trkpt lat="47.10378" lon="-1.5059">
        <ele>58</ele>
        <time>2021-09-25T07:43:51.000Z</time>
      </trkpt>
      <trkpt lat="47.1037" lon="-1.50576">
        <ele>59</ele>
        <time>2021-09-25T07:43:53.000Z</time>
      </trkpt>
      <trkpt lat="47.1036" lon="-1.50561">
        <ele>59</ele>
        <time>2021-09-25T07:43:55.000Z</time>
      </trkpt>
      <trkpt lat="47.10351" lon="-1.50545">
        <ele>59</ele>
        <time>2021-09-25T07:43:57.000Z</time>
      </trkpt>
      <trkpt lat="47.10342" lon="-1.5053">
        <ele>59</ele>
        <time>2021-09-25T07:43:59.000Z</time>
      </trkpt>
      <trkpt lat="47.10333" lon="-1.50515">
        <ele>59</ele>
        <time>2021-09-25T07:44:01.000Z</time>
      </trkpt>
      <trkpt lat="47.10324" lon="-1.50501">
        <ele>59</ele>
        <time>2021-09-25T07:44:03.000Z</time>
      </trkpt>
      <trkpt lat="47.10315" lon="-1.50486">
        <ele>60</ele>
        <time>2021-09-25T07:44:05.000Z</time>
      </trkpt>
      <trkpt lat="47.10306" lon="-1.50472">
        <ele>60</ele>
        <time>2021-09-25T07:44:07.000Z</time>
      </trkpt>
      <trkpt lat="47.10298" lon="-1.50458">
        <ele>60</ele>
        <time>2021-09-25T07:44:09.000Z</time>
      </trkpt>
      <trkpt lat="47.1029" lon="-1.50445">
        <ele>60</ele>
        <time>2021-09-25T07:44:11.000Z</time>
      </trkpt>
      <trkpt lat="47.10281" lon="-1.50431">
        <ele>60</ele>
        <time>2021-09-25T07:44:13.000Z</time>
      </trkpt>
      <trkpt lat="47.10273" lon="-1.50417">
        <ele>61</ele>
        <time>2021-09-25T07:44:15.000Z</time>
      </trkpt>
      <trkpt lat="47.10264" lon="-1.50403">
        <ele>61</ele>
        <time>2021-09-25T07:44:17.000Z</time>
      </trkpt>
      <trkpt lat="47.10256" lon="-1.5039">
        <ele>61</ele>
        <time>2021-09-25T07:44:19.000Z</time>
      </trkpt>
      <trkpt lat="47.10248" lon="-1.50377">
        <ele>62</ele>
        <time>2021-09-25T07:44:21.000Z</time>
      </trkpt>
      <trkpt lat="47.1024" lon="-1.50363">
        <ele>62</ele>
        <time>2021-09-25T07:44:23.000Z</time>
      </trkpt>
      <trkpt lat="47.10232" lon="-1.5035">
        <ele>62</ele>
        <time>2021-09-25T07:44:25.000Z</time>
      </trkpt>
      <trkpt lat="47.10224" lon="-1.50338">
        <ele>63</ele>
        <time>2021-09-25T07:44:27.000Z</time>
      </trkpt>
      <trkpt lat="47.10216" lon="-1.50325">
        <ele>63</ele>
        <time>2021-09-25T07:44:29.000Z</time>
      </trkpt>
      <trkpt lat="47.10208" lon="-1.50313">
        <ele>63</ele>
        <time>2021-09-25T07:44:31.000Z</time>
      </trkpt>
      <trkpt lat="47.10199" lon="-1.50303">
        <ele>64</ele>
        <time>2021-09-25T07:44:33.000Z</time>
      </trkpt>
      <trkpt lat="47.1019" lon="-1.50294">
        <ele>64</ele>
        <time>2021-09-25T07:44:35.000Z</time>
      </trkpt>
      <trkpt lat="47.10179" lon="-1.50286">
        <ele>65</ele>
        <time>2021-09-25T07:44:37.000Z</time>
      </trkpt>
      <trkpt lat="47.10168" lon="-1.50278">
        <ele>65</ele>
        <time>2021-09-25T07:44:39.000Z</time>
      </trkpt>
      <trkpt lat="47.10158" lon="-1.5027">
        <ele>66</ele>
        <time>2021-09-25T07:44:41.000Z</time>
      </trkpt>
      <trkpt lat="47.10147" lon="-1.50262">
        <ele>66</ele>
        <time>2021-09-25T07:44:43.000Z</time>
      </trkpt>
      <trkpt lat="47.10137" lon="-1.50255">
        <ele>66</ele>
        <time>2021-09-25T07:44:45.000Z</time>
      </trkpt>
      <trkpt lat="47.10126" lon="-1.50247">
        <ele>67</ele>
        <time>2021-09-25T07:44:47.000Z</time>
      </trkpt>
      <trkpt lat="47.10116" lon="-1.50239">
        <ele>67</ele>
        <time>2021-09-25T07:44:49.000Z</time>
      </trkpt>
      <trkpt lat="47.10106" lon="-1.5023">
        <ele>67</ele>
        <time>2021-09-25T07:44:51.000Z</time>
      </trkpt>
      <trkpt lat="47.10097" lon="-1.5022">
        <ele>67</ele>
        <time>2021-09-25T07:44:53.000Z</time>
      </trkpt>
      <trkpt lat="47.10089" lon="-1.50208">
        <ele>68</ele>
        <time>2021-09-25T07:44:55.000Z</time>
      </trkpt>
      <trkpt lat="47.10084" lon="-1.50193">
        <ele>68</ele>
        <time>2021-09-25T07:44:57.000Z</time>
      </trkpt>
      <trkpt lat="47.10081" lon="-1.50178">
        <ele>68</ele>
        <time>2021-09-25T07:44:59.000Z</time>
      </trkpt>
      <trkpt lat="47.1008" lon="-1.50161">
        <ele>68</ele>
        <time>2021-09-25T07:45:01.000Z</time>
      </trkpt>
      <trkpt lat="47.1008" lon="-1.50145">
        <ele>68</ele>
        <time>2021-09-25T07:45:03.000Z</time>
      </trkpt>
      <trkpt lat="47.10079" lon="-1.50128">
        <ele>68</ele>
        <time>2021-09-25T07:45:05.000Z</time>
      </trkpt>
      <trkpt lat="47.10079" lon="-1.50112">
        <ele>68</ele>
        <time>2021-09-25T07:45:07.000Z</time>
      </trkpt>
      <trkpt lat="47.10079" lon="-1.50096">
        <ele>68</ele>
        <time>2021-09-25T07:45:09.000Z</time>
      </trkpt>
      <trkpt lat="47.10078" lon="-1.5008">
        <ele>68</ele>
        <time>2021-09-25T07:45:11.000Z</time>
      </trkpt>
      <trkpt lat="47.10078" lon="-1.50064">
        <ele>68</ele>
        <time>2021-09-25T07:45:13.000Z</time>
      </trkpt>
      <trkpt lat="47.10077" lon="-1.50048">
        <ele>68</ele>
        <time>2021-09-25T07:45:15.000Z</time>
      </trkpt>
      <trkpt lat="47.10077" lon="-1.50032">
        <ele>68</ele>
        <time>2021-09-25T07:45:17.000Z</time>
      </trkpt>
      <trkpt lat="47.10076" lon="-1.50016">
        <ele>68</ele>
        <time>2021-09-25T07:45:19.000Z</time>
      </trkpt>
      <trkpt lat="47.10076" lon="-1.5">
        <ele>68</ele>
        <time>2021-09-25T07:45:21.000Z</time>
      </trkpt>
      <trkpt lat="47.10075" lon="-1.49983">
        <ele>68</ele>
        <time>2021-09-25T07:45:23.000Z</time>
      </trkpt>
      <trkpt lat="47.10075" lon="-1.49967">
        <ele>68</ele>
        <time>2021-09-25T07:45:25.000Z</time>
      </trkpt>
      <trkpt lat="47.10074" lon="-1.4995">
        <ele>68</ele>
        <time>2021-09-25T07:45:27.000Z</time>
      </trkpt>
      <trkpt lat="47.10073" lon="-1.49933">
        <ele>68</ele>
        <time>2021-09-25T07:45:29.000Z</time>
      </trkpt>
      <trkpt lat="47.10071" lon="-1.49915">
        <ele>68</ele>
        <time>2021-09-25T07:45:31.000Z</time>
      </trkpt>
      <trkpt lat="47.10067" lon="-1.49898">
        <ele>68</ele>
        <time>2021-09-25T07:45:33.000Z</time>
      </trkpt>
      <trkpt lat="47.10062" lon="-1.4988">
        <ele>68</ele>
        <time>2021-09-25T07:45:35.000Z</time>
      </trkpt>
      <trkpt lat="47.10057" lon="-1.49862">
        <ele>68</ele>
        <time>2021-09-25T07:45:37.000Z</time>
      </trkpt>
      <trkpt lat="47.1005" lon="-1.49845">
        <ele>67</ele>
        <time>2021-09-25T07:45:39.000Z</time>
      </trkpt>
      <trkpt lat="47.10043" lon="-1.49828">
        <ele>67</ele>
        <time>2021-09-25T07:45:41.000Z</time>
      </trkpt>
      <trkpt lat="47.10035" lon="-1.49812">
        <ele>67</ele>
        <time>2021-09-25T07:45:43.000Z</time>
      </trkpt>
      <trkpt lat="47.10028" lon="-1.49796">
        <ele>67</ele>
        <time>2021-09-25T07:45:45.000Z</time>
      </trkpt>
      <trkpt lat="47.10021" lon="-1.4978">
        <ele>67</ele>
        <time>2021-09-25T07:45:47.000Z</time>
      </trkpt>
      <trkpt lat="47.10014" lon="-1.49764">
        <ele>67</ele>
        <time>2021-09-25T07:45:49.000Z</time>
      </trkpt>
      <trkpt lat="47.10007" lon="-1.49748">
        <ele>67</ele>
        <time>2021-09-25T07:45:51.000Z</time>
      </trkpt>
      <trkpt lat="47.1" lon="-1.49732">
        <ele>67</ele>
        <time>2021-09-25T07:45:53.000Z</time>
      </trkpt>
      <trkpt lat="47.09994" lon="-1.49716">
        <ele>67</ele>
        <time>2021-09-25T07:45:55.000Z</time>
      </trkpt>
      <trkpt lat="47.09987" lon="-1.49701">
        <ele>67</ele>
        <time>2021-09-25T07:45:57.000Z</time>
      </trkpt>
      <trkpt lat="47.0998" lon="-1.49685">
        <ele>67</ele>
        <time>2021-09-25T07:45:59.000Z</time>
      </trkpt>
      <trkpt lat="47.09973" lon="-1.4967">
        <ele>68</ele>
        <time>2021-09-25T07:46:01.000Z</time>
      </trkpt>
      <trkpt lat="47.09966" lon="-1.49656">
        <ele>68</ele>
        <time>2021-09-25T07:46:03.000Z</time>
      </trkpt>
      <trkpt lat="47.0996" lon="-1.49641">
        <ele>68</ele>
        <time>2021-09-25T07:46:05.000Z</time>
      </trkpt>
      <trkpt lat="47.09953" lon="-1.49626">
        <ele>68</ele>
        <time>2021-09-25T07:46:07.000Z</time>
      </trkpt>
      <trkpt lat="47.09946" lon="-1.49611">
        <ele>69</ele>
        <time>2021-09-25T07:46:09.000Z</time>
      </trkpt>
      <trkpt lat="47.0994" lon="-1.49597">
        <ele>69</ele>
        <time>2021-09-25T07:46:11.000Z</time>
      </trkpt>
      <trkpt lat="47.09934" lon="-1.49582">
        <ele>69</ele>
        <time>2021-09-25T07:46:13.000Z</time>
      </trkpt>
      <trkpt lat="47.09927" lon="-1.49568">
        <ele>69</ele>
        <time>2021-09-25T07:46:15.000Z</time>
      </trkpt>
      <trkpt lat="47.09921" lon="-1.49553">
        <ele>69</ele>
        <time>2021-09-25T07:46:17.000Z</time>
      </trkpt>
      <trkpt lat="47.09914" lon="-1.49538">
        <ele>69</ele>
        <time>2021-09-25T07:46:19.000Z</time>
      </trkpt>
      <trkpt lat="47.09908" lon="-1.49523">
        <ele>70</ele>
        <time>2021-09-25T07:46:21.000Z</time>
      </trkpt>
      <trkpt lat="47.09902" lon="-1.49509">
        <ele>70</ele>
        <time>2021-09-25T07:46:23.000Z</time>
      </trkpt>
      <trkpt lat="47.09895" lon="-1.49493">
        <ele>70</ele>
        <time>2021-09-25T07:46:25.000Z</time>
      </trkpt>
      <trkpt lat="47.0989" lon="-1.49478">
        <ele>70</ele>
        <time>2021-09-25T07:46:27.000Z</time>
      </trkpt>
      <trkpt lat="47.09885" lon="-1.49463">
        <ele>70</ele>
        <time>2021-09-25T07:46:29.000Z</time>
      </trkpt>
      <trkpt lat="47.0988" lon="-1.4945">
        <ele>70</ele>
        <time>2021-09-25T07:46:31.000Z</time>
      </trkpt>
      <trkpt lat="47.09875" lon="-1.49434">
        <ele>70</ele>
        <time>2021-09-25T07:46:33.000Z</time>
      </trkpt>
      <trkpt lat="47.09874" lon="-1.49416">
        <ele>70</ele>
        <time>2021-09-25T07:46:35.000Z</time>
      </trkpt>
      <trkpt lat="47.09872" lon="-1.49399">
        <ele>70</ele>
        <time>2021-09-25T07:46:37.000Z</time>
      </trkpt>
      <trkpt lat="47.09869" lon="-1.49381">
        <ele>70</ele>
        <time>2021-09-25T07:46:39.000Z</time>
      </trkpt>
      <trkpt lat="47.09867" lon="-1.49364">
        <ele>70</ele>
        <time>2021-09-25T07:46:41.000Z</time>
      </trkpt>
      <trkpt lat="47.09865" lon="-1.49347">
        <ele>70</ele>
        <time>2021-09-25T07:46:43.000Z</time>
      </trkpt>
      <trkpt lat="47.09863" lon="-1.49331">
        <ele>70</ele>
        <time>2021-09-25T07:46:45.000Z</time>
      </trkpt>
      <trkpt lat="47.0986" lon="-1.49313">
        <ele>71</ele>
        <time>2021-09-25T07:46:47.000Z</time>
      </trkpt>
      <trkpt lat="47.09859" lon="-1.49295">
        <ele>71</ele>
        <time>2021-09-25T07:46:49.000Z</time>
      </trkpt>
      <trkpt lat="47.09859" lon="-1.49278">
        <ele>71</ele>
        <time>2021-09-25T07:46:51.000Z</time>
      </trkpt>
      <trkpt lat="47.09858" lon="-1.49259">
        <ele>71</ele>
        <time>2021-09-25T07:46:53.000Z</time>
      </trkpt>
      <trkpt lat="47.09856" lon="-1.4924">
        <ele>70</ele>
        <time>2021-09-25T07:46:55.000Z</time>
      </trkpt>
      <trkpt lat="47.09855" lon="-1.49221">
        <ele>71</ele>
        <time>2021-09-25T07:46:57.000Z</time>
      </trkpt>
      <trkpt lat="47.09854" lon="-1.49201">
        <ele>71</ele>
        <time>2021-09-25T07:46:59.000Z</time>
      </trkpt>
      <trkpt lat="47.09854" lon="-1.49181">
        <ele>71</ele>
        <time>2021-09-25T07:47:01.000Z</time>
      </trkpt>
      <trkpt lat="47.09853" lon="-1.49162">
        <ele>70</ele>
        <time>2021-09-25T07:47:03.000Z</time>
      </trkpt>
      <trkpt lat="47.09853" lon="-1.49143">
        <ele>70</ele>
        <time>2021-09-25T07:47:05.000Z</time>
      </trkpt>
      <trkpt lat="47.09852" lon="-1.49124">
        <ele>70</ele>
        <time>2021-09-25T07:47:07.000Z</time>
      </trkpt>
      <trkpt lat="47.09849" lon="-1.49106">
        <ele>69</ele>
        <time>2021-09-25T07:47:09.000Z</time>
      </trkpt>
      <trkpt lat="47.09839" lon="-1.49094">
        <ele>70</ele>
        <time>2021-09-25T07:47:11.000Z</time>
      </trkpt>
      <trkpt lat="47.09827" lon="-1.49089">
        <ele>70</ele>
        <time>2021-09-25T07:47:13.000Z</time>
      </trkpt>
      <trkpt lat="47.09814" lon="-1.49083">
        <ele>69</ele>
        <time>2021-09-25T07:47:15.000Z</time>
      </trkpt>
      <trkpt lat="47.09802" lon="-1.49077">
        <ele>68</ele>
        <time>2021-09-25T07:47:17.000Z</time>
      </trkpt>
      <trkpt lat="47.09791" lon="-1.49073">
        <ele>68</ele>
        <time>2021-09-25T07:47:19.000Z</time>
      </trkpt>
      <trkpt lat="47.09782" lon="-1.49068">
        <ele>68</ele>
        <time>2021-09-25T07:47:21.000Z</time>
      </trkpt>
      <trkpt lat="47.09776" lon="-1.49051">
        <ele>68</ele>
        <time>2021-09-25T07:47:24.000Z</time>
      </trkpt>
      <trkpt lat="47.09779" lon="-1.49035">
        <ele>68</ele>
        <time>2021-09-25T07:47:26.000Z</time>
      </trkpt>
      <trkpt lat="47.0978" lon="-1.49017">
        <ele>68</ele>
        <time>2021-09-25T07:47:28.000Z</time>
      </trkpt>
      <trkpt lat="47.09783" lon="-1.48999">
        <ele>68</ele>
        <time>2021-09-25T07:47:30.000Z</time>
      </trkpt>
      <trkpt lat="47.09785" lon="-1.4898">
        <ele>69</ele>
        <time>2021-09-25T07:47:32.000Z</time>
      </trkpt>
      <trkpt lat="47.0979" lon="-1.48962">
        <ele>68</ele>
        <time>2021-09-25T07:47:34.000Z</time>
      </trkpt>
      <trkpt lat="47.09793" lon="-1.48945">
        <ele>68</ele>
        <time>2021-09-25T07:47:36.000Z</time>
      </trkpt>
      <trkpt lat="47.09796" lon="-1.48928">
        <ele>68</ele>
        <time>2021-09-25T07:47:38.000Z</time>
      </trkpt>
      <trkpt lat="47.09799" lon="-1.48911">
        <ele>68</ele>
        <time>2021-09-25T07:47:40.000Z</time>
      </trkpt>
      <trkpt lat="47.09798" lon="-1.48893">
        <ele>68</ele>
        <time>2021-09-25T07:47:42.000Z</time>
      </trkpt>
      <trkpt lat="47.09791" lon="-1.48875">
        <ele>68</ele>
        <time>2021-09-25T07:47:44.000Z</time>
      </trkpt>
      <trkpt lat="47.09784" lon="-1.48857">
        <ele>67</ele>
        <time>2021-09-25T07:47:46.000Z</time>
      </trkpt>
      <trkpt lat="47.09778" lon="-1.4884">
        <ele>67</ele>
        <time>2021-09-25T07:47:48.000Z</time>
      </trkpt>
      <trkpt lat="47.09771" lon="-1.48823">
        <ele>67</ele>
        <time>2021-09-25T07:47:50.000Z</time>
      </trkpt>
      <trkpt lat="47.09767" lon="-1.48805">
        <ele>68</ele>
        <time>2021-09-25T07:47:52.000Z</time>
      </trkpt>
      <trkpt lat="47.09765" lon="-1.48788">
        <ele>68</ele>
        <time>2021-09-25T07:47:54.000Z</time>
      </trkpt>
      <trkpt lat="47.09764" lon="-1.4877">
        <ele>68</ele>
        <time>2021-09-25T07:47:56.000Z</time>
      </trkpt>
      <trkpt lat="47.09767" lon="-1.48753">
        <ele>68</ele>
        <time>2021-09-25T07:47:58.000Z</time>
      </trkpt>
      <trkpt lat="47.09777" lon="-1.48742">
        <ele>68</ele>
        <time>2021-09-25T07:48:00.000Z</time>
      </trkpt>
      <trkpt lat="47.09786" lon="-1.48729">
        <ele>68</ele>
        <time>2021-09-25T07:48:02.000Z</time>
      </trkpt>
      <trkpt lat="47.09794" lon="-1.48715">
        <ele>68</ele>
        <time>2021-09-25T07:48:04.000Z</time>
      </trkpt>
      <trkpt lat="47.09802" lon="-1.48701">
        <ele>67</ele>
        <time>2021-09-25T07:48:06.000Z</time>
      </trkpt>
      <trkpt lat="47.09809" lon="-1.48687">
        <ele>68</ele>
        <time>2021-09-25T07:48:08.000Z</time>
      </trkpt>
      <trkpt lat="47.09816" lon="-1.48672">
        <ele>68</ele>
        <time>2021-09-25T07:48:10.000Z</time>
      </trkpt>
      <trkpt lat="47.09824" lon="-1.48659">
        <ele>68</ele>
        <time>2021-09-25T07:48:12.000Z</time>
      </trkpt>
      <trkpt lat="47.09832" lon="-1.48645">
        <ele>68</ele>
        <time>2021-09-25T07:48:14.000Z</time>
      </trkpt>
      <trkpt lat="47.0984" lon="-1.48631">
        <ele>67</ele>
        <time>2021-09-25T07:48:16.000Z</time>
      </trkpt>
      <trkpt lat="47.09848" lon="-1.48618">
        <ele>67</ele>
        <time>2021-09-25T07:48:18.000Z</time>
      </trkpt>
      <trkpt lat="47.09855" lon="-1.48605">
        <ele>67</ele>
        <time>2021-09-25T07:48:20.000Z</time>
      </trkpt>
      <trkpt lat="47.09861" lon="-1.48588">
        <ele>66</ele>
        <time>2021-09-25T07:48:22.000Z</time>
      </trkpt>
      <trkpt lat="47.09865" lon="-1.48571">
        <ele>66</ele>
        <time>2021-09-25T07:48:24.000Z</time>
      </trkpt>
      <trkpt lat="47.09868" lon="-1.48553">
        <ele>66</ele>
        <time>2021-09-25T07:48:26.000Z</time>
      </trkpt>
      <trkpt lat="47.09868" lon="-1.48535">
        <ele>66</ele>
        <time>2021-09-25T07:48:28.000Z</time>
      </trkpt>
      <trkpt lat="47.09868" lon="-1.48517">
        <ele>66</ele>
        <time>2021-09-25T07:48:30.000Z</time>
      </trkpt>
      <trkpt lat="47.09867" lon="-1.48499">
        <ele>66</ele>
        <time>2021-09-25T07:48:32.000Z</time>
      </trkpt>
      <trkpt lat="47.09866" lon="-1.48481">
        <ele>66</ele>
        <time>2021-09-25T07:48:34.000Z</time>
      </trkpt>
      <trkpt lat="47.09863" lon="-1.48464">
        <ele>66</ele>
        <time>2021-09-25T07:48:36.000Z</time>
      </trkpt>
      <trkpt lat="47.0986" lon="-1.48448">
        <ele>66</ele>
        <time>2021-09-25T07:48:38.000Z</time>
      </trkpt>
      <trkpt lat="47.09859" lon="-1.48431">
        <ele>66</ele>
        <time>2021-09-25T07:48:40.000Z</time>
      </trkpt>
      <trkpt lat="47.09857" lon="-1.48413">
        <ele>66</ele>
        <time>2021-09-25T07:48:42.000Z</time>
      </trkpt>
      <trkpt lat="47.09855" lon="-1.48395">
        <ele>66</ele>
        <time>2021-09-25T07:48:44.000Z</time>
      </trkpt>
      <trkpt lat="47.09854" lon="-1.48379">
        <ele>66</ele>
        <time>2021-09-25T07:48:46.000Z</time>
      </trkpt>
      <trkpt lat="47.09852" lon="-1.48362">
        <ele>67</ele>
        <time>2021-09-25T07:48:48.000Z</time>
      </trkpt>
      <trkpt lat="47.09851" lon="-1.48345">
        <ele>67</ele>
        <time>2021-09-25T07:48:50.000Z</time>
      </trkpt>
      <trkpt lat="47.0985" lon="-1.48327">
        <ele>67</ele>
        <time>2021-09-25T07:48:52.000Z</time>
      </trkpt>
      <trkpt lat="47.09849" lon="-1.4831">
        <ele>67</ele>
        <time>2021-09-25T07:48:54.000Z</time>
      </trkpt>
      <trkpt lat="47.09847" lon="-1.48291">
        <ele>67</ele>
        <time>2021-09-25T07:48:56.000Z</time>
      </trkpt>
      <trkpt lat="47.09844" lon="-1.48274">
        <ele>67</ele>
        <time>2021-09-25T07:48:58.000Z</time>
      </trkpt>
      <trkpt lat="47.09842" lon="-1.48257">
        <ele>67</ele>
        <time>2021-09-25T07:49:00.000Z</time>
      </trkpt>
      <trkpt lat="47.09841" lon="-1.48239">
        <ele>67</ele>
        <time>2021-09-25T07:49:02.000Z</time>
      </trkpt>
      <trkpt lat="47.09839" lon="-1.48222">
        <ele>68</ele>
        <time>2021-09-25T07:49:04.000Z</time>
      </trkpt>
      <trkpt lat="47.09838" lon="-1.48204">
        <ele>68</ele>
        <time>2021-09-25T07:49:06.000Z</time>
      </trkpt>
      <trkpt lat="47.09838" lon="-1.48187">
        <ele>68</ele>
        <time>2021-09-25T07:49:08.000Z</time>
      </trkpt>
      <trkpt lat="47.0984" lon="-1.48169">
        <ele>68</ele>
        <time>2021-09-25T07:49:10.000Z</time>
      </trkpt>
      <trkpt lat="47.09841" lon="-1.48151">
        <ele>68</ele>
        <time>2021-09-25T07:49:12.000Z</time>
      </trkpt>
      <trkpt lat="47.09842" lon="-1.48133">
        <ele>68</ele>
        <time>2021-09-25T07:49:14.000Z</time>
      </trkpt>
      <trkpt lat="47.09843" lon="-1.48116">
        <ele>67</ele>
        <time>2021-09-25T07:49:16.000Z</time>
      </trkpt>
      <trkpt lat="47.09843" lon="-1.48099">
        <ele>67</ele>
        <time>2021-09-25T07:49:18.000Z</time>
      </trkpt>
      <trkpt lat="47.09842" lon="-1.48081">
        <ele>67</ele>
        <time>2021-09-25T07:49:20.000Z</time>
      </trkpt>
      <trkpt lat="47.09841" lon="-1.48062">
        <ele>67</ele>
        <time>2021-09-25T07:49:22.000Z</time>
      </trkpt>
      <trkpt lat="47.0984" lon="-1.48042">
        <ele>68</ele>
        <time>2021-09-25T07:49:24.000Z</time>
      </trkpt>
      <trkpt lat="47.09838" lon="-1.48022">
        <ele>68</ele>
        <time>2021-09-25T07:49:26.000Z</time>
      </trkpt>
      <trkpt lat="47.09836" lon="-1.48004">
        <ele>68</ele>
        <time>2021-09-25T07:49:28.000Z</time>
      </trkpt>
      <trkpt lat="47.09834" lon="-1.47986">
        <ele>69</ele>
        <time>2021-09-25T07:49:30.000Z</time>
      </trkpt>
      <trkpt lat="47.09833" lon="-1.47968">
        <ele>69</ele>
        <time>2021-09-25T07:49:32.000Z</time>
      </trkpt>
      <trkpt lat="47.0983" lon="-1.47949">
        <ele>69</ele>
        <time>2021-09-25T07:49:34.000Z</time>
      </trkpt>
      <trkpt lat="47.09829" lon="-1.4793">
        <ele>69</ele>
        <time>2021-09-25T07:49:36.000Z</time>
      </trkpt>
      <trkpt lat="47.09828" lon="-1.47913">
        <ele>69</ele>
        <time>2021-09-25T07:49:38.000Z</time>
      </trkpt>
      <trkpt lat="47.09827" lon="-1.47895">
        <ele>69</ele>
        <time>2021-09-25T07:49:40.000Z</time>
      </trkpt>
      <trkpt lat="47.09825" lon="-1.47878">
        <ele>69</ele>
        <time>2021-09-25T07:49:42.000Z</time>
      </trkpt>
      <trkpt lat="47.09824" lon="-1.4786">
        <ele>69</ele>
        <time>2021-09-25T07:49:44.000Z</time>
      </trkpt>
      <trkpt lat="47.09822" lon="-1.47842">
        <ele>69</ele>
        <time>2021-09-25T07:49:46.000Z</time>
      </trkpt>
      <trkpt lat="47.09821" lon="-1.47824">
        <ele>69</ele>
        <time>2021-09-25T07:49:48.000Z</time>
      </trkpt>
      <trkpt lat="47.0982" lon="-1.47806">
        <ele>69</ele>
        <time>2021-09-25T07:49:50.000Z</time>
      </trkpt>
      <trkpt lat="47.09819" lon="-1.47788">
        <ele>69</ele>
        <time>2021-09-25T07:49:52.000Z</time>
      </trkpt>
      <trkpt lat="47.09817" lon="-1.4777">
        <ele>70</ele>
        <time>2021-09-25T07:49:54.000Z</time>
      </trkpt>
      <trkpt lat="47.09816" lon="-1.47753">
        <ele>70</ele>
        <time>2021-09-25T07:49:56.000Z</time>
      </trkpt>
      <trkpt lat="47.09816" lon="-1.47736">
        <ele>70</ele>
        <time>2021-09-25T07:49:58.000Z</time>
      </trkpt>
      <trkpt lat="47.09816" lon="-1.47719">
        <ele>70</ele>
        <time>2021-09-25T07:50:00.000Z</time>
      </trkpt>
      <trkpt lat="47.09816" lon="-1.47701">
        <ele>70</ele>
        <time>2021-09-25T07:50:02.000Z</time>
      </trkpt>
      <trkpt lat="47.09817" lon="-1.47684">
        <ele>70</ele>
        <time>2021-09-25T07:50:04.000Z</time>
      </trkpt>
      <trkpt lat="47.09818" lon="-1.47666">
        <ele>70</ele>
        <time>2021-09-25T07:50:06.000Z</time>
      </trkpt>
      <trkpt lat="47.09821" lon="-1.47651">
        <ele>70</ele>
        <time>2021-09-25T07:50:08.000Z</time>
      </trkpt>
      <trkpt lat="47.09823" lon="-1.47635">
        <ele>69</ele>
        <time>2021-09-25T07:50:10.000Z</time>
      </trkpt>
      <trkpt lat="47.09826" lon="-1.47621">
        <ele>70</ele>
        <time>2021-09-25T07:50:12.000Z</time>
      </trkpt>
      <trkpt lat="47.09829" lon="-1.47607">
        <ele>70</ele>
        <time>2021-09-25T07:50:14.000Z</time>
      </trkpt>
      <trkpt lat="47.09833" lon="-1.47593">
        <ele>71</ele>
        <time>2021-09-25T07:50:16.000Z</time>
      </trkpt>
      <trkpt lat="47.09837" lon="-1.47579">
        <ele>71</ele>
        <time>2021-09-25T07:50:18.000Z</time>
      </trkpt>
      <trkpt lat="47.09842" lon="-1.47565">
        <ele>72</ele>
        <time>2021-09-25T07:50:20.000Z</time>
      </trkpt>
      <trkpt lat="47.09847" lon="-1.47551">
        <ele>72</ele>
        <time>2021-09-25T07:50:22.000Z</time>
      </trkpt>
      <trkpt lat="47.09852" lon="-1.47539">
        <ele>72</ele>
        <time>2021-09-25T07:50:24.000Z</time>
      </trkpt>
      <trkpt lat="47.09858" lon="-1.47527">
        <ele>73</ele>
        <time>2021-09-25T07:50:26.000Z</time>
      </trkpt>
      <trkpt lat="47.09863" lon="-1.47516">
        <ele>74</ele>
        <time>2021-09-25T07:50:28.000Z</time>
      </trkpt>
      <trkpt lat="47.09869" lon="-1.47504">
        <ele>74</ele>
        <time>2021-09-25T07:50:30.000Z</time>
      </trkpt>
      <trkpt lat="47.09875" lon="-1.47493">
        <ele>75</ele>
        <time>2021-09-25T07:50:32.000Z</time>
      </trkpt>
      <trkpt lat="47.09881" lon="-1.47481">
        <ele>76</ele>
        <time>2021-09-25T07:50:34.000Z</time>
      </trkpt>
      <trkpt lat="47.09887" lon="-1.47471">
        <ele>76</ele>
        <time>2021-09-25T07:50:36.000Z</time>
      </trkpt>
      <trkpt lat="47.09893" lon="-1.4746">
        <ele>77</ele>
        <time>2021-09-25T07:50:38.000Z</time>
      </trkpt>
      <trkpt lat="47.09898" lon="-1.47449">
        <ele>77</ele>
        <time>2021-09-25T07:50:40.000Z</time>
      </trkpt>
      <trkpt lat="47.09904" lon="-1.47438">
        <ele>77</ele>
        <time>2021-09-25T07:50:42.000Z</time>
      </trkpt>
      <trkpt lat="47.0991" lon="-1.47427">
        <ele>78</ele>
        <time>2021-09-25T07:50:44.000Z</time>
      </trkpt>
      <trkpt lat="47.09916" lon="-1.47416">
        <ele>78</ele>
        <time>2021-09-25T07:50:46.000Z</time>
      </trkpt>
      <trkpt lat="47.09921" lon="-1.47405">
        <ele>79</ele>
        <time>2021-09-25T07:50:48.000Z</time>
      </trkpt>
      <trkpt lat="47.09928" lon="-1.47394">
        <ele>79</ele>
        <time>2021-09-25T07:50:50.000Z</time>
      </trkpt>
      <trkpt lat="47.09934" lon="-1.47382">
        <ele>80</ele>
        <time>2021-09-25T07:50:52.000Z</time>
      </trkpt>
      <trkpt lat="47.0994" lon="-1.47372">
        <ele>80</ele>
        <time>2021-09-25T07:50:54.000Z</time>
      </trkpt>
      <trkpt lat="47.09946" lon="-1.47361">
        <ele>80</ele>
        <time>2021-09-25T07:50:56.000Z</time>
      </trkpt>
      <trkpt lat="47.09952" lon="-1.47349">
        <ele>80</ele>
        <time>2021-09-25T07:50:58.000Z</time>
      </trkpt>
      <trkpt lat="47.09958" lon="-1.47337">
        <ele>81</ele>
        <time>2021-09-25T07:51:00.000Z</time>
      </trkpt>
      <trkpt lat="47.09964" lon="-1.47327">
        <ele>81</ele>
        <time>2021-09-25T07:51:02.000Z</time>
      </trkpt>
      <trkpt lat="47.09971" lon="-1.47316">
        <ele>82</ele>
        <time>2021-09-25T07:51:04.000Z</time>
      </trkpt>
      <trkpt lat="47.09977" lon="-1.47304">
        <ele>82</ele>
        <time>2021-09-25T07:51:06.000Z</time>
      </trkpt>
      <trkpt lat="47.09983" lon="-1.47293">
        <ele>82</ele>
        <time>2021-09-25T07:51:08.000Z</time>
      </trkpt>
      <trkpt lat="47.0999" lon="-1.47281">
        <ele>82</ele>
        <time>2021-09-25T07:51:10.000Z</time>
      </trkpt>
      <trkpt lat="47.09996" lon="-1.47269">
        <ele>82</ele>
        <time>2021-09-25T07:51:12.000Z</time>
      </trkpt>
      <trkpt lat="47.10002" lon="-1.47256">
        <ele>82</ele>
        <time>2021-09-25T07:51:14.000Z</time>
      </trkpt>
      <trkpt lat="47.10009" lon="-1.47244">
        <ele>82</ele>
        <time>2021-09-25T07:51:16.000Z</time>
      </trkpt>
      <trkpt lat="47.10015" lon="-1.47231">
        <ele>82</ele>
        <time>2021-09-25T07:51:18.000Z</time>
      </trkpt>
      <trkpt lat="47.10022" lon="-1.47218">
        <ele>82</ele>
        <time>2021-09-25T07:51:20.000Z</time>
      </trkpt>
      <trkpt lat="47.10029" lon="-1.47205">
        <ele>82</ele>
        <time>2021-09-25T07:51:22.000Z</time>
      </trkpt>
      <trkpt lat="47.10036" lon="-1.47192">
        <ele>82</ele>
        <time>2021-09-25T07:51:24.000Z</time>
      </trkpt>
      <trkpt lat="47.10043" lon="-1.47178">
        <ele>81</ele>
        <time>2021-09-25T07:51:26.000Z</time>
      </trkpt>
      <trkpt lat="47.1005" lon="-1.47164">
        <ele>81</ele>
        <time>2021-09-25T07:51:28.000Z</time>
      </trkpt>
      <trkpt lat="47.10057" lon="-1.4715">
        <ele>80</ele>
        <time>2021-09-25T07:51:30.000Z</time>
      </trkpt>
      <trkpt lat="47.10065" lon="-1.47134">
        <ele>80</ele>
        <time>2021-09-25T07:51:32.000Z</time>
      </trkpt>
      <trkpt lat="47.10071" lon="-1.47117">
        <ele>79</ele>
        <time>2021-09-25T07:51:34.000Z</time>
      </trkpt>
      <trkpt lat="47.10077" lon="-1.471">
        <ele>79</ele>
        <time>2021-09-25T07:51:36.000Z</time>
      </trkpt>
      <trkpt lat="47.10083" lon="-1.47083">
        <ele>78</ele>
        <time>2021-09-25T07:51:38.000Z</time>
      </trkpt>
      <trkpt lat="47.10088" lon="-1.47066">
        <ele>78</ele>
        <time>2021-09-25T07:51:40.000Z</time>
      </trkpt>
      <trkpt lat="47.10092" lon="-1.47049">
        <ele>78</ele>
        <time>2021-09-25T07:51:42.000Z</time>
      </trkpt>
      <trkpt lat="47.10096" lon="-1.47031">
        <ele>78</ele>
        <time>2021-09-25T07:51:44.000Z</time>
      </trkpt>
      <trkpt lat="47.10101" lon="-1.47015">
        <ele>78</ele>
        <time>2021-09-25T07:51:46.000Z</time>
      </trkpt>
      <trkpt lat="47.10105" lon="-1.46999">
        <ele>78</ele>
        <time>2021-09-25T07:51:48.000Z</time>
      </trkpt>
      <trkpt lat="47.10109" lon="-1.46983">
        <ele>78</ele>
        <time>2021-09-25T07:51:50.000Z</time>
      </trkpt>
      <trkpt lat="47.10113" lon="-1.46968">
        <ele>78</ele>
        <time>2021-09-25T07:51:52.000Z</time>
      </trkpt>
      <trkpt lat="47.10117" lon="-1.46954">
        <ele>79</ele>
        <time>2021-09-25T07:51:54.000Z</time>
      </trkpt>
      <trkpt lat="47.10122" lon="-1.46939">
        <ele>79</ele>
        <time>2021-09-25T07:51:56.000Z</time>
      </trkpt>
      <trkpt lat="47.10126" lon="-1.46923">
        <ele>79</ele>
        <time>2021-09-25T07:51:58.000Z</time>
      </trkpt>
      <trkpt lat="47.1013" lon="-1.46908">
        <ele>79</ele>
        <time>2021-09-25T07:52:00.000Z</time>
      </trkpt>
      <trkpt lat="47.10133" lon="-1.46893">
        <ele>79</ele>
        <time>2021-09-25T07:52:02.000Z</time>
      </trkpt>
      <trkpt lat="47.10137" lon="-1.46878">
        <ele>79</ele>
        <time>2021-09-25T07:52:04.000Z</time>
      </trkpt>
      <trkpt lat="47.10141" lon="-1.46862">
        <ele>80</ele>
        <time>2021-09-25T07:52:06.000Z</time>
      </trkpt>
      <trkpt lat="47.10145" lon="-1.46847">
        <ele>80</ele>
        <time>2021-09-25T07:52:08.000Z</time>
      </trkpt>
      <trkpt lat="47.10149" lon="-1.46831">
        <ele>81</ele>
        <time>2021-09-25T07:52:10.000Z</time>
      </trkpt>
      <trkpt lat="47.10152" lon="-1.46816">
        <ele>81</ele>
        <time>2021-09-25T07:52:12.000Z</time>
      </trkpt>
      <trkpt lat="47.10155" lon="-1.46801">
        <ele>81</ele>
        <time>2021-09-25T07:52:14.000Z</time>
      </trkpt>
      <trkpt lat="47.10158" lon="-1.46786">
        <ele>82</ele>
        <time>2021-09-25T07:52:16.000Z</time>
      </trkpt>
      <trkpt lat="47.10161" lon="-1.46772">
        <ele>82</ele>
        <time>2021-09-25T07:52:18.000Z</time>
      </trkpt>
      <trkpt lat="47.10164" lon="-1.46757">
        <ele>82</ele>
        <time>2021-09-25T07:52:20.000Z</time>
      </trkpt>
      <trkpt lat="47.10166" lon="-1.46742">
        <ele>82</ele>
        <time>2021-09-25T07:52:22.000Z</time>
      </trkpt>
      <trkpt lat="47.10168" lon="-1.46727">
        <ele>82</ele>
        <time>2021-09-25T07:52:24.000Z</time>
      </trkpt>
      <trkpt lat="47.10171" lon="-1.46711">
        <ele>82</ele>
        <time>2021-09-25T07:52:26.000Z</time>
      </trkpt>
      <trkpt lat="47.10172" lon="-1.46696">
        <ele>83</ele>
        <time>2021-09-25T07:52:28.000Z</time>
      </trkpt>
      <trkpt lat="47.10174" lon="-1.46681">
        <ele>83</ele>
        <time>2021-09-25T07:52:30.000Z</time>
      </trkpt>
      <trkpt lat="47.10176" lon="-1.46667">
        <ele>84</ele>
        <time>2021-09-25T07:52:32.000Z</time>
      </trkpt>
      <trkpt lat="47.10178" lon="-1.46653">
        <ele>84</ele>
        <time>2021-09-25T07:52:34.000Z</time>
      </trkpt>
      <trkpt lat="47.1018" lon="-1.46638">
        <ele>85</ele>
        <time>2021-09-25T07:52:36.000Z</time>
      </trkpt>
      <trkpt lat="47.10182" lon="-1.46624">
        <ele>86</ele>
        <time>2021-09-25T07:52:38.000Z</time>
      </trkpt>
      <trkpt lat="47.10184" lon="-1.4661">
        <ele>87</ele>
        <time>2021-09-25T07:52:40.000Z</time>
      </trkpt>
      <trkpt lat="47.10186" lon="-1.46594">
        <ele>87</ele>
        <time>2021-09-25T07:52:42.000Z</time>
      </trkpt>
      <trkpt lat="47.10188" lon="-1.4658">
        <ele>87</ele>
        <time>2021-09-25T07:52:44.000Z</time>
      </trkpt>
      <trkpt lat="47.1019" lon="-1.46566">
        <ele>87</ele>
        <time>2021-09-25T07:52:46.000Z</time>
      </trkpt>
      <trkpt lat="47.10191" lon="-1.46552">
        <ele>87</ele>
        <time>2021-09-25T07:52:48.000Z</time>
      </trkpt>
      <trkpt lat="47.10192" lon="-1.46537">
        <ele>88</ele>
        <time>2021-09-25T07:52:50.000Z</time>
      </trkpt>
      <trkpt lat="47.10194" lon="-1.46523">
        <ele>88</ele>
        <time>2021-09-25T07:52:52.000Z</time>
      </trkpt>
      <trkpt lat="47.10194" lon="-1.46509">
        <ele>88</ele>
        <time>2021-09-25T07:52:54.000Z</time>
      </trkpt>
      <trkpt lat="47.10195" lon="-1.46495">
        <ele>88</ele>
        <time>2021-09-25T07:52:56.000Z</time>
      </trkpt>
      <trkpt lat="47.10196" lon="-1.46481">
        <ele>89</ele>
        <time>2021-09-25T07:52:58.000Z</time>
      </trkpt>
      <trkpt lat="47.10197" lon="-1.46467">
        <ele>90</ele>
        <time>2021-09-25T07:53:00.000Z</time>
      </trkpt>
      <trkpt lat="47.10197" lon="-1.46452">
        <ele>90</ele>
        <time>2021-09-25T07:53:02.000Z</time>
      </trkpt>
      <trkpt lat="47.10198" lon="-1.46438">
        <ele>91</ele>
        <time>2021-09-25T07:53:04.000Z</time>
      </trkpt>
      <trkpt lat="47.10199" lon="-1.46423">
        <ele>92</ele>
        <time>2021-09-25T07:53:06.000Z</time>
      </trkpt>
      <trkpt lat="47.102" lon="-1.4641">
        <ele>92</ele>
        <time>2021-09-25T07:53:08.000Z</time>
      </trkpt>
      <trkpt lat="47.10202" lon="-1.46391">
        <ele>93</ele>
        <time>2021-09-25T07:53:11.000Z</time>
      </trkpt>
      <trkpt lat="47.10205" lon="-1.46378">
        <ele>93</ele>
        <time>2021-09-25T07:53:13.000Z</time>
      </trkpt>
      <trkpt lat="47.10208" lon="-1.46366">
        <ele>93</ele>
        <time>2021-09-25T07:53:15.000Z</time>
      </trkpt>
      <trkpt lat="47.10212" lon="-1.46353">
        <ele>93</ele>
        <time>2021-09-25T07:53:17.000Z</time>
      </trkpt>
      <trkpt lat="47.10217" lon="-1.46341">
        <ele>93</ele>
        <time>2021-09-25T07:53:19.000Z</time>
      </trkpt>
      <trkpt lat="47.10224" lon="-1.4633">
        <ele>93</ele>
        <time>2021-09-25T07:53:21.000Z</time>
      </trkpt>
      <trkpt lat="47.1023" lon="-1.46321">
        <ele>94</ele>
        <time>2021-09-25T07:53:23.000Z</time>
      </trkpt>
      <trkpt lat="47.10239" lon="-1.46306">
        <ele>95</ele>
        <time>2021-09-25T07:53:26.000Z</time>
      </trkpt>
      <trkpt lat="47.10245" lon="-1.46295">
        <ele>96</ele>
        <time>2021-09-25T07:53:28.000Z</time>
      </trkpt>
      <trkpt lat="47.10252" lon="-1.46285">
        <ele>96</ele>
        <time>2021-09-25T07:53:30.000Z</time>
      </trkpt>
      <trkpt lat="47.10259" lon="-1.46275">
        <ele>97</ele>
        <time>2021-09-25T07:53:32.000Z</time>
      </trkpt>
      <trkpt lat="47.10266" lon="-1.46265">
        <ele>97</ele>
        <time>2021-09-25T07:53:34.000Z</time>
      </trkpt>
      <trkpt lat="47.10274" lon="-1.46251">
        <ele>97</ele>
        <time>2021-09-25T07:53:37.000Z</time>
      </trkpt>
      <trkpt lat="47.10282" lon="-1.46239">
        <ele>98</ele>
        <time>2021-09-25T07:53:40.000Z</time>
      </trkpt>
      <trkpt lat="47.10289" lon="-1.46226">
        <ele>98</ele>
        <time>2021-09-25T07:53:44.000Z</time>
      </trkpt>
      <trkpt lat="47.10287" lon="-1.4621">
        <ele>98</ele>
        <time>2021-09-25T07:53:47.000Z</time>
      </trkpt>
      <trkpt lat="47.10282" lon="-1.46199">
        <ele>99</ele>
        <time>2021-09-25T07:53:49.000Z</time>
      </trkpt>
      <trkpt lat="47.10275" lon="-1.46185">
        <ele>99</ele>
        <time>2021-09-25T07:53:51.000Z</time>
      </trkpt>
      <trkpt lat="47.10267" lon="-1.46173">
        <ele>99</ele>
        <time>2021-09-25T07:53:53.000Z</time>
      </trkpt>
      <trkpt lat="47.10261" lon="-1.46161">
        <ele>99</ele>
        <time>2021-09-25T07:53:55.000Z</time>
      </trkpt>
      <trkpt lat="47.10253" lon="-1.46149">
        <ele>100</ele>
        <time>2021-09-25T07:53:57.000Z</time>
      </trkpt>
      <trkpt lat="47.10246" lon="-1.46137">
        <ele>100</ele>
        <time>2021-09-25T07:53:59.000Z</time>
      </trkpt>
      <trkpt lat="47.10239" lon="-1.46126">
        <ele>99</ele>
        <time>2021-09-25T07:54:01.000Z</time>
      </trkpt>
      <trkpt lat="47.10233" lon="-1.46113">
        <ele>99</ele>
        <time>2021-09-25T07:54:03.000Z</time>
      </trkpt>
      <trkpt lat="47.10226" lon="-1.46101">
        <ele>100</ele>
        <time>2021-09-25T07:54:05.000Z</time>
      </trkpt>
      <trkpt lat="47.10219" lon="-1.46089">
        <ele>100</ele>
        <time>2021-09-25T07:54:07.000Z</time>
      </trkpt>
      <trkpt lat="47.10212" lon="-1.46077">
        <ele>100</ele>
        <time>2021-09-25T07:54:09.000Z</time>
      </trkpt>
      <trkpt lat="47.10206" lon="-1.46065">
        <ele>101</ele>
        <time>2021-09-25T07:54:11.000Z</time>
      </trkpt>
      <trkpt lat="47.10199" lon="-1.46053">
        <ele>101</ele>
        <time>2021-09-25T07:54:13.000Z</time>
      </trkpt>
      <trkpt lat="47.10192" lon="-1.46041">
        <ele>101</ele>
        <time>2021-09-25T07:54:15.000Z</time>
      </trkpt>
      <trkpt lat="47.10185" lon="-1.46028">
        <ele>101</ele>
        <time>2021-09-25T07:54:17.000Z</time>
      </trkpt>
      <trkpt lat="47.10177" lon="-1.46015">
        <ele>101</ele>
        <time>2021-09-25T07:54:19.000Z</time>
      </trkpt>
      <trkpt lat="47.1017" lon="-1.46002">
        <ele>101</ele>
        <time>2021-09-25T07:54:21.000Z</time>
      </trkpt>
      <trkpt lat="47.10163" lon="-1.45989">
        <ele>101</ele>
        <time>2021-09-25T07:54:23.000Z</time>
      </trkpt>
      <trkpt lat="47.10156" lon="-1.45977">
        <ele>101</ele>
        <time>2021-09-25T07:54:25.000Z</time>
      </trkpt>
      <trkpt lat="47.10149" lon="-1.45964">
        <ele>101</ele>
        <time>2021-09-25T07:54:27.000Z</time>
      </trkpt>
      <trkpt lat="47.10143" lon="-1.45952">
        <ele>101</ele>
        <time>2021-09-25T07:54:29.000Z</time>
      </trkpt>
      <trkpt lat="47.10136" lon="-1.45939">
        <ele>101</ele>
        <time>2021-09-25T07:54:31.000Z</time>
      </trkpt>
      <trkpt lat="47.10129" lon="-1.45927">
        <ele>101</ele>
        <time>2021-09-25T07:54:33.000Z</time>
      </trkpt>
      <trkpt lat="47.10122" lon="-1.45914">
        <ele>101</ele>
        <time>2021-09-25T07:54:35.000Z</time>
      </trkpt>
      <trkpt lat="47.10115" lon="-1.45902">
        <ele>101</ele>
        <time>2021-09-25T07:54:37.000Z</time>
      </trkpt>
      <trkpt lat="47.10108" lon="-1.45889">
        <ele>101</ele>
        <time>2021-09-25T07:54:39.000Z</time>
      </trkpt>
      <trkpt lat="47.101" lon="-1.45876">
        <ele>101</ele>
        <time>2021-09-25T07:54:41.000Z</time>
      </trkpt>
      <trkpt lat="47.10093" lon="-1.45863">
        <ele>101</ele>
        <time>2021-09-25T07:54:43.000Z</time>
      </trkpt>
      <trkpt lat="47.10086" lon="-1.45849">
        <ele>100</ele>
        <time>2021-09-25T07:54:45.000Z</time>
      </trkpt>
      <trkpt lat="47.10078" lon="-1.45835">
        <ele>100</ele>
        <time>2021-09-25T07:54:47.000Z</time>
      </trkpt>
      <trkpt lat="47.10071" lon="-1.45821">
        <ele>100</ele>
        <time>2021-09-25T07:54:49.000Z</time>
      </trkpt>
      <trkpt lat="47.10064" lon="-1.45806">
        <ele>100</ele>
        <time>2021-09-25T07:54:51.000Z</time>
      </trkpt>
      <trkpt lat="47.10052" lon="-1.45784">
        <ele>100</ele>
        <time>2021-09-25T07:54:54.000Z</time>
      </trkpt>
      <trkpt lat="47.10044" lon="-1.45768">
        <ele>100</ele>
        <time>2021-09-25T07:54:56.000Z</time>
      </trkpt>
      <trkpt lat="47.10037" lon="-1.45753">
        <ele>100</ele>
        <time>2021-09-25T07:54:58.000Z</time>
      </trkpt>
      <trkpt lat="47.10029" lon="-1.45738">
        <ele>100</ele>
        <time>2021-09-25T07:55:00.000Z</time>
      </trkpt>
      <trkpt lat="47.10017" lon="-1.45716">
        <ele>100</ele>
        <time>2021-09-25T07:55:03.000Z</time>
      </trkpt>
      <trkpt lat="47.10009" lon="-1.45701">
        <ele>100</ele>
        <time>2021-09-25T07:55:05.000Z</time>
      </trkpt>
      <trkpt lat="47.10002" lon="-1.45686">
        <ele>99</ele>
        <time>2021-09-25T07:55:07.000Z</time>
      </trkpt>
      <trkpt lat="47.0999" lon="-1.45664">
        <ele>99</ele>
        <time>2021-09-25T07:55:10.000Z</time>
      </trkpt>
      <trkpt lat="47.09978" lon="-1.45641">
        <ele>100</ele>
        <time>2021-09-25T07:55:13.000Z</time>
      </trkpt>
      <trkpt lat="47.0997" lon="-1.45627">
        <ele>100</ele>
        <time>2021-09-25T07:55:15.000Z</time>
      </trkpt>
      <trkpt lat="47.09962" lon="-1.45611">
        <ele>100</ele>
        <time>2021-09-25T07:55:17.000Z</time>
      </trkpt>
      <trkpt lat="47.09955" lon="-1.45597">
        <ele>100</ele>
        <time>2021-09-25T07:55:19.000Z</time>
      </trkpt>
      <trkpt lat="47.09948" lon="-1.45582">
        <ele>100</ele>
        <time>2021-09-25T07:55:21.000Z</time>
      </trkpt>
      <trkpt lat="47.09941" lon="-1.45567">
        <ele>100</ele>
        <time>2021-09-25T07:55:23.000Z</time>
      </trkpt>
      <trkpt lat="47.09933" lon="-1.45552">
        <ele>100</ele>
        <time>2021-09-25T07:55:25.000Z</time>
      </trkpt>
      <trkpt lat="47.09926" lon="-1.45537">
        <ele>100</ele>
        <time>2021-09-25T07:55:27.000Z</time>
      </trkpt>
      <trkpt lat="47.09919" lon="-1.45521">
        <ele>100</ele>
        <time>2021-09-25T07:55:29.000Z</time>
      </trkpt>
      <trkpt lat="47.09912" lon="-1.45505">
        <ele>100</ele>
        <time>2021-09-25T07:55:31.000Z</time>
      </trkpt>
      <trkpt lat="47.09905" lon="-1.45488">
        <ele>100</ele>
        <time>2021-09-25T07:55:33.000Z</time>
      </trkpt>
      <trkpt lat="47.09897" lon="-1.45472">
        <ele>99</ele>
        <time>2021-09-25T07:55:35.000Z</time>
      </trkpt>
      <trkpt lat="47.0989" lon="-1.45456">
        <ele>99</ele>
        <time>2021-09-25T07:55:37.000Z</time>
      </trkpt>
      <trkpt lat="47.09883" lon="-1.4544">
        <ele>99</ele>
        <time>2021-09-25T07:55:39.000Z</time>
      </trkpt>
      <trkpt lat="47.09876" lon="-1.45423">
        <ele>99</ele>
        <time>2021-09-25T07:55:41.000Z</time>
      </trkpt>
      <trkpt lat="47.09869" lon="-1.45407">
        <ele>98</ele>
        <time>2021-09-25T07:55:43.000Z</time>
      </trkpt>
      <trkpt lat="47.09862" lon="-1.45391">
        <ele>98</ele>
        <time>2021-09-25T07:55:45.000Z</time>
      </trkpt>
      <trkpt lat="47.09855" lon="-1.45376">
        <ele>98</ele>
        <time>2021-09-25T07:55:47.000Z</time>
      </trkpt>
      <trkpt lat="47.09848" lon="-1.45359">
        <ele>97</ele>
        <time>2021-09-25T07:55:49.000Z</time>
      </trkpt>
      <trkpt lat="47.09841" lon="-1.45343">
        <ele>97</ele>
        <time>2021-09-25T07:55:51.000Z</time>
      </trkpt>
      <trkpt lat="47.09834" lon="-1.45327">
        <ele>97</ele>
        <time>2021-09-25T07:55:53.000Z</time>
      </trkpt>
      <trkpt lat="47.09827" lon="-1.45311">
        <ele>97</ele>
        <time>2021-09-25T07:55:55.000Z</time>
      </trkpt>
      <trkpt lat="47.0982" lon="-1.45294">
        <ele>97</ele>
        <time>2021-09-25T07:55:57.000Z</time>
      </trkpt>
      <trkpt lat="47.09812" lon="-1.45277">
        <ele>96</ele>
        <time>2021-09-25T07:55:59.000Z</time>
      </trkpt>
      <trkpt lat="47.09805" lon="-1.45261">
        <ele>96</ele>
        <time>2021-09-25T07:56:01.000Z</time>
      </trkpt>
      <trkpt lat="47.09798" lon="-1.45245">
        <ele>96</ele>
        <time>2021-09-25T07:56:03.000Z</time>
      </trkpt>
      <trkpt lat="47.09791" lon="-1.45229">
        <ele>96</ele>
        <time>2021-09-25T07:56:05.000Z</time>
      </trkpt>
      <trkpt lat="47.09783" lon="-1.45213">
        <ele>96</ele>
        <time>2021-09-25T07:56:07.000Z</time>
      </trkpt>
      <trkpt lat="47.09776" lon="-1.45197">
        <ele>96</ele>
        <time>2021-09-25T07:56:09.000Z</time>
      </trkpt>
      <trkpt lat="47.09769" lon="-1.45181">
        <ele>96</ele>
        <time>2021-09-25T07:56:11.000Z</time>
      </trkpt>
      <trkpt lat="47.09762" lon="-1.45166">
        <ele>96</ele>
        <time>2021-09-25T07:56:13.000Z</time>
      </trkpt>
      <trkpt lat="47.09754" lon="-1.4515">
        <ele>97</ele>
        <time>2021-09-25T07:56:15.000Z</time>
      </trkpt>
      <trkpt lat="47.09747" lon="-1.45135">
        <ele>97</ele>
        <time>2021-09-25T07:56:17.000Z</time>
      </trkpt>
      <trkpt lat="47.0974" lon="-1.45119">
        <ele>97</ele>
        <time>2021-09-25T07:56:19.000Z</time>
      </trkpt>
      <trkpt lat="47.09733" lon="-1.45103">
        <ele>97</ele>
        <time>2021-09-25T07:56:21.000Z</time>
      </trkpt>
      <trkpt lat="47.09726" lon="-1.45089">
        <ele>97</ele>
        <time>2021-09-25T07:56:23.000Z</time>
      </trkpt>
      <trkpt lat="47.09719" lon="-1.45074">
        <ele>96</ele>
        <time>2021-09-25T07:56:25.000Z</time>
      </trkpt>
      <trkpt lat="47.09712" lon="-1.45059">
        <ele>96</ele>
        <time>2021-09-25T07:56:27.000Z</time>
      </trkpt>
      <trkpt lat="47.09705" lon="-1.45044">
        <ele>97</ele>
        <time>2021-09-25T07:56:29.000Z</time>
      </trkpt>
      <trkpt lat="47.09698" lon="-1.45029">
        <ele>96</ele>
        <time>2021-09-25T07:56:31.000Z</time>
      </trkpt>
      <trkpt lat="47.09691" lon="-1.45015">
        <ele>96</ele>
        <time>2021-09-25T07:56:33.000Z</time>
      </trkpt>
      <trkpt lat="47.09684" lon="-1.45001">
        <ele>96</ele>
        <time>2021-09-25T07:56:35.000Z</time>
      </trkpt>
      <trkpt lat="47.09676" lon="-1.44988">
        <ele>96</ele>
        <time>2021-09-25T07:56:37.000Z</time>
      </trkpt>
      <trkpt lat="47.09667" lon="-1.44975">
        <ele>96</ele>
        <time>2021-09-25T07:56:39.000Z</time>
      </trkpt>
      <trkpt lat="47.09658" lon="-1.44966">
        <ele>96</ele>
        <time>2021-09-25T07:56:41.000Z</time>
      </trkpt>
      <trkpt lat="47.09646" lon="-1.44961">
        <ele>96</ele>
        <time>2021-09-25T07:56:43.000Z</time>
      </trkpt>
      <trkpt lat="47.09635" lon="-1.44953">
        <ele>96</ele>
        <time>2021-09-25T07:56:45.000Z</time>
      </trkpt>
      <trkpt lat="47.09628" lon="-1.44938">
        <ele>96</ele>
        <time>2021-09-25T07:56:47.000Z</time>
      </trkpt>
      <trkpt lat="47.09628" lon="-1.44917">
        <ele>96</ele>
        <time>2021-09-25T07:56:49.000Z</time>
      </trkpt>
      <trkpt lat="47.09634" lon="-1.44899">
        <ele>96</ele>
        <time>2021-09-25T07:56:51.000Z</time>
      </trkpt>
      <trkpt lat="47.09645" lon="-1.44886">
        <ele>95</ele>
        <time>2021-09-25T07:56:53.000Z</time>
      </trkpt>
      <trkpt lat="47.09658" lon="-1.4488">
        <ele>95</ele>
        <time>2021-09-25T07:56:55.000Z</time>
      </trkpt>
      <trkpt lat="47.09668" lon="-1.44868">
        <ele>94</ele>
        <time>2021-09-25T07:56:57.000Z</time>
      </trkpt>
      <trkpt lat="47.09676" lon="-1.44853">
        <ele>94</ele>
        <time>2021-09-25T07:56:59.000Z</time>
      </trkpt>
      <trkpt lat="47.09683" lon="-1.44836">
        <ele>93</ele>
        <time>2021-09-25T07:57:01.000Z</time>
      </trkpt>
      <trkpt lat="47.09687" lon="-1.44818">
        <ele>93</ele>
        <time>2021-09-25T07:57:03.000Z</time>
      </trkpt>
      <trkpt lat="47.09687" lon="-1.44799">
        <ele>93</ele>
        <time>2021-09-25T07:57:05.000Z</time>
      </trkpt>
      <trkpt lat="47.09682" lon="-1.44782">
        <ele>93</ele>
        <time>2021-09-25T07:57:07.000Z</time>
      </trkpt>
      <trkpt lat="47.09676" lon="-1.44767">
        <ele>93</ele>
        <time>2021-09-25T07:57:09.000Z</time>
      </trkpt>
      <trkpt lat="47.09668" lon="-1.44753">
        <ele>94</ele>
        <time>2021-09-25T07:57:11.000Z</time>
      </trkpt>
      <trkpt lat="47.09659" lon="-1.44739">
        <ele>94</ele>
        <time>2021-09-25T07:57:13.000Z</time>
      </trkpt>
      <trkpt lat="47.09653" lon="-1.44723">
        <ele>94</ele>
        <time>2021-09-25T07:57:15.000Z</time>
      </trkpt>
      <trkpt lat="47.09648" lon="-1.44706">
        <ele>95</ele>
        <time>2021-09-25T07:57:17.000Z</time>
      </trkpt>
      <trkpt lat="47.09646" lon="-1.44689">
        <ele>95</ele>
        <time>2021-09-25T07:57:19.000Z</time>
      </trkpt>
      <trkpt lat="47.09647" lon="-1.44673">
        <ele>95</ele>
        <time>2021-09-25T07:57:21.000Z</time>
      </trkpt>
      <trkpt lat="47.09649" lon="-1.44657">
        <ele>95</ele>
        <time>2021-09-25T07:57:23.000Z</time>
      </trkpt>
      <trkpt lat="47.09654" lon="-1.44642">
        <ele>96</ele>
        <time>2021-09-25T07:57:25.000Z</time>
      </trkpt>
      <trkpt lat="47.09661" lon="-1.44629">
        <ele>96</ele>
        <time>2021-09-25T07:57:27.000Z</time>
      </trkpt>
      <trkpt lat="47.09669" lon="-1.44617">
        <ele>95</ele>
        <time>2021-09-25T07:57:29.000Z</time>
      </trkpt>
      <trkpt lat="47.09679" lon="-1.44608">
        <ele>95</ele>
        <time>2021-09-25T07:57:31.000Z</time>
      </trkpt>
      <trkpt lat="47.0969" lon="-1.44599">
        <ele>95</ele>
        <time>2021-09-25T07:57:33.000Z</time>
      </trkpt>
      <trkpt lat="47.09701" lon="-1.44591">
        <ele>94</ele>
        <time>2021-09-25T07:57:35.000Z</time>
      </trkpt>
      <trkpt lat="47.09712" lon="-1.44584">
        <ele>95</ele>
        <time>2021-09-25T07:57:37.000Z</time>
      </trkpt>
      <trkpt lat="47.09724" lon="-1.44578">
        <ele>95</ele>
        <time>2021-09-25T07:57:39.000Z</time>
      </trkpt>
      <trkpt lat="47.09735" lon="-1.44571">
        <ele>94</ele>
        <time>2021-09-25T07:57:41.000Z</time>
      </trkpt>
      <trkpt lat="47.09747" lon="-1.44565">
        <ele>94</ele>
        <time>2021-09-25T07:57:43.000Z</time>
      </trkpt>
      <trkpt lat="47.0976" lon="-1.44558">
        <ele>94</ele>
        <time>2021-09-25T07:57:45.000Z</time>
      </trkpt>
      <trkpt lat="47.09773" lon="-1.44552">
        <ele>94</ele>
        <time>2021-09-25T07:57:47.000Z</time>
      </trkpt>
      <trkpt lat="47.09786" lon="-1.44547">
        <ele>93</ele>
        <time>2021-09-25T07:57:49.000Z</time>
      </trkpt>
      <trkpt lat="47.09799" lon="-1.44542">
        <ele>93</ele>
        <time>2021-09-25T07:57:51.000Z</time>
      </trkpt>
      <trkpt lat="47.09813" lon="-1.44537">
        <ele>92</ele>
        <time>2021-09-25T07:57:53.000Z</time>
      </trkpt>
      <trkpt lat="47.09827" lon="-1.44532">
        <ele>91</ele>
        <time>2021-09-25T07:57:55.000Z</time>
      </trkpt>
      <trkpt lat="47.09841" lon="-1.44526">
        <ele>90</ele>
        <time>2021-09-25T07:57:57.000Z</time>
      </trkpt>
      <trkpt lat="47.09856" lon="-1.44521">
        <ele>90</ele>
        <time>2021-09-25T07:57:59.000Z</time>
      </trkpt>
      <trkpt lat="47.09871" lon="-1.44515">
        <ele>89</ele>
        <time>2021-09-25T07:58:01.000Z</time>
      </trkpt>
      <trkpt lat="47.09885" lon="-1.44509">
        <ele>88</ele>
        <time>2021-09-25T07:58:03.000Z</time>
      </trkpt>
      <trkpt lat="47.09901" lon="-1.44504">
        <ele>87</ele>
        <time>2021-09-25T07:58:05.000Z</time>
      </trkpt>
      <trkpt lat="47.09916" lon="-1.44498">
        <ele>86</ele>
        <time>2021-09-25T07:58:07.000Z</time>
      </trkpt>
      <trkpt lat="47.09931" lon="-1.44492">
        <ele>85</ele>
        <time>2021-09-25T07:58:09.000Z</time>
      </trkpt>
      <trkpt lat="47.09947" lon="-1.44486">
        <ele>84</ele>
        <time>2021-09-25T07:58:11.000Z</time>
      </trkpt>
      <trkpt lat="47.09963" lon="-1.44481">
        <ele>84</ele>
        <time>2021-09-25T07:58:13.000Z</time>
      </trkpt>
      <trkpt lat="47.09979" lon="-1.44475">
        <ele>83</ele>
        <time>2021-09-25T07:58:15.000Z</time>
      </trkpt>
      <trkpt lat="47.09995" lon="-1.44468">
        <ele>82</ele>
        <time>2021-09-25T07:58:17.000Z</time>
      </trkpt>
      <trkpt lat="47.1001" lon="-1.44462">
        <ele>81</ele>
        <time>2021-09-25T07:58:19.000Z</time>
      </trkpt>
      <trkpt lat="47.10026" lon="-1.44456">
        <ele>80</ele>
        <time>2021-09-25T07:58:21.000Z</time>
      </trkpt>
      <trkpt lat="47.10042" lon="-1.4445">
        <ele>80</ele>
        <time>2021-09-25T07:58:23.000Z</time>
      </trkpt>
      <trkpt lat="47.10058" lon="-1.44444">
        <ele>79</ele>
        <time>2021-09-25T07:58:25.000Z</time>
      </trkpt>
      <trkpt lat="47.10074" lon="-1.44438">
        <ele>79</ele>
        <time>2021-09-25T07:58:27.000Z</time>
      </trkpt>
      <trkpt lat="47.10089" lon="-1.44433">
        <ele>79</ele>
        <time>2021-09-25T07:58:29.000Z</time>
      </trkpt>
      <trkpt lat="47.10105" lon="-1.44426">
        <ele>79</ele>
        <time>2021-09-25T07:58:31.000Z</time>
      </trkpt>
      <trkpt lat="47.1012" lon="-1.44418">
        <ele>78</ele>
        <time>2021-09-25T07:58:33.000Z</time>
      </trkpt>
      <trkpt lat="47.10134" lon="-1.44408">
        <ele>77</ele>
        <time>2021-09-25T07:58:35.000Z</time>
      </trkpt>
      <trkpt lat="47.10147" lon="-1.44396">
        <ele>77</ele>
        <time>2021-09-25T07:58:37.000Z</time>
      </trkpt>
      <trkpt lat="47.10159" lon="-1.44382">
        <ele>77</ele>
        <time>2021-09-25T07:58:39.000Z</time>
      </trkpt>
      <trkpt lat="47.10171" lon="-1.44369">
        <ele>77</ele>
        <time>2021-09-25T07:58:41.000Z</time>
      </trkpt>
      <trkpt lat="47.10183" lon="-1.44356">
        <ele>76</ele>
        <time>2021-09-25T07:58:43.000Z</time>
      </trkpt>
      <trkpt lat="47.10194" lon="-1.44343">
        <ele>76</ele>
        <time>2021-09-25T07:58:45.000Z</time>
      </trkpt>
      <trkpt lat="47.10205" lon="-1.44329">
        <ele>76</ele>
        <time>2021-09-25T07:58:47.000Z</time>
      </trkpt>
      <trkpt lat="47.10216" lon="-1.44316">
        <ele>76</ele>
        <time>2021-09-25T07:58:49.000Z</time>
      </trkpt>
      <trkpt lat="47.10227" lon="-1.44304">
        <ele>76</ele>
        <time>2021-09-25T07:58:51.000Z</time>
      </trkpt>
      <trkpt lat="47.10237" lon="-1.44291">
        <ele>76</ele>
        <time>2021-09-25T07:58:53.000Z</time>
      </trkpt>
      <trkpt lat="47.10247" lon="-1.44278">
        <ele>76</ele>
        <time>2021-09-25T07:58:55.000Z</time>
      </trkpt>
      <trkpt lat="47.10258" lon="-1.44266">
        <ele>76</ele>
        <time>2021-09-25T07:58:57.000Z</time>
      </trkpt>
      <trkpt lat="47.10269" lon="-1.44254">
        <ele>76</ele>
        <time>2021-09-25T07:58:59.000Z</time>
      </trkpt>
      <trkpt lat="47.1028" lon="-1.44244">
        <ele>76</ele>
        <time>2021-09-25T07:59:01.000Z</time>
      </trkpt>
      <trkpt lat="47.10292" lon="-1.44235">
        <ele>75</ele>
        <time>2021-09-25T07:59:03.000Z</time>
      </trkpt>
      <trkpt lat="47.10304" lon="-1.44227">
        <ele>75</ele>
        <time>2021-09-25T07:59:05.000Z</time>
      </trkpt>
      <trkpt lat="47.10317" lon="-1.44221">
        <ele>75</ele>
        <time>2021-09-25T07:59:07.000Z</time>
      </trkpt>
      <trkpt lat="47.10331" lon="-1.44214">
        <ele>75</ele>
        <time>2021-09-25T07:59:09.000Z</time>
      </trkpt>
      <trkpt lat="47.10344" lon="-1.44208">
        <ele>75</ele>
        <time>2021-09-25T07:59:11.000Z</time>
      </trkpt>
      <trkpt lat="47.10357" lon="-1.44202">
        <ele>75</ele>
        <time>2021-09-25T07:59:13.000Z</time>
      </trkpt>
      <trkpt lat="47.10369" lon="-1.44196">
        <ele>75</ele>
        <time>2021-09-25T07:59:15.000Z</time>
      </trkpt>
      <trkpt lat="47.10382" lon="-1.44191">
        <ele>75</ele>
        <time>2021-09-25T07:59:17.000Z</time>
      </trkpt>
      <trkpt lat="47.10395" lon="-1.44184">
        <ele>75</ele>
        <time>2021-09-25T07:59:19.000Z</time>
      </trkpt>
      <trkpt lat="47.10407" lon="-1.44178">
        <ele>75</ele>
        <time>2021-09-25T07:59:21.000Z</time>
      </trkpt>
      <trkpt lat="47.1042" lon="-1.44172">
        <ele>75</ele>
        <time>2021-09-25T07:59:23.000Z</time>
      </trkpt>
      <trkpt lat="47.10433" lon="-1.44166">
        <ele>75</ele>
        <time>2021-09-25T07:59:25.000Z</time>
      </trkpt>
      <trkpt lat="47.10445" lon="-1.44161">
        <ele>75</ele>
        <time>2021-09-25T07:59:27.000Z</time>
      </trkpt>
      <trkpt lat="47.10457" lon="-1.44155">
        <ele>75</ele>
        <time>2021-09-25T07:59:29.000Z</time>
      </trkpt>
      <trkpt lat="47.10469" lon="-1.44148">
        <ele>75</ele>
        <time>2021-09-25T07:59:31.000Z</time>
      </trkpt>
      <trkpt lat="47.10481" lon="-1.44142">
        <ele>75</ele>
        <time>2021-09-25T07:59:33.000Z</time>
      </trkpt>
      <trkpt lat="47.10491" lon="-1.44136">
        <ele>76</ele>
        <time>2021-09-25T07:59:35.000Z</time>
      </trkpt>
      <trkpt lat="47.10502" lon="-1.44129">
        <ele>76</ele>
        <time>2021-09-25T07:59:37.000Z</time>
      </trkpt>
      <trkpt lat="47.10513" lon="-1.44122">
        <ele>76</ele>
        <time>2021-09-25T07:59:39.000Z</time>
      </trkpt>
      <trkpt lat="47.10523" lon="-1.44115">
        <ele>76</ele>
        <time>2021-09-25T07:59:41.000Z</time>
      </trkpt>
      <trkpt lat="47.10533" lon="-1.44107">
        <ele>77</ele>
        <time>2021-09-25T07:59:43.000Z</time>
      </trkpt>
      <trkpt lat="47.10543" lon="-1.44098">
        <ele>76</ele>
        <time>2021-09-25T07:59:45.000Z</time>
      </trkpt>
      <trkpt lat="47.10554" lon="-1.44089">
        <ele>77</ele>
        <time>2021-09-25T07:59:47.000Z</time>
      </trkpt>
      <trkpt lat="47.10563" lon="-1.44081">
        <ele>76</ele>
        <time>2021-09-25T07:59:49.000Z</time>
      </trkpt>
      <trkpt lat="47.10572" lon="-1.44071">
        <ele>77</ele>
        <time>2021-09-25T07:59:51.000Z</time>
      </trkpt>
      <trkpt lat="47.10581" lon="-1.44061">
        <ele>77</ele>
        <time>2021-09-25T07:59:53.000Z</time>
      </trkpt>
      <trkpt lat="47.1059" lon="-1.44053">
        <ele>77</ele>
        <time>2021-09-25T07:59:55.000Z</time>
      </trkpt>
      <trkpt lat="47.106" lon="-1.44045">
        <ele>77</ele>
        <time>2021-09-25T07:59:57.000Z</time>
      </trkpt>
      <trkpt lat="47.1061" lon="-1.44037">
        <ele>77</ele>
        <time>2021-09-25T07:59:59.000Z</time>
      </trkpt>
      <trkpt lat="47.1062" lon="-1.44031">
        <ele>77</ele>
        <time>2021-09-25T08:00:01.000Z</time>
      </trkpt>
      <trkpt lat="47.1063" lon="-1.44025">
        <ele>78</ele>
        <time>2021-09-25T08:00:03.000Z</time>
      </trkpt>
      <trkpt lat="47.1064" lon="-1.44019">
        <ele>78</ele>
        <time>2021-09-25T08:00:05.000Z</time>
      </trkpt>
      <trkpt lat="47.1065" lon="-1.44012">
        <ele>78</ele>
        <time>2021-09-25T08:00:07.000Z</time>
      </trkpt>
      <trkpt lat="47.1066" lon="-1.44006">
        <ele>78</ele>
        <time>2021-09-25T08:00:09.000Z</time>
      </trkpt>
      <trkpt lat="47.1067" lon="-1.44001">
        <ele>78</ele>
        <time>2021-09-25T08:00:11.000Z</time>
      </trkpt>
      <trkpt lat="47.10679" lon="-1.43995">
        <ele>78</ele>
        <time>2021-09-25T08:00:13.000Z</time>
      </trkpt>
      <trkpt lat="47.10689" lon="-1.4399">
        <ele>79</ele>
        <time>2021-09-25T08:00:15.000Z</time>
      </trkpt>
      <trkpt lat="47.10699" lon="-1.43985">
        <ele>79</ele>
        <time>2021-09-25T08:00:17.000Z</time>
      </trkpt>
      <trkpt lat="47.10708" lon="-1.43978">
        <ele>80</ele>
        <time>2021-09-25T08:00:19.000Z</time>
      </trkpt>
      <trkpt lat="47.10716" lon="-1.43971">
        <ele>80</ele>
        <time>2021-09-25T08:00:21.000Z</time>
      </trkpt>
      <trkpt lat="47.10725" lon="-1.43963">
        <ele>80</ele>
        <time>2021-09-25T08:00:23.000Z</time>
      </trkpt>
      <trkpt lat="47.10734" lon="-1.43954">
        <ele>81</ele>
        <time>2021-09-25T08:00:25.000Z</time>
      </trkpt>
      <trkpt lat="47.10743" lon="-1.43945">
        <ele>81</ele>
        <time>2021-09-25T08:00:27.000Z</time>
      </trkpt>
      <trkpt lat="47.10752" lon="-1.43936">
        <ele>81</ele>
        <time>2021-09-25T08:00:29.000Z</time>
      </trkpt>
      <trkpt lat="47.10761" lon="-1.43927">
        <ele>82</ele>
        <time>2021-09-25T08:00:31.000Z</time>
      </trkpt>
      <trkpt lat="47.1077" lon="-1.4392">
        <ele>82</ele>
        <time>2021-09-25T08:00:33.000Z</time>
      </trkpt>
      <trkpt lat="47.1078" lon="-1.43912">
        <ele>83</ele>
        <time>2021-09-25T08:00:35.000Z</time>
      </trkpt>
      <trkpt lat="47.10788" lon="-1.43904">
        <ele>83</ele>
        <time>2021-09-25T08:00:37.000Z</time>
      </trkpt>
      <trkpt lat="47.10796" lon="-1.43896">
        <ele>83</ele>
        <time>2021-09-25T08:00:39.000Z</time>
      </trkpt>
      <trkpt lat="47.10805" lon="-1.43888">
        <ele>84</ele>
        <time>2021-09-25T08:00:41.000Z</time>
      </trkpt>
      <trkpt lat="47.10814" lon="-1.43881">
        <ele>84</ele>
        <time>2021-09-25T08:00:43.000Z</time>
      </trkpt>
      <trkpt lat="47.10822" lon="-1.43875">
        <ele>84</ele>
        <time>2021-09-25T08:00:45.000Z</time>
      </trkpt>
      <trkpt lat="47.10831" lon="-1.43867">
        <ele>85</ele>
        <time>2021-09-25T08:00:47.000Z</time>
      </trkpt>
      <trkpt lat="47.1084" lon="-1.43858">
        <ele>85</ele>
        <time>2021-09-25T08:00:49.000Z</time>
      </trkpt>
      <trkpt lat="47.10848" lon="-1.4385">
        <ele>85</ele>
        <time>2021-09-25T08:00:51.000Z</time>
      </trkpt>
      <trkpt lat="47.10857" lon="-1.43841">
        <ele>86</ele>
        <time>2021-09-25T08:00:53.000Z</time>
      </trkpt>
      <trkpt lat="47.10865" lon="-1.43833">
        <ele>87</ele>
        <time>2021-09-25T08:00:55.000Z</time>
      </trkpt>
      <trkpt lat="47.10875" lon="-1.43826">
        <ele>87</ele>
        <time>2021-09-25T08:00:57.000Z</time>
      </trkpt>
      <trkpt lat="47.10884" lon="-1.43818">
        <ele>87</ele>
        <time>2021-09-25T08:00:59.000Z</time>
      </trkpt>
      <trkpt lat="47.10893" lon="-1.43809">
        <ele>87</ele>
        <time>2021-09-25T08:01:01.000Z</time>
      </trkpt>
      <trkpt lat="47.10902" lon="-1.438">
        <ele>87</ele>
        <time>2021-09-25T08:01:03.000Z</time>
      </trkpt>
      <trkpt lat="47.10911" lon="-1.43791">
        <ele>87</ele>
        <time>2021-09-25T08:01:05.000Z</time>
      </trkpt>
      <trkpt lat="47.10919" lon="-1.43783">
        <ele>87</ele>
        <time>2021-09-25T08:01:07.000Z</time>
      </trkpt>
      <trkpt lat="47.10928" lon="-1.43774">
        <ele>87</ele>
        <time>2021-09-25T08:01:09.000Z</time>
      </trkpt>
      <trkpt lat="47.10936" lon="-1.43765">
        <ele>87</ele>
        <time>2021-09-25T08:01:11.000Z</time>
      </trkpt>
      <trkpt lat="47.10943" lon="-1.43757">
        <ele>88</ele>
        <time>2021-09-25T08:01:13.000Z</time>
      </trkpt>
      <trkpt lat="47.10952" lon="-1.43748">
        <ele>88</ele>
        <time>2021-09-25T08:01:15.000Z</time>
      </trkpt>
      <trkpt lat="47.10961" lon="-1.43739">
        <ele>87</ele>
        <time>2021-09-25T08:01:17.000Z</time>
      </trkpt>
      <trkpt lat="47.10969" lon="-1.4373">
        <ele>87</ele>
        <time>2021-09-25T08:01:19.000Z</time>
      </trkpt>
      <trkpt lat="47.10978" lon="-1.43721">
        <ele>87</ele>
        <time>2021-09-25T08:01:21.000Z</time>
      </trkpt>
      <trkpt lat="47.10986" lon="-1.43713">
        <ele>87</ele>
        <time>2021-09-25T08:01:23.000Z</time>
      </trkpt>
      <trkpt lat="47.10994" lon="-1.43704">
        <ele>87</ele>
        <time>2021-09-25T08:01:25.000Z</time>
      </trkpt>
      <trkpt lat="47.11002" lon="-1.43695">
        <ele>88</ele>
        <time>2021-09-25T08:01:27.000Z</time>
      </trkpt>
      <trkpt lat="47.1101" lon="-1.43685">
        <ele>88</ele>
        <time>2021-09-25T08:01:29.000Z</time>
      </trkpt>
      <trkpt lat="47.11018" lon="-1.43675">
        <ele>88</ele>
        <time>2021-09-25T08:01:31.000Z</time>
      </trkpt>
      <trkpt lat="47.11027" lon="-1.43666">
        <ele>89</ele>
        <time>2021-09-25T08:01:33.000Z</time>
      </trkpt>
      <trkpt lat="47.11035" lon="-1.43656">
        <ele>89</ele>
        <time>2021-09-25T08:01:35.000Z</time>
      </trkpt>
      <trkpt lat="47.11042" lon="-1.43646">
        <ele>89</ele>
        <time>2021-09-25T08:01:37.000Z</time>
      </trkpt>
      <trkpt lat="47.11049" lon="-1.43634">
        <ele>90</ele>
        <time>2021-09-25T08:01:39.000Z</time>
      </trkpt>
      <trkpt lat="47.11057" lon="-1.43623">
        <ele>90</ele>
        <time>2021-09-25T08:01:41.000Z</time>
      </trkpt>
      <trkpt lat="47.11065" lon="-1.43614">
        <ele>91</ele>
        <time>2021-09-25T08:01:43.000Z</time>
      </trkpt>
      <trkpt lat="47.11074" lon="-1.43604">
        <ele>91</ele>
        <time>2021-09-25T08:01:45.000Z</time>
      </trkpt>
      <trkpt lat="47.11082" lon="-1.43595">
        <ele>91</ele>
        <time>2021-09-25T08:01:47.000Z</time>
      </trkpt>
      <trkpt lat="47.11091" lon="-1.43587">
        <ele>91</ele>
        <time>2021-09-25T08:01:49.000Z</time>
      </trkpt>
      <trkpt lat="47.111" lon="-1.43579">
        <ele>92</ele>
        <time>2021-09-25T08:01:51.000Z</time>
      </trkpt>
      <trkpt lat="47.11107" lon="-1.43569">
        <ele>92</ele>
        <time>2021-09-25T08:01:53.000Z</time>
      </trkpt>
      <trkpt lat="47.11115" lon="-1.43558">
        <ele>92</ele>
        <time>2021-09-25T08:01:55.000Z</time>
      </trkpt>
      <trkpt lat="47.11122" lon="-1.43546">
        <ele>92</ele>
        <time>2021-09-25T08:01:57.000Z</time>
      </trkpt>
      <trkpt lat="47.11129" lon="-1.43535">
        <ele>92</ele>
        <time>2021-09-25T08:01:59.000Z</time>
      </trkpt>
      <trkpt lat="47.11136" lon="-1.43523">
        <ele>92</ele>
        <time>2021-09-25T08:02:01.000Z</time>
      </trkpt>
      <trkpt lat="47.11143" lon="-1.43511">
        <ele>92</ele>
        <time>2021-09-25T08:02:03.000Z</time>
      </trkpt>
      <trkpt lat="47.1115" lon="-1.43499">
        <ele>92</ele>
        <time>2021-09-25T08:02:05.000Z</time>
      </trkpt>
      <trkpt lat="47.11157" lon="-1.43487">
        <ele>93</ele>
        <time>2021-09-25T08:02:07.000Z</time>
      </trkpt>
      <trkpt lat="47.11164" lon="-1.43475">
        <ele>93</ele>
        <time>2021-09-25T08:02:09.000Z</time>
      </trkpt>
      <trkpt lat="47.11171" lon="-1.43462">
        <ele>93</ele>
        <time>2021-09-25T08:02:11.000Z</time>
      </trkpt>
      <trkpt lat="47.11177" lon="-1.4345">
        <ele>93</ele>
        <time>2021-09-25T08:02:13.000Z</time>
      </trkpt>
      <trkpt lat="47.11184" lon="-1.43439">
        <ele>92</ele>
        <time>2021-09-25T08:02:15.000Z</time>
      </trkpt>
      <trkpt lat="47.11191" lon="-1.43427">
        <ele>92</ele>
        <time>2021-09-25T08:02:17.000Z</time>
      </trkpt>
      <trkpt lat="47.11198" lon="-1.43415">
        <ele>92</ele>
        <time>2021-09-25T08:02:19.000Z</time>
      </trkpt>
      <trkpt lat="47.11205" lon="-1.43402">
        <ele>92</ele>
        <time>2021-09-25T08:02:21.000Z</time>
      </trkpt>
      <trkpt lat="47.11213" lon="-1.43389">
        <ele>92</ele>
        <time>2021-09-25T08:02:23.000Z</time>
      </trkpt>
      <trkpt lat="47.1122" lon="-1.43376">
        <ele>92</ele>
        <time>2021-09-25T08:02:25.000Z</time>
      </trkpt>
      <trkpt lat="47.11228" lon="-1.43363">
        <ele>92</ele>
        <time>2021-09-25T08:02:27.000Z</time>
      </trkpt>
      <trkpt lat="47.11235" lon="-1.4335">
        <ele>92</ele>
        <time>2021-09-25T08:02:29.000Z</time>
      </trkpt>
      <trkpt lat="47.11243" lon="-1.43337">
        <ele>92</ele>
        <time>2021-09-25T08:02:31.000Z</time>
      </trkpt>
      <trkpt lat="47.11251" lon="-1.43325">
        <ele>92</ele>
        <time>2021-09-25T08:02:33.000Z</time>
      </trkpt>
      <trkpt lat="47.1126" lon="-1.43314">
        <ele>91</ele>
        <time>2021-09-25T08:02:35.000Z</time>
      </trkpt>
      <trkpt lat="47.11269" lon="-1.43303">
        <ele>91</ele>
        <time>2021-09-25T08:02:37.000Z</time>
      </trkpt>
      <trkpt lat="47.11279" lon="-1.43291">
        <ele>91</ele>
        <time>2021-09-25T08:02:39.000Z</time>
      </trkpt>
      <trkpt lat="47.11288" lon="-1.43279">
        <ele>90</ele>
        <time>2021-09-25T08:02:41.000Z</time>
      </trkpt>
      <trkpt lat="47.11298" lon="-1.43267">
        <ele>90</ele>
        <time>2021-09-25T08:02:43.000Z</time>
      </trkpt>
      <trkpt lat="47.11308" lon="-1.43256">
        <ele>90</ele>
        <time>2021-09-25T08:02:45.000Z</time>
      </trkpt>
      <trkpt lat="47.11317" lon="-1.43244">
        <ele>90</ele>
        <time>2021-09-25T08:02:47.000Z</time>
      </trkpt>
      <trkpt lat="47.11327" lon="-1.43233">
        <ele>90</ele>
        <time>2021-09-25T08:02:49.000Z</time>
      </trkpt>
      <trkpt lat="47.11337" lon="-1.4322">
        <ele>90</ele>
        <time>2021-09-25T08:02:51.000Z</time>
      </trkpt>
      <trkpt lat="47.11347" lon="-1.43209">
        <ele>90</ele>
        <time>2021-09-25T08:02:53.000Z</time>
      </trkpt>
      <trkpt lat="47.11357" lon="-1.43197">
        <ele>90</ele>
        <time>2021-09-25T08:02:55.000Z</time>
      </trkpt>
      <trkpt lat="47.11367" lon="-1.43184">
        <ele>89</ele>
        <time>2021-09-25T08:02:57.000Z</time>
      </trkpt>
      <trkpt lat="47.11377" lon="-1.43172">
        <ele>89</ele>
        <time>2021-09-25T08:02:59.000Z</time>
      </trkpt>
      <trkpt lat="47.11387" lon="-1.43159">
        <ele>88</ele>
        <time>2021-09-25T08:03:01.000Z</time>
      </trkpt>
      <trkpt lat="47.11397" lon="-1.43146">
        <ele>88</ele>
        <time>2021-09-25T08:03:03.000Z</time>
      </trkpt>
      <trkpt lat="47.11407" lon="-1.43134">
        <ele>88</ele>
        <time>2021-09-25T08:03:05.000Z</time>
      </trkpt>
      <trkpt lat="47.11416" lon="-1.43121">
        <ele>88</ele>
        <time>2021-09-25T08:03:07.000Z</time>
      </trkpt>
      <trkpt lat="47.11427" lon="-1.43109">
        <ele>88</ele>
        <time>2021-09-25T08:03:09.000Z</time>
      </trkpt>
      <trkpt lat="47.11437" lon="-1.43097">
        <ele>88</ele>
        <time>2021-09-25T08:03:11.000Z</time>
      </trkpt>
      <trkpt lat="47.11448" lon="-1.43086">
        <ele>87</ele>
        <time>2021-09-25T08:03:13.000Z</time>
      </trkpt>
      <trkpt lat="47.11459" lon="-1.43075">
        <ele>87</ele>
        <time>2021-09-25T08:03:15.000Z</time>
      </trkpt>
      <trkpt lat="47.11471" lon="-1.43064">
        <ele>86</ele>
        <time>2021-09-25T08:03:17.000Z</time>
      </trkpt>
      <trkpt lat="47.11483" lon="-1.43053">
        <ele>86</ele>
        <time>2021-09-25T08:03:19.000Z</time>
      </trkpt>
      <trkpt lat="47.11495" lon="-1.43043">
        <ele>85</ele>
        <time>2021-09-25T08:03:21.000Z</time>
      </trkpt>
      <trkpt lat="47.11506" lon="-1.43032">
        <ele>85</ele>
        <time>2021-09-25T08:03:23.000Z</time>
      </trkpt>
      <trkpt lat="47.11518" lon="-1.43021">
        <ele>84</ele>
        <time>2021-09-25T08:03:25.000Z</time>
      </trkpt>
      <trkpt lat="47.11529" lon="-1.4301">
        <ele>84</ele>
        <time>2021-09-25T08:03:27.000Z</time>
      </trkpt>
      <trkpt lat="47.1154" lon="-1.42999">
        <ele>84</ele>
        <time>2021-09-25T08:03:29.000Z</time>
      </trkpt>
      <trkpt lat="47.11548" lon="-1.42982">
        <ele>83</ele>
        <time>2021-09-25T08:03:31.000Z</time>
      </trkpt>
      <trkpt lat="47.11546" lon="-1.42963">
        <ele>82</ele>
        <time>2021-09-25T08:03:33.000Z</time>
      </trkpt>
      <trkpt lat="47.11539" lon="-1.42947">
        <ele>82</ele>
        <time>2021-09-25T08:03:35.000Z</time>
      </trkpt>
      <trkpt lat="47.11532" lon="-1.42932">
        <ele>83</ele>
        <time>2021-09-25T08:03:37.000Z</time>
      </trkpt>
      <trkpt lat="47.11525" lon="-1.42918">
        <ele>83</ele>
        <time>2021-09-25T08:03:39.000Z</time>
      </trkpt>
      <trkpt lat="47.11517" lon="-1.42904">
        <ele>83</ele>
        <time>2021-09-25T08:03:41.000Z</time>
      </trkpt>
      <trkpt lat="47.1151" lon="-1.42889">
        <ele>84</ele>
        <time>2021-09-25T08:03:43.000Z</time>
      </trkpt>
      <trkpt lat="47.11502" lon="-1.42874">
        <ele>84</ele>
        <time>2021-09-25T08:03:45.000Z</time>
      </trkpt>
      <trkpt lat="47.11495" lon="-1.42859">
        <ele>84</ele>
        <time>2021-09-25T08:03:47.000Z</time>
      </trkpt>
      <trkpt lat="47.11488" lon="-1.42845">
        <ele>84</ele>
        <time>2021-09-25T08:03:49.000Z</time>
      </trkpt>
      <trkpt lat="47.11481" lon="-1.4283">
        <ele>84</ele>
        <time>2021-09-25T08:03:51.000Z</time>
      </trkpt>
      <trkpt lat="47.11474" lon="-1.42817">
        <ele>85</ele>
        <time>2021-09-25T08:03:53.000Z</time>
      </trkpt>
      <trkpt lat="47.11467" lon="-1.42803">
        <ele>85</ele>
        <time>2021-09-25T08:03:55.000Z</time>
      </trkpt>
      <trkpt lat="47.1146" lon="-1.42789">
        <ele>85</ele>
        <time>2021-09-25T08:03:57.000Z</time>
      </trkpt>
      <trkpt lat="47.11453" lon="-1.42775">
        <ele>86</ele>
        <time>2021-09-25T08:03:59.000Z</time>
      </trkpt>
      <trkpt lat="47.11445" lon="-1.42761">
        <ele>86</ele>
        <time>2021-09-25T08:04:01.000Z</time>
      </trkpt>
      <trkpt lat="47.11438" lon="-1.42746">
        <ele>86</ele>
        <time>2021-09-25T08:04:03.000Z</time>
      </trkpt>
      <trkpt lat="47.11431" lon="-1.42732">
        <ele>86</ele>
        <time>2021-09-25T08:04:05.000Z</time>
      </trkpt>
      <trkpt lat="47.11423" lon="-1.42718">
        <ele>86</ele>
        <time>2021-09-25T08:04:07.000Z</time>
      </trkpt>
      <trkpt lat="47.11416" lon="-1.42703">
        <ele>87</ele>
        <time>2021-09-25T08:04:09.000Z</time>
      </trkpt>
      <trkpt lat="47.11408" lon="-1.42688">
        <ele>86</ele>
        <time>2021-09-25T08:04:11.000Z</time>
      </trkpt>
      <trkpt lat="47.11401" lon="-1.42673">
        <ele>86</ele>
        <time>2021-09-25T08:04:13.000Z</time>
      </trkpt>
      <trkpt lat="47.11393" lon="-1.42658">
        <ele>86</ele>
        <time>2021-09-25T08:04:15.000Z</time>
      </trkpt>
      <trkpt lat="47.11386" lon="-1.42643">
        <ele>86</ele>
        <time>2021-09-25T08:04:17.000Z</time>
      </trkpt>
      <trkpt lat="47.11378" lon="-1.42627">
        <ele>85</ele>
        <time>2021-09-25T08:04:19.000Z</time>
      </trkpt>
      <trkpt lat="47.1137" lon="-1.42611">
        <ele>85</ele>
        <time>2021-09-25T08:04:21.000Z</time>
      </trkpt>
      <trkpt lat="47.11362" lon="-1.42595">
        <ele>84</ele>
        <time>2021-09-25T08:04:23.000Z</time>
      </trkpt>
      <trkpt lat="47.11353" lon="-1.42577">
        <ele>84</ele>
        <time>2021-09-25T08:04:25.000Z</time>
      </trkpt>
      <trkpt lat="47.11345" lon="-1.4256">
        <ele>83</ele>
        <time>2021-09-25T08:04:27.000Z</time>
      </trkpt>
      <trkpt lat="47.11336" lon="-1.42543">
        <ele>82</ele>
        <time>2021-09-25T08:04:29.000Z</time>
      </trkpt>
      <trkpt lat="47.11327" lon="-1.42524">
        <ele>82</ele>
        <time>2021-09-25T08:04:31.000Z</time>
      </trkpt>
      <trkpt lat="47.11318" lon="-1.42505">
        <ele>81</ele>
        <time>2021-09-25T08:04:33.000Z</time>
      </trkpt>
      <trkpt lat="47.11308" lon="-1.42486">
        <ele>81</ele>
        <time>2021-09-25T08:04:35.000Z</time>
      </trkpt>
      <trkpt lat="47.11298" lon="-1.42467">
        <ele>80</ele>
        <time>2021-09-25T08:04:37.000Z</time>
      </trkpt>
      <trkpt lat="47.11289" lon="-1.42449">
        <ele>80</ele>
        <time>2021-09-25T08:04:39.000Z</time>
      </trkpt>
      <trkpt lat="47.1128" lon="-1.42431">
        <ele>80</ele>
        <time>2021-09-25T08:04:41.000Z</time>
      </trkpt>
      <trkpt lat="47.11271" lon="-1.42413">
        <ele>80</ele>
        <time>2021-09-25T08:04:43.000Z</time>
      </trkpt>
      <trkpt lat="47.11264" lon="-1.42396">
        <ele>80</ele>
        <time>2021-09-25T08:04:45.000Z</time>
      </trkpt>
      <trkpt lat="47.11255" lon="-1.42378">
        <ele>80</ele>
        <time>2021-09-25T08:04:47.000Z</time>
      </trkpt>
      <trkpt lat="47.11248" lon="-1.4236">
        <ele>80</ele>
        <time>2021-09-25T08:04:49.000Z</time>
      </trkpt>
      <trkpt lat="47.11241" lon="-1.42341">
        <ele>80</ele>
        <time>2021-09-25T08:04:51.000Z</time>
      </trkpt>
      <trkpt lat="47.11236" lon="-1.42322">
        <ele>80</ele>
        <time>2021-09-25T08:04:53.000Z</time>
      </trkpt>
      <trkpt lat="47.11231" lon="-1.42304">
        <ele>80</ele>
        <time>2021-09-25T08:04:55.000Z</time>
      </trkpt>
      <trkpt lat="47.11226" lon="-1.42286">
        <ele>80</ele>
        <time>2021-09-25T08:04:57.000Z</time>
      </trkpt>
      <trkpt lat="47.11222" lon="-1.42268">
        <ele>80</ele>
        <time>2021-09-25T08:04:59.000Z</time>
      </trkpt>
      <trkpt lat="47.11218" lon="-1.42252">
        <ele>80</ele>
        <time>2021-09-25T08:05:01.000Z</time>
      </trkpt>
      <trkpt lat="47.11214" lon="-1.42235">
        <ele>80</ele>
        <time>2021-09-25T08:05:03.000Z</time>
      </trkpt>
      <trkpt lat="47.1121" lon="-1.42219">
        <ele>80</ele>
        <time>2021-09-25T08:05:05.000Z</time>
      </trkpt>
      <trkpt lat="47.11206" lon="-1.42203">
        <ele>80</ele>
        <time>2021-09-25T08:05:07.000Z</time>
      </trkpt>
      <trkpt lat="47.11203" lon="-1.42186">
        <ele>80</ele>
        <time>2021-09-25T08:05:09.000Z</time>
      </trkpt>
      <trkpt lat="47.11199" lon="-1.4217">
        <ele>80</ele>
        <time>2021-09-25T08:05:11.000Z</time>
      </trkpt>
      <trkpt lat="47.11194" lon="-1.42153">
        <ele>81</ele>
        <time>2021-09-25T08:05:13.000Z</time>
      </trkpt>
      <trkpt lat="47.1119" lon="-1.42137">
        <ele>81</ele>
        <time>2021-09-25T08:05:15.000Z</time>
      </trkpt>
      <trkpt lat="47.11185" lon="-1.4212">
        <ele>81</ele>
        <time>2021-09-25T08:05:17.000Z</time>
      </trkpt>
      <trkpt lat="47.11181" lon="-1.42103">
        <ele>81</ele>
        <time>2021-09-25T08:05:19.000Z</time>
      </trkpt>
      <trkpt lat="47.11176" lon="-1.42085">
        <ele>81</ele>
        <time>2021-09-25T08:05:21.000Z</time>
      </trkpt>
      <trkpt lat="47.11172" lon="-1.42067">
        <ele>80</ele>
        <time>2021-09-25T08:05:23.000Z</time>
      </trkpt>
      <trkpt lat="47.11167" lon="-1.42047">
        <ele>80</ele>
        <time>2021-09-25T08:05:25.000Z</time>
      </trkpt>
      <trkpt lat="47.11162" lon="-1.42028">
        <ele>80</ele>
        <time>2021-09-25T08:05:27.000Z</time>
      </trkpt>
      <trkpt lat="47.11158" lon="-1.42008">
        <ele>79</ele>
        <time>2021-09-25T08:05:29.000Z</time>
      </trkpt>
      <trkpt lat="47.11153" lon="-1.41988">
        <ele>78</ele>
        <time>2021-09-25T08:05:31.000Z</time>
      </trkpt>
      <trkpt lat="47.11148" lon="-1.41968">
        <ele>78</ele>
        <time>2021-09-25T08:05:33.000Z</time>
      </trkpt>
      <trkpt lat="47.11143" lon="-1.41948">
        <ele>78</ele>
        <time>2021-09-25T08:05:35.000Z</time>
      </trkpt>
      <trkpt lat="47.11138" lon="-1.41929">
        <ele>77</ele>
        <time>2021-09-25T08:05:37.000Z</time>
      </trkpt>
      <trkpt lat="47.11133" lon="-1.41908">
        <ele>77</ele>
        <time>2021-09-25T08:05:39.000Z</time>
      </trkpt>
      <trkpt lat="47.11128" lon="-1.41888">
        <ele>76</ele>
        <time>2021-09-25T08:05:41.000Z</time>
      </trkpt>
      <trkpt lat="47.11123" lon="-1.41867">
        <ele>75</ele>
        <time>2021-09-25T08:05:43.000Z</time>
      </trkpt>
      <trkpt lat="47.11118" lon="-1.41846">
        <ele>75</ele>
        <time>2021-09-25T08:05:45.000Z</time>
      </trkpt>
      <trkpt lat="47.11113" lon="-1.41825">
        <ele>75</ele>
        <time>2021-09-25T08:05:47.000Z</time>
      </trkpt>
      <trkpt lat="47.11108" lon="-1.41804">
        <ele>74</ele>
        <time>2021-09-25T08:05:49.000Z</time>
      </trkpt>
      <trkpt lat="47.11103" lon="-1.41783">
        <ele>74</ele>
        <time>2021-09-25T08:05:51.000Z</time>
      </trkpt>
      <trkpt lat="47.11098" lon="-1.41762">
        <ele>73</ele>
        <time>2021-09-25T08:05:53.000Z</time>
      </trkpt>
      <trkpt lat="47.11092" lon="-1.4174">
        <ele>72</ele>
        <time>2021-09-25T08:05:55.000Z</time>
      </trkpt>
      <trkpt lat="47.11087" lon="-1.41718">
        <ele>71</ele>
        <time>2021-09-25T08:05:57.000Z</time>
      </trkpt>
      <trkpt lat="47.11081" lon="-1.41696">
        <ele>70</ele>
        <time>2021-09-25T08:05:59.000Z</time>
      </trkpt>
      <trkpt lat="47.11075" lon="-1.41673">
        <ele>69</ele>
        <time>2021-09-25T08:06:01.000Z</time>
      </trkpt>
      <trkpt lat="47.11069" lon="-1.4165">
        <ele>68</ele>
        <time>2021-09-25T08:06:03.000Z</time>
      </trkpt>
      <trkpt lat="47.11061" lon="-1.41628">
        <ele>67</ele>
        <time>2021-09-25T08:06:05.000Z</time>
      </trkpt>
      <trkpt lat="47.11051" lon="-1.41608">
        <ele>66</ele>
        <time>2021-09-25T08:06:07.000Z</time>
      </trkpt>
      <trkpt lat="47.1104" lon="-1.4159">
        <ele>65</ele>
        <time>2021-09-25T08:06:09.000Z</time>
      </trkpt>
      <trkpt lat="47.11027" lon="-1.41574">
        <ele>65</ele>
        <time>2021-09-25T08:06:11.000Z</time>
      </trkpt>
      <trkpt lat="47.11013" lon="-1.41559">
        <ele>64</ele>
        <time>2021-09-25T08:06:13.000Z</time>
      </trkpt>
      <trkpt lat="47.10999" lon="-1.41547">
        <ele>63</ele>
        <time>2021-09-25T08:06:15.000Z</time>
      </trkpt>
      <trkpt lat="47.10983" lon="-1.41537">
        <ele>63</ele>
        <time>2021-09-25T08:06:17.000Z</time>
      </trkpt>
      <trkpt lat="47.10967" lon="-1.4153">
        <ele>62</ele>
        <time>2021-09-25T08:06:19.000Z</time>
      </trkpt>
      <trkpt lat="47.10951" lon="-1.41526">
        <ele>62</ele>
        <time>2021-09-25T08:06:21.000Z</time>
      </trkpt>
      <trkpt lat="47.10934" lon="-1.41524">
        <ele>61</ele>
        <time>2021-09-25T08:06:23.000Z</time>
      </trkpt>
      <trkpt lat="47.10918" lon="-1.41524">
        <ele>61</ele>
        <time>2021-09-25T08:06:25.000Z</time>
      </trkpt>
      <trkpt lat="47.10901" lon="-1.41527">
        <ele>61</ele>
        <time>2021-09-25T08:06:27.000Z</time>
      </trkpt>
      <trkpt lat="47.10884" lon="-1.4153">
        <ele>60</ele>
        <time>2021-09-25T08:06:29.000Z</time>
      </trkpt>
      <trkpt lat="47.10867" lon="-1.41527">
        <ele>60</ele>
        <time>2021-09-25T08:06:31.000Z</time>
      </trkpt>
      <trkpt lat="47.10851" lon="-1.41519">
        <ele>59</ele>
        <time>2021-09-25T08:06:33.000Z</time>
      </trkpt>
      <trkpt lat="47.10839" lon="-1.41502">
        <ele>59</ele>
        <time>2021-09-25T08:06:35.000Z</time>
      </trkpt>
      <trkpt lat="47.10828" lon="-1.41482">
        <ele>59</ele>
        <time>2021-09-25T08:06:37.000Z</time>
      </trkpt>
      <trkpt lat="47.10819" lon="-1.41462">
        <ele>58</ele>
        <time>2021-09-25T08:06:39.000Z</time>
      </trkpt>
      <trkpt lat="47.10809" lon="-1.41445">
        <ele>59</ele>
        <time>2021-09-25T08:06:41.000Z</time>
      </trkpt>
      <trkpt lat="47.10799" lon="-1.41429">
        <ele>59</ele>
        <time>2021-09-25T08:06:43.000Z</time>
      </trkpt>
      <trkpt lat="47.1079" lon="-1.41413">
        <ele>59</ele>
        <time>2021-09-25T08:06:45.000Z</time>
      </trkpt>
      <trkpt lat="47.10781" lon="-1.41398">
        <ele>59</ele>
        <time>2021-09-25T08:06:47.000Z</time>
      </trkpt>
      <trkpt lat="47.10773" lon="-1.41382">
        <ele>59</ele>
        <time>2021-09-25T08:06:49.000Z</time>
      </trkpt>
      <trkpt lat="47.10767" lon="-1.41367">
        <ele>60</ele>
        <time>2021-09-25T08:06:51.000Z</time>
      </trkpt>
      <trkpt lat="47.1076" lon="-1.41351">
        <ele>60</ele>
        <time>2021-09-25T08:06:53.000Z</time>
      </trkpt>
      <trkpt lat="47.10754" lon="-1.41337">
        <ele>60</ele>
        <time>2021-09-25T08:06:55.000Z</time>
      </trkpt>
      <trkpt lat="47.10749" lon="-1.41324">
        <ele>60</ele>
        <time>2021-09-25T08:06:57.000Z</time>
      </trkpt>
      <trkpt lat="47.10743" lon="-1.41311">
        <ele>60</ele>
        <time>2021-09-25T08:06:59.000Z</time>
      </trkpt>
      <trkpt lat="47.10737" lon="-1.41298">
        <ele>61</ele>
        <time>2021-09-25T08:07:01.000Z</time>
      </trkpt>
      <trkpt lat="47.10731" lon="-1.41286">
        <ele>61</ele>
        <time>2021-09-25T08:07:03.000Z</time>
      </trkpt>
      <trkpt lat="47.10725" lon="-1.41274">
        <ele>61</ele>
        <time>2021-09-25T08:07:05.000Z</time>
      </trkpt>
      <trkpt lat="47.10718" lon="-1.41264">
        <ele>61</ele>
        <time>2021-09-25T08:07:07.000Z</time>
      </trkpt>
      <trkpt lat="47.10709" lon="-1.41255">
        <ele>62</ele>
        <time>2021-09-25T08:07:09.000Z</time>
      </trkpt>
      <trkpt lat="47.107" lon="-1.41248">
        <ele>62</ele>
        <time>2021-09-25T08:07:11.000Z</time>
      </trkpt>
      <trkpt lat="47.10691" lon="-1.41242">
        <ele>62</ele>
        <time>2021-09-25T08:07:13.000Z</time>
      </trkpt>
      <trkpt lat="47.10682" lon="-1.41239">
        <ele>62</ele>
        <time>2021-09-25T08:07:15.000Z</time>
      </trkpt>
      <trkpt lat="47.10672" lon="-1.41236">
        <ele>63</ele>
        <time>2021-09-25T08:07:17.000Z</time>
      </trkpt>
      <trkpt lat="47.10663" lon="-1.41232">
        <ele>63</ele>
        <time>2021-09-25T08:07:19.000Z</time>
      </trkpt>
      <trkpt lat="47.10653" lon="-1.41228">
        <ele>64</ele>
        <time>2021-09-25T08:07:21.000Z</time>
      </trkpt>
      <trkpt lat="47.10643" lon="-1.41225">
        <ele>64</ele>
        <time>2021-09-25T08:07:23.000Z</time>
      </trkpt>
      <trkpt lat="47.10634" lon="-1.41219">
        <ele>65</ele>
        <time>2021-09-25T08:07:25.000Z</time>
      </trkpt>
      <trkpt lat="47.10626" lon="-1.4121">
        <ele>66</ele>
        <time>2021-09-25T08:07:27.000Z</time>
      </trkpt>
      <trkpt lat="47.1062" lon="-1.41199">
        <ele>68</ele>
        <time>2021-09-25T08:07:29.000Z</time>
      </trkpt>
      <trkpt lat="47.10614" lon="-1.41189">
        <ele>70</ele>
        <time>2021-09-25T08:07:31.000Z</time>
      </trkpt>
      <trkpt lat="47.10607" lon="-1.41172">
        <ele>73</ele>
        <time>2021-09-25T08:07:34.000Z</time>
      </trkpt>
      <trkpt lat="47.10603" lon="-1.4116">
        <ele>74</ele>
        <time>2021-09-25T08:07:36.000Z</time>
      </trkpt>
      <trkpt lat="47.10598" lon="-1.41147">
        <ele>74</ele>
        <time>2021-09-25T08:07:38.000Z</time>
      </trkpt>
      <trkpt lat="47.10595" lon="-1.41134">
        <ele>75</ele>
        <time>2021-09-25T08:07:40.000Z</time>
      </trkpt>
      <trkpt lat="47.10592" lon="-1.41119">
        <ele>75</ele>
        <time>2021-09-25T08:07:42.000Z</time>
      </trkpt>
      <trkpt lat="47.10587" lon="-1.41105">
        <ele>75</ele>
        <time>2021-09-25T08:07:44.000Z</time>
      </trkpt>
      <trkpt lat="47.10583" lon="-1.41091">
        <ele>75</ele>
        <time>2021-09-25T08:07:46.000Z</time>
      </trkpt>
      <trkpt lat="47.10579" lon="-1.41078">
        <ele>75</ele>
        <time>2021-09-25T08:07:48.000Z</time>
      </trkpt>
      <trkpt lat="47.10575" lon="-1.41065">
        <ele>75</ele>
        <time>2021-09-25T08:07:50.000Z</time>
      </trkpt>
      <trkpt lat="47.10572" lon="-1.41052">
        <ele>75</ele>
        <time>2021-09-25T08:07:52.000Z</time>
      </trkpt>
      <trkpt lat="47.10568" lon="-1.41033">
        <ele>76</ele>
        <time>2021-09-25T08:07:55.000Z</time>
      </trkpt>
      <trkpt lat="47.10566" lon="-1.41021">
        <ele>77</ele>
        <time>2021-09-25T08:07:57.000Z</time>
      </trkpt>
      <trkpt lat="47.10564" lon="-1.41001">
        <ele>77</ele>
        <time>2021-09-25T08:08:00.000Z</time>
      </trkpt>
      <trkpt lat="47.10562" lon="-1.40987">
        <ele>77</ele>
        <time>2021-09-25T08:08:02.000Z</time>
      </trkpt>
      <trkpt lat="47.10562" lon="-1.40974">
        <ele>77</ele>
        <time>2021-09-25T08:08:04.000Z</time>
      </trkpt>
      <trkpt lat="47.10563" lon="-1.40952">
        <ele>77</ele>
        <time>2021-09-25T08:08:07.000Z</time>
      </trkpt>
      <trkpt lat="47.10565" lon="-1.40938">
        <ele>78</ele>
        <time>2021-09-25T08:08:09.000Z</time>
      </trkpt>
      <trkpt lat="47.10566" lon="-1.40924">
        <ele>78</ele>
        <time>2021-09-25T08:08:11.000Z</time>
      </trkpt>
      <trkpt lat="47.10569" lon="-1.40905">
        <ele>78</ele>
        <time>2021-09-25T08:08:14.000Z</time>
      </trkpt>
      <trkpt lat="47.10572" lon="-1.40892">
        <ele>77</ele>
        <time>2021-09-25T08:08:16.000Z</time>
      </trkpt>
      <trkpt lat="47.10576" lon="-1.40878">
        <ele>78</ele>
        <time>2021-09-25T08:08:18.000Z</time>
      </trkpt>
      <trkpt lat="47.10578" lon="-1.40864">
        <ele>78</ele>
        <time>2021-09-25T08:08:20.000Z</time>
      </trkpt>
      <trkpt lat="47.10579" lon="-1.40851">
        <ele>79</ele>
        <time>2021-09-25T08:08:22.000Z</time>
      </trkpt>
      <trkpt lat="47.1058" lon="-1.40838">
        <ele>79</ele>
        <time>2021-09-25T08:08:24.000Z</time>
      </trkpt>
      <trkpt lat="47.1058" lon="-1.40815">
        <ele>80</ele>
        <time>2021-09-25T08:08:27.000Z</time>
      </trkpt>
      <trkpt lat="47.1058" lon="-1.40799">
        <ele>81</ele>
        <time>2021-09-25T08:08:29.000Z</time>
      </trkpt>
      <trkpt lat="47.1058" lon="-1.40783">
        <ele>82</ele>
        <time>2021-09-25T08:08:31.000Z</time>
      </trkpt>
      <trkpt lat="47.1058" lon="-1.40763">
        <ele>82</ele>
        <time>2021-09-25T08:08:34.000Z</time>
      </trkpt>
      <trkpt lat="47.1058" lon="-1.4074">
        <ele>82</ele>
        <time>2021-09-25T08:08:37.000Z</time>
      </trkpt>
      <trkpt lat="47.1058" lon="-1.40725">
        <ele>83</ele>
        <time>2021-09-25T08:08:39.000Z</time>
      </trkpt>
      <trkpt lat="47.10581" lon="-1.4071">
        <ele>83</ele>
        <time>2021-09-25T08:08:41.000Z</time>
      </trkpt>
      <trkpt lat="47.1058" lon="-1.40696">
        <ele>82</ele>
        <time>2021-09-25T08:08:43.000Z</time>
      </trkpt>
      <trkpt lat="47.10581" lon="-1.40681">
        <ele>82</ele>
        <time>2021-09-25T08:08:45.000Z</time>
      </trkpt>
      <trkpt lat="47.1058" lon="-1.40666">
        <ele>82</ele>
        <time>2021-09-25T08:08:47.000Z</time>
      </trkpt>
      <trkpt lat="47.1058" lon="-1.40651">
        <ele>83</ele>
        <time>2021-09-25T08:08:49.000Z</time>
      </trkpt>
      <trkpt lat="47.1058" lon="-1.40636">
        <ele>83</ele>
        <time>2021-09-25T08:08:51.000Z</time>
      </trkpt>
      <trkpt lat="47.1058" lon="-1.40621">
        <ele>83</ele>
        <time>2021-09-25T08:08:53.000Z</time>
      </trkpt>
      <trkpt lat="47.10579" lon="-1.40607">
        <ele>83</ele>
        <time>2021-09-25T08:08:55.000Z</time>
      </trkpt>
      <trkpt lat="47.10577" lon="-1.40594">
        <ele>83</ele>
        <time>2021-09-25T08:08:57.000Z</time>
      </trkpt>
      <trkpt lat="47.10574" lon="-1.40579">
        <ele>84</ele>
        <time>2021-09-25T08:08:59.000Z</time>
      </trkpt>
      <trkpt lat="47.1057" lon="-1.40566">
        <ele>84</ele>
        <time>2021-09-25T08:09:01.000Z</time>
      </trkpt>
      <trkpt lat="47.10567" lon="-1.40552">
        <ele>85</ele>
        <time>2021-09-25T08:09:03.000Z</time>
      </trkpt>
      <trkpt lat="47.10562" lon="-1.40538">
        <ele>86</ele>
        <time>2021-09-25T08:09:05.000Z</time>
      </trkpt>
      <trkpt lat="47.10558" lon="-1.40526">
        <ele>87</ele>
        <time>2021-09-25T08:09:07.000Z</time>
      </trkpt>
      <trkpt lat="47.10555" lon="-1.40513">
        <ele>87</ele>
        <time>2021-09-25T08:09:09.000Z</time>
      </trkpt>
      <trkpt lat="47.10551" lon="-1.40499">
        <ele>88</ele>
        <time>2021-09-25T08:09:11.000Z</time>
      </trkpt>
      <trkpt lat="47.10547" lon="-1.40484">
        <ele>88</ele>
        <time>2021-09-25T08:09:13.000Z</time>
      </trkpt>
      <trkpt lat="47.10544" lon="-1.4047">
        <ele>87</ele>
        <time>2021-09-25T08:09:15.000Z</time>
      </trkpt>
      <trkpt lat="47.10543" lon="-1.40455">
        <ele>88</ele>
        <time>2021-09-25T08:09:17.000Z</time>
      </trkpt>
      <trkpt lat="47.10541" lon="-1.40439">
        <ele>88</ele>
        <time>2021-09-25T08:09:19.000Z</time>
      </trkpt>
      <trkpt lat="47.10539" lon="-1.40425">
        <ele>88</ele>
        <time>2021-09-25T08:09:21.000Z</time>
      </trkpt>
      <trkpt lat="47.10538" lon="-1.4041">
        <ele>88</ele>
        <time>2021-09-25T08:09:23.000Z</time>
      </trkpt>
      <trkpt lat="47.10537" lon="-1.40396">
        <ele>89</ele>
        <time>2021-09-25T08:09:25.000Z</time>
      </trkpt>
      <trkpt lat="47.10535" lon="-1.40381">
        <ele>89</ele>
        <time>2021-09-25T08:09:27.000Z</time>
      </trkpt>
      <trkpt lat="47.10533" lon="-1.40367">
        <ele>90</ele>
        <time>2021-09-25T08:09:29.000Z</time>
      </trkpt>
      <trkpt lat="47.1053" lon="-1.40352">
        <ele>90</ele>
        <time>2021-09-25T08:09:31.000Z</time>
      </trkpt>
      <trkpt lat="47.10527" lon="-1.40337">
        <ele>90</ele>
        <time>2021-09-25T08:09:33.000Z</time>
      </trkpt>
      <trkpt lat="47.10523" lon="-1.40321">
        <ele>90</ele>
        <time>2021-09-25T08:09:35.000Z</time>
      </trkpt>
      <trkpt lat="47.1052" lon="-1.40307">
        <ele>91</ele>
        <time>2021-09-25T08:09:37.000Z</time>
      </trkpt>
      <trkpt lat="47.10516" lon="-1.40292">
        <ele>91</ele>
        <time>2021-09-25T08:09:39.000Z</time>
      </trkpt>
      <trkpt lat="47.10512" lon="-1.40278">
        <ele>91</ele>
        <time>2021-09-25T08:09:41.000Z</time>
      </trkpt>
      <trkpt lat="47.10507" lon="-1.40263">
        <ele>91</ele>
        <time>2021-09-25T08:09:43.000Z</time>
      </trkpt>
      <trkpt lat="47.10503" lon="-1.40249">
        <ele>91</ele>
        <time>2021-09-25T08:09:45.000Z</time>
      </trkpt>
      <trkpt lat="47.10499" lon="-1.40235">
        <ele>91</ele>
        <time>2021-09-25T08:09:47.000Z</time>
      </trkpt>
      <trkpt lat="47.10494" lon="-1.40221">
        <ele>91</ele>
        <time>2021-09-25T08:09:49.000Z</time>
      </trkpt>
      <trkpt lat="47.1049" lon="-1.40208">
        <ele>91</ele>
        <time>2021-09-25T08:09:51.000Z</time>
      </trkpt>
      <trkpt lat="47.10484" lon="-1.40195">
        <ele>91</ele>
        <time>2021-09-25T08:09:53.000Z</time>
      </trkpt>
      <trkpt lat="47.10477" lon="-1.40183">
        <ele>91</ele>
        <time>2021-09-25T08:09:55.000Z</time>
      </trkpt>
      <trkpt lat="47.1047" lon="-1.40172">
        <ele>91</ele>
        <time>2021-09-25T08:09:57.000Z</time>
      </trkpt>
      <trkpt lat="47.10462" lon="-1.40162">
        <ele>91</ele>
        <time>2021-09-25T08:09:59.000Z</time>
      </trkpt>
      <trkpt lat="47.10455" lon="-1.40152">
        <ele>91</ele>
        <time>2021-09-25T08:10:01.000Z</time>
      </trkpt>
      <trkpt lat="47.10448" lon="-1.40143">
        <ele>91</ele>
        <time>2021-09-25T08:10:03.000Z</time>
      </trkpt>
      <trkpt lat="47.10441" lon="-1.40133">
        <ele>92</ele>
        <time>2021-09-25T08:10:05.000Z</time>
      </trkpt>
      <trkpt lat="47.10434" lon="-1.40124">
        <ele>92</ele>
        <time>2021-09-25T08:10:07.000Z</time>
      </trkpt>
      <trkpt lat="47.10428" lon="-1.40114">
        <ele>92</ele>
        <time>2021-09-25T08:10:09.000Z</time>
      </trkpt>
      <trkpt lat="47.10417" lon="-1.40102">
        <ele>92</ele>
        <time>2021-09-25T08:10:12.000Z</time>
      </trkpt>
      <trkpt lat="47.1041" lon="-1.40093">
        <ele>92</ele>
        <time>2021-09-25T08:10:14.000Z</time>
      </trkpt>
      <trkpt lat="47.10403" lon="-1.40084">
        <ele>93</ele>
        <time>2021-09-25T08:10:16.000Z</time>
      </trkpt>
      <trkpt lat="47.10397" lon="-1.40074">
        <ele>93</ele>
        <time>2021-09-25T08:10:18.000Z</time>
      </trkpt>
      <trkpt lat="47.1039" lon="-1.40065">
        <ele>94</ele>
        <time>2021-09-25T08:10:20.000Z</time>
      </trkpt>
      <trkpt lat="47.10383" lon="-1.40055">
        <ele>94</ele>
        <time>2021-09-25T08:10:22.000Z</time>
      </trkpt>
      <trkpt lat="47.10376" lon="-1.40046">
        <ele>94</ele>
        <time>2021-09-25T08:10:24.000Z</time>
      </trkpt>
      <trkpt lat="47.10369" lon="-1.40036">
        <ele>94</ele>
        <time>2021-09-25T08:10:26.000Z</time>
      </trkpt>
      <trkpt lat="47.10362" lon="-1.40026">
        <ele>94</ele>
        <time>2021-09-25T08:10:28.000Z</time>
      </trkpt>
      <trkpt lat="47.10356" lon="-1.40016">
        <ele>95</ele>
        <time>2021-09-25T08:10:30.000Z</time>
      </trkpt>
      <trkpt lat="47.10346" lon="-1.40004">
        <ele>95</ele>
        <time>2021-09-25T08:10:33.000Z</time>
      </trkpt>
      <trkpt lat="47.1034" lon="-1.39994">
        <ele>95</ele>
        <time>2021-09-25T08:10:35.000Z</time>
      </trkpt>
      <trkpt lat="47.10334" lon="-1.39984">
        <ele>95</ele>
        <time>2021-09-25T08:10:37.000Z</time>
      </trkpt>
      <trkpt lat="47.10328" lon="-1.39973">
        <ele>96</ele>
        <time>2021-09-25T08:10:39.000Z</time>
      </trkpt>
      <trkpt lat="47.10322" lon="-1.39962">
        <ele>97</ele>
        <time>2021-09-25T08:10:41.000Z</time>
      </trkpt>
      <trkpt lat="47.10317" lon="-1.3995">
        <ele>97</ele>
        <time>2021-09-25T08:10:43.000Z</time>
      </trkpt>
      <trkpt lat="47.10311" lon="-1.3994">
        <ele>97</ele>
        <time>2021-09-25T08:10:45.000Z</time>
      </trkpt>
      <trkpt lat="47.10306" lon="-1.39928">
        <ele>98</ele>
        <time>2021-09-25T08:10:47.000Z</time>
      </trkpt>
      <trkpt lat="47.10302" lon="-1.39916">
        <ele>98</ele>
        <time>2021-09-25T08:10:49.000Z</time>
      </trkpt>
      <trkpt lat="47.10298" lon="-1.39904">
        <ele>98</ele>
        <time>2021-09-25T08:10:51.000Z</time>
      </trkpt>
      <trkpt lat="47.10294" lon="-1.39892">
        <ele>99</ele>
        <time>2021-09-25T08:10:53.000Z</time>
      </trkpt>
      <trkpt lat="47.10287" lon="-1.39876">
        <ele>100</ele>
        <time>2021-09-25T08:10:56.000Z</time>
      </trkpt>
      <trkpt lat="47.1028" lon="-1.39858">
        <ele>100</ele>
        <time>2021-09-25T08:10:59.000Z</time>
      </trkpt>
      <trkpt lat="47.10276" lon="-1.39847">
        <ele>101</ele>
        <time>2021-09-25T08:11:01.000Z</time>
      </trkpt>
      <trkpt lat="47.10272" lon="-1.39835">
        <ele>101</ele>
        <time>2021-09-25T08:11:03.000Z</time>
      </trkpt>
      <trkpt lat="47.10268" lon="-1.39821">
        <ele>101</ele>
        <time>2021-09-25T08:11:05.000Z</time>
      </trkpt>
      <trkpt lat="47.10263" lon="-1.39806">
        <ele>101</ele>
        <time>2021-09-25T08:11:07.000Z</time>
      </trkpt>
      <trkpt lat="47.10258" lon="-1.39791">
        <ele>101</ele>
        <time>2021-09-25T08:11:09.000Z</time>
      </trkpt>
      <trkpt lat="47.10253" lon="-1.39777">
        <ele>102</ele>
        <time>2021-09-25T08:11:11.000Z</time>
      </trkpt>
      <trkpt lat="47.10247" lon="-1.39762">
        <ele>101</ele>
        <time>2021-09-25T08:11:13.000Z</time>
      </trkpt>
      <trkpt lat="47.10241" lon="-1.39746">
        <ele>101</ele>
        <time>2021-09-25T08:11:15.000Z</time>
      </trkpt>
      <trkpt lat="47.10234" lon="-1.3973">
        <ele>101</ele>
        <time>2021-09-25T08:11:17.000Z</time>
      </trkpt>
      <trkpt lat="47.10225" lon="-1.39716">
        <ele>101</ele>
        <time>2021-09-25T08:11:19.000Z</time>
      </trkpt>
      <trkpt lat="47.10215" lon="-1.39705">
        <ele>101</ele>
        <time>2021-09-25T08:11:21.000Z</time>
      </trkpt>
      <trkpt lat="47.10204" lon="-1.39694">
        <ele>101</ele>
        <time>2021-09-25T08:11:23.000Z</time>
      </trkpt>
      <trkpt lat="47.10193" lon="-1.39684">
        <ele>101</ele>
        <time>2021-09-25T08:11:25.000Z</time>
      </trkpt>
      <trkpt lat="47.10181" lon="-1.39674">
        <ele>101</ele>
        <time>2021-09-25T08:11:27.000Z</time>
      </trkpt>
      <trkpt lat="47.10169" lon="-1.39664">
        <ele>101</ele>
        <time>2021-09-25T08:11:29.000Z</time>
      </trkpt>
      <trkpt lat="47.10158" lon="-1.39653">
        <ele>101</ele>
        <time>2021-09-25T08:11:31.000Z</time>
      </trkpt>
      <trkpt lat="47.10147" lon="-1.39643">
        <ele>100</ele>
        <time>2021-09-25T08:11:33.000Z</time>
      </trkpt>
      <trkpt lat="47.10135" lon="-1.39633">
        <ele>100</ele>
        <time>2021-09-25T08:11:35.000Z</time>
      </trkpt>
      <trkpt lat="47.10124" lon="-1.39622">
        <ele>100</ele>
        <time>2021-09-25T08:11:37.000Z</time>
      </trkpt>
      <trkpt lat="47.10112" lon="-1.39612">
        <ele>100</ele>
        <time>2021-09-25T08:11:39.000Z</time>
      </trkpt>
      <trkpt lat="47.10101" lon="-1.39603">
        <ele>99</ele>
        <time>2021-09-25T08:11:41.000Z</time>
      </trkpt>
      <trkpt lat="47.1009" lon="-1.39593">
        <ele>99</ele>
        <time>2021-09-25T08:11:43.000Z</time>
      </trkpt>
      <trkpt lat="47.10079" lon="-1.39584">
        <ele>99</ele>
        <time>2021-09-25T08:11:45.000Z</time>
      </trkpt>
      <trkpt lat="47.10068" lon="-1.39574">
        <ele>99</ele>
        <time>2021-09-25T08:11:47.000Z</time>
      </trkpt>
      <trkpt lat="47.10058" lon="-1.39565">
        <ele>99</ele>
        <time>2021-09-25T08:11:49.000Z</time>
      </trkpt>
      <trkpt lat="47.10047" lon="-1.39555">
        <ele>99</ele>
        <time>2021-09-25T08:11:51.000Z</time>
      </trkpt>
      <trkpt lat="47.10036" lon="-1.39545">
        <ele>99</ele>
        <time>2021-09-25T08:11:53.000Z</time>
      </trkpt>
      <trkpt lat="47.10025" lon="-1.39536">
        <ele>99</ele>
        <time>2021-09-25T08:11:55.000Z</time>
      </trkpt>
      <trkpt lat="47.10014" lon="-1.39526">
        <ele>99</ele>
        <time>2021-09-25T08:11:57.000Z</time>
      </trkpt>
      <trkpt lat="47.10004" lon="-1.39517">
        <ele>99</ele>
        <time>2021-09-25T08:11:59.000Z</time>
      </trkpt>
      <trkpt lat="47.09993" lon="-1.39506">
        <ele>98</ele>
        <time>2021-09-25T08:12:01.000Z</time>
      </trkpt>
      <trkpt lat="47.09981" lon="-1.39498">
        <ele>98</ele>
        <time>2021-09-25T08:12:03.000Z</time>
      </trkpt>
      <trkpt lat="47.0997" lon="-1.39488">
        <ele>98</ele>
        <time>2021-09-25T08:12:05.000Z</time>
      </trkpt>
      <trkpt lat="47.0996" lon="-1.39478">
        <ele>98</ele>
        <time>2021-09-25T08:12:07.000Z</time>
      </trkpt>
      <trkpt lat="47.09949" lon="-1.39469">
        <ele>98</ele>
        <time>2021-09-25T08:12:09.000Z</time>
      </trkpt>
      <trkpt lat="47.09938" lon="-1.39459">
        <ele>98</ele>
        <time>2021-09-25T08:12:11.000Z</time>
      </trkpt>
      <trkpt lat="47.09926" lon="-1.39449">
        <ele>98</ele>
        <time>2021-09-25T08:12:13.000Z</time>
      </trkpt>
      <trkpt lat="47.09916" lon="-1.39439">
        <ele>98</ele>
        <time>2021-09-25T08:12:15.000Z</time>
      </trkpt>
      <trkpt lat="47.09905" lon="-1.39431">
        <ele>98</ele>
        <time>2021-09-25T08:12:17.000Z</time>
      </trkpt>
      <trkpt lat="47.09893" lon="-1.39421">
        <ele>98</ele>
        <time>2021-09-25T08:12:19.000Z</time>
      </trkpt>
      <trkpt lat="47.09882" lon="-1.39411">
        <ele>97</ele>
        <time>2021-09-25T08:12:21.000Z</time>
      </trkpt>
      <trkpt lat="47.0987" lon="-1.39401">
        <ele>97</ele>
        <time>2021-09-25T08:12:23.000Z</time>
      </trkpt>
      <trkpt lat="47.09859" lon="-1.39391">
        <ele>96</ele>
        <time>2021-09-25T08:12:25.000Z</time>
      </trkpt>
      <trkpt lat="47.09847" lon="-1.3938">
        <ele>96</ele>
        <time>2021-09-25T08:12:27.000Z</time>
      </trkpt>
      <trkpt lat="47.09836" lon="-1.39369">
        <ele>95</ele>
        <time>2021-09-25T08:12:29.000Z</time>
      </trkpt>
      <trkpt lat="47.09825" lon="-1.39356">
        <ele>95</ele>
        <time>2021-09-25T08:12:31.000Z</time>
      </trkpt>
      <trkpt lat="47.09815" lon="-1.39341">
        <ele>95</ele>
        <time>2021-09-25T08:12:33.000Z</time>
      </trkpt>
      <trkpt lat="47.09806" lon="-1.39325">
        <ele>94</ele>
        <time>2021-09-25T08:12:35.000Z</time>
      </trkpt>
      <trkpt lat="47.09798" lon="-1.39307">
        <ele>94</ele>
        <time>2021-09-25T08:12:37.000Z</time>
      </trkpt>
      <trkpt lat="47.09791" lon="-1.39288">
        <ele>93</ele>
        <time>2021-09-25T08:12:39.000Z</time>
      </trkpt>
      <trkpt lat="47.09785" lon="-1.39267">
        <ele>93</ele>
        <time>2021-09-25T08:12:41.000Z</time>
      </trkpt>
      <trkpt lat="47.09781" lon="-1.39245">
        <ele>92</ele>
        <time>2021-09-25T08:12:43.000Z</time>
      </trkpt>
      <trkpt lat="47.09777" lon="-1.39222">
        <ele>91</ele>
        <time>2021-09-25T08:12:45.000Z</time>
      </trkpt>
      <trkpt lat="47.09774" lon="-1.39198">
        <ele>90</ele>
        <time>2021-09-25T08:12:47.000Z</time>
      </trkpt>
      <trkpt lat="47.09771" lon="-1.39175">
        <ele>89</ele>
        <time>2021-09-25T08:12:49.000Z</time>
      </trkpt>
      <trkpt lat="47.09768" lon="-1.39151">
        <ele>89</ele>
        <time>2021-09-25T08:12:51.000Z</time>
      </trkpt>
      <trkpt lat="47.09763" lon="-1.39127">
        <ele>88</ele>
        <time>2021-09-25T08:12:53.000Z</time>
      </trkpt>
      <trkpt lat="47.09758" lon="-1.39103">
        <ele>87</ele>
        <time>2021-09-25T08:12:55.000Z</time>
      </trkpt>
      <trkpt lat="47.0975" lon="-1.39082">
        <ele>87</ele>
        <time>2021-09-25T08:12:57.000Z</time>
      </trkpt>
      <trkpt lat="47.09742" lon="-1.39063">
        <ele>88</ele>
        <time>2021-09-25T08:12:59.000Z</time>
      </trkpt>
      <trkpt lat="47.09735" lon="-1.39046">
        <ele>88</ele>
        <time>2021-09-25T08:13:01.000Z</time>
      </trkpt>
      <trkpt lat="47.09728" lon="-1.3903">
        <ele>88</ele>
        <time>2021-09-25T08:13:03.000Z</time>
      </trkpt>
      <trkpt lat="47.09722" lon="-1.39016">
        <ele>89</ele>
        <time>2021-09-25T08:13:05.000Z</time>
      </trkpt>
      <trkpt lat="47.09717" lon="-1.39002">
        <ele>90</ele>
        <time>2021-09-25T08:13:07.000Z</time>
      </trkpt>
      <trkpt lat="47.09711" lon="-1.38989">
        <ele>90</ele>
        <time>2021-09-25T08:13:09.000Z</time>
      </trkpt>
      <trkpt lat="47.09706" lon="-1.38976">
        <ele>91</ele>
        <time>2021-09-25T08:13:11.000Z</time>
      </trkpt>
      <trkpt lat="47.09701" lon="-1.38965">
        <ele>91</ele>
        <time>2021-09-25T08:13:13.000Z</time>
      </trkpt>
      <trkpt lat="47.09695" lon="-1.38952">
        <ele>91</ele>
        <time>2021-09-25T08:13:15.000Z</time>
      </trkpt>
      <trkpt lat="47.0969" lon="-1.3894">
        <ele>92</ele>
        <time>2021-09-25T08:13:17.000Z</time>
      </trkpt>
      <trkpt lat="47.09686" lon="-1.38928">
        <ele>92</ele>
        <time>2021-09-25T08:13:19.000Z</time>
      </trkpt>
      <trkpt lat="47.09681" lon="-1.38915">
        <ele>92</ele>
        <time>2021-09-25T08:13:21.000Z</time>
      </trkpt>
      <trkpt lat="47.09677" lon="-1.38903">
        <ele>92</ele>
        <time>2021-09-25T08:13:23.000Z</time>
      </trkpt>
      <trkpt lat="47.09672" lon="-1.38891">
        <ele>93</ele>
        <time>2021-09-25T08:13:25.000Z</time>
      </trkpt>
      <trkpt lat="47.09668" lon="-1.38879">
        <ele>93</ele>
        <time>2021-09-25T08:13:27.000Z</time>
      </trkpt>
      <trkpt lat="47.09664" lon="-1.38866">
        <ele>94</ele>
        <time>2021-09-25T08:13:29.000Z</time>
      </trkpt>
      <trkpt lat="47.09661" lon="-1.38852">
        <ele>94</ele>
        <time>2021-09-25T08:13:31.000Z</time>
      </trkpt>
      <trkpt lat="47.09657" lon="-1.38839">
        <ele>95</ele>
        <time>2021-09-25T08:13:33.000Z</time>
      </trkpt>
      <trkpt lat="47.09654" lon="-1.3882">
        <ele>96</ele>
        <time>2021-09-25T08:13:36.000Z</time>
      </trkpt>
      <trkpt lat="47.09653" lon="-1.38807">
        <ele>96</ele>
        <time>2021-09-25T08:13:38.000Z</time>
      </trkpt>
      <trkpt lat="47.09652" lon="-1.38788">
        <ele>98</ele>
        <time>2021-09-25T08:13:41.000Z</time>
      </trkpt>
      <trkpt lat="47.09653" lon="-1.38768">
        <ele>98</ele>
        <time>2021-09-25T08:13:44.000Z</time>
      </trkpt>
      <trkpt lat="47.09654" lon="-1.38755">
        <ele>99</ele>
        <time>2021-09-25T08:13:46.000Z</time>
      </trkpt>
      <trkpt lat="47.09658" lon="-1.38736">
        <ele>99</ele>
        <time>2021-09-25T08:13:49.000Z</time>
      </trkpt>
      <trkpt lat="47.09662" lon="-1.38718">
        <ele>100</ele>
        <time>2021-09-25T08:13:52.000Z</time>
      </trkpt>
      <trkpt lat="47.09666" lon="-1.387">
        <ele>100</ele>
        <time>2021-09-25T08:13:55.000Z</time>
      </trkpt>
      <trkpt lat="47.09672" lon="-1.38682">
        <ele>101</ele>
        <time>2021-09-25T08:13:58.000Z</time>
      </trkpt>
      <trkpt lat="47.09678" lon="-1.38665">
        <ele>101</ele>
        <time>2021-09-25T08:14:01.000Z</time>
      </trkpt>
      <trkpt lat="47.09683" lon="-1.38654">
        <ele>101</ele>
        <time>2021-09-25T08:14:03.000Z</time>
      </trkpt>
      <trkpt lat="47.09688" lon="-1.38642">
        <ele>101</ele>
        <time>2021-09-25T08:14:05.000Z</time>
      </trkpt>
      <trkpt lat="47.09693" lon="-1.38631">
        <ele>101</ele>
        <time>2021-09-25T08:14:07.000Z</time>
      </trkpt>
      <trkpt lat="47.097" lon="-1.38614">
        <ele>101</ele>
        <time>2021-09-25T08:14:10.000Z</time>
      </trkpt>
      <trkpt lat="47.09706" lon="-1.38597">
        <ele>101</ele>
        <time>2021-09-25T08:14:13.000Z</time>
      </trkpt>
      <trkpt lat="47.0971" lon="-1.38584">
        <ele>101</ele>
        <time>2021-09-25T08:14:15.000Z</time>
      </trkpt>
      <trkpt lat="47.09712" lon="-1.3857">
        <ele>102</ele>
        <time>2021-09-25T08:14:17.000Z</time>
      </trkpt>
      <trkpt lat="47.09713" lon="-1.38556">
        <ele>102</ele>
        <time>2021-09-25T08:14:19.000Z</time>
      </trkpt>
      <trkpt lat="47.09715" lon="-1.38541">
        <ele>102</ele>
        <time>2021-09-25T08:14:21.000Z</time>
      </trkpt>
      <trkpt lat="47.09716" lon="-1.38527">
        <ele>103</ele>
        <time>2021-09-25T08:14:23.000Z</time>
      </trkpt>
      <trkpt lat="47.09716" lon="-1.38514">
        <ele>103</ele>
        <time>2021-09-25T08:14:25.000Z</time>
      </trkpt>
      <trkpt lat="47.09715" lon="-1.385">
        <ele>103</ele>
        <time>2021-09-25T08:14:27.000Z</time>
      </trkpt>
      <trkpt lat="47.09714" lon="-1.38485">
        <ele>103</ele>
        <time>2021-09-25T08:14:29.000Z</time>
      </trkpt>
      <trkpt lat="47.09711" lon="-1.38471">
        <ele>104</ele>
        <time>2021-09-25T08:14:31.000Z</time>
      </trkpt>
      <trkpt lat="47.09709" lon="-1.38457">
        <ele>104</ele>
        <time>2021-09-25T08:14:33.000Z</time>
      </trkpt>
      <trkpt lat="47.09709" lon="-1.38443">
        <ele>104</ele>
        <time>2021-09-25T08:14:35.000Z</time>
      </trkpt>
      <trkpt lat="47.09708" lon="-1.38427">
        <ele>104</ele>
        <time>2021-09-25T08:14:37.000Z</time>
      </trkpt>
      <trkpt lat="47.09708" lon="-1.38412">
        <ele>105</ele>
        <time>2021-09-25T08:14:39.000Z</time>
      </trkpt>
      <trkpt lat="47.09712" lon="-1.38398">
        <ele>105</ele>
        <time>2021-09-25T08:14:41.000Z</time>
      </trkpt>
      <trkpt lat="47.09723" lon="-1.38393">
        <ele>106</ele>
        <time>2021-09-25T08:14:43.000Z</time>
      </trkpt>
      <trkpt lat="47.09732" lon="-1.38389">
        <ele>106</ele>
        <time>2021-09-25T08:14:45.000Z</time>
      </trkpt>
      <trkpt lat="47.09738" lon="-1.38379">
        <ele>106</ele>
        <time>2021-09-25T08:14:47.000Z</time>
      </trkpt>
      <trkpt lat="47.09742" lon="-1.38365">
        <ele>106</ele>
        <time>2021-09-25T08:14:49.000Z</time>
      </trkpt>
      <trkpt lat="47.09748" lon="-1.38352">
        <ele>106</ele>
        <time>2021-09-25T08:14:51.000Z</time>
      </trkpt>
      <trkpt lat="47.09759" lon="-1.38346">
        <ele>107</ele>
        <time>2021-09-25T08:14:53.000Z</time>
      </trkpt>
      <trkpt lat="47.0977" lon="-1.38342">
        <ele>106</ele>
        <time>2021-09-25T08:14:55.000Z</time>
      </trkpt>
      <trkpt lat="47.09781" lon="-1.38337">
        <ele>107</ele>
        <time>2021-09-25T08:14:57.000Z</time>
      </trkpt>
      <trkpt lat="47.09792" lon="-1.38329">
        <ele>107</ele>
        <time>2021-09-25T08:14:59.000Z</time>
      </trkpt>
      <trkpt lat="47.09802" lon="-1.38321">
        <ele>107</ele>
        <time>2021-09-25T08:15:01.000Z</time>
      </trkpt>
      <trkpt lat="47.09814" lon="-1.38313">
        <ele>106</ele>
        <time>2021-09-25T08:15:03.000Z</time>
      </trkpt>
      <trkpt lat="47.09825" lon="-1.38305">
        <ele>106</ele>
        <time>2021-09-25T08:15:05.000Z</time>
      </trkpt>
      <trkpt lat="47.09836" lon="-1.38297">
        <ele>106</ele>
        <time>2021-09-25T08:15:07.000Z</time>
      </trkpt>
      <trkpt lat="47.09847" lon="-1.38288">
        <ele>106</ele>
        <time>2021-09-25T08:15:09.000Z</time>
      </trkpt>
      <trkpt lat="47.09857" lon="-1.3828">
        <ele>106</ele>
        <time>2021-09-25T08:15:11.000Z</time>
      </trkpt>
      <trkpt lat="47.09868" lon="-1.38273">
        <ele>106</ele>
        <time>2021-09-25T08:15:13.000Z</time>
      </trkpt>
      <trkpt lat="47.09881" lon="-1.38268">
        <ele>105</ele>
        <time>2021-09-25T08:15:15.000Z</time>
      </trkpt>
      <trkpt lat="47.09893" lon="-1.38264">
        <ele>105</ele>
        <time>2021-09-25T08:15:17.000Z</time>
      </trkpt>
      <trkpt lat="47.09905" lon="-1.3826">
        <ele>105</ele>
        <time>2021-09-25T08:15:19.000Z</time>
      </trkpt>
      <trkpt lat="47.09916" lon="-1.38257">
        <ele>105</ele>
        <time>2021-09-25T08:15:21.000Z</time>
      </trkpt>
      <trkpt lat="47.09928" lon="-1.38252">
        <ele>105</ele>
        <time>2021-09-25T08:15:23.000Z</time>
      </trkpt>
      <trkpt lat="47.0994" lon="-1.38248">
        <ele>106</ele>
        <time>2021-09-25T08:15:25.000Z</time>
      </trkpt>
      <trkpt lat="47.0995" lon="-1.3824">
        <ele>105</ele>
        <time>2021-09-25T08:15:27.000Z</time>
      </trkpt>
      <trkpt lat="47.09959" lon="-1.38228">
        <ele>105</ele>
        <time>2021-09-25T08:15:29.000Z</time>
      </trkpt>
      <trkpt lat="47.09969" lon="-1.38216">
        <ele>105</ele>
        <time>2021-09-25T08:15:31.000Z</time>
      </trkpt>
      <trkpt lat="47.09979" lon="-1.38203">
        <ele>105</ele>
        <time>2021-09-25T08:15:33.000Z</time>
      </trkpt>
      <trkpt lat="47.09988" lon="-1.38191">
        <ele>105</ele>
        <time>2021-09-25T08:15:35.000Z</time>
      </trkpt>
      <trkpt lat="47.09997" lon="-1.38179">
        <ele>105</ele>
        <time>2021-09-25T08:15:37.000Z</time>
      </trkpt>
      <trkpt lat="47.10007" lon="-1.38168">
        <ele>106</ele>
        <time>2021-09-25T08:15:39.000Z</time>
      </trkpt>
      <trkpt lat="47.10017" lon="-1.38156">
        <ele>106</ele>
        <time>2021-09-25T08:15:41.000Z</time>
      </trkpt>
      <trkpt lat="47.10026" lon="-1.38145">
        <ele>106</ele>
        <time>2021-09-25T08:15:43.000Z</time>
      </trkpt>
      <trkpt lat="47.10036" lon="-1.38133">
        <ele>106</ele>
        <time>2021-09-25T08:15:45.000Z</time>
      </trkpt>
      <trkpt lat="47.10046" lon="-1.38123">
        <ele>106</ele>
        <time>2021-09-25T08:15:47.000Z</time>
      </trkpt>
      <trkpt lat="47.10057" lon="-1.38115">
        <ele>106</ele>
        <time>2021-09-25T08:15:49.000Z</time>
      </trkpt>
      <trkpt lat="47.10069" lon="-1.3811">
        <ele>106</ele>
        <time>2021-09-25T08:15:51.000Z</time>
      </trkpt>
      <trkpt lat="47.10082" lon="-1.38106">
        <ele>105</ele>
        <time>2021-09-25T08:15:53.000Z</time>
      </trkpt>
      <trkpt lat="47.10095" lon="-1.38101">
        <ele>105</ele>
        <time>2021-09-25T08:15:55.000Z</time>
      </trkpt>
      <trkpt lat="47.10107" lon="-1.38096">
        <ele>104</ele>
        <time>2021-09-25T08:15:57.000Z</time>
      </trkpt>
      <trkpt lat="47.1012" lon="-1.38091">
        <ele>104</ele>
        <time>2021-09-25T08:15:59.000Z</time>
      </trkpt>
      <trkpt lat="47.10132" lon="-1.38084">
        <ele>103</ele>
        <time>2021-09-25T08:16:01.000Z</time>
      </trkpt>
      <trkpt lat="47.10144" lon="-1.38076">
        <ele>103</ele>
        <time>2021-09-25T08:16:03.000Z</time>
      </trkpt>
      <trkpt lat="47.10155" lon="-1.38067">
        <ele>103</ele>
        <time>2021-09-25T08:16:05.000Z</time>
      </trkpt>
      <trkpt lat="47.10166" lon="-1.38057">
        <ele>103</ele>
        <time>2021-09-25T08:16:07.000Z</time>
      </trkpt>
      <trkpt lat="47.10177" lon="-1.38047">
        <ele>103</ele>
        <time>2021-09-25T08:16:09.000Z</time>
      </trkpt>
      <trkpt lat="47.10187" lon="-1.38036">
        <ele>102</ele>
        <time>2021-09-25T08:16:11.000Z</time>
      </trkpt>
      <trkpt lat="47.10198" lon="-1.38025">
        <ele>102</ele>
        <time>2021-09-25T08:16:13.000Z</time>
      </trkpt>
      <trkpt lat="47.10209" lon="-1.38015">
        <ele>102</ele>
        <time>2021-09-25T08:16:15.000Z</time>
      </trkpt>
      <trkpt lat="47.1022" lon="-1.38006">
        <ele>102</ele>
        <time>2021-09-25T08:16:17.000Z</time>
      </trkpt>
      <trkpt lat="47.10231" lon="-1.37998">
        <ele>102</ele>
        <time>2021-09-25T08:16:19.000Z</time>
      </trkpt>
      <trkpt lat="47.10243" lon="-1.37991">
        <ele>102</ele>
        <time>2021-09-25T08:16:21.000Z</time>
      </trkpt>
      <trkpt lat="47.10254" lon="-1.37985">
        <ele>102</ele>
        <time>2021-09-25T08:16:23.000Z</time>
      </trkpt>
      <trkpt lat="47.10267" lon="-1.37979">
        <ele>102</ele>
        <time>2021-09-25T08:16:25.000Z</time>
      </trkpt>
      <trkpt lat="47.10279" lon="-1.37974">
        <ele>102</ele>
        <time>2021-09-25T08:16:27.000Z</time>
      </trkpt>
      <trkpt lat="47.10291" lon="-1.37969">
        <ele>102</ele>
        <time>2021-09-25T08:16:29.000Z</time>
      </trkpt>
      <trkpt lat="47.10303" lon="-1.37963">
        <ele>102</ele>
        <time>2021-09-25T08:16:31.000Z</time>
      </trkpt>
      <trkpt lat="47.10315" lon="-1.37958">
        <ele>103</ele>
        <time>2021-09-25T08:16:33.000Z</time>
      </trkpt>
      <trkpt lat="47.10326" lon="-1.37952">
        <ele>103</ele>
        <time>2021-09-25T08:16:35.000Z</time>
      </trkpt>
      <trkpt lat="47.10338" lon="-1.37948">
        <ele>103</ele>
        <time>2021-09-25T08:16:37.000Z</time>
      </trkpt>
      <trkpt lat="47.10351" lon="-1.37943">
        <ele>103</ele>
        <time>2021-09-25T08:16:39.000Z</time>
      </trkpt>
      <trkpt lat="47.10363" lon="-1.37938">
        <ele>102</ele>
        <time>2021-09-25T08:16:41.000Z</time>
      </trkpt>
      <trkpt lat="47.10375" lon="-1.37933">
        <ele>102</ele>
        <time>2021-09-25T08:16:43.000Z</time>
      </trkpt>
      <trkpt lat="47.10388" lon="-1.37927">
        <ele>102</ele>
        <time>2021-09-25T08:16:45.000Z</time>
      </trkpt>
      <trkpt lat="47.104" lon="-1.37922">
        <ele>102</ele>
        <time>2021-09-25T08:16:47.000Z</time>
      </trkpt>
      <trkpt lat="47.10412" lon="-1.37916">
        <ele>101</ele>
        <time>2021-09-25T08:16:49.000Z</time>
      </trkpt>
      <trkpt lat="47.10424" lon="-1.3791">
        <ele>101</ele>
        <time>2021-09-25T08:16:51.000Z</time>
      </trkpt>
      <trkpt lat="47.10436" lon="-1.37904">
        <ele>101</ele>
        <time>2021-09-25T08:16:53.000Z</time>
      </trkpt>
      <trkpt lat="47.10448" lon="-1.37898">
        <ele>101</ele>
        <time>2021-09-25T08:16:55.000Z</time>
      </trkpt>
      <trkpt lat="47.10459" lon="-1.3789">
        <ele>101</ele>
        <time>2021-09-25T08:16:57.000Z</time>
      </trkpt>
      <trkpt lat="47.1047" lon="-1.37881">
        <ele>102</ele>
        <time>2021-09-25T08:16:59.000Z</time>
      </trkpt>
      <trkpt lat="47.1048" lon="-1.37871">
        <ele>102</ele>
        <time>2021-09-25T08:17:01.000Z</time>
      </trkpt>
      <trkpt lat="47.1049" lon="-1.37861">
        <ele>102</ele>
        <time>2021-09-25T08:17:03.000Z</time>
      </trkpt>
      <trkpt lat="47.105" lon="-1.37851">
        <ele>102</ele>
        <time>2021-09-25T08:17:05.000Z</time>
      </trkpt>
      <trkpt lat="47.1051" lon="-1.3784">
        <ele>103</ele>
        <time>2021-09-25T08:17:07.000Z</time>
      </trkpt>
      <trkpt lat="47.10519" lon="-1.37829">
        <ele>103</ele>
        <time>2021-09-25T08:17:09.000Z</time>
      </trkpt>
      <trkpt lat="47.10528" lon="-1.37819">
        <ele>103</ele>
        <time>2021-09-25T08:17:11.000Z</time>
      </trkpt>
      <trkpt lat="47.10538" lon="-1.37808">
        <ele>103</ele>
        <time>2021-09-25T08:17:13.000Z</time>
      </trkpt>
      <trkpt lat="47.10547" lon="-1.37798">
        <ele>103</ele>
        <time>2021-09-25T08:17:15.000Z</time>
      </trkpt>
      <trkpt lat="47.10557" lon="-1.37789">
        <ele>104</ele>
        <time>2021-09-25T08:17:17.000Z</time>
      </trkpt>
      <trkpt lat="47.10566" lon="-1.37779">
        <ele>104</ele>
        <time>2021-09-25T08:17:19.000Z</time>
      </trkpt>
      <trkpt lat="47.10576" lon="-1.37768">
        <ele>104</ele>
        <time>2021-09-25T08:17:21.000Z</time>
      </trkpt>
      <trkpt lat="47.10585" lon="-1.37757">
        <ele>104</ele>
        <time>2021-09-25T08:17:23.000Z</time>
      </trkpt>
      <trkpt lat="47.10595" lon="-1.37747">
        <ele>104</ele>
        <time>2021-09-25T08:17:25.000Z</time>
      </trkpt>
      <trkpt lat="47.10604" lon="-1.37737">
        <ele>104</ele>
        <time>2021-09-25T08:17:27.000Z</time>
      </trkpt>
      <trkpt lat="47.10613" lon="-1.37727">
        <ele>104</ele>
        <time>2021-09-25T08:17:29.000Z</time>
      </trkpt>
      <trkpt lat="47.10622" lon="-1.37717">
        <ele>104</ele>
        <time>2021-09-25T08:17:31.000Z</time>
      </trkpt>
      <trkpt lat="47.10631" lon="-1.37708">
        <ele>104</ele>
        <time>2021-09-25T08:17:33.000Z</time>
      </trkpt>
      <trkpt lat="47.1064" lon="-1.37698">
        <ele>104</ele>
        <time>2021-09-25T08:17:35.000Z</time>
      </trkpt>
      <trkpt lat="47.1065" lon="-1.37688">
        <ele>104</ele>
        <time>2021-09-25T08:17:37.000Z</time>
      </trkpt>
      <trkpt lat="47.10659" lon="-1.37678">
        <ele>104</ele>
        <time>2021-09-25T08:17:39.000Z</time>
      </trkpt>
      <trkpt lat="47.10668" lon="-1.37667">
        <ele>104</ele>
        <time>2021-09-25T08:17:41.000Z</time>
      </trkpt>
      <trkpt lat="47.10677" lon="-1.37657">
        <ele>104</ele>
        <time>2021-09-25T08:17:43.000Z</time>
      </trkpt>
      <trkpt lat="47.10687" lon="-1.37647">
        <ele>105</ele>
        <time>2021-09-25T08:17:45.000Z</time>
      </trkpt>
      <trkpt lat="47.10696" lon="-1.37637">
        <ele>105</ele>
        <time>2021-09-25T08:17:47.000Z</time>
      </trkpt>
      <trkpt lat="47.10705" lon="-1.37627">
        <ele>104</ele>
        <time>2021-09-25T08:17:49.000Z</time>
      </trkpt>
      <trkpt lat="47.10715" lon="-1.37617">
        <ele>105</ele>
        <time>2021-09-25T08:17:51.000Z</time>
      </trkpt>
      <trkpt lat="47.10724" lon="-1.37607">
        <ele>105</ele>
        <time>2021-09-25T08:17:53.000Z</time>
      </trkpt>
      <trkpt lat="47.10733" lon="-1.37597">
        <ele>105</ele>
        <time>2021-09-25T08:17:55.000Z</time>
      </trkpt>
      <trkpt lat="47.10742" lon="-1.37588">
        <ele>104</ele>
        <time>2021-09-25T08:17:57.000Z</time>
      </trkpt>
      <trkpt lat="47.10751" lon="-1.37577">
        <ele>105</ele>
        <time>2021-09-25T08:17:59.000Z</time>
      </trkpt>
      <trkpt lat="47.10761" lon="-1.37567">
        <ele>105</ele>
        <time>2021-09-25T08:18:01.000Z</time>
      </trkpt>
      <trkpt lat="47.1077" lon="-1.37556">
        <ele>104</ele>
        <time>2021-09-25T08:18:03.000Z</time>
      </trkpt>
      <trkpt lat="47.1078" lon="-1.37546">
        <ele>105</ele>
        <time>2021-09-25T08:18:05.000Z</time>
      </trkpt>
      <trkpt lat="47.10789" lon="-1.37536">
        <ele>104</ele>
        <time>2021-09-25T08:18:07.000Z</time>
      </trkpt>
      <trkpt lat="47.10799" lon="-1.37525">
        <ele>105</ele>
        <time>2021-09-25T08:18:09.000Z</time>
      </trkpt>
      <trkpt lat="47.10809" lon="-1.37514">
        <ele>105</ele>
        <time>2021-09-25T08:18:11.000Z</time>
      </trkpt>
      <trkpt lat="47.10819" lon="-1.37503">
        <ele>104</ele>
        <time>2021-09-25T08:18:13.000Z</time>
      </trkpt>
      <trkpt lat="47.10829" lon="-1.37493">
        <ele>104</ele>
        <time>2021-09-25T08:18:15.000Z</time>
      </trkpt>
      <trkpt lat="47.10839" lon="-1.37482">
        <ele>105</ele>
        <time>2021-09-25T08:18:17.000Z</time>
      </trkpt>
      <trkpt lat="47.10848" lon="-1.37471">
        <ele>104</ele>
        <time>2021-09-25T08:18:19.000Z</time>
      </trkpt>
      <trkpt lat="47.10858" lon="-1.3746">
        <ele>104</ele>
        <time>2021-09-25T08:18:21.000Z</time>
      </trkpt>
      <trkpt lat="47.10868" lon="-1.3745">
        <ele>105</ele>
        <time>2021-09-25T08:18:23.000Z</time>
      </trkpt>
      <trkpt lat="47.10877" lon="-1.37439">
        <ele>105</ele>
        <time>2021-09-25T08:18:25.000Z</time>
      </trkpt>
      <trkpt lat="47.10887" lon="-1.37428">
        <ele>105</ele>
        <time>2021-09-25T08:18:27.000Z</time>
      </trkpt>
      <trkpt lat="47.10897" lon="-1.37417">
        <ele>104</ele>
        <time>2021-09-25T08:18:29.000Z</time>
      </trkpt>
      <trkpt lat="47.10907" lon="-1.37406">
        <ele>104</ele>
        <time>2021-09-25T08:18:31.000Z</time>
      </trkpt>
      <trkpt lat="47.10917" lon="-1.37395">
        <ele>104</ele>
        <time>2021-09-25T08:18:33.000Z</time>
      </trkpt>
      <trkpt lat="47.10927" lon="-1.37384">
        <ele>104</ele>
        <time>2021-09-25T08:18:35.000Z</time>
      </trkpt>
      <trkpt lat="47.10937" lon="-1.37373">
        <ele>104</ele>
        <time>2021-09-25T08:18:37.000Z</time>
      </trkpt>
      <trkpt lat="47.10946" lon="-1.37363">
        <ele>105</ele>
        <time>2021-09-25T08:18:39.000Z</time>
      </trkpt>
      <trkpt lat="47.10956" lon="-1.37352">
        <ele>105</ele>
        <time>2021-09-25T08:18:41.000Z</time>
      </trkpt>
      <trkpt lat="47.10965" lon="-1.37342">
        <ele>105</ele>
        <time>2021-09-25T08:18:43.000Z</time>
      </trkpt>
      <trkpt lat="47.10975" lon="-1.37332">
        <ele>105</ele>
        <time>2021-09-25T08:18:45.000Z</time>
      </trkpt>
      <trkpt lat="47.10984" lon="-1.37321">
        <ele>105</ele>
        <time>2021-09-25T08:18:47.000Z</time>
      </trkpt>
      <trkpt lat="47.10994" lon="-1.37311">
        <ele>105</ele>
        <time>2021-09-25T08:18:49.000Z</time>
      </trkpt>
      <trkpt lat="47.11004" lon="-1.37301">
        <ele>105</ele>
        <time>2021-09-25T08:18:51.000Z</time>
      </trkpt>
      <trkpt lat="47.11013" lon="-1.3729">
        <ele>105</ele>
        <time>2021-09-25T08:18:53.000Z</time>
      </trkpt>
      <trkpt lat="47.11023" lon="-1.37279">
        <ele>105</ele>
        <time>2021-09-25T08:18:55.000Z</time>
      </trkpt>
      <trkpt lat="47.11033" lon="-1.37269">
        <ele>105</ele>
        <time>2021-09-25T08:18:57.000Z</time>
      </trkpt>
      <trkpt lat="47.11042" lon="-1.37258">
        <ele>105</ele>
        <time>2021-09-25T08:18:59.000Z</time>
      </trkpt>
      <trkpt lat="47.11052" lon="-1.37247">
        <ele>105</ele>
        <time>2021-09-25T08:19:01.000Z</time>
      </trkpt>
      <trkpt lat="47.11062" lon="-1.37236">
        <ele>106</ele>
        <time>2021-09-25T08:19:03.000Z</time>
      </trkpt>
      <trkpt lat="47.11071" lon="-1.37226">
        <ele>106</ele>
        <time>2021-09-25T08:19:05.000Z</time>
      </trkpt>
      <trkpt lat="47.1108" lon="-1.37215">
        <ele>106</ele>
        <time>2021-09-25T08:19:07.000Z</time>
      </trkpt>
      <trkpt lat="47.1109" lon="-1.37205">
        <ele>106</ele>
        <time>2021-09-25T08:19:09.000Z</time>
      </trkpt>
      <trkpt lat="47.11099" lon="-1.37195">
        <ele>106</ele>
        <time>2021-09-25T08:19:11.000Z</time>
      </trkpt>
      <trkpt lat="47.11109" lon="-1.37185">
        <ele>106</ele>
        <time>2021-09-25T08:19:13.000Z</time>
      </trkpt>
      <trkpt lat="47.11119" lon="-1.37175">
        <ele>106</ele>
        <time>2021-09-25T08:19:15.000Z</time>
      </trkpt>
      <trkpt lat="47.11129" lon="-1.37165">
        <ele>106</ele>
        <time>2021-09-25T08:19:17.000Z</time>
      </trkpt>
      <trkpt lat="47.11138" lon="-1.37154">
        <ele>106</ele>
        <time>2021-09-25T08:19:19.000Z</time>
      </trkpt>
      <trkpt lat="47.11148" lon="-1.37144">
        <ele>106</ele>
        <time>2021-09-25T08:19:21.000Z</time>
      </trkpt>
      <trkpt lat="47.11158" lon="-1.37135">
        <ele>106</ele>
        <time>2021-09-25T08:19:23.000Z</time>
      </trkpt>
      <trkpt lat="47.11169" lon="-1.37126">
        <ele>106</ele>
        <time>2021-09-25T08:19:25.000Z</time>
      </trkpt>
      <trkpt lat="47.1118" lon="-1.37117">
        <ele>105</ele>
        <time>2021-09-25T08:19:27.000Z</time>
      </trkpt>
      <trkpt lat="47.11191" lon="-1.37109">
        <ele>105</ele>
        <time>2021-09-25T08:19:29.000Z</time>
      </trkpt>
      <trkpt lat="47.11203" lon="-1.37101">
        <ele>105</ele>
        <time>2021-09-25T08:19:31.000Z</time>
      </trkpt>
      <trkpt lat="47.11215" lon="-1.37092">
        <ele>104</ele>
        <time>2021-09-25T08:19:33.000Z</time>
      </trkpt>
      <trkpt lat="47.11227" lon="-1.37083">
        <ele>104</ele>
        <time>2021-09-25T08:19:35.000Z</time>
      </trkpt>
      <trkpt lat="47.11239" lon="-1.37074">
        <ele>103</ele>
        <time>2021-09-25T08:19:37.000Z</time>
      </trkpt>
      <trkpt lat="47.11252" lon="-1.37065">
        <ele>103</ele>
        <time>2021-09-25T08:19:39.000Z</time>
      </trkpt>
      <trkpt lat="47.11265" lon="-1.37056">
        <ele>102</ele>
        <time>2021-09-25T08:19:41.000Z</time>
      </trkpt>
      <trkpt lat="47.11278" lon="-1.37046">
        <ele>102</ele>
        <time>2021-09-25T08:19:43.000Z</time>
      </trkpt>
      <trkpt lat="47.11291" lon="-1.37037">
        <ele>102</ele>
        <time>2021-09-25T08:19:45.000Z</time>
      </trkpt>
      <trkpt lat="47.11304" lon="-1.37028">
        <ele>101</ele>
        <time>2021-09-25T08:19:47.000Z</time>
      </trkpt>
      <trkpt lat="47.11317" lon="-1.37018">
        <ele>101</ele>
        <time>2021-09-25T08:19:49.000Z</time>
      </trkpt>
      <trkpt lat="47.11329" lon="-1.37009">
        <ele>101</ele>
        <time>2021-09-25T08:19:51.000Z</time>
      </trkpt>
      <trkpt lat="47.11342" lon="-1.37">
        <ele>100</ele>
        <time>2021-09-25T08:19:53.000Z</time>
      </trkpt>
      <trkpt lat="47.11355" lon="-1.3699">
        <ele>100</ele>
        <time>2021-09-25T08:19:55.000Z</time>
      </trkpt>
      <trkpt lat="47.11368" lon="-1.36981">
        <ele>100</ele>
        <time>2021-09-25T08:19:57.000Z</time>
      </trkpt>
      <trkpt lat="47.11381" lon="-1.3697">
        <ele>99</ele>
        <time>2021-09-25T08:19:59.000Z</time>
      </trkpt>
      <trkpt lat="47.11393" lon="-1.36959">
        <ele>99</ele>
        <time>2021-09-25T08:20:01.000Z</time>
      </trkpt>
      <trkpt lat="47.11404" lon="-1.36944">
        <ele>99</ele>
        <time>2021-09-25T08:20:03.000Z</time>
      </trkpt>
      <trkpt lat="47.11413" lon="-1.36927">
        <ele>98</ele>
        <time>2021-09-25T08:20:05.000Z</time>
      </trkpt>
      <trkpt lat="47.1142" lon="-1.36909">
        <ele>98</ele>
        <time>2021-09-25T08:20:07.000Z</time>
      </trkpt>
      <trkpt lat="47.11427" lon="-1.3689">
        <ele>98</ele>
        <time>2021-09-25T08:20:09.000Z</time>
      </trkpt>
      <trkpt lat="47.11434" lon="-1.36872">
        <ele>98</ele>
        <time>2021-09-25T08:20:11.000Z</time>
      </trkpt>
      <trkpt lat="47.1144" lon="-1.36854">
        <ele>98</ele>
        <time>2021-09-25T08:20:13.000Z</time>
      </trkpt>
      <trkpt lat="47.11448" lon="-1.36836">
        <ele>98</ele>
        <time>2021-09-25T08:20:15.000Z</time>
      </trkpt>
      <trkpt lat="47.11457" lon="-1.36819">
        <ele>97</ele>
        <time>2021-09-25T08:20:17.000Z</time>
      </trkpt>
      <trkpt lat="47.11467" lon="-1.36803">
        <ele>97</ele>
        <time>2021-09-25T08:20:19.000Z</time>
      </trkpt>
      <trkpt lat="47.11477" lon="-1.36789">
        <ele>97</ele>
        <time>2021-09-25T08:20:21.000Z</time>
      </trkpt>
      <trkpt lat="47.11488" lon="-1.36777">
        <ele>97</ele>
        <time>2021-09-25T08:20:23.000Z</time>
      </trkpt>
      <trkpt lat="47.115" lon="-1.36765">
        <ele>96</ele>
        <time>2021-09-25T08:20:25.000Z</time>
      </trkpt>
      <trkpt lat="47.11512" lon="-1.36753">
        <ele>96</ele>
        <time>2021-09-25T08:20:27.000Z</time>
      </trkpt>
      <trkpt lat="47.11523" lon="-1.36742">
        <ele>96</ele>
        <time>2021-09-25T08:20:29.000Z</time>
      </trkpt>
      <trkpt lat="47.11535" lon="-1.3673">
        <ele>95</ele>
        <time>2021-09-25T08:20:31.000Z</time>
      </trkpt>
      <trkpt lat="47.11547" lon="-1.3672">
        <ele>96</ele>
        <time>2021-09-25T08:20:33.000Z</time>
      </trkpt>
      <trkpt lat="47.11559" lon="-1.36709">
        <ele>96</ele>
        <time>2021-09-25T08:20:35.000Z</time>
      </trkpt>
      <trkpt lat="47.11571" lon="-1.36698">
        <ele>96</ele>
        <time>2021-09-25T08:20:37.000Z</time>
      </trkpt>
      <trkpt lat="47.11582" lon="-1.36687">
        <ele>96</ele>
        <time>2021-09-25T08:20:39.000Z</time>
      </trkpt>
      <trkpt lat="47.11593" lon="-1.36676">
        <ele>95</ele>
        <time>2021-09-25T08:20:41.000Z</time>
      </trkpt>
      <trkpt lat="47.11604" lon="-1.36666">
        <ele>96</ele>
        <time>2021-09-25T08:20:43.000Z</time>
      </trkpt>
      <trkpt lat="47.11615" lon="-1.36655">
        <ele>96</ele>
        <time>2021-09-25T08:20:45.000Z</time>
      </trkpt>
      <trkpt lat="47.11626" lon="-1.36645">
        <ele>96</ele>
        <time>2021-09-25T08:20:47.000Z</time>
      </trkpt>
      <trkpt lat="47.11637" lon="-1.36635">
        <ele>96</ele>
        <time>2021-09-25T08:20:49.000Z</time>
      </trkpt>
      <trkpt lat="47.11648" lon="-1.36625">
        <ele>95</ele>
        <time>2021-09-25T08:20:51.000Z</time>
      </trkpt>
      <trkpt lat="47.11659" lon="-1.36615">
        <ele>96</ele>
        <time>2021-09-25T08:20:53.000Z</time>
      </trkpt>
      <trkpt lat="47.11669" lon="-1.36604">
        <ele>96</ele>
        <time>2021-09-25T08:20:55.000Z</time>
      </trkpt>
      <trkpt lat="47.1168" lon="-1.36593">
        <ele>96</ele>
        <time>2021-09-25T08:20:57.000Z</time>
      </trkpt>
      <trkpt lat="47.11696" lon="-1.36577">
        <ele>97</ele>
        <time>2021-09-25T08:21:00.000Z</time>
      </trkpt>
      <trkpt lat="47.11706" lon="-1.36566">
        <ele>97</ele>
        <time>2021-09-25T08:21:02.000Z</time>
      </trkpt>
      <trkpt lat="47.11717" lon="-1.36556">
        <ele>97</ele>
        <time>2021-09-25T08:21:04.000Z</time>
      </trkpt>
      <trkpt lat="47.11728" lon="-1.36546">
        <ele>98</ele>
        <time>2021-09-25T08:21:06.000Z</time>
      </trkpt>
      <trkpt lat="47.11739" lon="-1.36536">
        <ele>98</ele>
        <time>2021-09-25T08:21:08.000Z</time>
      </trkpt>
      <trkpt lat="47.1175" lon="-1.36527">
        <ele>98</ele>
        <time>2021-09-25T08:21:10.000Z</time>
      </trkpt>
      <trkpt lat="47.11762" lon="-1.36519">
        <ele>98</ele>
        <time>2021-09-25T08:21:12.000Z</time>
      </trkpt>
      <trkpt lat="47.11774" lon="-1.36511">
        <ele>98</ele>
        <time>2021-09-25T08:21:14.000Z</time>
      </trkpt>
      <trkpt lat="47.11792" lon="-1.36499">
        <ele>99</ele>
        <time>2021-09-25T08:21:17.000Z</time>
      </trkpt>
      <trkpt lat="47.1181" lon="-1.36488">
        <ele>98</ele>
        <time>2021-09-25T08:21:20.000Z</time>
      </trkpt>
      <trkpt lat="47.11822" lon="-1.3648">
        <ele>98</ele>
        <time>2021-09-25T08:21:22.000Z</time>
      </trkpt>
      <trkpt lat="47.11833" lon="-1.36474">
        <ele>97</ele>
        <time>2021-09-25T08:21:24.000Z</time>
      </trkpt>
      <trkpt lat="47.11844" lon="-1.36467">
        <ele>97</ele>
        <time>2021-09-25T08:21:26.000Z</time>
      </trkpt>
      <trkpt lat="47.11859" lon="-1.36457">
        <ele>96</ele>
        <time>2021-09-25T08:21:29.000Z</time>
      </trkpt>
      <trkpt lat="47.11868" lon="-1.36449">
        <ele>96</ele>
        <time>2021-09-25T08:21:31.000Z</time>
      </trkpt>
      <trkpt lat="47.11877" lon="-1.36441">
        <ele>96</ele>
        <time>2021-09-25T08:21:33.000Z</time>
      </trkpt>
      <trkpt lat="47.11889" lon="-1.36436">
        <ele>96</ele>
        <time>2021-09-25T08:21:35.000Z</time>
      </trkpt>
      <trkpt lat="47.11902" lon="-1.3643">
        <ele>96</ele>
        <time>2021-09-25T08:21:37.000Z</time>
      </trkpt>
      <trkpt lat="47.11916" lon="-1.36421">
        <ele>96</ele>
        <time>2021-09-25T08:21:39.000Z</time>
      </trkpt>
      <trkpt lat="47.1193" lon="-1.36412">
        <ele>95</ele>
        <time>2021-09-25T08:21:41.000Z</time>
      </trkpt>
      <trkpt lat="47.11945" lon="-1.36404">
        <ele>95</ele>
        <time>2021-09-25T08:21:43.000Z</time>
      </trkpt>
      <trkpt lat="47.1196" lon="-1.36395">
        <ele>94</ele>
        <time>2021-09-25T08:21:45.000Z</time>
      </trkpt>
      <trkpt lat="47.11975" lon="-1.36386">
        <ele>93</ele>
        <time>2021-09-25T08:21:47.000Z</time>
      </trkpt>
      <trkpt lat="47.1199" lon="-1.36377">
        <ele>93</ele>
        <time>2021-09-25T08:21:49.000Z</time>
      </trkpt>
      <trkpt lat="47.12014" lon="-1.36363">
        <ele>92</ele>
        <time>2021-09-25T08:21:52.000Z</time>
      </trkpt>
      <trkpt lat="47.12029" lon="-1.36353">
        <ele>92</ele>
        <time>2021-09-25T08:21:54.000Z</time>
      </trkpt>
      <trkpt lat="47.12044" lon="-1.36343">
        <ele>91</ele>
        <time>2021-09-25T08:21:56.000Z</time>
      </trkpt>
      <trkpt lat="47.1206" lon="-1.36334">
        <ele>91</ele>
        <time>2021-09-25T08:21:58.000Z</time>
      </trkpt>
      <trkpt lat="47.12076" lon="-1.36325">
        <ele>90</ele>
        <time>2021-09-25T08:22:00.000Z</time>
      </trkpt>
      <trkpt lat="47.12091" lon="-1.36315">
        <ele>90</ele>
        <time>2021-09-25T08:22:02.000Z</time>
      </trkpt>
      <trkpt lat="47.12107" lon="-1.36306">
        <ele>90</ele>
        <time>2021-09-25T08:22:04.000Z</time>
      </trkpt>
      <trkpt lat="47.12122" lon="-1.36297">
        <ele>90</ele>
        <time>2021-09-25T08:22:06.000Z</time>
      </trkpt>
      <trkpt lat="47.12137" lon="-1.36287">
        <ele>91</ele>
        <time>2021-09-25T08:22:08.000Z</time>
      </trkpt>
      <trkpt lat="47.12152" lon="-1.36278">
        <ele>91</ele>
        <time>2021-09-25T08:22:10.000Z</time>
      </trkpt>
      <trkpt lat="47.12167" lon="-1.36269">
        <ele>92</ele>
        <time>2021-09-25T08:22:12.000Z</time>
      </trkpt>
      <trkpt lat="47.12182" lon="-1.3626">
        <ele>92</ele>
        <time>2021-09-25T08:22:14.000Z</time>
      </trkpt>
      <trkpt lat="47.12196" lon="-1.3625">
        <ele>93</ele>
        <time>2021-09-25T08:22:16.000Z</time>
      </trkpt>
      <trkpt lat="47.12209" lon="-1.36241">
        <ele>93</ele>
        <time>2021-09-25T08:22:18.000Z</time>
      </trkpt>
      <trkpt lat="47.12223" lon="-1.36232">
        <ele>94</ele>
        <time>2021-09-25T08:22:20.000Z</time>
      </trkpt>
      <trkpt lat="47.12236" lon="-1.36225">
        <ele>94</ele>
        <time>2021-09-25T08:22:22.000Z</time>
      </trkpt>
      <trkpt lat="47.12249" lon="-1.36217">
        <ele>95</ele>
        <time>2021-09-25T08:22:24.000Z</time>
      </trkpt>
      <trkpt lat="47.12262" lon="-1.36209">
        <ele>96</ele>
        <time>2021-09-25T08:22:26.000Z</time>
      </trkpt>
      <trkpt lat="47.12275" lon="-1.36201">
        <ele>96</ele>
        <time>2021-09-25T08:22:28.000Z</time>
      </trkpt>
      <trkpt lat="47.12287" lon="-1.36192">
        <ele>96</ele>
        <time>2021-09-25T08:22:30.000Z</time>
      </trkpt>
      <trkpt lat="47.123" lon="-1.36185">
        <ele>96</ele>
        <time>2021-09-25T08:22:32.000Z</time>
      </trkpt>
      <trkpt lat="47.12312" lon="-1.36177">
        <ele>96</ele>
        <time>2021-09-25T08:22:34.000Z</time>
      </trkpt>
      <trkpt lat="47.12325" lon="-1.36169">
        <ele>96</ele>
        <time>2021-09-25T08:22:36.000Z</time>
      </trkpt>
      <trkpt lat="47.12337" lon="-1.36162">
        <ele>96</ele>
        <time>2021-09-25T08:22:38.000Z</time>
      </trkpt>
      <trkpt lat="47.1235" lon="-1.36153">
        <ele>97</ele>
        <time>2021-09-25T08:22:40.000Z</time>
      </trkpt>
      <trkpt lat="47.12363" lon="-1.36146">
        <ele>97</ele>
        <time>2021-09-25T08:22:42.000Z</time>
      </trkpt>
      <trkpt lat="47.12376" lon="-1.36138">
        <ele>96</ele>
        <time>2021-09-25T08:22:44.000Z</time>
      </trkpt>
      <trkpt lat="47.12388" lon="-1.36129">
        <ele>96</ele>
        <time>2021-09-25T08:22:46.000Z</time>
      </trkpt>
      <trkpt lat="47.124" lon="-1.3612">
        <ele>95</ele>
        <time>2021-09-25T08:22:48.000Z</time>
      </trkpt>
      <trkpt lat="47.12412" lon="-1.36111">
        <ele>94</ele>
        <time>2021-09-25T08:22:50.000Z</time>
      </trkpt>
      <trkpt lat="47.12423" lon="-1.36101">
        <ele>93</ele>
        <time>2021-09-25T08:22:52.000Z</time>
      </trkpt>
      <trkpt lat="47.12435" lon="-1.36091">
        <ele>93</ele>
        <time>2021-09-25T08:22:54.000Z</time>
      </trkpt>
      <trkpt lat="47.12447" lon="-1.36081">
        <ele>93</ele>
        <time>2021-09-25T08:22:56.000Z</time>
      </trkpt>
      <trkpt lat="47.12459" lon="-1.36071">
        <ele>92</ele>
        <time>2021-09-25T08:22:58.000Z</time>
      </trkpt>
      <trkpt lat="47.12471" lon="-1.3606">
        <ele>91</ele>
        <time>2021-09-25T08:23:00.000Z</time>
      </trkpt>
      <trkpt lat="47.12483" lon="-1.3605">
        <ele>90</ele>
        <time>2021-09-25T08:23:02.000Z</time>
      </trkpt>
      <trkpt lat="47.12496" lon="-1.36038">
        <ele>90</ele>
        <time>2021-09-25T08:23:04.000Z</time>
      </trkpt>
      <trkpt lat="47.12508" lon="-1.36026">
        <ele>89</ele>
        <time>2021-09-25T08:23:06.000Z</time>
      </trkpt>
      <trkpt lat="47.12521" lon="-1.36015">
        <ele>89</ele>
        <time>2021-09-25T08:23:08.000Z</time>
      </trkpt>
      <trkpt lat="47.12533" lon="-1.36004">
        <ele>88</ele>
        <time>2021-09-25T08:23:10.000Z</time>
      </trkpt>
      <trkpt lat="47.12546" lon="-1.35992">
        <ele>88</ele>
        <time>2021-09-25T08:23:12.000Z</time>
      </trkpt>
      <trkpt lat="47.12559" lon="-1.3598">
        <ele>88</ele>
        <time>2021-09-25T08:23:14.000Z</time>
      </trkpt>
      <trkpt lat="47.12573" lon="-1.35968">
        <ele>87</ele>
        <time>2021-09-25T08:23:16.000Z</time>
      </trkpt>
      <trkpt lat="47.12587" lon="-1.35957">
        <ele>87</ele>
        <time>2021-09-25T08:23:18.000Z</time>
      </trkpt>
      <trkpt lat="47.126" lon="-1.35945">
        <ele>86</ele>
        <time>2021-09-25T08:23:20.000Z</time>
      </trkpt>
      <trkpt lat="47.12614" lon="-1.35932">
        <ele>86</ele>
        <time>2021-09-25T08:23:22.000Z</time>
      </trkpt>
      <trkpt lat="47.12627" lon="-1.35919">
        <ele>85</ele>
        <time>2021-09-25T08:23:24.000Z</time>
      </trkpt>
      <trkpt lat="47.12641" lon="-1.35907">
        <ele>85</ele>
        <time>2021-09-25T08:23:26.000Z</time>
      </trkpt>
      <trkpt lat="47.12655" lon="-1.35895">
        <ele>84</ele>
        <time>2021-09-25T08:23:28.000Z</time>
      </trkpt>
      <trkpt lat="47.12669" lon="-1.35882">
        <ele>83</ele>
        <time>2021-09-25T08:23:30.000Z</time>
      </trkpt>
      <trkpt lat="47.12683" lon="-1.35869">
        <ele>83</ele>
        <time>2021-09-25T08:23:32.000Z</time>
      </trkpt>
      <trkpt lat="47.12697" lon="-1.35857">
        <ele>82</ele>
        <time>2021-09-25T08:23:34.000Z</time>
      </trkpt>
      <trkpt lat="47.1271" lon="-1.35842">
        <ele>82</ele>
        <time>2021-09-25T08:23:36.000Z</time>
      </trkpt>
      <trkpt lat="47.12724" lon="-1.35828">
        <ele>81</ele>
        <time>2021-09-25T08:23:38.000Z</time>
      </trkpt>
      <trkpt lat="47.12738" lon="-1.35815">
        <ele>81</ele>
        <time>2021-09-25T08:23:40.000Z</time>
      </trkpt>
      <trkpt lat="47.12754" lon="-1.35804">
        <ele>81</ele>
        <time>2021-09-25T08:23:42.000Z</time>
      </trkpt>
      <trkpt lat="47.12769" lon="-1.35795">
        <ele>80</ele>
        <time>2021-09-25T08:23:44.000Z</time>
      </trkpt>
      <trkpt lat="47.12783" lon="-1.35785">
        <ele>80</ele>
        <time>2021-09-25T08:23:46.000Z</time>
      </trkpt>
      <trkpt lat="47.12798" lon="-1.35777">
        <ele>80</ele>
        <time>2021-09-25T08:23:48.000Z</time>
      </trkpt>
      <trkpt lat="47.12813" lon="-1.35771">
        <ele>79</ele>
        <time>2021-09-25T08:23:50.000Z</time>
      </trkpt>
      <trkpt lat="47.12829" lon="-1.35765">
        <ele>79</ele>
        <time>2021-09-25T08:23:52.000Z</time>
      </trkpt>
      <trkpt lat="47.12844" lon="-1.3576">
        <ele>79</ele>
        <time>2021-09-25T08:23:54.000Z</time>
      </trkpt>
      <trkpt lat="47.1286" lon="-1.35754">
        <ele>79</ele>
        <time>2021-09-25T08:23:56.000Z</time>
      </trkpt>
      <trkpt lat="47.12874" lon="-1.35748">
        <ele>79</ele>
        <time>2021-09-25T08:23:58.000Z</time>
      </trkpt>
      <trkpt lat="47.1289" lon="-1.35741">
        <ele>80</ele>
        <time>2021-09-25T08:24:00.000Z</time>
      </trkpt>
      <trkpt lat="47.12905" lon="-1.35736">
        <ele>79</ele>
        <time>2021-09-25T08:24:02.000Z</time>
      </trkpt>
      <trkpt lat="47.1292" lon="-1.3573">
        <ele>79</ele>
        <time>2021-09-25T08:24:04.000Z</time>
      </trkpt>
      <trkpt lat="47.12935" lon="-1.35725">
        <ele>80</ele>
        <time>2021-09-25T08:24:06.000Z</time>
      </trkpt>
      <trkpt lat="47.12949" lon="-1.35719">
        <ele>80</ele>
        <time>2021-09-25T08:24:08.000Z</time>
      </trkpt>
      <trkpt lat="47.12964" lon="-1.35714">
        <ele>80</ele>
        <time>2021-09-25T08:24:10.000Z</time>
      </trkpt>
      <trkpt lat="47.12979" lon="-1.35709">
        <ele>79</ele>
        <time>2021-09-25T08:24:12.000Z</time>
      </trkpt>
      <trkpt lat="47.12993" lon="-1.35703">
        <ele>79</ele>
        <time>2021-09-25T08:24:14.000Z</time>
      </trkpt>
      <trkpt lat="47.13007" lon="-1.35697">
        <ele>79</ele>
        <time>2021-09-25T08:24:16.000Z</time>
      </trkpt>
      <trkpt lat="47.13021" lon="-1.3569">
        <ele>80</ele>
        <time>2021-09-25T08:24:18.000Z</time>
      </trkpt>
      <trkpt lat="47.13036" lon="-1.35685">
        <ele>79</ele>
        <time>2021-09-25T08:24:20.000Z</time>
      </trkpt>
      <trkpt lat="47.13051" lon="-1.3568">
        <ele>79</ele>
        <time>2021-09-25T08:24:22.000Z</time>
      </trkpt>
      <trkpt lat="47.13065" lon="-1.35674">
        <ele>79</ele>
        <time>2021-09-25T08:24:24.000Z</time>
      </trkpt>
      <trkpt lat="47.13079" lon="-1.35668">
        <ele>79</ele>
        <time>2021-09-25T08:24:26.000Z</time>
      </trkpt>
      <trkpt lat="47.13094" lon="-1.3566">
        <ele>79</ele>
        <time>2021-09-25T08:24:28.000Z</time>
      </trkpt>
      <trkpt lat="47.13108" lon="-1.35651">
        <ele>79</ele>
        <time>2021-09-25T08:24:30.000Z</time>
      </trkpt>
      <trkpt lat="47.13122" lon="-1.35639">
        <ele>79</ele>
        <time>2021-09-25T08:24:32.000Z</time>
      </trkpt>
      <trkpt lat="47.13134" lon="-1.35625">
        <ele>78</ele>
        <time>2021-09-25T08:24:34.000Z</time>
      </trkpt>
      <trkpt lat="47.13143" lon="-1.35608">
        <ele>78</ele>
        <time>2021-09-25T08:24:36.000Z</time>
      </trkpt>
      <trkpt lat="47.13147" lon="-1.35587">
        <ele>77</ele>
        <time>2021-09-25T08:24:38.000Z</time>
      </trkpt>
      <trkpt lat="47.13151" lon="-1.35569">
        <ele>76</ele>
        <time>2021-09-25T08:24:40.000Z</time>
      </trkpt>
      <trkpt lat="47.13155" lon="-1.35554">
        <ele>77</ele>
        <time>2021-09-25T08:24:42.000Z</time>
      </trkpt>
      <trkpt lat="47.13165" lon="-1.35542">
        <ele>77</ele>
        <time>2021-09-25T08:24:44.000Z</time>
      </trkpt>
      <trkpt lat="47.13177" lon="-1.35531">
        <ele>77</ele>
        <time>2021-09-25T08:24:46.000Z</time>
      </trkpt>
      <trkpt lat="47.13189" lon="-1.35517">
        <ele>77</ele>
        <time>2021-09-25T08:24:48.000Z</time>
      </trkpt>
      <trkpt lat="47.13201" lon="-1.35503">
        <ele>75</ele>
        <time>2021-09-25T08:24:50.000Z</time>
      </trkpt>
      <trkpt lat="47.13213" lon="-1.35488">
        <ele>75</ele>
        <time>2021-09-25T08:24:52.000Z</time>
      </trkpt>
      <trkpt lat="47.13225" lon="-1.35474">
        <ele>74</ele>
        <time>2021-09-25T08:24:54.000Z</time>
      </trkpt>
      <trkpt lat="47.13237" lon="-1.35459">
        <ele>74</ele>
        <time>2021-09-25T08:24:56.000Z</time>
      </trkpt>
      <trkpt lat="47.13249" lon="-1.35444">
        <ele>74</ele>
        <time>2021-09-25T08:24:58.000Z</time>
      </trkpt>
      <trkpt lat="47.1326" lon="-1.3543">
        <ele>73</ele>
        <time>2021-09-25T08:25:00.000Z</time>
      </trkpt>
      <trkpt lat="47.13271" lon="-1.35416">
        <ele>74</ele>
        <time>2021-09-25T08:25:02.000Z</time>
      </trkpt>
      <trkpt lat="47.13282" lon="-1.35401">
        <ele>73</ele>
        <time>2021-09-25T08:25:04.000Z</time>
      </trkpt>
      <trkpt lat="47.13294" lon="-1.35387">
        <ele>74</ele>
        <time>2021-09-25T08:25:06.000Z</time>
      </trkpt>
      <trkpt lat="47.13307" lon="-1.35376">
        <ele>73</ele>
        <time>2021-09-25T08:25:08.000Z</time>
      </trkpt>
      <trkpt lat="47.13321" lon="-1.35367">
        <ele>73</ele>
        <time>2021-09-25T08:25:10.000Z</time>
      </trkpt>
      <trkpt lat="47.13336" lon="-1.35358">
        <ele>73</ele>
        <time>2021-09-25T08:25:12.000Z</time>
      </trkpt>
      <trkpt lat="47.13352" lon="-1.35351">
        <ele>72</ele>
        <time>2021-09-25T08:25:14.000Z</time>
      </trkpt>
      <trkpt lat="47.13368" lon="-1.35346">
        <ele>70</ele>
        <time>2021-09-25T08:25:16.000Z</time>
      </trkpt>
      <trkpt lat="47.13384" lon="-1.35341">
        <ele>70</ele>
        <time>2021-09-25T08:25:18.000Z</time>
      </trkpt>
      <trkpt lat="47.134" lon="-1.35338">
        <ele>69</ele>
        <time>2021-09-25T08:25:20.000Z</time>
      </trkpt>
      <trkpt lat="47.13416" lon="-1.35336">
        <ele>68</ele>
        <time>2021-09-25T08:25:22.000Z</time>
      </trkpt>
      <trkpt lat="47.13432" lon="-1.35334">
        <ele>67</ele>
        <time>2021-09-25T08:25:24.000Z</time>
      </trkpt>
      <trkpt lat="47.13449" lon="-1.35333">
        <ele>67</ele>
        <time>2021-09-25T08:25:26.000Z</time>
      </trkpt>
      <trkpt lat="47.13466" lon="-1.35333">
        <ele>65</ele>
        <time>2021-09-25T08:25:28.000Z</time>
      </trkpt>
      <trkpt lat="47.13483" lon="-1.35333">
        <ele>64</ele>
        <time>2021-09-25T08:25:30.000Z</time>
      </trkpt>
      <trkpt lat="47.13501" lon="-1.35337">
        <ele>64</ele>
        <time>2021-09-25T08:25:32.000Z</time>
      </trkpt>
      <trkpt lat="47.13517" lon="-1.35342">
        <ele>64</ele>
        <time>2021-09-25T08:25:34.000Z</time>
      </trkpt>
      <trkpt lat="47.13534" lon="-1.35348">
        <ele>63</ele>
        <time>2021-09-25T08:25:36.000Z</time>
      </trkpt>
      <trkpt lat="47.13549" lon="-1.35354">
        <ele>63</ele>
        <time>2021-09-25T08:25:38.000Z</time>
      </trkpt>
      <trkpt lat="47.13564" lon="-1.35358">
        <ele>62</ele>
        <time>2021-09-25T08:25:40.000Z</time>
      </trkpt>
      <trkpt lat="47.13579" lon="-1.35363">
        <ele>62</ele>
        <time>2021-09-25T08:25:42.000Z</time>
      </trkpt>
      <trkpt lat="47.13595" lon="-1.35367">
        <ele>61</ele>
        <time>2021-09-25T08:25:44.000Z</time>
      </trkpt>
      <trkpt lat="47.13612" lon="-1.35369">
        <ele>61</ele>
        <time>2021-09-25T08:25:46.000Z</time>
      </trkpt>
      <trkpt lat="47.13629" lon="-1.35369">
        <ele>60</ele>
        <time>2021-09-25T08:25:48.000Z</time>
      </trkpt>
      <trkpt lat="47.13645" lon="-1.35368">
        <ele>60</ele>
        <time>2021-09-25T08:25:50.000Z</time>
      </trkpt>
      <trkpt lat="47.1366" lon="-1.35367">
        <ele>59</ele>
        <time>2021-09-25T08:25:52.000Z</time>
      </trkpt>
      <trkpt lat="47.13676" lon="-1.35366">
        <ele>59</ele>
        <time>2021-09-25T08:25:54.000Z</time>
      </trkpt>
      <trkpt lat="47.13692" lon="-1.35365">
        <ele>58</ele>
        <time>2021-09-25T08:25:56.000Z</time>
      </trkpt>
      <trkpt lat="47.13708" lon="-1.35363">
        <ele>58</ele>
        <time>2021-09-25T08:25:58.000Z</time>
      </trkpt>
      <trkpt lat="47.13723" lon="-1.35363">
        <ele>59</ele>
        <time>2021-09-25T08:26:00.000Z</time>
      </trkpt>
      <trkpt lat="47.13737" lon="-1.35362">
        <ele>58</ele>
        <time>2021-09-25T08:26:02.000Z</time>
      </trkpt>
      <trkpt lat="47.1375" lon="-1.35361">
        <ele>59</ele>
        <time>2021-09-25T08:26:04.000Z</time>
      </trkpt>
      <trkpt lat="47.13764" lon="-1.3536">
        <ele>59</ele>
        <time>2021-09-25T08:26:06.000Z</time>
      </trkpt>
      <trkpt lat="47.13776" lon="-1.35359">
        <ele>59</ele>
        <time>2021-09-25T08:26:08.000Z</time>
      </trkpt>
      <trkpt lat="47.13789" lon="-1.35358">
        <ele>59</ele>
        <time>2021-09-25T08:26:10.000Z</time>
      </trkpt>
      <trkpt lat="47.13802" lon="-1.35357">
        <ele>59</ele>
        <time>2021-09-25T08:26:12.000Z</time>
      </trkpt>
      <trkpt lat="47.13816" lon="-1.35356">
        <ele>58</ele>
        <time>2021-09-25T08:26:14.000Z</time>
      </trkpt>
      <trkpt lat="47.13831" lon="-1.35356">
        <ele>58</ele>
        <time>2021-09-25T08:26:16.000Z</time>
      </trkpt>
      <trkpt lat="47.13845" lon="-1.35364">
        <ele>57</ele>
        <time>2021-09-25T08:26:18.000Z</time>
      </trkpt>
      <trkpt lat="47.13857" lon="-1.35376">
        <ele>57</ele>
        <time>2021-09-25T08:26:20.000Z</time>
      </trkpt>
      <trkpt lat="47.13869" lon="-1.3539">
        <ele>57</ele>
        <time>2021-09-25T08:26:22.000Z</time>
      </trkpt>
      <trkpt lat="47.1388" lon="-1.35403">
        <ele>57</ele>
        <time>2021-09-25T08:26:24.000Z</time>
      </trkpt>
      <trkpt lat="47.13891" lon="-1.35417">
        <ele>57</ele>
        <time>2021-09-25T08:26:26.000Z</time>
      </trkpt>
      <trkpt lat="47.13902" lon="-1.3543">
        <ele>57</ele>
        <time>2021-09-25T08:26:28.000Z</time>
      </trkpt>
      <trkpt lat="47.13913" lon="-1.35442">
        <ele>57</ele>
        <time>2021-09-25T08:26:30.000Z</time>
      </trkpt>
      <trkpt lat="47.13925" lon="-1.35454">
        <ele>57</ele>
        <time>2021-09-25T08:26:32.000Z</time>
      </trkpt>
      <trkpt lat="47.13937" lon="-1.35462">
        <ele>57</ele>
        <time>2021-09-25T08:26:34.000Z</time>
      </trkpt>
      <trkpt lat="47.1395" lon="-1.35467">
        <ele>57</ele>
        <time>2021-09-25T08:26:36.000Z</time>
      </trkpt>
      <trkpt lat="47.13964" lon="-1.3547">
        <ele>57</ele>
        <time>2021-09-25T08:26:38.000Z</time>
      </trkpt>
      <trkpt lat="47.13978" lon="-1.35472">
        <ele>57</ele>
        <time>2021-09-25T08:26:40.000Z</time>
      </trkpt>
      <trkpt lat="47.1399" lon="-1.35472">
        <ele>58</ele>
        <time>2021-09-25T08:26:42.000Z</time>
      </trkpt>
      <trkpt lat="47.14003" lon="-1.35471">
        <ele>59</ele>
        <time>2021-09-25T08:26:44.000Z</time>
      </trkpt>
      <trkpt lat="47.14014" lon="-1.35471">
        <ele>60</ele>
        <time>2021-09-25T08:26:46.000Z</time>
      </trkpt>
      <trkpt lat="47.14025" lon="-1.35471">
        <ele>61</ele>
        <time>2021-09-25T08:26:48.000Z</time>
      </trkpt>
      <trkpt lat="47.14036" lon="-1.35471">
        <ele>61</ele>
        <time>2021-09-25T08:26:50.000Z</time>
      </trkpt>
      <trkpt lat="47.14047" lon="-1.35471">
        <ele>62</ele>
        <time>2021-09-25T08:26:52.000Z</time>
      </trkpt>
      <trkpt lat="47.14058" lon="-1.35472">
        <ele>62</ele>
        <time>2021-09-25T08:26:54.000Z</time>
      </trkpt>
      <trkpt lat="47.14069" lon="-1.35471">
        <ele>62</ele>
        <time>2021-09-25T08:26:56.000Z</time>
      </trkpt>
      <trkpt lat="47.1408" lon="-1.35472">
        <ele>63</ele>
        <time>2021-09-25T08:26:58.000Z</time>
      </trkpt>
      <trkpt lat="47.14091" lon="-1.35472">
        <ele>64</ele>
        <time>2021-09-25T08:27:00.000Z</time>
      </trkpt>
      <trkpt lat="47.14101" lon="-1.35472">
        <ele>65</ele>
        <time>2021-09-25T08:27:02.000Z</time>
      </trkpt>
      <trkpt lat="47.14112" lon="-1.35473">
        <ele>65</ele>
        <time>2021-09-25T08:27:04.000Z</time>
      </trkpt>
      <trkpt lat="47.14124" lon="-1.35473">
        <ele>66</ele>
        <time>2021-09-25T08:27:06.000Z</time>
      </trkpt>
      <trkpt lat="47.14135" lon="-1.35473">
        <ele>66</ele>
        <time>2021-09-25T08:27:08.000Z</time>
      </trkpt>
      <trkpt lat="47.14145" lon="-1.35473">
        <ele>67</ele>
        <time>2021-09-25T08:27:10.000Z</time>
      </trkpt>
      <trkpt lat="47.14156" lon="-1.35473">
        <ele>68</ele>
        <time>2021-09-25T08:27:12.000Z</time>
      </trkpt>
      <trkpt lat="47.14166" lon="-1.35473">
        <ele>68</ele>
        <time>2021-09-25T08:27:14.000Z</time>
      </trkpt>
      <trkpt lat="47.14177" lon="-1.35474">
        <ele>69</ele>
        <time>2021-09-25T08:27:16.000Z</time>
      </trkpt>
      <trkpt lat="47.14187" lon="-1.35475">
        <ele>70</ele>
        <time>2021-09-25T08:27:18.000Z</time>
      </trkpt>
      <trkpt lat="47.14198" lon="-1.35474">
        <ele>71</ele>
        <time>2021-09-25T08:27:20.000Z</time>
      </trkpt>
      <trkpt lat="47.14208" lon="-1.35474">
        <ele>71</ele>
        <time>2021-09-25T08:27:22.000Z</time>
      </trkpt>
      <trkpt lat="47.14218" lon="-1.35474">
        <ele>72</ele>
        <time>2021-09-25T08:27:24.000Z</time>
      </trkpt>
      <trkpt lat="47.14228" lon="-1.35472">
        <ele>72</ele>
        <time>2021-09-25T08:27:26.000Z</time>
      </trkpt>
      <trkpt lat="47.14238" lon="-1.35471">
        <ele>72</ele>
        <time>2021-09-25T08:27:28.000Z</time>
      </trkpt>
      <trkpt lat="47.14248" lon="-1.35467">
        <ele>73</ele>
        <time>2021-09-25T08:27:30.000Z</time>
      </trkpt>
      <trkpt lat="47.14258" lon="-1.35463">
        <ele>74</ele>
        <time>2021-09-25T08:27:32.000Z</time>
      </trkpt>
      <trkpt lat="47.14268" lon="-1.35458">
        <ele>74</ele>
        <time>2021-09-25T08:27:34.000Z</time>
      </trkpt>
      <trkpt lat="47.14277" lon="-1.35453">
        <ele>74</ele>
        <time>2021-09-25T08:27:36.000Z</time>
      </trkpt>
      <trkpt lat="47.14287" lon="-1.35448">
        <ele>75</ele>
        <time>2021-09-25T08:27:38.000Z</time>
      </trkpt>
      <trkpt lat="47.14297" lon="-1.35443">
        <ele>75</ele>
        <time>2021-09-25T08:27:40.000Z</time>
      </trkpt>
      <trkpt lat="47.14307" lon="-1.35437">
        <ele>76</ele>
        <time>2021-09-25T08:27:42.000Z</time>
      </trkpt>
      <trkpt lat="47.14317" lon="-1.35431">
        <ele>76</ele>
        <time>2021-09-25T08:27:44.000Z</time>
      </trkpt>
      <trkpt lat="47.14327" lon="-1.35425">
        <ele>76</ele>
        <time>2021-09-25T08:27:46.000Z</time>
      </trkpt>
      <trkpt lat="47.14337" lon="-1.3542">
        <ele>76</ele>
        <time>2021-09-25T08:27:48.000Z</time>
      </trkpt>
      <trkpt lat="47.14347" lon="-1.35414">
        <ele>77</ele>
        <time>2021-09-25T08:27:50.000Z</time>
      </trkpt>
      <trkpt lat="47.14356" lon="-1.35408">
        <ele>77</ele>
        <time>2021-09-25T08:27:52.000Z</time>
      </trkpt>
      <trkpt lat="47.14366" lon="-1.35403">
        <ele>77</ele>
        <time>2021-09-25T08:27:54.000Z</time>
      </trkpt>
      <trkpt lat="47.14376" lon="-1.35397">
        <ele>77</ele>
        <time>2021-09-25T08:27:56.000Z</time>
      </trkpt>
      <trkpt lat="47.14386" lon="-1.35391">
        <ele>78</ele>
        <time>2021-09-25T08:27:58.000Z</time>
      </trkpt>
      <trkpt lat="47.14396" lon="-1.35385">
        <ele>78</ele>
        <time>2021-09-25T08:28:00.000Z</time>
      </trkpt>
      <trkpt lat="47.14405" lon="-1.35379">
        <ele>78</ele>
        <time>2021-09-25T08:28:02.000Z</time>
      </trkpt>
      <trkpt lat="47.14415" lon="-1.35373">
        <ele>78</ele>
        <time>2021-09-25T08:28:04.000Z</time>
      </trkpt>
      <trkpt lat="47.14425" lon="-1.35368">
        <ele>78</ele>
        <time>2021-09-25T08:28:06.000Z</time>
      </trkpt>
      <trkpt lat="47.14435" lon="-1.35362">
        <ele>79</ele>
        <time>2021-09-25T08:28:08.000Z</time>
      </trkpt>
      <trkpt lat="47.14445" lon="-1.35357">
        <ele>79</ele>
        <time>2021-09-25T08:28:10.000Z</time>
      </trkpt>
      <trkpt lat="47.14456" lon="-1.35351">
        <ele>79</ele>
        <time>2021-09-25T08:28:12.000Z</time>
      </trkpt>
      <trkpt lat="47.14466" lon="-1.35345">
        <ele>79</ele>
        <time>2021-09-25T08:28:14.000Z</time>
      </trkpt>
      <trkpt lat="47.14476" lon="-1.35339">
        <ele>80</ele>
        <time>2021-09-25T08:28:16.000Z</time>
      </trkpt>
      <trkpt lat="47.14487" lon="-1.35333">
        <ele>80</ele>
        <time>2021-09-25T08:28:18.000Z</time>
      </trkpt>
      <trkpt lat="47.14497" lon="-1.35327">
        <ele>80</ele>
        <time>2021-09-25T08:28:20.000Z</time>
      </trkpt>
      <trkpt lat="47.14508" lon="-1.35322">
        <ele>80</ele>
        <time>2021-09-25T08:28:22.000Z</time>
      </trkpt>
      <trkpt lat="47.14518" lon="-1.35316">
        <ele>80</ele>
        <time>2021-09-25T08:28:24.000Z</time>
      </trkpt>
      <trkpt lat="47.14529" lon="-1.3531">
        <ele>80</ele>
        <time>2021-09-25T08:28:26.000Z</time>
      </trkpt>
      <trkpt lat="47.1454" lon="-1.35304">
        <ele>80</ele>
        <time>2021-09-25T08:28:28.000Z</time>
      </trkpt>
      <trkpt lat="47.14551" lon="-1.35297">
        <ele>80</ele>
        <time>2021-09-25T08:28:30.000Z</time>
      </trkpt>
      <trkpt lat="47.14561" lon="-1.35291">
        <ele>80</ele>
        <time>2021-09-25T08:28:32.000Z</time>
      </trkpt>
      <trkpt lat="47.14572" lon="-1.35285">
        <ele>80</ele>
        <time>2021-09-25T08:28:34.000Z</time>
      </trkpt>
      <trkpt lat="47.14583" lon="-1.35278">
        <ele>79</ele>
        <time>2021-09-25T08:28:36.000Z</time>
      </trkpt>
      <trkpt lat="47.14592" lon="-1.35267">
        <ele>79</ele>
        <time>2021-09-25T08:28:38.000Z</time>
      </trkpt>
      <trkpt lat="47.14601" lon="-1.35257">
        <ele>80</ele>
        <time>2021-09-25T08:28:40.000Z</time>
      </trkpt>
      <trkpt lat="47.14611" lon="-1.3525">
        <ele>80</ele>
        <time>2021-09-25T08:28:42.000Z</time>
      </trkpt>
      <trkpt lat="47.14623" lon="-1.35245">
        <ele>80</ele>
        <time>2021-09-25T08:28:44.000Z</time>
      </trkpt>
      <trkpt lat="47.14634" lon="-1.35239">
        <ele>80</ele>
        <time>2021-09-25T08:28:46.000Z</time>
      </trkpt>
      <trkpt lat="47.14644" lon="-1.35232">
        <ele>81</ele>
        <time>2021-09-25T08:28:48.000Z</time>
      </trkpt>
      <trkpt lat="47.14654" lon="-1.35223">
        <ele>81</ele>
        <time>2021-09-25T08:28:50.000Z</time>
      </trkpt>
      <trkpt lat="47.14664" lon="-1.35214">
        <ele>81</ele>
        <time>2021-09-25T08:28:52.000Z</time>
      </trkpt>
      <trkpt lat="47.14674" lon="-1.35204">
        <ele>81</ele>
        <time>2021-09-25T08:28:54.000Z</time>
      </trkpt>
      <trkpt lat="47.14685" lon="-1.35194">
        <ele>81</ele>
        <time>2021-09-25T08:28:56.000Z</time>
      </trkpt>
      <trkpt lat="47.14697" lon="-1.35182">
        <ele>80</ele>
        <time>2021-09-25T08:28:58.000Z</time>
      </trkpt>
      <trkpt lat="47.14709" lon="-1.35171">
        <ele>80</ele>
        <time>2021-09-25T08:29:00.000Z</time>
      </trkpt>
      <trkpt lat="47.14721" lon="-1.35159">
        <ele>80</ele>
        <time>2021-09-25T08:29:02.000Z</time>
      </trkpt>
      <trkpt lat="47.14735" lon="-1.35148">
        <ele>80</ele>
        <time>2021-09-25T08:29:04.000Z</time>
      </trkpt>
      <trkpt lat="47.14748" lon="-1.35135">
        <ele>80</ele>
        <time>2021-09-25T08:29:06.000Z</time>
      </trkpt>
      <trkpt lat="47.14761" lon="-1.35123">
        <ele>79</ele>
        <time>2021-09-25T08:29:08.000Z</time>
      </trkpt>
      <trkpt lat="47.14774" lon="-1.3511">
        <ele>79</ele>
        <time>2021-09-25T08:29:10.000Z</time>
      </trkpt>
      <trkpt lat="47.14787" lon="-1.35098">
        <ele>78</ele>
        <time>2021-09-25T08:29:12.000Z</time>
      </trkpt>
      <trkpt lat="47.148" lon="-1.35085">
        <ele>78</ele>
        <time>2021-09-25T08:29:14.000Z</time>
      </trkpt>
      <trkpt lat="47.14813" lon="-1.35072">
        <ele>78</ele>
        <time>2021-09-25T08:29:16.000Z</time>
      </trkpt>
      <trkpt lat="47.14825" lon="-1.3506">
        <ele>78</ele>
        <time>2021-09-25T08:29:18.000Z</time>
      </trkpt>
      <trkpt lat="47.14838" lon="-1.35047">
        <ele>77</ele>
        <time>2021-09-25T08:29:20.000Z</time>
      </trkpt>
      <trkpt lat="47.14851" lon="-1.35036">
        <ele>77</ele>
        <time>2021-09-25T08:29:22.000Z</time>
      </trkpt>
      <trkpt lat="47.14865" lon="-1.35023">
        <ele>76</ele>
        <time>2021-09-25T08:29:24.000Z</time>
      </trkpt>
      <trkpt lat="47.14878" lon="-1.35011">
        <ele>75</ele>
        <time>2021-09-25T08:29:26.000Z</time>
      </trkpt>
      <trkpt lat="47.14891" lon="-1.34997">
        <ele>74</ele>
        <time>2021-09-25T08:29:28.000Z</time>
      </trkpt>
      <trkpt lat="47.14904" lon="-1.34984">
        <ele>75</ele>
        <time>2021-09-25T08:29:30.000Z</time>
      </trkpt>
      <trkpt lat="47.14916" lon="-1.34972">
        <ele>75</ele>
        <time>2021-09-25T08:29:32.000Z</time>
      </trkpt>
      <trkpt lat="47.14929" lon="-1.34959">
        <ele>74</ele>
        <time>2021-09-25T08:29:34.000Z</time>
      </trkpt>
      <trkpt lat="47.14941" lon="-1.34947">
        <ele>74</ele>
        <time>2021-09-25T08:29:36.000Z</time>
      </trkpt>
      <trkpt lat="47.14952" lon="-1.34934">
        <ele>73</ele>
        <time>2021-09-25T08:29:38.000Z</time>
      </trkpt>
      <trkpt lat="47.14964" lon="-1.3492">
        <ele>73</ele>
        <time>2021-09-25T08:29:40.000Z</time>
      </trkpt>
      <trkpt lat="47.14975" lon="-1.34907">
        <ele>73</ele>
        <time>2021-09-25T08:29:42.000Z</time>
      </trkpt>
      <trkpt lat="47.14985" lon="-1.34893">
        <ele>73</ele>
        <time>2021-09-25T08:29:44.000Z</time>
      </trkpt>
      <trkpt lat="47.14995" lon="-1.3488">
        <ele>73</ele>
        <time>2021-09-25T08:29:46.000Z</time>
      </trkpt>
      <trkpt lat="47.15006" lon="-1.34867">
        <ele>73</ele>
        <time>2021-09-25T08:29:48.000Z</time>
      </trkpt>
      <trkpt lat="47.15016" lon="-1.34854">
        <ele>73</ele>
        <time>2021-09-25T08:29:50.000Z</time>
      </trkpt>
      <trkpt lat="47.15026" lon="-1.34842">
        <ele>73</ele>
        <time>2021-09-25T08:29:52.000Z</time>
      </trkpt>
      <trkpt lat="47.15035" lon="-1.34829">
        <ele>73</ele>
        <time>2021-09-25T08:29:54.000Z</time>
      </trkpt>
      <trkpt lat="47.15046" lon="-1.34816">
        <ele>73</ele>
        <time>2021-09-25T08:29:56.000Z</time>
      </trkpt>
      <trkpt lat="47.15056" lon="-1.34803">
        <ele>73</ele>
        <time>2021-09-25T08:29:58.000Z</time>
      </trkpt>
      <trkpt lat="47.15066" lon="-1.34791">
        <ele>72</ele>
        <time>2021-09-25T08:30:00.000Z</time>
      </trkpt>
      <trkpt lat="47.15076" lon="-1.34778">
        <ele>73</ele>
        <time>2021-09-25T08:30:02.000Z</time>
      </trkpt>
      <trkpt lat="47.15086" lon="-1.34765">
        <ele>73</ele>
        <time>2021-09-25T08:30:04.000Z</time>
      </trkpt>
      <trkpt lat="47.15096" lon="-1.34752">
        <ele>73</ele>
        <time>2021-09-25T08:30:06.000Z</time>
      </trkpt>
      <trkpt lat="47.15106" lon="-1.3474">
        <ele>73</ele>
        <time>2021-09-25T08:30:08.000Z</time>
      </trkpt>
      <trkpt lat="47.15115" lon="-1.34727">
        <ele>73</ele>
        <time>2021-09-25T08:30:10.000Z</time>
      </trkpt>
      <trkpt lat="47.15126" lon="-1.34715">
        <ele>73</ele>
        <time>2021-09-25T08:30:12.000Z</time>
      </trkpt>
      <trkpt lat="47.15136" lon="-1.34702">
        <ele>73</ele>
        <time>2021-09-25T08:30:14.000Z</time>
      </trkpt>
      <trkpt lat="47.15146" lon="-1.34688">
        <ele>74</ele>
        <time>2021-09-25T08:30:16.000Z</time>
      </trkpt>
      <trkpt lat="47.15155" lon="-1.34676">
        <ele>74</ele>
        <time>2021-09-25T08:30:18.000Z</time>
      </trkpt>
      <trkpt lat="47.15165" lon="-1.34664">
        <ele>74</ele>
        <time>2021-09-25T08:30:20.000Z</time>
      </trkpt>
      <trkpt lat="47.15175" lon="-1.34651">
        <ele>74</ele>
        <time>2021-09-25T08:30:22.000Z</time>
      </trkpt>
      <trkpt lat="47.15185" lon="-1.34638">
        <ele>74</ele>
        <time>2021-09-25T08:30:24.000Z</time>
      </trkpt>
      <trkpt lat="47.15194" lon="-1.34626">
        <ele>74</ele>
        <time>2021-09-25T08:30:26.000Z</time>
      </trkpt>
      <trkpt lat="47.15205" lon="-1.34613">
        <ele>74</ele>
        <time>2021-09-25T08:30:28.000Z</time>
      </trkpt>
      <trkpt lat="47.15214" lon="-1.34601">
        <ele>74</ele>
        <time>2021-09-25T08:30:30.000Z</time>
      </trkpt>
      <trkpt lat="47.15224" lon="-1.34589">
        <ele>74</ele>
        <time>2021-09-25T08:30:32.000Z</time>
      </trkpt>
      <trkpt lat="47.15234" lon="-1.34576">
        <ele>74</ele>
        <time>2021-09-25T08:30:34.000Z</time>
      </trkpt>
      <trkpt lat="47.15243" lon="-1.34563">
        <ele>75</ele>
        <time>2021-09-25T08:30:36.000Z</time>
      </trkpt>
      <trkpt lat="47.15254" lon="-1.3455">
        <ele>75</ele>
        <time>2021-09-25T08:30:38.000Z</time>
      </trkpt>
      <trkpt lat="47.15263" lon="-1.34538">
        <ele>75</ele>
        <time>2021-09-25T08:30:40.000Z</time>
      </trkpt>
      <trkpt lat="47.15273" lon="-1.34526">
        <ele>75</ele>
        <time>2021-09-25T08:30:42.000Z</time>
      </trkpt>
      <trkpt lat="47.15283" lon="-1.34514">
        <ele>75</ele>
        <time>2021-09-25T08:30:44.000Z</time>
      </trkpt>
      <trkpt lat="47.15292" lon="-1.34501">
        <ele>75</ele>
        <time>2021-09-25T08:30:46.000Z</time>
      </trkpt>
      <trkpt lat="47.15302" lon="-1.34488">
        <ele>76</ele>
        <time>2021-09-25T08:30:48.000Z</time>
      </trkpt>
      <trkpt lat="47.15312" lon="-1.34476">
        <ele>76</ele>
        <time>2021-09-25T08:30:50.000Z</time>
      </trkpt>
      <trkpt lat="47.15323" lon="-1.34464">
        <ele>76</ele>
        <time>2021-09-25T08:30:52.000Z</time>
      </trkpt>
      <trkpt lat="47.15334" lon="-1.34454">
        <ele>76</ele>
        <time>2021-09-25T08:30:54.000Z</time>
      </trkpt>
      <trkpt lat="47.15345" lon="-1.34444">
        <ele>76</ele>
        <time>2021-09-25T08:30:56.000Z</time>
      </trkpt>
      <trkpt lat="47.15356" lon="-1.34436">
        <ele>76</ele>
        <time>2021-09-25T08:30:58.000Z</time>
      </trkpt>
      <trkpt lat="47.15368" lon="-1.34428">
        <ele>76</ele>
        <time>2021-09-25T08:31:00.000Z</time>
      </trkpt>
      <trkpt lat="47.15381" lon="-1.34423">
        <ele>76</ele>
        <time>2021-09-25T08:31:02.000Z</time>
      </trkpt>
      <trkpt lat="47.15394" lon="-1.34419">
        <ele>76</ele>
        <time>2021-09-25T08:31:04.000Z</time>
      </trkpt>
      <trkpt lat="47.15407" lon="-1.34416">
        <ele>76</ele>
        <time>2021-09-25T08:31:06.000Z</time>
      </trkpt>
      <trkpt lat="47.1542" lon="-1.34416">
        <ele>76</ele>
        <time>2021-09-25T08:31:08.000Z</time>
      </trkpt>
      <trkpt lat="47.15433" lon="-1.34418">
        <ele>76</ele>
        <time>2021-09-25T08:31:10.000Z</time>
      </trkpt>
      <trkpt lat="47.15447" lon="-1.3442">
        <ele>76</ele>
        <time>2021-09-25T08:31:12.000Z</time>
      </trkpt>
      <trkpt lat="47.1546" lon="-1.34423">
        <ele>76</ele>
        <time>2021-09-25T08:31:14.000Z</time>
      </trkpt>
      <trkpt lat="47.15473" lon="-1.34426">
        <ele>76</ele>
        <time>2021-09-25T08:31:16.000Z</time>
      </trkpt>
      <trkpt lat="47.15485" lon="-1.34429">
        <ele>76</ele>
        <time>2021-09-25T08:31:18.000Z</time>
      </trkpt>
      <trkpt lat="47.15498" lon="-1.34432">
        <ele>77</ele>
        <time>2021-09-25T08:31:20.000Z</time>
      </trkpt>
      <trkpt lat="47.1551" lon="-1.34436">
        <ele>77</ele>
        <time>2021-09-25T08:31:22.000Z</time>
      </trkpt>
      <trkpt lat="47.15523" lon="-1.3444">
        <ele>77</ele>
        <time>2021-09-25T08:31:24.000Z</time>
      </trkpt>
      <trkpt lat="47.15536" lon="-1.34443">
        <ele>77</ele>
        <time>2021-09-25T08:31:26.000Z</time>
      </trkpt>
      <trkpt lat="47.15549" lon="-1.34446">
        <ele>78</ele>
        <time>2021-09-25T08:31:28.000Z</time>
      </trkpt>
      <trkpt lat="47.15561" lon="-1.3445">
        <ele>78</ele>
        <time>2021-09-25T08:31:30.000Z</time>
      </trkpt>
      <trkpt lat="47.15574" lon="-1.34454">
        <ele>77</ele>
        <time>2021-09-25T08:31:32.000Z</time>
      </trkpt>
      <trkpt lat="47.15586" lon="-1.34457">
        <ele>77</ele>
        <time>2021-09-25T08:31:34.000Z</time>
      </trkpt>
      <trkpt lat="47.15599" lon="-1.3446">
        <ele>78</ele>
        <time>2021-09-25T08:31:36.000Z</time>
      </trkpt>
      <trkpt lat="47.15611" lon="-1.34461">
        <ele>78</ele>
        <time>2021-09-25T08:31:38.000Z</time>
      </trkpt>
      <trkpt lat="47.15623" lon="-1.34461">
        <ele>78</ele>
        <time>2021-09-25T08:31:40.000Z</time>
      </trkpt>
      <trkpt lat="47.15635" lon="-1.34458">
        <ele>79</ele>
        <time>2021-09-25T08:31:42.000Z</time>
      </trkpt>
      <trkpt lat="47.15647" lon="-1.34453">
        <ele>79</ele>
        <time>2021-09-25T08:31:44.000Z</time>
      </trkpt>
      <trkpt lat="47.15658" lon="-1.34446">
        <ele>79</ele>
        <time>2021-09-25T08:31:46.000Z</time>
      </trkpt>
      <trkpt lat="47.15669" lon="-1.34437">
        <ele>79</ele>
        <time>2021-09-25T08:31:48.000Z</time>
      </trkpt>
      <trkpt lat="47.15679" lon="-1.34427">
        <ele>79</ele>
        <time>2021-09-25T08:31:50.000Z</time>
      </trkpt>
      <trkpt lat="47.15689" lon="-1.34414">
        <ele>79</ele>
        <time>2021-09-25T08:31:52.000Z</time>
      </trkpt>
      <trkpt lat="47.15698" lon="-1.34401">
        <ele>79</ele>
        <time>2021-09-25T08:31:54.000Z</time>
      </trkpt>
      <trkpt lat="47.15707" lon="-1.34389">
        <ele>79</ele>
        <time>2021-09-25T08:31:56.000Z</time>
      </trkpt>
      <trkpt lat="47.15716" lon="-1.34377">
        <ele>79</ele>
        <time>2021-09-25T08:31:58.000Z</time>
      </trkpt>
      <trkpt lat="47.15725" lon="-1.34366">
        <ele>79</ele>
        <time>2021-09-25T08:32:00.000Z</time>
      </trkpt>
      <trkpt lat="47.15735" lon="-1.34355">
        <ele>79</ele>
        <time>2021-09-25T08:32:02.000Z</time>
      </trkpt>
      <trkpt lat="47.15745" lon="-1.34344">
        <ele>79</ele>
        <time>2021-09-25T08:32:04.000Z</time>
      </trkpt>
      <trkpt lat="47.15754" lon="-1.34335">
        <ele>80</ele>
        <time>2021-09-25T08:32:06.000Z</time>
      </trkpt>
      <trkpt lat="47.15763" lon="-1.34324">
        <ele>80</ele>
        <time>2021-09-25T08:32:08.000Z</time>
      </trkpt>
      <trkpt lat="47.15773" lon="-1.34316">
        <ele>81</ele>
        <time>2021-09-25T08:32:10.000Z</time>
      </trkpt>
      <trkpt lat="47.15782" lon="-1.34307">
        <ele>81</ele>
        <time>2021-09-25T08:32:12.000Z</time>
      </trkpt>
      <trkpt lat="47.15791" lon="-1.34299">
        <ele>81</ele>
        <time>2021-09-25T08:32:14.000Z</time>
      </trkpt>
      <trkpt lat="47.15801" lon="-1.34291">
        <ele>82</ele>
        <time>2021-09-25T08:32:16.000Z</time>
      </trkpt>
      <trkpt lat="47.1581" lon="-1.34284">
        <ele>82</ele>
        <time>2021-09-25T08:32:18.000Z</time>
      </trkpt>
      <trkpt lat="47.1582" lon="-1.34277">
        <ele>83</ele>
        <time>2021-09-25T08:32:20.000Z</time>
      </trkpt>
      <trkpt lat="47.15829" lon="-1.34271">
        <ele>83</ele>
        <time>2021-09-25T08:32:22.000Z</time>
      </trkpt>
      <trkpt lat="47.15839" lon="-1.34265">
        <ele>84</ele>
        <time>2021-09-25T08:32:24.000Z</time>
      </trkpt>
      <trkpt lat="47.15849" lon="-1.34258">
        <ele>84</ele>
        <time>2021-09-25T08:32:26.000Z</time>
      </trkpt>
      <trkpt lat="47.15859" lon="-1.34252">
        <ele>84</ele>
        <time>2021-09-25T08:32:28.000Z</time>
      </trkpt>
      <trkpt lat="47.15869" lon="-1.34247">
        <ele>85</ele>
        <time>2021-09-25T08:32:30.000Z</time>
      </trkpt>
      <trkpt lat="47.15879" lon="-1.34241">
        <ele>85</ele>
        <time>2021-09-25T08:32:32.000Z</time>
      </trkpt>
      <trkpt lat="47.15889" lon="-1.34236">
        <ele>85</ele>
        <time>2021-09-25T08:32:34.000Z</time>
      </trkpt>
      <trkpt lat="47.15899" lon="-1.3423">
        <ele>85</ele>
        <time>2021-09-25T08:32:36.000Z</time>
      </trkpt>
      <trkpt lat="47.15909" lon="-1.34224">
        <ele>85</ele>
        <time>2021-09-25T08:32:38.000Z</time>
      </trkpt>
      <trkpt lat="47.1592" lon="-1.34217">
        <ele>85</ele>
        <time>2021-09-25T08:32:40.000Z</time>
      </trkpt>
      <trkpt lat="47.15931" lon="-1.34211">
        <ele>85</ele>
        <time>2021-09-25T08:32:42.000Z</time>
      </trkpt>
      <trkpt lat="47.15942" lon="-1.34205">
        <ele>84</ele>
        <time>2021-09-25T08:32:44.000Z</time>
      </trkpt>
      <trkpt lat="47.15953" lon="-1.342">
        <ele>84</ele>
        <time>2021-09-25T08:32:46.000Z</time>
      </trkpt>
      <trkpt lat="47.15963" lon="-1.34194">
        <ele>83</ele>
        <time>2021-09-25T08:32:48.000Z</time>
      </trkpt>
      <trkpt lat="47.15971" lon="-1.34187">
        <ele>83</ele>
        <time>2021-09-25T08:32:52.000Z</time>
      </trkpt>
      <trkpt lat="47.15981" lon="-1.34184">
        <ele>84</ele>
        <time>2021-09-25T08:34:49.000Z</time>
      </trkpt>
      <trkpt lat="47.15993" lon="-1.34177">
        <ele>83</ele>
        <time>2021-09-25T08:34:52.000Z</time>
      </trkpt>
      <trkpt lat="47.16002" lon="-1.34173">
        <ele>83</ele>
        <time>2021-09-25T08:34:54.000Z</time>
      </trkpt>
      <trkpt lat="47.16011" lon="-1.34168">
        <ele>82</ele>
        <time>2021-09-25T08:34:56.000Z</time>
      </trkpt>
      <trkpt lat="47.16022" lon="-1.34164">
        <ele>82</ele>
        <time>2021-09-25T08:34:58.000Z</time>
      </trkpt>
      <trkpt lat="47.16033" lon="-1.34159">
        <ele>81</ele>
        <time>2021-09-25T08:35:00.000Z</time>
      </trkpt>
      <trkpt lat="47.16044" lon="-1.34155">
        <ele>81</ele>
        <time>2021-09-25T08:35:02.000Z</time>
      </trkpt>
      <trkpt lat="47.16058" lon="-1.34151">
        <ele>81</ele>
        <time>2021-09-25T08:35:04.000Z</time>
      </trkpt>
      <trkpt lat="47.16072" lon="-1.34146">
        <ele>81</ele>
        <time>2021-09-25T08:35:06.000Z</time>
      </trkpt>
      <trkpt lat="47.16086" lon="-1.34142">
        <ele>81</ele>
        <time>2021-09-25T08:35:08.000Z</time>
      </trkpt>
      <trkpt lat="47.16108" lon="-1.34138">
        <ele>81</ele>
        <time>2021-09-25T08:35:11.000Z</time>
      </trkpt>
      <trkpt lat="47.16123" lon="-1.34135">
        <ele>80</ele>
        <time>2021-09-25T08:35:13.000Z</time>
      </trkpt>
      <trkpt lat="47.16138" lon="-1.34133">
        <ele>80</ele>
        <time>2021-09-25T08:35:15.000Z</time>
      </trkpt>
      <trkpt lat="47.16153" lon="-1.34133">
        <ele>80</ele>
        <time>2021-09-25T08:35:17.000Z</time>
      </trkpt>
      <trkpt lat="47.16168" lon="-1.34132">
        <ele>80</ele>
        <time>2021-09-25T08:35:19.000Z</time>
      </trkpt>
      <trkpt lat="47.16184" lon="-1.34132">
        <ele>80</ele>
        <time>2021-09-25T08:35:21.000Z</time>
      </trkpt>
      <trkpt lat="47.16199" lon="-1.34132">
        <ele>80</ele>
        <time>2021-09-25T08:35:23.000Z</time>
      </trkpt>
      <trkpt lat="47.16215" lon="-1.34133">
        <ele>80</ele>
        <time>2021-09-25T08:35:25.000Z</time>
      </trkpt>
      <trkpt lat="47.16231" lon="-1.34134">
        <ele>79</ele>
        <time>2021-09-25T08:35:27.000Z</time>
      </trkpt>
      <trkpt lat="47.16247" lon="-1.34135">
        <ele>79</ele>
        <time>2021-09-25T08:35:29.000Z</time>
      </trkpt>
      <trkpt lat="47.16263" lon="-1.34136">
        <ele>78</ele>
        <time>2021-09-25T08:35:31.000Z</time>
      </trkpt>
      <trkpt lat="47.1628" lon="-1.34138">
        <ele>78</ele>
        <time>2021-09-25T08:35:33.000Z</time>
      </trkpt>
      <trkpt lat="47.16296" lon="-1.34139">
        <ele>78</ele>
        <time>2021-09-25T08:35:35.000Z</time>
      </trkpt>
      <trkpt lat="47.16312" lon="-1.3414">
        <ele>78</ele>
        <time>2021-09-25T08:35:37.000Z</time>
      </trkpt>
      <trkpt lat="47.16329" lon="-1.34142">
        <ele>77</ele>
        <time>2021-09-25T08:35:39.000Z</time>
      </trkpt>
      <trkpt lat="47.16346" lon="-1.34141">
        <ele>77</ele>
        <time>2021-09-25T08:35:41.000Z</time>
      </trkpt>
      <trkpt lat="47.16363" lon="-1.34139">
        <ele>76</ele>
        <time>2021-09-25T08:35:43.000Z</time>
      </trkpt>
      <trkpt lat="47.1638" lon="-1.34137">
        <ele>76</ele>
        <time>2021-09-25T08:35:45.000Z</time>
      </trkpt>
      <trkpt lat="47.16396" lon="-1.34134">
        <ele>76</ele>
        <time>2021-09-25T08:35:47.000Z</time>
      </trkpt>
      <trkpt lat="47.16413" lon="-1.34132">
        <ele>76</ele>
        <time>2021-09-25T08:35:49.000Z</time>
      </trkpt>
      <trkpt lat="47.16429" lon="-1.34131">
        <ele>75</ele>
        <time>2021-09-25T08:35:51.000Z</time>
      </trkpt>
      <trkpt lat="47.16445" lon="-1.34131">
        <ele>75</ele>
        <time>2021-09-25T08:35:53.000Z</time>
      </trkpt>
      <trkpt lat="47.16463" lon="-1.34132">
        <ele>75</ele>
        <time>2021-09-25T08:35:55.000Z</time>
      </trkpt>
      <trkpt lat="47.1648" lon="-1.34133">
        <ele>75</ele>
        <time>2021-09-25T08:35:57.000Z</time>
      </trkpt>
      <trkpt lat="47.16497" lon="-1.34135">
        <ele>74</ele>
        <time>2021-09-25T08:35:59.000Z</time>
      </trkpt>
      <trkpt lat="47.16514" lon="-1.34136">
        <ele>74</ele>
        <time>2021-09-25T08:36:01.000Z</time>
      </trkpt>
      <trkpt lat="47.16531" lon="-1.34138">
        <ele>74</ele>
        <time>2021-09-25T08:36:03.000Z</time>
      </trkpt>
      <trkpt lat="47.16549" lon="-1.3414">
        <ele>73</ele>
        <time>2021-09-25T08:36:05.000Z</time>
      </trkpt>
      <trkpt lat="47.16566" lon="-1.34142">
        <ele>73</ele>
        <time>2021-09-25T08:36:07.000Z</time>
      </trkpt>
      <trkpt lat="47.16583" lon="-1.34143">
        <ele>72</ele>
        <time>2021-09-25T08:36:09.000Z</time>
      </trkpt>
      <trkpt lat="47.166" lon="-1.34144">
        <ele>72</ele>
        <time>2021-09-25T08:36:11.000Z</time>
      </trkpt>
      <trkpt lat="47.16617" lon="-1.34145">
        <ele>72</ele>
        <time>2021-09-25T08:36:13.000Z</time>
      </trkpt>
      <trkpt lat="47.16633" lon="-1.34147">
        <ele>72</ele>
        <time>2021-09-25T08:36:15.000Z</time>
      </trkpt>
      <trkpt lat="47.1665" lon="-1.34149">
        <ele>72</ele>
        <time>2021-09-25T08:36:17.000Z</time>
      </trkpt>
      <trkpt lat="47.16667" lon="-1.3415">
        <ele>72</ele>
        <time>2021-09-25T08:36:19.000Z</time>
      </trkpt>
      <trkpt lat="47.16684" lon="-1.34152">
        <ele>71</ele>
        <time>2021-09-25T08:36:21.000Z</time>
      </trkpt>
      <trkpt lat="47.167" lon="-1.34153">
        <ele>71</ele>
        <time>2021-09-25T08:36:23.000Z</time>
      </trkpt>
      <trkpt lat="47.16716" lon="-1.34154">
        <ele>71</ele>
        <time>2021-09-25T08:36:25.000Z</time>
      </trkpt>
      <trkpt lat="47.16733" lon="-1.34155">
        <ele>71</ele>
        <time>2021-09-25T08:36:27.000Z</time>
      </trkpt>
      <trkpt lat="47.16749" lon="-1.34157">
        <ele>70</ele>
        <time>2021-09-25T08:36:29.000Z</time>
      </trkpt>
      <trkpt lat="47.16765" lon="-1.34158">
        <ele>70</ele>
        <time>2021-09-25T08:36:31.000Z</time>
      </trkpt>
      <trkpt lat="47.16782" lon="-1.3416">
        <ele>70</ele>
        <time>2021-09-25T08:36:33.000Z</time>
      </trkpt>
      <trkpt lat="47.16797" lon="-1.34161">
        <ele>70</ele>
        <time>2021-09-25T08:36:35.000Z</time>
      </trkpt>
      <trkpt lat="47.16813" lon="-1.34163">
        <ele>70</ele>
        <time>2021-09-25T08:36:37.000Z</time>
      </trkpt>
      <trkpt lat="47.16828" lon="-1.34164">
        <ele>70</ele>
        <time>2021-09-25T08:36:39.000Z</time>
      </trkpt>
      <trkpt lat="47.16844" lon="-1.34165">
        <ele>70</ele>
        <time>2021-09-25T08:36:41.000Z</time>
      </trkpt>
      <trkpt lat="47.1686" lon="-1.34166">
        <ele>70</ele>
        <time>2021-09-25T08:36:43.000Z</time>
      </trkpt>
      <trkpt lat="47.16875" lon="-1.34167">
        <ele>70</ele>
        <time>2021-09-25T08:36:45.000Z</time>
      </trkpt>
      <trkpt lat="47.16891" lon="-1.34169">
        <ele>70</ele>
        <time>2021-09-25T08:36:47.000Z</time>
      </trkpt>
      <trkpt lat="47.16907" lon="-1.3417">
        <ele>69</ele>
        <time>2021-09-25T08:36:49.000Z</time>
      </trkpt>
      <trkpt lat="47.16922" lon="-1.34171">
        <ele>69</ele>
        <time>2021-09-25T08:36:51.000Z</time>
      </trkpt>
      <trkpt lat="47.16937" lon="-1.34173">
        <ele>69</ele>
        <time>2021-09-25T08:36:53.000Z</time>
      </trkpt>
      <trkpt lat="47.16953" lon="-1.34174">
        <ele>69</ele>
        <time>2021-09-25T08:36:55.000Z</time>
      </trkpt>
      <trkpt lat="47.16969" lon="-1.34176">
        <ele>69</ele>
        <time>2021-09-25T08:36:57.000Z</time>
      </trkpt>
      <trkpt lat="47.16985" lon="-1.34177">
        <ele>68</ele>
        <time>2021-09-25T08:36:59.000Z</time>
      </trkpt>
      <trkpt lat="47.17001" lon="-1.34178">
        <ele>68</ele>
        <time>2021-09-25T08:37:01.000Z</time>
      </trkpt>
      <trkpt lat="47.17017" lon="-1.34179">
        <ele>68</ele>
        <time>2021-09-25T08:37:03.000Z</time>
      </trkpt>
      <trkpt lat="47.17033" lon="-1.34181">
        <ele>68</ele>
        <time>2021-09-25T08:37:05.000Z</time>
      </trkpt>
      <trkpt lat="47.17049" lon="-1.34182">
        <ele>68</ele>
        <time>2021-09-25T08:37:07.000Z</time>
      </trkpt>
      <trkpt lat="47.17065" lon="-1.34183">
        <ele>67</ele>
        <time>2021-09-25T08:37:09.000Z</time>
      </trkpt>
      <trkpt lat="47.17081" lon="-1.34184">
        <ele>67</ele>
        <time>2021-09-25T08:37:11.000Z</time>
      </trkpt>
      <trkpt lat="47.17097" lon="-1.34185">
        <ele>67</ele>
        <time>2021-09-25T08:37:13.000Z</time>
      </trkpt>
      <trkpt lat="47.17113" lon="-1.34187">
        <ele>67</ele>
        <time>2021-09-25T08:37:15.000Z</time>
      </trkpt>
      <trkpt lat="47.17129" lon="-1.34188">
        <ele>66</ele>
        <time>2021-09-25T08:37:17.000Z</time>
      </trkpt>
      <trkpt lat="47.17144" lon="-1.34189">
        <ele>66</ele>
        <time>2021-09-25T08:37:19.000Z</time>
      </trkpt>
      <trkpt lat="47.1716" lon="-1.3419">
        <ele>66</ele>
        <time>2021-09-25T08:37:21.000Z</time>
      </trkpt>
      <trkpt lat="47.17175" lon="-1.34192">
        <ele>66</ele>
        <time>2021-09-25T08:37:23.000Z</time>
      </trkpt>
      <trkpt lat="47.17191" lon="-1.34193">
        <ele>66</ele>
        <time>2021-09-25T08:37:25.000Z</time>
      </trkpt>
      <trkpt lat="47.17207" lon="-1.34194">
        <ele>66</ele>
        <time>2021-09-25T08:37:27.000Z</time>
      </trkpt>
      <trkpt lat="47.17222" lon="-1.34197">
        <ele>66</ele>
        <time>2021-09-25T08:37:29.000Z</time>
      </trkpt>
      <trkpt lat="47.17237" lon="-1.34199">
        <ele>66</ele>
        <time>2021-09-25T08:37:31.000Z</time>
      </trkpt>
      <trkpt lat="47.17252" lon="-1.34202">
        <ele>66</ele>
        <time>2021-09-25T08:37:33.000Z</time>
      </trkpt>
      <trkpt lat="47.17267" lon="-1.34204">
        <ele>66</ele>
        <time>2021-09-25T08:37:35.000Z</time>
      </trkpt>
      <trkpt lat="47.17282" lon="-1.34206">
        <ele>65</ele>
        <time>2021-09-25T08:37:37.000Z</time>
      </trkpt>
      <trkpt lat="47.17297" lon="-1.34208">
        <ele>65</ele>
        <time>2021-09-25T08:37:39.000Z</time>
      </trkpt>
      <trkpt lat="47.17311" lon="-1.3421">
        <ele>65</ele>
        <time>2021-09-25T08:37:41.000Z</time>
      </trkpt>
      <trkpt lat="47.17325" lon="-1.34212">
        <ele>65</ele>
        <time>2021-09-25T08:37:43.000Z</time>
      </trkpt>
      <trkpt lat="47.17338" lon="-1.34212">
        <ele>65</ele>
        <time>2021-09-25T08:37:45.000Z</time>
      </trkpt>
      <trkpt lat="47.17351" lon="-1.34209">
        <ele>66</ele>
        <time>2021-09-25T08:37:47.000Z</time>
      </trkpt>
      <trkpt lat="47.17366" lon="-1.34209">
        <ele>66</ele>
        <time>2021-09-25T08:37:49.000Z</time>
      </trkpt>
      <trkpt lat="47.17379" lon="-1.34219">
        <ele>65</ele>
        <time>2021-09-25T08:37:51.000Z</time>
      </trkpt>
      <trkpt lat="47.17393" lon="-1.34223">
        <ele>65</ele>
        <time>2021-09-25T08:37:53.000Z</time>
      </trkpt>
      <trkpt lat="47.17407" lon="-1.34225">
        <ele>65</ele>
        <time>2021-09-25T08:37:55.000Z</time>
      </trkpt>
      <trkpt lat="47.17421" lon="-1.34227">
        <ele>65</ele>
        <time>2021-09-25T08:37:57.000Z</time>
      </trkpt>
      <trkpt lat="47.17436" lon="-1.34228">
        <ele>64</ele>
        <time>2021-09-25T08:37:59.000Z</time>
      </trkpt>
      <trkpt lat="47.1745" lon="-1.34225">
        <ele>64</ele>
        <time>2021-09-25T08:38:01.000Z</time>
      </trkpt>
      <trkpt lat="47.17465" lon="-1.34221">
        <ele>64</ele>
        <time>2021-09-25T08:38:03.000Z</time>
      </trkpt>
      <trkpt lat="47.1748" lon="-1.34218">
        <ele>63</ele>
        <time>2021-09-25T08:38:05.000Z</time>
      </trkpt>
      <trkpt lat="47.17494" lon="-1.34215">
        <ele>63</ele>
        <time>2021-09-25T08:38:07.000Z</time>
      </trkpt>
      <trkpt lat="47.17507" lon="-1.34213">
        <ele>62</ele>
        <time>2021-09-25T08:38:09.000Z</time>
      </trkpt>
      <trkpt lat="47.17519" lon="-1.34207">
        <ele>62</ele>
        <time>2021-09-25T08:38:11.000Z</time>
      </trkpt>
      <trkpt lat="47.17525" lon="-1.3419">
        <ele>63</ele>
        <time>2021-09-25T08:38:13.000Z</time>
      </trkpt>
      <trkpt lat="47.17528" lon="-1.34168">
        <ele>63</ele>
        <time>2021-09-25T08:38:15.000Z</time>
      </trkpt>
      <trkpt lat="47.17533" lon="-1.34148">
        <ele>64</ele>
        <time>2021-09-25T08:38:17.000Z</time>
      </trkpt>
      <trkpt lat="47.17542" lon="-1.34138">
        <ele>64</ele>
        <time>2021-09-25T08:38:21.000Z</time>
      </trkpt>
      <trkpt lat="47.17551" lon="-1.34136">
        <ele>63</ele>
        <time>2021-09-25T08:38:23.000Z</time>
      </trkpt>
      <trkpt lat="47.17561" lon="-1.34134">
        <ele>63</ele>
        <time>2021-09-25T08:38:25.000Z</time>
      </trkpt>
      <trkpt lat="47.17573" lon="-1.34124">
        <ele>63</ele>
        <time>2021-09-25T08:38:27.000Z</time>
      </trkpt>
      <trkpt lat="47.17585" lon="-1.34114">
        <ele>63</ele>
        <time>2021-09-25T08:38:29.000Z</time>
      </trkpt>
      <trkpt lat="47.17596" lon="-1.34104">
        <ele>63</ele>
        <time>2021-09-25T08:38:31.000Z</time>
      </trkpt>
      <trkpt lat="47.17608" lon="-1.34094">
        <ele>64</ele>
        <time>2021-09-25T08:38:33.000Z</time>
      </trkpt>
      <trkpt lat="47.1762" lon="-1.34085">
        <ele>64</ele>
        <time>2021-09-25T08:38:35.000Z</time>
      </trkpt>
      <trkpt lat="47.17632" lon="-1.34076">
        <ele>64</ele>
        <time>2021-09-25T08:38:37.000Z</time>
      </trkpt>
      <trkpt lat="47.17644" lon="-1.34069">
        <ele>64</ele>
        <time>2021-09-25T08:38:39.000Z</time>
      </trkpt>
      <trkpt lat="47.17656" lon="-1.34068">
        <ele>63</ele>
        <time>2021-09-25T08:38:41.000Z</time>
      </trkpt>
      <trkpt lat="47.1767" lon="-1.34068">
        <ele>63</ele>
        <time>2021-09-25T08:38:43.000Z</time>
      </trkpt>
      <trkpt lat="47.17683" lon="-1.34068">
        <ele>63</ele>
        <time>2021-09-25T08:38:45.000Z</time>
      </trkpt>
      <trkpt lat="47.17698" lon="-1.34068">
        <ele>62</ele>
        <time>2021-09-25T08:38:47.000Z</time>
      </trkpt>
      <trkpt lat="47.17712" lon="-1.34069">
        <ele>62</ele>
        <time>2021-09-25T08:38:49.000Z</time>
      </trkpt>
      <trkpt lat="47.17727" lon="-1.34068">
        <ele>62</ele>
        <time>2021-09-25T08:38:51.000Z</time>
      </trkpt>
      <trkpt lat="47.17741" lon="-1.3407">
        <ele>62</ele>
        <time>2021-09-25T08:38:53.000Z</time>
      </trkpt>
      <trkpt lat="47.17755" lon="-1.34074">
        <ele>61</ele>
        <time>2021-09-25T08:38:55.000Z</time>
      </trkpt>
      <trkpt lat="47.17769" lon="-1.34082">
        <ele>60</ele>
        <time>2021-09-25T08:38:57.000Z</time>
      </trkpt>
      <trkpt lat="47.17782" lon="-1.3409">
        <ele>60</ele>
        <time>2021-09-25T08:38:59.000Z</time>
      </trkpt>
      <trkpt lat="47.17796" lon="-1.34099">
        <ele>60</ele>
        <time>2021-09-25T08:39:01.000Z</time>
      </trkpt>
      <trkpt lat="47.17809" lon="-1.34108">
        <ele>59</ele>
        <time>2021-09-25T08:39:03.000Z</time>
      </trkpt>
      <trkpt lat="47.17823" lon="-1.34115">
        <ele>59</ele>
        <time>2021-09-25T08:39:05.000Z</time>
      </trkpt>
      <trkpt lat="47.17837" lon="-1.34123">
        <ele>59</ele>
        <time>2021-09-25T08:39:07.000Z</time>
      </trkpt>
      <trkpt lat="47.17852" lon="-1.34128">
        <ele>58</ele>
        <time>2021-09-25T08:39:09.000Z</time>
      </trkpt>
      <trkpt lat="47.17866" lon="-1.34132">
        <ele>58</ele>
        <time>2021-09-25T08:39:11.000Z</time>
      </trkpt>
      <trkpt lat="47.17879" lon="-1.34134">
        <ele>58</ele>
        <time>2021-09-25T08:39:13.000Z</time>
      </trkpt>
      <trkpt lat="47.17893" lon="-1.34133">
        <ele>58</ele>
        <time>2021-09-25T08:39:15.000Z</time>
      </trkpt>
      <trkpt lat="47.17907" lon="-1.3413">
        <ele>58</ele>
        <time>2021-09-25T08:39:17.000Z</time>
      </trkpt>
      <trkpt lat="47.17921" lon="-1.34126">
        <ele>57</ele>
        <time>2021-09-25T08:39:19.000Z</time>
      </trkpt>
      <trkpt lat="47.17934" lon="-1.34118">
        <ele>57</ele>
        <time>2021-09-25T08:39:21.000Z</time>
      </trkpt>
      <trkpt lat="47.17946" lon="-1.34109">
        <ele>57</ele>
        <time>2021-09-25T08:39:23.000Z</time>
      </trkpt>
      <trkpt lat="47.17958" lon="-1.34097">
        <ele>57</ele>
        <time>2021-09-25T08:39:25.000Z</time>
      </trkpt>
      <trkpt lat="47.17969" lon="-1.34084">
        <ele>57</ele>
        <time>2021-09-25T08:39:27.000Z</time>
      </trkpt>
      <trkpt lat="47.17978" lon="-1.34072">
        <ele>57</ele>
        <time>2021-09-25T08:39:29.000Z</time>
      </trkpt>
      <trkpt lat="47.17988" lon="-1.34057">
        <ele>57</ele>
        <time>2021-09-25T08:39:31.000Z</time>
      </trkpt>
      <trkpt lat="47.17997" lon="-1.34043">
        <ele>57</ele>
        <time>2021-09-25T08:39:33.000Z</time>
      </trkpt>
      <trkpt lat="47.18008" lon="-1.34034">
        <ele>58</ele>
        <time>2021-09-25T08:39:35.000Z</time>
      </trkpt>
      <trkpt lat="47.1802" lon="-1.34045">
        <ele>58</ele>
        <time>2021-09-25T08:39:37.000Z</time>
      </trkpt>
      <trkpt lat="47.18031" lon="-1.34057">
        <ele>59</ele>
        <time>2021-09-25T08:39:39.000Z</time>
      </trkpt>
      <trkpt lat="47.18044" lon="-1.34062">
        <ele>59</ele>
        <time>2021-09-25T08:39:41.000Z</time>
      </trkpt>
      <trkpt lat="47.18057" lon="-1.34066">
        <ele>59</ele>
        <time>2021-09-25T08:39:43.000Z</time>
      </trkpt>
      <trkpt lat="47.18071" lon="-1.34069">
        <ele>59</ele>
        <time>2021-09-25T08:39:45.000Z</time>
      </trkpt>
      <trkpt lat="47.18084" lon="-1.34074">
        <ele>59</ele>
        <time>2021-09-25T08:39:47.000Z</time>
      </trkpt>
      <trkpt lat="47.18098" lon="-1.34079">
        <ele>59</ele>
        <time>2021-09-25T08:39:49.000Z</time>
      </trkpt>
      <trkpt lat="47.18111" lon="-1.34083">
        <ele>58</ele>
        <time>2021-09-25T08:39:51.000Z</time>
      </trkpt>
      <trkpt lat="47.18125" lon="-1.34087">
        <ele>58</ele>
        <time>2021-09-25T08:39:53.000Z</time>
      </trkpt>
      <trkpt lat="47.18138" lon="-1.34089">
        <ele>58</ele>
        <time>2021-09-25T08:39:55.000Z</time>
      </trkpt>
      <trkpt lat="47.18152" lon="-1.3409">
        <ele>58</ele>
        <time>2021-09-25T08:39:57.000Z</time>
      </trkpt>
      <trkpt lat="47.18166" lon="-1.34091">
        <ele>58</ele>
        <time>2021-09-25T08:39:59.000Z</time>
      </trkpt>
      <trkpt lat="47.1818" lon="-1.34092">
        <ele>58</ele>
        <time>2021-09-25T08:40:01.000Z</time>
      </trkpt>
      <trkpt lat="47.18194" lon="-1.34092">
        <ele>57</ele>
        <time>2021-09-25T08:40:03.000Z</time>
      </trkpt>
      <trkpt lat="47.18207" lon="-1.34094">
        <ele>57</ele>
        <time>2021-09-25T08:40:05.000Z</time>
      </trkpt>
      <trkpt lat="47.18221" lon="-1.34094">
        <ele>57</ele>
        <time>2021-09-25T08:40:07.000Z</time>
      </trkpt>
      <trkpt lat="47.18235" lon="-1.34095">
        <ele>56</ele>
        <time>2021-09-25T08:40:09.000Z</time>
      </trkpt>
      <trkpt lat="47.18249" lon="-1.34096">
        <ele>56</ele>
        <time>2021-09-25T08:40:11.000Z</time>
      </trkpt>
      <trkpt lat="47.18262" lon="-1.34096">
        <ele>56</ele>
        <time>2021-09-25T08:40:13.000Z</time>
      </trkpt>
      <trkpt lat="47.18276" lon="-1.34097">
        <ele>55</ele>
        <time>2021-09-25T08:40:15.000Z</time>
      </trkpt>
      <trkpt lat="47.1829" lon="-1.34097">
        <ele>55</ele>
        <time>2021-09-25T08:40:17.000Z</time>
      </trkpt>
      <trkpt lat="47.18303" lon="-1.34098">
        <ele>55</ele>
        <time>2021-09-25T08:40:19.000Z</time>
      </trkpt>
      <trkpt lat="47.18317" lon="-1.34098">
        <ele>55</ele>
        <time>2021-09-25T08:40:21.000Z</time>
      </trkpt>
      <trkpt lat="47.18331" lon="-1.341">
        <ele>55</ele>
        <time>2021-09-25T08:40:23.000Z</time>
      </trkpt>
      <trkpt lat="47.18345" lon="-1.341">
        <ele>55</ele>
        <time>2021-09-25T08:40:25.000Z</time>
      </trkpt>
      <trkpt lat="47.18358" lon="-1.341">
        <ele>55</ele>
        <time>2021-09-25T08:40:27.000Z</time>
      </trkpt>
      <trkpt lat="47.18372" lon="-1.34102">
        <ele>55</ele>
        <time>2021-09-25T08:40:29.000Z</time>
      </trkpt>
      <trkpt lat="47.18385" lon="-1.34103">
        <ele>56</ele>
        <time>2021-09-25T08:40:31.000Z</time>
      </trkpt>
      <trkpt lat="47.18398" lon="-1.34106">
        <ele>56</ele>
        <time>2021-09-25T08:40:33.000Z</time>
      </trkpt>
      <trkpt lat="47.1841" lon="-1.34112">
        <ele>56</ele>
        <time>2021-09-25T08:40:35.000Z</time>
      </trkpt>
      <trkpt lat="47.18423" lon="-1.34119">
        <ele>56</ele>
        <time>2021-09-25T08:40:37.000Z</time>
      </trkpt>
      <trkpt lat="47.18436" lon="-1.34128">
        <ele>55</ele>
        <time>2021-09-25T08:40:39.000Z</time>
      </trkpt>
      <trkpt lat="47.18449" lon="-1.34138">
        <ele>55</ele>
        <time>2021-09-25T08:40:41.000Z</time>
      </trkpt>
      <trkpt lat="47.18462" lon="-1.34147">
        <ele>55</ele>
        <time>2021-09-25T08:40:43.000Z</time>
      </trkpt>
      <trkpt lat="47.18474" lon="-1.34157">
        <ele>55</ele>
        <time>2021-09-25T08:40:45.000Z</time>
      </trkpt>
      <trkpt lat="47.18488" lon="-1.34166">
        <ele>55</ele>
        <time>2021-09-25T08:40:47.000Z</time>
      </trkpt>
      <trkpt lat="47.185" lon="-1.34176">
        <ele>54</ele>
        <time>2021-09-25T08:40:49.000Z</time>
      </trkpt>
      <trkpt lat="47.18513" lon="-1.34185">
        <ele>54</ele>
        <time>2021-09-25T08:40:51.000Z</time>
      </trkpt>
      <trkpt lat="47.18526" lon="-1.34193">
        <ele>54</ele>
        <time>2021-09-25T08:40:53.000Z</time>
      </trkpt>
      <trkpt lat="47.1854" lon="-1.34197">
        <ele>54</ele>
        <time>2021-09-25T08:40:55.000Z</time>
      </trkpt>
      <trkpt lat="47.18554" lon="-1.34195">
        <ele>55</ele>
        <time>2021-09-25T08:40:57.000Z</time>
      </trkpt>
      <trkpt lat="47.18567" lon="-1.34191">
        <ele>55</ele>
        <time>2021-09-25T08:40:59.000Z</time>
      </trkpt>
      <trkpt lat="47.18581" lon="-1.34186">
        <ele>55</ele>
        <time>2021-09-25T08:41:01.000Z</time>
      </trkpt>
      <trkpt lat="47.18594" lon="-1.34179">
        <ele>56</ele>
        <time>2021-09-25T08:41:03.000Z</time>
      </trkpt>
      <trkpt lat="47.18607" lon="-1.34172">
        <ele>55</ele>
        <time>2021-09-25T08:41:05.000Z</time>
      </trkpt>
      <trkpt lat="47.1862" lon="-1.34165">
        <ele>55</ele>
        <time>2021-09-25T08:41:07.000Z</time>
      </trkpt>
      <trkpt lat="47.18633" lon="-1.34157">
        <ele>56</ele>
        <time>2021-09-25T08:41:09.000Z</time>
      </trkpt>
      <trkpt lat="47.18647" lon="-1.3415">
        <ele>56</ele>
        <time>2021-09-25T08:41:11.000Z</time>
      </trkpt>
      <trkpt lat="47.18661" lon="-1.34142">
        <ele>56</ele>
        <time>2021-09-25T08:41:13.000Z</time>
      </trkpt>
      <trkpt lat="47.18675" lon="-1.34135">
        <ele>55</ele>
        <time>2021-09-25T08:41:15.000Z</time>
      </trkpt>
      <trkpt lat="47.18688" lon="-1.34129">
        <ele>56</ele>
        <time>2021-09-25T08:41:17.000Z</time>
      </trkpt>
      <trkpt lat="47.18701" lon="-1.34123">
        <ele>57</ele>
        <time>2021-09-25T08:41:19.000Z</time>
      </trkpt>
      <trkpt lat="47.18715" lon="-1.3412">
        <ele>56</ele>
        <time>2021-09-25T08:41:21.000Z</time>
      </trkpt>
      <trkpt lat="47.18729" lon="-1.34119">
        <ele>56</ele>
        <time>2021-09-25T08:41:23.000Z</time>
      </trkpt>
      <trkpt lat="47.18743" lon="-1.34121">
        <ele>56</ele>
        <time>2021-09-25T08:41:25.000Z</time>
      </trkpt>
      <trkpt lat="47.18757" lon="-1.34126">
        <ele>55</ele>
        <time>2021-09-25T08:41:27.000Z</time>
      </trkpt>
      <trkpt lat="47.18771" lon="-1.3413">
        <ele>55</ele>
        <time>2021-09-25T08:41:29.000Z</time>
      </trkpt>
      <trkpt lat="47.18784" lon="-1.34134">
        <ele>55</ele>
        <time>2021-09-25T08:41:31.000Z</time>
      </trkpt>
      <trkpt lat="47.18798" lon="-1.34138">
        <ele>55</ele>
        <time>2021-09-25T08:41:33.000Z</time>
      </trkpt>
      <trkpt lat="47.18811" lon="-1.34142">
        <ele>55</ele>
        <time>2021-09-25T08:41:35.000Z</time>
      </trkpt>
      <trkpt lat="47.18825" lon="-1.34145">
        <ele>55</ele>
        <time>2021-09-25T08:41:37.000Z</time>
      </trkpt>
      <trkpt lat="47.18837" lon="-1.3415">
        <ele>55</ele>
        <time>2021-09-25T08:41:39.000Z</time>
      </trkpt>
      <trkpt lat="47.1885" lon="-1.34155">
        <ele>55</ele>
        <time>2021-09-25T08:41:41.000Z</time>
      </trkpt>
      <trkpt lat="47.18863" lon="-1.3416">
        <ele>56</ele>
        <time>2021-09-25T08:41:43.000Z</time>
      </trkpt>
      <trkpt lat="47.18876" lon="-1.34165">
        <ele>56</ele>
        <time>2021-09-25T08:41:45.000Z</time>
      </trkpt>
      <trkpt lat="47.18888" lon="-1.3417">
        <ele>56</ele>
        <time>2021-09-25T08:41:47.000Z</time>
      </trkpt>
      <trkpt lat="47.18901" lon="-1.34175">
        <ele>56</ele>
        <time>2021-09-25T08:41:49.000Z</time>
      </trkpt>
      <trkpt lat="47.18914" lon="-1.3418">
        <ele>56</ele>
        <time>2021-09-25T08:41:51.000Z</time>
      </trkpt>
      <trkpt lat="47.18926" lon="-1.34185">
        <ele>56</ele>
        <time>2021-09-25T08:41:53.000Z</time>
      </trkpt>
      <trkpt lat="47.18939" lon="-1.34191">
        <ele>57</ele>
        <time>2021-09-25T08:41:55.000Z</time>
      </trkpt>
      <trkpt lat="47.18951" lon="-1.34197">
        <ele>57</ele>
        <time>2021-09-25T08:41:57.000Z</time>
      </trkpt>
      <trkpt lat="47.18963" lon="-1.34202">
        <ele>57</ele>
        <time>2021-09-25T08:41:59.000Z</time>
      </trkpt>
      <trkpt lat="47.18976" lon="-1.34207">
        <ele>58</ele>
        <time>2021-09-25T08:42:01.000Z</time>
      </trkpt>
      <trkpt lat="47.18988" lon="-1.34212">
        <ele>58</ele>
        <time>2021-09-25T08:42:03.000Z</time>
      </trkpt>
      <trkpt lat="47.19001" lon="-1.34217">
        <ele>58</ele>
        <time>2021-09-25T08:42:05.000Z</time>
      </trkpt>
      <trkpt lat="47.19013" lon="-1.34222">
        <ele>58</ele>
        <time>2021-09-25T08:42:07.000Z</time>
      </trkpt>
      <trkpt lat="47.19025" lon="-1.34227">
        <ele>58</ele>
        <time>2021-09-25T08:42:09.000Z</time>
      </trkpt>
      <trkpt lat="47.19037" lon="-1.34232">
        <ele>58</ele>
        <time>2021-09-25T08:42:11.000Z</time>
      </trkpt>
      <trkpt lat="47.19049" lon="-1.34237">
        <ele>59</ele>
        <time>2021-09-25T08:42:13.000Z</time>
      </trkpt>
      <trkpt lat="47.19061" lon="-1.34243">
        <ele>58</ele>
        <time>2021-09-25T08:42:15.000Z</time>
      </trkpt>
      <trkpt lat="47.19074" lon="-1.34248">
        <ele>58</ele>
        <time>2021-09-25T08:42:17.000Z</time>
      </trkpt>
      <trkpt lat="47.19087" lon="-1.34254">
        <ele>57</ele>
        <time>2021-09-25T08:42:19.000Z</time>
      </trkpt>
      <trkpt lat="47.191" lon="-1.34258">
        <ele>57</ele>
        <time>2021-09-25T08:42:21.000Z</time>
      </trkpt>
      <trkpt lat="47.19113" lon="-1.34264">
        <ele>57</ele>
        <time>2021-09-25T08:42:23.000Z</time>
      </trkpt>
      <trkpt lat="47.19126" lon="-1.3427">
        <ele>57</ele>
        <time>2021-09-25T08:42:25.000Z</time>
      </trkpt>
      <trkpt lat="47.19139" lon="-1.34275">
        <ele>57</ele>
        <time>2021-09-25T08:42:27.000Z</time>
      </trkpt>
      <trkpt lat="47.19152" lon="-1.34281">
        <ele>56</ele>
        <time>2021-09-25T08:42:29.000Z</time>
      </trkpt>
      <trkpt lat="47.19165" lon="-1.34287">
        <ele>56</ele>
        <time>2021-09-25T08:42:31.000Z</time>
      </trkpt>
      <trkpt lat="47.19178" lon="-1.34293">
        <ele>56</ele>
        <time>2021-09-25T08:42:33.000Z</time>
      </trkpt>
      <trkpt lat="47.19192" lon="-1.34299">
        <ele>56</ele>
        <time>2021-09-25T08:42:35.000Z</time>
      </trkpt>
      <trkpt lat="47.19205" lon="-1.34304">
        <ele>55</ele>
        <time>2021-09-25T08:42:37.000Z</time>
      </trkpt>
      <trkpt lat="47.19219" lon="-1.3431">
        <ele>56</ele>
        <time>2021-09-25T08:42:39.000Z</time>
      </trkpt>
      <trkpt lat="47.19233" lon="-1.34316">
        <ele>56</ele>
        <time>2021-09-25T08:42:41.000Z</time>
      </trkpt>
      <trkpt lat="47.19247" lon="-1.34322">
        <ele>55</ele>
        <time>2021-09-25T08:42:43.000Z</time>
      </trkpt>
      <trkpt lat="47.1926" lon="-1.34329">
        <ele>56</ele>
        <time>2021-09-25T08:42:45.000Z</time>
      </trkpt>
      <trkpt lat="47.19273" lon="-1.34335">
        <ele>56</ele>
        <time>2021-09-25T08:42:47.000Z</time>
      </trkpt>
      <trkpt lat="47.19286" lon="-1.34344">
        <ele>56</ele>
        <time>2021-09-25T08:42:49.000Z</time>
      </trkpt>
      <trkpt lat="47.19298" lon="-1.34354">
        <ele>56</ele>
        <time>2021-09-25T08:42:51.000Z</time>
      </trkpt>
      <trkpt lat="47.19309" lon="-1.34365">
        <ele>56</ele>
        <time>2021-09-25T08:42:53.000Z</time>
      </trkpt>
      <trkpt lat="47.19321" lon="-1.34376">
        <ele>55</ele>
        <time>2021-09-25T08:42:55.000Z</time>
      </trkpt>
      <trkpt lat="47.19332" lon="-1.34389">
        <ele>55</ele>
        <time>2021-09-25T08:42:57.000Z</time>
      </trkpt>
      <trkpt lat="47.19343" lon="-1.34401">
        <ele>55</ele>
        <time>2021-09-25T08:42:59.000Z</time>
      </trkpt>
      <trkpt lat="47.19354" lon="-1.34413">
        <ele>55</ele>
        <time>2021-09-25T08:43:01.000Z</time>
      </trkpt>
      <trkpt lat="47.19365" lon="-1.34426">
        <ele>55</ele>
        <time>2021-09-25T08:43:03.000Z</time>
      </trkpt>
      <trkpt lat="47.19377" lon="-1.34438">
        <ele>55</ele>
        <time>2021-09-25T08:43:05.000Z</time>
      </trkpt>
      <trkpt lat="47.19388" lon="-1.3445">
        <ele>55</ele>
        <time>2021-09-25T08:43:07.000Z</time>
      </trkpt>
      <trkpt lat="47.19399" lon="-1.34462">
        <ele>55</ele>
        <time>2021-09-25T08:43:09.000Z</time>
      </trkpt>
      <trkpt lat="47.19409" lon="-1.34473">
        <ele>55</ele>
        <time>2021-09-25T08:43:11.000Z</time>
      </trkpt>
      <trkpt lat="47.1942" lon="-1.34485">
        <ele>55</ele>
        <time>2021-09-25T08:43:13.000Z</time>
      </trkpt>
      <trkpt lat="47.19431" lon="-1.34497">
        <ele>55</ele>
        <time>2021-09-25T08:43:15.000Z</time>
      </trkpt>
      <trkpt lat="47.19442" lon="-1.34509">
        <ele>55</ele>
        <time>2021-09-25T08:43:17.000Z</time>
      </trkpt>
      <trkpt lat="47.19453" lon="-1.3452">
        <ele>55</ele>
        <time>2021-09-25T08:43:19.000Z</time>
      </trkpt>
      <trkpt lat="47.19465" lon="-1.34532">
        <ele>54</ele>
        <time>2021-09-25T08:43:21.000Z</time>
      </trkpt>
      <trkpt lat="47.19475" lon="-1.34544">
        <ele>54</ele>
        <time>2021-09-25T08:43:23.000Z</time>
      </trkpt>
      <trkpt lat="47.19486" lon="-1.34556">
        <ele>54</ele>
        <time>2021-09-25T08:43:25.000Z</time>
      </trkpt>
      <trkpt lat="47.19497" lon="-1.34568">
        <ele>54</ele>
        <time>2021-09-25T08:43:27.000Z</time>
      </trkpt>
      <trkpt lat="47.19508" lon="-1.3458">
        <ele>54</ele>
        <time>2021-09-25T08:43:29.000Z</time>
      </trkpt>
      <trkpt lat="47.19519" lon="-1.34591">
        <ele>53</ele>
        <time>2021-09-25T08:43:31.000Z</time>
      </trkpt>
      <trkpt lat="47.19531" lon="-1.34601">
        <ele>53</ele>
        <time>2021-09-25T08:43:33.000Z</time>
      </trkpt>
      <trkpt lat="47.19543" lon="-1.3461">
        <ele>53</ele>
        <time>2021-09-25T08:43:35.000Z</time>
      </trkpt>
      <trkpt lat="47.19555" lon="-1.34619">
        <ele>53</ele>
        <time>2021-09-25T08:43:37.000Z</time>
      </trkpt>
      <trkpt lat="47.19567" lon="-1.34627">
        <ele>53</ele>
        <time>2021-09-25T08:43:39.000Z</time>
      </trkpt>
      <trkpt lat="47.19579" lon="-1.34636">
        <ele>53</ele>
        <time>2021-09-25T08:43:41.000Z</time>
      </trkpt>
      <trkpt lat="47.19591" lon="-1.34644">
        <ele>53</ele>
        <time>2021-09-25T08:43:43.000Z</time>
      </trkpt>
      <trkpt lat="47.19604" lon="-1.34653">
        <ele>53</ele>
        <time>2021-09-25T08:43:45.000Z</time>
      </trkpt>
      <trkpt lat="47.19616" lon="-1.3466">
        <ele>53</ele>
        <time>2021-09-25T08:43:47.000Z</time>
      </trkpt>
      <trkpt lat="47.19628" lon="-1.34669">
        <ele>53</ele>
        <time>2021-09-25T08:43:49.000Z</time>
      </trkpt>
      <trkpt lat="47.1964" lon="-1.34678">
        <ele>53</ele>
        <time>2021-09-25T08:43:51.000Z</time>
      </trkpt>
      <trkpt lat="47.19653" lon="-1.34687">
        <ele>53</ele>
        <time>2021-09-25T08:43:53.000Z</time>
      </trkpt>
      <trkpt lat="47.19665" lon="-1.34696">
        <ele>53</ele>
        <time>2021-09-25T08:43:55.000Z</time>
      </trkpt>
      <trkpt lat="47.19679" lon="-1.34704">
        <ele>53</ele>
        <time>2021-09-25T08:43:57.000Z</time>
      </trkpt>
      <trkpt lat="47.19691" lon="-1.34713">
        <ele>53</ele>
        <time>2021-09-25T08:43:59.000Z</time>
      </trkpt>
      <trkpt lat="47.19704" lon="-1.34722">
        <ele>53</ele>
        <time>2021-09-25T08:44:01.000Z</time>
      </trkpt>
      <trkpt lat="47.19716" lon="-1.34731">
        <ele>53</ele>
        <time>2021-09-25T08:44:03.000Z</time>
      </trkpt>
      <trkpt lat="47.1973" lon="-1.34739">
        <ele>52</ele>
        <time>2021-09-25T08:44:05.000Z</time>
      </trkpt>
      <trkpt lat="47.19744" lon="-1.34745">
        <ele>52</ele>
        <time>2021-09-25T08:44:07.000Z</time>
      </trkpt>
      <trkpt lat="47.19758" lon="-1.34751">
        <ele>52</ele>
        <time>2021-09-25T08:44:09.000Z</time>
      </trkpt>
      <trkpt lat="47.19772" lon="-1.34755">
        <ele>52</ele>
        <time>2021-09-25T08:44:11.000Z</time>
      </trkpt>
      <trkpt lat="47.19787" lon="-1.34758">
        <ele>52</ele>
        <time>2021-09-25T08:44:13.000Z</time>
      </trkpt>
      <trkpt lat="47.19801" lon="-1.34758">
        <ele>52</ele>
        <time>2021-09-25T08:44:15.000Z</time>
      </trkpt>
      <trkpt lat="47.19816" lon="-1.34758">
        <ele>51</ele>
        <time>2021-09-25T08:44:17.000Z</time>
      </trkpt>
      <trkpt lat="47.19831" lon="-1.34758">
        <ele>51</ele>
        <time>2021-09-25T08:44:19.000Z</time>
      </trkpt>
      <trkpt lat="47.19845" lon="-1.34757">
        <ele>51</ele>
        <time>2021-09-25T08:44:21.000Z</time>
      </trkpt>
      <trkpt lat="47.1986" lon="-1.34757">
        <ele>51</ele>
        <time>2021-09-25T08:44:23.000Z</time>
      </trkpt>
      <trkpt lat="47.19874" lon="-1.34756">
        <ele>51</ele>
        <time>2021-09-25T08:44:25.000Z</time>
      </trkpt>
      <trkpt lat="47.19888" lon="-1.34756">
        <ele>52</ele>
        <time>2021-09-25T08:44:27.000Z</time>
      </trkpt>
      <trkpt lat="47.19902" lon="-1.34755">
        <ele>52</ele>
        <time>2021-09-25T08:44:29.000Z</time>
      </trkpt>
      <trkpt lat="47.19916" lon="-1.34756">
        <ele>52</ele>
        <time>2021-09-25T08:44:31.000Z</time>
      </trkpt>
      <trkpt lat="47.1993" lon="-1.34757">
        <ele>52</ele>
        <time>2021-09-25T08:44:33.000Z</time>
      </trkpt>
      <trkpt lat="47.19944" lon="-1.3476">
        <ele>52</ele>
        <time>2021-09-25T08:44:35.000Z</time>
      </trkpt>
      <trkpt lat="47.19957" lon="-1.34765">
        <ele>52</ele>
        <time>2021-09-25T08:44:37.000Z</time>
      </trkpt>
      <trkpt lat="47.1997" lon="-1.3477">
        <ele>52</ele>
        <time>2021-09-25T08:44:39.000Z</time>
      </trkpt>
      <trkpt lat="47.19983" lon="-1.34778">
        <ele>52</ele>
        <time>2021-09-25T08:44:41.000Z</time>
      </trkpt>
      <trkpt lat="47.19996" lon="-1.34786">
        <ele>52</ele>
        <time>2021-09-25T08:44:43.000Z</time>
      </trkpt>
      <trkpt lat="47.20009" lon="-1.34794">
        <ele>52</ele>
        <time>2021-09-25T08:44:45.000Z</time>
      </trkpt>
      <trkpt lat="47.20021" lon="-1.34802">
        <ele>51</ele>
        <time>2021-09-25T08:44:47.000Z</time>
      </trkpt>
      <trkpt lat="47.20034" lon="-1.34811">
        <ele>51</ele>
        <time>2021-09-25T08:44:49.000Z</time>
      </trkpt>
      <trkpt lat="47.20047" lon="-1.34819">
        <ele>51</ele>
        <time>2021-09-25T08:44:51.000Z</time>
      </trkpt>
      <trkpt lat="47.2006" lon="-1.34827">
        <ele>51</ele>
        <time>2021-09-25T08:44:53.000Z</time>
      </trkpt>
      <trkpt lat="47.20073" lon="-1.34835">
        <ele>51</ele>
        <time>2021-09-25T08:44:55.000Z</time>
      </trkpt>
      <trkpt lat="47.20086" lon="-1.34842">
        <ele>51</ele>
        <time>2021-09-25T08:44:57.000Z</time>
      </trkpt>
      <trkpt lat="47.201" lon="-1.34848">
        <ele>51</ele>
        <time>2021-09-25T08:44:59.000Z</time>
      </trkpt>
      <trkpt lat="47.20114" lon="-1.34852">
        <ele>51</ele>
        <time>2021-09-25T08:45:01.000Z</time>
      </trkpt>
      <trkpt lat="47.20129" lon="-1.34856">
        <ele>51</ele>
        <time>2021-09-25T08:45:03.000Z</time>
      </trkpt>
      <trkpt lat="47.20143" lon="-1.34856">
        <ele>51</ele>
        <time>2021-09-25T08:45:05.000Z</time>
      </trkpt>
      <trkpt lat="47.20157" lon="-1.34856">
        <ele>51</ele>
        <time>2021-09-25T08:45:07.000Z</time>
      </trkpt>
      <trkpt lat="47.20172" lon="-1.34853">
        <ele>50</ele>
        <time>2021-09-25T08:45:09.000Z</time>
      </trkpt>
      <trkpt lat="47.20186" lon="-1.34849">
        <ele>50</ele>
        <time>2021-09-25T08:45:11.000Z</time>
      </trkpt>
      <trkpt lat="47.202" lon="-1.34844">
        <ele>51</ele>
        <time>2021-09-25T08:45:13.000Z</time>
      </trkpt>
      <trkpt lat="47.20214" lon="-1.34839">
        <ele>51</ele>
        <time>2021-09-25T08:45:15.000Z</time>
      </trkpt>
      <trkpt lat="47.20228" lon="-1.34833">
        <ele>51</ele>
        <time>2021-09-25T08:45:17.000Z</time>
      </trkpt>
      <trkpt lat="47.20242" lon="-1.34827">
        <ele>51</ele>
        <time>2021-09-25T08:45:19.000Z</time>
      </trkpt>
      <trkpt lat="47.20256" lon="-1.34822">
        <ele>51</ele>
        <time>2021-09-25T08:45:21.000Z</time>
      </trkpt>
      <trkpt lat="47.20269" lon="-1.34816">
        <ele>50</ele>
        <time>2021-09-25T08:45:23.000Z</time>
      </trkpt>
      <trkpt lat="47.20282" lon="-1.3481">
        <ele>50</ele>
        <time>2021-09-25T08:45:25.000Z</time>
      </trkpt>
      <trkpt lat="47.20296" lon="-1.34805">
        <ele>50</ele>
        <time>2021-09-25T08:45:27.000Z</time>
      </trkpt>
      <trkpt lat="47.20309" lon="-1.348">
        <ele>51</ele>
        <time>2021-09-25T08:45:29.000Z</time>
      </trkpt>
      <trkpt lat="47.20322" lon="-1.34794">
        <ele>51</ele>
        <time>2021-09-25T08:45:31.000Z</time>
      </trkpt>
      <trkpt lat="47.20335" lon="-1.34789">
        <ele>51</ele>
        <time>2021-09-25T08:45:33.000Z</time>
      </trkpt>
      <trkpt lat="47.20348" lon="-1.34784">
        <ele>51</ele>
        <time>2021-09-25T08:45:35.000Z</time>
      </trkpt>
      <trkpt lat="47.20361" lon="-1.34781">
        <ele>52</ele>
        <time>2021-09-25T08:45:37.000Z</time>
      </trkpt>
      <trkpt lat="47.20374" lon="-1.34779">
        <ele>52</ele>
        <time>2021-09-25T08:45:39.000Z</time>
      </trkpt>
      <trkpt lat="47.20387" lon="-1.34778">
        <ele>52</ele>
        <time>2021-09-25T08:45:41.000Z</time>
      </trkpt>
      <trkpt lat="47.204" lon="-1.34778">
        <ele>52</ele>
        <time>2021-09-25T08:45:43.000Z</time>
      </trkpt>
      <trkpt lat="47.20413" lon="-1.34778">
        <ele>51</ele>
        <time>2021-09-25T08:45:45.000Z</time>
      </trkpt>
      <trkpt lat="47.20427" lon="-1.34779">
        <ele>52</ele>
        <time>2021-09-25T08:45:47.000Z</time>
      </trkpt>
      <trkpt lat="47.2044" lon="-1.34779">
        <ele>52</ele>
        <time>2021-09-25T08:45:49.000Z</time>
      </trkpt>
      <trkpt lat="47.20452" lon="-1.3478">
        <ele>52</ele>
        <time>2021-09-25T08:45:51.000Z</time>
      </trkpt>
      <trkpt lat="47.20465" lon="-1.34781">
        <ele>52</ele>
        <time>2021-09-25T08:45:53.000Z</time>
      </trkpt>
      <trkpt lat="47.20478" lon="-1.34782">
        <ele>52</ele>
        <time>2021-09-25T08:45:55.000Z</time>
      </trkpt>
      <trkpt lat="47.20491" lon="-1.34783">
        <ele>52</ele>
        <time>2021-09-25T08:45:57.000Z</time>
      </trkpt>
      <trkpt lat="47.20504" lon="-1.34783">
        <ele>52</ele>
        <time>2021-09-25T08:45:59.000Z</time>
      </trkpt>
      <trkpt lat="47.20517" lon="-1.34784">
        <ele>53</ele>
        <time>2021-09-25T08:46:01.000Z</time>
      </trkpt>
      <trkpt lat="47.2053" lon="-1.34785">
        <ele>53</ele>
        <time>2021-09-25T08:46:03.000Z</time>
      </trkpt>
      <trkpt lat="47.20543" lon="-1.34785">
        <ele>53</ele>
        <time>2021-09-25T08:46:05.000Z</time>
      </trkpt>
      <trkpt lat="47.20556" lon="-1.34786">
        <ele>53</ele>
        <time>2021-09-25T08:46:07.000Z</time>
      </trkpt>
      <trkpt lat="47.20569" lon="-1.34788">
        <ele>53</ele>
        <time>2021-09-25T08:46:09.000Z</time>
      </trkpt>
      <trkpt lat="47.20582" lon="-1.34791">
        <ele>53</ele>
        <time>2021-09-25T08:46:11.000Z</time>
      </trkpt>
      <trkpt lat="47.20595" lon="-1.34796">
        <ele>53</ele>
        <time>2021-09-25T08:46:13.000Z</time>
      </trkpt>
      <trkpt lat="47.20608" lon="-1.34801">
        <ele>53</ele>
        <time>2021-09-25T08:46:15.000Z</time>
      </trkpt>
      <trkpt lat="47.20621" lon="-1.34808">
        <ele>53</ele>
        <time>2021-09-25T08:46:17.000Z</time>
      </trkpt>
      <trkpt lat="47.20634" lon="-1.34817">
        <ele>53</ele>
        <time>2021-09-25T08:46:19.000Z</time>
      </trkpt>
      <trkpt lat="47.20646" lon="-1.34826">
        <ele>53</ele>
        <time>2021-09-25T08:46:21.000Z</time>
      </trkpt>
      <trkpt lat="47.20658" lon="-1.34837">
        <ele>52</ele>
        <time>2021-09-25T08:46:23.000Z</time>
      </trkpt>
      <trkpt lat="47.20671" lon="-1.34848">
        <ele>52</ele>
        <time>2021-09-25T08:46:25.000Z</time>
      </trkpt>
      <trkpt lat="47.20683" lon="-1.34859">
        <ele>52</ele>
        <time>2021-09-25T08:46:27.000Z</time>
      </trkpt>
      <trkpt lat="47.20695" lon="-1.34871">
        <ele>52</ele>
        <time>2021-09-25T08:46:29.000Z</time>
      </trkpt>
      <trkpt lat="47.20707" lon="-1.34882">
        <ele>52</ele>
        <time>2021-09-25T08:46:31.000Z</time>
      </trkpt>
      <trkpt lat="47.20719" lon="-1.34894">
        <ele>52</ele>
        <time>2021-09-25T08:46:33.000Z</time>
      </trkpt>
      <trkpt lat="47.2073" lon="-1.34905">
        <ele>52</ele>
        <time>2021-09-25T08:46:35.000Z</time>
      </trkpt>
      <trkpt lat="47.20742" lon="-1.34915">
        <ele>52</ele>
        <time>2021-09-25T08:46:37.000Z</time>
      </trkpt>
      <trkpt lat="47.20753" lon="-1.34927">
        <ele>52</ele>
        <time>2021-09-25T08:46:39.000Z</time>
      </trkpt>
      <trkpt lat="47.20764" lon="-1.34937">
        <ele>53</ele>
        <time>2021-09-25T08:46:41.000Z</time>
      </trkpt>
      <trkpt lat="47.20775" lon="-1.34947">
        <ele>53</ele>
        <time>2021-09-25T08:46:43.000Z</time>
      </trkpt>
      <trkpt lat="47.20786" lon="-1.34957">
        <ele>53</ele>
        <time>2021-09-25T08:46:45.000Z</time>
      </trkpt>
      <trkpt lat="47.20796" lon="-1.34967">
        <ele>53</ele>
        <time>2021-09-25T08:46:47.000Z</time>
      </trkpt>
      <trkpt lat="47.20807" lon="-1.34977">
        <ele>54</ele>
        <time>2021-09-25T08:46:49.000Z</time>
      </trkpt>
      <trkpt lat="47.20818" lon="-1.34987">
        <ele>54</ele>
        <time>2021-09-25T08:46:51.000Z</time>
      </trkpt>
      <trkpt lat="47.20828" lon="-1.34996">
        <ele>54</ele>
        <time>2021-09-25T08:46:53.000Z</time>
      </trkpt>
      <trkpt lat="47.20838" lon="-1.35006">
        <ele>54</ele>
        <time>2021-09-25T08:46:55.000Z</time>
      </trkpt>
      <trkpt lat="47.20848" lon="-1.35016">
        <ele>55</ele>
        <time>2021-09-25T08:46:57.000Z</time>
      </trkpt>
      <trkpt lat="47.20857" lon="-1.35027">
        <ele>55</ele>
        <time>2021-09-25T08:46:59.000Z</time>
      </trkpt>
      <trkpt lat="47.20866" lon="-1.35039">
        <ele>55</ele>
        <time>2021-09-25T08:47:01.000Z</time>
      </trkpt>
      <trkpt lat="47.20874" lon="-1.35052">
        <ele>55</ele>
        <time>2021-09-25T08:47:03.000Z</time>
      </trkpt>
      <trkpt lat="47.20883" lon="-1.35066">
        <ele>55</ele>
        <time>2021-09-25T08:47:05.000Z</time>
      </trkpt>
      <trkpt lat="47.2089" lon="-1.3508">
        <ele>56</ele>
        <time>2021-09-25T08:47:07.000Z</time>
      </trkpt>
      <trkpt lat="47.20897" lon="-1.35095">
        <ele>56</ele>
        <time>2021-09-25T08:47:09.000Z</time>
      </trkpt>
      <trkpt lat="47.20904" lon="-1.35109">
        <ele>56</ele>
        <time>2021-09-25T08:47:11.000Z</time>
      </trkpt>
      <trkpt lat="47.2091" lon="-1.35124">
        <ele>56</ele>
        <time>2021-09-25T08:47:13.000Z</time>
      </trkpt>
      <trkpt lat="47.20917" lon="-1.35138">
        <ele>57</ele>
        <time>2021-09-25T08:47:15.000Z</time>
      </trkpt>
      <trkpt lat="47.20923" lon="-1.35153">
        <ele>57</ele>
        <time>2021-09-25T08:47:17.000Z</time>
      </trkpt>
      <trkpt lat="47.20929" lon="-1.35168">
        <ele>56</ele>
        <time>2021-09-25T08:47:19.000Z</time>
      </trkpt>
      <trkpt lat="47.20936" lon="-1.35183">
        <ele>57</ele>
        <time>2021-09-25T08:47:21.000Z</time>
      </trkpt>
      <trkpt lat="47.20942" lon="-1.35198">
        <ele>57</ele>
        <time>2021-09-25T08:47:23.000Z</time>
      </trkpt>
      <trkpt lat="47.20949" lon="-1.35213">
        <ele>57</ele>
        <time>2021-09-25T08:47:25.000Z</time>
      </trkpt>
      <trkpt lat="47.20955" lon="-1.35228">
        <ele>56</ele>
        <time>2021-09-25T08:47:27.000Z</time>
      </trkpt>
      <trkpt lat="47.20962" lon="-1.35244">
        <ele>56</ele>
        <time>2021-09-25T08:47:29.000Z</time>
      </trkpt>
      <trkpt lat="47.20969" lon="-1.35259">
        <ele>56</ele>
        <time>2021-09-25T08:47:31.000Z</time>
      </trkpt>
      <trkpt lat="47.20977" lon="-1.35274">
        <ele>56</ele>
        <time>2021-09-25T08:47:33.000Z</time>
      </trkpt>
      <trkpt lat="47.20985" lon="-1.35288">
        <ele>56</ele>
        <time>2021-09-25T08:47:35.000Z</time>
      </trkpt>
      <trkpt lat="47.20994" lon="-1.35302">
        <ele>56</ele>
        <time>2021-09-25T08:47:37.000Z</time>
      </trkpt>
      <trkpt lat="47.21004" lon="-1.35315">
        <ele>55</ele>
        <time>2021-09-25T08:47:39.000Z</time>
      </trkpt>
      <trkpt lat="47.21015" lon="-1.35326">
        <ele>55</ele>
        <time>2021-09-25T08:47:41.000Z</time>
      </trkpt>
      <trkpt lat="47.21028" lon="-1.35337">
        <ele>55</ele>
        <time>2021-09-25T08:47:43.000Z</time>
      </trkpt>
      <trkpt lat="47.21041" lon="-1.35345">
        <ele>54</ele>
        <time>2021-09-25T08:47:45.000Z</time>
      </trkpt>
      <trkpt lat="47.21054" lon="-1.35351">
        <ele>55</ele>
        <time>2021-09-25T08:47:47.000Z</time>
      </trkpt>
      <trkpt lat="47.21068" lon="-1.35355">
        <ele>55</ele>
        <time>2021-09-25T08:47:49.000Z</time>
      </trkpt>
      <trkpt lat="47.21081" lon="-1.35359">
        <ele>55</ele>
        <time>2021-09-25T08:47:51.000Z</time>
      </trkpt>
      <trkpt lat="47.21095" lon="-1.35362">
        <ele>54</ele>
        <time>2021-09-25T08:47:53.000Z</time>
      </trkpt>
      <trkpt lat="47.21109" lon="-1.35366">
        <ele>55</ele>
        <time>2021-09-25T08:47:55.000Z</time>
      </trkpt>
      <trkpt lat="47.21122" lon="-1.35369">
        <ele>54</ele>
        <time>2021-09-25T08:47:57.000Z</time>
      </trkpt>
      <trkpt lat="47.21137" lon="-1.35372">
        <ele>55</ele>
        <time>2021-09-25T08:47:59.000Z</time>
      </trkpt>
      <trkpt lat="47.21151" lon="-1.35375">
        <ele>55</ele>
        <time>2021-09-25T08:48:01.000Z</time>
      </trkpt>
      <trkpt lat="47.21165" lon="-1.35379">
        <ele>56</ele>
        <time>2021-09-25T08:48:03.000Z</time>
      </trkpt>
      <trkpt lat="47.21178" lon="-1.35384">
        <ele>56</ele>
        <time>2021-09-25T08:48:05.000Z</time>
      </trkpt>
      <trkpt lat="47.21192" lon="-1.35387">
        <ele>56</ele>
        <time>2021-09-25T08:48:07.000Z</time>
      </trkpt>
      <trkpt lat="47.21206" lon="-1.3539">
        <ele>56</ele>
        <time>2021-09-25T08:48:09.000Z</time>
      </trkpt>
      <trkpt lat="47.21219" lon="-1.35395">
        <ele>57</ele>
        <time>2021-09-25T08:48:11.000Z</time>
      </trkpt>
      <trkpt lat="47.21232" lon="-1.35402">
        <ele>57</ele>
        <time>2021-09-25T08:48:13.000Z</time>
      </trkpt>
      <trkpt lat="47.21246" lon="-1.3541">
        <ele>57</ele>
        <time>2021-09-25T08:48:15.000Z</time>
      </trkpt>
      <trkpt lat="47.21263" lon="-1.35426">
        <ele>57</ele>
        <time>2021-09-25T08:48:18.000Z</time>
      </trkpt>
      <trkpt lat="47.21273" lon="-1.35437">
        <ele>58</ele>
        <time>2021-09-25T08:48:20.000Z</time>
      </trkpt>
      <trkpt lat="47.21283" lon="-1.35447">
        <ele>58</ele>
        <time>2021-09-25T08:48:22.000Z</time>
      </trkpt>
      <trkpt lat="47.21291" lon="-1.35458">
        <ele>58</ele>
        <time>2021-09-25T08:48:24.000Z</time>
      </trkpt>
      <trkpt lat="47.21304" lon="-1.35473">
        <ele>58</ele>
        <time>2021-09-25T08:48:27.000Z</time>
      </trkpt>
      <trkpt lat="47.21312" lon="-1.35482">
        <ele>58</ele>
        <time>2021-09-25T08:48:29.000Z</time>
      </trkpt>
      <trkpt lat="47.21319" lon="-1.35492">
        <ele>59</ele>
        <time>2021-09-25T08:48:31.000Z</time>
      </trkpt>
      <trkpt lat="47.21327" lon="-1.35502">
        <ele>60</ele>
        <time>2021-09-25T08:48:33.000Z</time>
      </trkpt>
      <trkpt lat="47.21334" lon="-1.3551">
        <ele>60</ele>
        <time>2021-09-25T08:48:35.000Z</time>
      </trkpt>
      <trkpt lat="47.21342" lon="-1.35519">
        <ele>61</ele>
        <time>2021-09-25T08:48:37.000Z</time>
      </trkpt>
      <trkpt lat="47.21353" lon="-1.35531">
        <ele>62</ele>
        <time>2021-09-25T08:48:40.000Z</time>
      </trkpt>
      <trkpt lat="47.21363" lon="-1.35544">
        <ele>63</ele>
        <time>2021-09-25T08:48:43.000Z</time>
      </trkpt>
      <trkpt lat="47.2137" lon="-1.35552">
        <ele>63</ele>
        <time>2021-09-25T08:48:45.000Z</time>
      </trkpt>
      <trkpt lat="47.21381" lon="-1.35564">
        <ele>64</ele>
        <time>2021-09-25T08:48:48.000Z</time>
      </trkpt>
      <trkpt lat="47.21391" lon="-1.35576">
        <ele>64</ele>
        <time>2021-09-25T08:48:51.000Z</time>
      </trkpt>
      <trkpt lat="47.21398" lon="-1.35585">
        <ele>65</ele>
        <time>2021-09-25T08:48:53.000Z</time>
      </trkpt>
      <trkpt lat="47.21408" lon="-1.35597">
        <ele>65</ele>
        <time>2021-09-25T08:48:56.000Z</time>
      </trkpt>
      <trkpt lat="47.21418" lon="-1.3561">
        <ele>66</ele>
        <time>2021-09-25T08:48:59.000Z</time>
      </trkpt>
      <trkpt lat="47.21425" lon="-1.35618">
        <ele>66</ele>
        <time>2021-09-25T08:49:01.000Z</time>
      </trkpt>
      <trkpt lat="47.21435" lon="-1.35629">
        <ele>67</ele>
        <time>2021-09-25T08:49:04.000Z</time>
      </trkpt>
      <trkpt lat="47.21444" lon="-1.3564">
        <ele>68</ele>
        <time>2021-09-25T08:49:07.000Z</time>
      </trkpt>
      <trkpt lat="47.21454" lon="-1.35651">
        <ele>68</ele>
        <time>2021-09-25T08:49:10.000Z</time>
      </trkpt>
      <trkpt lat="47.21463" lon="-1.35663">
        <ele>69</ele>
        <time>2021-09-25T08:49:13.000Z</time>
      </trkpt>
      <trkpt lat="47.21473" lon="-1.35675">
        <ele>70</ele>
        <time>2021-09-25T08:49:16.000Z</time>
      </trkpt>
      <trkpt lat="47.21482" lon="-1.35685">
        <ele>71</ele>
        <time>2021-09-25T08:49:19.000Z</time>
      </trkpt>
      <trkpt lat="47.21492" lon="-1.35697">
        <ele>72</ele>
        <time>2021-09-25T08:49:22.000Z</time>
      </trkpt>
      <trkpt lat="47.21501" lon="-1.35708">
        <ele>72</ele>
        <time>2021-09-25T08:49:25.000Z</time>
      </trkpt>
      <trkpt lat="47.21511" lon="-1.35719">
        <ele>73</ele>
        <time>2021-09-25T08:49:28.000Z</time>
      </trkpt>
      <trkpt lat="47.21521" lon="-1.3573">
        <ele>74</ele>
        <time>2021-09-25T08:49:31.000Z</time>
      </trkpt>
      <trkpt lat="47.2153" lon="-1.35741">
        <ele>75</ele>
        <time>2021-09-25T08:49:34.000Z</time>
      </trkpt>
      <trkpt lat="47.2154" lon="-1.35752">
        <ele>75</ele>
        <time>2021-09-25T08:49:37.000Z</time>
      </trkpt>
      <trkpt lat="47.21551" lon="-1.35762">
        <ele>76</ele>
        <time>2021-09-25T08:49:40.000Z</time>
      </trkpt>
      <trkpt lat="47.21562" lon="-1.3577">
        <ele>77</ele>
        <time>2021-09-25T08:49:43.000Z</time>
      </trkpt>
      <trkpt lat="47.21574" lon="-1.35778">
        <ele>78</ele>
        <time>2021-09-25T08:49:46.000Z</time>
      </trkpt>
      <trkpt lat="47.21583" lon="-1.35783">
        <ele>78</ele>
        <time>2021-09-25T08:49:48.000Z</time>
      </trkpt>
      <trkpt lat="47.21592" lon="-1.35787">
        <ele>78</ele>
        <time>2021-09-25T08:49:50.000Z</time>
      </trkpt>
      <trkpt lat="47.21602" lon="-1.3579">
        <ele>78</ele>
        <time>2021-09-25T08:49:52.000Z</time>
      </trkpt>
      <trkpt lat="47.21612" lon="-1.35792">
        <ele>78</ele>
        <time>2021-09-25T08:49:54.000Z</time>
      </trkpt>
      <trkpt lat="47.21622" lon="-1.35792">
        <ele>78</ele>
        <time>2021-09-25T08:49:56.000Z</time>
      </trkpt>
      <trkpt lat="47.21634" lon="-1.35791">
        <ele>78</ele>
        <time>2021-09-25T08:49:58.000Z</time>
      </trkpt>
      <trkpt lat="47.21646" lon="-1.35789">
        <ele>78</ele>
        <time>2021-09-25T08:50:00.000Z</time>
      </trkpt>
      <trkpt lat="47.21659" lon="-1.35787">
        <ele>78</ele>
        <time>2021-09-25T08:50:02.000Z</time>
      </trkpt>
      <trkpt lat="47.21672" lon="-1.35781">
        <ele>78</ele>
        <time>2021-09-25T08:50:04.000Z</time>
      </trkpt>
      <trkpt lat="47.21684" lon="-1.35775">
        <ele>79</ele>
        <time>2021-09-25T08:50:06.000Z</time>
      </trkpt>
      <trkpt lat="47.21696" lon="-1.35768">
        <ele>78</ele>
        <time>2021-09-25T08:50:08.000Z</time>
      </trkpt>
      <trkpt lat="47.21707" lon="-1.35759">
        <ele>79</ele>
        <time>2021-09-25T08:50:10.000Z</time>
      </trkpt>
      <trkpt lat="47.21718" lon="-1.35749">
        <ele>79</ele>
        <time>2021-09-25T08:50:12.000Z</time>
      </trkpt>
      <trkpt lat="47.2173" lon="-1.35738">
        <ele>78</ele>
        <time>2021-09-25T08:50:14.000Z</time>
      </trkpt>
      <trkpt lat="47.21742" lon="-1.35727">
        <ele>78</ele>
        <time>2021-09-25T08:50:16.000Z</time>
      </trkpt>
      <trkpt lat="47.21754" lon="-1.35715">
        <ele>77</ele>
        <time>2021-09-25T08:50:18.000Z</time>
      </trkpt>
      <trkpt lat="47.21768" lon="-1.35704">
        <ele>77</ele>
        <time>2021-09-25T08:50:20.000Z</time>
      </trkpt>
      <trkpt lat="47.21781" lon="-1.35692">
        <ele>76</ele>
        <time>2021-09-25T08:50:22.000Z</time>
      </trkpt>
      <trkpt lat="47.21796" lon="-1.35682">
        <ele>76</ele>
        <time>2021-09-25T08:50:24.000Z</time>
      </trkpt>
      <trkpt lat="47.21812" lon="-1.35674">
        <ele>75</ele>
        <time>2021-09-25T08:50:26.000Z</time>
      </trkpt>
      <trkpt lat="47.21829" lon="-1.3567">
        <ele>74</ele>
        <time>2021-09-25T08:50:28.000Z</time>
      </trkpt>
      <trkpt lat="47.21847" lon="-1.35669">
        <ele>74</ele>
        <time>2021-09-25T08:50:30.000Z</time>
      </trkpt>
      <trkpt lat="47.21856" lon="-1.3567">
        <ele>73</ele>
        <time>2021-09-25T08:50:31.000Z</time>
      </trkpt>
      <trkpt lat="47.21874" lon="-1.35672">
        <ele>72</ele>
        <time>2021-09-25T08:50:33.000Z</time>
      </trkpt>
      <trkpt lat="47.21883" lon="-1.35674">
        <ele>72</ele>
        <time>2021-09-25T08:50:34.000Z</time>
      </trkpt>
      <trkpt lat="47.21901" lon="-1.35678">
        <ele>71</ele>
        <time>2021-09-25T08:50:36.000Z</time>
      </trkpt>
      <trkpt lat="47.2191" lon="-1.3568">
        <ele>71</ele>
        <time>2021-09-25T08:50:37.000Z</time>
      </trkpt>
      <trkpt lat="47.21919" lon="-1.35681">
        <ele>70</ele>
        <time>2021-09-25T08:50:38.000Z</time>
      </trkpt>
      <trkpt lat="47.21936" lon="-1.35685">
        <ele>70</ele>
        <time>2021-09-25T08:50:40.000Z</time>
      </trkpt>
      <trkpt lat="47.21945" lon="-1.35687">
        <ele>70</ele>
        <time>2021-09-25T08:50:41.000Z</time>
      </trkpt>
      <trkpt lat="47.21963" lon="-1.3569">
        <ele>69</ele>
        <time>2021-09-25T08:50:43.000Z</time>
      </trkpt>
      <trkpt lat="47.2198" lon="-1.35694">
        <ele>68</ele>
        <time>2021-09-25T08:50:45.000Z</time>
      </trkpt>
      <trkpt lat="47.21998" lon="-1.35698">
        <ele>67</ele>
        <time>2021-09-25T08:50:47.000Z</time>
      </trkpt>
      <trkpt lat="47.22007" lon="-1.357">
        <ele>67</ele>
        <time>2021-09-25T08:50:48.000Z</time>
      </trkpt>
      <trkpt lat="47.22016" lon="-1.35702">
        <ele>67</ele>
        <time>2021-09-25T08:50:49.000Z</time>
      </trkpt>
      <trkpt lat="47.22025" lon="-1.35704">
        <ele>66</ele>
        <time>2021-09-25T08:50:50.000Z</time>
      </trkpt>
      <trkpt lat="47.22034" lon="-1.35706">
        <ele>66</ele>
        <time>2021-09-25T08:50:51.000Z</time>
      </trkpt>
      <trkpt lat="47.22043" lon="-1.35708">
        <ele>65</ele>
        <time>2021-09-25T08:50:52.000Z</time>
      </trkpt>
      <trkpt lat="47.22053" lon="-1.3571">
        <ele>65</ele>
        <time>2021-09-25T08:50:53.000Z</time>
      </trkpt>
      <trkpt lat="47.22062" lon="-1.35712">
        <ele>64</ele>
        <time>2021-09-25T08:50:54.000Z</time>
      </trkpt>
      <trkpt lat="47.22071" lon="-1.35714">
        <ele>64</ele>
        <time>2021-09-25T08:50:55.000Z</time>
      </trkpt>
      <trkpt lat="47.2208" lon="-1.35716">
        <ele>64</ele>
        <time>2021-09-25T08:50:56.000Z</time>
      </trkpt>
      <trkpt lat="47.22089" lon="-1.35718">
        <ele>63</ele>
        <time>2021-09-25T08:50:57.000Z</time>
      </trkpt>
      <trkpt lat="47.22098" lon="-1.35719">
        <ele>63</ele>
        <time>2021-09-25T08:50:58.000Z</time>
      </trkpt>
      <trkpt lat="47.22107" lon="-1.35722">
        <ele>63</ele>
        <time>2021-09-25T08:50:59.000Z</time>
      </trkpt>
      <trkpt lat="47.22116" lon="-1.35724">
        <ele>62</ele>
        <time>2021-09-25T08:51:00.000Z</time>
      </trkpt>
      <trkpt lat="47.22125" lon="-1.35726">
        <ele>62</ele>
        <time>2021-09-25T08:51:01.000Z</time>
      </trkpt>
      <trkpt lat="47.22134" lon="-1.35728">
        <ele>62</ele>
        <time>2021-09-25T08:51:02.000Z</time>
      </trkpt>
      <trkpt lat="47.22143" lon="-1.3573">
        <ele>61</ele>
        <time>2021-09-25T08:51:03.000Z</time>
      </trkpt>
      <trkpt lat="47.22152" lon="-1.35732">
        <ele>61</ele>
        <time>2021-09-25T08:51:04.000Z</time>
      </trkpt>
      <trkpt lat="47.22162" lon="-1.35733">
        <ele>61</ele>
        <time>2021-09-25T08:51:05.000Z</time>
      </trkpt>
      <trkpt lat="47.22171" lon="-1.35735">
        <ele>61</ele>
        <time>2021-09-25T08:51:06.000Z</time>
      </trkpt>
      <trkpt lat="47.22188" lon="-1.35738">
        <ele>61</ele>
        <time>2021-09-25T08:51:08.000Z</time>
      </trkpt>
      <trkpt lat="47.22206" lon="-1.35741">
        <ele>60</ele>
        <time>2021-09-25T08:51:10.000Z</time>
      </trkpt>
      <trkpt lat="47.22223" lon="-1.35744">
        <ele>61</ele>
        <time>2021-09-25T08:51:12.000Z</time>
      </trkpt>
      <trkpt lat="47.22239" lon="-1.35744">
        <ele>61</ele>
        <time>2021-09-25T08:51:14.000Z</time>
      </trkpt>
      <trkpt lat="47.22256" lon="-1.35742">
        <ele>61</ele>
        <time>2021-09-25T08:51:16.000Z</time>
      </trkpt>
      <trkpt lat="47.22273" lon="-1.35737">
        <ele>61</ele>
        <time>2021-09-25T08:51:18.000Z</time>
      </trkpt>
      <trkpt lat="47.22288" lon="-1.35731">
        <ele>61</ele>
        <time>2021-09-25T08:51:20.000Z</time>
      </trkpt>
      <trkpt lat="47.22304" lon="-1.35724">
        <ele>60</ele>
        <time>2021-09-25T08:51:22.000Z</time>
      </trkpt>
      <trkpt lat="47.22319" lon="-1.35718">
        <ele>60</ele>
        <time>2021-09-25T08:51:24.000Z</time>
      </trkpt>
      <trkpt lat="47.22335" lon="-1.3571">
        <ele>60</ele>
        <time>2021-09-25T08:51:26.000Z</time>
      </trkpt>
      <trkpt lat="47.2235" lon="-1.35705">
        <ele>60</ele>
        <time>2021-09-25T08:51:28.000Z</time>
      </trkpt>
      <trkpt lat="47.22365" lon="-1.35699">
        <ele>60</ele>
        <time>2021-09-25T08:51:30.000Z</time>
      </trkpt>
      <trkpt lat="47.22379" lon="-1.35693">
        <ele>60</ele>
        <time>2021-09-25T08:51:32.000Z</time>
      </trkpt>
      <trkpt lat="47.22394" lon="-1.35688">
        <ele>61</ele>
        <time>2021-09-25T08:51:34.000Z</time>
      </trkpt>
      <trkpt lat="47.22408" lon="-1.35682">
        <ele>60</ele>
        <time>2021-09-25T08:51:36.000Z</time>
      </trkpt>
      <trkpt lat="47.22422" lon="-1.35676">
        <ele>61</ele>
        <time>2021-09-25T08:51:38.000Z</time>
      </trkpt>
      <trkpt lat="47.22436" lon="-1.35671">
        <ele>61</ele>
        <time>2021-09-25T08:51:40.000Z</time>
      </trkpt>
      <trkpt lat="47.2245" lon="-1.35666">
        <ele>61</ele>
        <time>2021-09-25T08:51:42.000Z</time>
      </trkpt>
      <trkpt lat="47.22464" lon="-1.35662">
        <ele>61</ele>
        <time>2021-09-25T08:51:44.000Z</time>
      </trkpt>
      <trkpt lat="47.22477" lon="-1.35659">
        <ele>61</ele>
        <time>2021-09-25T08:51:46.000Z</time>
      </trkpt>
      <trkpt lat="47.22491" lon="-1.35657">
        <ele>61</ele>
        <time>2021-09-25T08:51:48.000Z</time>
      </trkpt>
      <trkpt lat="47.22505" lon="-1.35655">
        <ele>62</ele>
        <time>2021-09-25T08:51:50.000Z</time>
      </trkpt>
      <trkpt lat="47.2252" lon="-1.35653">
        <ele>62</ele>
        <time>2021-09-25T08:51:52.000Z</time>
      </trkpt>
      <trkpt lat="47.22534" lon="-1.35651">
        <ele>61</ele>
        <time>2021-09-25T08:51:54.000Z</time>
      </trkpt>
      <trkpt lat="47.22548" lon="-1.35648">
        <ele>61</ele>
        <time>2021-09-25T08:51:56.000Z</time>
      </trkpt>
      <trkpt lat="47.22562" lon="-1.35645">
        <ele>60</ele>
        <time>2021-09-25T08:51:58.000Z</time>
      </trkpt>
      <trkpt lat="47.22576" lon="-1.3564">
        <ele>59</ele>
        <time>2021-09-25T08:52:00.000Z</time>
      </trkpt>
      <trkpt lat="47.2259" lon="-1.35634">
        <ele>59</ele>
        <time>2021-09-25T08:52:02.000Z</time>
      </trkpt>
      <trkpt lat="47.22603" lon="-1.35627">
        <ele>59</ele>
        <time>2021-09-25T08:52:04.000Z</time>
      </trkpt>
      <trkpt lat="47.22616" lon="-1.3562">
        <ele>59</ele>
        <time>2021-09-25T08:52:06.000Z</time>
      </trkpt>
      <trkpt lat="47.22629" lon="-1.35612">
        <ele>59</ele>
        <time>2021-09-25T08:52:08.000Z</time>
      </trkpt>
      <trkpt lat="47.22641" lon="-1.35603">
        <ele>59</ele>
        <time>2021-09-25T08:52:10.000Z</time>
      </trkpt>
      <trkpt lat="47.22654" lon="-1.35595">
        <ele>59</ele>
        <time>2021-09-25T08:52:12.000Z</time>
      </trkpt>
      <trkpt lat="47.22666" lon="-1.35586">
        <ele>59</ele>
        <time>2021-09-25T08:52:14.000Z</time>
      </trkpt>
      <trkpt lat="47.22679" lon="-1.35578">
        <ele>59</ele>
        <time>2021-09-25T08:52:16.000Z</time>
      </trkpt>
      <trkpt lat="47.22691" lon="-1.35569">
        <ele>59</ele>
        <time>2021-09-25T08:52:18.000Z</time>
      </trkpt>
      <trkpt lat="47.22703" lon="-1.35561">
        <ele>59</ele>
        <time>2021-09-25T08:52:20.000Z</time>
      </trkpt>
      <trkpt lat="47.22715" lon="-1.35552">
        <ele>59</ele>
        <time>2021-09-25T08:52:22.000Z</time>
      </trkpt>
      <trkpt lat="47.22726" lon="-1.35545">
        <ele>59</ele>
        <time>2021-09-25T08:52:24.000Z</time>
      </trkpt>
      <trkpt lat="47.22737" lon="-1.35537">
        <ele>60</ele>
        <time>2021-09-25T08:52:26.000Z</time>
      </trkpt>
      <trkpt lat="47.22748" lon="-1.3553">
        <ele>60</ele>
        <time>2021-09-25T08:52:28.000Z</time>
      </trkpt>
      <trkpt lat="47.22758" lon="-1.35523">
        <ele>60</ele>
        <time>2021-09-25T08:52:30.000Z</time>
      </trkpt>
      <trkpt lat="47.22768" lon="-1.35515">
        <ele>60</ele>
        <time>2021-09-25T08:52:32.000Z</time>
      </trkpt>
      <trkpt lat="47.22778" lon="-1.35509">
        <ele>61</ele>
        <time>2021-09-25T08:52:34.000Z</time>
      </trkpt>
      <trkpt lat="47.22787" lon="-1.35503">
        <ele>61</ele>
        <time>2021-09-25T08:52:36.000Z</time>
      </trkpt>
      <trkpt lat="47.22797" lon="-1.35496">
        <ele>61</ele>
        <time>2021-09-25T08:52:38.000Z</time>
      </trkpt>
      <trkpt lat="47.22806" lon="-1.35489">
        <ele>63</ele>
        <time>2021-09-25T08:52:40.000Z</time>
      </trkpt>
      <trkpt lat="47.22815" lon="-1.35482">
        <ele>63</ele>
        <time>2021-09-25T08:52:42.000Z</time>
      </trkpt>
      <trkpt lat="47.22824" lon="-1.35475">
        <ele>64</ele>
        <time>2021-09-25T08:52:44.000Z</time>
      </trkpt>
      <trkpt lat="47.22834" lon="-1.35469">
        <ele>64</ele>
        <time>2021-09-25T08:52:46.000Z</time>
      </trkpt>
      <trkpt lat="47.22843" lon="-1.35462">
        <ele>64</ele>
        <time>2021-09-25T08:52:48.000Z</time>
      </trkpt>
      <trkpt lat="47.22852" lon="-1.35457">
        <ele>65</ele>
        <time>2021-09-25T08:52:50.000Z</time>
      </trkpt>
      <trkpt lat="47.22861" lon="-1.35451">
        <ele>65</ele>
        <time>2021-09-25T08:52:52.000Z</time>
      </trkpt>
      <trkpt lat="47.22871" lon="-1.35446">
        <ele>65</ele>
        <time>2021-09-25T08:52:54.000Z</time>
      </trkpt>
      <trkpt lat="47.22881" lon="-1.35441">
        <ele>65</ele>
        <time>2021-09-25T08:52:56.000Z</time>
      </trkpt>
      <trkpt lat="47.22892" lon="-1.35437">
        <ele>66</ele>
        <time>2021-09-25T08:52:58.000Z</time>
      </trkpt>
      <trkpt lat="47.22902" lon="-1.35434">
        <ele>66</ele>
        <time>2021-09-25T08:53:00.000Z</time>
      </trkpt>
      <trkpt lat="47.22912" lon="-1.35432">
        <ele>66</ele>
        <time>2021-09-25T08:53:02.000Z</time>
      </trkpt>
      <trkpt lat="47.22923" lon="-1.35431">
        <ele>67</ele>
        <time>2021-09-25T08:53:04.000Z</time>
      </trkpt>
      <trkpt lat="47.22934" lon="-1.35431">
        <ele>67</ele>
        <time>2021-09-25T08:53:06.000Z</time>
      </trkpt>
      <trkpt lat="47.22944" lon="-1.35432">
        <ele>67</ele>
        <time>2021-09-25T08:53:08.000Z</time>
      </trkpt>
      <trkpt lat="47.22955" lon="-1.35433">
        <ele>67</ele>
        <time>2021-09-25T08:53:10.000Z</time>
      </trkpt>
      <trkpt lat="47.22965" lon="-1.35435">
        <ele>67</ele>
        <time>2021-09-25T08:53:12.000Z</time>
      </trkpt>
      <trkpt lat="47.22976" lon="-1.35437">
        <ele>68</ele>
        <time>2021-09-25T08:53:14.000Z</time>
      </trkpt>
      <trkpt lat="47.22986" lon="-1.35439">
        <ele>68</ele>
        <time>2021-09-25T08:53:16.000Z</time>
      </trkpt>
      <trkpt lat="47.22997" lon="-1.35442">
        <ele>68</ele>
        <time>2021-09-25T08:53:18.000Z</time>
      </trkpt>
      <trkpt lat="47.23007" lon="-1.35445">
        <ele>68</ele>
        <time>2021-09-25T08:53:20.000Z</time>
      </trkpt>
      <trkpt lat="47.23018" lon="-1.35447">
        <ele>69</ele>
        <time>2021-09-25T08:53:22.000Z</time>
      </trkpt>
      <trkpt lat="47.23028" lon="-1.35449">
        <ele>69</ele>
        <time>2021-09-25T08:53:24.000Z</time>
      </trkpt>
      <trkpt lat="47.23039" lon="-1.35451">
        <ele>69</ele>
        <time>2021-09-25T08:53:26.000Z</time>
      </trkpt>
      <trkpt lat="47.23049" lon="-1.35453">
        <ele>69</ele>
        <time>2021-09-25T08:53:28.000Z</time>
      </trkpt>
      <trkpt lat="47.23059" lon="-1.35456">
        <ele>69</ele>
        <time>2021-09-25T08:53:30.000Z</time>
      </trkpt>
      <trkpt lat="47.2307" lon="-1.35458">
        <ele>69</ele>
        <time>2021-09-25T08:53:32.000Z</time>
      </trkpt>
      <trkpt lat="47.23081" lon="-1.35461">
        <ele>69</ele>
        <time>2021-09-25T08:53:34.000Z</time>
      </trkpt>
      <trkpt lat="47.23094" lon="-1.35461">
        <ele>69</ele>
        <time>2021-09-25T08:53:36.000Z</time>
      </trkpt>
      <trkpt lat="47.23106" lon="-1.35461">
        <ele>68</ele>
        <time>2021-09-25T08:53:38.000Z</time>
      </trkpt>
      <trkpt lat="47.2312" lon="-1.35459">
        <ele>67</ele>
        <time>2021-09-25T08:53:40.000Z</time>
      </trkpt>
      <trkpt lat="47.23134" lon="-1.35455">
        <ele>67</ele>
        <time>2021-09-25T08:53:42.000Z</time>
      </trkpt>
      <trkpt lat="47.23147" lon="-1.35449">
        <ele>67</ele>
        <time>2021-09-25T08:53:44.000Z</time>
      </trkpt>
      <trkpt lat="47.2316" lon="-1.35442">
        <ele>66</ele>
        <time>2021-09-25T08:53:46.000Z</time>
      </trkpt>
      <trkpt lat="47.23174" lon="-1.35432">
        <ele>66</ele>
        <time>2021-09-25T08:53:48.000Z</time>
      </trkpt>
      <trkpt lat="47.23187" lon="-1.35422">
        <ele>65</ele>
        <time>2021-09-25T08:53:50.000Z</time>
      </trkpt>
      <trkpt lat="47.23201" lon="-1.35411">
        <ele>64</ele>
        <time>2021-09-25T08:53:52.000Z</time>
      </trkpt>
      <trkpt lat="47.23214" lon="-1.354">
        <ele>64</ele>
        <time>2021-09-25T08:53:54.000Z</time>
      </trkpt>
      <trkpt lat="47.23226" lon="-1.35388">
        <ele>64</ele>
        <time>2021-09-25T08:53:56.000Z</time>
      </trkpt>
      <trkpt lat="47.23239" lon="-1.35377">
        <ele>65</ele>
        <time>2021-09-25T08:53:58.000Z</time>
      </trkpt>
      <trkpt lat="47.23251" lon="-1.35367">
        <ele>65</ele>
        <time>2021-09-25T08:54:00.000Z</time>
      </trkpt>
      <trkpt lat="47.23262" lon="-1.35356">
        <ele>66</ele>
        <time>2021-09-25T08:54:02.000Z</time>
      </trkpt>
      <trkpt lat="47.23271" lon="-1.35345">
        <ele>66</ele>
        <time>2021-09-25T08:54:04.000Z</time>
      </trkpt>
      <trkpt lat="47.23278" lon="-1.35334">
        <ele>67</ele>
        <time>2021-09-25T08:54:06.000Z</time>
      </trkpt>
      <trkpt lat="47.23285" lon="-1.35324">
        <ele>68</ele>
        <time>2021-09-25T08:54:08.000Z</time>
      </trkpt>
      <trkpt lat="47.23292" lon="-1.35314">
        <ele>69</ele>
        <time>2021-09-25T08:54:10.000Z</time>
      </trkpt>
      <trkpt lat="47.23298" lon="-1.35303">
        <ele>69</ele>
        <time>2021-09-25T08:54:12.000Z</time>
      </trkpt>
      <trkpt lat="47.23304" lon="-1.35292">
        <ele>70</ele>
        <time>2021-09-25T08:54:14.000Z</time>
      </trkpt>
      <trkpt lat="47.2331" lon="-1.35282">
        <ele>70</ele>
        <time>2021-09-25T08:54:16.000Z</time>
      </trkpt>
      <trkpt lat="47.23316" lon="-1.3527">
        <ele>71</ele>
        <time>2021-09-25T08:54:18.000Z</time>
      </trkpt>
      <trkpt lat="47.23321" lon="-1.35259">
        <ele>71</ele>
        <time>2021-09-25T08:54:20.000Z</time>
      </trkpt>
      <trkpt lat="47.23328" lon="-1.35242">
        <ele>72</ele>
        <time>2021-09-25T08:54:23.000Z</time>
      </trkpt>
      <trkpt lat="47.23333" lon="-1.3523">
        <ele>73</ele>
        <time>2021-09-25T08:54:25.000Z</time>
      </trkpt>
      <trkpt lat="47.2334" lon="-1.35214">
        <ele>73</ele>
        <time>2021-09-25T08:54:28.000Z</time>
      </trkpt>
      <trkpt lat="47.23345" lon="-1.35202">
        <ele>74</ele>
        <time>2021-09-25T08:54:30.000Z</time>
      </trkpt>
      <trkpt lat="47.23352" lon="-1.35186">
        <ele>75</ele>
        <time>2021-09-25T08:54:33.000Z</time>
      </trkpt>
      <trkpt lat="47.23359" lon="-1.35171">
        <ele>75</ele>
        <time>2021-09-25T08:54:36.000Z</time>
      </trkpt>
      <trkpt lat="47.23367" lon="-1.35155">
        <ele>76</ele>
        <time>2021-09-25T08:54:39.000Z</time>
      </trkpt>
      <trkpt lat="47.23372" lon="-1.35145">
        <ele>76</ele>
        <time>2021-09-25T08:54:41.000Z</time>
      </trkpt>
      <trkpt lat="47.23381" lon="-1.35131">
        <ele>77</ele>
        <time>2021-09-25T08:54:44.000Z</time>
      </trkpt>
      <trkpt lat="47.2339" lon="-1.35117">
        <ele>77</ele>
        <time>2021-09-25T08:54:47.000Z</time>
      </trkpt>
      <trkpt lat="47.23399" lon="-1.35104">
        <ele>78</ele>
        <time>2021-09-25T08:54:50.000Z</time>
      </trkpt>
      <trkpt lat="47.23409" lon="-1.35092">
        <ele>78</ele>
        <time>2021-09-25T08:54:53.000Z</time>
      </trkpt>
      <trkpt lat="47.23419" lon="-1.35081">
        <ele>79</ele>
        <time>2021-09-25T08:54:56.000Z</time>
      </trkpt>
      <trkpt lat="47.2343" lon="-1.3507">
        <ele>80</ele>
        <time>2021-09-25T08:54:59.000Z</time>
      </trkpt>
      <trkpt lat="47.2344" lon="-1.3506">
        <ele>81</ele>
        <time>2021-09-25T08:55:02.000Z</time>
      </trkpt>
      <trkpt lat="47.23451" lon="-1.3505">
        <ele>82</ele>
        <time>2021-09-25T08:55:05.000Z</time>
      </trkpt>
      <trkpt lat="47.23461" lon="-1.3504">
        <ele>82</ele>
        <time>2021-09-25T08:55:08.000Z</time>
      </trkpt>
      <trkpt lat="47.23472" lon="-1.35029">
        <ele>83</ele>
        <time>2021-09-25T08:55:11.000Z</time>
      </trkpt>
      <trkpt lat="47.23483" lon="-1.35019">
        <ele>83</ele>
        <time>2021-09-25T08:55:14.000Z</time>
      </trkpt>
      <trkpt lat="47.23492" lon="-1.3501">
        <ele>84</ele>
        <time>2021-09-25T08:55:17.000Z</time>
      </trkpt>
      <trkpt lat="47.23501" lon="-1.34999">
        <ele>85</ele>
        <time>2021-09-25T08:55:20.000Z</time>
      </trkpt>
      <trkpt lat="47.23511" lon="-1.35007">
        <ele>87</ele>
        <time>2021-09-25T08:55:24.000Z</time>
      </trkpt>
      <trkpt lat="47.23518" lon="-1.35019">
        <ele>88</ele>
        <time>2021-09-25T08:55:26.000Z</time>
      </trkpt>
      <trkpt lat="47.23523" lon="-1.35031">
        <ele>88</ele>
        <time>2021-09-25T08:55:28.000Z</time>
      </trkpt>
      <trkpt lat="47.23528" lon="-1.35044">
        <ele>89</ele>
        <time>2021-09-25T08:55:30.000Z</time>
      </trkpt>
      <trkpt lat="47.23532" lon="-1.35056">
        <ele>89</ele>
        <time>2021-09-25T08:55:32.000Z</time>
      </trkpt>
      <trkpt lat="47.23536" lon="-1.35068">
        <ele>88</ele>
        <time>2021-09-25T08:55:34.000Z</time>
      </trkpt>
      <trkpt lat="47.23542" lon="-1.35079">
        <ele>89</ele>
        <time>2021-09-25T08:55:36.000Z</time>
      </trkpt>
      <trkpt lat="47.2355" lon="-1.35087">
        <ele>89</ele>
        <time>2021-09-25T08:55:38.000Z</time>
      </trkpt>
      <trkpt lat="47.23557" lon="-1.35096">
        <ele>89</ele>
        <time>2021-09-25T08:55:40.000Z</time>
      </trkpt>
      <trkpt lat="47.23564" lon="-1.35104">
        <ele>90</ele>
        <time>2021-09-25T08:55:42.000Z</time>
      </trkpt>
      <trkpt lat="47.23572" lon="-1.35113">
        <ele>90</ele>
        <time>2021-09-25T08:55:44.000Z</time>
      </trkpt>
      <trkpt lat="47.23579" lon="-1.35121">
        <ele>90</ele>
        <time>2021-09-25T08:55:46.000Z</time>
      </trkpt>
      <trkpt lat="47.23587" lon="-1.3513">
        <ele>90</ele>
        <time>2021-09-25T08:55:48.000Z</time>
      </trkpt>
      <trkpt lat="47.23594" lon="-1.35138">
        <ele>90</ele>
        <time>2021-09-25T08:55:50.000Z</time>
      </trkpt>
      <trkpt lat="47.23601" lon="-1.35147">
        <ele>90</ele>
        <time>2021-09-25T08:55:52.000Z</time>
      </trkpt>
      <trkpt lat="47.23609" lon="-1.35155">
        <ele>90</ele>
        <time>2021-09-25T08:55:54.000Z</time>
      </trkpt>
      <trkpt lat="47.2362" lon="-1.35166">
        <ele>90</ele>
        <time>2021-09-25T08:55:57.000Z</time>
      </trkpt>
      <trkpt lat="47.23632" lon="-1.3517">
        <ele>90</ele>
        <time>2021-09-25T08:56:00.000Z</time>
      </trkpt>
      <trkpt lat="47.23642" lon="-1.35159">
        <ele>91</ele>
        <time>2021-09-25T08:56:03.000Z</time>
      </trkpt>
      <trkpt lat="47.23644" lon="-1.35147">
        <ele>91</ele>
        <time>2021-09-25T08:56:05.000Z</time>
      </trkpt>
      <trkpt lat="47.23645" lon="-1.35133">
        <ele>92</ele>
        <time>2021-09-25T08:56:07.000Z</time>
      </trkpt>
      <trkpt lat="47.23646" lon="-1.35119">
        <ele>93</ele>
        <time>2021-09-25T08:56:09.000Z</time>
      </trkpt>
      <trkpt lat="47.23647" lon="-1.351">
        <ele>93</ele>
        <time>2021-09-25T08:56:12.000Z</time>
      </trkpt>
      <trkpt lat="47.23649" lon="-1.3508">
        <ele>93</ele>
        <time>2021-09-25T08:56:15.000Z</time>
      </trkpt>
      <trkpt lat="47.2365" lon="-1.35065">
        <ele>93</ele>
        <time>2021-09-25T08:56:17.000Z</time>
      </trkpt>
      <trkpt lat="47.23652" lon="-1.35048">
        <ele>94</ele>
        <time>2021-09-25T08:56:19.000Z</time>
      </trkpt>
      <trkpt lat="47.23656" lon="-1.35033">
        <ele>95</ele>
        <time>2021-09-25T08:56:21.000Z</time>
      </trkpt>
      <trkpt lat="47.23659" lon="-1.35019">
        <ele>97</ele>
        <time>2021-09-25T08:56:23.000Z</time>
      </trkpt>
      <trkpt lat="47.23662" lon="-1.35005">
        <ele>98</ele>
        <time>2021-09-25T08:56:25.000Z</time>
      </trkpt>
      <trkpt lat="47.23666" lon="-1.3499">
        <ele>98</ele>
        <time>2021-09-25T08:56:27.000Z</time>
      </trkpt>
      <trkpt lat="47.2367" lon="-1.34975">
        <ele>98</ele>
        <time>2021-09-25T08:56:29.000Z</time>
      </trkpt>
      <trkpt lat="47.23675" lon="-1.34958">
        <ele>97</ele>
        <time>2021-09-25T08:56:32.000Z</time>
      </trkpt>
      <trkpt lat="47.23679" lon="-1.34944">
        <ele>97</ele>
        <time>2021-09-25T08:56:34.000Z</time>
      </trkpt>
      <trkpt lat="47.23689" lon="-1.34931">
        <ele>97</ele>
        <time>2021-09-25T08:56:36.000Z</time>
      </trkpt>
      <trkpt lat="47.23701" lon="-1.34922">
        <ele>96</ele>
        <time>2021-09-25T08:56:38.000Z</time>
      </trkpt>
      <trkpt lat="47.23714" lon="-1.34916">
        <ele>96</ele>
        <time>2021-09-25T08:56:40.000Z</time>
      </trkpt>
      <trkpt lat="47.23726" lon="-1.34909">
        <ele>96</ele>
        <time>2021-09-25T08:56:42.000Z</time>
      </trkpt>
      <trkpt lat="47.23738" lon="-1.349">
        <ele>96</ele>
        <time>2021-09-25T08:56:44.000Z</time>
      </trkpt>
      <trkpt lat="47.23749" lon="-1.34893">
        <ele>95</ele>
        <time>2021-09-25T08:56:46.000Z</time>
      </trkpt>
      <trkpt lat="47.23759" lon="-1.34887">
        <ele>96</ele>
        <time>2021-09-25T08:56:48.000Z</time>
      </trkpt>
      <trkpt lat="47.23769" lon="-1.34881">
        <ele>97</ele>
        <time>2021-09-25T08:56:50.000Z</time>
      </trkpt>
      <trkpt lat="47.23778" lon="-1.34875">
        <ele>98</ele>
        <time>2021-09-25T08:56:52.000Z</time>
      </trkpt>
      <trkpt lat="47.23788" lon="-1.34864">
        <ele>97</ele>
        <time>2021-09-25T08:56:55.000Z</time>
      </trkpt>
      <trkpt lat="47.23791" lon="-1.3485">
        <ele>97</ele>
        <time>2021-09-25T08:56:58.000Z</time>
      </trkpt>
      <trkpt lat="47.23798" lon="-1.34841">
        <ele>97</ele>
        <time>2021-09-25T08:57:00.000Z</time>
      </trkpt>
      <trkpt lat="47.23811" lon="-1.34838">
        <ele>97</ele>
        <time>2021-09-25T08:57:02.000Z</time>
      </trkpt>
      <trkpt lat="47.23825" lon="-1.34837">
        <ele>96</ele>
        <time>2021-09-25T08:57:04.000Z</time>
      </trkpt>
      <trkpt lat="47.23838" lon="-1.34835">
        <ele>95</ele>
        <time>2021-09-25T08:57:06.000Z</time>
      </trkpt>
      <trkpt lat="47.23849" lon="-1.34835">
        <ele>95</ele>
        <time>2021-09-25T08:57:08.000Z</time>
      </trkpt>
      <trkpt lat="47.23859" lon="-1.34837">
        <ele>95</ele>
        <time>2021-09-25T08:57:10.000Z</time>
      </trkpt>
      <trkpt lat="47.23871" lon="-1.34838">
        <ele>94</ele>
        <time>2021-09-25T08:57:12.000Z</time>
      </trkpt>
      <trkpt lat="47.23882" lon="-1.34845">
        <ele>94</ele>
        <time>2021-09-25T08:57:14.000Z</time>
      </trkpt>
      <trkpt lat="47.23894" lon="-1.34855">
        <ele>94</ele>
        <time>2021-09-25T08:57:16.000Z</time>
      </trkpt>
      <trkpt lat="47.23906" lon="-1.34864">
        <ele>94</ele>
        <time>2021-09-25T08:57:18.000Z</time>
      </trkpt>
      <trkpt lat="47.23918" lon="-1.34874">
        <ele>94</ele>
        <time>2021-09-25T08:57:20.000Z</time>
      </trkpt>
      <trkpt lat="47.2393" lon="-1.34884">
        <ele>95</ele>
        <time>2021-09-25T08:57:22.000Z</time>
      </trkpt>
      <trkpt lat="47.23943" lon="-1.34892">
        <ele>95</ele>
        <time>2021-09-25T08:57:24.000Z</time>
      </trkpt>
      <trkpt lat="47.23955" lon="-1.349">
        <ele>95</ele>
        <time>2021-09-25T08:57:26.000Z</time>
      </trkpt>
      <trkpt lat="47.23968" lon="-1.34907">
        <ele>95</ele>
        <time>2021-09-25T08:57:28.000Z</time>
      </trkpt>
      <trkpt lat="47.23981" lon="-1.34913">
        <ele>95</ele>
        <time>2021-09-25T08:57:30.000Z</time>
      </trkpt>
      <trkpt lat="47.23993" lon="-1.34916">
        <ele>96</ele>
        <time>2021-09-25T08:57:32.000Z</time>
      </trkpt>
      <trkpt lat="47.24004" lon="-1.34907">
        <ele>96</ele>
        <time>2021-09-25T08:57:34.000Z</time>
      </trkpt>
      <trkpt lat="47.24009" lon="-1.34889">
        <ele>95</ele>
        <time>2021-09-25T08:57:36.000Z</time>
      </trkpt>
      <trkpt lat="47.24013" lon="-1.34869">
        <ele>96</ele>
        <time>2021-09-25T08:57:38.000Z</time>
      </trkpt>
      <trkpt lat="47.24017" lon="-1.34849">
        <ele>97</ele>
        <time>2021-09-25T08:57:40.000Z</time>
      </trkpt>
      <trkpt lat="47.24021" lon="-1.3483">
        <ele>97</ele>
        <time>2021-09-25T08:57:42.000Z</time>
      </trkpt>
      <trkpt lat="47.24025" lon="-1.3481">
        <ele>97</ele>
        <time>2021-09-25T08:57:44.000Z</time>
      </trkpt>
      <trkpt lat="47.24029" lon="-1.34791">
        <ele>96</ele>
        <time>2021-09-25T08:57:46.000Z</time>
      </trkpt>
      <trkpt lat="47.24033" lon="-1.34773">
        <ele>96</ele>
        <time>2021-09-25T08:57:48.000Z</time>
      </trkpt>
      <trkpt lat="47.24037" lon="-1.34755">
        <ele>96</ele>
        <time>2021-09-25T08:57:50.000Z</time>
      </trkpt>
      <trkpt lat="47.2404" lon="-1.34737">
        <ele>96</ele>
        <time>2021-09-25T08:57:52.000Z</time>
      </trkpt>
      <trkpt lat="47.24043" lon="-1.34718">
        <ele>96</ele>
        <time>2021-09-25T08:57:54.000Z</time>
      </trkpt>
      <trkpt lat="47.24047" lon="-1.347">
        <ele>96</ele>
        <time>2021-09-25T08:57:56.000Z</time>
      </trkpt>
      <trkpt lat="47.24054" lon="-1.34688">
        <ele>96</ele>
        <time>2021-09-25T08:57:58.000Z</time>
      </trkpt>
      <trkpt lat="47.24067" lon="-1.34684">
        <ele>96</ele>
        <time>2021-09-25T08:58:00.000Z</time>
      </trkpt>
      <trkpt lat="47.24079" lon="-1.34679">
        <ele>96</ele>
        <time>2021-09-25T08:58:02.000Z</time>
      </trkpt>
      <trkpt lat="47.24091" lon="-1.34673">
        <ele>96</ele>
        <time>2021-09-25T08:58:04.000Z</time>
      </trkpt>
      <trkpt lat="47.24102" lon="-1.34668">
        <ele>96</ele>
        <time>2021-09-25T08:58:06.000Z</time>
      </trkpt>
      <trkpt lat="47.24113" lon="-1.34662">
        <ele>96</ele>
        <time>2021-09-25T08:58:08.000Z</time>
      </trkpt>
      <trkpt lat="47.24124" lon="-1.34656">
        <ele>97</ele>
        <time>2021-09-25T08:58:10.000Z</time>
      </trkpt>
      <trkpt lat="47.24135" lon="-1.34649">
        <ele>97</ele>
        <time>2021-09-25T08:58:12.000Z</time>
      </trkpt>
      <trkpt lat="47.24146" lon="-1.34641">
        <ele>97</ele>
        <time>2021-09-25T08:58:14.000Z</time>
      </trkpt>
      <trkpt lat="47.24158" lon="-1.34633">
        <ele>98</ele>
        <time>2021-09-25T08:58:16.000Z</time>
      </trkpt>
      <trkpt lat="47.24169" lon="-1.34627">
        <ele>98</ele>
        <time>2021-09-25T08:58:18.000Z</time>
      </trkpt>
      <trkpt lat="47.2418" lon="-1.3462">
        <ele>98</ele>
        <time>2021-09-25T08:58:20.000Z</time>
      </trkpt>
      <trkpt lat="47.24192" lon="-1.34613">
        <ele>98</ele>
        <time>2021-09-25T08:58:22.000Z</time>
      </trkpt>
      <trkpt lat="47.24203" lon="-1.34605">
        <ele>99</ele>
        <time>2021-09-25T08:58:24.000Z</time>
      </trkpt>
      <trkpt lat="47.24214" lon="-1.34599">
        <ele>99</ele>
        <time>2021-09-25T08:58:26.000Z</time>
      </trkpt>
      <trkpt lat="47.24225" lon="-1.34593">
        <ele>99</ele>
        <time>2021-09-25T08:58:28.000Z</time>
      </trkpt>
      <trkpt lat="47.24237" lon="-1.34588">
        <ele>100</ele>
        <time>2021-09-25T08:58:30.000Z</time>
      </trkpt>
      <trkpt lat="47.24248" lon="-1.34584">
        <ele>100</ele>
        <time>2021-09-25T08:58:32.000Z</time>
      </trkpt>
      <trkpt lat="47.24259" lon="-1.34581">
        <ele>100</ele>
        <time>2021-09-25T08:58:34.000Z</time>
      </trkpt>
      <trkpt lat="47.2427" lon="-1.34578">
        <ele>101</ele>
        <time>2021-09-25T08:58:36.000Z</time>
      </trkpt>
      <trkpt lat="47.24281" lon="-1.34578">
        <ele>101</ele>
        <time>2021-09-25T08:58:38.000Z</time>
      </trkpt>
      <trkpt lat="47.24293" lon="-1.34577">
        <ele>101</ele>
        <time>2021-09-25T08:58:40.000Z</time>
      </trkpt>
      <trkpt lat="47.24304" lon="-1.34577">
        <ele>101</ele>
        <time>2021-09-25T08:58:42.000Z</time>
      </trkpt>
      <trkpt lat="47.24315" lon="-1.34578">
        <ele>101</ele>
        <time>2021-09-25T08:58:44.000Z</time>
      </trkpt>
      <trkpt lat="47.24325" lon="-1.34579">
        <ele>102</ele>
        <time>2021-09-25T08:58:46.000Z</time>
      </trkpt>
      <trkpt lat="47.24336" lon="-1.34579">
        <ele>102</ele>
        <time>2021-09-25T08:58:48.000Z</time>
      </trkpt>
      <trkpt lat="47.24347" lon="-1.34581">
        <ele>102</ele>
        <time>2021-09-25T08:58:50.000Z</time>
      </trkpt>
      <trkpt lat="47.24357" lon="-1.34582">
        <ele>103</ele>
        <time>2021-09-25T08:58:52.000Z</time>
      </trkpt>
      <trkpt lat="47.24368" lon="-1.34583">
        <ele>103</ele>
        <time>2021-09-25T08:58:54.000Z</time>
      </trkpt>
      <trkpt lat="47.24379" lon="-1.34584">
        <ele>103</ele>
        <time>2021-09-25T08:58:56.000Z</time>
      </trkpt>
      <trkpt lat="47.2439" lon="-1.34584">
        <ele>103</ele>
        <time>2021-09-25T08:58:58.000Z</time>
      </trkpt>
      <trkpt lat="47.24401" lon="-1.34585">
        <ele>104</ele>
        <time>2021-09-25T08:59:00.000Z</time>
      </trkpt>
      <trkpt lat="47.24412" lon="-1.34587">
        <ele>104</ele>
        <time>2021-09-25T08:59:02.000Z</time>
      </trkpt>
      <trkpt lat="47.24422" lon="-1.3459">
        <ele>105</ele>
        <time>2021-09-25T08:59:04.000Z</time>
      </trkpt>
      <trkpt lat="47.24433" lon="-1.34592">
        <ele>105</ele>
        <time>2021-09-25T08:59:06.000Z</time>
      </trkpt>
      <trkpt lat="47.24445" lon="-1.34594">
        <ele>105</ele>
        <time>2021-09-25T08:59:08.000Z</time>
      </trkpt>
      <trkpt lat="47.24456" lon="-1.34596">
        <ele>105</ele>
        <time>2021-09-25T08:59:10.000Z</time>
      </trkpt>
      <trkpt lat="47.24467" lon="-1.346">
        <ele>105</ele>
        <time>2021-09-25T08:59:12.000Z</time>
      </trkpt>
      <trkpt lat="47.24478" lon="-1.34603">
        <ele>105</ele>
        <time>2021-09-25T08:59:14.000Z</time>
      </trkpt>
      <trkpt lat="47.24489" lon="-1.34607">
        <ele>105</ele>
        <time>2021-09-25T08:59:16.000Z</time>
      </trkpt>
      <trkpt lat="47.245" lon="-1.34611">
        <ele>105</ele>
        <time>2021-09-25T08:59:18.000Z</time>
      </trkpt>
      <trkpt lat="47.24511" lon="-1.34615">
        <ele>105</ele>
        <time>2021-09-25T08:59:20.000Z</time>
      </trkpt>
      <trkpt lat="47.24522" lon="-1.34618">
        <ele>105</ele>
        <time>2021-09-25T08:59:22.000Z</time>
      </trkpt>
      <trkpt lat="47.24533" lon="-1.3462">
        <ele>105</ele>
        <time>2021-09-25T08:59:24.000Z</time>
      </trkpt>
      <trkpt lat="47.24545" lon="-1.3462">
        <ele>105</ele>
        <time>2021-09-25T08:59:26.000Z</time>
      </trkpt>
      <trkpt lat="47.24557" lon="-1.34619">
        <ele>105</ele>
        <time>2021-09-25T08:59:28.000Z</time>
      </trkpt>
      <trkpt lat="47.24568" lon="-1.34614">
        <ele>105</ele>
        <time>2021-09-25T08:59:30.000Z</time>
      </trkpt>
      <trkpt lat="47.2458" lon="-1.34609">
        <ele>105</ele>
        <time>2021-09-25T08:59:32.000Z</time>
      </trkpt>
      <trkpt lat="47.24592" lon="-1.34604">
        <ele>105</ele>
        <time>2021-09-25T08:59:34.000Z</time>
      </trkpt>
      <trkpt lat="47.24603" lon="-1.34599">
        <ele>105</ele>
        <time>2021-09-25T08:59:36.000Z</time>
      </trkpt>
      <trkpt lat="47.24614" lon="-1.34593">
        <ele>105</ele>
        <time>2021-09-25T08:59:38.000Z</time>
      </trkpt>
      <trkpt lat="47.24626" lon="-1.34587">
        <ele>105</ele>
        <time>2021-09-25T08:59:40.000Z</time>
      </trkpt>
      <trkpt lat="47.24638" lon="-1.34581">
        <ele>104</ele>
        <time>2021-09-25T08:59:42.000Z</time>
      </trkpt>
      <trkpt lat="47.24649" lon="-1.34576">
        <ele>104</ele>
        <time>2021-09-25T08:59:44.000Z</time>
      </trkpt>
      <trkpt lat="47.24662" lon="-1.34571">
        <ele>104</ele>
        <time>2021-09-25T08:59:46.000Z</time>
      </trkpt>
      <trkpt lat="47.24674" lon="-1.34565">
        <ele>104</ele>
        <time>2021-09-25T08:59:48.000Z</time>
      </trkpt>
      <trkpt lat="47.24685" lon="-1.34558">
        <ele>104</ele>
        <time>2021-09-25T08:59:50.000Z</time>
      </trkpt>
      <trkpt lat="47.24693" lon="-1.34545">
        <ele>104</ele>
        <time>2021-09-25T08:59:52.000Z</time>
      </trkpt>
      <trkpt lat="47.24703" lon="-1.34535">
        <ele>103</ele>
        <time>2021-09-25T08:59:54.000Z</time>
      </trkpt>
      <trkpt lat="47.24715" lon="-1.34533">
        <ele>103</ele>
        <time>2021-09-25T08:59:56.000Z</time>
      </trkpt>
      <trkpt lat="47.24729" lon="-1.34535">
        <ele>103</ele>
        <time>2021-09-25T08:59:58.000Z</time>
      </trkpt>
      <trkpt lat="47.24742" lon="-1.34532">
        <ele>103</ele>
        <time>2021-09-25T09:00:00.000Z</time>
      </trkpt>
      <trkpt lat="47.24754" lon="-1.34527">
        <ele>103</ele>
        <time>2021-09-25T09:00:02.000Z</time>
      </trkpt>
      <trkpt lat="47.24766" lon="-1.34522">
        <ele>104</ele>
        <time>2021-09-25T09:00:04.000Z</time>
      </trkpt>
      <trkpt lat="47.24778" lon="-1.34516">
        <ele>104</ele>
        <time>2021-09-25T09:00:06.000Z</time>
      </trkpt>
      <trkpt lat="47.2479" lon="-1.34511">
        <ele>104</ele>
        <time>2021-09-25T09:00:08.000Z</time>
      </trkpt>
      <trkpt lat="47.24801" lon="-1.34505">
        <ele>105</ele>
        <time>2021-09-25T09:00:10.000Z</time>
      </trkpt>
      <trkpt lat="47.24812" lon="-1.345">
        <ele>105</ele>
        <time>2021-09-25T09:00:12.000Z</time>
      </trkpt>
      <trkpt lat="47.24824" lon="-1.34494">
        <ele>106</ele>
        <time>2021-09-25T09:00:14.000Z</time>
      </trkpt>
      <trkpt lat="47.24835" lon="-1.34489">
        <ele>106</ele>
        <time>2021-09-25T09:00:16.000Z</time>
      </trkpt>
      <trkpt lat="47.24846" lon="-1.34484">
        <ele>106</ele>
        <time>2021-09-25T09:00:18.000Z</time>
      </trkpt>
      <trkpt lat="47.24858" lon="-1.34479">
        <ele>106</ele>
        <time>2021-09-25T09:00:20.000Z</time>
      </trkpt>
      <trkpt lat="47.24869" lon="-1.34473">
        <ele>106</ele>
        <time>2021-09-25T09:00:22.000Z</time>
      </trkpt>
      <trkpt lat="47.2488" lon="-1.34468">
        <ele>106</ele>
        <time>2021-09-25T09:00:24.000Z</time>
      </trkpt>
      <trkpt lat="47.24891" lon="-1.34463">
        <ele>106</ele>
        <time>2021-09-25T09:00:26.000Z</time>
      </trkpt>
      <trkpt lat="47.24902" lon="-1.34457">
        <ele>106</ele>
        <time>2021-09-25T09:00:28.000Z</time>
      </trkpt>
      <trkpt lat="47.24914" lon="-1.34451">
        <ele>106</ele>
        <time>2021-09-25T09:00:30.000Z</time>
      </trkpt>
      <trkpt lat="47.24926" lon="-1.34445">
        <ele>106</ele>
        <time>2021-09-25T09:00:32.000Z</time>
      </trkpt>
      <trkpt lat="47.24937" lon="-1.3444">
        <ele>106</ele>
        <time>2021-09-25T09:00:34.000Z</time>
      </trkpt>
      <trkpt lat="47.24949" lon="-1.34434">
        <ele>106</ele>
        <time>2021-09-25T09:00:36.000Z</time>
      </trkpt>
      <trkpt lat="47.24961" lon="-1.34429">
        <ele>107</ele>
        <time>2021-09-25T09:00:38.000Z</time>
      </trkpt>
      <trkpt lat="47.24972" lon="-1.34423">
        <ele>107</ele>
        <time>2021-09-25T09:00:40.000Z</time>
      </trkpt>
      <trkpt lat="47.24984" lon="-1.34417">
        <ele>107</ele>
        <time>2021-09-25T09:00:42.000Z</time>
      </trkpt>
      <trkpt lat="47.24996" lon="-1.34411">
        <ele>107</ele>
        <time>2021-09-25T09:00:44.000Z</time>
      </trkpt>
      <trkpt lat="47.25008" lon="-1.34405">
        <ele>107</ele>
        <time>2021-09-25T09:00:46.000Z</time>
      </trkpt>
      <trkpt lat="47.25019" lon="-1.344">
        <ele>107</ele>
        <time>2021-09-25T09:00:48.000Z</time>
      </trkpt>
      <trkpt lat="47.25031" lon="-1.34394">
        <ele>107</ele>
        <time>2021-09-25T09:00:50.000Z</time>
      </trkpt>
      <trkpt lat="47.25043" lon="-1.34388">
        <ele>107</ele>
        <time>2021-09-25T09:00:52.000Z</time>
      </trkpt>
      <trkpt lat="47.25055" lon="-1.34382">
        <ele>107</ele>
        <time>2021-09-25T09:00:54.000Z</time>
      </trkpt>
      <trkpt lat="47.25067" lon="-1.34375">
        <ele>106</ele>
        <time>2021-09-25T09:00:56.000Z</time>
      </trkpt>
      <trkpt lat="47.25078" lon="-1.34366">
        <ele>106</ele>
        <time>2021-09-25T09:00:58.000Z</time>
      </trkpt>
      <trkpt lat="47.2509" lon="-1.34358">
        <ele>106</ele>
        <time>2021-09-25T09:01:00.000Z</time>
      </trkpt>
      <trkpt lat="47.25101" lon="-1.3435">
        <ele>106</ele>
        <time>2021-09-25T09:01:02.000Z</time>
      </trkpt>
      <trkpt lat="47.25113" lon="-1.34343">
        <ele>106</ele>
        <time>2021-09-25T09:01:04.000Z</time>
      </trkpt>
      <trkpt lat="47.25125" lon="-1.34337">
        <ele>106</ele>
        <time>2021-09-25T09:01:06.000Z</time>
      </trkpt>
      <trkpt lat="47.25138" lon="-1.34333">
        <ele>106</ele>
        <time>2021-09-25T09:01:08.000Z</time>
      </trkpt>
      <trkpt lat="47.25152" lon="-1.3433">
        <ele>106</ele>
        <time>2021-09-25T09:01:10.000Z</time>
      </trkpt>
      <trkpt lat="47.25166" lon="-1.34326">
        <ele>106</ele>
        <time>2021-09-25T09:01:12.000Z</time>
      </trkpt>
      <trkpt lat="47.2518" lon="-1.34323">
        <ele>105</ele>
        <time>2021-09-25T09:01:14.000Z</time>
      </trkpt>
      <trkpt lat="47.25194" lon="-1.3432">
        <ele>105</ele>
        <time>2021-09-25T09:01:16.000Z</time>
      </trkpt>
      <trkpt lat="47.25215" lon="-1.34315">
        <ele>105</ele>
        <time>2021-09-25T09:01:19.000Z</time>
      </trkpt>
      <trkpt lat="47.25236" lon="-1.34311">
        <ele>105</ele>
        <time>2021-09-25T09:01:22.000Z</time>
      </trkpt>
      <trkpt lat="47.25257" lon="-1.34306">
        <ele>105</ele>
        <time>2021-09-25T09:01:25.000Z</time>
      </trkpt>
      <trkpt lat="47.25279" lon="-1.34302">
        <ele>104</ele>
        <time>2021-09-25T09:01:28.000Z</time>
      </trkpt>
      <trkpt lat="47.253" lon="-1.34298">
        <ele>104</ele>
        <time>2021-09-25T09:01:31.000Z</time>
      </trkpt>
      <trkpt lat="47.25315" lon="-1.34295">
        <ele>103</ele>
        <time>2021-09-25T09:01:33.000Z</time>
      </trkpt>
      <trkpt lat="47.25338" lon="-1.34291">
        <ele>102</ele>
        <time>2021-09-25T09:01:36.000Z</time>
      </trkpt>
      <trkpt lat="47.25352" lon="-1.34288">
        <ele>102</ele>
        <time>2021-09-25T09:01:38.000Z</time>
      </trkpt>
      <trkpt lat="47.25367" lon="-1.34285">
        <ele>102</ele>
        <time>2021-09-25T09:01:40.000Z</time>
      </trkpt>
      <trkpt lat="47.25382" lon="-1.34282">
        <ele>101</ele>
        <time>2021-09-25T09:01:42.000Z</time>
      </trkpt>
      <trkpt lat="47.25396" lon="-1.34278">
        <ele>101</ele>
        <time>2021-09-25T09:01:44.000Z</time>
      </trkpt>
      <trkpt lat="47.25412" lon="-1.34275">
        <ele>101</ele>
        <time>2021-09-25T09:01:46.000Z</time>
      </trkpt>
      <trkpt lat="47.25428" lon="-1.34272">
        <ele>100</ele>
        <time>2021-09-25T09:01:48.000Z</time>
      </trkpt>
      <trkpt lat="47.25445" lon="-1.34269">
        <ele>100</ele>
        <time>2021-09-25T09:01:50.000Z</time>
      </trkpt>
      <trkpt lat="47.25461" lon="-1.34266">
        <ele>100</ele>
        <time>2021-09-25T09:01:52.000Z</time>
      </trkpt>
      <trkpt lat="47.25477" lon="-1.34265">
        <ele>100</ele>
        <time>2021-09-25T09:01:54.000Z</time>
      </trkpt>
      <trkpt lat="47.25494" lon="-1.34265">
        <ele>99</ele>
        <time>2021-09-25T09:01:56.000Z</time>
      </trkpt>
      <trkpt lat="47.2551" lon="-1.34268">
        <ele>99</ele>
        <time>2021-09-25T09:01:58.000Z</time>
      </trkpt>
      <trkpt lat="47.25526" lon="-1.34273">
        <ele>99</ele>
        <time>2021-09-25T09:02:00.000Z</time>
      </trkpt>
      <trkpt lat="47.25542" lon="-1.3428">
        <ele>99</ele>
        <time>2021-09-25T09:02:02.000Z</time>
      </trkpt>
      <trkpt lat="47.25557" lon="-1.34286">
        <ele>99</ele>
        <time>2021-09-25T09:02:04.000Z</time>
      </trkpt>
      <trkpt lat="47.25573" lon="-1.34293">
        <ele>99</ele>
        <time>2021-09-25T09:02:06.000Z</time>
      </trkpt>
      <trkpt lat="47.25588" lon="-1.34299">
        <ele>99</ele>
        <time>2021-09-25T09:02:08.000Z</time>
      </trkpt>
      <trkpt lat="47.25603" lon="-1.34306">
        <ele>99</ele>
        <time>2021-09-25T09:02:10.000Z</time>
      </trkpt>
      <trkpt lat="47.25618" lon="-1.34312">
        <ele>99</ele>
        <time>2021-09-25T09:02:12.000Z</time>
      </trkpt>
      <trkpt lat="47.25633" lon="-1.34317">
        <ele>99</ele>
        <time>2021-09-25T09:02:14.000Z</time>
      </trkpt>
      <trkpt lat="47.25648" lon="-1.34321">
        <ele>100</ele>
        <time>2021-09-25T09:02:16.000Z</time>
      </trkpt>
      <trkpt lat="47.25663" lon="-1.34322">
        <ele>100</ele>
        <time>2021-09-25T09:02:18.000Z</time>
      </trkpt>
      <trkpt lat="47.25678" lon="-1.34322">
        <ele>100</ele>
        <time>2021-09-25T09:02:20.000Z</time>
      </trkpt>
      <trkpt lat="47.25692" lon="-1.34322">
        <ele>100</ele>
        <time>2021-09-25T09:02:22.000Z</time>
      </trkpt>
      <trkpt lat="47.25706" lon="-1.34321">
        <ele>100</ele>
        <time>2021-09-25T09:02:24.000Z</time>
      </trkpt>
      <trkpt lat="47.25719" lon="-1.34319">
        <ele>100</ele>
        <time>2021-09-25T09:02:26.000Z</time>
      </trkpt>
      <trkpt lat="47.25733" lon="-1.34318">
        <ele>100</ele>
        <time>2021-09-25T09:02:28.000Z</time>
      </trkpt>
      <trkpt lat="47.25746" lon="-1.34317">
        <ele>100</ele>
        <time>2021-09-25T09:02:30.000Z</time>
      </trkpt>
      <trkpt lat="47.25758" lon="-1.34314">
        <ele>100</ele>
        <time>2021-09-25T09:02:32.000Z</time>
      </trkpt>
      <trkpt lat="47.25771" lon="-1.34312">
        <ele>100</ele>
        <time>2021-09-25T09:02:34.000Z</time>
      </trkpt>
      <trkpt lat="47.25784" lon="-1.34309">
        <ele>100</ele>
        <time>2021-09-25T09:02:36.000Z</time>
      </trkpt>
      <trkpt lat="47.25796" lon="-1.34306">
        <ele>100</ele>
        <time>2021-09-25T09:02:38.000Z</time>
      </trkpt>
      <trkpt lat="47.25809" lon="-1.34304">
        <ele>100</ele>
        <time>2021-09-25T09:02:40.000Z</time>
      </trkpt>
      <trkpt lat="47.25822" lon="-1.34302">
        <ele>99</ele>
        <time>2021-09-25T09:02:42.000Z</time>
      </trkpt>
      <trkpt lat="47.25835" lon="-1.34301">
        <ele>99</ele>
        <time>2021-09-25T09:02:44.000Z</time>
      </trkpt>
      <trkpt lat="47.25848" lon="-1.34302">
        <ele>99</ele>
        <time>2021-09-25T09:02:46.000Z</time>
      </trkpt>
      <trkpt lat="47.25861" lon="-1.34304">
        <ele>99</ele>
        <time>2021-09-25T09:02:48.000Z</time>
      </trkpt>
      <trkpt lat="47.25874" lon="-1.34307">
        <ele>99</ele>
        <time>2021-09-25T09:02:50.000Z</time>
      </trkpt>
      <trkpt lat="47.25888" lon="-1.3431">
        <ele>99</ele>
        <time>2021-09-25T09:02:52.000Z</time>
      </trkpt>
      <trkpt lat="47.25902" lon="-1.34313">
        <ele>98</ele>
        <time>2021-09-25T09:02:54.000Z</time>
      </trkpt>
      <trkpt lat="47.25915" lon="-1.34316">
        <ele>98</ele>
        <time>2021-09-25T09:02:56.000Z</time>
      </trkpt>
      <trkpt lat="47.2593" lon="-1.34317">
        <ele>98</ele>
        <time>2021-09-25T09:02:58.000Z</time>
      </trkpt>
      <trkpt lat="47.25944" lon="-1.34319">
        <ele>97</ele>
        <time>2021-09-25T09:03:00.000Z</time>
      </trkpt>
      <trkpt lat="47.25959" lon="-1.3432">
        <ele>97</ele>
        <time>2021-09-25T09:03:02.000Z</time>
      </trkpt>
      <trkpt lat="47.25974" lon="-1.34319">
        <ele>97</ele>
        <time>2021-09-25T09:03:04.000Z</time>
      </trkpt>
      <trkpt lat="47.25988" lon="-1.34318">
        <ele>96</ele>
        <time>2021-09-25T09:03:06.000Z</time>
      </trkpt>
      <trkpt lat="47.26004" lon="-1.34318">
        <ele>96</ele>
        <time>2021-09-25T09:03:08.000Z</time>
      </trkpt>
      <trkpt lat="47.26019" lon="-1.34318">
        <ele>95</ele>
        <time>2021-09-25T09:03:10.000Z</time>
      </trkpt>
      <trkpt lat="47.26034" lon="-1.34317">
        <ele>95</ele>
        <time>2021-09-25T09:03:12.000Z</time>
      </trkpt>
      <trkpt lat="47.2605" lon="-1.34315">
        <ele>94</ele>
        <time>2021-09-25T09:03:14.000Z</time>
      </trkpt>
      <trkpt lat="47.26066" lon="-1.34315">
        <ele>93</ele>
        <time>2021-09-25T09:03:16.000Z</time>
      </trkpt>
      <trkpt lat="47.26081" lon="-1.34313">
        <ele>93</ele>
        <time>2021-09-25T09:03:18.000Z</time>
      </trkpt>
      <trkpt lat="47.26098" lon="-1.34311">
        <ele>93</ele>
        <time>2021-09-25T09:03:20.000Z</time>
      </trkpt>
      <trkpt lat="47.26113" lon="-1.34308">
        <ele>92</ele>
        <time>2021-09-25T09:03:22.000Z</time>
      </trkpt>
      <trkpt lat="47.26129" lon="-1.34303">
        <ele>92</ele>
        <time>2021-09-25T09:03:24.000Z</time>
      </trkpt>
      <trkpt lat="47.26145" lon="-1.34299">
        <ele>92</ele>
        <time>2021-09-25T09:03:26.000Z</time>
      </trkpt>
      <trkpt lat="47.26161" lon="-1.34294">
        <ele>91</ele>
        <time>2021-09-25T09:03:28.000Z</time>
      </trkpt>
      <trkpt lat="47.26177" lon="-1.34289">
        <ele>90</ele>
        <time>2021-09-25T09:03:30.000Z</time>
      </trkpt>
      <trkpt lat="47.26193" lon="-1.34284">
        <ele>89</ele>
        <time>2021-09-25T09:03:32.000Z</time>
      </trkpt>
      <trkpt lat="47.2621" lon="-1.3428">
        <ele>89</ele>
        <time>2021-09-25T09:03:34.000Z</time>
      </trkpt>
      <trkpt lat="47.26226" lon="-1.34276">
        <ele>88</ele>
        <time>2021-09-25T09:03:36.000Z</time>
      </trkpt>
      <trkpt lat="47.26242" lon="-1.34272">
        <ele>88</ele>
        <time>2021-09-25T09:03:38.000Z</time>
      </trkpt>
      <trkpt lat="47.26257" lon="-1.34268">
        <ele>88</ele>
        <time>2021-09-25T09:03:40.000Z</time>
      </trkpt>
      <trkpt lat="47.26273" lon="-1.34265">
        <ele>87</ele>
        <time>2021-09-25T09:03:42.000Z</time>
      </trkpt>
      <trkpt lat="47.26288" lon="-1.34259">
        <ele>86</ele>
        <time>2021-09-25T09:03:44.000Z</time>
      </trkpt>
      <trkpt lat="47.26303" lon="-1.34257">
        <ele>86</ele>
        <time>2021-09-25T09:03:46.000Z</time>
      </trkpt>
      <trkpt lat="47.26318" lon="-1.34259">
        <ele>85</ele>
        <time>2021-09-25T09:03:48.000Z</time>
      </trkpt>
      <trkpt lat="47.26333" lon="-1.34258">
        <ele>85</ele>
        <time>2021-09-25T09:03:50.000Z</time>
      </trkpt>
      <trkpt lat="47.26348" lon="-1.34258">
        <ele>84</ele>
        <time>2021-09-25T09:03:52.000Z</time>
      </trkpt>
      <trkpt lat="47.26364" lon="-1.34257">
        <ele>83</ele>
        <time>2021-09-25T09:03:54.000Z</time>
      </trkpt>
      <trkpt lat="47.26381" lon="-1.34255">
        <ele>83</ele>
        <time>2021-09-25T09:03:56.000Z</time>
      </trkpt>
      <trkpt lat="47.26397" lon="-1.34254">
        <ele>83</ele>
        <time>2021-09-25T09:03:58.000Z</time>
      </trkpt>
      <trkpt lat="47.26412" lon="-1.34252">
        <ele>83</ele>
        <time>2021-09-25T09:04:00.000Z</time>
      </trkpt>
      <trkpt lat="47.26428" lon="-1.34252">
        <ele>82</ele>
        <time>2021-09-25T09:04:02.000Z</time>
      </trkpt>
      <trkpt lat="47.26444" lon="-1.34252">
        <ele>81</ele>
        <time>2021-09-25T09:04:04.000Z</time>
      </trkpt>
      <trkpt lat="47.26458" lon="-1.34255">
        <ele>81</ele>
        <time>2021-09-25T09:04:06.000Z</time>
      </trkpt>
      <trkpt lat="47.2647" lon="-1.3425">
        <ele>81</ele>
        <time>2021-09-25T09:04:09.000Z</time>
      </trkpt>
      <trkpt lat="47.26477" lon="-1.34241">
        <ele>81</ele>
        <time>2021-09-25T09:04:11.000Z</time>
      </trkpt>
      <trkpt lat="47.26487" lon="-1.34227">
        <ele>81</ele>
        <time>2021-09-25T09:04:14.000Z</time>
      </trkpt>
      <trkpt lat="47.26494" lon="-1.34217">
        <ele>81</ele>
        <time>2021-09-25T09:04:16.000Z</time>
      </trkpt>
      <trkpt lat="47.265" lon="-1.34203">
        <ele>82</ele>
        <time>2021-09-25T09:04:19.000Z</time>
      </trkpt>
      <trkpt lat="47.26498" lon="-1.34189">
        <ele>83</ele>
        <time>2021-09-25T09:04:22.000Z</time>
      </trkpt>
      <trkpt lat="47.26507" lon="-1.34176">
        <ele>83</ele>
        <time>2021-09-25T09:04:25.000Z</time>
      </trkpt>
      <trkpt lat="47.26511" lon="-1.34162">
        <ele>83</ele>
        <time>2021-09-25T09:04:27.000Z</time>
      </trkpt>
      <trkpt lat="47.26516" lon="-1.34147">
        <ele>83</ele>
        <time>2021-09-25T09:04:29.000Z</time>
      </trkpt>
      <trkpt lat="47.26521" lon="-1.34133">
        <ele>83</ele>
        <time>2021-09-25T09:04:31.000Z</time>
      </trkpt>
      <trkpt lat="47.26526" lon="-1.34118">
        <ele>83</ele>
        <time>2021-09-25T09:04:33.000Z</time>
      </trkpt>
      <trkpt lat="47.26531" lon="-1.34104">
        <ele>83</ele>
        <time>2021-09-25T09:04:35.000Z</time>
      </trkpt>
      <trkpt lat="47.26535" lon="-1.34089">
        <ele>83</ele>
        <time>2021-09-25T09:04:37.000Z</time>
      </trkpt>
      <trkpt lat="47.26538" lon="-1.34073">
        <ele>83</ele>
        <time>2021-09-25T09:04:39.000Z</time>
      </trkpt>
      <trkpt lat="47.26539" lon="-1.34059">
        <ele>83</ele>
        <time>2021-09-25T09:04:41.000Z</time>
      </trkpt>
      <trkpt lat="47.26538" lon="-1.34045">
        <ele>83</ele>
        <time>2021-09-25T09:04:43.000Z</time>
      </trkpt>
      <trkpt lat="47.26536" lon="-1.34031">
        <ele>84</ele>
        <time>2021-09-25T09:04:45.000Z</time>
      </trkpt>
      <trkpt lat="47.26533" lon="-1.34015">
        <ele>85</ele>
        <time>2021-09-25T09:04:47.000Z</time>
      </trkpt>
      <trkpt lat="47.26531" lon="-1.34">
        <ele>86</ele>
        <time>2021-09-25T09:04:49.000Z</time>
      </trkpt>
      <trkpt lat="47.2653" lon="-1.33985">
        <ele>86</ele>
        <time>2021-09-25T09:04:51.000Z</time>
      </trkpt>
      <trkpt lat="47.26532" lon="-1.33969">
        <ele>87</ele>
        <time>2021-09-25T09:04:53.000Z</time>
      </trkpt>
      <trkpt lat="47.26536" lon="-1.33955">
        <ele>86</ele>
        <time>2021-09-25T09:04:55.000Z</time>
      </trkpt>
      <trkpt lat="47.26536" lon="-1.33941">
        <ele>86</ele>
        <time>2021-09-25T09:04:57.000Z</time>
      </trkpt>
      <trkpt lat="47.26543" lon="-1.33926">
        <ele>86</ele>
        <time>2021-09-25T09:05:00.000Z</time>
      </trkpt>
      <trkpt lat="47.26553" lon="-1.33924">
        <ele>86</ele>
        <time>2021-09-25T09:05:02.000Z</time>
      </trkpt>
      <trkpt lat="47.26563" lon="-1.33923">
        <ele>87</ele>
        <time>2021-09-25T09:05:04.000Z</time>
      </trkpt>
      <trkpt lat="47.26573" lon="-1.33926">
        <ele>87</ele>
        <time>2021-09-25T09:05:06.000Z</time>
      </trkpt>
      <trkpt lat="47.2658" lon="-1.33934">
        <ele>88</ele>
        <time>2021-09-25T09:05:08.000Z</time>
      </trkpt>
      <trkpt lat="47.26588" lon="-1.33942">
        <ele>88</ele>
        <time>2021-09-25T09:05:10.000Z</time>
      </trkpt>
      <trkpt lat="47.26597" lon="-1.33946">
        <ele>88</ele>
        <time>2021-09-25T09:05:12.000Z</time>
      </trkpt>
      <trkpt lat="47.26606" lon="-1.33946">
        <ele>89</ele>
        <time>2021-09-25T09:05:14.000Z</time>
      </trkpt>
      <trkpt lat="47.26616" lon="-1.33944">
        <ele>89</ele>
        <time>2021-09-25T09:05:16.000Z</time>
      </trkpt>
      <trkpt lat="47.26626" lon="-1.33943">
        <ele>90</ele>
        <time>2021-09-25T09:05:18.000Z</time>
      </trkpt>
      <trkpt lat="47.26636" lon="-1.33941">
        <ele>90</ele>
        <time>2021-09-25T09:05:20.000Z</time>
      </trkpt>
      <trkpt lat="47.26646" lon="-1.3394">
        <ele>90</ele>
        <time>2021-09-25T09:05:22.000Z</time>
      </trkpt>
      <trkpt lat="47.26655" lon="-1.33938">
        <ele>91</ele>
        <time>2021-09-25T09:05:24.000Z</time>
      </trkpt>
      <trkpt lat="47.26663" lon="-1.33933">
        <ele>91</ele>
        <time>2021-09-25T09:05:26.000Z</time>
      </trkpt>
      <trkpt lat="47.2667" lon="-1.33924">
        <ele>91</ele>
        <time>2021-09-25T09:05:28.000Z</time>
      </trkpt>
      <trkpt lat="47.26674" lon="-1.33904">
        <ele>91</ele>
        <time>2021-09-25T09:05:31.000Z</time>
      </trkpt>
      <trkpt lat="47.2668" lon="-1.33895">
        <ele>92</ele>
        <time>2021-09-25T09:05:33.000Z</time>
      </trkpt>
      <trkpt lat="47.26691" lon="-1.33894">
        <ele>92</ele>
        <time>2021-09-25T09:05:35.000Z</time>
      </trkpt>
      <trkpt lat="47.26701" lon="-1.33892">
        <ele>93</ele>
        <time>2021-09-25T09:05:37.000Z</time>
      </trkpt>
      <trkpt lat="47.26711" lon="-1.33892">
        <ele>93</ele>
        <time>2021-09-25T09:05:39.000Z</time>
      </trkpt>
      <trkpt lat="47.26721" lon="-1.33891">
        <ele>94</ele>
        <time>2021-09-25T09:05:41.000Z</time>
      </trkpt>
      <trkpt lat="47.26731" lon="-1.3389">
        <ele>95</ele>
        <time>2021-09-25T09:05:43.000Z</time>
      </trkpt>
      <trkpt lat="47.26741" lon="-1.33889">
        <ele>95</ele>
        <time>2021-09-25T09:05:45.000Z</time>
      </trkpt>
      <trkpt lat="47.2675" lon="-1.33889">
        <ele>95</ele>
        <time>2021-09-25T09:05:47.000Z</time>
      </trkpt>
      <trkpt lat="47.26762" lon="-1.33885">
        <ele>96</ele>
        <time>2021-09-25T09:05:50.000Z</time>
      </trkpt>
      <trkpt lat="47.2677" lon="-1.33871">
        <ele>98</ele>
        <time>2021-09-25T09:05:53.000Z</time>
      </trkpt>
      <trkpt lat="47.26773" lon="-1.33857">
        <ele>98</ele>
        <time>2021-09-25T09:05:55.000Z</time>
      </trkpt>
      <trkpt lat="47.26775" lon="-1.33841">
        <ele>98</ele>
        <time>2021-09-25T09:05:57.000Z</time>
      </trkpt>
      <trkpt lat="47.26777" lon="-1.33826">
        <ele>98</ele>
        <time>2021-09-25T09:05:59.000Z</time>
      </trkpt>
      <trkpt lat="47.2678" lon="-1.33811">
        <ele>99</ele>
        <time>2021-09-25T09:06:01.000Z</time>
      </trkpt>
      <trkpt lat="47.26783" lon="-1.33796">
        <ele>99</ele>
        <time>2021-09-25T09:06:03.000Z</time>
      </trkpt>
      <trkpt lat="47.26787" lon="-1.33781">
        <ele>99</ele>
        <time>2021-09-25T09:06:05.000Z</time>
      </trkpt>
      <trkpt lat="47.26791" lon="-1.33766">
        <ele>99</ele>
        <time>2021-09-25T09:06:07.000Z</time>
      </trkpt>
      <trkpt lat="47.26793" lon="-1.33752">
        <ele>99</ele>
        <time>2021-09-25T09:06:09.000Z</time>
      </trkpt>
      <trkpt lat="47.26797" lon="-1.33737">
        <ele>99</ele>
        <time>2021-09-25T09:06:11.000Z</time>
      </trkpt>
      <trkpt lat="47.26801" lon="-1.33722">
        <ele>99</ele>
        <time>2021-09-25T09:06:13.000Z</time>
      </trkpt>
      <trkpt lat="47.26804" lon="-1.33707">
        <ele>100</ele>
        <time>2021-09-25T09:06:15.000Z</time>
      </trkpt>
      <trkpt lat="47.26807" lon="-1.33692">
        <ele>100</ele>
        <time>2021-09-25T09:06:17.000Z</time>
      </trkpt>
      <trkpt lat="47.26811" lon="-1.33677">
        <ele>100</ele>
        <time>2021-09-25T09:06:19.000Z</time>
      </trkpt>
      <trkpt lat="47.26814" lon="-1.33661">
        <ele>101</ele>
        <time>2021-09-25T09:06:21.000Z</time>
      </trkpt>
      <trkpt lat="47.26818" lon="-1.33646">
        <ele>100</ele>
        <time>2021-09-25T09:06:23.000Z</time>
      </trkpt>
      <trkpt lat="47.26821" lon="-1.33632">
        <ele>100</ele>
        <time>2021-09-25T09:06:25.000Z</time>
      </trkpt>
      <trkpt lat="47.26824" lon="-1.33616">
        <ele>100</ele>
        <time>2021-09-25T09:06:27.000Z</time>
      </trkpt>
      <trkpt lat="47.26828" lon="-1.33601">
        <ele>101</ele>
        <time>2021-09-25T09:06:29.000Z</time>
      </trkpt>
      <trkpt lat="47.26831" lon="-1.33585">
        <ele>101</ele>
        <time>2021-09-25T09:06:31.000Z</time>
      </trkpt>
      <trkpt lat="47.26835" lon="-1.33569">
        <ele>101</ele>
        <time>2021-09-25T09:06:33.000Z</time>
      </trkpt>
      <trkpt lat="47.26838" lon="-1.33553">
        <ele>102</ele>
        <time>2021-09-25T09:06:35.000Z</time>
      </trkpt>
      <trkpt lat="47.26842" lon="-1.33538">
        <ele>102</ele>
        <time>2021-09-25T09:06:37.000Z</time>
      </trkpt>
      <trkpt lat="47.26846" lon="-1.33523">
        <ele>102</ele>
        <time>2021-09-25T09:06:39.000Z</time>
      </trkpt>
      <trkpt lat="47.2685" lon="-1.33508">
        <ele>102</ele>
        <time>2021-09-25T09:06:41.000Z</time>
      </trkpt>
      <trkpt lat="47.26853" lon="-1.33493">
        <ele>102</ele>
        <time>2021-09-25T09:06:43.000Z</time>
      </trkpt>
      <trkpt lat="47.26857" lon="-1.33477">
        <ele>102</ele>
        <time>2021-09-25T09:06:45.000Z</time>
      </trkpt>
      <trkpt lat="47.26861" lon="-1.33463">
        <ele>102</ele>
        <time>2021-09-25T09:06:47.000Z</time>
      </trkpt>
      <trkpt lat="47.26866" lon="-1.33447">
        <ele>103</ele>
        <time>2021-09-25T09:06:49.000Z</time>
      </trkpt>
      <trkpt lat="47.26871" lon="-1.33431">
        <ele>103</ele>
        <time>2021-09-25T09:06:51.000Z</time>
      </trkpt>
      <trkpt lat="47.26878" lon="-1.33416">
        <ele>103</ele>
        <time>2021-09-25T09:06:53.000Z</time>
      </trkpt>
      <trkpt lat="47.26885" lon="-1.33403">
        <ele>103</ele>
        <time>2021-09-25T09:06:55.000Z</time>
      </trkpt>
      <trkpt lat="47.26891" lon="-1.3339">
        <ele>103</ele>
        <time>2021-09-25T09:06:57.000Z</time>
      </trkpt>
      <trkpt lat="47.26894" lon="-1.33372">
        <ele>103</ele>
        <time>2021-09-25T09:06:59.000Z</time>
      </trkpt>
      <trkpt lat="47.269" lon="-1.33357">
        <ele>103</ele>
        <time>2021-09-25T09:07:01.000Z</time>
      </trkpt>
      <trkpt lat="47.26909" lon="-1.33347">
        <ele>103</ele>
        <time>2021-09-25T09:07:03.000Z</time>
      </trkpt>
      <trkpt lat="47.26921" lon="-1.33341">
        <ele>103</ele>
        <time>2021-09-25T09:07:05.000Z</time>
      </trkpt>
      <trkpt lat="47.26932" lon="-1.33334">
        <ele>104</ele>
        <time>2021-09-25T09:07:07.000Z</time>
      </trkpt>
      <trkpt lat="47.26943" lon="-1.33324">
        <ele>104</ele>
        <time>2021-09-25T09:07:09.000Z</time>
      </trkpt>
      <trkpt lat="47.26954" lon="-1.33314">
        <ele>104</ele>
        <time>2021-09-25T09:07:11.000Z</time>
      </trkpt>
      <trkpt lat="47.26966" lon="-1.33305">
        <ele>104</ele>
        <time>2021-09-25T09:07:13.000Z</time>
      </trkpt>
      <trkpt lat="47.26977" lon="-1.33298">
        <ele>104</ele>
        <time>2021-09-25T09:07:15.000Z</time>
      </trkpt>
      <trkpt lat="47.26989" lon="-1.33291">
        <ele>104</ele>
        <time>2021-09-25T09:07:17.000Z</time>
      </trkpt>
      <trkpt lat="47.27002" lon="-1.33286">
        <ele>104</ele>
        <time>2021-09-25T09:07:19.000Z</time>
      </trkpt>
      <trkpt lat="47.27015" lon="-1.3328">
        <ele>104</ele>
        <time>2021-09-25T09:07:21.000Z</time>
      </trkpt>
      <trkpt lat="47.27027" lon="-1.33274">
        <ele>104</ele>
        <time>2021-09-25T09:07:23.000Z</time>
      </trkpt>
      <trkpt lat="47.2704" lon="-1.33269">
        <ele>104</ele>
        <time>2021-09-25T09:07:25.000Z</time>
      </trkpt>
      <trkpt lat="47.27053" lon="-1.33263">
        <ele>104</ele>
        <time>2021-09-25T09:07:27.000Z</time>
      </trkpt>
      <trkpt lat="47.27066" lon="-1.33257">
        <ele>104</ele>
        <time>2021-09-25T09:07:29.000Z</time>
      </trkpt>
      <trkpt lat="47.27078" lon="-1.33252">
        <ele>104</ele>
        <time>2021-09-25T09:07:31.000Z</time>
      </trkpt>
      <trkpt lat="47.27091" lon="-1.33246">
        <ele>104</ele>
        <time>2021-09-25T09:07:33.000Z</time>
      </trkpt>
      <trkpt lat="47.27104" lon="-1.33241">
        <ele>104</ele>
        <time>2021-09-25T09:07:35.000Z</time>
      </trkpt>
      <trkpt lat="47.27117" lon="-1.33236">
        <ele>104</ele>
        <time>2021-09-25T09:07:37.000Z</time>
      </trkpt>
      <trkpt lat="47.2713" lon="-1.3323">
        <ele>103</ele>
        <time>2021-09-25T09:07:39.000Z</time>
      </trkpt>
      <trkpt lat="47.27142" lon="-1.33225">
        <ele>103</ele>
        <time>2021-09-25T09:07:41.000Z</time>
      </trkpt>
      <trkpt lat="47.27155" lon="-1.33219">
        <ele>103</ele>
        <time>2021-09-25T09:07:43.000Z</time>
      </trkpt>
      <trkpt lat="47.27168" lon="-1.33213">
        <ele>103</ele>
        <time>2021-09-25T09:07:45.000Z</time>
      </trkpt>
      <trkpt lat="47.27181" lon="-1.33208">
        <ele>103</ele>
        <time>2021-09-25T09:07:47.000Z</time>
      </trkpt>
      <trkpt lat="47.27195" lon="-1.33203">
        <ele>102</ele>
        <time>2021-09-25T09:07:49.000Z</time>
      </trkpt>
      <trkpt lat="47.27208" lon="-1.33197">
        <ele>102</ele>
        <time>2021-09-25T09:07:51.000Z</time>
      </trkpt>
      <trkpt lat="47.27222" lon="-1.33193">
        <ele>102</ele>
        <time>2021-09-25T09:07:53.000Z</time>
      </trkpt>
      <trkpt lat="47.27235" lon="-1.33188">
        <ele>101</ele>
        <time>2021-09-25T09:07:55.000Z</time>
      </trkpt>
      <trkpt lat="47.27249" lon="-1.33185">
        <ele>101</ele>
        <time>2021-09-25T09:07:57.000Z</time>
      </trkpt>
      <trkpt lat="47.27263" lon="-1.33182">
        <ele>101</ele>
        <time>2021-09-25T09:07:59.000Z</time>
      </trkpt>
      <trkpt lat="47.27277" lon="-1.3318">
        <ele>101</ele>
        <time>2021-09-25T09:08:01.000Z</time>
      </trkpt>
      <trkpt lat="47.27291" lon="-1.33175">
        <ele>100</ele>
        <time>2021-09-25T09:08:03.000Z</time>
      </trkpt>
      <trkpt lat="47.27304" lon="-1.3317">
        <ele>100</ele>
        <time>2021-09-25T09:08:05.000Z</time>
      </trkpt>
      <trkpt lat="47.27319" lon="-1.3317">
        <ele>100</ele>
        <time>2021-09-25T09:08:07.000Z</time>
      </trkpt>
      <trkpt lat="47.27333" lon="-1.33177">
        <ele>99</ele>
        <time>2021-09-25T09:08:09.000Z</time>
      </trkpt>
      <trkpt lat="47.27349" lon="-1.33181">
        <ele>99</ele>
        <time>2021-09-25T09:08:11.000Z</time>
      </trkpt>
      <trkpt lat="47.27365" lon="-1.33184">
        <ele>98</ele>
        <time>2021-09-25T09:08:13.000Z</time>
      </trkpt>
      <trkpt lat="47.27381" lon="-1.33187">
        <ele>98</ele>
        <time>2021-09-25T09:08:15.000Z</time>
      </trkpt>
      <trkpt lat="47.27397" lon="-1.33191">
        <ele>97</ele>
        <time>2021-09-25T09:08:17.000Z</time>
      </trkpt>
      <trkpt lat="47.27413" lon="-1.33195">
        <ele>96</ele>
        <time>2021-09-25T09:08:19.000Z</time>
      </trkpt>
      <trkpt lat="47.2743" lon="-1.33199">
        <ele>96</ele>
        <time>2021-09-25T09:08:21.000Z</time>
      </trkpt>
      <trkpt lat="47.27447" lon="-1.33203">
        <ele>95</ele>
        <time>2021-09-25T09:08:23.000Z</time>
      </trkpt>
      <trkpt lat="47.27464" lon="-1.33207">
        <ele>94</ele>
        <time>2021-09-25T09:08:25.000Z</time>
      </trkpt>
      <trkpt lat="47.27481" lon="-1.33212">
        <ele>93</ele>
        <time>2021-09-25T09:08:27.000Z</time>
      </trkpt>
      <trkpt lat="47.27498" lon="-1.33217">
        <ele>93</ele>
        <time>2021-09-25T09:08:29.000Z</time>
      </trkpt>
      <trkpt lat="47.27515" lon="-1.33224">
        <ele>92</ele>
        <time>2021-09-25T09:08:31.000Z</time>
      </trkpt>
      <trkpt lat="47.27531" lon="-1.33233">
        <ele>91</ele>
        <time>2021-09-25T09:08:33.000Z</time>
      </trkpt>
      <trkpt lat="47.27547" lon="-1.33243">
        <ele>91</ele>
        <time>2021-09-25T09:08:35.000Z</time>
      </trkpt>
      <trkpt lat="47.27562" lon="-1.33255">
        <ele>90</ele>
        <time>2021-09-25T09:08:37.000Z</time>
      </trkpt>
      <trkpt lat="47.27577" lon="-1.33268">
        <ele>90</ele>
        <time>2021-09-25T09:08:39.000Z</time>
      </trkpt>
      <trkpt lat="47.2759" lon="-1.33284">
        <ele>89</ele>
        <time>2021-09-25T09:08:41.000Z</time>
      </trkpt>
      <trkpt lat="47.27602" lon="-1.33298">
        <ele>88</ele>
        <time>2021-09-25T09:08:43.000Z</time>
      </trkpt>
      <trkpt lat="47.27612" lon="-1.3331">
        <ele>88</ele>
        <time>2021-09-25T09:08:45.000Z</time>
      </trkpt>
      <trkpt lat="47.27621" lon="-1.33317">
        <ele>87</ele>
        <time>2021-09-25T09:08:47.000Z</time>
      </trkpt>
      <trkpt lat="47.27633" lon="-1.33321">
        <ele>87</ele>
        <time>2021-09-25T09:08:50.000Z</time>
      </trkpt>
      <trkpt lat="47.27643" lon="-1.33321">
        <ele>86</ele>
        <time>2021-09-25T09:08:52.000Z</time>
      </trkpt>
      <trkpt lat="47.27654" lon="-1.33312">
        <ele>86</ele>
        <time>2021-09-25T09:08:54.000Z</time>
      </trkpt>
      <trkpt lat="47.27666" lon="-1.33303">
        <ele>86</ele>
        <time>2021-09-25T09:08:56.000Z</time>
      </trkpt>
      <trkpt lat="47.2768" lon="-1.33293">
        <ele>85</ele>
        <time>2021-09-25T09:08:58.000Z</time>
      </trkpt>
      <trkpt lat="47.27694" lon="-1.33285">
        <ele>85</ele>
        <time>2021-09-25T09:09:00.000Z</time>
      </trkpt>
      <trkpt lat="47.27709" lon="-1.33276">
        <ele>84</ele>
        <time>2021-09-25T09:09:02.000Z</time>
      </trkpt>
      <trkpt lat="47.27724" lon="-1.33268">
        <ele>83</ele>
        <time>2021-09-25T09:09:04.000Z</time>
      </trkpt>
      <trkpt lat="47.2774" lon="-1.33259">
        <ele>83</ele>
        <time>2021-09-25T09:09:06.000Z</time>
      </trkpt>
      <trkpt lat="47.27756" lon="-1.33251">
        <ele>83</ele>
        <time>2021-09-25T09:09:08.000Z</time>
      </trkpt>
      <trkpt lat="47.27772" lon="-1.33244">
        <ele>83</ele>
        <time>2021-09-25T09:09:10.000Z</time>
      </trkpt>
      <trkpt lat="47.27788" lon="-1.33236">
        <ele>82</ele>
        <time>2021-09-25T09:09:12.000Z</time>
      </trkpt>
      <trkpt lat="47.27803" lon="-1.33229">
        <ele>82</ele>
        <time>2021-09-25T09:09:14.000Z</time>
      </trkpt>
      <trkpt lat="47.27818" lon="-1.33221">
        <ele>82</ele>
        <time>2021-09-25T09:09:16.000Z</time>
      </trkpt>
      <trkpt lat="47.27831" lon="-1.33215">
        <ele>82</ele>
        <time>2021-09-25T09:09:18.000Z</time>
      </trkpt>
      <trkpt lat="47.27844" lon="-1.33208">
        <ele>82</ele>
        <time>2021-09-25T09:09:20.000Z</time>
      </trkpt>
      <trkpt lat="47.27857" lon="-1.33202">
        <ele>83</ele>
        <time>2021-09-25T09:09:22.000Z</time>
      </trkpt>
      <trkpt lat="47.2787" lon="-1.33197">
        <ele>83</ele>
        <time>2021-09-25T09:09:24.000Z</time>
      </trkpt>
      <trkpt lat="47.27883" lon="-1.33193">
        <ele>83</ele>
        <time>2021-09-25T09:09:26.000Z</time>
      </trkpt>
      <trkpt lat="47.27896" lon="-1.3319">
        <ele>84</ele>
        <time>2021-09-25T09:09:28.000Z</time>
      </trkpt>
      <trkpt lat="47.27908" lon="-1.33187">
        <ele>84</ele>
        <time>2021-09-25T09:09:30.000Z</time>
      </trkpt>
      <trkpt lat="47.2792" lon="-1.33185">
        <ele>85</ele>
        <time>2021-09-25T09:09:32.000Z</time>
      </trkpt>
      <trkpt lat="47.27932" lon="-1.33183">
        <ele>85</ele>
        <time>2021-09-25T09:09:34.000Z</time>
      </trkpt>
      <trkpt lat="47.27944" lon="-1.33182">
        <ele>85</ele>
        <time>2021-09-25T09:09:36.000Z</time>
      </trkpt>
      <trkpt lat="47.27956" lon="-1.33182">
        <ele>86</ele>
        <time>2021-09-25T09:09:38.000Z</time>
      </trkpt>
      <trkpt lat="47.27968" lon="-1.33181">
        <ele>86</ele>
        <time>2021-09-25T09:09:40.000Z</time>
      </trkpt>
      <trkpt lat="47.2798" lon="-1.3318">
        <ele>87</ele>
        <time>2021-09-25T09:09:42.000Z</time>
      </trkpt>
      <trkpt lat="47.27992" lon="-1.33179">
        <ele>88</ele>
        <time>2021-09-25T09:09:44.000Z</time>
      </trkpt>
      <trkpt lat="47.28003" lon="-1.33178">
        <ele>88</ele>
        <time>2021-09-25T09:09:46.000Z</time>
      </trkpt>
      <trkpt lat="47.28014" lon="-1.33177">
        <ele>89</ele>
        <time>2021-09-25T09:09:48.000Z</time>
      </trkpt>
      <trkpt lat="47.28026" lon="-1.33176">
        <ele>89</ele>
        <time>2021-09-25T09:09:50.000Z</time>
      </trkpt>
      <trkpt lat="47.28038" lon="-1.33174">
        <ele>90</ele>
        <time>2021-09-25T09:09:52.000Z</time>
      </trkpt>
      <trkpt lat="47.28049" lon="-1.33173">
        <ele>90</ele>
        <time>2021-09-25T09:09:54.000Z</time>
      </trkpt>
      <trkpt lat="47.28061" lon="-1.33173">
        <ele>90</ele>
        <time>2021-09-25T09:09:56.000Z</time>
      </trkpt>
      <trkpt lat="47.28072" lon="-1.33172">
        <ele>91</ele>
        <time>2021-09-25T09:09:58.000Z</time>
      </trkpt>
      <trkpt lat="47.28084" lon="-1.33171">
        <ele>91</ele>
        <time>2021-09-25T09:10:00.000Z</time>
      </trkpt>
      <trkpt lat="47.28095" lon="-1.3317">
        <ele>92</ele>
        <time>2021-09-25T09:10:02.000Z</time>
      </trkpt>
      <trkpt lat="47.28106" lon="-1.33168">
        <ele>92</ele>
        <time>2021-09-25T09:10:04.000Z</time>
      </trkpt>
      <trkpt lat="47.28116" lon="-1.33166">
        <ele>93</ele>
        <time>2021-09-25T09:10:06.000Z</time>
      </trkpt>
      <trkpt lat="47.28128" lon="-1.33164">
        <ele>93</ele>
        <time>2021-09-25T09:10:08.000Z</time>
      </trkpt>
      <trkpt lat="47.28139" lon="-1.33161">
        <ele>93</ele>
        <time>2021-09-25T09:10:10.000Z</time>
      </trkpt>
      <trkpt lat="47.28151" lon="-1.33157">
        <ele>93</ele>
        <time>2021-09-25T09:10:12.000Z</time>
      </trkpt>
      <trkpt lat="47.28162" lon="-1.33153">
        <ele>93</ele>
        <time>2021-09-25T09:10:14.000Z</time>
      </trkpt>
      <trkpt lat="47.28173" lon="-1.33147">
        <ele>93</ele>
        <time>2021-09-25T09:10:16.000Z</time>
      </trkpt>
      <trkpt lat="47.28184" lon="-1.3314">
        <ele>93</ele>
        <time>2021-09-25T09:10:18.000Z</time>
      </trkpt>
      <trkpt lat="47.28195" lon="-1.33134">
        <ele>93</ele>
        <time>2021-09-25T09:10:20.000Z</time>
      </trkpt>
      <trkpt lat="47.28205" lon="-1.33126">
        <ele>94</ele>
        <time>2021-09-25T09:10:22.000Z</time>
      </trkpt>
      <trkpt lat="47.28216" lon="-1.33119">
        <ele>94</ele>
        <time>2021-09-25T09:10:24.000Z</time>
      </trkpt>
      <trkpt lat="47.28227" lon="-1.33113">
        <ele>94</ele>
        <time>2021-09-25T09:10:26.000Z</time>
      </trkpt>
      <trkpt lat="47.28238" lon="-1.33106">
        <ele>94</ele>
        <time>2021-09-25T09:10:28.000Z</time>
      </trkpt>
      <trkpt lat="47.28249" lon="-1.33099">
        <ele>94</ele>
        <time>2021-09-25T09:10:30.000Z</time>
      </trkpt>
      <trkpt lat="47.2826" lon="-1.33092">
        <ele>94</ele>
        <time>2021-09-25T09:10:32.000Z</time>
      </trkpt>
      <trkpt lat="47.28271" lon="-1.33086">
        <ele>94</ele>
        <time>2021-09-25T09:10:34.000Z</time>
      </trkpt>
      <trkpt lat="47.28283" lon="-1.33079">
        <ele>94</ele>
        <time>2021-09-25T09:10:36.000Z</time>
      </trkpt>
      <trkpt lat="47.28293" lon="-1.33072">
        <ele>95</ele>
        <time>2021-09-25T09:10:38.000Z</time>
      </trkpt>
      <trkpt lat="47.28305" lon="-1.33064">
        <ele>95</ele>
        <time>2021-09-25T09:10:40.000Z</time>
      </trkpt>
      <trkpt lat="47.28316" lon="-1.33057">
        <ele>95</ele>
        <time>2021-09-25T09:10:42.000Z</time>
      </trkpt>
      <trkpt lat="47.28327" lon="-1.3305">
        <ele>95</ele>
        <time>2021-09-25T09:10:44.000Z</time>
      </trkpt>
      <trkpt lat="47.28338" lon="-1.33043">
        <ele>94</ele>
        <time>2021-09-25T09:10:46.000Z</time>
      </trkpt>
      <trkpt lat="47.28349" lon="-1.33036">
        <ele>95</ele>
        <time>2021-09-25T09:10:48.000Z</time>
      </trkpt>
      <trkpt lat="47.2836" lon="-1.33029">
        <ele>95</ele>
        <time>2021-09-25T09:10:50.000Z</time>
      </trkpt>
      <trkpt lat="47.28371" lon="-1.33022">
        <ele>95</ele>
        <time>2021-09-25T09:10:52.000Z</time>
      </trkpt>
      <trkpt lat="47.28382" lon="-1.33016">
        <ele>95</ele>
        <time>2021-09-25T09:10:54.000Z</time>
      </trkpt>
      <trkpt lat="47.28393" lon="-1.3301">
        <ele>96</ele>
        <time>2021-09-25T09:10:56.000Z</time>
      </trkpt>
      <trkpt lat="47.28405" lon="-1.33005">
        <ele>96</ele>
        <time>2021-09-25T09:10:58.000Z</time>
      </trkpt>
      <trkpt lat="47.28417" lon="-1.33002">
        <ele>96</ele>
        <time>2021-09-25T09:11:00.000Z</time>
      </trkpt>
      <trkpt lat="47.2843" lon="-1.33">
        <ele>96</ele>
        <time>2021-09-25T09:11:02.000Z</time>
      </trkpt>
      <trkpt lat="47.28442" lon="-1.32998">
        <ele>96</ele>
        <time>2021-09-25T09:11:04.000Z</time>
      </trkpt>
      <trkpt lat="47.28454" lon="-1.32996">
        <ele>96</ele>
        <time>2021-09-25T09:11:06.000Z</time>
      </trkpt>
      <trkpt lat="47.28466" lon="-1.32994">
        <ele>96</ele>
        <time>2021-09-25T09:11:08.000Z</time>
      </trkpt>
      <trkpt lat="47.28478" lon="-1.32992">
        <ele>96</ele>
        <time>2021-09-25T09:11:10.000Z</time>
      </trkpt>
      <trkpt lat="47.2849" lon="-1.3299">
        <ele>96</ele>
        <time>2021-09-25T09:11:12.000Z</time>
      </trkpt>
      <trkpt lat="47.28501" lon="-1.32986">
        <ele>96</ele>
        <time>2021-09-25T09:11:14.000Z</time>
      </trkpt>
      <trkpt lat="47.28512" lon="-1.32981">
        <ele>96</ele>
        <time>2021-09-25T09:11:16.000Z</time>
      </trkpt>
      <trkpt lat="47.28524" lon="-1.32976">
        <ele>96</ele>
        <time>2021-09-25T09:11:18.000Z</time>
      </trkpt>
      <trkpt lat="47.28535" lon="-1.3297">
        <ele>96</ele>
        <time>2021-09-25T09:11:20.000Z</time>
      </trkpt>
      <trkpt lat="47.28546" lon="-1.32963">
        <ele>96</ele>
        <time>2021-09-25T09:11:22.000Z</time>
      </trkpt>
      <trkpt lat="47.28557" lon="-1.32957">
        <ele>96</ele>
        <time>2021-09-25T09:11:24.000Z</time>
      </trkpt>
      <trkpt lat="47.28568" lon="-1.3295">
        <ele>96</ele>
        <time>2021-09-25T09:11:26.000Z</time>
      </trkpt>
      <trkpt lat="47.28579" lon="-1.32944">
        <ele>96</ele>
        <time>2021-09-25T09:11:28.000Z</time>
      </trkpt>
      <trkpt lat="47.28591" lon="-1.32938">
        <ele>96</ele>
        <time>2021-09-25T09:11:30.000Z</time>
      </trkpt>
      <trkpt lat="47.28601" lon="-1.32931">
        <ele>96</ele>
        <time>2021-09-25T09:11:32.000Z</time>
      </trkpt>
      <trkpt lat="47.28612" lon="-1.32925">
        <ele>97</ele>
        <time>2021-09-25T09:11:34.000Z</time>
      </trkpt>
      <trkpt lat="47.28623" lon="-1.32918">
        <ele>97</ele>
        <time>2021-09-25T09:11:36.000Z</time>
      </trkpt>
      <trkpt lat="47.28634" lon="-1.32912">
        <ele>97</ele>
        <time>2021-09-25T09:11:38.000Z</time>
      </trkpt>
      <trkpt lat="47.28645" lon="-1.32905">
        <ele>97</ele>
        <time>2021-09-25T09:11:40.000Z</time>
      </trkpt>
      <trkpt lat="47.28656" lon="-1.32899">
        <ele>98</ele>
        <time>2021-09-25T09:11:42.000Z</time>
      </trkpt>
      <trkpt lat="47.28666" lon="-1.32894">
        <ele>98</ele>
        <time>2021-09-25T09:11:44.000Z</time>
      </trkpt>
      <trkpt lat="47.28678" lon="-1.32889">
        <ele>98</ele>
        <time>2021-09-25T09:11:46.000Z</time>
      </trkpt>
      <trkpt lat="47.28689" lon="-1.32885">
        <ele>98</ele>
        <time>2021-09-25T09:11:48.000Z</time>
      </trkpt>
      <trkpt lat="47.287" lon="-1.32883">
        <ele>99</ele>
        <time>2021-09-25T09:11:50.000Z</time>
      </trkpt>
      <trkpt lat="47.28711" lon="-1.3288">
        <ele>99</ele>
        <time>2021-09-25T09:11:52.000Z</time>
      </trkpt>
      <trkpt lat="47.28722" lon="-1.32878">
        <ele>99</ele>
        <time>2021-09-25T09:11:54.000Z</time>
      </trkpt>
      <trkpt lat="47.28733" lon="-1.32877">
        <ele>100</ele>
        <time>2021-09-25T09:11:56.000Z</time>
      </trkpt>
      <trkpt lat="47.28744" lon="-1.32876">
        <ele>100</ele>
        <time>2021-09-25T09:11:58.000Z</time>
      </trkpt>
      <trkpt lat="47.28755" lon="-1.32874">
        <ele>101</ele>
        <time>2021-09-25T09:12:00.000Z</time>
      </trkpt>
      <trkpt lat="47.28766" lon="-1.32873">
        <ele>101</ele>
        <time>2021-09-25T09:12:02.000Z</time>
      </trkpt>
      <trkpt lat="47.28777" lon="-1.32872">
        <ele>102</ele>
        <time>2021-09-25T09:12:04.000Z</time>
      </trkpt>
      <trkpt lat="47.28788" lon="-1.32869">
        <ele>102</ele>
        <time>2021-09-25T09:12:06.000Z</time>
      </trkpt>
      <trkpt lat="47.28798" lon="-1.32868">
        <ele>102</ele>
        <time>2021-09-25T09:12:08.000Z</time>
      </trkpt>
      <trkpt lat="47.28809" lon="-1.32867">
        <ele>102</ele>
        <time>2021-09-25T09:12:10.000Z</time>
      </trkpt>
      <trkpt lat="47.2882" lon="-1.32865">
        <ele>102</ele>
        <time>2021-09-25T09:12:12.000Z</time>
      </trkpt>
      <trkpt lat="47.28831" lon="-1.32863">
        <ele>102</ele>
        <time>2021-09-25T09:12:14.000Z</time>
      </trkpt>
      <trkpt lat="47.28842" lon="-1.32861">
        <ele>102</ele>
        <time>2021-09-25T09:12:16.000Z</time>
      </trkpt>
      <trkpt lat="47.28853" lon="-1.32859">
        <ele>102</ele>
        <time>2021-09-25T09:12:18.000Z</time>
      </trkpt>
      <trkpt lat="47.28864" lon="-1.32858">
        <ele>102</ele>
        <time>2021-09-25T09:12:20.000Z</time>
      </trkpt>
      <trkpt lat="47.28874" lon="-1.32857">
        <ele>103</ele>
        <time>2021-09-25T09:12:22.000Z</time>
      </trkpt>
      <trkpt lat="47.28885" lon="-1.32855">
        <ele>103</ele>
        <time>2021-09-25T09:12:24.000Z</time>
      </trkpt>
      <trkpt lat="47.28896" lon="-1.32853">
        <ele>103</ele>
        <time>2021-09-25T09:12:26.000Z</time>
      </trkpt>
      <trkpt lat="47.28907" lon="-1.32851">
        <ele>103</ele>
        <time>2021-09-25T09:12:28.000Z</time>
      </trkpt>
      <trkpt lat="47.28918" lon="-1.32849">
        <ele>103</ele>
        <time>2021-09-25T09:12:30.000Z</time>
      </trkpt>
      <trkpt lat="47.28929" lon="-1.32847">
        <ele>104</ele>
        <time>2021-09-25T09:12:32.000Z</time>
      </trkpt>
      <trkpt lat="47.2894" lon="-1.32846">
        <ele>104</ele>
        <time>2021-09-25T09:12:34.000Z</time>
      </trkpt>
      <trkpt lat="47.2895" lon="-1.32844">
        <ele>104</ele>
        <time>2021-09-25T09:12:36.000Z</time>
      </trkpt>
      <trkpt lat="47.28961" lon="-1.32843">
        <ele>105</ele>
        <time>2021-09-25T09:12:38.000Z</time>
      </trkpt>
      <trkpt lat="47.28972" lon="-1.32841">
        <ele>105</ele>
        <time>2021-09-25T09:12:40.000Z</time>
      </trkpt>
      <trkpt lat="47.28983" lon="-1.32839">
        <ele>106</ele>
        <time>2021-09-25T09:12:42.000Z</time>
      </trkpt>
      <trkpt lat="47.28993" lon="-1.32838">
        <ele>106</ele>
        <time>2021-09-25T09:12:44.000Z</time>
      </trkpt>
      <trkpt lat="47.29004" lon="-1.32835">
        <ele>107</ele>
        <time>2021-09-25T09:12:46.000Z</time>
      </trkpt>
      <trkpt lat="47.29015" lon="-1.32834">
        <ele>107</ele>
        <time>2021-09-25T09:12:48.000Z</time>
      </trkpt>
      <trkpt lat="47.29026" lon="-1.32832">
        <ele>107</ele>
        <time>2021-09-25T09:12:50.000Z</time>
      </trkpt>
      <trkpt lat="47.29038" lon="-1.3283">
        <ele>108</ele>
        <time>2021-09-25T09:12:52.000Z</time>
      </trkpt>
      <trkpt lat="47.29049" lon="-1.32828">
        <ele>108</ele>
        <time>2021-09-25T09:12:54.000Z</time>
      </trkpt>
      <trkpt lat="47.29061" lon="-1.32826">
        <ele>109</ele>
        <time>2021-09-25T09:12:56.000Z</time>
      </trkpt>
      <trkpt lat="47.29072" lon="-1.32824">
        <ele>109</ele>
        <time>2021-09-25T09:12:58.000Z</time>
      </trkpt>
      <trkpt lat="47.29084" lon="-1.32823">
        <ele>110</ele>
        <time>2021-09-25T09:13:00.000Z</time>
      </trkpt>
      <trkpt lat="47.29094" lon="-1.32822">
        <ele>110</ele>
        <time>2021-09-25T09:13:02.000Z</time>
      </trkpt>
      <trkpt lat="47.29105" lon="-1.3282">
        <ele>110</ele>
        <time>2021-09-25T09:13:04.000Z</time>
      </trkpt>
      <trkpt lat="47.29116" lon="-1.32818">
        <ele>110</ele>
        <time>2021-09-25T09:13:06.000Z</time>
      </trkpt>
      <trkpt lat="47.29127" lon="-1.32817">
        <ele>110</ele>
        <time>2021-09-25T09:13:08.000Z</time>
      </trkpt>
      <trkpt lat="47.29138" lon="-1.32815">
        <ele>110</ele>
        <time>2021-09-25T09:13:10.000Z</time>
      </trkpt>
      <trkpt lat="47.2915" lon="-1.32814">
        <ele>110</ele>
        <time>2021-09-25T09:13:12.000Z</time>
      </trkpt>
      <trkpt lat="47.29162" lon="-1.32812">
        <ele>110</ele>
        <time>2021-09-25T09:13:14.000Z</time>
      </trkpt>
      <trkpt lat="47.29174" lon="-1.3281">
        <ele>109</ele>
        <time>2021-09-25T09:13:16.000Z</time>
      </trkpt>
      <trkpt lat="47.29185" lon="-1.32808">
        <ele>109</ele>
        <time>2021-09-25T09:13:18.000Z</time>
      </trkpt>
      <trkpt lat="47.29196" lon="-1.32807">
        <ele>109</ele>
        <time>2021-09-25T09:13:20.000Z</time>
      </trkpt>
      <trkpt lat="47.29207" lon="-1.32805">
        <ele>109</ele>
        <time>2021-09-25T09:13:22.000Z</time>
      </trkpt>
      <trkpt lat="47.29219" lon="-1.32804">
        <ele>109</ele>
        <time>2021-09-25T09:13:24.000Z</time>
      </trkpt>
      <trkpt lat="47.2923" lon="-1.32802">
        <ele>109</ele>
        <time>2021-09-25T09:13:26.000Z</time>
      </trkpt>
      <trkpt lat="47.29242" lon="-1.32801">
        <ele>109</ele>
        <time>2021-09-25T09:13:28.000Z</time>
      </trkpt>
      <trkpt lat="47.29253" lon="-1.328">
        <ele>110</ele>
        <time>2021-09-25T09:13:30.000Z</time>
      </trkpt>
      <trkpt lat="47.29265" lon="-1.32798">
        <ele>110</ele>
        <time>2021-09-25T09:13:32.000Z</time>
      </trkpt>
      <trkpt lat="47.29277" lon="-1.32796">
        <ele>110</ele>
        <time>2021-09-25T09:13:34.000Z</time>
      </trkpt>
      <trkpt lat="47.29288" lon="-1.32794">
        <ele>110</ele>
        <time>2021-09-25T09:13:36.000Z</time>
      </trkpt>
      <trkpt lat="47.293" lon="-1.32793">
        <ele>109</ele>
        <time>2021-09-25T09:13:38.000Z</time>
      </trkpt>
      <trkpt lat="47.29311" lon="-1.32791">
        <ele>109</ele>
        <time>2021-09-25T09:13:40.000Z</time>
      </trkpt>
      <trkpt lat="47.29323" lon="-1.32789">
        <ele>110</ele>
        <time>2021-09-25T09:13:42.000Z</time>
      </trkpt>
      <trkpt lat="47.29335" lon="-1.32787">
        <ele>110</ele>
        <time>2021-09-25T09:13:44.000Z</time>
      </trkpt>
      <trkpt lat="47.29346" lon="-1.32786">
        <ele>110</ele>
        <time>2021-09-25T09:13:46.000Z</time>
      </trkpt>
      <trkpt lat="47.29358" lon="-1.32784">
        <ele>110</ele>
        <time>2021-09-25T09:13:48.000Z</time>
      </trkpt>
      <trkpt lat="47.2937" lon="-1.32783">
        <ele>110</ele>
        <time>2021-09-25T09:13:50.000Z</time>
      </trkpt>
      <trkpt lat="47.29382" lon="-1.3278">
        <ele>111</ele>
        <time>2021-09-25T09:13:52.000Z</time>
      </trkpt>
      <trkpt lat="47.29393" lon="-1.32779">
        <ele>111</ele>
        <time>2021-09-25T09:13:54.000Z</time>
      </trkpt>
      <trkpt lat="47.29406" lon="-1.32778">
        <ele>111</ele>
        <time>2021-09-25T09:13:56.000Z</time>
      </trkpt>
      <trkpt lat="47.29418" lon="-1.32776">
        <ele>110</ele>
        <time>2021-09-25T09:13:58.000Z</time>
      </trkpt>
      <trkpt lat="47.2943" lon="-1.32774">
        <ele>110</ele>
        <time>2021-09-25T09:14:00.000Z</time>
      </trkpt>
      <trkpt lat="47.29442" lon="-1.32773">
        <ele>110</ele>
        <time>2021-09-25T09:14:02.000Z</time>
      </trkpt>
      <trkpt lat="47.29454" lon="-1.32771">
        <ele>109</ele>
        <time>2021-09-25T09:14:04.000Z</time>
      </trkpt>
      <trkpt lat="47.29467" lon="-1.32769">
        <ele>109</ele>
        <time>2021-09-25T09:14:06.000Z</time>
      </trkpt>
      <trkpt lat="47.29479" lon="-1.32768">
        <ele>110</ele>
        <time>2021-09-25T09:14:08.000Z</time>
      </trkpt>
      <trkpt lat="47.29491" lon="-1.32766">
        <ele>109</ele>
        <time>2021-09-25T09:14:10.000Z</time>
      </trkpt>
      <trkpt lat="47.29504" lon="-1.32764">
        <ele>109</ele>
        <time>2021-09-25T09:14:12.000Z</time>
      </trkpt>
      <trkpt lat="47.29516" lon="-1.32762">
        <ele>109</ele>
        <time>2021-09-25T09:14:14.000Z</time>
      </trkpt>
      <trkpt lat="47.29528" lon="-1.32761">
        <ele>109</ele>
        <time>2021-09-25T09:14:16.000Z</time>
      </trkpt>
      <trkpt lat="47.29541" lon="-1.32759">
        <ele>108</ele>
        <time>2021-09-25T09:14:18.000Z</time>
      </trkpt>
      <trkpt lat="47.29553" lon="-1.32757">
        <ele>108</ele>
        <time>2021-09-25T09:14:20.000Z</time>
      </trkpt>
      <trkpt lat="47.29565" lon="-1.32755">
        <ele>108</ele>
        <time>2021-09-25T09:14:22.000Z</time>
      </trkpt>
      <trkpt lat="47.29578" lon="-1.32754">
        <ele>108</ele>
        <time>2021-09-25T09:14:24.000Z</time>
      </trkpt>
      <trkpt lat="47.29591" lon="-1.32752">
        <ele>108</ele>
        <time>2021-09-25T09:14:26.000Z</time>
      </trkpt>
      <trkpt lat="47.29603" lon="-1.3275">
        <ele>108</ele>
        <time>2021-09-25T09:14:28.000Z</time>
      </trkpt>
      <trkpt lat="47.29616" lon="-1.32749">
        <ele>107</ele>
        <time>2021-09-25T09:14:30.000Z</time>
      </trkpt>
      <trkpt lat="47.29629" lon="-1.3275">
        <ele>107</ele>
        <time>2021-09-25T09:14:32.000Z</time>
      </trkpt>
      <trkpt lat="47.29641" lon="-1.3275">
        <ele>107</ele>
        <time>2021-09-25T09:14:34.000Z</time>
      </trkpt>
      <trkpt lat="47.29654" lon="-1.32753">
        <ele>107</ele>
        <time>2021-09-25T09:14:36.000Z</time>
      </trkpt>
      <trkpt lat="47.29666" lon="-1.32758">
        <ele>107</ele>
        <time>2021-09-25T09:14:38.000Z</time>
      </trkpt>
      <trkpt lat="47.29679" lon="-1.32763">
        <ele>106</ele>
        <time>2021-09-25T09:14:40.000Z</time>
      </trkpt>
      <trkpt lat="47.29692" lon="-1.32771">
        <ele>106</ele>
        <time>2021-09-25T09:14:42.000Z</time>
      </trkpt>
      <trkpt lat="47.29704" lon="-1.32781">
        <ele>105</ele>
        <time>2021-09-25T09:14:44.000Z</time>
      </trkpt>
      <trkpt lat="47.29722" lon="-1.32797">
        <ele>104</ele>
        <time>2021-09-25T09:14:47.000Z</time>
      </trkpt>
      <trkpt lat="47.29735" lon="-1.32808">
        <ele>103</ele>
        <time>2021-09-25T09:14:49.000Z</time>
      </trkpt>
      <trkpt lat="47.29747" lon="-1.32819">
        <ele>102</ele>
        <time>2021-09-25T09:14:51.000Z</time>
      </trkpt>
      <trkpt lat="47.2976" lon="-1.32831">
        <ele>102</ele>
        <time>2021-09-25T09:14:53.000Z</time>
      </trkpt>
      <trkpt lat="47.29773" lon="-1.32843">
        <ele>101</ele>
        <time>2021-09-25T09:14:55.000Z</time>
      </trkpt>
      <trkpt lat="47.29787" lon="-1.32855">
        <ele>100</ele>
        <time>2021-09-25T09:14:57.000Z</time>
      </trkpt>
      <trkpt lat="47.29801" lon="-1.32866">
        <ele>99</ele>
        <time>2021-09-25T09:14:59.000Z</time>
      </trkpt>
      <trkpt lat="47.29822" lon="-1.32886">
        <ele>98</ele>
        <time>2021-09-25T09:15:02.000Z</time>
      </trkpt>
      <trkpt lat="47.29836" lon="-1.32899">
        <ele>97</ele>
        <time>2021-09-25T09:15:04.000Z</time>
      </trkpt>
      <trkpt lat="47.2985" lon="-1.32915">
        <ele>96</ele>
        <time>2021-09-25T09:15:06.000Z</time>
      </trkpt>
      <trkpt lat="47.29863" lon="-1.32934">
        <ele>96</ele>
        <time>2021-09-25T09:15:08.000Z</time>
      </trkpt>
      <trkpt lat="47.29867" lon="-1.32945">
        <ele>95</ele>
        <time>2021-09-25T09:15:09.000Z</time>
      </trkpt>
      <trkpt lat="47.29871" lon="-1.32958">
        <ele>95</ele>
        <time>2021-09-25T09:15:10.000Z</time>
      </trkpt>
      <trkpt lat="47.29874" lon="-1.32971">
        <ele>94</ele>
        <time>2021-09-25T09:15:11.000Z</time>
      </trkpt>
      <trkpt lat="47.29876" lon="-1.32984">
        <ele>94</ele>
        <time>2021-09-25T09:15:12.000Z</time>
      </trkpt>
      <trkpt lat="47.29877" lon="-1.32998">
        <ele>93</ele>
        <time>2021-09-25T09:15:13.000Z</time>
      </trkpt>
      <trkpt lat="47.29878" lon="-1.33012">
        <ele>93</ele>
        <time>2021-09-25T09:15:14.000Z</time>
      </trkpt>
      <trkpt lat="47.29878" lon="-1.33026">
        <ele>92</ele>
        <time>2021-09-25T09:15:15.000Z</time>
      </trkpt>
      <trkpt lat="47.29878" lon="-1.3304">
        <ele>92</ele>
        <time>2021-09-25T09:15:16.000Z</time>
      </trkpt>
      <trkpt lat="47.29877" lon="-1.33055">
        <ele>91</ele>
        <time>2021-09-25T09:15:17.000Z</time>
      </trkpt>
      <trkpt lat="47.29874" lon="-1.33069">
        <ele>91</ele>
        <time>2021-09-25T09:15:18.000Z</time>
      </trkpt>
      <trkpt lat="47.29871" lon="-1.33083">
        <ele>90</ele>
        <time>2021-09-25T09:15:19.000Z</time>
      </trkpt>
      <trkpt lat="47.29868" lon="-1.33096">
        <ele>90</ele>
        <time>2021-09-25T09:15:20.000Z</time>
      </trkpt>
      <trkpt lat="47.29863" lon="-1.33109">
        <ele>89</ele>
        <time>2021-09-25T09:15:21.000Z</time>
      </trkpt>
      <trkpt lat="47.29859" lon="-1.33123">
        <ele>88</ele>
        <time>2021-09-25T09:15:22.000Z</time>
      </trkpt>
      <trkpt lat="47.29854" lon="-1.33136">
        <ele>88</ele>
        <time>2021-09-25T09:15:23.000Z</time>
      </trkpt>
      <trkpt lat="47.2985" lon="-1.33148">
        <ele>87</ele>
        <time>2021-09-25T09:15:24.000Z</time>
      </trkpt>
      <trkpt lat="47.29845" lon="-1.33161">
        <ele>87</ele>
        <time>2021-09-25T09:15:25.000Z</time>
      </trkpt>
      <trkpt lat="47.29841" lon="-1.33174">
        <ele>87</ele>
        <time>2021-09-25T09:15:26.000Z</time>
      </trkpt>
      <trkpt lat="47.29836" lon="-1.33187">
        <ele>86</ele>
        <time>2021-09-25T09:15:27.000Z</time>
      </trkpt>
      <trkpt lat="47.29831" lon="-1.33201">
        <ele>86</ele>
        <time>2021-09-25T09:15:28.000Z</time>
      </trkpt>
      <trkpt lat="47.29826" lon="-1.33214">
        <ele>85</ele>
        <time>2021-09-25T09:15:29.000Z</time>
      </trkpt>
      <trkpt lat="47.29821" lon="-1.33227">
        <ele>85</ele>
        <time>2021-09-25T09:15:30.000Z</time>
      </trkpt>
      <trkpt lat="47.29817" lon="-1.3324">
        <ele>84</ele>
        <time>2021-09-25T09:15:31.000Z</time>
      </trkpt>
      <trkpt lat="47.29813" lon="-1.33254">
        <ele>84</ele>
        <time>2021-09-25T09:15:32.000Z</time>
      </trkpt>
      <trkpt lat="47.29809" lon="-1.33268">
        <ele>83</ele>
        <time>2021-09-25T09:15:33.000Z</time>
      </trkpt>
      <trkpt lat="47.29807" lon="-1.33283">
        <ele>82</ele>
        <time>2021-09-25T09:15:34.000Z</time>
      </trkpt>
      <trkpt lat="47.29806" lon="-1.33297">
        <ele>82</ele>
        <time>2021-09-25T09:15:35.000Z</time>
      </trkpt>
      <trkpt lat="47.29807" lon="-1.33312">
        <ele>82</ele>
        <time>2021-09-25T09:15:36.000Z</time>
      </trkpt>
      <trkpt lat="47.29809" lon="-1.33326">
        <ele>81</ele>
        <time>2021-09-25T09:15:37.000Z</time>
      </trkpt>
      <trkpt lat="47.29813" lon="-1.33339">
        <ele>81</ele>
        <time>2021-09-25T09:15:38.000Z</time>
      </trkpt>
      <trkpt lat="47.29817" lon="-1.3335">
        <ele>79</ele>
        <time>2021-09-25T09:15:39.000Z</time>
      </trkpt>
      <trkpt lat="47.29824" lon="-1.33359">
        <ele>79</ele>
        <time>2021-09-25T09:15:40.000Z</time>
      </trkpt>
      <trkpt lat="47.29833" lon="-1.33367">
        <ele>79</ele>
        <time>2021-09-25T09:15:41.000Z</time>
      </trkpt>
      <trkpt lat="47.29842" lon="-1.33373">
        <ele>78</ele>
        <time>2021-09-25T09:15:42.000Z</time>
      </trkpt>
      <trkpt lat="47.29852" lon="-1.33377">
        <ele>77</ele>
        <time>2021-09-25T09:15:43.000Z</time>
      </trkpt>
      <trkpt lat="47.29862" lon="-1.33377">
        <ele>77</ele>
        <time>2021-09-25T09:15:44.000Z</time>
      </trkpt>
      <trkpt lat="47.29871" lon="-1.33376">
        <ele>76</ele>
        <time>2021-09-25T09:15:45.000Z</time>
      </trkpt>
      <trkpt lat="47.2988" lon="-1.33373">
        <ele>76</ele>
        <time>2021-09-25T09:15:46.000Z</time>
      </trkpt>
      <trkpt lat="47.29889" lon="-1.33366">
        <ele>76</ele>
        <time>2021-09-25T09:15:47.000Z</time>
      </trkpt>
      <trkpt lat="47.29897" lon="-1.33359">
        <ele>75</ele>
        <time>2021-09-25T09:15:48.000Z</time>
      </trkpt>
      <trkpt lat="47.29904" lon="-1.33351">
        <ele>75</ele>
        <time>2021-09-25T09:15:49.000Z</time>
      </trkpt>
      <trkpt lat="47.29911" lon="-1.33342">
        <ele>74</ele>
        <time>2021-09-25T09:15:50.000Z</time>
      </trkpt>
      <trkpt lat="47.29918" lon="-1.33333">
        <ele>74</ele>
        <time>2021-09-25T09:15:51.000Z</time>
      </trkpt>
      <trkpt lat="47.29931" lon="-1.33315">
        <ele>74</ele>
        <time>2021-09-25T09:15:53.000Z</time>
      </trkpt>
      <trkpt lat="47.29944" lon="-1.33297">
        <ele>74</ele>
        <time>2021-09-25T09:15:55.000Z</time>
      </trkpt>
      <trkpt lat="47.29957" lon="-1.33279">
        <ele>72</ele>
        <time>2021-09-25T09:15:57.000Z</time>
      </trkpt>
      <trkpt lat="47.29971" lon="-1.33261">
        <ele>70</ele>
        <time>2021-09-25T09:15:59.000Z</time>
      </trkpt>
      <trkpt lat="47.29979" lon="-1.33253">
        <ele>69</ele>
        <time>2021-09-25T09:16:00.000Z</time>
      </trkpt>
      <trkpt lat="47.29986" lon="-1.33245">
        <ele>69</ele>
        <time>2021-09-25T09:16:01.000Z</time>
      </trkpt>
      <trkpt lat="47.30002" lon="-1.33236">
        <ele>68</ele>
        <time>2021-09-25T09:16:03.000Z</time>
      </trkpt>
      <trkpt lat="47.30013" lon="-1.33238">
        <ele>68</ele>
        <time>2021-09-25T09:16:05.000Z</time>
      </trkpt>
      <trkpt lat="47.30018" lon="-1.33251">
        <ele>67</ele>
        <time>2021-09-25T09:16:07.000Z</time>
      </trkpt>
      <trkpt lat="47.30015" lon="-1.33271">
        <ele>67</ele>
        <time>2021-09-25T09:16:09.000Z</time>
      </trkpt>
      <trkpt lat="47.30008" lon="-1.3329">
        <ele>67</ele>
        <time>2021-09-25T09:16:11.000Z</time>
      </trkpt>
      <trkpt lat="47.30002" lon="-1.33312">
        <ele>67</ele>
        <time>2021-09-25T09:16:13.000Z</time>
      </trkpt>
      <trkpt lat="47.29997" lon="-1.33336">
        <ele>66</ele>
        <time>2021-09-25T09:16:15.000Z</time>
      </trkpt>
      <trkpt lat="47.29994" lon="-1.33361">
        <ele>64</ele>
        <time>2021-09-25T09:16:17.000Z</time>
      </trkpt>
      <trkpt lat="47.29993" lon="-1.33375">
        <ele>64</ele>
        <time>2021-09-25T09:16:18.000Z</time>
      </trkpt>
      <trkpt lat="47.29992" lon="-1.33389">
        <ele>63</ele>
        <time>2021-09-25T09:16:19.000Z</time>
      </trkpt>
      <trkpt lat="47.29992" lon="-1.33403">
        <ele>63</ele>
        <time>2021-09-25T09:16:20.000Z</time>
      </trkpt>
      <trkpt lat="47.29991" lon="-1.33417">
        <ele>62</ele>
        <time>2021-09-25T09:16:21.000Z</time>
      </trkpt>
      <trkpt lat="47.29989" lon="-1.3343">
        <ele>61</ele>
        <time>2021-09-25T09:16:22.000Z</time>
      </trkpt>
      <trkpt lat="47.29986" lon="-1.33444">
        <ele>61</ele>
        <time>2021-09-25T09:16:23.000Z</time>
      </trkpt>
      <trkpt lat="47.29981" lon="-1.33457">
        <ele>61</ele>
        <time>2021-09-25T09:16:24.000Z</time>
      </trkpt>
      <trkpt lat="47.29975" lon="-1.33469">
        <ele>61</ele>
        <time>2021-09-25T09:16:25.000Z</time>
      </trkpt>
      <trkpt lat="47.29969" lon="-1.33479">
        <ele>61</ele>
        <time>2021-09-25T09:16:26.000Z</time>
      </trkpt>
      <trkpt lat="47.29962" lon="-1.3349">
        <ele>60</ele>
        <time>2021-09-25T09:16:27.000Z</time>
      </trkpt>
      <trkpt lat="47.29955" lon="-1.33501">
        <ele>59</ele>
        <time>2021-09-25T09:16:28.000Z</time>
      </trkpt>
      <trkpt lat="47.29948" lon="-1.33512">
        <ele>58</ele>
        <time>2021-09-25T09:16:29.000Z</time>
      </trkpt>
      <trkpt lat="47.2994" lon="-1.33523">
        <ele>58</ele>
        <time>2021-09-25T09:16:30.000Z</time>
      </trkpt>
      <trkpt lat="47.29933" lon="-1.33534">
        <ele>57</ele>
        <time>2021-09-25T09:16:31.000Z</time>
      </trkpt>
      <trkpt lat="47.29925" lon="-1.33546">
        <ele>56</ele>
        <time>2021-09-25T09:16:32.000Z</time>
      </trkpt>
      <trkpt lat="47.29919" lon="-1.33557">
        <ele>55</ele>
        <time>2021-09-25T09:16:33.000Z</time>
      </trkpt>
      <trkpt lat="47.29912" lon="-1.33569">
        <ele>55</ele>
        <time>2021-09-25T09:16:34.000Z</time>
      </trkpt>
      <trkpt lat="47.29907" lon="-1.33582">
        <ele>55</ele>
        <time>2021-09-25T09:16:35.000Z</time>
      </trkpt>
      <trkpt lat="47.29905" lon="-1.33596">
        <ele>55</ele>
        <time>2021-09-25T09:16:36.000Z</time>
      </trkpt>
      <trkpt lat="47.29904" lon="-1.33609">
        <ele>54</ele>
        <time>2021-09-25T09:16:37.000Z</time>
      </trkpt>
      <trkpt lat="47.29905" lon="-1.33623">
        <ele>54</ele>
        <time>2021-09-25T09:16:38.000Z</time>
      </trkpt>
      <trkpt lat="47.29907" lon="-1.33637">
        <ele>54</ele>
        <time>2021-09-25T09:16:39.000Z</time>
      </trkpt>
      <trkpt lat="47.2991" lon="-1.33649">
        <ele>54</ele>
        <time>2021-09-25T09:16:40.000Z</time>
      </trkpt>
      <trkpt lat="47.29915" lon="-1.33674">
        <ele>54</ele>
        <time>2021-09-25T09:16:42.000Z</time>
      </trkpt>
      <trkpt lat="47.29918" lon="-1.33687">
        <ele>53</ele>
        <time>2021-09-25T09:16:43.000Z</time>
      </trkpt>
      <trkpt lat="47.29923" lon="-1.33712">
        <ele>54</ele>
        <time>2021-09-25T09:16:45.000Z</time>
      </trkpt>
      <trkpt lat="47.29928" lon="-1.33736">
        <ele>54</ele>
        <time>2021-09-25T09:16:47.000Z</time>
      </trkpt>
      <trkpt lat="47.29932" lon="-1.33759">
        <ele>54</ele>
        <time>2021-09-25T09:16:49.000Z</time>
      </trkpt>
      <trkpt lat="47.29937" lon="-1.33783">
        <ele>54</ele>
        <time>2021-09-25T09:16:51.000Z</time>
      </trkpt>
      <trkpt lat="47.29941" lon="-1.33806">
        <ele>54</ele>
        <time>2021-09-25T09:16:53.000Z</time>
      </trkpt>
      <trkpt lat="47.29946" lon="-1.33828">
        <ele>54</ele>
        <time>2021-09-25T09:16:55.000Z</time>
      </trkpt>
      <trkpt lat="47.2995" lon="-1.33851">
        <ele>54</ele>
        <time>2021-09-25T09:16:57.000Z</time>
      </trkpt>
      <trkpt lat="47.29954" lon="-1.33873">
        <ele>54</ele>
        <time>2021-09-25T09:16:59.000Z</time>
      </trkpt>
      <trkpt lat="47.29959" lon="-1.33895">
        <ele>54</ele>
        <time>2021-09-25T09:17:01.000Z</time>
      </trkpt>
      <trkpt lat="47.29963" lon="-1.33917">
        <ele>54</ele>
        <time>2021-09-25T09:17:03.000Z</time>
      </trkpt>
      <trkpt lat="47.29967" lon="-1.33938">
        <ele>54</ele>
        <time>2021-09-25T09:17:05.000Z</time>
      </trkpt>
      <trkpt lat="47.29971" lon="-1.33959">
        <ele>54</ele>
        <time>2021-09-25T09:17:07.000Z</time>
      </trkpt>
      <trkpt lat="47.29975" lon="-1.33981">
        <ele>54</ele>
        <time>2021-09-25T09:17:09.000Z</time>
      </trkpt>
      <trkpt lat="47.29979" lon="-1.34001">
        <ele>54</ele>
        <time>2021-09-25T09:17:11.000Z</time>
      </trkpt>
      <trkpt lat="47.29983" lon="-1.34022">
        <ele>55</ele>
        <time>2021-09-25T09:17:13.000Z</time>
      </trkpt>
      <trkpt lat="47.29988" lon="-1.34043">
        <ele>55</ele>
        <time>2021-09-25T09:17:15.000Z</time>
      </trkpt>
      <trkpt lat="47.29992" lon="-1.34064">
        <ele>54</ele>
        <time>2021-09-25T09:17:17.000Z</time>
      </trkpt>
      <trkpt lat="47.29996" lon="-1.34085">
        <ele>55</ele>
        <time>2021-09-25T09:17:19.000Z</time>
      </trkpt>
      <trkpt lat="47.3" lon="-1.34105">
        <ele>55</ele>
        <time>2021-09-25T09:17:21.000Z</time>
      </trkpt>
      <trkpt lat="47.30004" lon="-1.34125">
        <ele>55</ele>
        <time>2021-09-25T09:17:23.000Z</time>
      </trkpt>
      <trkpt lat="47.30008" lon="-1.34146">
        <ele>55</ele>
        <time>2021-09-25T09:17:25.000Z</time>
      </trkpt>
      <trkpt lat="47.30012" lon="-1.34166">
        <ele>55</ele>
        <time>2021-09-25T09:17:27.000Z</time>
      </trkpt>
      <trkpt lat="47.30016" lon="-1.34186">
        <ele>55</ele>
        <time>2021-09-25T09:17:29.000Z</time>
      </trkpt>
      <trkpt lat="47.3002" lon="-1.34206">
        <ele>54</ele>
        <time>2021-09-25T09:17:31.000Z</time>
      </trkpt>
      <trkpt lat="47.30023" lon="-1.34226">
        <ele>54</ele>
        <time>2021-09-25T09:17:33.000Z</time>
      </trkpt>
      <trkpt lat="47.30027" lon="-1.34246">
        <ele>54</ele>
        <time>2021-09-25T09:17:35.000Z</time>
      </trkpt>
      <trkpt lat="47.30031" lon="-1.34265">
        <ele>54</ele>
        <time>2021-09-25T09:17:37.000Z</time>
      </trkpt>
      <trkpt lat="47.30034" lon="-1.34285">
        <ele>54</ele>
        <time>2021-09-25T09:17:39.000Z</time>
      </trkpt>
      <trkpt lat="47.30038" lon="-1.34304">
        <ele>55</ele>
        <time>2021-09-25T09:17:41.000Z</time>
      </trkpt>
      <trkpt lat="47.30042" lon="-1.34324">
        <ele>55</ele>
        <time>2021-09-25T09:17:43.000Z</time>
      </trkpt>
      <trkpt lat="47.30046" lon="-1.34343">
        <ele>55</ele>
        <time>2021-09-25T09:17:45.000Z</time>
      </trkpt>
      <trkpt lat="47.30049" lon="-1.34363">
        <ele>55</ele>
        <time>2021-09-25T09:17:47.000Z</time>
      </trkpt>
      <trkpt lat="47.30053" lon="-1.34382">
        <ele>55</ele>
        <time>2021-09-25T09:17:49.000Z</time>
      </trkpt>
      <trkpt lat="47.30057" lon="-1.34402">
        <ele>55</ele>
        <time>2021-09-25T09:17:51.000Z</time>
      </trkpt>
      <trkpt lat="47.30061" lon="-1.34421">
        <ele>55</ele>
        <time>2021-09-25T09:17:53.000Z</time>
      </trkpt>
      <trkpt lat="47.30065" lon="-1.3444">
        <ele>55</ele>
        <time>2021-09-25T09:17:55.000Z</time>
      </trkpt>
      <trkpt lat="47.30068" lon="-1.34459">
        <ele>55</ele>
        <time>2021-09-25T09:17:57.000Z</time>
      </trkpt>
      <trkpt lat="47.30072" lon="-1.34478">
        <ele>55</ele>
        <time>2021-09-25T09:17:59.000Z</time>
      </trkpt>
      <trkpt lat="47.30076" lon="-1.34498">
        <ele>55</ele>
        <time>2021-09-25T09:18:01.000Z</time>
      </trkpt>
      <trkpt lat="47.3008" lon="-1.34517">
        <ele>55</ele>
        <time>2021-09-25T09:18:03.000Z</time>
      </trkpt>
      <trkpt lat="47.30083" lon="-1.34536">
        <ele>55</ele>
        <time>2021-09-25T09:18:05.000Z</time>
      </trkpt>
      <trkpt lat="47.30087" lon="-1.34556">
        <ele>55</ele>
        <time>2021-09-25T09:18:07.000Z</time>
      </trkpt>
      <trkpt lat="47.30091" lon="-1.34575">
        <ele>55</ele>
        <time>2021-09-25T09:18:09.000Z</time>
      </trkpt>
      <trkpt lat="47.30094" lon="-1.34595">
        <ele>55</ele>
        <time>2021-09-25T09:18:11.000Z</time>
      </trkpt>
      <trkpt lat="47.30097" lon="-1.34615">
        <ele>55</ele>
        <time>2021-09-25T09:18:13.000Z</time>
      </trkpt>
      <trkpt lat="47.301" lon="-1.34634">
        <ele>55</ele>
        <time>2021-09-25T09:18:15.000Z</time>
      </trkpt>
      <trkpt lat="47.30102" lon="-1.34654">
        <ele>55</ele>
        <time>2021-09-25T09:18:17.000Z</time>
      </trkpt>
      <trkpt lat="47.30103" lon="-1.34674">
        <ele>55</ele>
        <time>2021-09-25T09:18:19.000Z</time>
      </trkpt>
      <trkpt lat="47.30105" lon="-1.34695">
        <ele>55</ele>
        <time>2021-09-25T09:18:21.000Z</time>
      </trkpt>
      <trkpt lat="47.30106" lon="-1.34716">
        <ele>54</ele>
        <time>2021-09-25T09:18:23.000Z</time>
      </trkpt>
      <trkpt lat="47.30106" lon="-1.34736">
        <ele>54</ele>
        <time>2021-09-25T09:18:25.000Z</time>
      </trkpt>
      <trkpt lat="47.30105" lon="-1.34757">
        <ele>54</ele>
        <time>2021-09-25T09:18:27.000Z</time>
      </trkpt>
      <trkpt lat="47.30105" lon="-1.34779">
        <ele>54</ele>
        <time>2021-09-25T09:18:29.000Z</time>
      </trkpt>
      <trkpt lat="47.30104" lon="-1.348">
        <ele>53</ele>
        <time>2021-09-25T09:18:31.000Z</time>
      </trkpt>
      <trkpt lat="47.30103" lon="-1.34821">
        <ele>53</ele>
        <time>2021-09-25T09:18:33.000Z</time>
      </trkpt>
      <trkpt lat="47.30101" lon="-1.34842">
        <ele>53</ele>
        <time>2021-09-25T09:18:35.000Z</time>
      </trkpt>
      <trkpt lat="47.30098" lon="-1.34862">
        <ele>54</ele>
        <time>2021-09-25T09:18:37.000Z</time>
      </trkpt>
      <trkpt lat="47.30096" lon="-1.34883">
        <ele>54</ele>
        <time>2021-09-25T09:18:39.000Z</time>
      </trkpt>
      <trkpt lat="47.30092" lon="-1.34904">
        <ele>54</ele>
        <time>2021-09-25T09:18:41.000Z</time>
      </trkpt>
      <trkpt lat="47.30088" lon="-1.34925">
        <ele>54</ele>
        <time>2021-09-25T09:18:43.000Z</time>
      </trkpt>
      <trkpt lat="47.30084" lon="-1.34946">
        <ele>54</ele>
        <time>2021-09-25T09:18:45.000Z</time>
      </trkpt>
      <trkpt lat="47.30079" lon="-1.34966">
        <ele>54</ele>
        <time>2021-09-25T09:18:47.000Z</time>
      </trkpt>
      <trkpt lat="47.30074" lon="-1.34986">
        <ele>54</ele>
        <time>2021-09-25T09:18:49.000Z</time>
      </trkpt>
      <trkpt lat="47.30068" lon="-1.35006">
        <ele>54</ele>
        <time>2021-09-25T09:18:51.000Z</time>
      </trkpt>
      <trkpt lat="47.30062" lon="-1.35026">
        <ele>54</ele>
        <time>2021-09-25T09:18:53.000Z</time>
      </trkpt>
      <trkpt lat="47.30055" lon="-1.35046">
        <ele>54</ele>
        <time>2021-09-25T09:18:55.000Z</time>
      </trkpt>
      <trkpt lat="47.30047" lon="-1.35064">
        <ele>54</ele>
        <time>2021-09-25T09:18:57.000Z</time>
      </trkpt>
      <trkpt lat="47.3004" lon="-1.35084">
        <ele>55</ele>
        <time>2021-09-25T09:18:59.000Z</time>
      </trkpt>
      <trkpt lat="47.30031" lon="-1.35103">
        <ele>55</ele>
        <time>2021-09-25T09:19:01.000Z</time>
      </trkpt>
      <trkpt lat="47.30022" lon="-1.35121">
        <ele>55</ele>
        <time>2021-09-25T09:19:03.000Z</time>
      </trkpt>
      <trkpt lat="47.30013" lon="-1.35138">
        <ele>55</ele>
        <time>2021-09-25T09:19:05.000Z</time>
      </trkpt>
      <trkpt lat="47.30003" lon="-1.35156">
        <ele>55</ele>
        <time>2021-09-25T09:19:07.000Z</time>
      </trkpt>
      <trkpt lat="47.29994" lon="-1.35174">
        <ele>55</ele>
        <time>2021-09-25T09:19:09.000Z</time>
      </trkpt>
      <trkpt lat="47.29985" lon="-1.35193">
        <ele>55</ele>
        <time>2021-09-25T09:19:11.000Z</time>
      </trkpt>
      <trkpt lat="47.29976" lon="-1.35211">
        <ele>55</ele>
        <time>2021-09-25T09:19:13.000Z</time>
      </trkpt>
      <trkpt lat="47.29967" lon="-1.35228">
        <ele>55</ele>
        <time>2021-09-25T09:19:15.000Z</time>
      </trkpt>
      <trkpt lat="47.29958" lon="-1.35246">
        <ele>55</ele>
        <time>2021-09-25T09:19:17.000Z</time>
      </trkpt>
      <trkpt lat="47.29949" lon="-1.35263">
        <ele>55</ele>
        <time>2021-09-25T09:19:19.000Z</time>
      </trkpt>
      <trkpt lat="47.2994" lon="-1.35281">
        <ele>55</ele>
        <time>2021-09-25T09:19:21.000Z</time>
      </trkpt>
      <trkpt lat="47.29931" lon="-1.35298">
        <ele>55</ele>
        <time>2021-09-25T09:19:23.000Z</time>
      </trkpt>
      <trkpt lat="47.29921" lon="-1.35315">
        <ele>55</ele>
        <time>2021-09-25T09:19:25.000Z</time>
      </trkpt>
      <trkpt lat="47.29912" lon="-1.35333">
        <ele>55</ele>
        <time>2021-09-25T09:19:27.000Z</time>
      </trkpt>
      <trkpt lat="47.29903" lon="-1.35351">
        <ele>55</ele>
        <time>2021-09-25T09:19:29.000Z</time>
      </trkpt>
      <trkpt lat="47.29894" lon="-1.35368">
        <ele>55</ele>
        <time>2021-09-25T09:19:31.000Z</time>
      </trkpt>
      <trkpt lat="47.29886" lon="-1.35384">
        <ele>55</ele>
        <time>2021-09-25T09:19:33.000Z</time>
      </trkpt>
      <trkpt lat="47.29876" lon="-1.35402">
        <ele>56</ele>
        <time>2021-09-25T09:19:35.000Z</time>
      </trkpt>
      <trkpt lat="47.29868" lon="-1.35419">
        <ele>56</ele>
        <time>2021-09-25T09:19:37.000Z</time>
      </trkpt>
      <trkpt lat="47.29859" lon="-1.35436">
        <ele>56</ele>
        <time>2021-09-25T09:19:39.000Z</time>
      </trkpt>
      <trkpt lat="47.2985" lon="-1.35453">
        <ele>56</ele>
        <time>2021-09-25T09:19:41.000Z</time>
      </trkpt>
      <trkpt lat="47.29841" lon="-1.35471">
        <ele>56</ele>
        <time>2021-09-25T09:19:43.000Z</time>
      </trkpt>
      <trkpt lat="47.29832" lon="-1.35488">
        <ele>56</ele>
        <time>2021-09-25T09:19:45.000Z</time>
      </trkpt>
      <trkpt lat="47.29823" lon="-1.35505">
        <ele>56</ele>
        <time>2021-09-25T09:19:47.000Z</time>
      </trkpt>
      <trkpt lat="47.29814" lon="-1.35523">
        <ele>57</ele>
        <time>2021-09-25T09:19:49.000Z</time>
      </trkpt>
      <trkpt lat="47.29805" lon="-1.3554">
        <ele>57</ele>
        <time>2021-09-25T09:19:51.000Z</time>
      </trkpt>
      <trkpt lat="47.29796" lon="-1.35558">
        <ele>57</ele>
        <time>2021-09-25T09:19:53.000Z</time>
      </trkpt>
      <trkpt lat="47.29787" lon="-1.35575">
        <ele>57</ele>
        <time>2021-09-25T09:19:55.000Z</time>
      </trkpt>
      <trkpt lat="47.29778" lon="-1.35592">
        <ele>56</ele>
        <time>2021-09-25T09:19:57.000Z</time>
      </trkpt>
      <trkpt lat="47.2977" lon="-1.35608">
        <ele>57</ele>
        <time>2021-09-25T09:19:59.000Z</time>
      </trkpt>
      <trkpt lat="47.29762" lon="-1.35625">
        <ele>56</ele>
        <time>2021-09-25T09:20:01.000Z</time>
      </trkpt>
      <trkpt lat="47.29753" lon="-1.35641">
        <ele>57</ele>
        <time>2021-09-25T09:20:03.000Z</time>
      </trkpt>
      <trkpt lat="47.29745" lon="-1.35658">
        <ele>56</ele>
        <time>2021-09-25T09:20:05.000Z</time>
      </trkpt>
      <trkpt lat="47.29736" lon="-1.35675">
        <ele>56</ele>
        <time>2021-09-25T09:20:07.000Z</time>
      </trkpt>
      <trkpt lat="47.29727" lon="-1.35692">
        <ele>56</ele>
        <time>2021-09-25T09:20:09.000Z</time>
      </trkpt>
      <trkpt lat="47.29718" lon="-1.35709">
        <ele>56</ele>
        <time>2021-09-25T09:20:11.000Z</time>
      </trkpt>
      <trkpt lat="47.2971" lon="-1.35726">
        <ele>56</ele>
        <time>2021-09-25T09:20:13.000Z</time>
      </trkpt>
      <trkpt lat="47.29701" lon="-1.35743">
        <ele>56</ele>
        <time>2021-09-25T09:20:15.000Z</time>
      </trkpt>
      <trkpt lat="47.29692" lon="-1.35759">
        <ele>56</ele>
        <time>2021-09-25T09:20:17.000Z</time>
      </trkpt>
      <trkpt lat="47.29683" lon="-1.35776">
        <ele>56</ele>
        <time>2021-09-25T09:20:19.000Z</time>
      </trkpt>
      <trkpt lat="47.29675" lon="-1.35793">
        <ele>56</ele>
        <time>2021-09-25T09:20:21.000Z</time>
      </trkpt>
      <trkpt lat="47.29666" lon="-1.35809">
        <ele>56</ele>
        <time>2021-09-25T09:20:23.000Z</time>
      </trkpt>
      <trkpt lat="47.29658" lon="-1.35826">
        <ele>56</ele>
        <time>2021-09-25T09:20:25.000Z</time>
      </trkpt>
      <trkpt lat="47.29649" lon="-1.35843">
        <ele>56</ele>
        <time>2021-09-25T09:20:27.000Z</time>
      </trkpt>
      <trkpt lat="47.2964" lon="-1.3586">
        <ele>57</ele>
        <time>2021-09-25T09:20:29.000Z</time>
      </trkpt>
      <trkpt lat="47.29632" lon="-1.35877">
        <ele>57</ele>
        <time>2021-09-25T09:20:31.000Z</time>
      </trkpt>
      <trkpt lat="47.29623" lon="-1.35894">
        <ele>57</ele>
        <time>2021-09-25T09:20:33.000Z</time>
      </trkpt>
      <trkpt lat="47.29614" lon="-1.35911">
        <ele>57</ele>
        <time>2021-09-25T09:20:35.000Z</time>
      </trkpt>
      <trkpt lat="47.29606" lon="-1.35927">
        <ele>57</ele>
        <time>2021-09-25T09:20:37.000Z</time>
      </trkpt>
      <trkpt lat="47.29597" lon="-1.35944">
        <ele>57</ele>
        <time>2021-09-25T09:20:39.000Z</time>
      </trkpt>
      <trkpt lat="47.29588" lon="-1.35961">
        <ele>57</ele>
        <time>2021-09-25T09:20:41.000Z</time>
      </trkpt>
      <trkpt lat="47.29579" lon="-1.35977">
        <ele>57</ele>
        <time>2021-09-25T09:20:43.000Z</time>
      </trkpt>
      <trkpt lat="47.29571" lon="-1.35994">
        <ele>57</ele>
        <time>2021-09-25T09:20:45.000Z</time>
      </trkpt>
      <trkpt lat="47.29563" lon="-1.3601">
        <ele>57</ele>
        <time>2021-09-25T09:20:47.000Z</time>
      </trkpt>
      <trkpt lat="47.29554" lon="-1.36027">
        <ele>57</ele>
        <time>2021-09-25T09:20:49.000Z</time>
      </trkpt>
      <trkpt lat="47.29546" lon="-1.36043">
        <ele>57</ele>
        <time>2021-09-25T09:20:51.000Z</time>
      </trkpt>
      <trkpt lat="47.29537" lon="-1.3606">
        <ele>57</ele>
        <time>2021-09-25T09:20:53.000Z</time>
      </trkpt>
      <trkpt lat="47.29529" lon="-1.36076">
        <ele>57</ele>
        <time>2021-09-25T09:20:55.000Z</time>
      </trkpt>
      <trkpt lat="47.2952" lon="-1.36093">
        <ele>57</ele>
        <time>2021-09-25T09:20:57.000Z</time>
      </trkpt>
      <trkpt lat="47.29511" lon="-1.3611">
        <ele>57</ele>
        <time>2021-09-25T09:20:59.000Z</time>
      </trkpt>
      <trkpt lat="47.29503" lon="-1.36127">
        <ele>57</ele>
        <time>2021-09-25T09:21:01.000Z</time>
      </trkpt>
      <trkpt lat="47.29495" lon="-1.36143">
        <ele>56</ele>
        <time>2021-09-25T09:21:03.000Z</time>
      </trkpt>
      <trkpt lat="47.29486" lon="-1.36159">
        <ele>56</ele>
        <time>2021-09-25T09:21:05.000Z</time>
      </trkpt>
      <trkpt lat="47.29477" lon="-1.36176">
        <ele>56</ele>
        <time>2021-09-25T09:21:07.000Z</time>
      </trkpt>
      <trkpt lat="47.29469" lon="-1.36193">
        <ele>56</ele>
        <time>2021-09-25T09:21:09.000Z</time>
      </trkpt>
      <trkpt lat="47.2946" lon="-1.36209">
        <ele>56</ele>
        <time>2021-09-25T09:21:11.000Z</time>
      </trkpt>
      <trkpt lat="47.29451" lon="-1.36225">
        <ele>57</ele>
        <time>2021-09-25T09:21:13.000Z</time>
      </trkpt>
      <trkpt lat="47.29443" lon="-1.36241">
        <ele>57</ele>
        <time>2021-09-25T09:21:15.000Z</time>
      </trkpt>
      <trkpt lat="47.29435" lon="-1.36257">
        <ele>56</ele>
        <time>2021-09-25T09:21:17.000Z</time>
      </trkpt>
      <trkpt lat="47.29426" lon="-1.36274">
        <ele>56</ele>
        <time>2021-09-25T09:21:19.000Z</time>
      </trkpt>
      <trkpt lat="47.29417" lon="-1.3629">
        <ele>56</ele>
        <time>2021-09-25T09:21:21.000Z</time>
      </trkpt>
      <trkpt lat="47.29409" lon="-1.36307">
        <ele>56</ele>
        <time>2021-09-25T09:21:23.000Z</time>
      </trkpt>
      <trkpt lat="47.294" lon="-1.36324">
        <ele>56</ele>
        <time>2021-09-25T09:21:25.000Z</time>
      </trkpt>
      <trkpt lat="47.29391" lon="-1.36342">
        <ele>56</ele>
        <time>2021-09-25T09:21:27.000Z</time>
      </trkpt>
      <trkpt lat="47.29382" lon="-1.3636">
        <ele>56</ele>
        <time>2021-09-25T09:21:29.000Z</time>
      </trkpt>
      <trkpt lat="47.29372" lon="-1.36378">
        <ele>56</ele>
        <time>2021-09-25T09:21:31.000Z</time>
      </trkpt>
      <trkpt lat="47.29363" lon="-1.36396">
        <ele>56</ele>
        <time>2021-09-25T09:21:33.000Z</time>
      </trkpt>
      <trkpt lat="47.29353" lon="-1.36414">
        <ele>56</ele>
        <time>2021-09-25T09:21:35.000Z</time>
      </trkpt>
      <trkpt lat="47.29344" lon="-1.36432">
        <ele>57</ele>
        <time>2021-09-25T09:21:37.000Z</time>
      </trkpt>
      <trkpt lat="47.29335" lon="-1.3645">
        <ele>57</ele>
        <time>2021-09-25T09:21:39.000Z</time>
      </trkpt>
      <trkpt lat="47.29325" lon="-1.36469">
        <ele>57</ele>
        <time>2021-09-25T09:21:41.000Z</time>
      </trkpt>
      <trkpt lat="47.29316" lon="-1.36487">
        <ele>57</ele>
        <time>2021-09-25T09:21:43.000Z</time>
      </trkpt>
      <trkpt lat="47.29306" lon="-1.36506">
        <ele>57</ele>
        <time>2021-09-25T09:21:45.000Z</time>
      </trkpt>
      <trkpt lat="47.29297" lon="-1.36524">
        <ele>57</ele>
        <time>2021-09-25T09:21:47.000Z</time>
      </trkpt>
      <trkpt lat="47.29287" lon="-1.36542">
        <ele>57</ele>
        <time>2021-09-25T09:21:49.000Z</time>
      </trkpt>
      <trkpt lat="47.29278" lon="-1.36561">
        <ele>57</ele>
        <time>2021-09-25T09:21:51.000Z</time>
      </trkpt>
      <trkpt lat="47.29268" lon="-1.36579">
        <ele>57</ele>
        <time>2021-09-25T09:21:53.000Z</time>
      </trkpt>
      <trkpt lat="47.29259" lon="-1.36598">
        <ele>57</ele>
        <time>2021-09-25T09:21:55.000Z</time>
      </trkpt>
      <trkpt lat="47.2925" lon="-1.36615">
        <ele>57</ele>
        <time>2021-09-25T09:21:57.000Z</time>
      </trkpt>
      <trkpt lat="47.2924" lon="-1.36634">
        <ele>56</ele>
        <time>2021-09-25T09:21:59.000Z</time>
      </trkpt>
      <trkpt lat="47.29231" lon="-1.36652">
        <ele>56</ele>
        <time>2021-09-25T09:22:01.000Z</time>
      </trkpt>
      <trkpt lat="47.29221" lon="-1.3667">
        <ele>56</ele>
        <time>2021-09-25T09:22:03.000Z</time>
      </trkpt>
      <trkpt lat="47.29212" lon="-1.36688">
        <ele>56</ele>
        <time>2021-09-25T09:22:05.000Z</time>
      </trkpt>
      <trkpt lat="47.29203" lon="-1.36706">
        <ele>56</ele>
        <time>2021-09-25T09:22:07.000Z</time>
      </trkpt>
      <trkpt lat="47.29193" lon="-1.36724">
        <ele>56</ele>
        <time>2021-09-25T09:22:09.000Z</time>
      </trkpt>
      <trkpt lat="47.29184" lon="-1.36742">
        <ele>56</ele>
        <time>2021-09-25T09:22:11.000Z</time>
      </trkpt>
      <trkpt lat="47.29175" lon="-1.3676">
        <ele>56</ele>
        <time>2021-09-25T09:22:13.000Z</time>
      </trkpt>
      <trkpt lat="47.29166" lon="-1.36777">
        <ele>56</ele>
        <time>2021-09-25T09:22:15.000Z</time>
      </trkpt>
      <trkpt lat="47.29157" lon="-1.36795">
        <ele>56</ele>
        <time>2021-09-25T09:22:17.000Z</time>
      </trkpt>
      <trkpt lat="47.29148" lon="-1.36812">
        <ele>56</ele>
        <time>2021-09-25T09:22:19.000Z</time>
      </trkpt>
      <trkpt lat="47.29139" lon="-1.3683">
        <ele>56</ele>
        <time>2021-09-25T09:22:21.000Z</time>
      </trkpt>
      <trkpt lat="47.2913" lon="-1.36847">
        <ele>56</ele>
        <time>2021-09-25T09:22:23.000Z</time>
      </trkpt>
      <trkpt lat="47.29121" lon="-1.36865">
        <ele>56</ele>
        <time>2021-09-25T09:22:25.000Z</time>
      </trkpt>
      <trkpt lat="47.29112" lon="-1.36883">
        <ele>56</ele>
        <time>2021-09-25T09:22:27.000Z</time>
      </trkpt>
      <trkpt lat="47.29103" lon="-1.36901">
        <ele>56</ele>
        <time>2021-09-25T09:22:29.000Z</time>
      </trkpt>
      <trkpt lat="47.29093" lon="-1.3692">
        <ele>56</ele>
        <time>2021-09-25T09:22:31.000Z</time>
      </trkpt>
      <trkpt lat="47.29083" lon="-1.36938">
        <ele>56</ele>
        <time>2021-09-25T09:22:33.000Z</time>
      </trkpt>
      <trkpt lat="47.29074" lon="-1.36957">
        <ele>56</ele>
        <time>2021-09-25T09:22:35.000Z</time>
      </trkpt>
      <trkpt lat="47.29064" lon="-1.36975">
        <ele>56</ele>
        <time>2021-09-25T09:22:37.000Z</time>
      </trkpt>
      <trkpt lat="47.29054" lon="-1.36994">
        <ele>56</ele>
        <time>2021-09-25T09:22:39.000Z</time>
      </trkpt>
      <trkpt lat="47.29045" lon="-1.37013">
        <ele>56</ele>
        <time>2021-09-25T09:22:41.000Z</time>
      </trkpt>
      <trkpt lat="47.29035" lon="-1.37031">
        <ele>56</ele>
        <time>2021-09-25T09:22:43.000Z</time>
      </trkpt>
      <trkpt lat="47.29026" lon="-1.37049">
        <ele>57</ele>
        <time>2021-09-25T09:22:45.000Z</time>
      </trkpt>
      <trkpt lat="47.29017" lon="-1.37066">
        <ele>57</ele>
        <time>2021-09-25T09:22:47.000Z</time>
      </trkpt>
      <trkpt lat="47.29008" lon="-1.37084">
        <ele>56</ele>
        <time>2021-09-25T09:22:49.000Z</time>
      </trkpt>
      <trkpt lat="47.29" lon="-1.37102">
        <ele>56</ele>
        <time>2021-09-25T09:22:51.000Z</time>
      </trkpt>
      <trkpt lat="47.28991" lon="-1.3712">
        <ele>56</ele>
        <time>2021-09-25T09:22:53.000Z</time>
      </trkpt>
      <trkpt lat="47.28983" lon="-1.37138">
        <ele>56</ele>
        <time>2021-09-25T09:22:55.000Z</time>
      </trkpt>
      <trkpt lat="47.28976" lon="-1.37157">
        <ele>56</ele>
        <time>2021-09-25T09:22:57.000Z</time>
      </trkpt>
      <trkpt lat="47.28968" lon="-1.37175">
        <ele>55</ele>
        <time>2021-09-25T09:22:59.000Z</time>
      </trkpt>
      <trkpt lat="47.28961" lon="-1.37193">
        <ele>55</ele>
        <time>2021-09-25T09:23:01.000Z</time>
      </trkpt>
      <trkpt lat="47.28953" lon="-1.37212">
        <ele>56</ele>
        <time>2021-09-25T09:23:03.000Z</time>
      </trkpt>
      <trkpt lat="47.28946" lon="-1.37231">
        <ele>56</ele>
        <time>2021-09-25T09:23:05.000Z</time>
      </trkpt>
      <trkpt lat="47.2894" lon="-1.3725">
        <ele>56</ele>
        <time>2021-09-25T09:23:07.000Z</time>
      </trkpt>
      <trkpt lat="47.28933" lon="-1.3727">
        <ele>55</ele>
        <time>2021-09-25T09:23:09.000Z</time>
      </trkpt>
      <trkpt lat="47.28927" lon="-1.37289">
        <ele>55</ele>
        <time>2021-09-25T09:23:11.000Z</time>
      </trkpt>
      <trkpt lat="47.28922" lon="-1.37308">
        <ele>55</ele>
        <time>2021-09-25T09:23:13.000Z</time>
      </trkpt>
      <trkpt lat="47.28916" lon="-1.37328">
        <ele>55</ele>
        <time>2021-09-25T09:23:15.000Z</time>
      </trkpt>
      <trkpt lat="47.2891" lon="-1.37348">
        <ele>55</ele>
        <time>2021-09-25T09:23:17.000Z</time>
      </trkpt>
      <trkpt lat="47.28904" lon="-1.37366">
        <ele>55</ele>
        <time>2021-09-25T09:23:19.000Z</time>
      </trkpt>
      <trkpt lat="47.28898" lon="-1.37386">
        <ele>55</ele>
        <time>2021-09-25T09:23:21.000Z</time>
      </trkpt>
      <trkpt lat="47.28892" lon="-1.37404">
        <ele>55</ele>
        <time>2021-09-25T09:23:23.000Z</time>
      </trkpt>
      <trkpt lat="47.28887" lon="-1.37423">
        <ele>56</ele>
        <time>2021-09-25T09:23:25.000Z</time>
      </trkpt>
      <trkpt lat="47.2888" lon="-1.37442">
        <ele>56</ele>
        <time>2021-09-25T09:23:27.000Z</time>
      </trkpt>
      <trkpt lat="47.28874" lon="-1.37461">
        <ele>56</ele>
        <time>2021-09-25T09:23:29.000Z</time>
      </trkpt>
      <trkpt lat="47.28868" lon="-1.37481">
        <ele>55</ele>
        <time>2021-09-25T09:23:31.000Z</time>
      </trkpt>
      <trkpt lat="47.28862" lon="-1.37499">
        <ele>55</ele>
        <time>2021-09-25T09:23:33.000Z</time>
      </trkpt>
      <trkpt lat="47.28856" lon="-1.37518">
        <ele>56</ele>
        <time>2021-09-25T09:23:35.000Z</time>
      </trkpt>
      <trkpt lat="47.2885" lon="-1.37536">
        <ele>56</ele>
        <time>2021-09-25T09:23:37.000Z</time>
      </trkpt>
      <trkpt lat="47.28844" lon="-1.37554">
        <ele>56</ele>
        <time>2021-09-25T09:23:39.000Z</time>
      </trkpt>
      <trkpt lat="47.28841" lon="-1.37571">
        <ele>56</ele>
        <time>2021-09-25T09:23:41.000Z</time>
      </trkpt>
      <trkpt lat="47.28844" lon="-1.37588">
        <ele>56</ele>
        <time>2021-09-25T09:23:43.000Z</time>
      </trkpt>
      <trkpt lat="47.28851" lon="-1.37599">
        <ele>56</ele>
        <time>2021-09-25T09:23:45.000Z</time>
      </trkpt>
      <trkpt lat="47.2886" lon="-1.37609">
        <ele>56</ele>
        <time>2021-09-25T09:23:47.000Z</time>
      </trkpt>
      <trkpt lat="47.2887" lon="-1.37621">
        <ele>57</ele>
        <time>2021-09-25T09:23:49.000Z</time>
      </trkpt>
      <trkpt lat="47.2888" lon="-1.37632">
        <ele>57</ele>
        <time>2021-09-25T09:23:51.000Z</time>
      </trkpt>
      <trkpt lat="47.2889" lon="-1.37645">
        <ele>58</ele>
        <time>2021-09-25T09:23:53.000Z</time>
      </trkpt>
      <trkpt lat="47.28899" lon="-1.37657">
        <ele>58</ele>
        <time>2021-09-25T09:23:55.000Z</time>
      </trkpt>
      <trkpt lat="47.28908" lon="-1.37667">
        <ele>59</ele>
        <time>2021-09-25T09:23:57.000Z</time>
      </trkpt>
      <trkpt lat="47.28916" lon="-1.37679">
        <ele>58</ele>
        <time>2021-09-25T09:23:59.000Z</time>
      </trkpt>
      <trkpt lat="47.28926" lon="-1.37692">
        <ele>57</ele>
        <time>2021-09-25T09:24:01.000Z</time>
      </trkpt>
      <trkpt lat="47.28937" lon="-1.37706">
        <ele>56</ele>
        <time>2021-09-25T09:24:03.000Z</time>
      </trkpt>
      <trkpt lat="47.28948" lon="-1.3772">
        <ele>56</ele>
        <time>2021-09-25T09:24:05.000Z</time>
      </trkpt>
      <trkpt lat="47.2896" lon="-1.37735">
        <ele>56</ele>
        <time>2021-09-25T09:24:07.000Z</time>
      </trkpt>
      <trkpt lat="47.2897" lon="-1.37748">
        <ele>55</ele>
        <time>2021-09-25T09:24:09.000Z</time>
      </trkpt>
      <trkpt lat="47.28981" lon="-1.37762">
        <ele>55</ele>
        <time>2021-09-25T09:24:11.000Z</time>
      </trkpt>
      <trkpt lat="47.28991" lon="-1.37776">
        <ele>55</ele>
        <time>2021-09-25T09:24:13.000Z</time>
      </trkpt>
      <trkpt lat="47.29002" lon="-1.37791">
        <ele>54</ele>
        <time>2021-09-25T09:24:15.000Z</time>
      </trkpt>
      <trkpt lat="47.29013" lon="-1.37803">
        <ele>54</ele>
        <time>2021-09-25T09:24:17.000Z</time>
      </trkpt>
      <trkpt lat="47.29025" lon="-1.37815">
        <ele>55</ele>
        <time>2021-09-25T09:24:19.000Z</time>
      </trkpt>
      <trkpt lat="47.29036" lon="-1.37828">
        <ele>55</ele>
        <time>2021-09-25T09:24:21.000Z</time>
      </trkpt>
      <trkpt lat="47.29047" lon="-1.37842">
        <ele>55</ele>
        <time>2021-09-25T09:24:23.000Z</time>
      </trkpt>
      <trkpt lat="47.29058" lon="-1.37856">
        <ele>55</ele>
        <time>2021-09-25T09:24:25.000Z</time>
      </trkpt>
      <trkpt lat="47.29068" lon="-1.37869">
        <ele>55</ele>
        <time>2021-09-25T09:24:27.000Z</time>
      </trkpt>
      <trkpt lat="47.29079" lon="-1.37881">
        <ele>55</ele>
        <time>2021-09-25T09:24:29.000Z</time>
      </trkpt>
      <trkpt lat="47.2909" lon="-1.37893">
        <ele>56</ele>
        <time>2021-09-25T09:24:31.000Z</time>
      </trkpt>
      <trkpt lat="47.291" lon="-1.37904">
        <ele>56</ele>
        <time>2021-09-25T09:24:33.000Z</time>
      </trkpt>
      <trkpt lat="47.2911" lon="-1.37916">
        <ele>56</ele>
        <time>2021-09-25T09:24:35.000Z</time>
      </trkpt>
      <trkpt lat="47.29121" lon="-1.37928">
        <ele>56</ele>
        <time>2021-09-25T09:24:37.000Z</time>
      </trkpt>
      <trkpt lat="47.29131" lon="-1.37941">
        <ele>57</ele>
        <time>2021-09-25T09:24:39.000Z</time>
      </trkpt>
      <trkpt lat="47.29141" lon="-1.37953">
        <ele>58</ele>
        <time>2021-09-25T09:24:41.000Z</time>
      </trkpt>
      <trkpt lat="47.29151" lon="-1.37965">
        <ele>58</ele>
        <time>2021-09-25T09:24:43.000Z</time>
      </trkpt>
      <trkpt lat="47.29161" lon="-1.37977">
        <ele>59</ele>
        <time>2021-09-25T09:24:45.000Z</time>
      </trkpt>
      <trkpt lat="47.29171" lon="-1.3799">
        <ele>59</ele>
        <time>2021-09-25T09:24:47.000Z</time>
      </trkpt>
      <trkpt lat="47.2918" lon="-1.38001">
        <ele>60</ele>
        <time>2021-09-25T09:24:49.000Z</time>
      </trkpt>
      <trkpt lat="47.2919" lon="-1.38013">
        <ele>60</ele>
        <time>2021-09-25T09:24:51.000Z</time>
      </trkpt>
      <trkpt lat="47.292" lon="-1.38024">
        <ele>61</ele>
        <time>2021-09-25T09:24:53.000Z</time>
      </trkpt>
      <trkpt lat="47.2921" lon="-1.38037">
        <ele>61</ele>
        <time>2021-09-25T09:24:55.000Z</time>
      </trkpt>
      <trkpt lat="47.2922" lon="-1.3805">
        <ele>61</ele>
        <time>2021-09-25T09:24:57.000Z</time>
      </trkpt>
      <trkpt lat="47.2923" lon="-1.38062">
        <ele>62</ele>
        <time>2021-09-25T09:24:59.000Z</time>
      </trkpt>
      <trkpt lat="47.2924" lon="-1.38074">
        <ele>62</ele>
        <time>2021-09-25T09:25:01.000Z</time>
      </trkpt>
      <trkpt lat="47.2925" lon="-1.38085">
        <ele>63</ele>
        <time>2021-09-25T09:25:03.000Z</time>
      </trkpt>
      <trkpt lat="47.29259" lon="-1.38096">
        <ele>63</ele>
        <time>2021-09-25T09:25:05.000Z</time>
      </trkpt>
      <trkpt lat="47.29269" lon="-1.38107">
        <ele>63</ele>
        <time>2021-09-25T09:25:07.000Z</time>
      </trkpt>
      <trkpt lat="47.29279" lon="-1.38119">
        <ele>63</ele>
        <time>2021-09-25T09:25:09.000Z</time>
      </trkpt>
      <trkpt lat="47.29289" lon="-1.38132">
        <ele>63</ele>
        <time>2021-09-25T09:25:11.000Z</time>
      </trkpt>
      <trkpt lat="47.29299" lon="-1.38144">
        <ele>63</ele>
        <time>2021-09-25T09:25:13.000Z</time>
      </trkpt>
      <trkpt lat="47.29309" lon="-1.38156">
        <ele>63</ele>
        <time>2021-09-25T09:25:15.000Z</time>
      </trkpt>
      <trkpt lat="47.2932" lon="-1.38168">
        <ele>63</ele>
        <time>2021-09-25T09:25:17.000Z</time>
      </trkpt>
      <trkpt lat="47.2933" lon="-1.3818">
        <ele>62</ele>
        <time>2021-09-25T09:25:19.000Z</time>
      </trkpt>
      <trkpt lat="47.2934" lon="-1.38193">
        <ele>62</ele>
        <time>2021-09-25T09:25:21.000Z</time>
      </trkpt>
      <trkpt lat="47.2935" lon="-1.38205">
        <ele>62</ele>
        <time>2021-09-25T09:25:23.000Z</time>
      </trkpt>
      <trkpt lat="47.2936" lon="-1.38217">
        <ele>62</ele>
        <time>2021-09-25T09:25:25.000Z</time>
      </trkpt>
      <trkpt lat="47.2937" lon="-1.38231">
        <ele>63</ele>
        <time>2021-09-25T09:25:27.000Z</time>
      </trkpt>
      <trkpt lat="47.2938" lon="-1.38243">
        <ele>63</ele>
        <time>2021-09-25T09:25:29.000Z</time>
      </trkpt>
      <trkpt lat="47.29391" lon="-1.38256">
        <ele>63</ele>
        <time>2021-09-25T09:25:31.000Z</time>
      </trkpt>
      <trkpt lat="47.29401" lon="-1.38269">
        <ele>63</ele>
        <time>2021-09-25T09:25:33.000Z</time>
      </trkpt>
      <trkpt lat="47.29411" lon="-1.38282">
        <ele>62</ele>
        <time>2021-09-25T09:25:35.000Z</time>
      </trkpt>
      <trkpt lat="47.29422" lon="-1.38294">
        <ele>62</ele>
        <time>2021-09-25T09:25:37.000Z</time>
      </trkpt>
      <trkpt lat="47.29432" lon="-1.38306">
        <ele>61</ele>
        <time>2021-09-25T09:25:39.000Z</time>
      </trkpt>
      <trkpt lat="47.29442" lon="-1.38315">
        <ele>60</ele>
        <time>2021-09-25T09:25:41.000Z</time>
      </trkpt>
      <trkpt lat="47.29444" lon="-1.38329">
        <ele>59</ele>
        <time>2021-09-25T09:25:43.000Z</time>
      </trkpt>
      <trkpt lat="47.29438" lon="-1.38342">
        <ele>59</ele>
        <time>2021-09-25T09:25:45.000Z</time>
      </trkpt>
      <trkpt lat="47.29435" lon="-1.38359">
        <ele>58</ele>
        <time>2021-09-25T09:25:47.000Z</time>
      </trkpt>
      <trkpt lat="47.29432" lon="-1.38379">
        <ele>57</ele>
        <time>2021-09-25T09:25:49.000Z</time>
      </trkpt>
      <trkpt lat="47.29427" lon="-1.38401">
        <ele>56</ele>
        <time>2021-09-25T09:25:51.000Z</time>
      </trkpt>
      <trkpt lat="47.29422" lon="-1.38422">
        <ele>56</ele>
        <time>2021-09-25T09:25:53.000Z</time>
      </trkpt>
      <trkpt lat="47.29416" lon="-1.38444">
        <ele>56</ele>
        <time>2021-09-25T09:25:55.000Z</time>
      </trkpt>
      <trkpt lat="47.29411" lon="-1.38465">
        <ele>55</ele>
        <time>2021-09-25T09:25:57.000Z</time>
      </trkpt>
      <trkpt lat="47.29405" lon="-1.38486">
        <ele>56</ele>
        <time>2021-09-25T09:25:59.000Z</time>
      </trkpt>
      <trkpt lat="47.29397" lon="-1.38504">
        <ele>56</ele>
        <time>2021-09-25T09:26:01.000Z</time>
      </trkpt>
      <trkpt lat="47.29389" lon="-1.38524">
        <ele>56</ele>
        <time>2021-09-25T09:26:03.000Z</time>
      </trkpt>
      <trkpt lat="47.29381" lon="-1.38543">
        <ele>55</ele>
        <time>2021-09-25T09:26:05.000Z</time>
      </trkpt>
      <trkpt lat="47.29373" lon="-1.38562">
        <ele>55</ele>
        <time>2021-09-25T09:26:07.000Z</time>
      </trkpt>
      <trkpt lat="47.29366" lon="-1.38583">
        <ele>54</ele>
        <time>2021-09-25T09:26:09.000Z</time>
      </trkpt>
      <trkpt lat="47.2936" lon="-1.38605">
        <ele>54</ele>
        <time>2021-09-25T09:26:11.000Z</time>
      </trkpt>
      <trkpt lat="47.29353" lon="-1.38626">
        <ele>54</ele>
        <time>2021-09-25T09:26:13.000Z</time>
      </trkpt>
      <trkpt lat="47.29348" lon="-1.38647">
        <ele>54</ele>
        <time>2021-09-25T09:26:15.000Z</time>
      </trkpt>
      <trkpt lat="47.29342" lon="-1.38667">
        <ele>54</ele>
        <time>2021-09-25T09:26:17.000Z</time>
      </trkpt>
      <trkpt lat="47.29336" lon="-1.38686">
        <ele>53</ele>
        <time>2021-09-25T09:26:19.000Z</time>
      </trkpt>
      <trkpt lat="47.29329" lon="-1.38705">
        <ele>53</ele>
        <time>2021-09-25T09:26:21.000Z</time>
      </trkpt>
      <trkpt lat="47.29324" lon="-1.38725">
        <ele>52</ele>
        <time>2021-09-25T09:26:23.000Z</time>
      </trkpt>
      <trkpt lat="47.29321" lon="-1.38745">
        <ele>53</ele>
        <time>2021-09-25T09:26:25.000Z</time>
      </trkpt>
      <trkpt lat="47.29317" lon="-1.38764">
        <ele>54</ele>
        <time>2021-09-25T09:26:27.000Z</time>
      </trkpt>
      <trkpt lat="47.29313" lon="-1.38782">
        <ele>54</ele>
        <time>2021-09-25T09:26:29.000Z</time>
      </trkpt>
      <trkpt lat="47.29307" lon="-1.38801">
        <ele>54</ele>
        <time>2021-09-25T09:26:31.000Z</time>
      </trkpt>
      <trkpt lat="47.29301" lon="-1.3882">
        <ele>54</ele>
        <time>2021-09-25T09:26:33.000Z</time>
      </trkpt>
      <trkpt lat="47.29296" lon="-1.38839">
        <ele>53</ele>
        <time>2021-09-25T09:26:35.000Z</time>
      </trkpt>
      <trkpt lat="47.2929" lon="-1.38859">
        <ele>52</ele>
        <time>2021-09-25T09:26:37.000Z</time>
      </trkpt>
      <trkpt lat="47.29285" lon="-1.38877">
        <ele>52</ele>
        <time>2021-09-25T09:26:39.000Z</time>
      </trkpt>
      <trkpt lat="47.2928" lon="-1.38896">
        <ele>52</ele>
        <time>2021-09-25T09:26:41.000Z</time>
      </trkpt>
      <trkpt lat="47.29276" lon="-1.38915">
        <ele>52</ele>
        <time>2021-09-25T09:26:43.000Z</time>
      </trkpt>
      <trkpt lat="47.2927" lon="-1.38933">
        <ele>52</ele>
        <time>2021-09-25T09:26:45.000Z</time>
      </trkpt>
      <trkpt lat="47.29265" lon="-1.38952">
        <ele>52</ele>
        <time>2021-09-25T09:26:47.000Z</time>
      </trkpt>
      <trkpt lat="47.2926" lon="-1.3897">
        <ele>52</ele>
        <time>2021-09-25T09:26:49.000Z</time>
      </trkpt>
      <trkpt lat="47.29256" lon="-1.38989">
        <ele>52</ele>
        <time>2021-09-25T09:26:51.000Z</time>
      </trkpt>
      <trkpt lat="47.29251" lon="-1.39007">
        <ele>53</ele>
        <time>2021-09-25T09:26:53.000Z</time>
      </trkpt>
      <trkpt lat="47.29246" lon="-1.39027">
        <ele>53</ele>
        <time>2021-09-25T09:26:55.000Z</time>
      </trkpt>
      <trkpt lat="47.29241" lon="-1.39047">
        <ele>53</ele>
        <time>2021-09-25T09:26:57.000Z</time>
      </trkpt>
      <trkpt lat="47.29236" lon="-1.39067">
        <ele>53</ele>
        <time>2021-09-25T09:26:59.000Z</time>
      </trkpt>
      <trkpt lat="47.29229" lon="-1.39086">
        <ele>53</ele>
        <time>2021-09-25T09:27:01.000Z</time>
      </trkpt>
      <trkpt lat="47.2922" lon="-1.39103">
        <ele>53</ele>
        <time>2021-09-25T09:27:03.000Z</time>
      </trkpt>
      <trkpt lat="47.29211" lon="-1.39119">
        <ele>53</ele>
        <time>2021-09-25T09:27:05.000Z</time>
      </trkpt>
      <trkpt lat="47.29201" lon="-1.39133">
        <ele>53</ele>
        <time>2021-09-25T09:27:07.000Z</time>
      </trkpt>
      <trkpt lat="47.2919" lon="-1.39147">
        <ele>54</ele>
        <time>2021-09-25T09:27:09.000Z</time>
      </trkpt>
      <trkpt lat="47.2918" lon="-1.3916">
        <ele>54</ele>
        <time>2021-09-25T09:27:11.000Z</time>
      </trkpt>
      <trkpt lat="47.29169" lon="-1.39172">
        <ele>54</ele>
        <time>2021-09-25T09:27:13.000Z</time>
      </trkpt>
      <trkpt lat="47.29159" lon="-1.39185">
        <ele>54</ele>
        <time>2021-09-25T09:27:15.000Z</time>
      </trkpt>
      <trkpt lat="47.29148" lon="-1.39197">
        <ele>54</ele>
        <time>2021-09-25T09:27:17.000Z</time>
      </trkpt>
      <trkpt lat="47.29137" lon="-1.3921">
        <ele>54</ele>
        <time>2021-09-25T09:27:19.000Z</time>
      </trkpt>
      <trkpt lat="47.29127" lon="-1.39223">
        <ele>53</ele>
        <time>2021-09-25T09:27:21.000Z</time>
      </trkpt>
      <trkpt lat="47.29117" lon="-1.39236">
        <ele>53</ele>
        <time>2021-09-25T09:27:23.000Z</time>
      </trkpt>
      <trkpt lat="47.29107" lon="-1.39249">
        <ele>54</ele>
        <time>2021-09-25T09:27:25.000Z</time>
      </trkpt>
      <trkpt lat="47.29098" lon="-1.39263">
        <ele>54</ele>
        <time>2021-09-25T09:27:27.000Z</time>
      </trkpt>
      <trkpt lat="47.2909" lon="-1.39278">
        <ele>54</ele>
        <time>2021-09-25T09:27:29.000Z</time>
      </trkpt>
      <trkpt lat="47.29082" lon="-1.39292">
        <ele>53</ele>
        <time>2021-09-25T09:27:31.000Z</time>
      </trkpt>
      <trkpt lat="47.29072" lon="-1.39304">
        <ele>53</ele>
        <time>2021-09-25T09:27:33.000Z</time>
      </trkpt>
      <trkpt lat="47.2906" lon="-1.39314">
        <ele>53</ele>
        <time>2021-09-25T09:27:35.000Z</time>
      </trkpt>
      <trkpt lat="47.2905" lon="-1.39324">
        <ele>53</ele>
        <time>2021-09-25T09:27:37.000Z</time>
      </trkpt>
      <trkpt lat="47.2904" lon="-1.39336">
        <ele>54</ele>
        <time>2021-09-25T09:27:39.000Z</time>
      </trkpt>
      <trkpt lat="47.29031" lon="-1.39348">
        <ele>54</ele>
        <time>2021-09-25T09:27:41.000Z</time>
      </trkpt>
      <trkpt lat="47.29021" lon="-1.39359">
        <ele>55</ele>
        <time>2021-09-25T09:27:43.000Z</time>
      </trkpt>
      <trkpt lat="47.29009" lon="-1.39379">
        <ele>54</ele>
        <time>2021-09-25T09:27:46.000Z</time>
      </trkpt>
      <trkpt lat="47.29" lon="-1.39392">
        <ele>54</ele>
        <time>2021-09-25T09:27:48.000Z</time>
      </trkpt>
      <trkpt lat="47.28985" lon="-1.39411">
        <ele>54</ele>
        <time>2021-09-25T09:27:51.000Z</time>
      </trkpt>
      <trkpt lat="47.28974" lon="-1.39424">
        <ele>54</ele>
        <time>2021-09-25T09:27:53.000Z</time>
      </trkpt>
      <trkpt lat="47.28964" lon="-1.39436">
        <ele>54</ele>
        <time>2021-09-25T09:27:55.000Z</time>
      </trkpt>
      <trkpt lat="47.28949" lon="-1.39455">
        <ele>54</ele>
        <time>2021-09-25T09:27:58.000Z</time>
      </trkpt>
      <trkpt lat="47.28938" lon="-1.39467">
        <ele>54</ele>
        <time>2021-09-25T09:28:00.000Z</time>
      </trkpt>
      <trkpt lat="47.28922" lon="-1.39486">
        <ele>55</ele>
        <time>2021-09-25T09:28:03.000Z</time>
      </trkpt>
      <trkpt lat="47.28911" lon="-1.39498">
        <ele>54</ele>
        <time>2021-09-25T09:28:05.000Z</time>
      </trkpt>
      <trkpt lat="47.28901" lon="-1.3951">
        <ele>54</ele>
        <time>2021-09-25T09:28:07.000Z</time>
      </trkpt>
      <trkpt lat="47.28891" lon="-1.39522">
        <ele>54</ele>
        <time>2021-09-25T09:28:09.000Z</time>
      </trkpt>
      <trkpt lat="47.28882" lon="-1.39534">
        <ele>54</ele>
        <time>2021-09-25T09:28:11.000Z</time>
      </trkpt>
      <trkpt lat="47.28872" lon="-1.39546">
        <ele>54</ele>
        <time>2021-09-25T09:28:13.000Z</time>
      </trkpt>
      <trkpt lat="47.28862" lon="-1.39557">
        <ele>54</ele>
        <time>2021-09-25T09:28:15.000Z</time>
      </trkpt>
      <trkpt lat="47.28852" lon="-1.3957">
        <ele>54</ele>
        <time>2021-09-25T09:28:17.000Z</time>
      </trkpt>
      <trkpt lat="47.28841" lon="-1.39582">
        <ele>54</ele>
        <time>2021-09-25T09:28:19.000Z</time>
      </trkpt>
      <trkpt lat="47.28831" lon="-1.39595">
        <ele>54</ele>
        <time>2021-09-25T09:28:21.000Z</time>
      </trkpt>
      <trkpt lat="47.28821" lon="-1.39607">
        <ele>54</ele>
        <time>2021-09-25T09:28:23.000Z</time>
      </trkpt>
      <trkpt lat="47.28811" lon="-1.39619">
        <ele>54</ele>
        <time>2021-09-25T09:28:25.000Z</time>
      </trkpt>
      <trkpt lat="47.28801" lon="-1.39632">
        <ele>55</ele>
        <time>2021-09-25T09:28:27.000Z</time>
      </trkpt>
      <trkpt lat="47.28791" lon="-1.39644">
        <ele>55</ele>
        <time>2021-09-25T09:28:29.000Z</time>
      </trkpt>
      <trkpt lat="47.2878" lon="-1.39657">
        <ele>55</ele>
        <time>2021-09-25T09:28:31.000Z</time>
      </trkpt>
      <trkpt lat="47.2877" lon="-1.39669">
        <ele>55</ele>
        <time>2021-09-25T09:28:33.000Z</time>
      </trkpt>
      <trkpt lat="47.2876" lon="-1.3968">
        <ele>55</ele>
        <time>2021-09-25T09:28:35.000Z</time>
      </trkpt>
      <trkpt lat="47.2875" lon="-1.39692">
        <ele>55</ele>
        <time>2021-09-25T09:28:37.000Z</time>
      </trkpt>
      <trkpt lat="47.2874" lon="-1.39706">
        <ele>55</ele>
        <time>2021-09-25T09:28:39.000Z</time>
      </trkpt>
      <trkpt lat="47.2873" lon="-1.39718">
        <ele>55</ele>
        <time>2021-09-25T09:28:41.000Z</time>
      </trkpt>
      <trkpt lat="47.2872" lon="-1.3973">
        <ele>55</ele>
        <time>2021-09-25T09:28:43.000Z</time>
      </trkpt>
      <trkpt lat="47.2871" lon="-1.39742">
        <ele>55</ele>
        <time>2021-09-25T09:28:45.000Z</time>
      </trkpt>
      <trkpt lat="47.287" lon="-1.39754">
        <ele>55</ele>
        <time>2021-09-25T09:28:47.000Z</time>
      </trkpt>
      <trkpt lat="47.2869" lon="-1.39766">
        <ele>55</ele>
        <time>2021-09-25T09:28:49.000Z</time>
      </trkpt>
      <trkpt lat="47.2868" lon="-1.39778">
        <ele>55</ele>
        <time>2021-09-25T09:28:51.000Z</time>
      </trkpt>
      <trkpt lat="47.28671" lon="-1.39791">
        <ele>55</ele>
        <time>2021-09-25T09:28:53.000Z</time>
      </trkpt>
      <trkpt lat="47.28662" lon="-1.39805">
        <ele>54</ele>
        <time>2021-09-25T09:28:55.000Z</time>
      </trkpt>
      <trkpt lat="47.28653" lon="-1.3982">
        <ele>54</ele>
        <time>2021-09-25T09:28:57.000Z</time>
      </trkpt>
      <trkpt lat="47.28644" lon="-1.39833">
        <ele>54</ele>
        <time>2021-09-25T09:28:59.000Z</time>
      </trkpt>
      <trkpt lat="47.28635" lon="-1.39848">
        <ele>54</ele>
        <time>2021-09-25T09:29:01.000Z</time>
      </trkpt>
      <trkpt lat="47.28626" lon="-1.39863">
        <ele>54</ele>
        <time>2021-09-25T09:29:03.000Z</time>
      </trkpt>
      <trkpt lat="47.28616" lon="-1.39877">
        <ele>54</ele>
        <time>2021-09-25T09:29:05.000Z</time>
      </trkpt>
      <trkpt lat="47.28607" lon="-1.39891">
        <ele>54</ele>
        <time>2021-09-25T09:29:07.000Z</time>
      </trkpt>
      <trkpt lat="47.28598" lon="-1.39904">
        <ele>55</ele>
        <time>2021-09-25T09:29:09.000Z</time>
      </trkpt>
      <trkpt lat="47.28588" lon="-1.39918">
        <ele>54</ele>
        <time>2021-09-25T09:29:11.000Z</time>
      </trkpt>
      <trkpt lat="47.28578" lon="-1.39931">
        <ele>54</ele>
        <time>2021-09-25T09:29:13.000Z</time>
      </trkpt>
      <trkpt lat="47.28568" lon="-1.39944">
        <ele>54</ele>
        <time>2021-09-25T09:29:15.000Z</time>
      </trkpt>
      <trkpt lat="47.28559" lon="-1.39958">
        <ele>54</ele>
        <time>2021-09-25T09:29:17.000Z</time>
      </trkpt>
      <trkpt lat="47.28549" lon="-1.39973">
        <ele>54</ele>
        <time>2021-09-25T09:29:19.000Z</time>
      </trkpt>
      <trkpt lat="47.28539" lon="-1.39988">
        <ele>54</ele>
        <time>2021-09-25T09:29:21.000Z</time>
      </trkpt>
      <trkpt lat="47.28529" lon="-1.40002">
        <ele>53</ele>
        <time>2021-09-25T09:29:23.000Z</time>
      </trkpt>
      <trkpt lat="47.28521" lon="-1.40016">
        <ele>54</ele>
        <time>2021-09-25T09:29:25.000Z</time>
      </trkpt>
      <trkpt lat="47.28511" lon="-1.40031">
        <ele>55</ele>
        <time>2021-09-25T09:29:27.000Z</time>
      </trkpt>
      <trkpt lat="47.28502" lon="-1.40047">
        <ele>55</ele>
        <time>2021-09-25T09:29:29.000Z</time>
      </trkpt>
      <trkpt lat="47.28495" lon="-1.40062">
        <ele>55</ele>
        <time>2021-09-25T09:29:31.000Z</time>
      </trkpt>
      <trkpt lat="47.28488" lon="-1.40078">
        <ele>55</ele>
        <time>2021-09-25T09:29:33.000Z</time>
      </trkpt>
      <trkpt lat="47.28482" lon="-1.40095">
        <ele>56</ele>
        <time>2021-09-25T09:29:35.000Z</time>
      </trkpt>
      <trkpt lat="47.28474" lon="-1.40111">
        <ele>56</ele>
        <time>2021-09-25T09:29:37.000Z</time>
      </trkpt>
      <trkpt lat="47.28467" lon="-1.40128">
        <ele>56</ele>
        <time>2021-09-25T09:29:39.000Z</time>
      </trkpt>
      <trkpt lat="47.28461" lon="-1.40145">
        <ele>57</ele>
        <time>2021-09-25T09:29:41.000Z</time>
      </trkpt>
      <trkpt lat="47.28455" lon="-1.40163">
        <ele>57</ele>
        <time>2021-09-25T09:29:43.000Z</time>
      </trkpt>
      <trkpt lat="47.28449" lon="-1.40179">
        <ele>56</ele>
        <time>2021-09-25T09:29:45.000Z</time>
      </trkpt>
      <trkpt lat="47.28442" lon="-1.40196">
        <ele>56</ele>
        <time>2021-09-25T09:29:47.000Z</time>
      </trkpt>
      <trkpt lat="47.28435" lon="-1.40213">
        <ele>56</ele>
        <time>2021-09-25T09:29:49.000Z</time>
      </trkpt>
      <trkpt lat="47.28429" lon="-1.40228">
        <ele>56</ele>
        <time>2021-09-25T09:29:51.000Z</time>
      </trkpt>
      <trkpt lat="47.28423" lon="-1.40245">
        <ele>56</ele>
        <time>2021-09-25T09:29:53.000Z</time>
      </trkpt>
      <trkpt lat="47.28415" lon="-1.40262">
        <ele>56</ele>
        <time>2021-09-25T09:29:55.000Z</time>
      </trkpt>
      <trkpt lat="47.28407" lon="-1.40279">
        <ele>56</ele>
        <time>2021-09-25T09:29:57.000Z</time>
      </trkpt>
      <trkpt lat="47.28398" lon="-1.40295">
        <ele>55</ele>
        <time>2021-09-25T09:29:59.000Z</time>
      </trkpt>
      <trkpt lat="47.2839" lon="-1.40311">
        <ele>54</ele>
        <time>2021-09-25T09:30:01.000Z</time>
      </trkpt>
      <trkpt lat="47.2838" lon="-1.40326">
        <ele>54</ele>
        <time>2021-09-25T09:30:03.000Z</time>
      </trkpt>
      <trkpt lat="47.2837" lon="-1.4034">
        <ele>53</ele>
        <time>2021-09-25T09:30:05.000Z</time>
      </trkpt>
      <trkpt lat="47.2836" lon="-1.40353">
        <ele>53</ele>
        <time>2021-09-25T09:30:07.000Z</time>
      </trkpt>
      <trkpt lat="47.2835" lon="-1.40366">
        <ele>53</ele>
        <time>2021-09-25T09:30:09.000Z</time>
      </trkpt>
      <trkpt lat="47.2834" lon="-1.4038">
        <ele>53</ele>
        <time>2021-09-25T09:30:11.000Z</time>
      </trkpt>
      <trkpt lat="47.2833" lon="-1.40393">
        <ele>53</ele>
        <time>2021-09-25T09:30:13.000Z</time>
      </trkpt>
      <trkpt lat="47.28321" lon="-1.40407">
        <ele>53</ele>
        <time>2021-09-25T09:30:15.000Z</time>
      </trkpt>
      <trkpt lat="47.2831" lon="-1.40419">
        <ele>53</ele>
        <time>2021-09-25T09:30:17.000Z</time>
      </trkpt>
      <trkpt lat="47.28298" lon="-1.40431">
        <ele>53</ele>
        <time>2021-09-25T09:30:19.000Z</time>
      </trkpt>
      <trkpt lat="47.28287" lon="-1.40442">
        <ele>53</ele>
        <time>2021-09-25T09:30:21.000Z</time>
      </trkpt>
      <trkpt lat="47.28275" lon="-1.40453">
        <ele>53</ele>
        <time>2021-09-25T09:30:23.000Z</time>
      </trkpt>
      <trkpt lat="47.28264" lon="-1.40463">
        <ele>53</ele>
        <time>2021-09-25T09:30:25.000Z</time>
      </trkpt>
      <trkpt lat="47.28253" lon="-1.40474">
        <ele>53</ele>
        <time>2021-09-25T09:30:27.000Z</time>
      </trkpt>
      <trkpt lat="47.28242" lon="-1.40486">
        <ele>53</ele>
        <time>2021-09-25T09:30:29.000Z</time>
      </trkpt>
      <trkpt lat="47.28231" lon="-1.40497">
        <ele>53</ele>
        <time>2021-09-25T09:30:31.000Z</time>
      </trkpt>
      <trkpt lat="47.2822" lon="-1.40508">
        <ele>53</ele>
        <time>2021-09-25T09:30:33.000Z</time>
      </trkpt>
      <trkpt lat="47.28209" lon="-1.40519">
        <ele>53</ele>
        <time>2021-09-25T09:30:35.000Z</time>
      </trkpt>
      <trkpt lat="47.28198" lon="-1.40529">
        <ele>53</ele>
        <time>2021-09-25T09:30:37.000Z</time>
      </trkpt>
      <trkpt lat="47.28187" lon="-1.40539">
        <ele>53</ele>
        <time>2021-09-25T09:30:39.000Z</time>
      </trkpt>
      <trkpt lat="47.28176" lon="-1.4055">
        <ele>53</ele>
        <time>2021-09-25T09:30:41.000Z</time>
      </trkpt>
      <trkpt lat="47.28165" lon="-1.4056">
        <ele>53</ele>
        <time>2021-09-25T09:30:43.000Z</time>
      </trkpt>
      <trkpt lat="47.28154" lon="-1.40571">
        <ele>53</ele>
        <time>2021-09-25T09:30:45.000Z</time>
      </trkpt>
      <trkpt lat="47.28143" lon="-1.40582">
        <ele>53</ele>
        <time>2021-09-25T09:30:47.000Z</time>
      </trkpt>
      <trkpt lat="47.28132" lon="-1.40592">
        <ele>53</ele>
        <time>2021-09-25T09:30:49.000Z</time>
      </trkpt>
      <trkpt lat="47.2812" lon="-1.40603">
        <ele>53</ele>
        <time>2021-09-25T09:30:51.000Z</time>
      </trkpt>
      <trkpt lat="47.28109" lon="-1.40614">
        <ele>53</ele>
        <time>2021-09-25T09:30:53.000Z</time>
      </trkpt>
      <trkpt lat="47.28098" lon="-1.40624">
        <ele>54</ele>
        <time>2021-09-25T09:30:55.000Z</time>
      </trkpt>
      <trkpt lat="47.28088" lon="-1.40634">
        <ele>54</ele>
        <time>2021-09-25T09:30:57.000Z</time>
      </trkpt>
      <trkpt lat="47.28076" lon="-1.40645">
        <ele>54</ele>
        <time>2021-09-25T09:30:59.000Z</time>
      </trkpt>
      <trkpt lat="47.28065" lon="-1.40655">
        <ele>54</ele>
        <time>2021-09-25T09:31:01.000Z</time>
      </trkpt>
      <trkpt lat="47.28054" lon="-1.40666">
        <ele>54</ele>
        <time>2021-09-25T09:31:03.000Z</time>
      </trkpt>
      <trkpt lat="47.28043" lon="-1.40677">
        <ele>54</ele>
        <time>2021-09-25T09:31:05.000Z</time>
      </trkpt>
      <trkpt lat="47.28033" lon="-1.40689">
        <ele>54</ele>
        <time>2021-09-25T09:31:07.000Z</time>
      </trkpt>
      <trkpt lat="47.28022" lon="-1.407">
        <ele>54</ele>
        <time>2021-09-25T09:31:09.000Z</time>
      </trkpt>
      <trkpt lat="47.28011" lon="-1.40711">
        <ele>54</ele>
        <time>2021-09-25T09:31:11.000Z</time>
      </trkpt>
      <trkpt lat="47.28001" lon="-1.40721">
        <ele>54</ele>
        <time>2021-09-25T09:31:13.000Z</time>
      </trkpt>
      <trkpt lat="47.2799" lon="-1.40732">
        <ele>53</ele>
        <time>2021-09-25T09:31:15.000Z</time>
      </trkpt>
      <trkpt lat="47.27978" lon="-1.40742">
        <ele>53</ele>
        <time>2021-09-25T09:31:17.000Z</time>
      </trkpt>
      <trkpt lat="47.27967" lon="-1.40752">
        <ele>53</ele>
        <time>2021-09-25T09:31:19.000Z</time>
      </trkpt>
      <trkpt lat="47.27956" lon="-1.40762">
        <ele>54</ele>
        <time>2021-09-25T09:31:21.000Z</time>
      </trkpt>
      <trkpt lat="47.27945" lon="-1.40773">
        <ele>54</ele>
        <time>2021-09-25T09:31:23.000Z</time>
      </trkpt>
      <trkpt lat="47.27933" lon="-1.40784">
        <ele>54</ele>
        <time>2021-09-25T09:31:25.000Z</time>
      </trkpt>
      <trkpt lat="47.27922" lon="-1.40794">
        <ele>54</ele>
        <time>2021-09-25T09:31:27.000Z</time>
      </trkpt>
      <trkpt lat="47.27911" lon="-1.40804">
        <ele>54</ele>
        <time>2021-09-25T09:31:29.000Z</time>
      </trkpt>
      <trkpt lat="47.279" lon="-1.40815">
        <ele>54</ele>
        <time>2021-09-25T09:31:31.000Z</time>
      </trkpt>
      <trkpt lat="47.2789" lon="-1.40826">
        <ele>53</ele>
        <time>2021-09-25T09:31:33.000Z</time>
      </trkpt>
      <trkpt lat="47.27881" lon="-1.4084">
        <ele>54</ele>
        <time>2021-09-25T09:31:35.000Z</time>
      </trkpt>
      <trkpt lat="47.27872" lon="-1.40855">
        <ele>53</ele>
        <time>2021-09-25T09:31:37.000Z</time>
      </trkpt>
      <trkpt lat="47.27865" lon="-1.40871">
        <ele>53</ele>
        <time>2021-09-25T09:31:39.000Z</time>
      </trkpt>
      <trkpt lat="47.27858" lon="-1.40888">
        <ele>53</ele>
        <time>2021-09-25T09:31:41.000Z</time>
      </trkpt>
      <trkpt lat="47.2785" lon="-1.40904">
        <ele>53</ele>
        <time>2021-09-25T09:31:43.000Z</time>
      </trkpt>
      <trkpt lat="47.27843" lon="-1.4092">
        <ele>53</ele>
        <time>2021-09-25T09:31:45.000Z</time>
      </trkpt>
      <trkpt lat="47.27836" lon="-1.40936">
        <ele>53</ele>
        <time>2021-09-25T09:31:47.000Z</time>
      </trkpt>
      <trkpt lat="47.27828" lon="-1.40951">
        <ele>53</ele>
        <time>2021-09-25T09:31:49.000Z</time>
      </trkpt>
      <trkpt lat="47.2782" lon="-1.40966">
        <ele>53</ele>
        <time>2021-09-25T09:31:51.000Z</time>
      </trkpt>
      <trkpt lat="47.27811" lon="-1.40981">
        <ele>53</ele>
        <time>2021-09-25T09:31:53.000Z</time>
      </trkpt>
      <trkpt lat="47.27802" lon="-1.40995">
        <ele>53</ele>
        <time>2021-09-25T09:31:55.000Z</time>
      </trkpt>
      <trkpt lat="47.27792" lon="-1.41008">
        <ele>53</ele>
        <time>2021-09-25T09:31:57.000Z</time>
      </trkpt>
      <trkpt lat="47.27783" lon="-1.41022">
        <ele>53</ele>
        <time>2021-09-25T09:31:59.000Z</time>
      </trkpt>
      <trkpt lat="47.27776" lon="-1.41036">
        <ele>53</ele>
        <time>2021-09-25T09:32:01.000Z</time>
      </trkpt>
      <trkpt lat="47.27771" lon="-1.41054">
        <ele>53</ele>
        <time>2021-09-25T09:32:03.000Z</time>
      </trkpt>
      <trkpt lat="47.27764" lon="-1.4107">
        <ele>53</ele>
        <time>2021-09-25T09:32:05.000Z</time>
      </trkpt>
      <trkpt lat="47.27753" lon="-1.41083">
        <ele>54</ele>
        <time>2021-09-25T09:32:07.000Z</time>
      </trkpt>
      <trkpt lat="47.27742" lon="-1.41094">
        <ele>53</ele>
        <time>2021-09-25T09:32:09.000Z</time>
      </trkpt>
      <trkpt lat="47.2773" lon="-1.41105">
        <ele>53</ele>
        <time>2021-09-25T09:32:11.000Z</time>
      </trkpt>
      <trkpt lat="47.27719" lon="-1.41116">
        <ele>53</ele>
        <time>2021-09-25T09:32:13.000Z</time>
      </trkpt>
      <trkpt lat="47.27708" lon="-1.41127">
        <ele>54</ele>
        <time>2021-09-25T09:32:15.000Z</time>
      </trkpt>
      <trkpt lat="47.27697" lon="-1.41137">
        <ele>54</ele>
        <time>2021-09-25T09:32:17.000Z</time>
      </trkpt>
      <trkpt lat="47.27686" lon="-1.41148">
        <ele>54</ele>
        <time>2021-09-25T09:32:19.000Z</time>
      </trkpt>
      <trkpt lat="47.27677" lon="-1.4116">
        <ele>54</ele>
        <time>2021-09-25T09:32:21.000Z</time>
      </trkpt>
      <trkpt lat="47.27667" lon="-1.41173">
        <ele>54</ele>
        <time>2021-09-25T09:32:23.000Z</time>
      </trkpt>
      <trkpt lat="47.27656" lon="-1.41186">
        <ele>54</ele>
        <time>2021-09-25T09:32:25.000Z</time>
      </trkpt>
      <trkpt lat="47.27644" lon="-1.41198">
        <ele>53</ele>
        <time>2021-09-25T09:32:27.000Z</time>
      </trkpt>
      <trkpt lat="47.27632" lon="-1.41209">
        <ele>53</ele>
        <time>2021-09-25T09:32:29.000Z</time>
      </trkpt>
      <trkpt lat="47.2762" lon="-1.41221">
        <ele>53</ele>
        <time>2021-09-25T09:32:31.000Z</time>
      </trkpt>
      <trkpt lat="47.27608" lon="-1.41233">
        <ele>53</ele>
        <time>2021-09-25T09:32:33.000Z</time>
      </trkpt>
      <trkpt lat="47.27597" lon="-1.41246">
        <ele>53</ele>
        <time>2021-09-25T09:32:35.000Z</time>
      </trkpt>
      <trkpt lat="47.27585" lon="-1.41258">
        <ele>53</ele>
        <time>2021-09-25T09:32:37.000Z</time>
      </trkpt>
      <trkpt lat="47.27575" lon="-1.4127">
        <ele>53</ele>
        <time>2021-09-25T09:32:39.000Z</time>
      </trkpt>
      <trkpt lat="47.27564" lon="-1.41283">
        <ele>53</ele>
        <time>2021-09-25T09:32:41.000Z</time>
      </trkpt>
      <trkpt lat="47.27554" lon="-1.41296">
        <ele>53</ele>
        <time>2021-09-25T09:32:43.000Z</time>
      </trkpt>
      <trkpt lat="47.27543" lon="-1.4131">
        <ele>53</ele>
        <time>2021-09-25T09:32:45.000Z</time>
      </trkpt>
      <trkpt lat="47.27533" lon="-1.41323">
        <ele>53</ele>
        <time>2021-09-25T09:32:47.000Z</time>
      </trkpt>
      <trkpt lat="47.27523" lon="-1.41337">
        <ele>53</ele>
        <time>2021-09-25T09:32:49.000Z</time>
      </trkpt>
      <trkpt lat="47.27513" lon="-1.41351">
        <ele>53</ele>
        <time>2021-09-25T09:32:51.000Z</time>
      </trkpt>
      <trkpt lat="47.27503" lon="-1.41365">
        <ele>53</ele>
        <time>2021-09-25T09:32:53.000Z</time>
      </trkpt>
      <trkpt lat="47.27494" lon="-1.41379">
        <ele>53</ele>
        <time>2021-09-25T09:32:55.000Z</time>
      </trkpt>
      <trkpt lat="47.27485" lon="-1.41394">
        <ele>53</ele>
        <time>2021-09-25T09:32:57.000Z</time>
      </trkpt>
      <trkpt lat="47.27476" lon="-1.41409">
        <ele>53</ele>
        <time>2021-09-25T09:32:59.000Z</time>
      </trkpt>
      <trkpt lat="47.27467" lon="-1.41424">
        <ele>52</ele>
        <time>2021-09-25T09:33:01.000Z</time>
      </trkpt>
      <trkpt lat="47.27459" lon="-1.41439">
        <ele>52</ele>
        <time>2021-09-25T09:33:03.000Z</time>
      </trkpt>
      <trkpt lat="47.27451" lon="-1.41454">
        <ele>52</ele>
        <time>2021-09-25T09:33:05.000Z</time>
      </trkpt>
      <trkpt lat="47.27443" lon="-1.4147">
        <ele>52</ele>
        <time>2021-09-25T09:33:07.000Z</time>
      </trkpt>
      <trkpt lat="47.27435" lon="-1.41484">
        <ele>52</ele>
        <time>2021-09-25T09:33:09.000Z</time>
      </trkpt>
      <trkpt lat="47.27426" lon="-1.415">
        <ele>52</ele>
        <time>2021-09-25T09:33:11.000Z</time>
      </trkpt>
      <trkpt lat="47.27417" lon="-1.41514">
        <ele>52</ele>
        <time>2021-09-25T09:33:13.000Z</time>
      </trkpt>
      <trkpt lat="47.27408" lon="-1.41529">
        <ele>52</ele>
        <time>2021-09-25T09:33:15.000Z</time>
      </trkpt>
      <trkpt lat="47.27399" lon="-1.41543">
        <ele>52</ele>
        <time>2021-09-25T09:33:17.000Z</time>
      </trkpt>
      <trkpt lat="47.2739" lon="-1.41558">
        <ele>52</ele>
        <time>2021-09-25T09:33:19.000Z</time>
      </trkpt>
      <trkpt lat="47.27381" lon="-1.41571">
        <ele>52</ele>
        <time>2021-09-25T09:33:21.000Z</time>
      </trkpt>
      <trkpt lat="47.27372" lon="-1.41585">
        <ele>52</ele>
        <time>2021-09-25T09:33:23.000Z</time>
      </trkpt>
      <trkpt lat="47.27364" lon="-1.41599">
        <ele>52</ele>
        <time>2021-09-25T09:33:25.000Z</time>
      </trkpt>
      <trkpt lat="47.27354" lon="-1.41613">
        <ele>53</ele>
        <time>2021-09-25T09:33:27.000Z</time>
      </trkpt>
      <trkpt lat="47.27345" lon="-1.41626">
        <ele>52</ele>
        <time>2021-09-25T09:33:29.000Z</time>
      </trkpt>
      <trkpt lat="47.27336" lon="-1.4164">
        <ele>52</ele>
        <time>2021-09-25T09:33:31.000Z</time>
      </trkpt>
      <trkpt lat="47.27327" lon="-1.41654">
        <ele>52</ele>
        <time>2021-09-25T09:33:33.000Z</time>
      </trkpt>
      <trkpt lat="47.27318" lon="-1.4167">
        <ele>52</ele>
        <time>2021-09-25T09:33:35.000Z</time>
      </trkpt>
      <trkpt lat="47.2731" lon="-1.41684">
        <ele>52</ele>
        <time>2021-09-25T09:33:37.000Z</time>
      </trkpt>
      <trkpt lat="47.27303" lon="-1.41699">
        <ele>53</ele>
        <time>2021-09-25T09:33:39.000Z</time>
      </trkpt>
      <trkpt lat="47.27295" lon="-1.41715">
        <ele>53</ele>
        <time>2021-09-25T09:33:41.000Z</time>
      </trkpt>
      <trkpt lat="47.27287" lon="-1.41732">
        <ele>53</ele>
        <time>2021-09-25T09:33:43.000Z</time>
      </trkpt>
      <trkpt lat="47.27279" lon="-1.41748">
        <ele>53</ele>
        <time>2021-09-25T09:33:45.000Z</time>
      </trkpt>
      <trkpt lat="47.27271" lon="-1.41763">
        <ele>53</ele>
        <time>2021-09-25T09:33:47.000Z</time>
      </trkpt>
      <trkpt lat="47.27263" lon="-1.41778">
        <ele>53</ele>
        <time>2021-09-25T09:33:49.000Z</time>
      </trkpt>
      <trkpt lat="47.27254" lon="-1.41792">
        <ele>54</ele>
        <time>2021-09-25T09:33:51.000Z</time>
      </trkpt>
      <trkpt lat="47.27246" lon="-1.41808">
        <ele>54</ele>
        <time>2021-09-25T09:33:53.000Z</time>
      </trkpt>
      <trkpt lat="47.27238" lon="-1.41823">
        <ele>54</ele>
        <time>2021-09-25T09:33:55.000Z</time>
      </trkpt>
      <trkpt lat="47.27229" lon="-1.41838">
        <ele>54</ele>
        <time>2021-09-25T09:33:57.000Z</time>
      </trkpt>
      <trkpt lat="47.27221" lon="-1.41853">
        <ele>55</ele>
        <time>2021-09-25T09:33:59.000Z</time>
      </trkpt>
      <trkpt lat="47.27213" lon="-1.41869">
        <ele>54</ele>
        <time>2021-09-25T09:34:01.000Z</time>
      </trkpt>
      <trkpt lat="47.27205" lon="-1.41883">
        <ele>54</ele>
        <time>2021-09-25T09:34:03.000Z</time>
      </trkpt>
      <trkpt lat="47.27196" lon="-1.41898">
        <ele>54</ele>
        <time>2021-09-25T09:34:05.000Z</time>
      </trkpt>
      <trkpt lat="47.27187" lon="-1.41913">
        <ele>54</ele>
        <time>2021-09-25T09:34:07.000Z</time>
      </trkpt>
      <trkpt lat="47.27178" lon="-1.41928">
        <ele>54</ele>
        <time>2021-09-25T09:34:09.000Z</time>
      </trkpt>
      <trkpt lat="47.27169" lon="-1.41943">
        <ele>54</ele>
        <time>2021-09-25T09:34:11.000Z</time>
      </trkpt>
      <trkpt lat="47.27161" lon="-1.41959">
        <ele>53</ele>
        <time>2021-09-25T09:34:13.000Z</time>
      </trkpt>
      <trkpt lat="47.27152" lon="-1.41975">
        <ele>53</ele>
        <time>2021-09-25T09:34:15.000Z</time>
      </trkpt>
      <trkpt lat="47.27144" lon="-1.41991">
        <ele>54</ele>
        <time>2021-09-25T09:34:17.000Z</time>
      </trkpt>
      <trkpt lat="47.27136" lon="-1.42007">
        <ele>54</ele>
        <time>2021-09-25T09:34:19.000Z</time>
      </trkpt>
      <trkpt lat="47.27126" lon="-1.42022">
        <ele>54</ele>
        <time>2021-09-25T09:34:21.000Z</time>
      </trkpt>
      <trkpt lat="47.27117" lon="-1.42037">
        <ele>54</ele>
        <time>2021-09-25T09:34:23.000Z</time>
      </trkpt>
      <trkpt lat="47.27107" lon="-1.42052">
        <ele>54</ele>
        <time>2021-09-25T09:34:25.000Z</time>
      </trkpt>
      <trkpt lat="47.27097" lon="-1.42067">
        <ele>54</ele>
        <time>2021-09-25T09:34:27.000Z</time>
      </trkpt>
      <trkpt lat="47.27087" lon="-1.42081">
        <ele>54</ele>
        <time>2021-09-25T09:34:29.000Z</time>
      </trkpt>
      <trkpt lat="47.27077" lon="-1.42096">
        <ele>54</ele>
        <time>2021-09-25T09:34:31.000Z</time>
      </trkpt>
      <trkpt lat="47.27068" lon="-1.42112">
        <ele>53</ele>
        <time>2021-09-25T09:34:33.000Z</time>
      </trkpt>
      <trkpt lat="47.2706" lon="-1.42127">
        <ele>53</ele>
        <time>2021-09-25T09:34:35.000Z</time>
      </trkpt>
      <trkpt lat="47.27052" lon="-1.42143">
        <ele>53</ele>
        <time>2021-09-25T09:34:37.000Z</time>
      </trkpt>
      <trkpt lat="47.27044" lon="-1.42157">
        <ele>53</ele>
        <time>2021-09-25T09:34:39.000Z</time>
      </trkpt>
      <trkpt lat="47.27036" lon="-1.42172">
        <ele>53</ele>
        <time>2021-09-25T09:34:41.000Z</time>
      </trkpt>
      <trkpt lat="47.27027" lon="-1.42186">
        <ele>53</ele>
        <time>2021-09-25T09:34:43.000Z</time>
      </trkpt>
      <trkpt lat="47.27019" lon="-1.42201">
        <ele>53</ele>
        <time>2021-09-25T09:34:45.000Z</time>
      </trkpt>
      <trkpt lat="47.2701" lon="-1.42216">
        <ele>53</ele>
        <time>2021-09-25T09:34:47.000Z</time>
      </trkpt>
      <trkpt lat="47.27001" lon="-1.42231">
        <ele>53</ele>
        <time>2021-09-25T09:34:49.000Z</time>
      </trkpt>
      <trkpt lat="47.26993" lon="-1.42246">
        <ele>52</ele>
        <time>2021-09-25T09:34:51.000Z</time>
      </trkpt>
      <trkpt lat="47.26984" lon="-1.42261">
        <ele>53</ele>
        <time>2021-09-25T09:34:53.000Z</time>
      </trkpt>
      <trkpt lat="47.26976" lon="-1.42276">
        <ele>53</ele>
        <time>2021-09-25T09:34:55.000Z</time>
      </trkpt>
      <trkpt lat="47.26969" lon="-1.42292">
        <ele>53</ele>
        <time>2021-09-25T09:34:57.000Z</time>
      </trkpt>
      <trkpt lat="47.2696" lon="-1.42308">
        <ele>53</ele>
        <time>2021-09-25T09:34:59.000Z</time>
      </trkpt>
      <trkpt lat="47.26953" lon="-1.42323">
        <ele>53</ele>
        <time>2021-09-25T09:35:01.000Z</time>
      </trkpt>
      <trkpt lat="47.26945" lon="-1.42339">
        <ele>53</ele>
        <time>2021-09-25T09:35:03.000Z</time>
      </trkpt>
      <trkpt lat="47.26937" lon="-1.42355">
        <ele>53</ele>
        <time>2021-09-25T09:35:05.000Z</time>
      </trkpt>
      <trkpt lat="47.2693" lon="-1.4237">
        <ele>53</ele>
        <time>2021-09-25T09:35:07.000Z</time>
      </trkpt>
      <trkpt lat="47.26922" lon="-1.42386">
        <ele>53</ele>
        <time>2021-09-25T09:35:09.000Z</time>
      </trkpt>
      <trkpt lat="47.26914" lon="-1.42402">
        <ele>52</ele>
        <time>2021-09-25T09:35:11.000Z</time>
      </trkpt>
      <trkpt lat="47.26906" lon="-1.42417">
        <ele>52</ele>
        <time>2021-09-25T09:35:13.000Z</time>
      </trkpt>
      <trkpt lat="47.26898" lon="-1.42432">
        <ele>53</ele>
        <time>2021-09-25T09:35:15.000Z</time>
      </trkpt>
      <trkpt lat="47.26889" lon="-1.42447">
        <ele>53</ele>
        <time>2021-09-25T09:35:17.000Z</time>
      </trkpt>
      <trkpt lat="47.26881" lon="-1.42462">
        <ele>53</ele>
        <time>2021-09-25T09:35:19.000Z</time>
      </trkpt>
      <trkpt lat="47.26873" lon="-1.42478">
        <ele>53</ele>
        <time>2021-09-25T09:35:21.000Z</time>
      </trkpt>
      <trkpt lat="47.26864" lon="-1.42493">
        <ele>53</ele>
        <time>2021-09-25T09:35:23.000Z</time>
      </trkpt>
      <trkpt lat="47.26855" lon="-1.42508">
        <ele>53</ele>
        <time>2021-09-25T09:35:25.000Z</time>
      </trkpt>
      <trkpt lat="47.26847" lon="-1.42524">
        <ele>53</ele>
        <time>2021-09-25T09:35:27.000Z</time>
      </trkpt>
      <trkpt lat="47.26839" lon="-1.4254">
        <ele>53</ele>
        <time>2021-09-25T09:35:29.000Z</time>
      </trkpt>
      <trkpt lat="47.26831" lon="-1.42556">
        <ele>53</ele>
        <time>2021-09-25T09:35:31.000Z</time>
      </trkpt>
      <trkpt lat="47.26824" lon="-1.42572">
        <ele>52</ele>
        <time>2021-09-25T09:35:33.000Z</time>
      </trkpt>
      <trkpt lat="47.26816" lon="-1.42588">
        <ele>52</ele>
        <time>2021-09-25T09:35:35.000Z</time>
      </trkpt>
      <trkpt lat="47.26808" lon="-1.42605">
        <ele>51</ele>
        <time>2021-09-25T09:35:37.000Z</time>
      </trkpt>
      <trkpt lat="47.26801" lon="-1.42622">
        <ele>51</ele>
        <time>2021-09-25T09:35:39.000Z</time>
      </trkpt>
      <trkpt lat="47.26794" lon="-1.4264">
        <ele>51</ele>
        <time>2021-09-25T09:35:41.000Z</time>
      </trkpt>
      <trkpt lat="47.26788" lon="-1.42658">
        <ele>51</ele>
        <time>2021-09-25T09:35:43.000Z</time>
      </trkpt>
      <trkpt lat="47.26781" lon="-1.42676">
        <ele>50</ele>
        <time>2021-09-25T09:35:45.000Z</time>
      </trkpt>
      <trkpt lat="47.26775" lon="-1.42693">
        <ele>51</ele>
        <time>2021-09-25T09:35:47.000Z</time>
      </trkpt>
      <trkpt lat="47.26768" lon="-1.4271">
        <ele>51</ele>
        <time>2021-09-25T09:35:49.000Z</time>
      </trkpt>
      <trkpt lat="47.26761" lon="-1.42727">
        <ele>51</ele>
        <time>2021-09-25T09:35:51.000Z</time>
      </trkpt>
      <trkpt lat="47.26754" lon="-1.42742">
        <ele>51</ele>
        <time>2021-09-25T09:35:53.000Z</time>
      </trkpt>
      <trkpt lat="47.26746" lon="-1.42759">
        <ele>51</ele>
        <time>2021-09-25T09:35:55.000Z</time>
      </trkpt>
      <trkpt lat="47.26738" lon="-1.42775">
        <ele>52</ele>
        <time>2021-09-25T09:35:57.000Z</time>
      </trkpt>
      <trkpt lat="47.26733" lon="-1.42793">
        <ele>52</ele>
        <time>2021-09-25T09:35:59.000Z</time>
      </trkpt>
      <trkpt lat="47.26728" lon="-1.4281">
        <ele>53</ele>
        <time>2021-09-25T09:36:01.000Z</time>
      </trkpt>
      <trkpt lat="47.26723" lon="-1.42827">
        <ele>53</ele>
        <time>2021-09-25T09:36:03.000Z</time>
      </trkpt>
      <trkpt lat="47.26717" lon="-1.42844">
        <ele>53</ele>
        <time>2021-09-25T09:36:05.000Z</time>
      </trkpt>
      <trkpt lat="47.2671" lon="-1.42863">
        <ele>53</ele>
        <time>2021-09-25T09:36:07.000Z</time>
      </trkpt>
      <trkpt lat="47.26702" lon="-1.42881">
        <ele>52</ele>
        <time>2021-09-25T09:36:09.000Z</time>
      </trkpt>
      <trkpt lat="47.26693" lon="-1.42899">
        <ele>52</ele>
        <time>2021-09-25T09:36:11.000Z</time>
      </trkpt>
      <trkpt lat="47.26684" lon="-1.42916">
        <ele>52</ele>
        <time>2021-09-25T09:36:13.000Z</time>
      </trkpt>
      <trkpt lat="47.26675" lon="-1.42933">
        <ele>51</ele>
        <time>2021-09-25T09:36:15.000Z</time>
      </trkpt>
      <trkpt lat="47.26667" lon="-1.42949">
        <ele>51</ele>
        <time>2021-09-25T09:36:17.000Z</time>
      </trkpt>
      <trkpt lat="47.26658" lon="-1.42966">
        <ele>51</ele>
        <time>2021-09-25T09:36:19.000Z</time>
      </trkpt>
      <trkpt lat="47.2665" lon="-1.42983">
        <ele>51</ele>
        <time>2021-09-25T09:36:21.000Z</time>
      </trkpt>
      <trkpt lat="47.26641" lon="-1.43">
        <ele>51</ele>
        <time>2021-09-25T09:36:23.000Z</time>
      </trkpt>
      <trkpt lat="47.26632" lon="-1.43018">
        <ele>51</ele>
        <time>2021-09-25T09:36:25.000Z</time>
      </trkpt>
      <trkpt lat="47.26624" lon="-1.43037">
        <ele>51</ele>
        <time>2021-09-25T09:36:27.000Z</time>
      </trkpt>
      <trkpt lat="47.26614" lon="-1.43056">
        <ele>51</ele>
        <time>2021-09-25T09:36:29.000Z</time>
      </trkpt>
      <trkpt lat="47.26605" lon="-1.43073">
        <ele>51</ele>
        <time>2021-09-25T09:36:31.000Z</time>
      </trkpt>
      <trkpt lat="47.26595" lon="-1.4309">
        <ele>51</ele>
        <time>2021-09-25T09:36:33.000Z</time>
      </trkpt>
      <trkpt lat="47.26585" lon="-1.43106">
        <ele>51</ele>
        <time>2021-09-25T09:36:35.000Z</time>
      </trkpt>
      <trkpt lat="47.26575" lon="-1.43123">
        <ele>51</ele>
        <time>2021-09-25T09:36:37.000Z</time>
      </trkpt>
      <trkpt lat="47.26565" lon="-1.43138">
        <ele>51</ele>
        <time>2021-09-25T09:36:39.000Z</time>
      </trkpt>
      <trkpt lat="47.26555" lon="-1.43154">
        <ele>51</ele>
        <time>2021-09-25T09:36:41.000Z</time>
      </trkpt>
      <trkpt lat="47.26546" lon="-1.4317">
        <ele>51</ele>
        <time>2021-09-25T09:36:43.000Z</time>
      </trkpt>
      <trkpt lat="47.26536" lon="-1.43186">
        <ele>51</ele>
        <time>2021-09-25T09:36:45.000Z</time>
      </trkpt>
      <trkpt lat="47.26525" lon="-1.432">
        <ele>51</ele>
        <time>2021-09-25T09:36:47.000Z</time>
      </trkpt>
      <trkpt lat="47.26515" lon="-1.43214">
        <ele>51</ele>
        <time>2021-09-25T09:36:49.000Z</time>
      </trkpt>
      <trkpt lat="47.26504" lon="-1.43229">
        <ele>51</ele>
        <time>2021-09-25T09:36:51.000Z</time>
      </trkpt>
      <trkpt lat="47.26493" lon="-1.43242">
        <ele>51</ele>
        <time>2021-09-25T09:36:53.000Z</time>
      </trkpt>
      <trkpt lat="47.26483" lon="-1.43257">
        <ele>51</ele>
        <time>2021-09-25T09:36:55.000Z</time>
      </trkpt>
      <trkpt lat="47.26473" lon="-1.43271">
        <ele>52</ele>
        <time>2021-09-25T09:36:57.000Z</time>
      </trkpt>
      <trkpt lat="47.26464" lon="-1.43285">
        <ele>52</ele>
        <time>2021-09-25T09:36:59.000Z</time>
      </trkpt>
      <trkpt lat="47.26454" lon="-1.433">
        <ele>52</ele>
        <time>2021-09-25T09:37:01.000Z</time>
      </trkpt>
      <trkpt lat="47.26445" lon="-1.43315">
        <ele>51</ele>
        <time>2021-09-25T09:37:03.000Z</time>
      </trkpt>
      <trkpt lat="47.26435" lon="-1.4333">
        <ele>51</ele>
        <time>2021-09-25T09:37:05.000Z</time>
      </trkpt>
      <trkpt lat="47.26424" lon="-1.43344">
        <ele>50</ele>
        <time>2021-09-25T09:37:07.000Z</time>
      </trkpt>
      <trkpt lat="47.26414" lon="-1.43358">
        <ele>50</ele>
        <time>2021-09-25T09:37:09.000Z</time>
      </trkpt>
      <trkpt lat="47.26403" lon="-1.43371">
        <ele>50</ele>
        <time>2021-09-25T09:37:11.000Z</time>
      </trkpt>
      <trkpt lat="47.26392" lon="-1.43384">
        <ele>50</ele>
        <time>2021-09-25T09:37:13.000Z</time>
      </trkpt>
      <trkpt lat="47.26381" lon="-1.43396">
        <ele>50</ele>
        <time>2021-09-25T09:37:15.000Z</time>
      </trkpt>
      <trkpt lat="47.2637" lon="-1.43408">
        <ele>50</ele>
        <time>2021-09-25T09:37:17.000Z</time>
      </trkpt>
      <trkpt lat="47.26359" lon="-1.43419">
        <ele>50</ele>
        <time>2021-09-25T09:37:19.000Z</time>
      </trkpt>
      <trkpt lat="47.26348" lon="-1.43431">
        <ele>50</ele>
        <time>2021-09-25T09:37:21.000Z</time>
      </trkpt>
      <trkpt lat="47.26336" lon="-1.43442">
        <ele>50</ele>
        <time>2021-09-25T09:37:23.000Z</time>
      </trkpt>
      <trkpt lat="47.26326" lon="-1.43454">
        <ele>51</ele>
        <time>2021-09-25T09:37:25.000Z</time>
      </trkpt>
      <trkpt lat="47.26315" lon="-1.43465">
        <ele>51</ele>
        <time>2021-09-25T09:37:27.000Z</time>
      </trkpt>
      <trkpt lat="47.26306" lon="-1.43476">
        <ele>51</ele>
        <time>2021-09-25T09:37:29.000Z</time>
      </trkpt>
      <trkpt lat="47.26296" lon="-1.43486">
        <ele>52</ele>
        <time>2021-09-25T09:37:31.000Z</time>
      </trkpt>
      <trkpt lat="47.26287" lon="-1.4349">
        <ele>52</ele>
        <time>2021-09-25T09:37:33.000Z</time>
      </trkpt>
      <trkpt lat="47.26277" lon="-1.43491">
        <ele>52</ele>
        <time>2021-09-25T09:37:35.000Z</time>
      </trkpt>
      <trkpt lat="47.26265" lon="-1.43494">
        <ele>52</ele>
        <time>2021-09-25T09:37:37.000Z</time>
      </trkpt>
      <trkpt lat="47.26255" lon="-1.43502">
        <ele>52</ele>
        <time>2021-09-25T09:37:39.000Z</time>
      </trkpt>
      <trkpt lat="47.26243" lon="-1.43511">
        <ele>52</ele>
        <time>2021-09-25T09:37:41.000Z</time>
      </trkpt>
      <trkpt lat="47.26232" lon="-1.43523">
        <ele>52</ele>
        <time>2021-09-25T09:37:43.000Z</time>
      </trkpt>
      <trkpt lat="47.26222" lon="-1.43537">
        <ele>51</ele>
        <time>2021-09-25T09:37:45.000Z</time>
      </trkpt>
      <trkpt lat="47.26215" lon="-1.43551">
        <ele>50</ele>
        <time>2021-09-25T09:37:47.000Z</time>
      </trkpt>
      <trkpt lat="47.26213" lon="-1.43569">
        <ele>50</ele>
        <time>2021-09-25T09:37:49.000Z</time>
      </trkpt>
      <trkpt lat="47.26206" lon="-1.43586">
        <ele>50</ele>
        <time>2021-09-25T09:37:51.000Z</time>
      </trkpt>
      <trkpt lat="47.26197" lon="-1.43601">
        <ele>50</ele>
        <time>2021-09-25T09:37:53.000Z</time>
      </trkpt>
      <trkpt lat="47.26189" lon="-1.43614">
        <ele>50</ele>
        <time>2021-09-25T09:37:55.000Z</time>
      </trkpt>
      <trkpt lat="47.26181" lon="-1.43628">
        <ele>50</ele>
        <time>2021-09-25T09:37:57.000Z</time>
      </trkpt>
      <trkpt lat="47.26173" lon="-1.43643">
        <ele>50</ele>
        <time>2021-09-25T09:37:59.000Z</time>
      </trkpt>
      <trkpt lat="47.26165" lon="-1.43658">
        <ele>50</ele>
        <time>2021-09-25T09:38:01.000Z</time>
      </trkpt>
      <trkpt lat="47.26156" lon="-1.43673">
        <ele>50</ele>
        <time>2021-09-25T09:38:03.000Z</time>
      </trkpt>
      <trkpt lat="47.26147" lon="-1.43687">
        <ele>50</ele>
        <time>2021-09-25T09:38:05.000Z</time>
      </trkpt>
      <trkpt lat="47.26138" lon="-1.437">
        <ele>50</ele>
        <time>2021-09-25T09:38:07.000Z</time>
      </trkpt>
      <trkpt lat="47.2613" lon="-1.43714">
        <ele>50</ele>
        <time>2021-09-25T09:38:09.000Z</time>
      </trkpt>
      <trkpt lat="47.26121" lon="-1.43729">
        <ele>50</ele>
        <time>2021-09-25T09:38:11.000Z</time>
      </trkpt>
      <trkpt lat="47.26111" lon="-1.43742">
        <ele>50</ele>
        <time>2021-09-25T09:38:13.000Z</time>
      </trkpt>
      <trkpt lat="47.261" lon="-1.43754">
        <ele>51</ele>
        <time>2021-09-25T09:38:15.000Z</time>
      </trkpt>
      <trkpt lat="47.2609" lon="-1.43767">
        <ele>51</ele>
        <time>2021-09-25T09:38:17.000Z</time>
      </trkpt>
      <trkpt lat="47.2608" lon="-1.4378">
        <ele>51</ele>
        <time>2021-09-25T09:38:19.000Z</time>
      </trkpt>
      <trkpt lat="47.2607" lon="-1.43793">
        <ele>51</ele>
        <time>2021-09-25T09:38:21.000Z</time>
      </trkpt>
      <trkpt lat="47.2606" lon="-1.43807">
        <ele>50</ele>
        <time>2021-09-25T09:38:23.000Z</time>
      </trkpt>
      <trkpt lat="47.26052" lon="-1.43822">
        <ele>50</ele>
        <time>2021-09-25T09:38:25.000Z</time>
      </trkpt>
      <trkpt lat="47.26046" lon="-1.4384">
        <ele>50</ele>
        <time>2021-09-25T09:38:27.000Z</time>
      </trkpt>
      <trkpt lat="47.2604" lon="-1.43856">
        <ele>50</ele>
        <time>2021-09-25T09:38:29.000Z</time>
      </trkpt>
      <trkpt lat="47.2603" lon="-1.43869">
        <ele>51</ele>
        <time>2021-09-25T09:38:31.000Z</time>
      </trkpt>
      <trkpt lat="47.26018" lon="-1.43878">
        <ele>51</ele>
        <time>2021-09-25T09:38:33.000Z</time>
      </trkpt>
      <trkpt lat="47.26006" lon="-1.43889">
        <ele>51</ele>
        <time>2021-09-25T09:38:35.000Z</time>
      </trkpt>
      <trkpt lat="47.25995" lon="-1.43901">
        <ele>51</ele>
        <time>2021-09-25T09:38:37.000Z</time>
      </trkpt>
      <trkpt lat="47.25984" lon="-1.43913">
        <ele>50</ele>
        <time>2021-09-25T09:38:39.000Z</time>
      </trkpt>
      <trkpt lat="47.25974" lon="-1.43926">
        <ele>51</ele>
        <time>2021-09-25T09:38:41.000Z</time>
      </trkpt>
      <trkpt lat="47.25963" lon="-1.43939">
        <ele>51</ele>
        <time>2021-09-25T09:38:43.000Z</time>
      </trkpt>
      <trkpt lat="47.25952" lon="-1.43952">
        <ele>51</ele>
        <time>2021-09-25T09:38:45.000Z</time>
      </trkpt>
      <trkpt lat="47.25941" lon="-1.43965">
        <ele>51</ele>
        <time>2021-09-25T09:38:47.000Z</time>
      </trkpt>
      <trkpt lat="47.2593" lon="-1.43976">
        <ele>51</ele>
        <time>2021-09-25T09:38:49.000Z</time>
      </trkpt>
      <trkpt lat="47.2592" lon="-1.43989">
        <ele>51</ele>
        <time>2021-09-25T09:38:51.000Z</time>
      </trkpt>
      <trkpt lat="47.25909" lon="-1.44001">
        <ele>50</ele>
        <time>2021-09-25T09:38:53.000Z</time>
      </trkpt>
      <trkpt lat="47.25898" lon="-1.44013">
        <ele>51</ele>
        <time>2021-09-25T09:38:55.000Z</time>
      </trkpt>
      <trkpt lat="47.25888" lon="-1.44026">
        <ele>52</ele>
        <time>2021-09-25T09:38:57.000Z</time>
      </trkpt>
      <trkpt lat="47.2588" lon="-1.4404">
        <ele>52</ele>
        <time>2021-09-25T09:38:59.000Z</time>
      </trkpt>
      <trkpt lat="47.25873" lon="-1.44058">
        <ele>52</ele>
        <time>2021-09-25T09:39:01.000Z</time>
      </trkpt>
      <trkpt lat="47.25867" lon="-1.44076">
        <ele>51</ele>
        <time>2021-09-25T09:39:03.000Z</time>
      </trkpt>
      <trkpt lat="47.25859" lon="-1.44091">
        <ele>51</ele>
        <time>2021-09-25T09:39:05.000Z</time>
      </trkpt>
      <trkpt lat="47.25849" lon="-1.44105">
        <ele>51</ele>
        <time>2021-09-25T09:39:07.000Z</time>
      </trkpt>
      <trkpt lat="47.25838" lon="-1.44117">
        <ele>51</ele>
        <time>2021-09-25T09:39:09.000Z</time>
      </trkpt>
      <trkpt lat="47.25827" lon="-1.44128">
        <ele>51</ele>
        <time>2021-09-25T09:39:11.000Z</time>
      </trkpt>
      <trkpt lat="47.25817" lon="-1.4414">
        <ele>51</ele>
        <time>2021-09-25T09:39:13.000Z</time>
      </trkpt>
      <trkpt lat="47.25806" lon="-1.44151">
        <ele>51</ele>
        <time>2021-09-25T09:39:15.000Z</time>
      </trkpt>
      <trkpt lat="47.25795" lon="-1.44163">
        <ele>51</ele>
        <time>2021-09-25T09:39:17.000Z</time>
      </trkpt>
      <trkpt lat="47.25784" lon="-1.44175">
        <ele>52</ele>
        <time>2021-09-25T09:39:19.000Z</time>
      </trkpt>
      <trkpt lat="47.25773" lon="-1.44187">
        <ele>52</ele>
        <time>2021-09-25T09:39:21.000Z</time>
      </trkpt>
      <trkpt lat="47.25763" lon="-1.44199">
        <ele>51</ele>
        <time>2021-09-25T09:39:23.000Z</time>
      </trkpt>
      <trkpt lat="47.25753" lon="-1.44212">
        <ele>51</ele>
        <time>2021-09-25T09:39:25.000Z</time>
      </trkpt>
      <trkpt lat="47.25743" lon="-1.44226">
        <ele>51</ele>
        <time>2021-09-25T09:39:27.000Z</time>
      </trkpt>
      <trkpt lat="47.25733" lon="-1.44238">
        <ele>51</ele>
        <time>2021-09-25T09:39:29.000Z</time>
      </trkpt>
      <trkpt lat="47.25723" lon="-1.44251">
        <ele>51</ele>
        <time>2021-09-25T09:39:31.000Z</time>
      </trkpt>
      <trkpt lat="47.25713" lon="-1.44263">
        <ele>51</ele>
        <time>2021-09-25T09:39:33.000Z</time>
      </trkpt>
      <trkpt lat="47.25703" lon="-1.44275">
        <ele>52</ele>
        <time>2021-09-25T09:39:35.000Z</time>
      </trkpt>
      <trkpt lat="47.25692" lon="-1.44287">
        <ele>51</ele>
        <time>2021-09-25T09:39:37.000Z</time>
      </trkpt>
      <trkpt lat="47.25682" lon="-1.443">
        <ele>51</ele>
        <time>2021-09-25T09:39:39.000Z</time>
      </trkpt>
      <trkpt lat="47.25672" lon="-1.44313">
        <ele>51</ele>
        <time>2021-09-25T09:39:41.000Z</time>
      </trkpt>
      <trkpt lat="47.25662" lon="-1.44326">
        <ele>51</ele>
        <time>2021-09-25T09:39:43.000Z</time>
      </trkpt>
      <trkpt lat="47.25652" lon="-1.44337">
        <ele>51</ele>
        <time>2021-09-25T09:39:45.000Z</time>
      </trkpt>
      <trkpt lat="47.25641" lon="-1.44349">
        <ele>51</ele>
        <time>2021-09-25T09:39:47.000Z</time>
      </trkpt>
      <trkpt lat="47.25631" lon="-1.44361">
        <ele>51</ele>
        <time>2021-09-25T09:39:49.000Z</time>
      </trkpt>
      <trkpt lat="47.2562" lon="-1.44373">
        <ele>51</ele>
        <time>2021-09-25T09:39:51.000Z</time>
      </trkpt>
      <trkpt lat="47.25609" lon="-1.44385">
        <ele>51</ele>
        <time>2021-09-25T09:39:53.000Z</time>
      </trkpt>
      <trkpt lat="47.25598" lon="-1.44397">
        <ele>51</ele>
        <time>2021-09-25T09:39:55.000Z</time>
      </trkpt>
      <trkpt lat="47.25587" lon="-1.4441">
        <ele>50</ele>
        <time>2021-09-25T09:39:57.000Z</time>
      </trkpt>
      <trkpt lat="47.25577" lon="-1.44423">
        <ele>51</ele>
        <time>2021-09-25T09:39:59.000Z</time>
      </trkpt>
      <trkpt lat="47.25567" lon="-1.44435">
        <ele>51</ele>
        <time>2021-09-25T09:40:01.000Z</time>
      </trkpt>
      <trkpt lat="47.25557" lon="-1.44448">
        <ele>51</ele>
        <time>2021-09-25T09:40:03.000Z</time>
      </trkpt>
      <trkpt lat="47.25547" lon="-1.44463">
        <ele>51</ele>
        <time>2021-09-25T09:40:05.000Z</time>
      </trkpt>
      <trkpt lat="47.25538" lon="-1.44478">
        <ele>51</ele>
        <time>2021-09-25T09:40:07.000Z</time>
      </trkpt>
      <trkpt lat="47.25528" lon="-1.44493">
        <ele>52</ele>
        <time>2021-09-25T09:40:09.000Z</time>
      </trkpt>
      <trkpt lat="47.25519" lon="-1.44507">
        <ele>52</ele>
        <time>2021-09-25T09:40:11.000Z</time>
      </trkpt>
      <trkpt lat="47.25509" lon="-1.44522">
        <ele>51</ele>
        <time>2021-09-25T09:40:13.000Z</time>
      </trkpt>
      <trkpt lat="47.25499" lon="-1.44535">
        <ele>51</ele>
        <time>2021-09-25T09:40:15.000Z</time>
      </trkpt>
      <trkpt lat="47.25489" lon="-1.44549">
        <ele>50</ele>
        <time>2021-09-25T09:40:17.000Z</time>
      </trkpt>
      <trkpt lat="47.25479" lon="-1.44563">
        <ele>50</ele>
        <time>2021-09-25T09:40:19.000Z</time>
      </trkpt>
      <trkpt lat="47.2547" lon="-1.44578">
        <ele>50</ele>
        <time>2021-09-25T09:40:21.000Z</time>
      </trkpt>
      <trkpt lat="47.25461" lon="-1.44593">
        <ele>49</ele>
        <time>2021-09-25T09:40:23.000Z</time>
      </trkpt>
      <trkpt lat="47.25451" lon="-1.44607">
        <ele>49</ele>
        <time>2021-09-25T09:40:25.000Z</time>
      </trkpt>
      <trkpt lat="47.25441" lon="-1.4462">
        <ele>49</ele>
        <time>2021-09-25T09:40:27.000Z</time>
      </trkpt>
      <trkpt lat="47.25431" lon="-1.44633">
        <ele>49</ele>
        <time>2021-09-25T09:40:29.000Z</time>
      </trkpt>
      <trkpt lat="47.25422" lon="-1.44647">
        <ele>50</ele>
        <time>2021-09-25T09:40:31.000Z</time>
      </trkpt>
      <trkpt lat="47.25411" lon="-1.44659">
        <ele>50</ele>
        <time>2021-09-25T09:40:33.000Z</time>
      </trkpt>
      <trkpt lat="47.25401" lon="-1.44673">
        <ele>50</ele>
        <time>2021-09-25T09:40:35.000Z</time>
      </trkpt>
      <trkpt lat="47.25391" lon="-1.44687">
        <ele>49</ele>
        <time>2021-09-25T09:40:37.000Z</time>
      </trkpt>
      <trkpt lat="47.2538" lon="-1.447">
        <ele>49</ele>
        <time>2021-09-25T09:40:39.000Z</time>
      </trkpt>
      <trkpt lat="47.2537" lon="-1.44712">
        <ele>49</ele>
        <time>2021-09-25T09:40:41.000Z</time>
      </trkpt>
      <trkpt lat="47.25359" lon="-1.44724">
        <ele>50</ele>
        <time>2021-09-25T09:40:43.000Z</time>
      </trkpt>
      <trkpt lat="47.25348" lon="-1.44736">
        <ele>50</ele>
        <time>2021-09-25T09:40:45.000Z</time>
      </trkpt>
      <trkpt lat="47.25336" lon="-1.44747">
        <ele>49</ele>
        <time>2021-09-25T09:40:47.000Z</time>
      </trkpt>
      <trkpt lat="47.25324" lon="-1.44759">
        <ele>50</ele>
        <time>2021-09-25T09:40:49.000Z</time>
      </trkpt>
      <trkpt lat="47.25312" lon="-1.4477">
        <ele>50</ele>
        <time>2021-09-25T09:40:51.000Z</time>
      </trkpt>
      <trkpt lat="47.25301" lon="-1.44781">
        <ele>50</ele>
        <time>2021-09-25T09:40:53.000Z</time>
      </trkpt>
      <trkpt lat="47.2529" lon="-1.44793">
        <ele>50</ele>
        <time>2021-09-25T09:40:55.000Z</time>
      </trkpt>
      <trkpt lat="47.2528" lon="-1.44806">
        <ele>50</ele>
        <time>2021-09-25T09:40:57.000Z</time>
      </trkpt>
      <trkpt lat="47.2527" lon="-1.4482">
        <ele>50</ele>
        <time>2021-09-25T09:40:59.000Z</time>
      </trkpt>
      <trkpt lat="47.25259" lon="-1.44833">
        <ele>50</ele>
        <time>2021-09-25T09:41:01.000Z</time>
      </trkpt>
      <trkpt lat="47.25247" lon="-1.44845">
        <ele>49</ele>
        <time>2021-09-25T09:41:03.000Z</time>
      </trkpt>
      <trkpt lat="47.2523" lon="-1.44863">
        <ele>49</ele>
        <time>2021-09-25T09:41:06.000Z</time>
      </trkpt>
      <trkpt lat="47.25218" lon="-1.44874">
        <ele>49</ele>
        <time>2021-09-25T09:41:08.000Z</time>
      </trkpt>
      <trkpt lat="47.25206" lon="-1.44884">
        <ele>49</ele>
        <time>2021-09-25T09:41:10.000Z</time>
      </trkpt>
      <trkpt lat="47.25188" lon="-1.449">
        <ele>49</ele>
        <time>2021-09-25T09:41:13.000Z</time>
      </trkpt>
      <trkpt lat="47.25175" lon="-1.4491">
        <ele>49</ele>
        <time>2021-09-25T09:41:15.000Z</time>
      </trkpt>
      <trkpt lat="47.25163" lon="-1.4492">
        <ele>50</ele>
        <time>2021-09-25T09:41:17.000Z</time>
      </trkpt>
      <trkpt lat="47.25151" lon="-1.44932">
        <ele>50</ele>
        <time>2021-09-25T09:41:19.000Z</time>
      </trkpt>
      <trkpt lat="47.25139" lon="-1.44943">
        <ele>49</ele>
        <time>2021-09-25T09:41:21.000Z</time>
      </trkpt>
      <trkpt lat="47.25127" lon="-1.44953">
        <ele>49</ele>
        <time>2021-09-25T09:41:23.000Z</time>
      </trkpt>
      <trkpt lat="47.25116" lon="-1.44964">
        <ele>49</ele>
        <time>2021-09-25T09:41:25.000Z</time>
      </trkpt>
      <trkpt lat="47.25099" lon="-1.4498">
        <ele>49</ele>
        <time>2021-09-25T09:41:28.000Z</time>
      </trkpt>
      <trkpt lat="47.25087" lon="-1.4499">
        <ele>49</ele>
        <time>2021-09-25T09:41:30.000Z</time>
      </trkpt>
      <trkpt lat="47.25076" lon="-1.44999">
        <ele>49</ele>
        <time>2021-09-25T09:41:32.000Z</time>
      </trkpt>
      <trkpt lat="47.25064" lon="-1.45009">
        <ele>49</ele>
        <time>2021-09-25T09:41:34.000Z</time>
      </trkpt>
      <trkpt lat="47.25053" lon="-1.45017">
        <ele>49</ele>
        <time>2021-09-25T09:41:36.000Z</time>
      </trkpt>
      <trkpt lat="47.25041" lon="-1.45027">
        <ele>49</ele>
        <time>2021-09-25T09:41:38.000Z</time>
      </trkpt>
      <trkpt lat="47.25029" lon="-1.45036">
        <ele>49</ele>
        <time>2021-09-25T09:41:40.000Z</time>
      </trkpt>
      <trkpt lat="47.25017" lon="-1.45047">
        <ele>49</ele>
        <time>2021-09-25T09:41:42.000Z</time>
      </trkpt>
      <trkpt lat="47.25005" lon="-1.45057">
        <ele>48</ele>
        <time>2021-09-25T09:41:44.000Z</time>
      </trkpt>
      <trkpt lat="47.24994" lon="-1.4507">
        <ele>49</ele>
        <time>2021-09-25T09:41:46.000Z</time>
      </trkpt>
      <trkpt lat="47.24984" lon="-1.45082">
        <ele>48</ele>
        <time>2021-09-25T09:41:48.000Z</time>
      </trkpt>
      <trkpt lat="47.24973" lon="-1.45094">
        <ele>49</ele>
        <time>2021-09-25T09:41:50.000Z</time>
      </trkpt>
      <trkpt lat="47.24962" lon="-1.45105">
        <ele>49</ele>
        <time>2021-09-25T09:41:52.000Z</time>
      </trkpt>
      <trkpt lat="47.24951" lon="-1.45116">
        <ele>49</ele>
        <time>2021-09-25T09:41:54.000Z</time>
      </trkpt>
      <trkpt lat="47.2494" lon="-1.45127">
        <ele>49</ele>
        <time>2021-09-25T09:41:56.000Z</time>
      </trkpt>
      <trkpt lat="47.2493" lon="-1.45138">
        <ele>49</ele>
        <time>2021-09-25T09:41:58.000Z</time>
      </trkpt>
      <trkpt lat="47.24919" lon="-1.45149">
        <ele>49</ele>
        <time>2021-09-25T09:42:00.000Z</time>
      </trkpt>
      <trkpt lat="47.24909" lon="-1.45161">
        <ele>49</ele>
        <time>2021-09-25T09:42:02.000Z</time>
      </trkpt>
      <trkpt lat="47.249" lon="-1.45175">
        <ele>49</ele>
        <time>2021-09-25T09:42:04.000Z</time>
      </trkpt>
      <trkpt lat="47.2489" lon="-1.45188">
        <ele>48</ele>
        <time>2021-09-25T09:42:06.000Z</time>
      </trkpt>
      <trkpt lat="47.24882" lon="-1.452">
        <ele>48</ele>
        <time>2021-09-25T09:42:08.000Z</time>
      </trkpt>
      <trkpt lat="47.24873" lon="-1.45212">
        <ele>48</ele>
        <time>2021-09-25T09:42:10.000Z</time>
      </trkpt>
      <trkpt lat="47.24864" lon="-1.45224">
        <ele>48</ele>
        <time>2021-09-25T09:42:12.000Z</time>
      </trkpt>
      <trkpt lat="47.24857" lon="-1.45237">
        <ele>49</ele>
        <time>2021-09-25T09:42:14.000Z</time>
      </trkpt>
      <trkpt lat="47.24849" lon="-1.45251">
        <ele>50</ele>
        <time>2021-09-25T09:42:16.000Z</time>
      </trkpt>
      <trkpt lat="47.2484" lon="-1.45266">
        <ele>50</ele>
        <time>2021-09-25T09:42:18.000Z</time>
      </trkpt>
      <trkpt lat="47.24831" lon="-1.45282">
        <ele>50</ele>
        <time>2021-09-25T09:42:20.000Z</time>
      </trkpt>
      <trkpt lat="47.24823" lon="-1.45296">
        <ele>51</ele>
        <time>2021-09-25T09:42:22.000Z</time>
      </trkpt>
      <trkpt lat="47.24816" lon="-1.45311">
        <ele>52</ele>
        <time>2021-09-25T09:42:24.000Z</time>
      </trkpt>
      <trkpt lat="47.24808" lon="-1.45326">
        <ele>52</ele>
        <time>2021-09-25T09:42:26.000Z</time>
      </trkpt>
      <trkpt lat="47.248" lon="-1.45341">
        <ele>52</ele>
        <time>2021-09-25T09:42:28.000Z</time>
      </trkpt>
      <trkpt lat="47.24792" lon="-1.45357">
        <ele>52</ele>
        <time>2021-09-25T09:42:30.000Z</time>
      </trkpt>
      <trkpt lat="47.24785" lon="-1.45375">
        <ele>52</ele>
        <time>2021-09-25T09:42:32.000Z</time>
      </trkpt>
      <trkpt lat="47.24779" lon="-1.45392">
        <ele>52</ele>
        <time>2021-09-25T09:42:34.000Z</time>
      </trkpt>
      <trkpt lat="47.24772" lon="-1.45409">
        <ele>52</ele>
        <time>2021-09-25T09:42:36.000Z</time>
      </trkpt>
      <trkpt lat="47.24765" lon="-1.45425">
        <ele>52</ele>
        <time>2021-09-25T09:42:38.000Z</time>
      </trkpt>
      <trkpt lat="47.24758" lon="-1.45441">
        <ele>51</ele>
        <time>2021-09-25T09:42:40.000Z</time>
      </trkpt>
      <trkpt lat="47.24751" lon="-1.45458">
        <ele>51</ele>
        <time>2021-09-25T09:42:42.000Z</time>
      </trkpt>
      <trkpt lat="47.24745" lon="-1.45475">
        <ele>51</ele>
        <time>2021-09-25T09:42:44.000Z</time>
      </trkpt>
      <trkpt lat="47.24738" lon="-1.45492">
        <ele>51</ele>
        <time>2021-09-25T09:42:46.000Z</time>
      </trkpt>
      <trkpt lat="47.24731" lon="-1.45509">
        <ele>51</ele>
        <time>2021-09-25T09:42:48.000Z</time>
      </trkpt>
      <trkpt lat="47.24725" lon="-1.45527">
        <ele>50</ele>
        <time>2021-09-25T09:42:50.000Z</time>
      </trkpt>
      <trkpt lat="47.24718" lon="-1.45544">
        <ele>50</ele>
        <time>2021-09-25T09:42:52.000Z</time>
      </trkpt>
      <trkpt lat="47.24712" lon="-1.45562">
        <ele>50</ele>
        <time>2021-09-25T09:42:54.000Z</time>
      </trkpt>
      <trkpt lat="47.24706" lon="-1.45579">
        <ele>50</ele>
        <time>2021-09-25T09:42:56.000Z</time>
      </trkpt>
      <trkpt lat="47.24701" lon="-1.45596">
        <ele>50</ele>
        <time>2021-09-25T09:42:58.000Z</time>
      </trkpt>
      <trkpt lat="47.24696" lon="-1.45613">
        <ele>50</ele>
        <time>2021-09-25T09:43:00.000Z</time>
      </trkpt>
      <trkpt lat="47.2469" lon="-1.45631">
        <ele>50</ele>
        <time>2021-09-25T09:43:02.000Z</time>
      </trkpt>
      <trkpt lat="47.24685" lon="-1.45648">
        <ele>51</ele>
        <time>2021-09-25T09:43:04.000Z</time>
      </trkpt>
      <trkpt lat="47.24679" lon="-1.45664">
        <ele>51</ele>
        <time>2021-09-25T09:43:06.000Z</time>
      </trkpt>
      <trkpt lat="47.24674" lon="-1.45681">
        <ele>51</ele>
        <time>2021-09-25T09:43:08.000Z</time>
      </trkpt>
      <trkpt lat="47.2467" lon="-1.457">
        <ele>51</ele>
        <time>2021-09-25T09:43:10.000Z</time>
      </trkpt>
      <trkpt lat="47.24665" lon="-1.4572">
        <ele>51</ele>
        <time>2021-09-25T09:43:12.000Z</time>
      </trkpt>
      <trkpt lat="47.24661" lon="-1.45739">
        <ele>51</ele>
        <time>2021-09-25T09:43:14.000Z</time>
      </trkpt>
      <trkpt lat="47.24658" lon="-1.45757">
        <ele>51</ele>
        <time>2021-09-25T09:43:16.000Z</time>
      </trkpt>
      <trkpt lat="47.24654" lon="-1.45775">
        <ele>52</ele>
        <time>2021-09-25T09:43:18.000Z</time>
      </trkpt>
      <trkpt lat="47.24649" lon="-1.45792">
        <ele>52</ele>
        <time>2021-09-25T09:43:20.000Z</time>
      </trkpt>
      <trkpt lat="47.24644" lon="-1.45809">
        <ele>53</ele>
        <time>2021-09-25T09:43:22.000Z</time>
      </trkpt>
      <trkpt lat="47.24638" lon="-1.45826">
        <ele>53</ele>
        <time>2021-09-25T09:43:24.000Z</time>
      </trkpt>
      <trkpt lat="47.24633" lon="-1.45844">
        <ele>54</ele>
        <time>2021-09-25T09:43:26.000Z</time>
      </trkpt>
      <trkpt lat="47.24629" lon="-1.45861">
        <ele>54</ele>
        <time>2021-09-25T09:43:28.000Z</time>
      </trkpt>
      <trkpt lat="47.24626" lon="-1.45879">
        <ele>54</ele>
        <time>2021-09-25T09:43:30.000Z</time>
      </trkpt>
      <trkpt lat="47.24621" lon="-1.45899">
        <ele>55</ele>
        <time>2021-09-25T09:43:32.000Z</time>
      </trkpt>
      <trkpt lat="47.24615" lon="-1.45917">
        <ele>54</ele>
        <time>2021-09-25T09:43:34.000Z</time>
      </trkpt>
      <trkpt lat="47.24608" lon="-1.45935">
        <ele>54</ele>
        <time>2021-09-25T09:43:36.000Z</time>
      </trkpt>
      <trkpt lat="47.24599" lon="-1.45951">
        <ele>55</ele>
        <time>2021-09-25T09:43:38.000Z</time>
      </trkpt>
      <trkpt lat="47.24592" lon="-1.45967">
        <ele>55</ele>
        <time>2021-09-25T09:43:40.000Z</time>
      </trkpt>
      <trkpt lat="47.24584" lon="-1.45984">
        <ele>54</ele>
        <time>2021-09-25T09:43:42.000Z</time>
      </trkpt>
      <trkpt lat="47.24576" lon="-1.46002">
        <ele>54</ele>
        <time>2021-09-25T09:43:44.000Z</time>
      </trkpt>
      <trkpt lat="47.24569" lon="-1.46018">
        <ele>54</ele>
        <time>2021-09-25T09:43:46.000Z</time>
      </trkpt>
      <trkpt lat="47.24562" lon="-1.46034">
        <ele>55</ele>
        <time>2021-09-25T09:43:48.000Z</time>
      </trkpt>
      <trkpt lat="47.24554" lon="-1.46049">
        <ele>55</ele>
        <time>2021-09-25T09:43:50.000Z</time>
      </trkpt>
      <trkpt lat="47.24545" lon="-1.46065">
        <ele>55</ele>
        <time>2021-09-25T09:43:52.000Z</time>
      </trkpt>
      <trkpt lat="47.24537" lon="-1.46081">
        <ele>55</ele>
        <time>2021-09-25T09:43:54.000Z</time>
      </trkpt>
      <trkpt lat="47.24529" lon="-1.46096">
        <ele>54</ele>
        <time>2021-09-25T09:43:56.000Z</time>
      </trkpt>
      <trkpt lat="47.24521" lon="-1.4611">
        <ele>54</ele>
        <time>2021-09-25T09:43:58.000Z</time>
      </trkpt>
      <trkpt lat="47.24512" lon="-1.46122">
        <ele>54</ele>
        <time>2021-09-25T09:44:00.000Z</time>
      </trkpt>
      <trkpt lat="47.24502" lon="-1.46133">
        <ele>54</ele>
        <time>2021-09-25T09:44:02.000Z</time>
      </trkpt>
      <trkpt lat="47.24491" lon="-1.46145">
        <ele>54</ele>
        <time>2021-09-25T09:44:04.000Z</time>
      </trkpt>
      <trkpt lat="47.24481" lon="-1.46158">
        <ele>53</ele>
        <time>2021-09-25T09:44:06.000Z</time>
      </trkpt>
      <trkpt lat="47.2447" lon="-1.46169">
        <ele>53</ele>
        <time>2021-09-25T09:44:08.000Z</time>
      </trkpt>
      <trkpt lat="47.2446" lon="-1.46182">
        <ele>53</ele>
        <time>2021-09-25T09:44:10.000Z</time>
      </trkpt>
      <trkpt lat="47.2445" lon="-1.46193">
        <ele>53</ele>
        <time>2021-09-25T09:44:12.000Z</time>
      </trkpt>
      <trkpt lat="47.24439" lon="-1.46206">
        <ele>53</ele>
        <time>2021-09-25T09:44:14.000Z</time>
      </trkpt>
      <trkpt lat="47.24428" lon="-1.46218">
        <ele>53</ele>
        <time>2021-09-25T09:44:16.000Z</time>
      </trkpt>
      <trkpt lat="47.24419" lon="-1.46232">
        <ele>53</ele>
        <time>2021-09-25T09:44:18.000Z</time>
      </trkpt>
      <trkpt lat="47.24409" lon="-1.46245">
        <ele>53</ele>
        <time>2021-09-25T09:44:20.000Z</time>
      </trkpt>
      <trkpt lat="47.244" lon="-1.46259">
        <ele>53</ele>
        <time>2021-09-25T09:44:22.000Z</time>
      </trkpt>
      <trkpt lat="47.24391" lon="-1.46271">
        <ele>53</ele>
        <time>2021-09-25T09:44:24.000Z</time>
      </trkpt>
      <trkpt lat="47.24382" lon="-1.46284">
        <ele>53</ele>
        <time>2021-09-25T09:44:26.000Z</time>
      </trkpt>
      <trkpt lat="47.24372" lon="-1.46297">
        <ele>53</ele>
        <time>2021-09-25T09:44:28.000Z</time>
      </trkpt>
      <trkpt lat="47.24363" lon="-1.46311">
        <ele>53</ele>
        <time>2021-09-25T09:44:30.000Z</time>
      </trkpt>
      <trkpt lat="47.24355" lon="-1.46326">
        <ele>53</ele>
        <time>2021-09-25T09:44:32.000Z</time>
      </trkpt>
      <trkpt lat="47.24347" lon="-1.4634">
        <ele>53</ele>
        <time>2021-09-25T09:44:34.000Z</time>
      </trkpt>
      <trkpt lat="47.24338" lon="-1.46355">
        <ele>53</ele>
        <time>2021-09-25T09:44:36.000Z</time>
      </trkpt>
      <trkpt lat="47.24329" lon="-1.4637">
        <ele>53</ele>
        <time>2021-09-25T09:44:38.000Z</time>
      </trkpt>
      <trkpt lat="47.24322" lon="-1.46384">
        <ele>53</ele>
        <time>2021-09-25T09:44:40.000Z</time>
      </trkpt>
      <trkpt lat="47.24314" lon="-1.46399">
        <ele>52</ele>
        <time>2021-09-25T09:44:42.000Z</time>
      </trkpt>
      <trkpt lat="47.24305" lon="-1.46413">
        <ele>53</ele>
        <time>2021-09-25T09:44:44.000Z</time>
      </trkpt>
      <trkpt lat="47.24296" lon="-1.46427">
        <ele>52</ele>
        <time>2021-09-25T09:44:46.000Z</time>
      </trkpt>
      <trkpt lat="47.24287" lon="-1.46441">
        <ele>52</ele>
        <time>2021-09-25T09:44:48.000Z</time>
      </trkpt>
      <trkpt lat="47.24278" lon="-1.46455">
        <ele>53</ele>
        <time>2021-09-25T09:44:50.000Z</time>
      </trkpt>
      <trkpt lat="47.24268" lon="-1.46467">
        <ele>53</ele>
        <time>2021-09-25T09:44:52.000Z</time>
      </trkpt>
      <trkpt lat="47.24259" lon="-1.4648">
        <ele>53</ele>
        <time>2021-09-25T09:44:54.000Z</time>
      </trkpt>
      <trkpt lat="47.24249" lon="-1.46492">
        <ele>54</ele>
        <time>2021-09-25T09:44:56.000Z</time>
      </trkpt>
      <trkpt lat="47.24239" lon="-1.46505">
        <ele>54</ele>
        <time>2021-09-25T09:44:58.000Z</time>
      </trkpt>
      <trkpt lat="47.24228" lon="-1.46518">
        <ele>54</ele>
        <time>2021-09-25T09:45:00.000Z</time>
      </trkpt>
      <trkpt lat="47.24218" lon="-1.4653">
        <ele>54</ele>
        <time>2021-09-25T09:45:02.000Z</time>
      </trkpt>
      <trkpt lat="47.24209" lon="-1.46542">
        <ele>54</ele>
        <time>2021-09-25T09:45:04.000Z</time>
      </trkpt>
      <trkpt lat="47.24199" lon="-1.46553">
        <ele>54</ele>
        <time>2021-09-25T09:45:06.000Z</time>
      </trkpt>
      <trkpt lat="47.24189" lon="-1.46566">
        <ele>54</ele>
        <time>2021-09-25T09:45:08.000Z</time>
      </trkpt>
      <trkpt lat="47.24179" lon="-1.46578">
        <ele>53</ele>
        <time>2021-09-25T09:45:10.000Z</time>
      </trkpt>
      <trkpt lat="47.2417" lon="-1.46591">
        <ele>54</ele>
        <time>2021-09-25T09:45:12.000Z</time>
      </trkpt>
      <trkpt lat="47.2416" lon="-1.46603">
        <ele>54</ele>
        <time>2021-09-25T09:45:14.000Z</time>
      </trkpt>
      <trkpt lat="47.24151" lon="-1.46615">
        <ele>54</ele>
        <time>2021-09-25T09:45:16.000Z</time>
      </trkpt>
      <trkpt lat="47.24142" lon="-1.46627">
        <ele>54</ele>
        <time>2021-09-25T09:45:18.000Z</time>
      </trkpt>
      <trkpt lat="47.24132" lon="-1.4664">
        <ele>53</ele>
        <time>2021-09-25T09:45:20.000Z</time>
      </trkpt>
      <trkpt lat="47.24124" lon="-1.46652">
        <ele>53</ele>
        <time>2021-09-25T09:45:22.000Z</time>
      </trkpt>
      <trkpt lat="47.24115" lon="-1.46666">
        <ele>53</ele>
        <time>2021-09-25T09:45:24.000Z</time>
      </trkpt>
      <trkpt lat="47.24105" lon="-1.46679">
        <ele>54</ele>
        <time>2021-09-25T09:45:26.000Z</time>
      </trkpt>
      <trkpt lat="47.24096" lon="-1.46692">
        <ele>53</ele>
        <time>2021-09-25T09:45:28.000Z</time>
      </trkpt>
      <trkpt lat="47.24087" lon="-1.46705">
        <ele>53</ele>
        <time>2021-09-25T09:45:30.000Z</time>
      </trkpt>
      <trkpt lat="47.24081" lon="-1.46719">
        <ele>52</ele>
        <time>2021-09-25T09:45:32.000Z</time>
      </trkpt>
      <trkpt lat="47.24075" lon="-1.46735">
        <ele>52</ele>
        <time>2021-09-25T09:45:34.000Z</time>
      </trkpt>
      <trkpt lat="47.24064" lon="-1.46744">
        <ele>52</ele>
        <time>2021-09-25T09:45:36.000Z</time>
      </trkpt>
      <trkpt lat="47.24052" lon="-1.46752">
        <ele>52</ele>
        <time>2021-09-25T09:45:38.000Z</time>
      </trkpt>
      <trkpt lat="47.24041" lon="-1.46763">
        <ele>52</ele>
        <time>2021-09-25T09:45:40.000Z</time>
      </trkpt>
      <trkpt lat="47.2403" lon="-1.46774">
        <ele>52</ele>
        <time>2021-09-25T09:45:42.000Z</time>
      </trkpt>
      <trkpt lat="47.2402" lon="-1.46786">
        <ele>52</ele>
        <time>2021-09-25T09:45:44.000Z</time>
      </trkpt>
      <trkpt lat="47.2401" lon="-1.46797">
        <ele>52</ele>
        <time>2021-09-25T09:45:46.000Z</time>
      </trkpt>
      <trkpt lat="47.24" lon="-1.46809">
        <ele>52</ele>
        <time>2021-09-25T09:45:48.000Z</time>
      </trkpt>
      <trkpt lat="47.2399" lon="-1.4682">
        <ele>52</ele>
        <time>2021-09-25T09:45:50.000Z</time>
      </trkpt>
      <trkpt lat="47.23979" lon="-1.4683">
        <ele>52</ele>
        <time>2021-09-25T09:45:52.000Z</time>
      </trkpt>
      <trkpt lat="47.23969" lon="-1.46841">
        <ele>52</ele>
        <time>2021-09-25T09:45:54.000Z</time>
      </trkpt>
      <trkpt lat="47.23958" lon="-1.46852">
        <ele>52</ele>
        <time>2021-09-25T09:45:56.000Z</time>
      </trkpt>
      <trkpt lat="47.23947" lon="-1.46862">
        <ele>53</ele>
        <time>2021-09-25T09:45:58.000Z</time>
      </trkpt>
      <trkpt lat="47.23936" lon="-1.46871">
        <ele>53</ele>
        <time>2021-09-25T09:46:00.000Z</time>
      </trkpt>
      <trkpt lat="47.23925" lon="-1.46882">
        <ele>54</ele>
        <time>2021-09-25T09:46:02.000Z</time>
      </trkpt>
      <trkpt lat="47.23915" lon="-1.46892">
        <ele>54</ele>
        <time>2021-09-25T09:46:04.000Z</time>
      </trkpt>
      <trkpt lat="47.23905" lon="-1.46904">
        <ele>54</ele>
        <time>2021-09-25T09:46:06.000Z</time>
      </trkpt>
      <trkpt lat="47.23897" lon="-1.46918">
        <ele>54</ele>
        <time>2021-09-25T09:46:08.000Z</time>
      </trkpt>
      <trkpt lat="47.23889" lon="-1.46931">
        <ele>54</ele>
        <time>2021-09-25T09:46:10.000Z</time>
      </trkpt>
      <trkpt lat="47.2388" lon="-1.46943">
        <ele>54</ele>
        <time>2021-09-25T09:46:12.000Z</time>
      </trkpt>
      <trkpt lat="47.2387" lon="-1.46955">
        <ele>53</ele>
        <time>2021-09-25T09:46:14.000Z</time>
      </trkpt>
      <trkpt lat="47.2386" lon="-1.46968">
        <ele>53</ele>
        <time>2021-09-25T09:46:16.000Z</time>
      </trkpt>
      <trkpt lat="47.2385" lon="-1.46981">
        <ele>53</ele>
        <time>2021-09-25T09:46:18.000Z</time>
      </trkpt>
      <trkpt lat="47.2384" lon="-1.46994">
        <ele>53</ele>
        <time>2021-09-25T09:46:20.000Z</time>
      </trkpt>
      <trkpt lat="47.23831" lon="-1.47007">
        <ele>54</ele>
        <time>2021-09-25T09:46:22.000Z</time>
      </trkpt>
      <trkpt lat="47.23822" lon="-1.47021">
        <ele>54</ele>
        <time>2021-09-25T09:46:24.000Z</time>
      </trkpt>
      <trkpt lat="47.23813" lon="-1.47035">
        <ele>54</ele>
        <time>2021-09-25T09:46:26.000Z</time>
      </trkpt>
      <trkpt lat="47.23803" lon="-1.47048">
        <ele>54</ele>
        <time>2021-09-25T09:46:28.000Z</time>
      </trkpt>
      <trkpt lat="47.23794" lon="-1.47061">
        <ele>53</ele>
        <time>2021-09-25T09:46:30.000Z</time>
      </trkpt>
      <trkpt lat="47.23784" lon="-1.47074">
        <ele>53</ele>
        <time>2021-09-25T09:46:32.000Z</time>
      </trkpt>
      <trkpt lat="47.23775" lon="-1.47088">
        <ele>53</ele>
        <time>2021-09-25T09:46:34.000Z</time>
      </trkpt>
      <trkpt lat="47.23765" lon="-1.47101">
        <ele>53</ele>
        <time>2021-09-25T09:46:36.000Z</time>
      </trkpt>
      <trkpt lat="47.23755" lon="-1.47115">
        <ele>52</ele>
        <time>2021-09-25T09:46:38.000Z</time>
      </trkpt>
      <trkpt lat="47.23746" lon="-1.47128">
        <ele>52</ele>
        <time>2021-09-25T09:46:40.000Z</time>
      </trkpt>
      <trkpt lat="47.23735" lon="-1.47139">
        <ele>52</ele>
        <time>2021-09-25T09:46:42.000Z</time>
      </trkpt>
      <trkpt lat="47.23725" lon="-1.47151">
        <ele>53</ele>
        <time>2021-09-25T09:46:44.000Z</time>
      </trkpt>
      <trkpt lat="47.23715" lon="-1.47165">
        <ele>53</ele>
        <time>2021-09-25T09:46:46.000Z</time>
      </trkpt>
      <trkpt lat="47.23705" lon="-1.47179">
        <ele>53</ele>
        <time>2021-09-25T09:46:48.000Z</time>
      </trkpt>
      <trkpt lat="47.23695" lon="-1.47193">
        <ele>53</ele>
        <time>2021-09-25T09:46:50.000Z</time>
      </trkpt>
      <trkpt lat="47.23686" lon="-1.47208">
        <ele>53</ele>
        <time>2021-09-25T09:46:52.000Z</time>
      </trkpt>
      <trkpt lat="47.23677" lon="-1.47224">
        <ele>52</ele>
        <time>2021-09-25T09:46:54.000Z</time>
      </trkpt>
      <trkpt lat="47.23666" lon="-1.47236">
        <ele>52</ele>
        <time>2021-09-25T09:46:56.000Z</time>
      </trkpt>
      <trkpt lat="47.23655" lon="-1.47247">
        <ele>52</ele>
        <time>2021-09-25T09:46:58.000Z</time>
      </trkpt>
      <trkpt lat="47.23644" lon="-1.47259">
        <ele>52</ele>
        <time>2021-09-25T09:47:00.000Z</time>
      </trkpt>
      <trkpt lat="47.23633" lon="-1.47271">
        <ele>52</ele>
        <time>2021-09-25T09:47:02.000Z</time>
      </trkpt>
      <trkpt lat="47.23622" lon="-1.47283">
        <ele>52</ele>
        <time>2021-09-25T09:47:04.000Z</time>
      </trkpt>
      <trkpt lat="47.23611" lon="-1.47295">
        <ele>51</ele>
        <time>2021-09-25T09:47:06.000Z</time>
      </trkpt>
      <trkpt lat="47.236" lon="-1.47306">
        <ele>50</ele>
        <time>2021-09-25T09:47:08.000Z</time>
      </trkpt>
      <trkpt lat="47.23589" lon="-1.47318">
        <ele>50</ele>
        <time>2021-09-25T09:47:10.000Z</time>
      </trkpt>
      <trkpt lat="47.23577" lon="-1.47329">
        <ele>50</ele>
        <time>2021-09-25T09:47:12.000Z</time>
      </trkpt>
      <trkpt lat="47.23565" lon="-1.47338">
        <ele>50</ele>
        <time>2021-09-25T09:47:14.000Z</time>
      </trkpt>
      <trkpt lat="47.23553" lon="-1.47348">
        <ele>50</ele>
        <time>2021-09-25T09:47:16.000Z</time>
      </trkpt>
      <trkpt lat="47.23541" lon="-1.47358">
        <ele>50</ele>
        <time>2021-09-25T09:47:18.000Z</time>
      </trkpt>
      <trkpt lat="47.23529" lon="-1.47369">
        <ele>50</ele>
        <time>2021-09-25T09:47:20.000Z</time>
      </trkpt>
      <trkpt lat="47.23518" lon="-1.47379">
        <ele>51</ele>
        <time>2021-09-25T09:47:22.000Z</time>
      </trkpt>
      <trkpt lat="47.23506" lon="-1.47388">
        <ele>51</ele>
        <time>2021-09-25T09:47:24.000Z</time>
      </trkpt>
      <trkpt lat="47.23494" lon="-1.47398">
        <ele>51</ele>
        <time>2021-09-25T09:47:26.000Z</time>
      </trkpt>
      <trkpt lat="47.23481" lon="-1.47405">
        <ele>52</ele>
        <time>2021-09-25T09:47:28.000Z</time>
      </trkpt>
      <trkpt lat="47.23468" lon="-1.47411">
        <ele>52</ele>
        <time>2021-09-25T09:47:30.000Z</time>
      </trkpt>
      <trkpt lat="47.23455" lon="-1.47416">
        <ele>53</ele>
        <time>2021-09-25T09:47:32.000Z</time>
      </trkpt>
      <trkpt lat="47.23442" lon="-1.4742">
        <ele>52</ele>
        <time>2021-09-25T09:47:34.000Z</time>
      </trkpt>
      <trkpt lat="47.23429" lon="-1.47425">
        <ele>52</ele>
        <time>2021-09-25T09:47:36.000Z</time>
      </trkpt>
      <trkpt lat="47.23416" lon="-1.47434">
        <ele>52</ele>
        <time>2021-09-25T09:47:38.000Z</time>
      </trkpt>
      <trkpt lat="47.23405" lon="-1.47444">
        <ele>53</ele>
        <time>2021-09-25T09:47:40.000Z</time>
      </trkpt>
      <trkpt lat="47.23393" lon="-1.47452">
        <ele>53</ele>
        <time>2021-09-25T09:47:42.000Z</time>
      </trkpt>
      <trkpt lat="47.23379" lon="-1.47459">
        <ele>53</ele>
        <time>2021-09-25T09:47:44.000Z</time>
      </trkpt>
      <trkpt lat="47.23366" lon="-1.47466">
        <ele>53</ele>
        <time>2021-09-25T09:47:46.000Z</time>
      </trkpt>
      <trkpt lat="47.23352" lon="-1.47471">
        <ele>53</ele>
        <time>2021-09-25T09:47:48.000Z</time>
      </trkpt>
      <trkpt lat="47.23339" lon="-1.47477">
        <ele>52</ele>
        <time>2021-09-25T09:47:50.000Z</time>
      </trkpt>
      <trkpt lat="47.23327" lon="-1.47482">
        <ele>52</ele>
        <time>2021-09-25T09:47:52.000Z</time>
      </trkpt>
      <trkpt lat="47.23316" lon="-1.47494">
        <ele>52</ele>
        <time>2021-09-25T09:47:54.000Z</time>
      </trkpt>
      <trkpt lat="47.23305" lon="-1.47504">
        <ele>53</ele>
        <time>2021-09-25T09:47:56.000Z</time>
      </trkpt>
      <trkpt lat="47.23292" lon="-1.47511">
        <ele>53</ele>
        <time>2021-09-25T09:47:58.000Z</time>
      </trkpt>
      <trkpt lat="47.23279" lon="-1.47518">
        <ele>54</ele>
        <time>2021-09-25T09:48:00.000Z</time>
      </trkpt>
      <trkpt lat="47.23267" lon="-1.47528">
        <ele>53</ele>
        <time>2021-09-25T09:48:02.000Z</time>
      </trkpt>
      <trkpt lat="47.23258" lon="-1.47541">
        <ele>53</ele>
        <time>2021-09-25T09:48:04.000Z</time>
      </trkpt>
      <trkpt lat="47.23249" lon="-1.47556">
        <ele>53</ele>
        <time>2021-09-25T09:48:06.000Z</time>
      </trkpt>
      <trkpt lat="47.23242" lon="-1.4757">
        <ele>52</ele>
        <time>2021-09-25T09:48:08.000Z</time>
      </trkpt>
      <trkpt lat="47.23234" lon="-1.47584">
        <ele>52</ele>
        <time>2021-09-25T09:48:10.000Z</time>
      </trkpt>
      <trkpt lat="47.23227" lon="-1.47598">
        <ele>52</ele>
        <time>2021-09-25T09:48:12.000Z</time>
      </trkpt>
      <trkpt lat="47.23219" lon="-1.47614">
        <ele>52</ele>
        <time>2021-09-25T09:48:14.000Z</time>
      </trkpt>
      <trkpt lat="47.23212" lon="-1.4763">
        <ele>52</ele>
        <time>2021-09-25T09:48:16.000Z</time>
      </trkpt>
      <trkpt lat="47.23206" lon="-1.47647">
        <ele>52</ele>
        <time>2021-09-25T09:48:18.000Z</time>
      </trkpt>
      <trkpt lat="47.232" lon="-1.47663">
        <ele>52</ele>
        <time>2021-09-25T09:48:20.000Z</time>
      </trkpt>
      <trkpt lat="47.23194" lon="-1.47679">
        <ele>52</ele>
        <time>2021-09-25T09:48:22.000Z</time>
      </trkpt>
      <trkpt lat="47.23187" lon="-1.47695">
        <ele>53</ele>
        <time>2021-09-25T09:48:24.000Z</time>
      </trkpt>
      <trkpt lat="47.23179" lon="-1.4771">
        <ele>52</ele>
        <time>2021-09-25T09:48:26.000Z</time>
      </trkpt>
      <trkpt lat="47.23172" lon="-1.47727">
        <ele>53</ele>
        <time>2021-09-25T09:48:28.000Z</time>
      </trkpt>
      <trkpt lat="47.23164" lon="-1.47744">
        <ele>52</ele>
        <time>2021-09-25T09:48:30.000Z</time>
      </trkpt>
      <trkpt lat="47.23157" lon="-1.4776">
        <ele>52</ele>
        <time>2021-09-25T09:48:32.000Z</time>
      </trkpt>
      <trkpt lat="47.23151" lon="-1.47777">
        <ele>51</ele>
        <time>2021-09-25T09:48:34.000Z</time>
      </trkpt>
      <trkpt lat="47.23144" lon="-1.47793">
        <ele>51</ele>
        <time>2021-09-25T09:48:36.000Z</time>
      </trkpt>
      <trkpt lat="47.23138" lon="-1.4781">
        <ele>51</ele>
        <time>2021-09-25T09:48:38.000Z</time>
      </trkpt>
      <trkpt lat="47.23132" lon="-1.47826">
        <ele>51</ele>
        <time>2021-09-25T09:48:40.000Z</time>
      </trkpt>
      <trkpt lat="47.23126" lon="-1.47842">
        <ele>50</ele>
        <time>2021-09-25T09:48:42.000Z</time>
      </trkpt>
      <trkpt lat="47.23118" lon="-1.47858">
        <ele>51</ele>
        <time>2021-09-25T09:48:44.000Z</time>
      </trkpt>
      <trkpt lat="47.23109" lon="-1.47872">
        <ele>51</ele>
        <time>2021-09-25T09:48:46.000Z</time>
      </trkpt>
      <trkpt lat="47.231" lon="-1.47886">
        <ele>52</ele>
        <time>2021-09-25T09:48:48.000Z</time>
      </trkpt>
      <trkpt lat="47.2309" lon="-1.47899">
        <ele>52</ele>
        <time>2021-09-25T09:48:50.000Z</time>
      </trkpt>
      <trkpt lat="47.2308" lon="-1.47912">
        <ele>51</ele>
        <time>2021-09-25T09:48:52.000Z</time>
      </trkpt>
      <trkpt lat="47.2307" lon="-1.47925">
        <ele>51</ele>
        <time>2021-09-25T09:48:54.000Z</time>
      </trkpt>
      <trkpt lat="47.23061" lon="-1.47938">
        <ele>51</ele>
        <time>2021-09-25T09:48:56.000Z</time>
      </trkpt>
      <trkpt lat="47.23051" lon="-1.4795">
        <ele>51</ele>
        <time>2021-09-25T09:48:58.000Z</time>
      </trkpt>
      <trkpt lat="47.23041" lon="-1.47962">
        <ele>52</ele>
        <time>2021-09-25T09:49:00.000Z</time>
      </trkpt>
      <trkpt lat="47.23031" lon="-1.47975">
        <ele>52</ele>
        <time>2021-09-25T09:49:02.000Z</time>
      </trkpt>
      <trkpt lat="47.23022" lon="-1.47988">
        <ele>51</ele>
        <time>2021-09-25T09:49:04.000Z</time>
      </trkpt>
      <trkpt lat="47.23013" lon="-1.48003">
        <ele>52</ele>
        <time>2021-09-25T09:49:06.000Z</time>
      </trkpt>
      <trkpt lat="47.23004" lon="-1.48016">
        <ele>52</ele>
        <time>2021-09-25T09:49:08.000Z</time>
      </trkpt>
      <trkpt lat="47.22995" lon="-1.48031">
        <ele>52</ele>
        <time>2021-09-25T09:49:10.000Z</time>
      </trkpt>
      <trkpt lat="47.22987" lon="-1.48046">
        <ele>52</ele>
        <time>2021-09-25T09:49:12.000Z</time>
      </trkpt>
      <trkpt lat="47.22978" lon="-1.4806">
        <ele>52</ele>
        <time>2021-09-25T09:49:14.000Z</time>
      </trkpt>
      <trkpt lat="47.22969" lon="-1.48074">
        <ele>52</ele>
        <time>2021-09-25T09:49:16.000Z</time>
      </trkpt>
      <trkpt lat="47.22961" lon="-1.48087">
        <ele>51</ele>
        <time>2021-09-25T09:49:18.000Z</time>
      </trkpt>
      <trkpt lat="47.22952" lon="-1.48101">
        <ele>51</ele>
        <time>2021-09-25T09:49:20.000Z</time>
      </trkpt>
      <trkpt lat="47.22942" lon="-1.48111">
        <ele>51</ele>
        <time>2021-09-25T09:49:22.000Z</time>
      </trkpt>
      <trkpt lat="47.22929" lon="-1.48112">
        <ele>51</ele>
        <time>2021-09-25T09:49:24.000Z</time>
      </trkpt>
      <trkpt lat="47.22916" lon="-1.48116">
        <ele>51</ele>
        <time>2021-09-25T09:49:26.000Z</time>
      </trkpt>
      <trkpt lat="47.22904" lon="-1.48124">
        <ele>52</ele>
        <time>2021-09-25T09:49:28.000Z</time>
      </trkpt>
      <trkpt lat="47.22894" lon="-1.48136">
        <ele>52</ele>
        <time>2021-09-25T09:49:30.000Z</time>
      </trkpt>
      <trkpt lat="47.22884" lon="-1.48151">
        <ele>52</ele>
        <time>2021-09-25T09:49:32.000Z</time>
      </trkpt>
      <trkpt lat="47.22875" lon="-1.48165">
        <ele>51</ele>
        <time>2021-09-25T09:49:34.000Z</time>
      </trkpt>
      <trkpt lat="47.22866" lon="-1.48179">
        <ele>51</ele>
        <time>2021-09-25T09:49:36.000Z</time>
      </trkpt>
      <trkpt lat="47.22857" lon="-1.48194">
        <ele>51</ele>
        <time>2021-09-25T09:49:38.000Z</time>
      </trkpt>
      <trkpt lat="47.22848" lon="-1.48208">
        <ele>51</ele>
        <time>2021-09-25T09:49:40.000Z</time>
      </trkpt>
      <trkpt lat="47.22839" lon="-1.48223">
        <ele>51</ele>
        <time>2021-09-25T09:49:42.000Z</time>
      </trkpt>
      <trkpt lat="47.22829" lon="-1.48237">
        <ele>50</ele>
        <time>2021-09-25T09:49:44.000Z</time>
      </trkpt>
      <trkpt lat="47.2282" lon="-1.48251">
        <ele>50</ele>
        <time>2021-09-25T09:49:46.000Z</time>
      </trkpt>
      <trkpt lat="47.22811" lon="-1.48265">
        <ele>50</ele>
        <time>2021-09-25T09:49:48.000Z</time>
      </trkpt>
      <trkpt lat="47.22801" lon="-1.48279">
        <ele>51</ele>
        <time>2021-09-25T09:49:50.000Z</time>
      </trkpt>
      <trkpt lat="47.22792" lon="-1.48294">
        <ele>50</ele>
        <time>2021-09-25T09:49:52.000Z</time>
      </trkpt>
      <trkpt lat="47.22782" lon="-1.48309">
        <ele>51</ele>
        <time>2021-09-25T09:49:54.000Z</time>
      </trkpt>
      <trkpt lat="47.22773" lon="-1.48324">
        <ele>51</ele>
        <time>2021-09-25T09:49:56.000Z</time>
      </trkpt>
      <trkpt lat="47.22764" lon="-1.48338">
        <ele>51</ele>
        <time>2021-09-25T09:49:58.000Z</time>
      </trkpt>
      <trkpt lat="47.22754" lon="-1.48352">
        <ele>51</ele>
        <time>2021-09-25T09:50:00.000Z</time>
      </trkpt>
      <trkpt lat="47.22745" lon="-1.48364">
        <ele>50</ele>
        <time>2021-09-25T09:50:02.000Z</time>
      </trkpt>
      <trkpt lat="47.22735" lon="-1.48377">
        <ele>50</ele>
        <time>2021-09-25T09:50:04.000Z</time>
      </trkpt>
      <trkpt lat="47.22725" lon="-1.48391">
        <ele>50</ele>
        <time>2021-09-25T09:50:06.000Z</time>
      </trkpt>
      <trkpt lat="47.22715" lon="-1.48403">
        <ele>51</ele>
        <time>2021-09-25T09:50:08.000Z</time>
      </trkpt>
      <trkpt lat="47.22706" lon="-1.48418">
        <ele>51</ele>
        <time>2021-09-25T09:50:10.000Z</time>
      </trkpt>
      <trkpt lat="47.227" lon="-1.48436">
        <ele>51</ele>
        <time>2021-09-25T09:50:12.000Z</time>
      </trkpt>
      <trkpt lat="47.22694" lon="-1.48454">
        <ele>51</ele>
        <time>2021-09-25T09:50:14.000Z</time>
      </trkpt>
      <trkpt lat="47.22688" lon="-1.48472">
        <ele>51</ele>
        <time>2021-09-25T09:50:16.000Z</time>
      </trkpt>
      <trkpt lat="47.22681" lon="-1.48488">
        <ele>52</ele>
        <time>2021-09-25T09:50:18.000Z</time>
      </trkpt>
      <trkpt lat="47.22674" lon="-1.48505">
        <ele>52</ele>
        <time>2021-09-25T09:50:20.000Z</time>
      </trkpt>
      <trkpt lat="47.22668" lon="-1.48522">
        <ele>52</ele>
        <time>2021-09-25T09:50:22.000Z</time>
      </trkpt>
      <trkpt lat="47.22662" lon="-1.4854">
        <ele>52</ele>
        <time>2021-09-25T09:50:24.000Z</time>
      </trkpt>
      <trkpt lat="47.22656" lon="-1.48558">
        <ele>52</ele>
        <time>2021-09-25T09:50:26.000Z</time>
      </trkpt>
      <trkpt lat="47.2265" lon="-1.48575">
        <ele>51</ele>
        <time>2021-09-25T09:50:28.000Z</time>
      </trkpt>
      <trkpt lat="47.22643" lon="-1.48592">
        <ele>50</ele>
        <time>2021-09-25T09:50:30.000Z</time>
      </trkpt>
      <trkpt lat="47.22637" lon="-1.48606">
        <ele>51</ele>
        <time>2021-09-25T09:50:32.000Z</time>
      </trkpt>
      <trkpt lat="47.22631" lon="-1.48623">
        <ele>51</ele>
        <time>2021-09-25T09:50:34.000Z</time>
      </trkpt>
      <trkpt lat="47.22626" lon="-1.48641">
        <ele>51</ele>
        <time>2021-09-25T09:50:36.000Z</time>
      </trkpt>
      <trkpt lat="47.2262" lon="-1.48658">
        <ele>51</ele>
        <time>2021-09-25T09:50:38.000Z</time>
      </trkpt>
      <trkpt lat="47.22613" lon="-1.48676">
        <ele>51</ele>
        <time>2021-09-25T09:50:40.000Z</time>
      </trkpt>
      <trkpt lat="47.22607" lon="-1.48695">
        <ele>50</ele>
        <time>2021-09-25T09:50:42.000Z</time>
      </trkpt>
      <trkpt lat="47.22601" lon="-1.48713">
        <ele>50</ele>
        <time>2021-09-25T09:50:44.000Z</time>
      </trkpt>
      <trkpt lat="47.22597" lon="-1.48731">
        <ele>50</ele>
        <time>2021-09-25T09:50:46.000Z</time>
      </trkpt>
      <trkpt lat="47.22592" lon="-1.4875">
        <ele>50</ele>
        <time>2021-09-25T09:50:48.000Z</time>
      </trkpt>
      <trkpt lat="47.22587" lon="-1.48768">
        <ele>50</ele>
        <time>2021-09-25T09:50:50.000Z</time>
      </trkpt>
      <trkpt lat="47.22583" lon="-1.48786">
        <ele>50</ele>
        <time>2021-09-25T09:50:52.000Z</time>
      </trkpt>
      <trkpt lat="47.22578" lon="-1.48803">
        <ele>51</ele>
        <time>2021-09-25T09:50:54.000Z</time>
      </trkpt>
      <trkpt lat="47.22571" lon="-1.4882">
        <ele>51</ele>
        <time>2021-09-25T09:50:56.000Z</time>
      </trkpt>
      <trkpt lat="47.22565" lon="-1.48835">
        <ele>51</ele>
        <time>2021-09-25T09:50:58.000Z</time>
      </trkpt>
      <trkpt lat="47.22561" lon="-1.48851">
        <ele>50</ele>
        <time>2021-09-25T09:51:00.000Z</time>
      </trkpt>
      <trkpt lat="47.22557" lon="-1.48868">
        <ele>51</ele>
        <time>2021-09-25T09:51:02.000Z</time>
      </trkpt>
      <trkpt lat="47.22552" lon="-1.48886">
        <ele>50</ele>
        <time>2021-09-25T09:51:04.000Z</time>
      </trkpt>
      <trkpt lat="47.22547" lon="-1.48905">
        <ele>51</ele>
        <time>2021-09-25T09:51:06.000Z</time>
      </trkpt>
      <trkpt lat="47.22541" lon="-1.48923">
        <ele>51</ele>
        <time>2021-09-25T09:51:08.000Z</time>
      </trkpt>
      <trkpt lat="47.22535" lon="-1.48942">
        <ele>51</ele>
        <time>2021-09-25T09:51:10.000Z</time>
      </trkpt>
      <trkpt lat="47.22529" lon="-1.4896">
        <ele>51</ele>
        <time>2021-09-25T09:51:12.000Z</time>
      </trkpt>
      <trkpt lat="47.22522" lon="-1.48978">
        <ele>51</ele>
        <time>2021-09-25T09:51:14.000Z</time>
      </trkpt>
      <trkpt lat="47.22516" lon="-1.48995">
        <ele>50</ele>
        <time>2021-09-25T09:51:16.000Z</time>
      </trkpt>
      <trkpt lat="47.2251" lon="-1.49013">
        <ele>50</ele>
        <time>2021-09-25T09:51:18.000Z</time>
      </trkpt>
      <trkpt lat="47.22505" lon="-1.49031">
        <ele>50</ele>
        <time>2021-09-25T09:51:20.000Z</time>
      </trkpt>
      <trkpt lat="47.22501" lon="-1.49049">
        <ele>50</ele>
        <time>2021-09-25T09:51:22.000Z</time>
      </trkpt>
      <trkpt lat="47.22496" lon="-1.49067">
        <ele>51</ele>
        <time>2021-09-25T09:51:24.000Z</time>
      </trkpt>
      <trkpt lat="47.22492" lon="-1.49085">
        <ele>52</ele>
        <time>2021-09-25T09:51:26.000Z</time>
      </trkpt>
      <trkpt lat="47.22487" lon="-1.49102">
        <ele>52</ele>
        <time>2021-09-25T09:51:28.000Z</time>
      </trkpt>
      <trkpt lat="47.22482" lon="-1.49121">
        <ele>53</ele>
        <time>2021-09-25T09:51:30.000Z</time>
      </trkpt>
      <trkpt lat="47.22477" lon="-1.4914">
        <ele>53</ele>
        <time>2021-09-25T09:51:32.000Z</time>
      </trkpt>
      <trkpt lat="47.22471" lon="-1.49157">
        <ele>53</ele>
        <time>2021-09-25T09:51:34.000Z</time>
      </trkpt>
      <trkpt lat="47.22464" lon="-1.49174">
        <ele>54</ele>
        <time>2021-09-25T09:51:36.000Z</time>
      </trkpt>
      <trkpt lat="47.22456" lon="-1.49191">
        <ele>53</ele>
        <time>2021-09-25T09:51:38.000Z</time>
      </trkpt>
      <trkpt lat="47.22449" lon="-1.49209">
        <ele>53</ele>
        <time>2021-09-25T09:51:40.000Z</time>
      </trkpt>
      <trkpt lat="47.22443" lon="-1.49228">
        <ele>53</ele>
        <time>2021-09-25T09:51:42.000Z</time>
      </trkpt>
      <trkpt lat="47.22436" lon="-1.49245">
        <ele>54</ele>
        <time>2021-09-25T09:51:44.000Z</time>
      </trkpt>
      <trkpt lat="47.2243" lon="-1.49261">
        <ele>54</ele>
        <time>2021-09-25T09:51:46.000Z</time>
      </trkpt>
      <trkpt lat="47.22422" lon="-1.49278">
        <ele>54</ele>
        <time>2021-09-25T09:51:48.000Z</time>
      </trkpt>
      <trkpt lat="47.22415" lon="-1.49295">
        <ele>53</ele>
        <time>2021-09-25T09:51:50.000Z</time>
      </trkpt>
      <trkpt lat="47.22408" lon="-1.49312">
        <ele>53</ele>
        <time>2021-09-25T09:51:52.000Z</time>
      </trkpt>
      <trkpt lat="47.22402" lon="-1.4933">
        <ele>53</ele>
        <time>2021-09-25T09:51:54.000Z</time>
      </trkpt>
      <trkpt lat="47.22395" lon="-1.49346">
        <ele>53</ele>
        <time>2021-09-25T09:51:56.000Z</time>
      </trkpt>
      <trkpt lat="47.22388" lon="-1.49362">
        <ele>53</ele>
        <time>2021-09-25T09:51:58.000Z</time>
      </trkpt>
      <trkpt lat="47.22381" lon="-1.49378">
        <ele>52</ele>
        <time>2021-09-25T09:52:00.000Z</time>
      </trkpt>
      <trkpt lat="47.22374" lon="-1.49393">
        <ele>52</ele>
        <time>2021-09-25T09:52:02.000Z</time>
      </trkpt>
      <trkpt lat="47.22367" lon="-1.49409">
        <ele>52</ele>
        <time>2021-09-25T09:52:04.000Z</time>
      </trkpt>
      <trkpt lat="47.2236" lon="-1.49425">
        <ele>52</ele>
        <time>2021-09-25T09:52:06.000Z</time>
      </trkpt>
      <trkpt lat="47.22354" lon="-1.49441">
        <ele>52</ele>
        <time>2021-09-25T09:52:08.000Z</time>
      </trkpt>
      <trkpt lat="47.22347" lon="-1.49457">
        <ele>52</ele>
        <time>2021-09-25T09:52:10.000Z</time>
      </trkpt>
      <trkpt lat="47.22342" lon="-1.49474">
        <ele>53</ele>
        <time>2021-09-25T09:52:12.000Z</time>
      </trkpt>
      <trkpt lat="47.22337" lon="-1.49492">
        <ele>53</ele>
        <time>2021-09-25T09:52:14.000Z</time>
      </trkpt>
      <trkpt lat="47.22332" lon="-1.4951">
        <ele>53</ele>
        <time>2021-09-25T09:52:16.000Z</time>
      </trkpt>
      <trkpt lat="47.22326" lon="-1.49528">
        <ele>53</ele>
        <time>2021-09-25T09:52:18.000Z</time>
      </trkpt>
      <trkpt lat="47.2232" lon="-1.49545">
        <ele>54</ele>
        <time>2021-09-25T09:52:20.000Z</time>
      </trkpt>
      <trkpt lat="47.22314" lon="-1.49563">
        <ele>54</ele>
        <time>2021-09-25T09:52:22.000Z</time>
      </trkpt>
      <trkpt lat="47.22309" lon="-1.4958">
        <ele>55</ele>
        <time>2021-09-25T09:52:24.000Z</time>
      </trkpt>
      <trkpt lat="47.22303" lon="-1.49596">
        <ele>55</ele>
        <time>2021-09-25T09:52:26.000Z</time>
      </trkpt>
      <trkpt lat="47.22297" lon="-1.49613">
        <ele>54</ele>
        <time>2021-09-25T09:52:28.000Z</time>
      </trkpt>
      <trkpt lat="47.22291" lon="-1.49631">
        <ele>54</ele>
        <time>2021-09-25T09:52:30.000Z</time>
      </trkpt>
      <trkpt lat="47.22287" lon="-1.49649">
        <ele>54</ele>
        <time>2021-09-25T09:52:32.000Z</time>
      </trkpt>
      <trkpt lat="47.22283" lon="-1.49667">
        <ele>54</ele>
        <time>2021-09-25T09:52:34.000Z</time>
      </trkpt>
      <trkpt lat="47.22277" lon="-1.49684">
        <ele>54</ele>
        <time>2021-09-25T09:52:36.000Z</time>
      </trkpt>
      <trkpt lat="47.22271" lon="-1.49701">
        <ele>54</ele>
        <time>2021-09-25T09:52:38.000Z</time>
      </trkpt>
      <trkpt lat="47.22265" lon="-1.49718">
        <ele>53</ele>
        <time>2021-09-25T09:52:40.000Z</time>
      </trkpt>
      <trkpt lat="47.22259" lon="-1.49735">
        <ele>53</ele>
        <time>2021-09-25T09:52:42.000Z</time>
      </trkpt>
      <trkpt lat="47.22255" lon="-1.49754">
        <ele>53</ele>
        <time>2021-09-25T09:52:44.000Z</time>
      </trkpt>
      <trkpt lat="47.22252" lon="-1.49772">
        <ele>53</ele>
        <time>2021-09-25T09:52:46.000Z</time>
      </trkpt>
      <trkpt lat="47.22249" lon="-1.4979">
        <ele>53</ele>
        <time>2021-09-25T09:52:48.000Z</time>
      </trkpt>
      <trkpt lat="47.22247" lon="-1.49809">
        <ele>52</ele>
        <time>2021-09-25T09:52:50.000Z</time>
      </trkpt>
      <trkpt lat="47.22244" lon="-1.49827">
        <ele>52</ele>
        <time>2021-09-25T09:52:52.000Z</time>
      </trkpt>
      <trkpt lat="47.2224" lon="-1.49845">
        <ele>53</ele>
        <time>2021-09-25T09:52:54.000Z</time>
      </trkpt>
      <trkpt lat="47.22235" lon="-1.49862">
        <ele>52</ele>
        <time>2021-09-25T09:52:56.000Z</time>
      </trkpt>
      <trkpt lat="47.2223" lon="-1.4988">
        <ele>52</ele>
        <time>2021-09-25T09:52:58.000Z</time>
      </trkpt>
      <trkpt lat="47.22226" lon="-1.499">
        <ele>52</ele>
        <time>2021-09-25T09:53:00.000Z</time>
      </trkpt>
      <trkpt lat="47.22221" lon="-1.49919">
        <ele>52</ele>
        <time>2021-09-25T09:53:02.000Z</time>
      </trkpt>
      <trkpt lat="47.22217" lon="-1.49939">
        <ele>52</ele>
        <time>2021-09-25T09:53:04.000Z</time>
      </trkpt>
      <trkpt lat="47.22213" lon="-1.49958">
        <ele>52</ele>
        <time>2021-09-25T09:53:06.000Z</time>
      </trkpt>
      <trkpt lat="47.22209" lon="-1.49975">
        <ele>52</ele>
        <time>2021-09-25T09:53:08.000Z</time>
      </trkpt>
      <trkpt lat="47.22206" lon="-1.4999">
        <ele>52</ele>
        <time>2021-09-25T09:53:10.000Z</time>
      </trkpt>
      <trkpt lat="47.222" lon="-1.50007">
        <ele>52</ele>
        <time>2021-09-25T09:53:12.000Z</time>
      </trkpt>
      <trkpt lat="47.22195" lon="-1.50025">
        <ele>52</ele>
        <time>2021-09-25T09:53:14.000Z</time>
      </trkpt>
      <trkpt lat="47.2219" lon="-1.50044">
        <ele>52</ele>
        <time>2021-09-25T09:53:16.000Z</time>
      </trkpt>
      <trkpt lat="47.22186" lon="-1.50062">
        <ele>52</ele>
        <time>2021-09-25T09:53:18.000Z</time>
      </trkpt>
      <trkpt lat="47.22182" lon="-1.50079">
        <ele>52</ele>
        <time>2021-09-25T09:53:20.000Z</time>
      </trkpt>
      <trkpt lat="47.22178" lon="-1.50097">
        <ele>51</ele>
        <time>2021-09-25T09:53:22.000Z</time>
      </trkpt>
      <trkpt lat="47.22173" lon="-1.50115">
        <ele>52</ele>
        <time>2021-09-25T09:53:24.000Z</time>
      </trkpt>
      <trkpt lat="47.22167" lon="-1.50132">
        <ele>52</ele>
        <time>2021-09-25T09:53:26.000Z</time>
      </trkpt>
      <trkpt lat="47.2216" lon="-1.5015">
        <ele>52</ele>
        <time>2021-09-25T09:53:28.000Z</time>
      </trkpt>
      <trkpt lat="47.22154" lon="-1.50169">
        <ele>52</ele>
        <time>2021-09-25T09:53:30.000Z</time>
      </trkpt>
      <trkpt lat="47.22149" lon="-1.50188">
        <ele>52</ele>
        <time>2021-09-25T09:53:32.000Z</time>
      </trkpt>
      <trkpt lat="47.22146" lon="-1.50206">
        <ele>51</ele>
        <time>2021-09-25T09:53:34.000Z</time>
      </trkpt>
      <trkpt lat="47.22141" lon="-1.50224">
        <ele>51</ele>
        <time>2021-09-25T09:53:36.000Z</time>
      </trkpt>
      <trkpt lat="47.22136" lon="-1.5024">
        <ele>51</ele>
        <time>2021-09-25T09:53:38.000Z</time>
      </trkpt>
      <trkpt lat="47.22131" lon="-1.50258">
        <ele>51</ele>
        <time>2021-09-25T09:53:40.000Z</time>
      </trkpt>
      <trkpt lat="47.22125" lon="-1.50275">
        <ele>51</ele>
        <time>2021-09-25T09:53:42.000Z</time>
      </trkpt>
      <trkpt lat="47.22117" lon="-1.50291">
        <ele>51</ele>
        <time>2021-09-25T09:53:44.000Z</time>
      </trkpt>
      <trkpt lat="47.22109" lon="-1.50307">
        <ele>50</ele>
        <time>2021-09-25T09:53:46.000Z</time>
      </trkpt>
      <trkpt lat="47.22101" lon="-1.50321">
        <ele>50</ele>
        <time>2021-09-25T09:53:48.000Z</time>
      </trkpt>
      <trkpt lat="47.22094" lon="-1.50337">
        <ele>50</ele>
        <time>2021-09-25T09:53:50.000Z</time>
      </trkpt>
      <trkpt lat="47.22087" lon="-1.50363">
        <ele>50</ele>
        <time>2021-09-25T09:53:53.000Z</time>
      </trkpt>
      <trkpt lat="47.22083" lon="-1.50381">
        <ele>50</ele>
        <time>2021-09-25T09:53:55.000Z</time>
      </trkpt>
      <trkpt lat="47.22078" lon="-1.50398">
        <ele>50</ele>
        <time>2021-09-25T09:53:57.000Z</time>
      </trkpt>
      <trkpt lat="47.22073" lon="-1.50414">
        <ele>50</ele>
        <time>2021-09-25T09:53:59.000Z</time>
      </trkpt>
      <trkpt lat="47.22069" lon="-1.50433">
        <ele>50</ele>
        <time>2021-09-25T09:54:01.000Z</time>
      </trkpt>
      <trkpt lat="47.22067" lon="-1.50454">
        <ele>50</ele>
        <time>2021-09-25T09:54:03.000Z</time>
      </trkpt>
      <trkpt lat="47.22064" lon="-1.50473">
        <ele>51</ele>
        <time>2021-09-25T09:54:05.000Z</time>
      </trkpt>
      <trkpt lat="47.22062" lon="-1.50491">
        <ele>50</ele>
        <time>2021-09-25T09:54:07.000Z</time>
      </trkpt>
      <trkpt lat="47.22061" lon="-1.5051">
        <ele>49</ele>
        <time>2021-09-25T09:54:09.000Z</time>
      </trkpt>
      <trkpt lat="47.2206" lon="-1.50529">
        <ele>49</ele>
        <time>2021-09-25T09:54:11.000Z</time>
      </trkpt>
      <trkpt lat="47.22058" lon="-1.50547">
        <ele>50</ele>
        <time>2021-09-25T09:54:13.000Z</time>
      </trkpt>
      <trkpt lat="47.22057" lon="-1.50565">
        <ele>49</ele>
        <time>2021-09-25T09:54:15.000Z</time>
      </trkpt>
      <trkpt lat="47.22057" lon="-1.50583">
        <ele>50</ele>
        <time>2021-09-25T09:54:17.000Z</time>
      </trkpt>
      <trkpt lat="47.22056" lon="-1.50602">
        <ele>50</ele>
        <time>2021-09-25T09:54:19.000Z</time>
      </trkpt>
      <trkpt lat="47.22054" lon="-1.50629">
        <ele>50</ele>
        <time>2021-09-25T09:54:22.000Z</time>
      </trkpt>
      <trkpt lat="47.22053" lon="-1.50658">
        <ele>51</ele>
        <time>2021-09-25T09:54:25.000Z</time>
      </trkpt>
      <trkpt lat="47.22051" lon="-1.50674">
        <ele>51</ele>
        <time>2021-09-25T09:54:27.000Z</time>
      </trkpt>
      <trkpt lat="47.2205" lon="-1.5069">
        <ele>50</ele>
        <time>2021-09-25T09:54:29.000Z</time>
      </trkpt>
      <trkpt lat="47.22049" lon="-1.50709">
        <ele>50</ele>
        <time>2021-09-25T09:54:31.000Z</time>
      </trkpt>
      <trkpt lat="47.22045" lon="-1.50738">
        <ele>51</ele>
        <time>2021-09-25T09:54:34.000Z</time>
      </trkpt>
      <trkpt lat="47.22042" lon="-1.50757">
        <ele>52</ele>
        <time>2021-09-25T09:54:36.000Z</time>
      </trkpt>
      <trkpt lat="47.22039" lon="-1.50775">
        <ele>53</ele>
        <time>2021-09-25T09:54:38.000Z</time>
      </trkpt>
      <trkpt lat="47.22034" lon="-1.50794">
        <ele>53</ele>
        <time>2021-09-25T09:54:40.000Z</time>
      </trkpt>
      <trkpt lat="47.22029" lon="-1.50812">
        <ele>54</ele>
        <time>2021-09-25T09:54:42.000Z</time>
      </trkpt>
      <trkpt lat="47.22023" lon="-1.50829">
        <ele>54</ele>
        <time>2021-09-25T09:54:44.000Z</time>
      </trkpt>
      <trkpt lat="47.22016" lon="-1.50844">
        <ele>55</ele>
        <time>2021-09-25T09:54:46.000Z</time>
      </trkpt>
      <trkpt lat="47.22009" lon="-1.5086">
        <ele>55</ele>
        <time>2021-09-25T09:54:48.000Z</time>
      </trkpt>
      <trkpt lat="47.22002" lon="-1.50877">
        <ele>55</ele>
        <time>2021-09-25T09:54:50.000Z</time>
      </trkpt>
      <trkpt lat="47.21996" lon="-1.50894">
        <ele>54</ele>
        <time>2021-09-25T09:54:52.000Z</time>
      </trkpt>
      <trkpt lat="47.21991" lon="-1.50912">
        <ele>54</ele>
        <time>2021-09-25T09:54:54.000Z</time>
      </trkpt>
      <trkpt lat="47.21986" lon="-1.5093">
        <ele>54</ele>
        <time>2021-09-25T09:54:56.000Z</time>
      </trkpt>
      <trkpt lat="47.21981" lon="-1.50948">
        <ele>54</ele>
        <time>2021-09-25T09:54:58.000Z</time>
      </trkpt>
      <trkpt lat="47.21976" lon="-1.50966">
        <ele>54</ele>
        <time>2021-09-25T09:55:00.000Z</time>
      </trkpt>
      <trkpt lat="47.21971" lon="-1.50983">
        <ele>54</ele>
        <time>2021-09-25T09:55:02.000Z</time>
      </trkpt>
      <trkpt lat="47.21966" lon="-1.51001">
        <ele>53</ele>
        <time>2021-09-25T09:55:04.000Z</time>
      </trkpt>
      <trkpt lat="47.2196" lon="-1.51017">
        <ele>53</ele>
        <time>2021-09-25T09:55:06.000Z</time>
      </trkpt>
      <trkpt lat="47.21955" lon="-1.51034">
        <ele>53</ele>
        <time>2021-09-25T09:55:08.000Z</time>
      </trkpt>
      <trkpt lat="47.21951" lon="-1.5105">
        <ele>52</ele>
        <time>2021-09-25T09:55:10.000Z</time>
      </trkpt>
      <trkpt lat="47.21947" lon="-1.51063">
        <ele>52</ele>
        <time>2021-09-25T09:55:12.000Z</time>
      </trkpt>
      <trkpt lat="47.21938" lon="-1.51074">
        <ele>53</ele>
        <time>2021-09-25T09:55:14.000Z</time>
      </trkpt>
      <trkpt lat="47.2193" lon="-1.5109">
        <ele>53</ele>
        <time>2021-09-25T09:55:16.000Z</time>
      </trkpt>
      <trkpt lat="47.21924" lon="-1.51107">
        <ele>52</ele>
        <time>2021-09-25T09:55:18.000Z</time>
      </trkpt>
      <trkpt lat="47.21919" lon="-1.51124">
        <ele>51</ele>
        <time>2021-09-25T09:55:20.000Z</time>
      </trkpt>
      <trkpt lat="47.21913" lon="-1.51141">
        <ele>51</ele>
        <time>2021-09-25T09:55:22.000Z</time>
      </trkpt>
      <trkpt lat="47.21907" lon="-1.51157">
        <ele>51</ele>
        <time>2021-09-25T09:55:24.000Z</time>
      </trkpt>
      <trkpt lat="47.21902" lon="-1.51174">
        <ele>51</ele>
        <time>2021-09-25T09:55:26.000Z</time>
      </trkpt>
      <trkpt lat="47.21896" lon="-1.51191">
        <ele>51</ele>
        <time>2021-09-25T09:55:28.000Z</time>
      </trkpt>
      <trkpt lat="47.2189" lon="-1.51208">
        <ele>51</ele>
        <time>2021-09-25T09:55:30.000Z</time>
      </trkpt>
      <trkpt lat="47.21885" lon="-1.51225">
        <ele>50</ele>
        <time>2021-09-25T09:55:32.000Z</time>
      </trkpt>
      <trkpt lat="47.21879" lon="-1.51243">
        <ele>50</ele>
        <time>2021-09-25T09:55:34.000Z</time>
      </trkpt>
      <trkpt lat="47.21873" lon="-1.5126">
        <ele>50</ele>
        <time>2021-09-25T09:55:36.000Z</time>
      </trkpt>
      <trkpt lat="47.21867" lon="-1.51278">
        <ele>50</ele>
        <time>2021-09-25T09:55:38.000Z</time>
      </trkpt>
      <trkpt lat="47.21861" lon="-1.51297">
        <ele>50</ele>
        <time>2021-09-25T09:55:40.000Z</time>
      </trkpt>
      <trkpt lat="47.21856" lon="-1.51315">
        <ele>50</ele>
        <time>2021-09-25T09:55:42.000Z</time>
      </trkpt>
      <trkpt lat="47.21851" lon="-1.51334">
        <ele>50</ele>
        <time>2021-09-25T09:55:44.000Z</time>
      </trkpt>
      <trkpt lat="47.21845" lon="-1.51352">
        <ele>50</ele>
        <time>2021-09-25T09:55:46.000Z</time>
      </trkpt>
      <trkpt lat="47.2184" lon="-1.5137">
        <ele>50</ele>
        <time>2021-09-25T09:55:48.000Z</time>
      </trkpt>
      <trkpt lat="47.21835" lon="-1.51388">
        <ele>50</ele>
        <time>2021-09-25T09:55:50.000Z</time>
      </trkpt>
      <trkpt lat="47.21831" lon="-1.51407">
        <ele>49</ele>
        <time>2021-09-25T09:55:52.000Z</time>
      </trkpt>
      <trkpt lat="47.21827" lon="-1.51425">
        <ele>49</ele>
        <time>2021-09-25T09:55:54.000Z</time>
      </trkpt>
      <trkpt lat="47.21823" lon="-1.51443">
        <ele>49</ele>
        <time>2021-09-25T09:55:56.000Z</time>
      </trkpt>
      <trkpt lat="47.21819" lon="-1.51461">
        <ele>50</ele>
        <time>2021-09-25T09:55:58.000Z</time>
      </trkpt>
      <trkpt lat="47.21816" lon="-1.51479">
        <ele>50</ele>
        <time>2021-09-25T09:56:00.000Z</time>
      </trkpt>
      <trkpt lat="47.21811" lon="-1.51496">
        <ele>50</ele>
        <time>2021-09-25T09:56:02.000Z</time>
      </trkpt>
      <trkpt lat="47.21804" lon="-1.51512">
        <ele>50</ele>
        <time>2021-09-25T09:56:04.000Z</time>
      </trkpt>
      <trkpt lat="47.21798" lon="-1.51528">
        <ele>50</ele>
        <time>2021-09-25T09:56:06.000Z</time>
      </trkpt>
      <trkpt lat="47.21792" lon="-1.51545">
        <ele>50</ele>
        <time>2021-09-25T09:56:08.000Z</time>
      </trkpt>
      <trkpt lat="47.21785" lon="-1.51561">
        <ele>50</ele>
        <time>2021-09-25T09:56:10.000Z</time>
      </trkpt>
      <trkpt lat="47.21777" lon="-1.51576">
        <ele>51</ele>
        <time>2021-09-25T09:56:12.000Z</time>
      </trkpt>
      <trkpt lat="47.21768" lon="-1.5159">
        <ele>51</ele>
        <time>2021-09-25T09:56:14.000Z</time>
      </trkpt>
      <trkpt lat="47.21759" lon="-1.51602">
        <ele>51</ele>
        <time>2021-09-25T09:56:16.000Z</time>
      </trkpt>
      <trkpt lat="47.21751" lon="-1.51617">
        <ele>51</ele>
        <time>2021-09-25T09:56:18.000Z</time>
      </trkpt>
      <trkpt lat="47.21743" lon="-1.51632">
        <ele>50</ele>
        <time>2021-09-25T09:56:20.000Z</time>
      </trkpt>
      <trkpt lat="47.21736" lon="-1.51647">
        <ele>51</ele>
        <time>2021-09-25T09:56:22.000Z</time>
      </trkpt>
      <trkpt lat="47.21728" lon="-1.51662">
        <ele>51</ele>
        <time>2021-09-25T09:56:24.000Z</time>
      </trkpt>
      <trkpt lat="47.21721" lon="-1.51677">
        <ele>51</ele>
        <time>2021-09-25T09:56:26.000Z</time>
      </trkpt>
      <trkpt lat="47.21714" lon="-1.51693">
        <ele>51</ele>
        <time>2021-09-25T09:56:28.000Z</time>
      </trkpt>
      <trkpt lat="47.21707" lon="-1.51708">
        <ele>51</ele>
        <time>2021-09-25T09:56:30.000Z</time>
      </trkpt>
      <trkpt lat="47.21701" lon="-1.51724">
        <ele>51</ele>
        <time>2021-09-25T09:56:32.000Z</time>
      </trkpt>
      <trkpt lat="47.21695" lon="-1.51741">
        <ele>51</ele>
        <time>2021-09-25T09:56:34.000Z</time>
      </trkpt>
      <trkpt lat="47.21687" lon="-1.51758">
        <ele>52</ele>
        <time>2021-09-25T09:56:36.000Z</time>
      </trkpt>
      <trkpt lat="47.2168" lon="-1.51774">
        <ele>52</ele>
        <time>2021-09-25T09:56:38.000Z</time>
      </trkpt>
      <trkpt lat="47.21673" lon="-1.51791">
        <ele>52</ele>
        <time>2021-09-25T09:56:40.000Z</time>
      </trkpt>
      <trkpt lat="47.21666" lon="-1.51807">
        <ele>52</ele>
        <time>2021-09-25T09:56:42.000Z</time>
      </trkpt>
      <trkpt lat="47.21659" lon="-1.51823">
        <ele>52</ele>
        <time>2021-09-25T09:56:44.000Z</time>
      </trkpt>
      <trkpt lat="47.21653" lon="-1.5184">
        <ele>52</ele>
        <time>2021-09-25T09:56:46.000Z</time>
      </trkpt>
      <trkpt lat="47.21648" lon="-1.51857">
        <ele>52</ele>
        <time>2021-09-25T09:56:48.000Z</time>
      </trkpt>
      <trkpt lat="47.21644" lon="-1.51876">
        <ele>53</ele>
        <time>2021-09-25T09:56:50.000Z</time>
      </trkpt>
      <trkpt lat="47.21639" lon="-1.51893">
        <ele>53</ele>
        <time>2021-09-25T09:56:52.000Z</time>
      </trkpt>
      <trkpt lat="47.21632" lon="-1.51909">
        <ele>53</ele>
        <time>2021-09-25T09:56:54.000Z</time>
      </trkpt>
      <trkpt lat="47.21626" lon="-1.51926">
        <ele>53</ele>
        <time>2021-09-25T09:56:56.000Z</time>
      </trkpt>
      <trkpt lat="47.21621" lon="-1.51944">
        <ele>53</ele>
        <time>2021-09-25T09:56:58.000Z</time>
      </trkpt>
      <trkpt lat="47.21619" lon="-1.51962">
        <ele>52</ele>
        <time>2021-09-25T09:57:00.000Z</time>
      </trkpt>
      <trkpt lat="47.21613" lon="-1.51978">
        <ele>54</ele>
        <time>2021-09-25T09:57:02.000Z</time>
      </trkpt>
      <trkpt lat="47.21607" lon="-1.51991">
        <ele>54</ele>
        <time>2021-09-25T09:57:04.000Z</time>
      </trkpt>
      <trkpt lat="47.21601" lon="-1.52008">
        <ele>54</ele>
        <time>2021-09-25T09:57:06.000Z</time>
      </trkpt>
      <trkpt lat="47.21595" lon="-1.52026">
        <ele>54</ele>
        <time>2021-09-25T09:57:08.000Z</time>
      </trkpt>
      <trkpt lat="47.21588" lon="-1.52044">
        <ele>53</ele>
        <time>2021-09-25T09:57:10.000Z</time>
      </trkpt>
      <trkpt lat="47.21582" lon="-1.52061">
        <ele>53</ele>
        <time>2021-09-25T09:57:12.000Z</time>
      </trkpt>
      <trkpt lat="47.21576" lon="-1.52079">
        <ele>52</ele>
        <time>2021-09-25T09:57:14.000Z</time>
      </trkpt>
      <trkpt lat="47.2157" lon="-1.52096">
        <ele>52</ele>
        <time>2021-09-25T09:57:16.000Z</time>
      </trkpt>
      <trkpt lat="47.21565" lon="-1.52113">
        <ele>52</ele>
        <time>2021-09-25T09:57:18.000Z</time>
      </trkpt>
      <trkpt lat="47.21559" lon="-1.5213">
        <ele>52</ele>
        <time>2021-09-25T09:57:20.000Z</time>
      </trkpt>
      <trkpt lat="47.21554" lon="-1.52148">
        <ele>52</ele>
        <time>2021-09-25T09:57:22.000Z</time>
      </trkpt>
      <trkpt lat="47.21548" lon="-1.52166">
        <ele>52</ele>
        <time>2021-09-25T09:57:24.000Z</time>
      </trkpt>
      <trkpt lat="47.21543" lon="-1.52183">
        <ele>52</ele>
        <time>2021-09-25T09:57:26.000Z</time>
      </trkpt>
      <trkpt lat="47.21537" lon="-1.52201">
        <ele>51</ele>
        <time>2021-09-25T09:57:28.000Z</time>
      </trkpt>
      <trkpt lat="47.21531" lon="-1.52219">
        <ele>52</ele>
        <time>2021-09-25T09:57:30.000Z</time>
      </trkpt>
      <trkpt lat="47.21525" lon="-1.52236">
        <ele>52</ele>
        <time>2021-09-25T09:57:32.000Z</time>
      </trkpt>
      <trkpt lat="47.2152" lon="-1.52253">
        <ele>52</ele>
        <time>2021-09-25T09:57:34.000Z</time>
      </trkpt>
      <trkpt lat="47.21515" lon="-1.52272">
        <ele>52</ele>
        <time>2021-09-25T09:57:36.000Z</time>
      </trkpt>
      <trkpt lat="47.21509" lon="-1.52291">
        <ele>53</ele>
        <time>2021-09-25T09:57:38.000Z</time>
      </trkpt>
      <trkpt lat="47.21503" lon="-1.52309">
        <ele>53</ele>
        <time>2021-09-25T09:57:40.000Z</time>
      </trkpt>
      <trkpt lat="47.21498" lon="-1.52327">
        <ele>53</ele>
        <time>2021-09-25T09:57:42.000Z</time>
      </trkpt>
      <trkpt lat="47.21492" lon="-1.52344">
        <ele>53</ele>
        <time>2021-09-25T09:57:44.000Z</time>
      </trkpt>
      <trkpt lat="47.21487" lon="-1.52362">
        <ele>53</ele>
        <time>2021-09-25T09:57:46.000Z</time>
      </trkpt>
      <trkpt lat="47.21481" lon="-1.52381">
        <ele>53</ele>
        <time>2021-09-25T09:57:48.000Z</time>
      </trkpt>
      <trkpt lat="47.21475" lon="-1.52399">
        <ele>53</ele>
        <time>2021-09-25T09:57:50.000Z</time>
      </trkpt>
      <trkpt lat="47.21468" lon="-1.52417">
        <ele>53</ele>
        <time>2021-09-25T09:57:52.000Z</time>
      </trkpt>
      <trkpt lat="47.21462" lon="-1.52434">
        <ele>53</ele>
        <time>2021-09-25T09:57:54.000Z</time>
      </trkpt>
      <trkpt lat="47.21456" lon="-1.52451">
        <ele>53</ele>
        <time>2021-09-25T09:57:56.000Z</time>
      </trkpt>
      <trkpt lat="47.21451" lon="-1.52469">
        <ele>53</ele>
        <time>2021-09-25T09:57:58.000Z</time>
      </trkpt>
      <trkpt lat="47.21445" lon="-1.52487">
        <ele>54</ele>
        <time>2021-09-25T09:58:00.000Z</time>
      </trkpt>
      <trkpt lat="47.21438" lon="-1.52506">
        <ele>54</ele>
        <time>2021-09-25T09:58:02.000Z</time>
      </trkpt>
      <trkpt lat="47.21433" lon="-1.52526">
        <ele>54</ele>
        <time>2021-09-25T09:58:04.000Z</time>
      </trkpt>
      <trkpt lat="47.21427" lon="-1.52545">
        <ele>54</ele>
        <time>2021-09-25T09:58:06.000Z</time>
      </trkpt>
      <trkpt lat="47.21422" lon="-1.52563">
        <ele>54</ele>
        <time>2021-09-25T09:58:08.000Z</time>
      </trkpt>
      <trkpt lat="47.21416" lon="-1.5258">
        <ele>54</ele>
        <time>2021-09-25T09:58:10.000Z</time>
      </trkpt>
      <trkpt lat="47.21411" lon="-1.52599">
        <ele>53</ele>
        <time>2021-09-25T09:58:12.000Z</time>
      </trkpt>
      <trkpt lat="47.21405" lon="-1.52616">
        <ele>53</ele>
        <time>2021-09-25T09:58:14.000Z</time>
      </trkpt>
      <trkpt lat="47.21399" lon="-1.52633">
        <ele>52</ele>
        <time>2021-09-25T09:58:16.000Z</time>
      </trkpt>
      <trkpt lat="47.21395" lon="-1.52651">
        <ele>53</ele>
        <time>2021-09-25T09:58:18.000Z</time>
      </trkpt>
      <trkpt lat="47.2139" lon="-1.52668">
        <ele>52</ele>
        <time>2021-09-25T09:58:20.000Z</time>
      </trkpt>
      <trkpt lat="47.21386" lon="-1.52687">
        <ele>52</ele>
        <time>2021-09-25T09:58:22.000Z</time>
      </trkpt>
      <trkpt lat="47.21381" lon="-1.52707">
        <ele>52</ele>
        <time>2021-09-25T09:58:24.000Z</time>
      </trkpt>
      <trkpt lat="47.21376" lon="-1.52725">
        <ele>53</ele>
        <time>2021-09-25T09:58:26.000Z</time>
      </trkpt>
      <trkpt lat="47.21373" lon="-1.52744">
        <ele>53</ele>
        <time>2021-09-25T09:58:28.000Z</time>
      </trkpt>
      <trkpt lat="47.2137" lon="-1.52764">
        <ele>53</ele>
        <time>2021-09-25T09:58:30.000Z</time>
      </trkpt>
      <trkpt lat="47.21368" lon="-1.52782">
        <ele>53</ele>
        <time>2021-09-25T09:58:32.000Z</time>
      </trkpt>
      <trkpt lat="47.21365" lon="-1.528">
        <ele>53</ele>
        <time>2021-09-25T09:58:34.000Z</time>
      </trkpt>
      <trkpt lat="47.21362" lon="-1.52816">
        <ele>52</ele>
        <time>2021-09-25T09:58:36.000Z</time>
      </trkpt>
      <trkpt lat="47.21357" lon="-1.52834">
        <ele>52</ele>
        <time>2021-09-25T09:58:38.000Z</time>
      </trkpt>
      <trkpt lat="47.21353" lon="-1.52852">
        <ele>53</ele>
        <time>2021-09-25T09:58:40.000Z</time>
      </trkpt>
      <trkpt lat="47.21349" lon="-1.52871">
        <ele>52</ele>
        <time>2021-09-25T09:58:42.000Z</time>
      </trkpt>
      <trkpt lat="47.21346" lon="-1.5289">
        <ele>51</ele>
        <time>2021-09-25T09:58:44.000Z</time>
      </trkpt>
      <trkpt lat="47.21342" lon="-1.5291">
        <ele>50</ele>
        <time>2021-09-25T09:58:46.000Z</time>
      </trkpt>
      <trkpt lat="47.21339" lon="-1.5293">
        <ele>51</ele>
        <time>2021-09-25T09:58:48.000Z</time>
      </trkpt>
      <trkpt lat="47.21337" lon="-1.52951">
        <ele>51</ele>
        <time>2021-09-25T09:58:50.000Z</time>
      </trkpt>
      <trkpt lat="47.21335" lon="-1.52969">
        <ele>51</ele>
        <time>2021-09-25T09:58:52.000Z</time>
      </trkpt>
      <trkpt lat="47.21333" lon="-1.5299">
        <ele>52</ele>
        <time>2021-09-25T09:58:54.000Z</time>
      </trkpt>
      <trkpt lat="47.21332" lon="-1.53007">
        <ele>52</ele>
        <time>2021-09-25T09:58:56.000Z</time>
      </trkpt>
      <trkpt lat="47.21331" lon="-1.53025">
        <ele>52</ele>
        <time>2021-09-25T09:58:58.000Z</time>
      </trkpt>
      <trkpt lat="47.21329" lon="-1.53045">
        <ele>53</ele>
        <time>2021-09-25T09:59:00.000Z</time>
      </trkpt>
      <trkpt lat="47.21328" lon="-1.53064">
        <ele>53</ele>
        <time>2021-09-25T09:59:02.000Z</time>
      </trkpt>
      <trkpt lat="47.21327" lon="-1.53083">
        <ele>53</ele>
        <time>2021-09-25T09:59:04.000Z</time>
      </trkpt>
      <trkpt lat="47.21325" lon="-1.53101">
        <ele>53</ele>
        <time>2021-09-25T09:59:06.000Z</time>
      </trkpt>
      <trkpt lat="47.21322" lon="-1.53119">
        <ele>53</ele>
        <time>2021-09-25T09:59:08.000Z</time>
      </trkpt>
      <trkpt lat="47.21318" lon="-1.53138">
        <ele>53</ele>
        <time>2021-09-25T09:59:10.000Z</time>
      </trkpt>
      <trkpt lat="47.21315" lon="-1.53157">
        <ele>53</ele>
        <time>2021-09-25T09:59:12.000Z</time>
      </trkpt>
      <trkpt lat="47.21313" lon="-1.53176">
        <ele>53</ele>
        <time>2021-09-25T09:59:14.000Z</time>
      </trkpt>
      <trkpt lat="47.21311" lon="-1.53196">
        <ele>53</ele>
        <time>2021-09-25T09:59:16.000Z</time>
      </trkpt>
      <trkpt lat="47.21309" lon="-1.53215">
        <ele>53</ele>
        <time>2021-09-25T09:59:18.000Z</time>
      </trkpt>
      <trkpt lat="47.21309" lon="-1.53234">
        <ele>53</ele>
        <time>2021-09-25T09:59:20.000Z</time>
      </trkpt>
      <trkpt lat="47.21309" lon="-1.53254">
        <ele>52</ele>
        <time>2021-09-25T09:59:22.000Z</time>
      </trkpt>
      <trkpt lat="47.21309" lon="-1.53273">
        <ele>52</ele>
        <time>2021-09-25T09:59:24.000Z</time>
      </trkpt>
      <trkpt lat="47.21309" lon="-1.53292">
        <ele>53</ele>
        <time>2021-09-25T09:59:26.000Z</time>
      </trkpt>
      <trkpt lat="47.21308" lon="-1.53311">
        <ele>53</ele>
        <time>2021-09-25T09:59:28.000Z</time>
      </trkpt>
      <trkpt lat="47.21306" lon="-1.5333">
        <ele>53</ele>
        <time>2021-09-25T09:59:30.000Z</time>
      </trkpt>
      <trkpt lat="47.21302" lon="-1.53348">
        <ele>52</ele>
        <time>2021-09-25T09:59:32.000Z</time>
      </trkpt>
      <trkpt lat="47.21299" lon="-1.53367">
        <ele>52</ele>
        <time>2021-09-25T09:59:34.000Z</time>
      </trkpt>
      <trkpt lat="47.21296" lon="-1.53385">
        <ele>52</ele>
        <time>2021-09-25T09:59:36.000Z</time>
      </trkpt>
      <trkpt lat="47.21294" lon="-1.53404">
        <ele>52</ele>
        <time>2021-09-25T09:59:38.000Z</time>
      </trkpt>
      <trkpt lat="47.21292" lon="-1.53422">
        <ele>51</ele>
        <time>2021-09-25T09:59:40.000Z</time>
      </trkpt>
      <trkpt lat="47.21292" lon="-1.53443">
        <ele>52</ele>
        <time>2021-09-25T09:59:42.000Z</time>
      </trkpt>
      <trkpt lat="47.2129" lon="-1.53463">
        <ele>53</ele>
        <time>2021-09-25T09:59:44.000Z</time>
      </trkpt>
      <trkpt lat="47.21295" lon="-1.53478">
        <ele>53</ele>
        <time>2021-09-25T09:59:46.000Z</time>
      </trkpt>
      <trkpt lat="47.21299" lon="-1.53494">
        <ele>52</ele>
        <time>2021-09-25T09:59:48.000Z</time>
      </trkpt>
      <trkpt lat="47.213" lon="-1.53511">
        <ele>53</ele>
        <time>2021-09-25T09:59:50.000Z</time>
      </trkpt>
      <trkpt lat="47.21301" lon="-1.53529">
        <ele>53</ele>
        <time>2021-09-25T09:59:52.000Z</time>
      </trkpt>
      <trkpt lat="47.21301" lon="-1.53548">
        <ele>53</ele>
        <time>2021-09-25T09:59:54.000Z</time>
      </trkpt>
      <trkpt lat="47.21301" lon="-1.53567">
        <ele>53</ele>
        <time>2021-09-25T09:59:56.000Z</time>
      </trkpt>
      <trkpt lat="47.21302" lon="-1.53585">
        <ele>54</ele>
        <time>2021-09-25T09:59:58.000Z</time>
      </trkpt>
      <trkpt lat="47.21302" lon="-1.53601">
        <ele>54</ele>
        <time>2021-09-25T10:00:00.000Z</time>
      </trkpt>
      <trkpt lat="47.21303" lon="-1.53617">
        <ele>53</ele>
        <time>2021-09-25T10:00:02.000Z</time>
      </trkpt>
      <trkpt lat="47.21298" lon="-1.5363">
        <ele>53</ele>
        <time>2021-09-25T10:00:04.000Z</time>
      </trkpt>
      <trkpt lat="47.21293" lon="-1.53643">
        <ele>54</ele>
        <time>2021-09-25T10:00:09.000Z</time>
      </trkpt>
      <trkpt lat="47.2129" lon="-1.53661">
        <ele>54</ele>
        <time>2021-09-25T10:00:12.000Z</time>
      </trkpt>
      <trkpt lat="47.21296" lon="-1.53679">
        <ele>54</ele>
        <time>2021-09-25T10:00:15.000Z</time>
      </trkpt>
      <trkpt lat="47.21302" lon="-1.53694">
        <ele>54</ele>
        <time>2021-09-25T10:00:17.000Z</time>
      </trkpt>
      <trkpt lat="47.21306" lon="-1.53712">
        <ele>53</ele>
        <time>2021-09-25T10:00:19.000Z</time>
      </trkpt>
      <trkpt lat="47.2131" lon="-1.53731">
        <ele>53</ele>
        <time>2021-09-25T10:00:21.000Z</time>
      </trkpt>
      <trkpt lat="47.21313" lon="-1.53751">
        <ele>53</ele>
        <time>2021-09-25T10:00:23.000Z</time>
      </trkpt>
      <trkpt lat="47.21315" lon="-1.53771">
        <ele>54</ele>
        <time>2021-09-25T10:00:25.000Z</time>
      </trkpt>
      <trkpt lat="47.21318" lon="-1.5379">
        <ele>53</ele>
        <time>2021-09-25T10:00:27.000Z</time>
      </trkpt>
      <trkpt lat="47.21321" lon="-1.53809">
        <ele>53</ele>
        <time>2021-09-25T10:00:29.000Z</time>
      </trkpt>
      <trkpt lat="47.21323" lon="-1.53828">
        <ele>53</ele>
        <time>2021-09-25T10:00:31.000Z</time>
      </trkpt>
      <trkpt lat="47.21326" lon="-1.53847">
        <ele>54</ele>
        <time>2021-09-25T10:00:33.000Z</time>
      </trkpt>
      <trkpt lat="47.21328" lon="-1.53864">
        <ele>53</ele>
        <time>2021-09-25T10:00:35.000Z</time>
      </trkpt>
      <trkpt lat="47.21331" lon="-1.5388">
        <ele>54</ele>
        <time>2021-09-25T10:00:37.000Z</time>
      </trkpt>
      <trkpt lat="47.21333" lon="-1.53896">
        <ele>54</ele>
        <time>2021-09-25T10:00:39.000Z</time>
      </trkpt>
      <trkpt lat="47.21334" lon="-1.53909">
        <ele>54</ele>
        <time>2021-09-25T10:00:41.000Z</time>
      </trkpt>
      <trkpt lat="47.21338" lon="-1.53922">
        <ele>54</ele>
        <time>2021-09-25T10:00:44.000Z</time>
      </trkpt>
      <trkpt lat="47.2135" lon="-1.53923">
        <ele>54</ele>
        <time>2021-09-25T10:00:48.000Z</time>
      </trkpt>
      <trkpt lat="47.2136" lon="-1.53926">
        <ele>53</ele>
        <time>2021-09-25T10:00:50.000Z</time>
      </trkpt>
      <trkpt lat="47.21371" lon="-1.53927">
        <ele>54</ele>
        <time>2021-09-25T10:00:52.000Z</time>
      </trkpt>
      <trkpt lat="47.21383" lon="-1.53937">
        <ele>54</ele>
        <time>2021-09-25T10:00:54.000Z</time>
      </trkpt>
      <trkpt lat="47.2139" lon="-1.53955">
        <ele>55</ele>
        <time>2021-09-25T10:00:56.000Z</time>
      </trkpt>
      <trkpt lat="47.21387" lon="-1.53974">
        <ele>54</ele>
        <time>2021-09-25T10:00:58.000Z</time>
      </trkpt>
      <trkpt lat="47.21384" lon="-1.53989">
        <ele>54</ele>
        <time>2021-09-25T10:01:00.000Z</time>
      </trkpt>
      <trkpt lat="47.21385" lon="-1.54004">
        <ele>53</ele>
        <time>2021-09-25T10:01:02.000Z</time>
      </trkpt>
      <trkpt lat="47.21392" lon="-1.54018">
        <ele>54</ele>
        <time>2021-09-25T10:01:04.000Z</time>
      </trkpt>
      <trkpt lat="47.21402" lon="-1.54031">
        <ele>54</ele>
        <time>2021-09-25T10:01:06.000Z</time>
      </trkpt>
      <trkpt lat="47.21412" lon="-1.54046">
        <ele>55</ele>
        <time>2021-09-25T10:01:08.000Z</time>
      </trkpt>
      <trkpt lat="47.21423" lon="-1.54061">
        <ele>54</ele>
        <time>2021-09-25T10:01:10.000Z</time>
      </trkpt>
      <trkpt lat="47.21433" lon="-1.54077">
        <ele>54</ele>
        <time>2021-09-25T10:01:12.000Z</time>
      </trkpt>
      <trkpt lat="47.21443" lon="-1.54093">
        <ele>54</ele>
        <time>2021-09-25T10:01:14.000Z</time>
      </trkpt>
      <trkpt lat="47.21454" lon="-1.5411">
        <ele>55</ele>
        <time>2021-09-25T10:01:16.000Z</time>
      </trkpt>
      <trkpt lat="47.21464" lon="-1.54124">
        <ele>54</ele>
        <time>2021-09-25T10:01:18.000Z</time>
      </trkpt>
      <trkpt lat="47.21475" lon="-1.5414">
        <ele>55</ele>
        <time>2021-09-25T10:01:20.000Z</time>
      </trkpt>
      <trkpt lat="47.21485" lon="-1.54156">
        <ele>54</ele>
        <time>2021-09-25T10:01:22.000Z</time>
      </trkpt>
      <trkpt lat="47.21495" lon="-1.54171">
        <ele>54</ele>
        <time>2021-09-25T10:01:24.000Z</time>
      </trkpt>
      <trkpt lat="47.21507" lon="-1.54185">
        <ele>53</ele>
        <time>2021-09-25T10:01:26.000Z</time>
      </trkpt>
      <trkpt lat="47.21516" lon="-1.54202">
        <ele>54</ele>
        <time>2021-09-25T10:01:28.000Z</time>
      </trkpt>
      <trkpt lat="47.21525" lon="-1.54217">
        <ele>53</ele>
        <time>2021-09-25T10:01:30.000Z</time>
      </trkpt>
      <trkpt lat="47.21533" lon="-1.5423">
        <ele>53</ele>
        <time>2021-09-25T10:01:32.000Z</time>
      </trkpt>
      <trkpt lat="47.21542" lon="-1.54242">
        <ele>53</ele>
        <time>2021-09-25T10:01:35.000Z</time>
      </trkpt>
      <trkpt lat="47.21548" lon="-1.54253">
        <ele>54</ele>
        <time>2021-09-25T10:01:39.000Z</time>
      </trkpt>
      <trkpt lat="47.21555" lon="-1.54264">
        <ele>55</ele>
        <time>2021-09-25T10:01:42.000Z</time>
      </trkpt>
      <trkpt lat="47.21563" lon="-1.54277">
        <ele>54</ele>
        <time>2021-09-25T10:01:44.000Z</time>
      </trkpt>
      <trkpt lat="47.21573" lon="-1.54291">
        <ele>54</ele>
        <time>2021-09-25T10:01:46.000Z</time>
      </trkpt>
      <trkpt lat="47.21583" lon="-1.54306">
        <ele>54</ele>
        <time>2021-09-25T10:01:48.000Z</time>
      </trkpt>
      <trkpt lat="47.21592" lon="-1.54322">
        <ele>54</ele>
        <time>2021-09-25T10:01:50.000Z</time>
      </trkpt>
      <trkpt lat="47.21602" lon="-1.54339">
        <ele>54</ele>
        <time>2021-09-25T10:01:52.000Z</time>
      </trkpt>
      <trkpt lat="47.21609" lon="-1.54358">
        <ele>55</ele>
        <time>2021-09-25T10:01:54.000Z</time>
      </trkpt>
      <trkpt lat="47.21614" lon="-1.54377">
        <ele>56</ele>
        <time>2021-09-25T10:01:56.000Z</time>
      </trkpt>
      <trkpt lat="47.21618" lon="-1.54397">
        <ele>56</ele>
        <time>2021-09-25T10:01:58.000Z</time>
      </trkpt>
      <trkpt lat="47.21616" lon="-1.54418">
        <ele>55</ele>
        <time>2021-09-25T10:02:00.000Z</time>
      </trkpt>
      <trkpt lat="47.21613" lon="-1.54438">
        <ele>55</ele>
        <time>2021-09-25T10:02:02.000Z</time>
      </trkpt>
      <trkpt lat="47.21611" lon="-1.54458">
        <ele>55</ele>
        <time>2021-09-25T10:02:04.000Z</time>
      </trkpt>
      <trkpt lat="47.21609" lon="-1.54478">
        <ele>55</ele>
        <time>2021-09-25T10:02:06.000Z</time>
      </trkpt>
      <trkpt lat="47.21605" lon="-1.54497">
        <ele>55</ele>
        <time>2021-09-25T10:02:08.000Z</time>
      </trkpt>
      <trkpt lat="47.216" lon="-1.54517">
        <ele>56</ele>
        <time>2021-09-25T10:02:10.000Z</time>
      </trkpt>
      <trkpt lat="47.21594" lon="-1.54534">
        <ele>56</ele>
        <time>2021-09-25T10:02:12.000Z</time>
      </trkpt>
      <trkpt lat="47.21588" lon="-1.5455">
        <ele>56</ele>
        <time>2021-09-25T10:02:14.000Z</time>
      </trkpt>
      <trkpt lat="47.21582" lon="-1.54564">
        <ele>55</ele>
        <time>2021-09-25T10:02:16.000Z</time>
      </trkpt>
      <trkpt lat="47.21574" lon="-1.54579">
        <ele>55</ele>
        <time>2021-09-25T10:02:18.000Z</time>
      </trkpt>
      <trkpt lat="47.21569" lon="-1.54597">
        <ele>54</ele>
        <time>2021-09-25T10:02:20.000Z</time>
      </trkpt>
      <trkpt lat="47.21562" lon="-1.54617">
        <ele>54</ele>
        <time>2021-09-25T10:02:22.000Z</time>
      </trkpt>
      <trkpt lat="47.21556" lon="-1.54636">
        <ele>54</ele>
        <time>2021-09-25T10:02:24.000Z</time>
      </trkpt>
      <trkpt lat="47.21549" lon="-1.54653">
        <ele>54</ele>
        <time>2021-09-25T10:02:26.000Z</time>
      </trkpt>
      <trkpt lat="47.21544" lon="-1.54668">
        <ele>54</ele>
        <time>2021-09-25T10:02:28.000Z</time>
      </trkpt>
      <trkpt lat="47.21538" lon="-1.54686">
        <ele>54</ele>
        <time>2021-09-25T10:02:30.000Z</time>
      </trkpt>
      <trkpt lat="47.21534" lon="-1.54704">
        <ele>54</ele>
        <time>2021-09-25T10:02:32.000Z</time>
      </trkpt>
      <trkpt lat="47.21526" lon="-1.54722">
        <ele>54</ele>
        <time>2021-09-25T10:02:34.000Z</time>
      </trkpt>
      <trkpt lat="47.21519" lon="-1.5474">
        <ele>54</ele>
        <time>2021-09-25T10:02:36.000Z</time>
      </trkpt>
      <trkpt lat="47.21511" lon="-1.54758">
        <ele>54</ele>
        <time>2021-09-25T10:02:38.000Z</time>
      </trkpt>
      <trkpt lat="47.21505" lon="-1.54776">
        <ele>54</ele>
        <time>2021-09-25T10:02:40.000Z</time>
      </trkpt>
      <trkpt lat="47.21497" lon="-1.54795">
        <ele>55</ele>
        <time>2021-09-25T10:02:42.000Z</time>
      </trkpt>
      <trkpt lat="47.2149" lon="-1.54813">
        <ele>55</ele>
        <time>2021-09-25T10:02:44.000Z</time>
      </trkpt>
      <trkpt lat="47.21482" lon="-1.5483">
        <ele>55</ele>
        <time>2021-09-25T10:02:46.000Z</time>
      </trkpt>
      <trkpt lat="47.21474" lon="-1.54847">
        <ele>55</ele>
        <time>2021-09-25T10:02:48.000Z</time>
      </trkpt>
      <trkpt lat="47.21465" lon="-1.54864">
        <ele>54</ele>
        <time>2021-09-25T10:02:50.000Z</time>
      </trkpt>
      <trkpt lat="47.21456" lon="-1.54881">
        <ele>54</ele>
        <time>2021-09-25T10:02:52.000Z</time>
      </trkpt>
      <trkpt lat="47.21447" lon="-1.54898">
        <ele>53</ele>
        <time>2021-09-25T10:02:54.000Z</time>
      </trkpt>
      <trkpt lat="47.21439" lon="-1.54914">
        <ele>53</ele>
        <time>2021-09-25T10:02:56.000Z</time>
      </trkpt>
      <trkpt lat="47.21431" lon="-1.54931">
        <ele>53</ele>
        <time>2021-09-25T10:02:58.000Z</time>
      </trkpt>
      <trkpt lat="47.21423" lon="-1.54949">
        <ele>52</ele>
        <time>2021-09-25T10:03:00.000Z</time>
      </trkpt>
      <trkpt lat="47.21414" lon="-1.54965">
        <ele>52</ele>
        <time>2021-09-25T10:03:02.000Z</time>
      </trkpt>
      <trkpt lat="47.21407" lon="-1.54983">
        <ele>52</ele>
        <time>2021-09-25T10:03:04.000Z</time>
      </trkpt>
      <trkpt lat="47.214" lon="-1.55">
        <ele>52</ele>
        <time>2021-09-25T10:03:06.000Z</time>
      </trkpt>
      <trkpt lat="47.21392" lon="-1.55017">
        <ele>52</ele>
        <time>2021-09-25T10:03:08.000Z</time>
      </trkpt>
      <trkpt lat="47.21385" lon="-1.55034">
        <ele>53</ele>
        <time>2021-09-25T10:03:10.000Z</time>
      </trkpt>
      <trkpt lat="47.21378" lon="-1.55051">
        <ele>53</ele>
        <time>2021-09-25T10:03:12.000Z</time>
      </trkpt>
      <trkpt lat="47.21371" lon="-1.55068">
        <ele>52</ele>
        <time>2021-09-25T10:03:14.000Z</time>
      </trkpt>
      <trkpt lat="47.21364" lon="-1.55086">
        <ele>52</ele>
        <time>2021-09-25T10:03:16.000Z</time>
      </trkpt>
      <trkpt lat="47.21358" lon="-1.55103">
        <ele>52</ele>
        <time>2021-09-25T10:03:18.000Z</time>
      </trkpt>
      <trkpt lat="47.21351" lon="-1.5512">
        <ele>53</ele>
        <time>2021-09-25T10:03:20.000Z</time>
      </trkpt>
      <trkpt lat="47.21344" lon="-1.55137">
        <ele>53</ele>
        <time>2021-09-25T10:03:22.000Z</time>
      </trkpt>
      <trkpt lat="47.21338" lon="-1.55154">
        <ele>53</ele>
        <time>2021-09-25T10:03:24.000Z</time>
      </trkpt>
      <trkpt lat="47.21331" lon="-1.55171">
        <ele>53</ele>
        <time>2021-09-25T10:03:26.000Z</time>
      </trkpt>
      <trkpt lat="47.21324" lon="-1.55188">
        <ele>53</ele>
        <time>2021-09-25T10:03:28.000Z</time>
      </trkpt>
      <trkpt lat="47.21317" lon="-1.55204">
        <ele>53</ele>
        <time>2021-09-25T10:03:30.000Z</time>
      </trkpt>
      <trkpt lat="47.2131" lon="-1.55221">
        <ele>53</ele>
        <time>2021-09-25T10:03:32.000Z</time>
      </trkpt>
      <trkpt lat="47.21304" lon="-1.55238">
        <ele>53</ele>
        <time>2021-09-25T10:03:34.000Z</time>
      </trkpt>
      <trkpt lat="47.21297" lon="-1.55254">
        <ele>53</ele>
        <time>2021-09-25T10:03:36.000Z</time>
      </trkpt>
      <trkpt lat="47.21291" lon="-1.5527">
        <ele>53</ele>
        <time>2021-09-25T10:03:38.000Z</time>
      </trkpt>
      <trkpt lat="47.21284" lon="-1.55285">
        <ele>53</ele>
        <time>2021-09-25T10:03:40.000Z</time>
      </trkpt>
      <trkpt lat="47.21278" lon="-1.55298">
        <ele>53</ele>
        <time>2021-09-25T10:03:42.000Z</time>
      </trkpt>
      <trkpt lat="47.21268" lon="-1.553">
        <ele>55</ele>
        <time>2021-09-25T10:03:44.000Z</time>
      </trkpt>
      <trkpt lat="47.21259" lon="-1.55302">
        <ele>55</ele>
        <time>2021-09-25T10:03:46.000Z</time>
      </trkpt>
      <trkpt lat="47.21257" lon="-1.5532">
        <ele>56</ele>
        <time>2021-09-25T10:03:49.000Z</time>
      </trkpt>
      <trkpt lat="47.21263" lon="-1.55337">
        <ele>55</ele>
        <time>2021-09-25T10:03:52.000Z</time>
      </trkpt>
      <trkpt lat="47.21271" lon="-1.55348">
        <ele>55</ele>
        <time>2021-09-25T10:03:56.000Z</time>
      </trkpt>
      <trkpt lat="47.2128" lon="-1.55353">
        <ele>55</ele>
        <time>2021-09-25T10:04:00.000Z</time>
      </trkpt>
      <trkpt lat="47.21284" lon="-1.55365">
        <ele>55</ele>
        <time>2021-09-25T10:04:04.000Z</time>
      </trkpt>
      <trkpt lat="47.21279" lon="-1.55378">
        <ele>55</ele>
        <time>2021-09-25T10:04:07.000Z</time>
      </trkpt>
      <trkpt lat="47.21273" lon="-1.55389">
        <ele>55</ele>
        <time>2021-09-25T10:04:11.000Z</time>
      </trkpt>
      <trkpt lat="47.21269" lon="-1.55405">
        <ele>55</ele>
        <time>2021-09-25T10:04:38.000Z</time>
      </trkpt>
      <trkpt lat="47.21263" lon="-1.55416">
        <ele>55</ele>
        <time>2021-09-25T10:04:40.000Z</time>
      </trkpt>
      <trkpt lat="47.21253" lon="-1.5543">
        <ele>55</ele>
        <time>2021-09-25T10:04:42.000Z</time>
      </trkpt>
      <trkpt lat="47.21242" lon="-1.55445">
        <ele>55</ele>
        <time>2021-09-25T10:04:44.000Z</time>
      </trkpt>
      <trkpt lat="47.21231" lon="-1.55462">
        <ele>54</ele>
        <time>2021-09-25T10:04:46.000Z</time>
      </trkpt>
      <trkpt lat="47.21222" lon="-1.5548">
        <ele>54</ele>
        <time>2021-09-25T10:04:48.000Z</time>
      </trkpt>
      <trkpt lat="47.21215" lon="-1.55501">
        <ele>54</ele>
        <time>2021-09-25T10:04:50.000Z</time>
      </trkpt>
      <trkpt lat="47.21208" lon="-1.55523">
        <ele>53</ele>
        <time>2021-09-25T10:04:52.000Z</time>
      </trkpt>
      <trkpt lat="47.21202" lon="-1.55546">
        <ele>53</ele>
        <time>2021-09-25T10:04:54.000Z</time>
      </trkpt>
      <trkpt lat="47.21195" lon="-1.55568">
        <ele>53</ele>
        <time>2021-09-25T10:04:56.000Z</time>
      </trkpt>
      <trkpt lat="47.21187" lon="-1.55589">
        <ele>53</ele>
        <time>2021-09-25T10:04:58.000Z</time>
      </trkpt>
      <trkpt lat="47.2118" lon="-1.55611">
        <ele>53</ele>
        <time>2021-09-25T10:05:00.000Z</time>
      </trkpt>
      <trkpt lat="47.21174" lon="-1.55631">
        <ele>52</ele>
        <time>2021-09-25T10:05:02.000Z</time>
      </trkpt>
      <trkpt lat="47.21168" lon="-1.5565">
        <ele>52</ele>
        <time>2021-09-25T10:05:04.000Z</time>
      </trkpt>
      <trkpt lat="47.21164" lon="-1.55669">
        <ele>52</ele>
        <time>2021-09-25T10:05:06.000Z</time>
      </trkpt>
      <trkpt lat="47.21153" lon="-1.55677">
        <ele>52</ele>
        <time>2021-09-25T10:05:08.000Z</time>
      </trkpt>
      <trkpt lat="47.21141" lon="-1.55668">
        <ele>52</ele>
        <time>2021-09-25T10:05:10.000Z</time>
      </trkpt>
      <trkpt lat="47.21129" lon="-1.55656">
        <ele>52</ele>
        <time>2021-09-25T10:05:12.000Z</time>
      </trkpt>
      <trkpt lat="47.21115" lon="-1.55643">
        <ele>52</ele>
        <time>2021-09-25T10:05:14.000Z</time>
      </trkpt>
      <trkpt lat="47.21102" lon="-1.55631">
        <ele>53</ele>
        <time>2021-09-25T10:05:16.000Z</time>
      </trkpt>
      <trkpt lat="47.21087" lon="-1.5562">
        <ele>54</ele>
        <time>2021-09-25T10:05:18.000Z</time>
      </trkpt>
      <trkpt lat="47.21073" lon="-1.55608">
        <ele>55</ele>
        <time>2021-09-25T10:05:20.000Z</time>
      </trkpt>
      <trkpt lat="47.21059" lon="-1.55597">
        <ele>56</ele>
        <time>2021-09-25T10:05:22.000Z</time>
      </trkpt>
      <trkpt lat="47.21046" lon="-1.55588">
        <ele>56</ele>
        <time>2021-09-25T10:05:24.000Z</time>
      </trkpt>
      <trkpt lat="47.21031" lon="-1.55585">
        <ele>57</ele>
        <time>2021-09-25T10:05:26.000Z</time>
      </trkpt>
      <trkpt lat="47.21017" lon="-1.55582">
        <ele>57</ele>
        <time>2021-09-25T10:05:28.000Z</time>
      </trkpt>
      <trkpt lat="47.21002" lon="-1.55579">
        <ele>58</ele>
        <time>2021-09-25T10:05:30.000Z</time>
      </trkpt>
      <trkpt lat="47.20988" lon="-1.55577">
        <ele>58</ele>
        <time>2021-09-25T10:05:32.000Z</time>
      </trkpt>
      <trkpt lat="47.20975" lon="-1.55575">
        <ele>58</ele>
        <time>2021-09-25T10:05:34.000Z</time>
      </trkpt>
      <trkpt lat="47.20964" lon="-1.55572">
        <ele>58</ele>
        <time>2021-09-25T10:05:36.000Z</time>
      </trkpt>
      <trkpt lat="47.20954" lon="-1.5557">
        <ele>59</ele>
        <time>2021-09-25T10:05:38.000Z</time>
      </trkpt>
      <trkpt lat="47.20945" lon="-1.55568">
        <ele>59</ele>
        <time>2021-09-25T10:05:42.000Z</time>
      </trkpt>
      <trkpt lat="47.20931" lon="-1.55564">
        <ele>60</ele>
        <time>2021-09-25T10:06:01.000Z</time>
      </trkpt>
      <trkpt lat="47.20917" lon="-1.55559">
        <ele>59</ele>
        <time>2021-09-25T10:06:03.000Z</time>
      </trkpt>
      <trkpt lat="47.20904" lon="-1.55556">
        <ele>58</ele>
        <time>2021-09-25T10:06:05.000Z</time>
      </trkpt>
      <trkpt lat="47.20891" lon="-1.55554">
        <ele>59</ele>
        <time>2021-09-25T10:06:07.000Z</time>
      </trkpt>
      <trkpt lat="47.20879" lon="-1.55551">
        <ele>60</ele>
        <time>2021-09-25T10:06:09.000Z</time>
      </trkpt>
      <trkpt lat="47.20866" lon="-1.55548">
        <ele>60</ele>
        <time>2021-09-25T10:06:11.000Z</time>
      </trkpt>
      <trkpt lat="47.20853" lon="-1.55544">
        <ele>61</ele>
        <time>2021-09-25T10:06:13.000Z</time>
      </trkpt>
      <trkpt lat="47.2084" lon="-1.55541">
        <ele>61</ele>
        <time>2021-09-25T10:06:15.000Z</time>
      </trkpt>
      <trkpt lat="47.20828" lon="-1.55537">
        <ele>60</ele>
        <time>2021-09-25T10:06:17.000Z</time>
      </trkpt>
      <trkpt lat="47.20815" lon="-1.55534">
        <ele>59</ele>
        <time>2021-09-25T10:06:19.000Z</time>
      </trkpt>
      <trkpt lat="47.20802" lon="-1.55532">
        <ele>59</ele>
        <time>2021-09-25T10:06:21.000Z</time>
      </trkpt>
      <trkpt lat="47.20789" lon="-1.55529">
        <ele>59</ele>
        <time>2021-09-25T10:06:23.000Z</time>
      </trkpt>
      <trkpt lat="47.20775" lon="-1.55526">
        <ele>58</ele>
        <time>2021-09-25T10:06:25.000Z</time>
      </trkpt>
      <trkpt lat="47.2076" lon="-1.55523">
        <ele>57</ele>
        <time>2021-09-25T10:06:27.000Z</time>
      </trkpt>
      <trkpt lat="47.20745" lon="-1.55519">
        <ele>56</ele>
        <time>2021-09-25T10:06:29.000Z</time>
      </trkpt>
      <trkpt lat="47.2073" lon="-1.55514">
        <ele>56</ele>
        <time>2021-09-25T10:06:31.000Z</time>
      </trkpt>
      <trkpt lat="47.20714" lon="-1.5551">
        <ele>56</ele>
        <time>2021-09-25T10:06:33.000Z</time>
      </trkpt>
      <trkpt lat="47.20697" lon="-1.55508">
        <ele>56</ele>
        <time>2021-09-25T10:06:35.000Z</time>
      </trkpt>
      <trkpt lat="47.20682" lon="-1.55506">
        <ele>56</ele>
        <time>2021-09-25T10:06:37.000Z</time>
      </trkpt>
      <trkpt lat="47.20667" lon="-1.55503">
        <ele>56</ele>
        <time>2021-09-25T10:06:39.000Z</time>
      </trkpt>
      <trkpt lat="47.2065" lon="-1.55498">
        <ele>55</ele>
        <time>2021-09-25T10:06:41.000Z</time>
      </trkpt>
      <trkpt lat="47.20634" lon="-1.55493">
        <ele>54</ele>
        <time>2021-09-25T10:06:43.000Z</time>
      </trkpt>
      <trkpt lat="47.20618" lon="-1.5549">
        <ele>55</ele>
        <time>2021-09-25T10:06:45.000Z</time>
      </trkpt>
      <trkpt lat="47.20603" lon="-1.55488">
        <ele>55</ele>
        <time>2021-09-25T10:06:47.000Z</time>
      </trkpt>
      <trkpt lat="47.20589" lon="-1.55484">
        <ele>56</ele>
        <time>2021-09-25T10:06:49.000Z</time>
      </trkpt>
      <trkpt lat="47.20577" lon="-1.55482">
        <ele>55</ele>
        <time>2021-09-25T10:06:51.000Z</time>
      </trkpt>
      <trkpt lat="47.20566" lon="-1.55481">
        <ele>55</ele>
        <time>2021-09-25T10:06:53.000Z</time>
      </trkpt>
      <trkpt lat="47.20553" lon="-1.55486">
        <ele>55</ele>
        <time>2021-09-25T10:06:55.000Z</time>
      </trkpt>
      <trkpt lat="47.2054" lon="-1.55497">
        <ele>55</ele>
        <time>2021-09-25T10:06:57.000Z</time>
      </trkpt>
      <trkpt lat="47.20525" lon="-1.55502">
        <ele>56</ele>
        <time>2021-09-25T10:06:59.000Z</time>
      </trkpt>
      <trkpt lat="47.20511" lon="-1.55495">
        <ele>56</ele>
        <time>2021-09-25T10:07:01.000Z</time>
      </trkpt>
      <trkpt lat="47.20503" lon="-1.55479">
        <ele>56</ele>
        <time>2021-09-25T10:07:03.000Z</time>
      </trkpt>
      <trkpt lat="47.20499" lon="-1.55459">
        <ele>58</ele>
        <time>2021-09-25T10:07:05.000Z</time>
      </trkpt>
      <trkpt lat="47.20503" lon="-1.55441">
        <ele>58</ele>
        <time>2021-09-25T10:07:07.000Z</time>
      </trkpt>
      <trkpt lat="47.20507" lon="-1.55424">
        <ele>59</ele>
        <time>2021-09-25T10:07:09.000Z</time>
      </trkpt>
      <trkpt lat="47.20503" lon="-1.55408">
        <ele>59</ele>
        <time>2021-09-25T10:07:12.000Z</time>
      </trkpt>
      <trkpt lat="47.20495" lon="-1.55395">
        <ele>59</ele>
        <time>2021-09-25T10:07:15.000Z</time>
      </trkpt>
      <trkpt lat="47.20487" lon="-1.55379">
        <ele>61</ele>
        <time>2021-09-25T10:07:18.000Z</time>
      </trkpt>
      <trkpt lat="47.20478" lon="-1.55367">
        <ele>60</ele>
        <time>2021-09-25T10:07:21.000Z</time>
      </trkpt>
      <trkpt lat="47.20472" lon="-1.55356">
        <ele>59</ele>
        <time>2021-09-25T10:07:26.000Z</time>
      </trkpt>
      <trkpt lat="47.20465" lon="-1.55345">
        <ele>59</ele>
        <time>2021-09-25T10:07:46.000Z</time>
      </trkpt>
      <trkpt lat="47.20458" lon="-1.5533">
        <ele>58</ele>
        <time>2021-09-25T10:07:48.000Z</time>
      </trkpt>
      <trkpt lat="47.20446" lon="-1.55305">
        <ele>59</ele>
        <time>2021-09-25T10:07:51.000Z</time>
      </trkpt>
      <trkpt lat="47.20436" lon="-1.55289">
        <ele>59</ele>
        <time>2021-09-25T10:07:53.000Z</time>
      </trkpt>
      <trkpt lat="47.20427" lon="-1.55272">
        <ele>58</ele>
        <time>2021-09-25T10:07:55.000Z</time>
      </trkpt>
      <trkpt lat="47.2042" lon="-1.55253">
        <ele>58</ele>
        <time>2021-09-25T10:07:57.000Z</time>
      </trkpt>
      <trkpt lat="47.20412" lon="-1.55236">
        <ele>58</ele>
        <time>2021-09-25T10:07:59.000Z</time>
      </trkpt>
      <trkpt lat="47.20404" lon="-1.55219">
        <ele>58</ele>
        <time>2021-09-25T10:08:01.000Z</time>
      </trkpt>
      <trkpt lat="47.20397" lon="-1.55203">
        <ele>57</ele>
        <time>2021-09-25T10:08:03.000Z</time>
      </trkpt>
      <trkpt lat="47.20388" lon="-1.55189">
        <ele>57</ele>
        <time>2021-09-25T10:08:05.000Z</time>
      </trkpt>
      <trkpt lat="47.20374" lon="-1.55187">
        <ele>58</ele>
        <time>2021-09-25T10:08:07.000Z</time>
      </trkpt>
      <trkpt lat="47.20364" lon="-1.55197">
        <ele>58</ele>
        <time>2021-09-25T10:08:09.000Z</time>
      </trkpt>
      <trkpt lat="47.20353" lon="-1.55212">
        <ele>55</ele>
        <time>2021-09-25T10:08:11.000Z</time>
      </trkpt>
      <trkpt lat="47.20341" lon="-1.55226">
        <ele>54</ele>
        <time>2021-09-25T10:08:13.000Z</time>
      </trkpt>
      <trkpt lat="47.2033" lon="-1.55241">
        <ele>53</ele>
        <time>2021-09-25T10:08:15.000Z</time>
      </trkpt>
      <trkpt lat="47.20319" lon="-1.55256">
        <ele>53</ele>
        <time>2021-09-25T10:08:17.000Z</time>
      </trkpt>
      <trkpt lat="47.20309" lon="-1.55272">
        <ele>54</ele>
        <time>2021-09-25T10:08:19.000Z</time>
      </trkpt>
      <trkpt lat="47.20298" lon="-1.55285">
        <ele>54</ele>
        <time>2021-09-25T10:08:21.000Z</time>
      </trkpt>
      <trkpt lat="47.20288" lon="-1.55298">
        <ele>54</ele>
        <time>2021-09-25T10:08:23.000Z</time>
      </trkpt>
      <trkpt lat="47.20279" lon="-1.55312">
        <ele>54</ele>
        <time>2021-09-25T10:08:25.000Z</time>
      </trkpt>
      <trkpt lat="47.20269" lon="-1.55325">
        <ele>53</ele>
        <time>2021-09-25T10:08:27.000Z</time>
      </trkpt>
      <trkpt lat="47.20259" lon="-1.55338">
        <ele>53</ele>
        <time>2021-09-25T10:08:29.000Z</time>
      </trkpt>
      <trkpt lat="47.20248" lon="-1.55352">
        <ele>52</ele>
        <time>2021-09-25T10:08:31.000Z</time>
      </trkpt>
      <trkpt lat="47.20237" lon="-1.55365">
        <ele>53</ele>
        <time>2021-09-25T10:08:33.000Z</time>
      </trkpt>
      <trkpt lat="47.20226" lon="-1.55378">
        <ele>53</ele>
        <time>2021-09-25T10:08:35.000Z</time>
      </trkpt>
      <trkpt lat="47.20215" lon="-1.55391">
        <ele>53</ele>
        <time>2021-09-25T10:08:37.000Z</time>
      </trkpt>
      <trkpt lat="47.20205" lon="-1.55403">
        <ele>53</ele>
        <time>2021-09-25T10:08:39.000Z</time>
      </trkpt>
      <trkpt lat="47.20197" lon="-1.55414">
        <ele>52</ele>
        <time>2021-09-25T10:08:41.000Z</time>
      </trkpt>
      <trkpt lat="47.20192" lon="-1.55427">
        <ele>53</ele>
        <time>2021-09-25T10:08:43.000Z</time>
      </trkpt>
      <trkpt lat="47.20186" lon="-1.55443">
        <ele>53</ele>
        <time>2021-09-25T10:08:45.000Z</time>
      </trkpt>
      <trkpt lat="47.2018" lon="-1.55462">
        <ele>53</ele>
        <time>2021-09-25T10:08:47.000Z</time>
      </trkpt>
      <trkpt lat="47.20175" lon="-1.55481">
        <ele>53</ele>
        <time>2021-09-25T10:08:49.000Z</time>
      </trkpt>
      <trkpt lat="47.20174" lon="-1.55501">
        <ele>52</ele>
        <time>2021-09-25T10:08:51.000Z</time>
      </trkpt>
      <trkpt lat="47.20178" lon="-1.5552">
        <ele>52</ele>
        <time>2021-09-25T10:08:53.000Z</time>
      </trkpt>
      <trkpt lat="47.20189" lon="-1.55534">
        <ele>52</ele>
        <time>2021-09-25T10:08:55.000Z</time>
      </trkpt>
      <trkpt lat="47.20203" lon="-1.5554">
        <ele>52</ele>
        <time>2021-09-25T10:08:57.000Z</time>
      </trkpt>
      <trkpt lat="47.20216" lon="-1.55546">
        <ele>53</ele>
        <time>2021-09-25T10:08:59.000Z</time>
      </trkpt>
      <trkpt lat="47.20229" lon="-1.55552">
        <ele>53</ele>
        <time>2021-09-25T10:09:01.000Z</time>
      </trkpt>
      <trkpt lat="47.20242" lon="-1.55558">
        <ele>53</ele>
        <time>2021-09-25T10:09:03.000Z</time>
      </trkpt>
      <trkpt lat="47.20255" lon="-1.55563">
        <ele>53</ele>
        <time>2021-09-25T10:09:05.000Z</time>
      </trkpt>
      <trkpt lat="47.20268" lon="-1.55566">
        <ele>53</ele>
        <time>2021-09-25T10:09:07.000Z</time>
      </trkpt>
      <trkpt lat="47.20281" lon="-1.55569">
        <ele>53</ele>
        <time>2021-09-25T10:09:09.000Z</time>
      </trkpt>
      <trkpt lat="47.20292" lon="-1.55578">
        <ele>54</ele>
        <time>2021-09-25T10:09:11.000Z</time>
      </trkpt>
      <trkpt lat="47.20298" lon="-1.55595">
        <ele>54</ele>
        <time>2021-09-25T10:09:13.000Z</time>
      </trkpt>
      <trkpt lat="47.20296" lon="-1.55615">
        <ele>54</ele>
        <time>2021-09-25T10:09:15.000Z</time>
      </trkpt>
      <trkpt lat="47.20293" lon="-1.55636">
        <ele>54</ele>
        <time>2021-09-25T10:09:17.000Z</time>
      </trkpt>
      <trkpt lat="47.20292" lon="-1.55657">
        <ele>54</ele>
        <time>2021-09-25T10:09:19.000Z</time>
      </trkpt>
      <trkpt lat="47.20289" lon="-1.55678">
        <ele>54</ele>
        <time>2021-09-25T10:09:21.000Z</time>
      </trkpt>
      <trkpt lat="47.20286" lon="-1.55699">
        <ele>54</ele>
        <time>2021-09-25T10:09:23.000Z</time>
      </trkpt>
      <trkpt lat="47.20284" lon="-1.55721">
        <ele>54</ele>
        <time>2021-09-25T10:09:25.000Z</time>
      </trkpt>
      <trkpt lat="47.20282" lon="-1.55743">
        <ele>53</ele>
        <time>2021-09-25T10:09:27.000Z</time>
      </trkpt>
      <trkpt lat="47.20279" lon="-1.55764">
        <ele>53</ele>
        <time>2021-09-25T10:09:29.000Z</time>
      </trkpt>
      <trkpt lat="47.20277" lon="-1.55786">
        <ele>53</ele>
        <time>2021-09-25T10:09:31.000Z</time>
      </trkpt>
      <trkpt lat="47.20274" lon="-1.55807">
        <ele>53</ele>
        <time>2021-09-25T10:09:33.000Z</time>
      </trkpt>
      <trkpt lat="47.20272" lon="-1.55829">
        <ele>53</ele>
        <time>2021-09-25T10:09:35.000Z</time>
      </trkpt>
      <trkpt lat="47.2027" lon="-1.55851">
        <ele>53</ele>
        <time>2021-09-25T10:09:37.000Z</time>
      </trkpt>
      <trkpt lat="47.20268" lon="-1.55872">
        <ele>53</ele>
        <time>2021-09-25T10:09:39.000Z</time>
      </trkpt>
      <trkpt lat="47.20266" lon="-1.55893">
        <ele>53</ele>
        <time>2021-09-25T10:09:41.000Z</time>
      </trkpt>
      <trkpt lat="47.20263" lon="-1.55914">
        <ele>53</ele>
        <time>2021-09-25T10:09:43.000Z</time>
      </trkpt>
      <trkpt lat="47.20261" lon="-1.55935">
        <ele>53</ele>
        <time>2021-09-25T10:09:45.000Z</time>
      </trkpt>
      <trkpt lat="47.20259" lon="-1.55955">
        <ele>53</ele>
        <time>2021-09-25T10:09:47.000Z</time>
      </trkpt>
      <trkpt lat="47.20256" lon="-1.55976">
        <ele>53</ele>
        <time>2021-09-25T10:09:49.000Z</time>
      </trkpt>
      <trkpt lat="47.20254" lon="-1.55998">
        <ele>53</ele>
        <time>2021-09-25T10:09:51.000Z</time>
      </trkpt>
      <trkpt lat="47.20251" lon="-1.56021">
        <ele>53</ele>
        <time>2021-09-25T10:09:53.000Z</time>
      </trkpt>
      <trkpt lat="47.2025" lon="-1.56045">
        <ele>53</ele>
        <time>2021-09-25T10:09:55.000Z</time>
      </trkpt>
      <trkpt lat="47.20248" lon="-1.56069">
        <ele>53</ele>
        <time>2021-09-25T10:09:57.000Z</time>
      </trkpt>
      <trkpt lat="47.20245" lon="-1.56093">
        <ele>52</ele>
        <time>2021-09-25T10:09:59.000Z</time>
      </trkpt>
      <trkpt lat="47.20242" lon="-1.56117">
        <ele>52</ele>
        <time>2021-09-25T10:10:01.000Z</time>
      </trkpt>
      <trkpt lat="47.20235" lon="-1.5614">
        <ele>52</ele>
        <time>2021-09-25T10:10:03.000Z</time>
      </trkpt>
      <trkpt lat="47.20223" lon="-1.56158">
        <ele>52</ele>
        <time>2021-09-25T10:10:05.000Z</time>
      </trkpt>
      <trkpt lat="47.20208" lon="-1.5617">
        <ele>52</ele>
        <time>2021-09-25T10:10:07.000Z</time>
      </trkpt>
      <trkpt lat="47.20194" lon="-1.56178">
        <ele>52</ele>
        <time>2021-09-25T10:10:09.000Z</time>
      </trkpt>
      <trkpt lat="47.20182" lon="-1.56189">
        <ele>52</ele>
        <time>2021-09-25T10:10:11.000Z</time>
      </trkpt>
      <trkpt lat="47.20169" lon="-1.56197">
        <ele>52</ele>
        <time>2021-09-25T10:10:13.000Z</time>
      </trkpt>
      <trkpt lat="47.20159" lon="-1.56194">
        <ele>53</ele>
        <time>2021-09-25T10:10:15.000Z</time>
      </trkpt>
      <trkpt lat="47.20149" lon="-1.56184">
        <ele>53</ele>
        <time>2021-09-25T10:10:17.000Z</time>
      </trkpt>
      <trkpt lat="47.20135" lon="-1.56181">
        <ele>54</ele>
        <time>2021-09-25T10:10:19.000Z</time>
      </trkpt>
      <trkpt lat="47.20121" lon="-1.56181">
        <ele>55</ele>
        <time>2021-09-25T10:10:21.000Z</time>
      </trkpt>
      <trkpt lat="47.20106" lon="-1.56181">
        <ele>55</ele>
        <time>2021-09-25T10:10:23.000Z</time>
      </trkpt>
      <trkpt lat="47.20091" lon="-1.56181">
        <ele>56</ele>
        <time>2021-09-25T10:10:25.000Z</time>
      </trkpt>
      <trkpt lat="47.20076" lon="-1.56182">
        <ele>56</ele>
        <time>2021-09-25T10:10:27.000Z</time>
      </trkpt>
      <trkpt lat="47.20062" lon="-1.56182">
        <ele>55</ele>
        <time>2021-09-25T10:10:29.000Z</time>
      </trkpt>
      <trkpt lat="47.20048" lon="-1.56183">
        <ele>55</ele>
        <time>2021-09-25T10:10:31.000Z</time>
      </trkpt>
      <trkpt lat="47.20034" lon="-1.56183">
        <ele>56</ele>
        <time>2021-09-25T10:10:33.000Z</time>
      </trkpt>
      <trkpt lat="47.20021" lon="-1.56185">
        <ele>55</ele>
        <time>2021-09-25T10:10:35.000Z</time>
      </trkpt>
      <trkpt lat="47.20009" lon="-1.56188">
        <ele>55</ele>
        <time>2021-09-25T10:10:37.000Z</time>
      </trkpt>
      <trkpt lat="47.19997" lon="-1.56194">
        <ele>55</ele>
        <time>2021-09-25T10:10:39.000Z</time>
      </trkpt>
      <trkpt lat="47.19984" lon="-1.56195">
        <ele>55</ele>
        <time>2021-09-25T10:10:41.000Z</time>
      </trkpt>
      <trkpt lat="47.19975" lon="-1.56185">
        <ele>55</ele>
        <time>2021-09-25T10:10:43.000Z</time>
      </trkpt>
      <trkpt lat="47.1997" lon="-1.56169">
        <ele>55</ele>
        <time>2021-09-25T10:10:45.000Z</time>
      </trkpt>
      <trkpt lat="47.19961" lon="-1.56164">
        <ele>56</ele>
        <time>2021-09-25T10:10:47.000Z</time>
      </trkpt>
      <trkpt lat="47.19946" lon="-1.56171">
        <ele>58</ele>
        <time>2021-09-25T10:10:49.000Z</time>
      </trkpt>
      <trkpt lat="47.19931" lon="-1.56176">
        <ele>58</ele>
        <time>2021-09-25T10:10:51.000Z</time>
      </trkpt>
      <trkpt lat="47.19917" lon="-1.56177">
        <ele>58</ele>
        <time>2021-09-25T10:10:53.000Z</time>
      </trkpt>
      <trkpt lat="47.19902" lon="-1.5618">
        <ele>59</ele>
        <time>2021-09-25T10:10:55.000Z</time>
      </trkpt>
      <trkpt lat="47.19888" lon="-1.56181">
        <ele>59</ele>
        <time>2021-09-25T10:10:57.000Z</time>
      </trkpt>
      <trkpt lat="47.19874" lon="-1.56183">
        <ele>60</ele>
        <time>2021-09-25T10:10:59.000Z</time>
      </trkpt>
      <trkpt lat="47.19861" lon="-1.56185">
        <ele>60</ele>
        <time>2021-09-25T10:11:01.000Z</time>
      </trkpt>
      <trkpt lat="47.19848" lon="-1.56188">
        <ele>60</ele>
        <time>2021-09-25T10:11:03.000Z</time>
      </trkpt>
      <trkpt lat="47.19834" lon="-1.5619">
        <ele>60</ele>
        <time>2021-09-25T10:11:05.000Z</time>
      </trkpt>
      <trkpt lat="47.19821" lon="-1.56192">
        <ele>60</ele>
        <time>2021-09-25T10:11:07.000Z</time>
      </trkpt>
      <trkpt lat="47.19808" lon="-1.56195">
        <ele>59</ele>
        <time>2021-09-25T10:11:09.000Z</time>
      </trkpt>
      <trkpt lat="47.19795" lon="-1.56197">
        <ele>59</ele>
        <time>2021-09-25T10:11:11.000Z</time>
      </trkpt>
      <trkpt lat="47.19782" lon="-1.562">
        <ele>59</ele>
        <time>2021-09-25T10:11:13.000Z</time>
      </trkpt>
      <trkpt lat="47.19768" lon="-1.56202">
        <ele>59</ele>
        <time>2021-09-25T10:11:15.000Z</time>
      </trkpt>
      <trkpt lat="47.19755" lon="-1.56205">
        <ele>58</ele>
        <time>2021-09-25T10:11:17.000Z</time>
      </trkpt>
      <trkpt lat="47.19741" lon="-1.56207">
        <ele>58</ele>
        <time>2021-09-25T10:11:19.000Z</time>
      </trkpt>
      <trkpt lat="47.19727" lon="-1.5621">
        <ele>57</ele>
        <time>2021-09-25T10:11:21.000Z</time>
      </trkpt>
      <trkpt lat="47.19712" lon="-1.56213">
        <ele>57</ele>
        <time>2021-09-25T10:11:23.000Z</time>
      </trkpt>
      <trkpt lat="47.19697" lon="-1.56216">
        <ele>56</ele>
        <time>2021-09-25T10:11:25.000Z</time>
      </trkpt>
      <trkpt lat="47.19681" lon="-1.56219">
        <ele>55</ele>
        <time>2021-09-25T10:11:27.000Z</time>
      </trkpt>
      <trkpt lat="47.19665" lon="-1.56224">
        <ele>54</ele>
        <time>2021-09-25T10:11:29.000Z</time>
      </trkpt>
      <trkpt lat="47.19649" lon="-1.56229">
        <ele>53</ele>
        <time>2021-09-25T10:11:31.000Z</time>
      </trkpt>
      <trkpt lat="47.19637" lon="-1.56241">
        <ele>52</ele>
        <time>2021-09-25T10:11:33.000Z</time>
      </trkpt>
      <trkpt lat="47.19633" lon="-1.5626">
        <ele>51</ele>
        <time>2021-09-25T10:11:35.000Z</time>
      </trkpt>
      <trkpt lat="47.19632" lon="-1.56281">
        <ele>51</ele>
        <time>2021-09-25T10:11:37.000Z</time>
      </trkpt>
      <trkpt lat="47.19631" lon="-1.56303">
        <ele>50</ele>
        <time>2021-09-25T10:11:39.000Z</time>
      </trkpt>
      <trkpt lat="47.1963" lon="-1.56324">
        <ele>50</ele>
        <time>2021-09-25T10:11:41.000Z</time>
      </trkpt>
      <trkpt lat="47.19629" lon="-1.56344">
        <ele>50</ele>
        <time>2021-09-25T10:11:43.000Z</time>
      </trkpt>
      <trkpt lat="47.19628" lon="-1.56364">
        <ele>49</ele>
        <time>2021-09-25T10:11:45.000Z</time>
      </trkpt>
      <trkpt lat="47.19629" lon="-1.56384">
        <ele>49</ele>
        <time>2021-09-25T10:11:47.000Z</time>
      </trkpt>
      <trkpt lat="47.1963" lon="-1.56405">
        <ele>49</ele>
        <time>2021-09-25T10:11:49.000Z</time>
      </trkpt>
      <trkpt lat="47.19631" lon="-1.56425">
        <ele>49</ele>
        <time>2021-09-25T10:11:51.000Z</time>
      </trkpt>
      <trkpt lat="47.19631" lon="-1.56445">
        <ele>49</ele>
        <time>2021-09-25T10:11:53.000Z</time>
      </trkpt>
      <trkpt lat="47.19631" lon="-1.56466">
        <ele>49</ele>
        <time>2021-09-25T10:11:55.000Z</time>
      </trkpt>
      <trkpt lat="47.19632" lon="-1.56486">
        <ele>49</ele>
        <time>2021-09-25T10:11:57.000Z</time>
      </trkpt>
      <trkpt lat="47.19633" lon="-1.56507">
        <ele>49</ele>
        <time>2021-09-25T10:11:59.000Z</time>
      </trkpt>
      <trkpt lat="47.19632" lon="-1.56527">
        <ele>49</ele>
        <time>2021-09-25T10:12:01.000Z</time>
      </trkpt>
      <trkpt lat="47.19631" lon="-1.56547">
        <ele>50</ele>
        <time>2021-09-25T10:12:03.000Z</time>
      </trkpt>
      <trkpt lat="47.19631" lon="-1.56567">
        <ele>50</ele>
        <time>2021-09-25T10:12:05.000Z</time>
      </trkpt>
      <trkpt lat="47.1963" lon="-1.56587">
        <ele>50</ele>
        <time>2021-09-25T10:12:07.000Z</time>
      </trkpt>
      <trkpt lat="47.19629" lon="-1.56606">
        <ele>50</ele>
        <time>2021-09-25T10:12:09.000Z</time>
      </trkpt>
      <trkpt lat="47.19629" lon="-1.56627">
        <ele>50</ele>
        <time>2021-09-25T10:12:11.000Z</time>
      </trkpt>
      <trkpt lat="47.19627" lon="-1.56647">
        <ele>50</ele>
        <time>2021-09-25T10:12:13.000Z</time>
      </trkpt>
      <trkpt lat="47.19627" lon="-1.56668">
        <ele>50</ele>
        <time>2021-09-25T10:12:15.000Z</time>
      </trkpt>
      <trkpt lat="47.19626" lon="-1.56688">
        <ele>51</ele>
        <time>2021-09-25T10:12:17.000Z</time>
      </trkpt>
      <trkpt lat="47.19625" lon="-1.56707">
        <ele>52</ele>
        <time>2021-09-25T10:12:19.000Z</time>
      </trkpt>
      <trkpt lat="47.19624" lon="-1.56727">
        <ele>52</ele>
        <time>2021-09-25T10:12:21.000Z</time>
      </trkpt>
      <trkpt lat="47.19622" lon="-1.56748">
        <ele>52</ele>
        <time>2021-09-25T10:12:23.000Z</time>
      </trkpt>
      <trkpt lat="47.19621" lon="-1.56768">
        <ele>52</ele>
        <time>2021-09-25T10:12:25.000Z</time>
      </trkpt>
      <trkpt lat="47.1962" lon="-1.56788">
        <ele>52</ele>
        <time>2021-09-25T10:12:27.000Z</time>
      </trkpt>
      <trkpt lat="47.19619" lon="-1.56808">
        <ele>52</ele>
        <time>2021-09-25T10:12:29.000Z</time>
      </trkpt>
      <trkpt lat="47.19618" lon="-1.56828">
        <ele>51</ele>
        <time>2021-09-25T10:12:31.000Z</time>
      </trkpt>
      <trkpt lat="47.19617" lon="-1.56848">
        <ele>52</ele>
        <time>2021-09-25T10:12:33.000Z</time>
      </trkpt>
      <trkpt lat="47.19616" lon="-1.56868">
        <ele>52</ele>
        <time>2021-09-25T10:12:35.000Z</time>
      </trkpt>
      <trkpt lat="47.19614" lon="-1.56888">
        <ele>53</ele>
        <time>2021-09-25T10:12:37.000Z</time>
      </trkpt>
      <trkpt lat="47.19613" lon="-1.56908">
        <ele>53</ele>
        <time>2021-09-25T10:12:39.000Z</time>
      </trkpt>
      <trkpt lat="47.19611" lon="-1.56928">
        <ele>53</ele>
        <time>2021-09-25T10:12:41.000Z</time>
      </trkpt>
      <trkpt lat="47.1961" lon="-1.56948">
        <ele>52</ele>
        <time>2021-09-25T10:12:43.000Z</time>
      </trkpt>
      <trkpt lat="47.19608" lon="-1.56968">
        <ele>52</ele>
        <time>2021-09-25T10:12:45.000Z</time>
      </trkpt>
      <trkpt lat="47.19606" lon="-1.56988">
        <ele>52</ele>
        <time>2021-09-25T10:12:47.000Z</time>
      </trkpt>
      <trkpt lat="47.19605" lon="-1.57008">
        <ele>52</ele>
        <time>2021-09-25T10:12:49.000Z</time>
      </trkpt>
      <trkpt lat="47.19604" lon="-1.57028">
        <ele>52</ele>
        <time>2021-09-25T10:12:51.000Z</time>
      </trkpt>
      <trkpt lat="47.19603" lon="-1.57049">
        <ele>52</ele>
        <time>2021-09-25T10:12:53.000Z</time>
      </trkpt>
      <trkpt lat="47.19601" lon="-1.5707">
        <ele>52</ele>
        <time>2021-09-25T10:12:55.000Z</time>
      </trkpt>
      <trkpt lat="47.196" lon="-1.57092">
        <ele>52</ele>
        <time>2021-09-25T10:12:57.000Z</time>
      </trkpt>
      <trkpt lat="47.19599" lon="-1.57114">
        <ele>52</ele>
        <time>2021-09-25T10:12:59.000Z</time>
      </trkpt>
      <trkpt lat="47.19598" lon="-1.57135">
        <ele>52</ele>
        <time>2021-09-25T10:13:01.000Z</time>
      </trkpt>
      <trkpt lat="47.19596" lon="-1.57155">
        <ele>51</ele>
        <time>2021-09-25T10:13:03.000Z</time>
      </trkpt>
      <trkpt lat="47.19595" lon="-1.57176">
        <ele>52</ele>
        <time>2021-09-25T10:13:05.000Z</time>
      </trkpt>
      <trkpt lat="47.19594" lon="-1.57198">
        <ele>52</ele>
        <time>2021-09-25T10:13:07.000Z</time>
      </trkpt>
      <trkpt lat="47.19593" lon="-1.5722">
        <ele>52</ele>
        <time>2021-09-25T10:13:09.000Z</time>
      </trkpt>
      <trkpt lat="47.19591" lon="-1.57242">
        <ele>52</ele>
        <time>2021-09-25T10:13:11.000Z</time>
      </trkpt>
      <trkpt lat="47.19588" lon="-1.57263">
        <ele>51</ele>
        <time>2021-09-25T10:13:13.000Z</time>
      </trkpt>
      <trkpt lat="47.19586" lon="-1.57284">
        <ele>51</ele>
        <time>2021-09-25T10:13:15.000Z</time>
      </trkpt>
      <trkpt lat="47.19586" lon="-1.57305">
        <ele>51</ele>
        <time>2021-09-25T10:13:17.000Z</time>
      </trkpt>
      <trkpt lat="47.19584" lon="-1.57325">
        <ele>52</ele>
        <time>2021-09-25T10:13:19.000Z</time>
      </trkpt>
      <trkpt lat="47.19579" lon="-1.57346">
        <ele>52</ele>
        <time>2021-09-25T10:13:21.000Z</time>
      </trkpt>
      <trkpt lat="47.19575" lon="-1.57365">
        <ele>52</ele>
        <time>2021-09-25T10:13:23.000Z</time>
      </trkpt>
      <trkpt lat="47.19571" lon="-1.57384">
        <ele>52</ele>
        <time>2021-09-25T10:13:25.000Z</time>
      </trkpt>
      <trkpt lat="47.19568" lon="-1.57404">
        <ele>51</ele>
        <time>2021-09-25T10:13:27.000Z</time>
      </trkpt>
      <trkpt lat="47.19564" lon="-1.57424">
        <ele>52</ele>
        <time>2021-09-25T10:13:29.000Z</time>
      </trkpt>
      <trkpt lat="47.1956" lon="-1.57443">
        <ele>53</ele>
        <time>2021-09-25T10:13:31.000Z</time>
      </trkpt>
      <trkpt lat="47.19557" lon="-1.57463">
        <ele>53</ele>
        <time>2021-09-25T10:13:33.000Z</time>
      </trkpt>
      <trkpt lat="47.19552" lon="-1.57485">
        <ele>53</ele>
        <time>2021-09-25T10:13:35.000Z</time>
      </trkpt>
      <trkpt lat="47.19548" lon="-1.57505">
        <ele>52</ele>
        <time>2021-09-25T10:13:37.000Z</time>
      </trkpt>
      <trkpt lat="47.19544" lon="-1.57526">
        <ele>52</ele>
        <time>2021-09-25T10:13:39.000Z</time>
      </trkpt>
      <trkpt lat="47.19539" lon="-1.57546">
        <ele>52</ele>
        <time>2021-09-25T10:13:41.000Z</time>
      </trkpt>
      <trkpt lat="47.19535" lon="-1.57566">
        <ele>51</ele>
        <time>2021-09-25T10:13:43.000Z</time>
      </trkpt>
      <trkpt lat="47.19531" lon="-1.57587">
        <ele>52</ele>
        <time>2021-09-25T10:13:45.000Z</time>
      </trkpt>
      <trkpt lat="47.19527" lon="-1.57607">
        <ele>52</ele>
        <time>2021-09-25T10:13:47.000Z</time>
      </trkpt>
      <trkpt lat="47.19523" lon="-1.57628">
        <ele>52</ele>
        <time>2021-09-25T10:13:49.000Z</time>
      </trkpt>
      <trkpt lat="47.19518" lon="-1.57648">
        <ele>52</ele>
        <time>2021-09-25T10:13:51.000Z</time>
      </trkpt>
      <trkpt lat="47.19514" lon="-1.57668">
        <ele>51</ele>
        <time>2021-09-25T10:13:53.000Z</time>
      </trkpt>
      <trkpt lat="47.1951" lon="-1.57687">
        <ele>51</ele>
        <time>2021-09-25T10:13:55.000Z</time>
      </trkpt>
      <trkpt lat="47.19506" lon="-1.57707">
        <ele>51</ele>
        <time>2021-09-25T10:13:57.000Z</time>
      </trkpt>
      <trkpt lat="47.19502" lon="-1.57727">
        <ele>51</ele>
        <time>2021-09-25T10:13:59.000Z</time>
      </trkpt>
      <trkpt lat="47.19498" lon="-1.57747">
        <ele>50</ele>
        <time>2021-09-25T10:14:01.000Z</time>
      </trkpt>
      <trkpt lat="47.19494" lon="-1.57766">
        <ele>50</ele>
        <time>2021-09-25T10:14:03.000Z</time>
      </trkpt>
      <trkpt lat="47.19489" lon="-1.57786">
        <ele>50</ele>
        <time>2021-09-25T10:14:05.000Z</time>
      </trkpt>
      <trkpt lat="47.19486" lon="-1.57806">
        <ele>51</ele>
        <time>2021-09-25T10:14:07.000Z</time>
      </trkpt>
      <trkpt lat="47.19482" lon="-1.57825">
        <ele>50</ele>
        <time>2021-09-25T10:14:09.000Z</time>
      </trkpt>
      <trkpt lat="47.1948" lon="-1.57845">
        <ele>50</ele>
        <time>2021-09-25T10:14:11.000Z</time>
      </trkpt>
      <trkpt lat="47.19479" lon="-1.57865">
        <ele>50</ele>
        <time>2021-09-25T10:14:13.000Z</time>
      </trkpt>
      <trkpt lat="47.19475" lon="-1.57885">
        <ele>50</ele>
        <time>2021-09-25T10:14:15.000Z</time>
      </trkpt>
      <trkpt lat="47.19471" lon="-1.57905">
        <ele>50</ele>
        <time>2021-09-25T10:14:17.000Z</time>
      </trkpt>
      <trkpt lat="47.19468" lon="-1.57926">
        <ele>50</ele>
        <time>2021-09-25T10:14:19.000Z</time>
      </trkpt>
      <trkpt lat="47.19466" lon="-1.57946">
        <ele>50</ele>
        <time>2021-09-25T10:14:21.000Z</time>
      </trkpt>
      <trkpt lat="47.19465" lon="-1.57963">
        <ele>50</ele>
        <time>2021-09-25T10:14:23.000Z</time>
      </trkpt>
      <trkpt lat="47.19465" lon="-1.57981">
        <ele>50</ele>
        <time>2021-09-25T10:14:26.000Z</time>
      </trkpt>
      <trkpt lat="47.19464" lon="-1.57997">
        <ele>50</ele>
        <time>2021-09-25T10:14:28.000Z</time>
      </trkpt>
      <trkpt lat="47.19462" lon="-1.58016">
        <ele>50</ele>
        <time>2021-09-25T10:14:30.000Z</time>
      </trkpt>
      <trkpt lat="47.1946" lon="-1.58035">
        <ele>50</ele>
        <time>2021-09-25T10:14:32.000Z</time>
      </trkpt>
      <trkpt lat="47.19458" lon="-1.58053">
        <ele>50</ele>
        <time>2021-09-25T10:14:34.000Z</time>
      </trkpt>
      <trkpt lat="47.19455" lon="-1.5807">
        <ele>49</ele>
        <time>2021-09-25T10:14:36.000Z</time>
      </trkpt>
      <trkpt lat="47.19454" lon="-1.58084">
        <ele>49</ele>
        <time>2021-09-25T10:14:38.000Z</time>
      </trkpt>
      <trkpt lat="47.19448" lon="-1.58097">
        <ele>50</ele>
        <time>2021-09-25T10:14:40.000Z</time>
      </trkpt>
      <trkpt lat="47.19438" lon="-1.5811">
        <ele>50</ele>
        <time>2021-09-25T10:14:42.000Z</time>
      </trkpt>
      <trkpt lat="47.19427" lon="-1.58123">
        <ele>51</ele>
        <time>2021-09-25T10:14:44.000Z</time>
      </trkpt>
      <trkpt lat="47.19417" lon="-1.58136">
        <ele>51</ele>
        <time>2021-09-25T10:14:46.000Z</time>
      </trkpt>
      <trkpt lat="47.19406" lon="-1.58151">
        <ele>51</ele>
        <time>2021-09-25T10:14:48.000Z</time>
      </trkpt>
      <trkpt lat="47.19397" lon="-1.58165">
        <ele>51</ele>
        <time>2021-09-25T10:14:50.000Z</time>
      </trkpt>
      <trkpt lat="47.1939" lon="-1.58181">
        <ele>51</ele>
        <time>2021-09-25T10:14:52.000Z</time>
      </trkpt>
      <trkpt lat="47.19383" lon="-1.58199">
        <ele>52</ele>
        <time>2021-09-25T10:14:54.000Z</time>
      </trkpt>
      <trkpt lat="47.19376" lon="-1.58216">
        <ele>52</ele>
        <time>2021-09-25T10:14:56.000Z</time>
      </trkpt>
      <trkpt lat="47.19369" lon="-1.58233">
        <ele>52</ele>
        <time>2021-09-25T10:14:58.000Z</time>
      </trkpt>
      <trkpt lat="47.19364" lon="-1.58251">
        <ele>52</ele>
        <time>2021-09-25T10:15:00.000Z</time>
      </trkpt>
      <trkpt lat="47.19358" lon="-1.58269">
        <ele>52</ele>
        <time>2021-09-25T10:15:02.000Z</time>
      </trkpt>
      <trkpt lat="47.19349" lon="-1.58283">
        <ele>52</ele>
        <time>2021-09-25T10:15:04.000Z</time>
      </trkpt>
      <trkpt lat="47.19337" lon="-1.58293">
        <ele>52</ele>
        <time>2021-09-25T10:15:06.000Z</time>
      </trkpt>
      <trkpt lat="47.19325" lon="-1.58302">
        <ele>52</ele>
        <time>2021-09-25T10:15:08.000Z</time>
      </trkpt>
      <trkpt lat="47.19314" lon="-1.58314">
        <ele>52</ele>
        <time>2021-09-25T10:15:10.000Z</time>
      </trkpt>
      <trkpt lat="47.19302" lon="-1.58324">
        <ele>52</ele>
        <time>2021-09-25T10:15:12.000Z</time>
      </trkpt>
      <trkpt lat="47.19291" lon="-1.58334">
        <ele>52</ele>
        <time>2021-09-25T10:15:14.000Z</time>
      </trkpt>
      <trkpt lat="47.19279" lon="-1.58345">
        <ele>53</ele>
        <time>2021-09-25T10:15:16.000Z</time>
      </trkpt>
      <trkpt lat="47.19268" lon="-1.58357">
        <ele>53</ele>
        <time>2021-09-25T10:15:18.000Z</time>
      </trkpt>
      <trkpt lat="47.19257" lon="-1.58368">
        <ele>54</ele>
        <time>2021-09-25T10:15:20.000Z</time>
      </trkpt>
      <trkpt lat="47.19246" lon="-1.58379">
        <ele>54</ele>
        <time>2021-09-25T10:15:22.000Z</time>
      </trkpt>
      <trkpt lat="47.19235" lon="-1.5839">
        <ele>54</ele>
        <time>2021-09-25T10:15:24.000Z</time>
      </trkpt>
      <trkpt lat="47.19223" lon="-1.584">
        <ele>54</ele>
        <time>2021-09-25T10:15:26.000Z</time>
      </trkpt>
      <trkpt lat="47.19212" lon="-1.5841">
        <ele>54</ele>
        <time>2021-09-25T10:15:28.000Z</time>
      </trkpt>
      <trkpt lat="47.192" lon="-1.58421">
        <ele>53</ele>
        <time>2021-09-25T10:15:30.000Z</time>
      </trkpt>
      <trkpt lat="47.19189" lon="-1.58432">
        <ele>54</ele>
        <time>2021-09-25T10:15:32.000Z</time>
      </trkpt>
      <trkpt lat="47.19178" lon="-1.58442">
        <ele>54</ele>
        <time>2021-09-25T10:15:34.000Z</time>
      </trkpt>
      <trkpt lat="47.19167" lon="-1.58451">
        <ele>54</ele>
        <time>2021-09-25T10:15:36.000Z</time>
      </trkpt>
      <trkpt lat="47.19158" lon="-1.58461">
        <ele>54</ele>
        <time>2021-09-25T10:15:38.000Z</time>
      </trkpt>
      <trkpt lat="47.1915" lon="-1.5847">
        <ele>53</ele>
        <time>2021-09-25T10:15:40.000Z</time>
      </trkpt>
      <trkpt lat="47.19142" lon="-1.58478">
        <ele>53</ele>
        <time>2021-09-25T10:15:42.000Z</time>
      </trkpt>
      <trkpt lat="47.19132" lon="-1.58487">
        <ele>53</ele>
        <time>2021-09-25T10:15:44.000Z</time>
      </trkpt>
      <trkpt lat="47.19122" lon="-1.58497">
        <ele>53</ele>
        <time>2021-09-25T10:15:46.000Z</time>
      </trkpt>
      <trkpt lat="47.19111" lon="-1.58507">
        <ele>53</ele>
        <time>2021-09-25T10:15:48.000Z</time>
      </trkpt>
      <trkpt lat="47.19101" lon="-1.58516">
        <ele>53</ele>
        <time>2021-09-25T10:15:50.000Z</time>
      </trkpt>
      <trkpt lat="47.1909" lon="-1.58526">
        <ele>53</ele>
        <time>2021-09-25T10:15:52.000Z</time>
      </trkpt>
      <trkpt lat="47.19079" lon="-1.58537">
        <ele>53</ele>
        <time>2021-09-25T10:15:54.000Z</time>
      </trkpt>
      <trkpt lat="47.19069" lon="-1.58547">
        <ele>53</ele>
        <time>2021-09-25T10:15:56.000Z</time>
      </trkpt>
      <trkpt lat="47.19059" lon="-1.58557">
        <ele>53</ele>
        <time>2021-09-25T10:15:58.000Z</time>
      </trkpt>
      <trkpt lat="47.19049" lon="-1.58568">
        <ele>53</ele>
        <time>2021-09-25T10:16:00.000Z</time>
      </trkpt>
      <trkpt lat="47.1904" lon="-1.58578">
        <ele>53</ele>
        <time>2021-09-25T10:16:02.000Z</time>
      </trkpt>
      <trkpt lat="47.19029" lon="-1.5859">
        <ele>53</ele>
        <time>2021-09-25T10:16:04.000Z</time>
      </trkpt>
      <trkpt lat="47.19019" lon="-1.58601">
        <ele>52</ele>
        <time>2021-09-25T10:16:06.000Z</time>
      </trkpt>
      <trkpt lat="47.19009" lon="-1.58611">
        <ele>52</ele>
        <time>2021-09-25T10:16:08.000Z</time>
      </trkpt>
      <trkpt lat="47.18998" lon="-1.58621">
        <ele>52</ele>
        <time>2021-09-25T10:16:10.000Z</time>
      </trkpt>
      <trkpt lat="47.18988" lon="-1.58631">
        <ele>52</ele>
        <time>2021-09-25T10:16:12.000Z</time>
      </trkpt>
      <trkpt lat="47.18977" lon="-1.58641">
        <ele>52</ele>
        <time>2021-09-25T10:16:14.000Z</time>
      </trkpt>
      <trkpt lat="47.18967" lon="-1.58652">
        <ele>53</ele>
        <time>2021-09-25T10:16:16.000Z</time>
      </trkpt>
      <trkpt lat="47.18956" lon="-1.58663">
        <ele>53</ele>
        <time>2021-09-25T10:16:18.000Z</time>
      </trkpt>
      <trkpt lat="47.18946" lon="-1.58672">
        <ele>53</ele>
        <time>2021-09-25T10:16:20.000Z</time>
      </trkpt>
      <trkpt lat="47.18935" lon="-1.58682">
        <ele>53</ele>
        <time>2021-09-25T10:16:22.000Z</time>
      </trkpt>
      <trkpt lat="47.18924" lon="-1.58692">
        <ele>53</ele>
        <time>2021-09-25T10:16:24.000Z</time>
      </trkpt>
      <trkpt lat="47.18914" lon="-1.58701">
        <ele>53</ele>
        <time>2021-09-25T10:16:26.000Z</time>
      </trkpt>
      <trkpt lat="47.18903" lon="-1.5871">
        <ele>53</ele>
        <time>2021-09-25T10:16:28.000Z</time>
      </trkpt>
      <trkpt lat="47.18893" lon="-1.58717">
        <ele>54</ele>
        <time>2021-09-25T10:16:30.000Z</time>
      </trkpt>
      <trkpt lat="47.18882" lon="-1.58725">
        <ele>54</ele>
        <time>2021-09-25T10:16:32.000Z</time>
      </trkpt>
      <trkpt lat="47.18872" lon="-1.58729">
        <ele>53</ele>
        <time>2021-09-25T10:16:34.000Z</time>
      </trkpt>
      <trkpt lat="47.18862" lon="-1.58734">
        <ele>53</ele>
        <time>2021-09-25T10:16:36.000Z</time>
      </trkpt>
      <trkpt lat="47.18851" lon="-1.58739">
        <ele>54</ele>
        <time>2021-09-25T10:16:38.000Z</time>
      </trkpt>
      <trkpt lat="47.18841" lon="-1.58744">
        <ele>54</ele>
        <time>2021-09-25T10:16:40.000Z</time>
      </trkpt>
      <trkpt lat="47.18833" lon="-1.58752">
        <ele>54</ele>
        <time>2021-09-25T10:16:42.000Z</time>
      </trkpt>
      <trkpt lat="47.18831" lon="-1.58766">
        <ele>53</ele>
        <time>2021-09-25T10:16:44.000Z</time>
      </trkpt>
      <trkpt lat="47.18828" lon="-1.58779">
        <ele>53</ele>
        <time>2021-09-25T10:16:46.000Z</time>
      </trkpt>
      <trkpt lat="47.18821" lon="-1.58792">
        <ele>53</ele>
        <time>2021-09-25T10:16:48.000Z</time>
      </trkpt>
      <trkpt lat="47.18813" lon="-1.58804">
        <ele>53</ele>
        <time>2021-09-25T10:16:50.000Z</time>
      </trkpt>
      <trkpt lat="47.18802" lon="-1.58811">
        <ele>53</ele>
        <time>2021-09-25T10:16:52.000Z</time>
      </trkpt>
      <trkpt lat="47.18791" lon="-1.58818">
        <ele>53</ele>
        <time>2021-09-25T10:16:54.000Z</time>
      </trkpt>
      <trkpt lat="47.18785" lon="-1.58834">
        <ele>53</ele>
        <time>2021-09-25T10:16:56.000Z</time>
      </trkpt>
      <trkpt lat="47.18781" lon="-1.58851">
        <ele>52</ele>
        <time>2021-09-25T10:16:58.000Z</time>
      </trkpt>
      <trkpt lat="47.18778" lon="-1.5887">
        <ele>52</ele>
        <time>2021-09-25T10:17:00.000Z</time>
      </trkpt>
      <trkpt lat="47.18775" lon="-1.58889">
        <ele>52</ele>
        <time>2021-09-25T10:17:02.000Z</time>
      </trkpt>
      <trkpt lat="47.18772" lon="-1.5891">
        <ele>53</ele>
        <time>2021-09-25T10:17:04.000Z</time>
      </trkpt>
      <trkpt lat="47.1877" lon="-1.58932">
        <ele>52</ele>
        <time>2021-09-25T10:17:06.000Z</time>
      </trkpt>
      <trkpt lat="47.18767" lon="-1.58953">
        <ele>52</ele>
        <time>2021-09-25T10:17:08.000Z</time>
      </trkpt>
      <trkpt lat="47.18765" lon="-1.58974">
        <ele>52</ele>
        <time>2021-09-25T10:17:10.000Z</time>
      </trkpt>
      <trkpt lat="47.18763" lon="-1.58995">
        <ele>52</ele>
        <time>2021-09-25T10:17:12.000Z</time>
      </trkpt>
      <trkpt lat="47.1876" lon="-1.59015">
        <ele>52</ele>
        <time>2021-09-25T10:17:14.000Z</time>
      </trkpt>
      <trkpt lat="47.18758" lon="-1.59036">
        <ele>52</ele>
        <time>2021-09-25T10:17:16.000Z</time>
      </trkpt>
      <trkpt lat="47.18756" lon="-1.59057">
        <ele>52</ele>
        <time>2021-09-25T10:17:18.000Z</time>
      </trkpt>
      <trkpt lat="47.18754" lon="-1.59077">
        <ele>52</ele>
        <time>2021-09-25T10:17:20.000Z</time>
      </trkpt>
      <trkpt lat="47.18752" lon="-1.59099">
        <ele>52</ele>
        <time>2021-09-25T10:17:22.000Z</time>
      </trkpt>
      <trkpt lat="47.18749" lon="-1.59121">
        <ele>52</ele>
        <time>2021-09-25T10:17:24.000Z</time>
      </trkpt>
      <trkpt lat="47.18747" lon="-1.59142">
        <ele>52</ele>
        <time>2021-09-25T10:17:26.000Z</time>
      </trkpt>
      <trkpt lat="47.18744" lon="-1.59163">
        <ele>52</ele>
        <time>2021-09-25T10:17:28.000Z</time>
      </trkpt>
      <trkpt lat="47.18742" lon="-1.59184">
        <ele>52</ele>
        <time>2021-09-25T10:17:30.000Z</time>
      </trkpt>
      <trkpt lat="47.1874" lon="-1.59205">
        <ele>52</ele>
        <time>2021-09-25T10:17:32.000Z</time>
      </trkpt>
      <trkpt lat="47.18738" lon="-1.59225">
        <ele>52</ele>
        <time>2021-09-25T10:17:34.000Z</time>
      </trkpt>
      <trkpt lat="47.18736" lon="-1.59246">
        <ele>51</ele>
        <time>2021-09-25T10:17:36.000Z</time>
      </trkpt>
      <trkpt lat="47.18733" lon="-1.59267">
        <ele>51</ele>
        <time>2021-09-25T10:17:38.000Z</time>
      </trkpt>
      <trkpt lat="47.18731" lon="-1.59287">
        <ele>51</ele>
        <time>2021-09-25T10:17:40.000Z</time>
      </trkpt>
      <trkpt lat="47.18729" lon="-1.59308">
        <ele>51</ele>
        <time>2021-09-25T10:17:42.000Z</time>
      </trkpt>
      <trkpt lat="47.18727" lon="-1.59329">
        <ele>51</ele>
        <time>2021-09-25T10:17:44.000Z</time>
      </trkpt>
      <trkpt lat="47.18725" lon="-1.59349">
        <ele>51</ele>
        <time>2021-09-25T10:17:46.000Z</time>
      </trkpt>
      <trkpt lat="47.18723" lon="-1.5937">
        <ele>51</ele>
        <time>2021-09-25T10:17:48.000Z</time>
      </trkpt>
      <trkpt lat="47.1872" lon="-1.5939">
        <ele>52</ele>
        <time>2021-09-25T10:17:50.000Z</time>
      </trkpt>
      <trkpt lat="47.18718" lon="-1.59411">
        <ele>52</ele>
        <time>2021-09-25T10:17:52.000Z</time>
      </trkpt>
      <trkpt lat="47.18716" lon="-1.59432">
        <ele>52</ele>
        <time>2021-09-25T10:17:54.000Z</time>
      </trkpt>
      <trkpt lat="47.18714" lon="-1.59452">
        <ele>52</ele>
        <time>2021-09-25T10:17:56.000Z</time>
      </trkpt>
      <trkpt lat="47.18711" lon="-1.59473">
        <ele>52</ele>
        <time>2021-09-25T10:17:58.000Z</time>
      </trkpt>
      <trkpt lat="47.18709" lon="-1.59493">
        <ele>52</ele>
        <time>2021-09-25T10:18:00.000Z</time>
      </trkpt>
      <trkpt lat="47.18707" lon="-1.59514">
        <ele>52</ele>
        <time>2021-09-25T10:18:02.000Z</time>
      </trkpt>
      <trkpt lat="47.18704" lon="-1.59535">
        <ele>52</ele>
        <time>2021-09-25T10:18:04.000Z</time>
      </trkpt>
      <trkpt lat="47.18702" lon="-1.59555">
        <ele>52</ele>
        <time>2021-09-25T10:18:06.000Z</time>
      </trkpt>
      <trkpt lat="47.187" lon="-1.59576">
        <ele>52</ele>
        <time>2021-09-25T10:18:08.000Z</time>
      </trkpt>
      <trkpt lat="47.18697" lon="-1.59596">
        <ele>52</ele>
        <time>2021-09-25T10:18:10.000Z</time>
      </trkpt>
      <trkpt lat="47.18695" lon="-1.59617">
        <ele>52</ele>
        <time>2021-09-25T10:18:12.000Z</time>
      </trkpt>
      <trkpt lat="47.18692" lon="-1.59637">
        <ele>52</ele>
        <time>2021-09-25T10:18:14.000Z</time>
      </trkpt>
      <trkpt lat="47.18689" lon="-1.59657">
        <ele>52</ele>
        <time>2021-09-25T10:18:16.000Z</time>
      </trkpt>
      <trkpt lat="47.18687" lon="-1.59677">
        <ele>52</ele>
        <time>2021-09-25T10:18:18.000Z</time>
      </trkpt>
      <trkpt lat="47.18684" lon="-1.59697">
        <ele>52</ele>
        <time>2021-09-25T10:18:20.000Z</time>
      </trkpt>
      <trkpt lat="47.18682" lon="-1.59718">
        <ele>52</ele>
        <time>2021-09-25T10:18:22.000Z</time>
      </trkpt>
      <trkpt lat="47.18681" lon="-1.59739">
        <ele>51</ele>
        <time>2021-09-25T10:18:24.000Z</time>
      </trkpt>
      <trkpt lat="47.18681" lon="-1.59761">
        <ele>51</ele>
        <time>2021-09-25T10:18:26.000Z</time>
      </trkpt>
      <trkpt lat="47.18682" lon="-1.59782">
        <ele>51</ele>
        <time>2021-09-25T10:18:28.000Z</time>
      </trkpt>
      <trkpt lat="47.18683" lon="-1.59805">
        <ele>51</ele>
        <time>2021-09-25T10:18:30.000Z</time>
      </trkpt>
      <trkpt lat="47.18678" lon="-1.59825">
        <ele>51</ele>
        <time>2021-09-25T10:18:32.000Z</time>
      </trkpt>
      <trkpt lat="47.18668" lon="-1.5984">
        <ele>51</ele>
        <time>2021-09-25T10:18:34.000Z</time>
      </trkpt>
      <trkpt lat="47.18656" lon="-1.59847">
        <ele>51</ele>
        <time>2021-09-25T10:18:36.000Z</time>
      </trkpt>
      <trkpt lat="47.18643" lon="-1.59843">
        <ele>51</ele>
        <time>2021-09-25T10:18:38.000Z</time>
      </trkpt>
      <trkpt lat="47.1863" lon="-1.59834">
        <ele>52</ele>
        <time>2021-09-25T10:18:40.000Z</time>
      </trkpt>
      <trkpt lat="47.18621" lon="-1.59831">
        <ele>51</ele>
        <time>2021-09-25T10:18:42.000Z</time>
      </trkpt>
      <trkpt lat="47.18615" lon="-1.59842">
        <ele>51</ele>
        <time>2021-09-25T10:18:45.000Z</time>
      </trkpt>
      <trkpt lat="47.18619" lon="-1.59856">
        <ele>51</ele>
        <time>2021-09-25T10:18:47.000Z</time>
      </trkpt>
      <trkpt lat="47.18622" lon="-1.59873">
        <ele>52</ele>
        <time>2021-09-25T10:18:49.000Z</time>
      </trkpt>
      <trkpt lat="47.18618" lon="-1.5989">
        <ele>52</ele>
        <time>2021-09-25T10:18:51.000Z</time>
      </trkpt>
      <trkpt lat="47.18613" lon="-1.59909">
        <ele>52</ele>
        <time>2021-09-25T10:18:53.000Z</time>
      </trkpt>
      <trkpt lat="47.18607" lon="-1.59928">
        <ele>51</ele>
        <time>2021-09-25T10:18:55.000Z</time>
      </trkpt>
      <trkpt lat="47.18602" lon="-1.59946">
        <ele>52</ele>
        <time>2021-09-25T10:18:57.000Z</time>
      </trkpt>
      <trkpt lat="47.18597" lon="-1.59963">
        <ele>51</ele>
        <time>2021-09-25T10:18:59.000Z</time>
      </trkpt>
      <trkpt lat="47.18591" lon="-1.59981">
        <ele>51</ele>
        <time>2021-09-25T10:19:01.000Z</time>
      </trkpt>
      <trkpt lat="47.18586" lon="-1.59998">
        <ele>51</ele>
        <time>2021-09-25T10:19:03.000Z</time>
      </trkpt>
      <trkpt lat="47.1858" lon="-1.60016">
        <ele>51</ele>
        <time>2021-09-25T10:19:05.000Z</time>
      </trkpt>
      <trkpt lat="47.18574" lon="-1.60033">
        <ele>52</ele>
        <time>2021-09-25T10:19:07.000Z</time>
      </trkpt>
      <trkpt lat="47.18568" lon="-1.6005">
        <ele>52</ele>
        <time>2021-09-25T10:19:09.000Z</time>
      </trkpt>
      <trkpt lat="47.18561" lon="-1.60068">
        <ele>52</ele>
        <time>2021-09-25T10:19:11.000Z</time>
      </trkpt>
      <trkpt lat="47.18555" lon="-1.60084">
        <ele>52</ele>
        <time>2021-09-25T10:19:13.000Z</time>
      </trkpt>
      <trkpt lat="47.18548" lon="-1.601">
        <ele>52</ele>
        <time>2021-09-25T10:19:15.000Z</time>
      </trkpt>
      <trkpt lat="47.18541" lon="-1.60116">
        <ele>52</ele>
        <time>2021-09-25T10:19:17.000Z</time>
      </trkpt>
      <trkpt lat="47.18534" lon="-1.60133">
        <ele>52</ele>
        <time>2021-09-25T10:19:19.000Z</time>
      </trkpt>
      <trkpt lat="47.18527" lon="-1.60148">
        <ele>51</ele>
        <time>2021-09-25T10:19:21.000Z</time>
      </trkpt>
      <trkpt lat="47.1852" lon="-1.60164">
        <ele>51</ele>
        <time>2021-09-25T10:19:23.000Z</time>
      </trkpt>
      <trkpt lat="47.18511" lon="-1.6018">
        <ele>51</ele>
        <time>2021-09-25T10:19:25.000Z</time>
      </trkpt>
      <trkpt lat="47.18504" lon="-1.60195">
        <ele>51</ele>
        <time>2021-09-25T10:19:27.000Z</time>
      </trkpt>
      <trkpt lat="47.18496" lon="-1.60211">
        <ele>51</ele>
        <time>2021-09-25T10:19:29.000Z</time>
      </trkpt>
      <trkpt lat="47.18488" lon="-1.60226">
        <ele>51</ele>
        <time>2021-09-25T10:19:31.000Z</time>
      </trkpt>
      <trkpt lat="47.18479" lon="-1.60242">
        <ele>50</ele>
        <time>2021-09-25T10:19:33.000Z</time>
      </trkpt>
      <trkpt lat="47.18471" lon="-1.60257">
        <ele>50</ele>
        <time>2021-09-25T10:19:35.000Z</time>
      </trkpt>
      <trkpt lat="47.18463" lon="-1.60273">
        <ele>51</ele>
        <time>2021-09-25T10:19:37.000Z</time>
      </trkpt>
      <trkpt lat="47.18455" lon="-1.60287">
        <ele>50</ele>
        <time>2021-09-25T10:19:39.000Z</time>
      </trkpt>
      <trkpt lat="47.18446" lon="-1.60302">
        <ele>50</ele>
        <time>2021-09-25T10:19:41.000Z</time>
      </trkpt>
      <trkpt lat="47.18437" lon="-1.60317">
        <ele>50</ele>
        <time>2021-09-25T10:19:43.000Z</time>
      </trkpt>
      <trkpt lat="47.18427" lon="-1.60331">
        <ele>50</ele>
        <time>2021-09-25T10:19:45.000Z</time>
      </trkpt>
      <trkpt lat="47.18418" lon="-1.60345">
        <ele>50</ele>
        <time>2021-09-25T10:19:47.000Z</time>
      </trkpt>
      <trkpt lat="47.18409" lon="-1.60359">
        <ele>50</ele>
        <time>2021-09-25T10:19:49.000Z</time>
      </trkpt>
      <trkpt lat="47.18399" lon="-1.60372">
        <ele>50</ele>
        <time>2021-09-25T10:19:51.000Z</time>
      </trkpt>
      <trkpt lat="47.18389" lon="-1.60385">
        <ele>50</ele>
        <time>2021-09-25T10:19:53.000Z</time>
      </trkpt>
      <trkpt lat="47.18379" lon="-1.60398">
        <ele>50</ele>
        <time>2021-09-25T10:19:55.000Z</time>
      </trkpt>
      <trkpt lat="47.18369" lon="-1.60411">
        <ele>50</ele>
        <time>2021-09-25T10:19:57.000Z</time>
      </trkpt>
      <trkpt lat="47.18359" lon="-1.60424">
        <ele>50</ele>
        <time>2021-09-25T10:19:59.000Z</time>
      </trkpt>
      <trkpt lat="47.18344" lon="-1.60443">
        <ele>50</ele>
        <time>2021-09-25T10:20:02.000Z</time>
      </trkpt>
      <trkpt lat="47.18334" lon="-1.60456">
        <ele>50</ele>
        <time>2021-09-25T10:20:04.000Z</time>
      </trkpt>
      <trkpt lat="47.18318" lon="-1.60475">
        <ele>50</ele>
        <time>2021-09-25T10:20:07.000Z</time>
      </trkpt>
      <trkpt lat="47.18307" lon="-1.60486">
        <ele>50</ele>
        <time>2021-09-25T10:20:09.000Z</time>
      </trkpt>
      <trkpt lat="47.18297" lon="-1.60498">
        <ele>50</ele>
        <time>2021-09-25T10:20:11.000Z</time>
      </trkpt>
      <trkpt lat="47.18286" lon="-1.60509">
        <ele>50</ele>
        <time>2021-09-25T10:20:13.000Z</time>
      </trkpt>
      <trkpt lat="47.18275" lon="-1.6052">
        <ele>50</ele>
        <time>2021-09-25T10:20:15.000Z</time>
      </trkpt>
      <trkpt lat="47.18264" lon="-1.60531">
        <ele>50</ele>
        <time>2021-09-25T10:20:17.000Z</time>
      </trkpt>
      <trkpt lat="47.18253" lon="-1.60541">
        <ele>50</ele>
        <time>2021-09-25T10:20:19.000Z</time>
      </trkpt>
      <trkpt lat="47.18242" lon="-1.60549">
        <ele>50</ele>
        <time>2021-09-25T10:20:21.000Z</time>
      </trkpt>
      <trkpt lat="47.18231" lon="-1.60557">
        <ele>50</ele>
        <time>2021-09-25T10:20:23.000Z</time>
      </trkpt>
      <trkpt lat="47.1822" lon="-1.60564">
        <ele>51</ele>
        <time>2021-09-25T10:20:25.000Z</time>
      </trkpt>
      <trkpt lat="47.18206" lon="-1.60572">
        <ele>51</ele>
        <time>2021-09-25T10:20:28.000Z</time>
      </trkpt>
      <trkpt lat="47.18196" lon="-1.60575">
        <ele>52</ele>
        <time>2021-09-25T10:20:30.000Z</time>
      </trkpt>
      <trkpt lat="47.18187" lon="-1.60589">
        <ele>52</ele>
        <time>2021-09-25T10:20:34.000Z</time>
      </trkpt>
      <trkpt lat="47.18179" lon="-1.60603">
        <ele>52</ele>
        <time>2021-09-25T10:20:37.000Z</time>
      </trkpt>
      <trkpt lat="47.18167" lon="-1.60605">
        <ele>52</ele>
        <time>2021-09-25T10:20:39.000Z</time>
      </trkpt>
      <trkpt lat="47.18155" lon="-1.60606">
        <ele>53</ele>
        <time>2021-09-25T10:20:41.000Z</time>
      </trkpt>
      <trkpt lat="47.18142" lon="-1.60605">
        <ele>53</ele>
        <time>2021-09-25T10:20:43.000Z</time>
      </trkpt>
      <trkpt lat="47.1813" lon="-1.60604">
        <ele>53</ele>
        <time>2021-09-25T10:20:45.000Z</time>
      </trkpt>
      <trkpt lat="47.18117" lon="-1.606">
        <ele>52</ele>
        <time>2021-09-25T10:20:47.000Z</time>
      </trkpt>
      <trkpt lat="47.18104" lon="-1.60596">
        <ele>52</ele>
        <time>2021-09-25T10:20:49.000Z</time>
      </trkpt>
      <trkpt lat="47.18092" lon="-1.6059">
        <ele>52</ele>
        <time>2021-09-25T10:20:51.000Z</time>
      </trkpt>
      <trkpt lat="47.18081" lon="-1.60584">
        <ele>52</ele>
        <time>2021-09-25T10:20:53.000Z</time>
      </trkpt>
      <trkpt lat="47.18069" lon="-1.60576">
        <ele>52</ele>
        <time>2021-09-25T10:20:55.000Z</time>
      </trkpt>
      <trkpt lat="47.18058" lon="-1.60569">
        <ele>51</ele>
        <time>2021-09-25T10:20:57.000Z</time>
      </trkpt>
      <trkpt lat="47.18046" lon="-1.60562">
        <ele>52</ele>
        <time>2021-09-25T10:20:59.000Z</time>
      </trkpt>
      <trkpt lat="47.18034" lon="-1.60557">
        <ele>52</ele>
        <time>2021-09-25T10:21:01.000Z</time>
      </trkpt>
      <trkpt lat="47.18022" lon="-1.60553">
        <ele>53</ele>
        <time>2021-09-25T10:21:03.000Z</time>
      </trkpt>
      <trkpt lat="47.1801" lon="-1.60554">
        <ele>52</ele>
        <time>2021-09-25T10:21:05.000Z</time>
      </trkpt>
      <trkpt lat="47.17998" lon="-1.60557">
        <ele>53</ele>
        <time>2021-09-25T10:21:07.000Z</time>
      </trkpt>
      <trkpt lat="47.17986" lon="-1.60562">
        <ele>53</ele>
        <time>2021-09-25T10:21:09.000Z</time>
      </trkpt>
      <trkpt lat="47.17975" lon="-1.60566">
        <ele>54</ele>
        <time>2021-09-25T10:21:11.000Z</time>
      </trkpt>
      <trkpt lat="47.17964" lon="-1.60571">
        <ele>54</ele>
        <time>2021-09-25T10:21:13.000Z</time>
      </trkpt>
      <trkpt lat="47.17955" lon="-1.60577">
        <ele>53</ele>
        <time>2021-09-25T10:21:15.000Z</time>
      </trkpt>
      <trkpt lat="47.17942" lon="-1.60583">
        <ele>53</ele>
        <time>2021-09-25T10:21:17.000Z</time>
      </trkpt>
      <trkpt lat="47.17931" lon="-1.60586">
        <ele>54</ele>
        <time>2021-09-25T10:21:19.000Z</time>
      </trkpt>
      <trkpt lat="47.1792" lon="-1.60587">
        <ele>54</ele>
        <time>2021-09-25T10:21:21.000Z</time>
      </trkpt>
      <trkpt lat="47.17911" lon="-1.60589">
        <ele>54</ele>
        <time>2021-09-25T10:21:23.000Z</time>
      </trkpt>
      <trkpt lat="47.17902" lon="-1.60599">
        <ele>55</ele>
        <time>2021-09-25T10:21:25.000Z</time>
      </trkpt>
      <trkpt lat="47.17899" lon="-1.60616">
        <ele>54</ele>
        <time>2021-09-25T10:21:27.000Z</time>
      </trkpt>
      <trkpt lat="47.17894" lon="-1.60634">
        <ele>54</ele>
        <time>2021-09-25T10:21:29.000Z</time>
      </trkpt>
      <trkpt lat="47.17887" lon="-1.60652">
        <ele>53</ele>
        <time>2021-09-25T10:21:31.000Z</time>
      </trkpt>
      <trkpt lat="47.17881" lon="-1.60671">
        <ele>52</ele>
        <time>2021-09-25T10:21:33.000Z</time>
      </trkpt>
      <trkpt lat="47.17875" lon="-1.60691">
        <ele>51</ele>
        <time>2021-09-25T10:21:35.000Z</time>
      </trkpt>
      <trkpt lat="47.1787" lon="-1.6071">
        <ele>51</ele>
        <time>2021-09-25T10:21:37.000Z</time>
      </trkpt>
      <trkpt lat="47.17865" lon="-1.6073">
        <ele>51</ele>
        <time>2021-09-25T10:21:39.000Z</time>
      </trkpt>
      <trkpt lat="47.17861" lon="-1.60749">
        <ele>50</ele>
        <time>2021-09-25T10:21:41.000Z</time>
      </trkpt>
      <trkpt lat="47.17857" lon="-1.60768">
        <ele>50</ele>
        <time>2021-09-25T10:21:43.000Z</time>
      </trkpt>
      <trkpt lat="47.17853" lon="-1.60787">
        <ele>51</ele>
        <time>2021-09-25T10:21:45.000Z</time>
      </trkpt>
      <trkpt lat="47.17848" lon="-1.60805">
        <ele>51</ele>
        <time>2021-09-25T10:21:47.000Z</time>
      </trkpt>
      <trkpt lat="47.17844" lon="-1.60824">
        <ele>51</ele>
        <time>2021-09-25T10:21:49.000Z</time>
      </trkpt>
      <trkpt lat="47.17838" lon="-1.60841">
        <ele>51</ele>
        <time>2021-09-25T10:21:51.000Z</time>
      </trkpt>
      <trkpt lat="47.17831" lon="-1.60857">
        <ele>51</ele>
        <time>2021-09-25T10:21:53.000Z</time>
      </trkpt>
      <trkpt lat="47.17823" lon="-1.60872">
        <ele>51</ele>
        <time>2021-09-25T10:21:55.000Z</time>
      </trkpt>
      <trkpt lat="47.17813" lon="-1.60885">
        <ele>51</ele>
        <time>2021-09-25T10:21:57.000Z</time>
      </trkpt>
      <trkpt lat="47.17802" lon="-1.60896">
        <ele>52</ele>
        <time>2021-09-25T10:21:59.000Z</time>
      </trkpt>
      <trkpt lat="47.17791" lon="-1.60906">
        <ele>52</ele>
        <time>2021-09-25T10:22:01.000Z</time>
      </trkpt>
      <trkpt lat="47.1778" lon="-1.60914">
        <ele>52</ele>
        <time>2021-09-25T10:22:03.000Z</time>
      </trkpt>
      <trkpt lat="47.17769" lon="-1.60923">
        <ele>52</ele>
        <time>2021-09-25T10:22:05.000Z</time>
      </trkpt>
      <trkpt lat="47.17758" lon="-1.60933">
        <ele>52</ele>
        <time>2021-09-25T10:22:07.000Z</time>
      </trkpt>
      <trkpt lat="47.17747" lon="-1.60941">
        <ele>52</ele>
        <time>2021-09-25T10:22:09.000Z</time>
      </trkpt>
      <trkpt lat="47.17735" lon="-1.6095">
        <ele>52</ele>
        <time>2021-09-25T10:22:11.000Z</time>
      </trkpt>
      <trkpt lat="47.17724" lon="-1.60959">
        <ele>52</ele>
        <time>2021-09-25T10:22:13.000Z</time>
      </trkpt>
      <trkpt lat="47.17712" lon="-1.60966">
        <ele>52</ele>
        <time>2021-09-25T10:22:15.000Z</time>
      </trkpt>
      <trkpt lat="47.177" lon="-1.60973">
        <ele>51</ele>
        <time>2021-09-25T10:22:17.000Z</time>
      </trkpt>
      <trkpt lat="47.17687" lon="-1.60976">
        <ele>52</ele>
        <time>2021-09-25T10:22:19.000Z</time>
      </trkpt>
      <trkpt lat="47.17672" lon="-1.60973">
        <ele>52</ele>
        <time>2021-09-25T10:22:21.000Z</time>
      </trkpt>
      <trkpt lat="47.17657" lon="-1.60975">
        <ele>52</ele>
        <time>2021-09-25T10:22:23.000Z</time>
      </trkpt>
      <trkpt lat="47.17645" lon="-1.60985">
        <ele>52</ele>
        <time>2021-09-25T10:22:25.000Z</time>
      </trkpt>
      <trkpt lat="47.17634" lon="-1.60994">
        <ele>52</ele>
        <time>2021-09-25T10:22:27.000Z</time>
      </trkpt>
      <trkpt lat="47.17622" lon="-1.61004">
        <ele>52</ele>
        <time>2021-09-25T10:22:29.000Z</time>
      </trkpt>
      <trkpt lat="47.1761" lon="-1.61014">
        <ele>51</ele>
        <time>2021-09-25T10:22:31.000Z</time>
      </trkpt>
      <trkpt lat="47.17599" lon="-1.61024">
        <ele>51</ele>
        <time>2021-09-25T10:22:33.000Z</time>
      </trkpt>
      <trkpt lat="47.17588" lon="-1.61034">
        <ele>51</ele>
        <time>2021-09-25T10:22:35.000Z</time>
      </trkpt>
      <trkpt lat="47.17577" lon="-1.61044">
        <ele>51</ele>
        <time>2021-09-25T10:22:37.000Z</time>
      </trkpt>
      <trkpt lat="47.17565" lon="-1.61053">
        <ele>51</ele>
        <time>2021-09-25T10:22:39.000Z</time>
      </trkpt>
      <trkpt lat="47.17554" lon="-1.61062">
        <ele>51</ele>
        <time>2021-09-25T10:22:41.000Z</time>
      </trkpt>
      <trkpt lat="47.17543" lon="-1.61072">
        <ele>51</ele>
        <time>2021-09-25T10:22:43.000Z</time>
      </trkpt>
      <trkpt lat="47.17532" lon="-1.61081">
        <ele>51</ele>
        <time>2021-09-25T10:22:45.000Z</time>
      </trkpt>
      <trkpt lat="47.17521" lon="-1.61091">
        <ele>51</ele>
        <time>2021-09-25T10:22:47.000Z</time>
      </trkpt>
      <trkpt lat="47.17511" lon="-1.61099">
        <ele>51</ele>
        <time>2021-09-25T10:22:49.000Z</time>
      </trkpt>
      <trkpt lat="47.175" lon="-1.61104">
        <ele>51</ele>
        <time>2021-09-25T10:22:51.000Z</time>
      </trkpt>
      <trkpt lat="47.17488" lon="-1.61105">
        <ele>52</ele>
        <time>2021-09-25T10:22:53.000Z</time>
      </trkpt>
      <trkpt lat="47.17477" lon="-1.61104">
        <ele>52</ele>
        <time>2021-09-25T10:22:55.000Z</time>
      </trkpt>
      <trkpt lat="47.17467" lon="-1.61098">
        <ele>53</ele>
        <time>2021-09-25T10:22:57.000Z</time>
      </trkpt>
      <trkpt lat="47.17458" lon="-1.61089">
        <ele>54</ele>
        <time>2021-09-25T10:22:59.000Z</time>
      </trkpt>
      <trkpt lat="47.1745" lon="-1.61079">
        <ele>54</ele>
        <time>2021-09-25T10:23:01.000Z</time>
      </trkpt>
      <trkpt lat="47.17442" lon="-1.61067">
        <ele>54</ele>
        <time>2021-09-25T10:23:03.000Z</time>
      </trkpt>
      <trkpt lat="47.17436" lon="-1.61054">
        <ele>55</ele>
        <time>2021-09-25T10:23:05.000Z</time>
      </trkpt>
      <trkpt lat="47.17432" lon="-1.61041">
        <ele>55</ele>
        <time>2021-09-25T10:23:07.000Z</time>
      </trkpt>
      <trkpt lat="47.17428" lon="-1.61025">
        <ele>55</ele>
        <time>2021-09-25T10:23:10.000Z</time>
      </trkpt>
      <trkpt lat="47.17418" lon="-1.61029">
        <ele>56</ele>
        <time>2021-09-25T10:23:15.000Z</time>
      </trkpt>
      <trkpt lat="47.17422" lon="-1.61048">
        <ele>56</ele>
        <time>2021-09-25T10:23:18.000Z</time>
      </trkpt>
      <trkpt lat="47.17428" lon="-1.61063">
        <ele>56</ele>
        <time>2021-09-25T10:23:20.000Z</time>
      </trkpt>
      <trkpt lat="47.17433" lon="-1.61077">
        <ele>56</ele>
        <time>2021-09-25T10:23:22.000Z</time>
      </trkpt>
      <trkpt lat="47.17439" lon="-1.61092">
        <ele>56</ele>
        <time>2021-09-25T10:23:24.000Z</time>
      </trkpt>
      <trkpt lat="47.17446" lon="-1.61106">
        <ele>57</ele>
        <time>2021-09-25T10:23:26.000Z</time>
      </trkpt>
      <trkpt lat="47.17451" lon="-1.6112">
        <ele>57</ele>
        <time>2021-09-25T10:23:28.000Z</time>
      </trkpt>
      <trkpt lat="47.17457" lon="-1.61134">
        <ele>58</ele>
        <time>2021-09-25T10:23:30.000Z</time>
      </trkpt>
      <trkpt lat="47.17463" lon="-1.61148">
        <ele>58</ele>
        <time>2021-09-25T10:23:32.000Z</time>
      </trkpt>
      <trkpt lat="47.17469" lon="-1.61163">
        <ele>58</ele>
        <time>2021-09-25T10:23:34.000Z</time>
      </trkpt>
      <trkpt lat="47.17475" lon="-1.61177">
        <ele>59</ele>
        <time>2021-09-25T10:23:36.000Z</time>
      </trkpt>
      <trkpt lat="47.1748" lon="-1.61191">
        <ele>59</ele>
        <time>2021-09-25T10:23:38.000Z</time>
      </trkpt>
      <trkpt lat="47.17486" lon="-1.61205">
        <ele>59</ele>
        <time>2021-09-25T10:23:40.000Z</time>
      </trkpt>
      <trkpt lat="47.17492" lon="-1.61219">
        <ele>59</ele>
        <time>2021-09-25T10:23:42.000Z</time>
      </trkpt>
      <trkpt lat="47.17497" lon="-1.61233">
        <ele>59</ele>
        <time>2021-09-25T10:23:44.000Z</time>
      </trkpt>
      <trkpt lat="47.17504" lon="-1.61247">
        <ele>59</ele>
        <time>2021-09-25T10:23:46.000Z</time>
      </trkpt>
      <trkpt lat="47.17511" lon="-1.6126">
        <ele>60</ele>
        <time>2021-09-25T10:23:48.000Z</time>
      </trkpt>
      <trkpt lat="47.17518" lon="-1.61272">
        <ele>60</ele>
        <time>2021-09-25T10:23:50.000Z</time>
      </trkpt>
      <trkpt lat="47.17527" lon="-1.61283">
        <ele>60</ele>
        <time>2021-09-25T10:23:52.000Z</time>
      </trkpt>
      <trkpt lat="47.17537" lon="-1.61291">
        <ele>60</ele>
        <time>2021-09-25T10:23:54.000Z</time>
      </trkpt>
      <trkpt lat="47.17548" lon="-1.61296">
        <ele>60</ele>
        <time>2021-09-25T10:23:56.000Z</time>
      </trkpt>
      <trkpt lat="47.17558" lon="-1.61307">
        <ele>59</ele>
        <time>2021-09-25T10:23:58.000Z</time>
      </trkpt>
      <trkpt lat="47.17561" lon="-1.61324">
        <ele>59</ele>
        <time>2021-09-25T10:24:00.000Z</time>
      </trkpt>
      <trkpt lat="47.17556" lon="-1.61341">
        <ele>59</ele>
        <time>2021-09-25T10:24:02.000Z</time>
      </trkpt>
      <trkpt lat="47.17546" lon="-1.61353">
        <ele>59</ele>
        <time>2021-09-25T10:24:04.000Z</time>
      </trkpt>
      <trkpt lat="47.17535" lon="-1.61363">
        <ele>59</ele>
        <time>2021-09-25T10:24:06.000Z</time>
      </trkpt>
      <trkpt lat="47.17526" lon="-1.61377">
        <ele>58</ele>
        <time>2021-09-25T10:24:08.000Z</time>
      </trkpt>
      <trkpt lat="47.1752" lon="-1.61396">
        <ele>58</ele>
        <time>2021-09-25T10:24:10.000Z</time>
      </trkpt>
      <trkpt lat="47.17517" lon="-1.61412">
        <ele>58</ele>
        <time>2021-09-25T10:24:12.000Z</time>
      </trkpt>
      <trkpt lat="47.17514" lon="-1.61427">
        <ele>58</ele>
        <time>2021-09-25T10:24:14.000Z</time>
      </trkpt>
      <trkpt lat="47.17511" lon="-1.61442">
        <ele>58</ele>
        <time>2021-09-25T10:24:16.000Z</time>
      </trkpt>
      <trkpt lat="47.17506" lon="-1.61455">
        <ele>59</ele>
        <time>2021-09-25T10:24:18.000Z</time>
      </trkpt>
      <trkpt lat="47.17498" lon="-1.61465">
        <ele>59</ele>
        <time>2021-09-25T10:24:20.000Z</time>
      </trkpt>
      <trkpt lat="47.17487" lon="-1.61469">
        <ele>60</ele>
        <time>2021-09-25T10:24:22.000Z</time>
      </trkpt>
      <trkpt lat="47.17476" lon="-1.61473">
        <ele>60</ele>
        <time>2021-09-25T10:24:24.000Z</time>
      </trkpt>
      <trkpt lat="47.17466" lon="-1.61477">
        <ele>61</ele>
        <time>2021-09-25T10:24:26.000Z</time>
      </trkpt>
      <trkpt lat="47.17455" lon="-1.61482">
        <ele>62</ele>
        <time>2021-09-25T10:24:28.000Z</time>
      </trkpt>
      <trkpt lat="47.17444" lon="-1.61487">
        <ele>63</ele>
        <time>2021-09-25T10:24:30.000Z</time>
      </trkpt>
      <trkpt lat="47.17435" lon="-1.61493">
        <ele>63</ele>
        <time>2021-09-25T10:24:32.000Z</time>
      </trkpt>
      <trkpt lat="47.17425" lon="-1.61499">
        <ele>64</ele>
        <time>2021-09-25T10:24:34.000Z</time>
      </trkpt>
      <trkpt lat="47.17416" lon="-1.61505">
        <ele>64</ele>
        <time>2021-09-25T10:24:36.000Z</time>
      </trkpt>
      <trkpt lat="47.17407" lon="-1.61512">
        <ele>65</ele>
        <time>2021-09-25T10:24:38.000Z</time>
      </trkpt>
      <trkpt lat="47.17397" lon="-1.61519">
        <ele>65</ele>
        <time>2021-09-25T10:24:40.000Z</time>
      </trkpt>
      <trkpt lat="47.17389" lon="-1.61527">
        <ele>66</ele>
        <time>2021-09-25T10:24:42.000Z</time>
      </trkpt>
      <trkpt lat="47.1738" lon="-1.61535">
        <ele>66</ele>
        <time>2021-09-25T10:24:44.000Z</time>
      </trkpt>
      <trkpt lat="47.17371" lon="-1.61543">
        <ele>67</ele>
        <time>2021-09-25T10:24:46.000Z</time>
      </trkpt>
      <trkpt lat="47.17362" lon="-1.61552">
        <ele>67</ele>
        <time>2021-09-25T10:24:48.000Z</time>
      </trkpt>
      <trkpt lat="47.17354" lon="-1.61561">
        <ele>68</ele>
        <time>2021-09-25T10:24:50.000Z</time>
      </trkpt>
      <trkpt lat="47.17346" lon="-1.61569">
        <ele>68</ele>
        <time>2021-09-25T10:24:52.000Z</time>
      </trkpt>
      <trkpt lat="47.17339" lon="-1.61579">
        <ele>68</ele>
        <time>2021-09-25T10:24:54.000Z</time>
      </trkpt>
      <trkpt lat="47.17331" lon="-1.61589">
        <ele>68</ele>
        <time>2021-09-25T10:24:56.000Z</time>
      </trkpt>
      <trkpt lat="47.17323" lon="-1.616">
        <ele>68</ele>
        <time>2021-09-25T10:24:58.000Z</time>
      </trkpt>
      <trkpt lat="47.17315" lon="-1.6161">
        <ele>68</ele>
        <time>2021-09-25T10:25:00.000Z</time>
      </trkpt>
      <trkpt lat="47.17307" lon="-1.61622">
        <ele>68</ele>
        <time>2021-09-25T10:25:02.000Z</time>
      </trkpt>
      <trkpt lat="47.173" lon="-1.61634">
        <ele>68</ele>
        <time>2021-09-25T10:25:04.000Z</time>
      </trkpt>
      <trkpt lat="47.17292" lon="-1.61646">
        <ele>68</ele>
        <time>2021-09-25T10:25:06.000Z</time>
      </trkpt>
      <trkpt lat="47.17286" lon="-1.61659">
        <ele>67</ele>
        <time>2021-09-25T10:25:08.000Z</time>
      </trkpt>
      <trkpt lat="47.17279" lon="-1.61672">
        <ele>68</ele>
        <time>2021-09-25T10:25:10.000Z</time>
      </trkpt>
      <trkpt lat="47.17272" lon="-1.61686">
        <ele>68</ele>
        <time>2021-09-25T10:25:12.000Z</time>
      </trkpt>
      <trkpt lat="47.17265" lon="-1.617">
        <ele>68</ele>
        <time>2021-09-25T10:25:14.000Z</time>
      </trkpt>
      <trkpt lat="47.17258" lon="-1.61713">
        <ele>68</ele>
        <time>2021-09-25T10:25:16.000Z</time>
      </trkpt>
      <trkpt lat="47.17252" lon="-1.61727">
        <ele>68</ele>
        <time>2021-09-25T10:25:18.000Z</time>
      </trkpt>
      <trkpt lat="47.17246" lon="-1.61741">
        <ele>68</ele>
        <time>2021-09-25T10:25:20.000Z</time>
      </trkpt>
      <trkpt lat="47.17242" lon="-1.61757">
        <ele>68</ele>
        <time>2021-09-25T10:25:22.000Z</time>
      </trkpt>
      <trkpt lat="47.1724" lon="-1.61773">
        <ele>68</ele>
        <time>2021-09-25T10:25:24.000Z</time>
      </trkpt>
      <trkpt lat="47.17232" lon="-1.61786">
        <ele>67</ele>
        <time>2021-09-25T10:25:26.000Z</time>
      </trkpt>
      <trkpt lat="47.17221" lon="-1.61795">
        <ele>68</ele>
        <time>2021-09-25T10:25:28.000Z</time>
      </trkpt>
      <trkpt lat="47.1721" lon="-1.61804">
        <ele>67</ele>
        <time>2021-09-25T10:25:30.000Z</time>
      </trkpt>
      <trkpt lat="47.17199" lon="-1.61813">
        <ele>67</ele>
        <time>2021-09-25T10:25:32.000Z</time>
      </trkpt>
      <trkpt lat="47.1719" lon="-1.61822">
        <ele>67</ele>
        <time>2021-09-25T10:25:34.000Z</time>
      </trkpt>
      <trkpt lat="47.1718" lon="-1.61831">
        <ele>66</ele>
        <time>2021-09-25T10:25:36.000Z</time>
      </trkpt>
      <trkpt lat="47.1717" lon="-1.6184">
        <ele>66</ele>
        <time>2021-09-25T10:25:38.000Z</time>
      </trkpt>
      <trkpt lat="47.1716" lon="-1.61849">
        <ele>66</ele>
        <time>2021-09-25T10:25:40.000Z</time>
      </trkpt>
      <trkpt lat="47.1715" lon="-1.61858">
        <ele>66</ele>
        <time>2021-09-25T10:25:42.000Z</time>
      </trkpt>
      <trkpt lat="47.17141" lon="-1.61868">
        <ele>66</ele>
        <time>2021-09-25T10:25:44.000Z</time>
      </trkpt>
      <trkpt lat="47.17131" lon="-1.61877">
        <ele>66</ele>
        <time>2021-09-25T10:25:46.000Z</time>
      </trkpt>
      <trkpt lat="47.17122" lon="-1.61887">
        <ele>66</ele>
        <time>2021-09-25T10:25:48.000Z</time>
      </trkpt>
      <trkpt lat="47.17112" lon="-1.61895">
        <ele>66</ele>
        <time>2021-09-25T10:25:50.000Z</time>
      </trkpt>
      <trkpt lat="47.17102" lon="-1.61905">
        <ele>66</ele>
        <time>2021-09-25T10:25:52.000Z</time>
      </trkpt>
      <trkpt lat="47.17092" lon="-1.61915">
        <ele>66</ele>
        <time>2021-09-25T10:25:54.000Z</time>
      </trkpt>
      <trkpt lat="47.17083" lon="-1.61925">
        <ele>66</ele>
        <time>2021-09-25T10:25:56.000Z</time>
      </trkpt>
      <trkpt lat="47.17074" lon="-1.61933">
        <ele>66</ele>
        <time>2021-09-25T10:25:58.000Z</time>
      </trkpt>
      <trkpt lat="47.17066" lon="-1.61942">
        <ele>66</ele>
        <time>2021-09-25T10:26:00.000Z</time>
      </trkpt>
      <trkpt lat="47.17057" lon="-1.61952">
        <ele>67</ele>
        <time>2021-09-25T10:26:02.000Z</time>
      </trkpt>
      <trkpt lat="47.17048" lon="-1.61964">
        <ele>67</ele>
        <time>2021-09-25T10:26:04.000Z</time>
      </trkpt>
      <trkpt lat="47.1704" lon="-1.61975">
        <ele>67</ele>
        <time>2021-09-25T10:26:06.000Z</time>
      </trkpt>
      <trkpt lat="47.17031" lon="-1.61988">
        <ele>66</ele>
        <time>2021-09-25T10:26:08.000Z</time>
      </trkpt>
      <trkpt lat="47.17023" lon="-1.62">
        <ele>66</ele>
        <time>2021-09-25T10:26:10.000Z</time>
      </trkpt>
      <trkpt lat="47.17014" lon="-1.62013">
        <ele>66</ele>
        <time>2021-09-25T10:26:12.000Z</time>
      </trkpt>
      <trkpt lat="47.17005" lon="-1.62026">
        <ele>66</ele>
        <time>2021-09-25T10:26:14.000Z</time>
      </trkpt>
      <trkpt lat="47.16998" lon="-1.6204">
        <ele>67</ele>
        <time>2021-09-25T10:26:16.000Z</time>
      </trkpt>
      <trkpt lat="47.1699" lon="-1.62055">
        <ele>67</ele>
        <time>2021-09-25T10:26:18.000Z</time>
      </trkpt>
      <trkpt lat="47.16982" lon="-1.62068">
        <ele>67</ele>
        <time>2021-09-25T10:26:20.000Z</time>
      </trkpt>
      <trkpt lat="47.16975" lon="-1.62082">
        <ele>67</ele>
        <time>2021-09-25T10:26:22.000Z</time>
      </trkpt>
      <trkpt lat="47.16968" lon="-1.62095">
        <ele>67</ele>
        <time>2021-09-25T10:26:24.000Z</time>
      </trkpt>
      <trkpt lat="47.1696" lon="-1.62108">
        <ele>67</ele>
        <time>2021-09-25T10:26:26.000Z</time>
      </trkpt>
      <trkpt lat="47.16952" lon="-1.62122">
        <ele>67</ele>
        <time>2021-09-25T10:26:28.000Z</time>
      </trkpt>
      <trkpt lat="47.16945" lon="-1.62136">
        <ele>67</ele>
        <time>2021-09-25T10:26:30.000Z</time>
      </trkpt>
      <trkpt lat="47.16938" lon="-1.62151">
        <ele>67</ele>
        <time>2021-09-25T10:26:32.000Z</time>
      </trkpt>
      <trkpt lat="47.16932" lon="-1.62165">
        <ele>68</ele>
        <time>2021-09-25T10:26:34.000Z</time>
      </trkpt>
      <trkpt lat="47.16925" lon="-1.62179">
        <ele>68</ele>
        <time>2021-09-25T10:26:36.000Z</time>
      </trkpt>
      <trkpt lat="47.16918" lon="-1.62194">
        <ele>68</ele>
        <time>2021-09-25T10:26:38.000Z</time>
      </trkpt>
      <trkpt lat="47.1691" lon="-1.62207">
        <ele>68</ele>
        <time>2021-09-25T10:26:40.000Z</time>
      </trkpt>
      <trkpt lat="47.16901" lon="-1.62219">
        <ele>68</ele>
        <time>2021-09-25T10:26:42.000Z</time>
      </trkpt>
      <trkpt lat="47.16892" lon="-1.62231">
        <ele>68</ele>
        <time>2021-09-25T10:26:44.000Z</time>
      </trkpt>
      <trkpt lat="47.16883" lon="-1.62242">
        <ele>68</ele>
        <time>2021-09-25T10:26:46.000Z</time>
      </trkpt>
      <trkpt lat="47.16874" lon="-1.62254">
        <ele>68</ele>
        <time>2021-09-25T10:26:48.000Z</time>
      </trkpt>
      <trkpt lat="47.16865" lon="-1.62265">
        <ele>68</ele>
        <time>2021-09-25T10:26:50.000Z</time>
      </trkpt>
      <trkpt lat="47.16856" lon="-1.62276">
        <ele>69</ele>
        <time>2021-09-25T10:26:52.000Z</time>
      </trkpt>
      <trkpt lat="47.16846" lon="-1.62288">
        <ele>69</ele>
        <time>2021-09-25T10:26:54.000Z</time>
      </trkpt>
      <trkpt lat="47.16837" lon="-1.62299">
        <ele>69</ele>
        <time>2021-09-25T10:26:56.000Z</time>
      </trkpt>
      <trkpt lat="47.16828" lon="-1.6231">
        <ele>69</ele>
        <time>2021-09-25T10:26:58.000Z</time>
      </trkpt>
      <trkpt lat="47.16817" lon="-1.62318">
        <ele>69</ele>
        <time>2021-09-25T10:27:00.000Z</time>
      </trkpt>
      <trkpt lat="47.16807" lon="-1.62324">
        <ele>69</ele>
        <time>2021-09-25T10:27:02.000Z</time>
      </trkpt>
      <trkpt lat="47.16796" lon="-1.62331">
        <ele>69</ele>
        <time>2021-09-25T10:27:04.000Z</time>
      </trkpt>
      <trkpt lat="47.16784" lon="-1.62337">
        <ele>69</ele>
        <time>2021-09-25T10:27:06.000Z</time>
      </trkpt>
      <trkpt lat="47.16773" lon="-1.62343">
        <ele>69</ele>
        <time>2021-09-25T10:27:08.000Z</time>
      </trkpt>
      <trkpt lat="47.16761" lon="-1.62351">
        <ele>69</ele>
        <time>2021-09-25T10:27:10.000Z</time>
      </trkpt>
      <trkpt lat="47.1675" lon="-1.6236">
        <ele>68</ele>
        <time>2021-09-25T10:27:12.000Z</time>
      </trkpt>
      <trkpt lat="47.16741" lon="-1.62372">
        <ele>68</ele>
        <time>2021-09-25T10:27:14.000Z</time>
      </trkpt>
      <trkpt lat="47.16733" lon="-1.62387">
        <ele>67</ele>
        <time>2021-09-25T10:27:16.000Z</time>
      </trkpt>
      <trkpt lat="47.1673" lon="-1.62403">
        <ele>67</ele>
        <time>2021-09-25T10:27:18.000Z</time>
      </trkpt>
      <trkpt lat="47.16727" lon="-1.62419">
        <ele>67</ele>
        <time>2021-09-25T10:27:20.000Z</time>
      </trkpt>
      <trkpt lat="47.16724" lon="-1.62436">
        <ele>66</ele>
        <time>2021-09-25T10:27:22.000Z</time>
      </trkpt>
      <trkpt lat="47.1672" lon="-1.62452">
        <ele>66</ele>
        <time>2021-09-25T10:27:24.000Z</time>
      </trkpt>
      <trkpt lat="47.16715" lon="-1.62469">
        <ele>66</ele>
        <time>2021-09-25T10:27:26.000Z</time>
      </trkpt>
      <trkpt lat="47.16713" lon="-1.62485">
        <ele>66</ele>
        <time>2021-09-25T10:27:28.000Z</time>
      </trkpt>
      <trkpt lat="47.16719" lon="-1.62498">
        <ele>66</ele>
        <time>2021-09-25T10:27:30.000Z</time>
      </trkpt>
      <trkpt lat="47.16732" lon="-1.62502">
        <ele>66</ele>
        <time>2021-09-25T10:27:32.000Z</time>
      </trkpt>
      <trkpt lat="47.16744" lon="-1.62507">
        <ele>67</ele>
        <time>2021-09-25T10:27:34.000Z</time>
      </trkpt>
      <trkpt lat="47.16755" lon="-1.62513">
        <ele>67</ele>
        <time>2021-09-25T10:27:36.000Z</time>
      </trkpt>
      <trkpt lat="47.16766" lon="-1.6252">
        <ele>67</ele>
        <time>2021-09-25T10:27:38.000Z</time>
      </trkpt>
      <trkpt lat="47.16777" lon="-1.62527">
        <ele>68</ele>
        <time>2021-09-25T10:27:40.000Z</time>
      </trkpt>
      <trkpt lat="47.16788" lon="-1.62534">
        <ele>68</ele>
        <time>2021-09-25T10:27:42.000Z</time>
      </trkpt>
      <trkpt lat="47.16798" lon="-1.62541">
        <ele>69</ele>
        <time>2021-09-25T10:27:44.000Z</time>
      </trkpt>
      <trkpt lat="47.16808" lon="-1.62548">
        <ele>69</ele>
        <time>2021-09-25T10:27:46.000Z</time>
      </trkpt>
      <trkpt lat="47.16818" lon="-1.62558">
        <ele>69</ele>
        <time>2021-09-25T10:27:48.000Z</time>
      </trkpt>
      <trkpt lat="47.16827" lon="-1.62569">
        <ele>68</ele>
        <time>2021-09-25T10:27:50.000Z</time>
      </trkpt>
      <trkpt lat="47.16829" lon="-1.62584">
        <ele>68</ele>
        <time>2021-09-25T10:27:52.000Z</time>
      </trkpt>
      <trkpt lat="47.16824" lon="-1.62597">
        <ele>68</ele>
        <time>2021-09-25T10:27:54.000Z</time>
      </trkpt>
      <trkpt lat="47.16817" lon="-1.62609">
        <ele>68</ele>
        <time>2021-09-25T10:27:56.000Z</time>
      </trkpt>
      <trkpt lat="47.16809" lon="-1.6262">
        <ele>69</ele>
        <time>2021-09-25T10:27:58.000Z</time>
      </trkpt>
      <trkpt lat="47.16802" lon="-1.62633">
        <ele>69</ele>
        <time>2021-09-25T10:28:00.000Z</time>
      </trkpt>
      <trkpt lat="47.16795" lon="-1.62644">
        <ele>69</ele>
        <time>2021-09-25T10:28:02.000Z</time>
      </trkpt>
      <trkpt lat="47.16786" lon="-1.62658">
        <ele>69</ele>
        <time>2021-09-25T10:28:05.000Z</time>
      </trkpt>
      <trkpt lat="47.16777" lon="-1.62658">
        <ele>70</ele>
        <time>2021-09-25T10:28:08.000Z</time>
      </trkpt>
    </trkseg>
  </trk>
</gpx>